<?xml version="1.0" encoding="UTF-8" standalone="no" ?>
<gpx xmlns="http://www.topografix.com/GPX/1/1" xmlns:xsi="http://www.w3.org/2001/XMLSchema-instance" xsi:schemaLocation="http://www.topografix.com/GPX/1/1 http://www.topografix.com/GPX/1/1/gpx.xsd" version="1.1" creator="VisuGPX - https://www.visugpx.com">
  <metadata>
    <name>Boussolenc 7 avr. 2021</name>
    <desc><![CDATA[grp_trc:]]></desc>
  </metadata>
  <trk>
    <name><![CDATA[Boussolenc 7 avr. 2021]]></name>
    <cmt><![CDATA[07:48:21]]></cmt>
    <desc><![CDATA[comment ...]]></desc>
    <trkseg>
      <trkpt lat="44.51306" lon="6.57671">
        <ele>1440</ele>
        <time>2021-04-07T05:48:20Z</time>
      </trkpt>
      <trkpt lat="44.51306" lon="6.57671">
        <ele>1441</ele>
        <time>2021-04-07T05:48:21Z</time>
      </trkpt>
      <trkpt lat="44.51307" lon="6.5767">
        <ele>1442</ele>
        <time>2021-04-07T05:48:22Z</time>
      </trkpt>
      <trkpt lat="44.51308" lon="6.5767">
        <ele>1442</ele>
        <time>2021-04-07T05:48:23Z</time>
      </trkpt>
      <trkpt lat="44.51308" lon="6.57671">
        <ele>1443</ele>
        <time>2021-04-07T05:48:24Z</time>
      </trkpt>
      <trkpt lat="44.51307" lon="6.57671">
        <ele>1444</ele>
        <time>2021-04-07T05:48:25Z</time>
      </trkpt>
      <trkpt lat="44.51306" lon="6.57671">
        <ele>1444</ele>
        <time>2021-04-07T05:48:26Z</time>
      </trkpt>
      <trkpt lat="44.51307" lon="6.57672">
        <ele>1445</ele>
        <time>2021-04-07T05:48:27Z</time>
      </trkpt>
      <trkpt lat="44.51307" lon="6.57672">
        <ele>1445</ele>
        <time>2021-04-07T05:48:28Z</time>
      </trkpt>
      <trkpt lat="44.51306" lon="6.57673">
        <ele>1446</ele>
        <time>2021-04-07T05:48:29Z</time>
      </trkpt>
      <trkpt lat="44.51306" lon="6.57673">
        <ele>1446</ele>
        <time>2021-04-07T05:48:30Z</time>
      </trkpt>
      <trkpt lat="44.51307" lon="6.57673">
        <ele>1446</ele>
        <time>2021-04-07T05:48:31Z</time>
      </trkpt>
      <trkpt lat="44.51307" lon="6.57674">
        <ele>1446</ele>
        <time>2021-04-07T05:48:32Z</time>
      </trkpt>
      <trkpt lat="44.51307" lon="6.57674">
        <ele>1447</ele>
        <time>2021-04-07T05:48:33Z</time>
      </trkpt>
      <trkpt lat="44.51307" lon="6.57675">
        <ele>1448</ele>
        <time>2021-04-07T05:48:34Z</time>
      </trkpt>
      <trkpt lat="44.51307" lon="6.57675">
        <ele>1448</ele>
        <time>2021-04-07T05:48:35Z</time>
      </trkpt>
      <trkpt lat="44.51307" lon="6.57675">
        <ele>1448</ele>
        <time>2021-04-07T05:48:36Z</time>
      </trkpt>
      <trkpt lat="44.51307" lon="6.57675">
        <ele>1448</ele>
        <time>2021-04-07T05:48:37Z</time>
      </trkpt>
      <trkpt lat="44.51307" lon="6.57674">
        <ele>1448</ele>
        <time>2021-04-07T05:48:38Z</time>
      </trkpt>
      <trkpt lat="44.51307" lon="6.57675">
        <ele>1448</ele>
        <time>2021-04-07T05:48:39Z</time>
      </trkpt>
      <trkpt lat="44.51307" lon="6.57675">
        <ele>1448</ele>
        <time>2021-04-07T05:48:40Z</time>
      </trkpt>
      <trkpt lat="44.51307" lon="6.57675">
        <ele>1448</ele>
        <time>2021-04-07T05:48:41Z</time>
      </trkpt>
      <trkpt lat="44.51307" lon="6.57675">
        <ele>1448</ele>
        <time>2021-04-07T05:48:42Z</time>
      </trkpt>
      <trkpt lat="44.51307" lon="6.57675">
        <ele>1448</ele>
        <time>2021-04-07T05:48:43Z</time>
      </trkpt>
      <trkpt lat="44.51307" lon="6.57675">
        <ele>1448</ele>
        <time>2021-04-07T05:48:44Z</time>
      </trkpt>
      <trkpt lat="44.51307" lon="6.57675">
        <ele>1448</ele>
        <time>2021-04-07T05:48:45Z</time>
      </trkpt>
      <trkpt lat="44.51307" lon="6.57675">
        <ele>1448</ele>
        <time>2021-04-07T05:48:46Z</time>
      </trkpt>
      <trkpt lat="44.51307" lon="6.57676">
        <ele>1448</ele>
        <time>2021-04-07T05:48:47Z</time>
      </trkpt>
      <trkpt lat="44.51306" lon="6.57677">
        <ele>1448</ele>
        <time>2021-04-07T05:48:48Z</time>
      </trkpt>
      <trkpt lat="44.51306" lon="6.57677">
        <ele>1449</ele>
        <time>2021-04-07T05:48:49Z</time>
      </trkpt>
      <trkpt lat="44.51307" lon="6.57677">
        <ele>1449</ele>
        <time>2021-04-07T05:48:50Z</time>
      </trkpt>
      <trkpt lat="44.51307" lon="6.57676">
        <ele>1449</ele>
        <time>2021-04-07T05:48:51Z</time>
      </trkpt>
      <trkpt lat="44.51308" lon="6.57676">
        <ele>1449</ele>
        <time>2021-04-07T05:48:52Z</time>
      </trkpt>
      <trkpt lat="44.51307" lon="6.57675">
        <ele>1449</ele>
        <time>2021-04-07T05:48:53Z</time>
      </trkpt>
      <trkpt lat="44.51307" lon="6.57674">
        <ele>1449</ele>
        <time>2021-04-07T05:48:54Z</time>
      </trkpt>
      <trkpt lat="44.51306" lon="6.57673">
        <ele>1449</ele>
        <time>2021-04-07T05:48:55Z</time>
      </trkpt>
      <trkpt lat="44.51306" lon="6.57672">
        <ele>1449</ele>
        <time>2021-04-07T05:48:56Z</time>
      </trkpt>
      <trkpt lat="44.51305" lon="6.57671">
        <ele>1449</ele>
        <time>2021-04-07T05:48:57Z</time>
      </trkpt>
      <trkpt lat="44.51305" lon="6.57671">
        <ele>1449</ele>
        <time>2021-04-07T05:48:58Z</time>
      </trkpt>
      <trkpt lat="44.51305" lon="6.57671">
        <ele>1449</ele>
        <time>2021-04-07T05:48:59Z</time>
      </trkpt>
      <trkpt lat="44.51304" lon="6.57671">
        <ele>1449</ele>
        <time>2021-04-07T05:49:00Z</time>
      </trkpt>
      <trkpt lat="44.51304" lon="6.57672">
        <ele>1450</ele>
        <time>2021-04-07T05:49:01Z</time>
      </trkpt>
      <trkpt lat="44.51304" lon="6.57673">
        <ele>1450</ele>
        <time>2021-04-07T05:49:02Z</time>
      </trkpt>
      <trkpt lat="44.51304" lon="6.57674">
        <ele>1450</ele>
        <time>2021-04-07T05:49:03Z</time>
      </trkpt>
      <trkpt lat="44.51304" lon="6.57675">
        <ele>1450</ele>
        <time>2021-04-07T05:49:04Z</time>
      </trkpt>
      <trkpt lat="44.51304" lon="6.57676">
        <ele>1450</ele>
        <time>2021-04-07T05:49:05Z</time>
      </trkpt>
      <trkpt lat="44.51304" lon="6.57677">
        <ele>1450</ele>
        <time>2021-04-07T05:49:06Z</time>
      </trkpt>
      <trkpt lat="44.51305" lon="6.57677">
        <ele>1450</ele>
        <time>2021-04-07T05:49:07Z</time>
      </trkpt>
      <trkpt lat="44.51305" lon="6.57677">
        <ele>1450</ele>
        <time>2021-04-07T05:49:08Z</time>
      </trkpt>
      <trkpt lat="44.51305" lon="6.57677">
        <ele>1450</ele>
        <time>2021-04-07T05:49:09Z</time>
      </trkpt>
      <trkpt lat="44.51305" lon="6.57678">
        <ele>1450</ele>
        <time>2021-04-07T05:49:10Z</time>
      </trkpt>
      <trkpt lat="44.51306" lon="6.57677">
        <ele>1450</ele>
        <time>2021-04-07T05:49:11Z</time>
      </trkpt>
      <trkpt lat="44.51306" lon="6.57677">
        <ele>1450</ele>
        <time>2021-04-07T05:49:12Z</time>
      </trkpt>
      <trkpt lat="44.51306" lon="6.57677">
        <ele>1450</ele>
        <time>2021-04-07T05:49:13Z</time>
      </trkpt>
      <trkpt lat="44.51306" lon="6.57676">
        <ele>1450</ele>
        <time>2021-04-07T05:49:14Z</time>
      </trkpt>
      <trkpt lat="44.51306" lon="6.57676">
        <ele>1451</ele>
        <time>2021-04-07T05:49:15Z</time>
      </trkpt>
      <trkpt lat="44.51306" lon="6.57676">
        <ele>1451</ele>
        <time>2021-04-07T05:49:16Z</time>
      </trkpt>
      <trkpt lat="44.51307" lon="6.57676">
        <ele>1451</ele>
        <time>2021-04-07T05:49:17Z</time>
      </trkpt>
      <trkpt lat="44.51308" lon="6.57677">
        <ele>1451</ele>
        <time>2021-04-07T05:49:18Z</time>
      </trkpt>
      <trkpt lat="44.51308" lon="6.57678">
        <ele>1451</ele>
        <time>2021-04-07T05:49:19Z</time>
      </trkpt>
      <trkpt lat="44.51307" lon="6.57678">
        <ele>1451</ele>
        <time>2021-04-07T05:49:20Z</time>
      </trkpt>
      <trkpt lat="44.51307" lon="6.57678">
        <ele>1451</ele>
        <time>2021-04-07T05:49:21Z</time>
      </trkpt>
      <trkpt lat="44.51307" lon="6.57678">
        <ele>1451</ele>
        <time>2021-04-07T05:49:22Z</time>
      </trkpt>
      <trkpt lat="44.51307" lon="6.57678">
        <ele>1451</ele>
        <time>2021-04-07T05:49:23Z</time>
      </trkpt>
      <trkpt lat="44.51307" lon="6.57678">
        <ele>1451</ele>
        <time>2021-04-07T05:49:24Z</time>
      </trkpt>
      <trkpt lat="44.51307" lon="6.57677">
        <ele>1451</ele>
        <time>2021-04-07T05:49:25Z</time>
      </trkpt>
      <trkpt lat="44.51307" lon="6.57677">
        <ele>1451</ele>
        <time>2021-04-07T05:49:26Z</time>
      </trkpt>
      <trkpt lat="44.51307" lon="6.57677">
        <ele>1451</ele>
        <time>2021-04-07T05:49:27Z</time>
      </trkpt>
      <trkpt lat="44.51307" lon="6.57676">
        <ele>1451</ele>
        <time>2021-04-07T05:49:28Z</time>
      </trkpt>
      <trkpt lat="44.51307" lon="6.57676">
        <ele>1451</ele>
        <time>2021-04-07T05:49:29Z</time>
      </trkpt>
      <trkpt lat="44.51307" lon="6.57676">
        <ele>1451</ele>
        <time>2021-04-07T05:49:30Z</time>
      </trkpt>
      <trkpt lat="44.51307" lon="6.57676">
        <ele>1451</ele>
        <time>2021-04-07T05:49:31Z</time>
      </trkpt>
      <trkpt lat="44.51307" lon="6.57676">
        <ele>1451</ele>
        <time>2021-04-07T05:49:32Z</time>
      </trkpt>
      <trkpt lat="44.51307" lon="6.57676">
        <ele>1451</ele>
        <time>2021-04-07T05:49:33Z</time>
      </trkpt>
      <trkpt lat="44.51307" lon="6.57676">
        <ele>1451</ele>
        <time>2021-04-07T05:49:34Z</time>
      </trkpt>
      <trkpt lat="44.51307" lon="6.57676">
        <ele>1452</ele>
        <time>2021-04-07T05:49:35Z</time>
      </trkpt>
      <trkpt lat="44.51307" lon="6.57676">
        <ele>1452</ele>
        <time>2021-04-07T05:49:36Z</time>
      </trkpt>
      <trkpt lat="44.51307" lon="6.57676">
        <ele>1452</ele>
        <time>2021-04-07T05:49:37Z</time>
      </trkpt>
      <trkpt lat="44.51307" lon="6.57676">
        <ele>1452</ele>
        <time>2021-04-07T05:49:38Z</time>
      </trkpt>
      <trkpt lat="44.51307" lon="6.57676">
        <ele>1452</ele>
        <time>2021-04-07T05:49:39Z</time>
      </trkpt>
      <trkpt lat="44.51307" lon="6.57676">
        <ele>1452</ele>
        <time>2021-04-07T05:49:40Z</time>
      </trkpt>
      <trkpt lat="44.51307" lon="6.57676">
        <ele>1452</ele>
        <time>2021-04-07T05:49:41Z</time>
      </trkpt>
      <trkpt lat="44.51307" lon="6.57676">
        <ele>1452</ele>
        <time>2021-04-07T05:49:42Z</time>
      </trkpt>
      <trkpt lat="44.51307" lon="6.57676">
        <ele>1452</ele>
        <time>2021-04-07T05:49:43Z</time>
      </trkpt>
      <trkpt lat="44.51307" lon="6.57676">
        <ele>1452</ele>
        <time>2021-04-07T05:49:44Z</time>
      </trkpt>
      <trkpt lat="44.51307" lon="6.57676">
        <ele>1452</ele>
        <time>2021-04-07T05:49:45Z</time>
      </trkpt>
      <trkpt lat="44.51307" lon="6.57676">
        <ele>1452</ele>
        <time>2021-04-07T05:49:46Z</time>
      </trkpt>
      <trkpt lat="44.51307" lon="6.57676">
        <ele>1452</ele>
        <time>2021-04-07T05:49:47Z</time>
      </trkpt>
      <trkpt lat="44.51307" lon="6.57676">
        <ele>1452</ele>
        <time>2021-04-07T05:49:48Z</time>
      </trkpt>
      <trkpt lat="44.51307" lon="6.57676">
        <ele>1452</ele>
        <time>2021-04-07T05:49:49Z</time>
      </trkpt>
      <trkpt lat="44.51307" lon="6.57676">
        <ele>1452</ele>
        <time>2021-04-07T05:49:50Z</time>
      </trkpt>
      <trkpt lat="44.51307" lon="6.57676">
        <ele>1452</ele>
        <time>2021-04-07T05:49:51Z</time>
      </trkpt>
      <trkpt lat="44.51307" lon="6.57676">
        <ele>1452</ele>
        <time>2021-04-07T05:49:52Z</time>
      </trkpt>
      <trkpt lat="44.51307" lon="6.57676">
        <ele>1452</ele>
        <time>2021-04-07T05:49:53Z</time>
      </trkpt>
      <trkpt lat="44.51307" lon="6.57676">
        <ele>1452</ele>
        <time>2021-04-07T05:49:54Z</time>
      </trkpt>
      <trkpt lat="44.51307" lon="6.57676">
        <ele>1452</ele>
        <time>2021-04-07T05:49:55Z</time>
      </trkpt>
      <trkpt lat="44.51307" lon="6.57676">
        <ele>1452</ele>
        <time>2021-04-07T05:49:56Z</time>
      </trkpt>
      <trkpt lat="44.51307" lon="6.57676">
        <ele>1452</ele>
        <time>2021-04-07T05:49:57Z</time>
      </trkpt>
      <trkpt lat="44.51307" lon="6.57676">
        <ele>1452</ele>
        <time>2021-04-07T05:49:58Z</time>
      </trkpt>
      <trkpt lat="44.51307" lon="6.57676">
        <ele>1452</ele>
        <time>2021-04-07T05:49:59Z</time>
      </trkpt>
      <trkpt lat="44.51307" lon="6.57676">
        <ele>1452</ele>
        <time>2021-04-07T05:50:00Z</time>
      </trkpt>
      <trkpt lat="44.51307" lon="6.57676">
        <ele>1452</ele>
        <time>2021-04-07T05:50:01Z</time>
      </trkpt>
      <trkpt lat="44.51307" lon="6.57676">
        <ele>1452</ele>
        <time>2021-04-07T05:50:02Z</time>
      </trkpt>
      <trkpt lat="44.51307" lon="6.57676">
        <ele>1452</ele>
        <time>2021-04-07T05:50:03Z</time>
      </trkpt>
      <trkpt lat="44.51307" lon="6.57676">
        <ele>1452</ele>
        <time>2021-04-07T05:50:04Z</time>
      </trkpt>
      <trkpt lat="44.51307" lon="6.57676">
        <ele>1452</ele>
        <time>2021-04-07T05:50:05Z</time>
      </trkpt>
      <trkpt lat="44.51307" lon="6.57676">
        <ele>1452</ele>
        <time>2021-04-07T05:50:06Z</time>
      </trkpt>
      <trkpt lat="44.51307" lon="6.57676">
        <ele>1452</ele>
        <time>2021-04-07T05:50:07Z</time>
      </trkpt>
      <trkpt lat="44.51307" lon="6.57676">
        <ele>1452</ele>
        <time>2021-04-07T05:50:08Z</time>
      </trkpt>
      <trkpt lat="44.51307" lon="6.57676">
        <ele>1452</ele>
        <time>2021-04-07T05:50:09Z</time>
      </trkpt>
      <trkpt lat="44.51307" lon="6.57676">
        <ele>1452</ele>
        <time>2021-04-07T05:50:10Z</time>
      </trkpt>
      <trkpt lat="44.51307" lon="6.57676">
        <ele>1452</ele>
        <time>2021-04-07T05:50:11Z</time>
      </trkpt>
      <trkpt lat="44.51307" lon="6.57676">
        <ele>1452</ele>
        <time>2021-04-07T05:50:12Z</time>
      </trkpt>
      <trkpt lat="44.51307" lon="6.57676">
        <ele>1452</ele>
        <time>2021-04-07T05:50:13Z</time>
      </trkpt>
      <trkpt lat="44.51307" lon="6.57676">
        <ele>1452</ele>
        <time>2021-04-07T05:50:14Z</time>
      </trkpt>
      <trkpt lat="44.51307" lon="6.57676">
        <ele>1452</ele>
        <time>2021-04-07T05:50:15Z</time>
      </trkpt>
      <trkpt lat="44.51307" lon="6.57676">
        <ele>1452</ele>
        <time>2021-04-07T05:50:16Z</time>
      </trkpt>
      <trkpt lat="44.51307" lon="6.57676">
        <ele>1452</ele>
        <time>2021-04-07T05:50:17Z</time>
      </trkpt>
      <trkpt lat="44.51307" lon="6.57676">
        <ele>1452</ele>
        <time>2021-04-07T05:50:18Z</time>
      </trkpt>
      <trkpt lat="44.51307" lon="6.57676">
        <ele>1452</ele>
        <time>2021-04-07T05:50:19Z</time>
      </trkpt>
      <trkpt lat="44.51307" lon="6.57676">
        <ele>1452</ele>
        <time>2021-04-07T05:50:20Z</time>
      </trkpt>
      <trkpt lat="44.51307" lon="6.57676">
        <ele>1452</ele>
        <time>2021-04-07T05:50:21Z</time>
      </trkpt>
      <trkpt lat="44.51307" lon="6.57676">
        <ele>1452</ele>
        <time>2021-04-07T05:50:22Z</time>
      </trkpt>
      <trkpt lat="44.51307" lon="6.57676">
        <ele>1453</ele>
        <time>2021-04-07T05:50:23Z</time>
      </trkpt>
      <trkpt lat="44.51307" lon="6.57676">
        <ele>1453</ele>
        <time>2021-04-07T05:50:24Z</time>
      </trkpt>
      <trkpt lat="44.51307" lon="6.57676">
        <ele>1453</ele>
        <time>2021-04-07T05:50:25Z</time>
      </trkpt>
      <trkpt lat="44.51307" lon="6.57676">
        <ele>1453</ele>
        <time>2021-04-07T05:50:26Z</time>
      </trkpt>
      <trkpt lat="44.51307" lon="6.57676">
        <ele>1453</ele>
        <time>2021-04-07T05:50:27Z</time>
      </trkpt>
      <trkpt lat="44.51307" lon="6.57676">
        <ele>1453</ele>
        <time>2021-04-07T05:50:28Z</time>
      </trkpt>
      <trkpt lat="44.51307" lon="6.57676">
        <ele>1453</ele>
        <time>2021-04-07T05:50:29Z</time>
      </trkpt>
      <trkpt lat="44.51307" lon="6.57676">
        <ele>1453</ele>
        <time>2021-04-07T05:50:30Z</time>
      </trkpt>
      <trkpt lat="44.51307" lon="6.57676">
        <ele>1453</ele>
        <time>2021-04-07T05:50:31Z</time>
      </trkpt>
      <trkpt lat="44.51309" lon="6.57678">
        <ele>1453</ele>
        <time>2021-04-07T05:50:32Z</time>
      </trkpt>
      <trkpt lat="44.51308" lon="6.57678">
        <ele>1453</ele>
        <time>2021-04-07T05:50:33Z</time>
      </trkpt>
      <trkpt lat="44.51308" lon="6.57678">
        <ele>1453</ele>
        <time>2021-04-07T05:50:34Z</time>
      </trkpt>
      <trkpt lat="44.51308" lon="6.57678">
        <ele>1453</ele>
        <time>2021-04-07T05:50:35Z</time>
      </trkpt>
      <trkpt lat="44.51308" lon="6.57678">
        <ele>1453</ele>
        <time>2021-04-07T05:50:36Z</time>
      </trkpt>
      <trkpt lat="44.51308" lon="6.57678">
        <ele>1453</ele>
        <time>2021-04-07T05:50:37Z</time>
      </trkpt>
      <trkpt lat="44.51308" lon="6.57678">
        <ele>1453</ele>
        <time>2021-04-07T05:50:38Z</time>
      </trkpt>
      <trkpt lat="44.51308" lon="6.57678">
        <ele>1453</ele>
        <time>2021-04-07T05:50:39Z</time>
      </trkpt>
      <trkpt lat="44.51308" lon="6.57678">
        <ele>1453</ele>
        <time>2021-04-07T05:50:40Z</time>
      </trkpt>
      <trkpt lat="44.51308" lon="6.57678">
        <ele>1453</ele>
        <time>2021-04-07T05:50:41Z</time>
      </trkpt>
      <trkpt lat="44.51308" lon="6.57678">
        <ele>1453</ele>
        <time>2021-04-07T05:50:42Z</time>
      </trkpt>
      <trkpt lat="44.51308" lon="6.57678">
        <ele>1452</ele>
        <time>2021-04-07T05:50:43Z</time>
      </trkpt>
      <trkpt lat="44.51308" lon="6.57678">
        <ele>1452</ele>
        <time>2021-04-07T05:50:44Z</time>
      </trkpt>
      <trkpt lat="44.51308" lon="6.57678">
        <ele>1452</ele>
        <time>2021-04-07T05:50:45Z</time>
      </trkpt>
      <trkpt lat="44.51308" lon="6.57678">
        <ele>1452</ele>
        <time>2021-04-07T05:50:46Z</time>
      </trkpt>
      <trkpt lat="44.51308" lon="6.57678">
        <ele>1452</ele>
        <time>2021-04-07T05:50:47Z</time>
      </trkpt>
      <trkpt lat="44.51308" lon="6.57678">
        <ele>1452</ele>
        <time>2021-04-07T05:50:48Z</time>
      </trkpt>
      <trkpt lat="44.51308" lon="6.57678">
        <ele>1452</ele>
        <time>2021-04-07T05:50:49Z</time>
      </trkpt>
      <trkpt lat="44.51308" lon="6.57678">
        <ele>1452</ele>
        <time>2021-04-07T05:50:50Z</time>
      </trkpt>
      <trkpt lat="44.51308" lon="6.57678">
        <ele>1452</ele>
        <time>2021-04-07T05:50:51Z</time>
      </trkpt>
      <trkpt lat="44.51308" lon="6.57678">
        <ele>1452</ele>
        <time>2021-04-07T05:50:52Z</time>
      </trkpt>
      <trkpt lat="44.51308" lon="6.57678">
        <ele>1452</ele>
        <time>2021-04-07T05:50:53Z</time>
      </trkpt>
      <trkpt lat="44.51308" lon="6.57678">
        <ele>1452</ele>
        <time>2021-04-07T05:50:54Z</time>
      </trkpt>
      <trkpt lat="44.51308" lon="6.57678">
        <ele>1452</ele>
        <time>2021-04-07T05:50:55Z</time>
      </trkpt>
      <trkpt lat="44.51308" lon="6.57678">
        <ele>1452</ele>
        <time>2021-04-07T05:50:56Z</time>
      </trkpt>
      <trkpt lat="44.51308" lon="6.57678">
        <ele>1452</ele>
        <time>2021-04-07T05:50:57Z</time>
      </trkpt>
      <trkpt lat="44.51308" lon="6.57678">
        <ele>1452</ele>
        <time>2021-04-07T05:50:58Z</time>
      </trkpt>
      <trkpt lat="44.51308" lon="6.57678">
        <ele>1452</ele>
        <time>2021-04-07T05:50:59Z</time>
      </trkpt>
      <trkpt lat="44.51308" lon="6.57678">
        <ele>1452</ele>
        <time>2021-04-07T05:51:00Z</time>
      </trkpt>
      <trkpt lat="44.51308" lon="6.57678">
        <ele>1452</ele>
        <time>2021-04-07T05:51:01Z</time>
      </trkpt>
      <trkpt lat="44.51308" lon="6.57678">
        <ele>1452</ele>
        <time>2021-04-07T05:51:02Z</time>
      </trkpt>
      <trkpt lat="44.51308" lon="6.57678">
        <ele>1452</ele>
        <time>2021-04-07T05:51:03Z</time>
      </trkpt>
      <trkpt lat="44.51308" lon="6.57678">
        <ele>1452</ele>
        <time>2021-04-07T05:51:04Z</time>
      </trkpt>
      <trkpt lat="44.51308" lon="6.57678">
        <ele>1452</ele>
        <time>2021-04-07T05:51:05Z</time>
      </trkpt>
      <trkpt lat="44.51308" lon="6.57678">
        <ele>1452</ele>
        <time>2021-04-07T05:51:06Z</time>
      </trkpt>
      <trkpt lat="44.51308" lon="6.57678">
        <ele>1452</ele>
        <time>2021-04-07T05:51:07Z</time>
      </trkpt>
      <trkpt lat="44.51308" lon="6.57678">
        <ele>1452</ele>
        <time>2021-04-07T05:51:08Z</time>
      </trkpt>
      <trkpt lat="44.51308" lon="6.57678">
        <ele>1452</ele>
        <time>2021-04-07T05:51:09Z</time>
      </trkpt>
      <trkpt lat="44.51308" lon="6.57678">
        <ele>1452</ele>
        <time>2021-04-07T05:51:10Z</time>
      </trkpt>
      <trkpt lat="44.51308" lon="6.57678">
        <ele>1452</ele>
        <time>2021-04-07T05:51:11Z</time>
      </trkpt>
      <trkpt lat="44.51305" lon="6.5768">
        <ele>1454</ele>
        <time>2021-04-07T05:51:12Z</time>
      </trkpt>
      <trkpt lat="44.51305" lon="6.57681">
        <ele>1454</ele>
        <time>2021-04-07T05:51:13Z</time>
      </trkpt>
      <trkpt lat="44.51305" lon="6.57682">
        <ele>1454</ele>
        <time>2021-04-07T05:51:14Z</time>
      </trkpt>
      <trkpt lat="44.51305" lon="6.57684">
        <ele>1454</ele>
        <time>2021-04-07T05:51:15Z</time>
      </trkpt>
      <trkpt lat="44.51305" lon="6.57685">
        <ele>1455</ele>
        <time>2021-04-07T05:51:16Z</time>
      </trkpt>
      <trkpt lat="44.51306" lon="6.57686">
        <ele>1455</ele>
        <time>2021-04-07T05:51:17Z</time>
      </trkpt>
      <trkpt lat="44.51306" lon="6.57687">
        <ele>1455</ele>
        <time>2021-04-07T05:51:18Z</time>
      </trkpt>
      <trkpt lat="44.51306" lon="6.57689">
        <ele>1455</ele>
        <time>2021-04-07T05:51:19Z</time>
      </trkpt>
      <trkpt lat="44.51307" lon="6.57689">
        <ele>1455</ele>
        <time>2021-04-07T05:51:20Z</time>
      </trkpt>
      <trkpt lat="44.51306" lon="6.57691">
        <ele>1456</ele>
        <time>2021-04-07T05:51:21Z</time>
      </trkpt>
      <trkpt lat="44.51307" lon="6.57693">
        <ele>1456</ele>
        <time>2021-04-07T05:51:22Z</time>
      </trkpt>
      <trkpt lat="44.51307" lon="6.57694">
        <ele>1456</ele>
        <time>2021-04-07T05:51:23Z</time>
      </trkpt>
      <trkpt lat="44.51308" lon="6.57696">
        <ele>1456</ele>
        <time>2021-04-07T05:51:24Z</time>
      </trkpt>
      <trkpt lat="44.51308" lon="6.57699">
        <ele>1456</ele>
        <time>2021-04-07T05:51:25Z</time>
      </trkpt>
      <trkpt lat="44.51308" lon="6.577">
        <ele>1456</ele>
        <time>2021-04-07T05:51:26Z</time>
      </trkpt>
      <trkpt lat="44.51309" lon="6.57702">
        <ele>1457</ele>
        <time>2021-04-07T05:51:27Z</time>
      </trkpt>
      <trkpt lat="44.5131" lon="6.57704">
        <ele>1457</ele>
        <time>2021-04-07T05:51:28Z</time>
      </trkpt>
      <trkpt lat="44.5131" lon="6.57706">
        <ele>1457</ele>
        <time>2021-04-07T05:51:29Z</time>
      </trkpt>
      <trkpt lat="44.51311" lon="6.57708">
        <ele>1457</ele>
        <time>2021-04-07T05:51:30Z</time>
      </trkpt>
      <trkpt lat="44.51312" lon="6.57708">
        <ele>1458</ele>
        <time>2021-04-07T05:51:31Z</time>
      </trkpt>
      <trkpt lat="44.51312" lon="6.57709">
        <ele>1458</ele>
        <time>2021-04-07T05:51:32Z</time>
      </trkpt>
      <trkpt lat="44.51312" lon="6.5771">
        <ele>1458</ele>
        <time>2021-04-07T05:51:33Z</time>
      </trkpt>
      <trkpt lat="44.51313" lon="6.57711">
        <ele>1458</ele>
        <time>2021-04-07T05:51:34Z</time>
      </trkpt>
      <trkpt lat="44.51313" lon="6.57712">
        <ele>1458</ele>
        <time>2021-04-07T05:51:35Z</time>
      </trkpt>
      <trkpt lat="44.51313" lon="6.57714">
        <ele>1458</ele>
        <time>2021-04-07T05:51:36Z</time>
      </trkpt>
      <trkpt lat="44.51313" lon="6.57714">
        <ele>1458</ele>
        <time>2021-04-07T05:51:37Z</time>
      </trkpt>
      <trkpt lat="44.51313" lon="6.57715">
        <ele>1458</ele>
        <time>2021-04-07T05:51:38Z</time>
      </trkpt>
      <trkpt lat="44.51313" lon="6.57717">
        <ele>1458</ele>
        <time>2021-04-07T05:51:39Z</time>
      </trkpt>
      <trkpt lat="44.51313" lon="6.57718">
        <ele>1458</ele>
        <time>2021-04-07T05:51:40Z</time>
      </trkpt>
      <trkpt lat="44.51312" lon="6.5772">
        <ele>1457</ele>
        <time>2021-04-07T05:51:41Z</time>
      </trkpt>
      <trkpt lat="44.51312" lon="6.57722">
        <ele>1457</ele>
        <time>2021-04-07T05:51:42Z</time>
      </trkpt>
      <trkpt lat="44.51313" lon="6.57723">
        <ele>1457</ele>
        <time>2021-04-07T05:51:43Z</time>
      </trkpt>
      <trkpt lat="44.51313" lon="6.57725">
        <ele>1457</ele>
        <time>2021-04-07T05:51:44Z</time>
      </trkpt>
      <trkpt lat="44.51313" lon="6.57727">
        <ele>1457</ele>
        <time>2021-04-07T05:51:45Z</time>
      </trkpt>
      <trkpt lat="44.51313" lon="6.57728">
        <ele>1457</ele>
        <time>2021-04-07T05:51:46Z</time>
      </trkpt>
      <trkpt lat="44.51312" lon="6.57729">
        <ele>1458</ele>
        <time>2021-04-07T05:51:47Z</time>
      </trkpt>
      <trkpt lat="44.51312" lon="6.5773">
        <ele>1458</ele>
        <time>2021-04-07T05:51:48Z</time>
      </trkpt>
      <trkpt lat="44.51312" lon="6.57732">
        <ele>1458</ele>
        <time>2021-04-07T05:51:49Z</time>
      </trkpt>
      <trkpt lat="44.51313" lon="6.57733">
        <ele>1458</ele>
        <time>2021-04-07T05:51:50Z</time>
      </trkpt>
      <trkpt lat="44.51313" lon="6.57734">
        <ele>1458</ele>
        <time>2021-04-07T05:51:51Z</time>
      </trkpt>
      <trkpt lat="44.51314" lon="6.57735">
        <ele>1458</ele>
        <time>2021-04-07T05:51:52Z</time>
      </trkpt>
      <trkpt lat="44.51314" lon="6.57736">
        <ele>1458</ele>
        <time>2021-04-07T05:51:53Z</time>
      </trkpt>
      <trkpt lat="44.51314" lon="6.57736">
        <ele>1458</ele>
        <time>2021-04-07T05:51:54Z</time>
      </trkpt>
      <trkpt lat="44.51314" lon="6.57738">
        <ele>1458</ele>
        <time>2021-04-07T05:51:55Z</time>
      </trkpt>
      <trkpt lat="44.51314" lon="6.57739">
        <ele>1458</ele>
        <time>2021-04-07T05:51:56Z</time>
      </trkpt>
      <trkpt lat="44.51314" lon="6.5774">
        <ele>1458</ele>
        <time>2021-04-07T05:51:57Z</time>
      </trkpt>
      <trkpt lat="44.51314" lon="6.57742">
        <ele>1458</ele>
        <time>2021-04-07T05:51:58Z</time>
      </trkpt>
      <trkpt lat="44.51314" lon="6.57744">
        <ele>1458</ele>
        <time>2021-04-07T05:51:59Z</time>
      </trkpt>
      <trkpt lat="44.51314" lon="6.57746">
        <ele>1458</ele>
        <time>2021-04-07T05:52:00Z</time>
      </trkpt>
      <trkpt lat="44.51313" lon="6.57747">
        <ele>1459</ele>
        <time>2021-04-07T05:52:01Z</time>
      </trkpt>
      <trkpt lat="44.51314" lon="6.57749">
        <ele>1459</ele>
        <time>2021-04-07T05:52:02Z</time>
      </trkpt>
      <trkpt lat="44.51314" lon="6.5775">
        <ele>1459</ele>
        <time>2021-04-07T05:52:03Z</time>
      </trkpt>
      <trkpt lat="44.51314" lon="6.57751">
        <ele>1459</ele>
        <time>2021-04-07T05:52:04Z</time>
      </trkpt>
      <trkpt lat="44.51314" lon="6.57753">
        <ele>1460</ele>
        <time>2021-04-07T05:52:05Z</time>
      </trkpt>
      <trkpt lat="44.51314" lon="6.57754">
        <ele>1460</ele>
        <time>2021-04-07T05:52:06Z</time>
      </trkpt>
      <trkpt lat="44.51313" lon="6.57755">
        <ele>1460</ele>
        <time>2021-04-07T05:52:07Z</time>
      </trkpt>
      <trkpt lat="44.51314" lon="6.57757">
        <ele>1460</ele>
        <time>2021-04-07T05:52:08Z</time>
      </trkpt>
      <trkpt lat="44.51314" lon="6.57758">
        <ele>1460</ele>
        <time>2021-04-07T05:52:09Z</time>
      </trkpt>
      <trkpt lat="44.51314" lon="6.5776">
        <ele>1461</ele>
        <time>2021-04-07T05:52:10Z</time>
      </trkpt>
      <trkpt lat="44.51315" lon="6.57761">
        <ele>1461</ele>
        <time>2021-04-07T05:52:11Z</time>
      </trkpt>
      <trkpt lat="44.51315" lon="6.57763">
        <ele>1462</ele>
        <time>2021-04-07T05:52:12Z</time>
      </trkpt>
      <trkpt lat="44.51315" lon="6.57764">
        <ele>1462</ele>
        <time>2021-04-07T05:52:13Z</time>
      </trkpt>
      <trkpt lat="44.51315" lon="6.57766">
        <ele>1463</ele>
        <time>2021-04-07T05:52:14Z</time>
      </trkpt>
      <trkpt lat="44.51316" lon="6.57767">
        <ele>1463</ele>
        <time>2021-04-07T05:52:15Z</time>
      </trkpt>
      <trkpt lat="44.51315" lon="6.57768">
        <ele>1464</ele>
        <time>2021-04-07T05:52:16Z</time>
      </trkpt>
      <trkpt lat="44.51315" lon="6.57769">
        <ele>1464</ele>
        <time>2021-04-07T05:52:17Z</time>
      </trkpt>
      <trkpt lat="44.51315" lon="6.5777">
        <ele>1464</ele>
        <time>2021-04-07T05:52:18Z</time>
      </trkpt>
      <trkpt lat="44.51315" lon="6.57771">
        <ele>1465</ele>
        <time>2021-04-07T05:52:19Z</time>
      </trkpt>
      <trkpt lat="44.51315" lon="6.57772">
        <ele>1465</ele>
        <time>2021-04-07T05:52:20Z</time>
      </trkpt>
      <trkpt lat="44.51315" lon="6.57774">
        <ele>1465</ele>
        <time>2021-04-07T05:52:21Z</time>
      </trkpt>
      <trkpt lat="44.51316" lon="6.57775">
        <ele>1465</ele>
        <time>2021-04-07T05:52:22Z</time>
      </trkpt>
      <trkpt lat="44.51316" lon="6.57776">
        <ele>1466</ele>
        <time>2021-04-07T05:52:23Z</time>
      </trkpt>
      <trkpt lat="44.51316" lon="6.57778">
        <ele>1466</ele>
        <time>2021-04-07T05:52:24Z</time>
      </trkpt>
      <trkpt lat="44.51316" lon="6.57779">
        <ele>1466</ele>
        <time>2021-04-07T05:52:25Z</time>
      </trkpt>
      <trkpt lat="44.51316" lon="6.5778">
        <ele>1466</ele>
        <time>2021-04-07T05:52:26Z</time>
      </trkpt>
      <trkpt lat="44.51316" lon="6.57781">
        <ele>1466</ele>
        <time>2021-04-07T05:52:27Z</time>
      </trkpt>
      <trkpt lat="44.51316" lon="6.57781">
        <ele>1466</ele>
        <time>2021-04-07T05:52:28Z</time>
      </trkpt>
      <trkpt lat="44.51316" lon="6.57782">
        <ele>1466</ele>
        <time>2021-04-07T05:52:29Z</time>
      </trkpt>
      <trkpt lat="44.51315" lon="6.57783">
        <ele>1467</ele>
        <time>2021-04-07T05:52:30Z</time>
      </trkpt>
      <trkpt lat="44.51315" lon="6.57784">
        <ele>1467</ele>
        <time>2021-04-07T05:52:31Z</time>
      </trkpt>
      <trkpt lat="44.51315" lon="6.57785">
        <ele>1467</ele>
        <time>2021-04-07T05:52:32Z</time>
      </trkpt>
      <trkpt lat="44.51315" lon="6.57786">
        <ele>1467</ele>
        <time>2021-04-07T05:52:33Z</time>
      </trkpt>
      <trkpt lat="44.51314" lon="6.57787">
        <ele>1467</ele>
        <time>2021-04-07T05:52:34Z</time>
      </trkpt>
      <trkpt lat="44.51313" lon="6.57788">
        <ele>1467</ele>
        <time>2021-04-07T05:52:35Z</time>
      </trkpt>
      <trkpt lat="44.51313" lon="6.5779">
        <ele>1467</ele>
        <time>2021-04-07T05:52:36Z</time>
      </trkpt>
      <trkpt lat="44.51312" lon="6.57792">
        <ele>1467</ele>
        <time>2021-04-07T05:52:37Z</time>
      </trkpt>
      <trkpt lat="44.51312" lon="6.57793">
        <ele>1467</ele>
        <time>2021-04-07T05:52:38Z</time>
      </trkpt>
      <trkpt lat="44.51312" lon="6.57795">
        <ele>1467</ele>
        <time>2021-04-07T05:52:39Z</time>
      </trkpt>
      <trkpt lat="44.51311" lon="6.57796">
        <ele>1467</ele>
        <time>2021-04-07T05:52:40Z</time>
      </trkpt>
      <trkpt lat="44.51311" lon="6.57798">
        <ele>1467</ele>
        <time>2021-04-07T05:52:41Z</time>
      </trkpt>
      <trkpt lat="44.51311" lon="6.57799">
        <ele>1467</ele>
        <time>2021-04-07T05:52:42Z</time>
      </trkpt>
      <trkpt lat="44.5131" lon="6.578">
        <ele>1468</ele>
        <time>2021-04-07T05:52:43Z</time>
      </trkpt>
      <trkpt lat="44.5131" lon="6.57802">
        <ele>1468</ele>
        <time>2021-04-07T05:52:44Z</time>
      </trkpt>
      <trkpt lat="44.5131" lon="6.57803">
        <ele>1468</ele>
        <time>2021-04-07T05:52:45Z</time>
      </trkpt>
      <trkpt lat="44.5131" lon="6.57804">
        <ele>1468</ele>
        <time>2021-04-07T05:52:46Z</time>
      </trkpt>
      <trkpt lat="44.51309" lon="6.57805">
        <ele>1468</ele>
        <time>2021-04-07T05:52:47Z</time>
      </trkpt>
      <trkpt lat="44.51309" lon="6.57806">
        <ele>1468</ele>
        <time>2021-04-07T05:52:48Z</time>
      </trkpt>
      <trkpt lat="44.51307" lon="6.57809">
        <ele>1469</ele>
        <time>2021-04-07T05:52:49Z</time>
      </trkpt>
      <trkpt lat="44.51307" lon="6.57812">
        <ele>1469</ele>
        <time>2021-04-07T05:52:50Z</time>
      </trkpt>
      <trkpt lat="44.51307" lon="6.57813">
        <ele>1470</ele>
        <time>2021-04-07T05:52:51Z</time>
      </trkpt>
      <trkpt lat="44.51308" lon="6.57814">
        <ele>1471</ele>
        <time>2021-04-07T05:52:52Z</time>
      </trkpt>
      <trkpt lat="44.51308" lon="6.57815">
        <ele>1472</ele>
        <time>2021-04-07T05:52:53Z</time>
      </trkpt>
      <trkpt lat="44.51308" lon="6.57816">
        <ele>1472</ele>
        <time>2021-04-07T05:52:54Z</time>
      </trkpt>
      <trkpt lat="44.51308" lon="6.57817">
        <ele>1472</ele>
        <time>2021-04-07T05:52:55Z</time>
      </trkpt>
      <trkpt lat="44.51308" lon="6.57818">
        <ele>1472</ele>
        <time>2021-04-07T05:52:56Z</time>
      </trkpt>
      <trkpt lat="44.51308" lon="6.57819">
        <ele>1472</ele>
        <time>2021-04-07T05:52:57Z</time>
      </trkpt>
      <trkpt lat="44.51308" lon="6.5782">
        <ele>1472</ele>
        <time>2021-04-07T05:52:58Z</time>
      </trkpt>
      <trkpt lat="44.51307" lon="6.57821">
        <ele>1472</ele>
        <time>2021-04-07T05:52:59Z</time>
      </trkpt>
      <trkpt lat="44.51307" lon="6.57822">
        <ele>1472</ele>
        <time>2021-04-07T05:53:00Z</time>
      </trkpt>
      <trkpt lat="44.51307" lon="6.57823">
        <ele>1472</ele>
        <time>2021-04-07T05:53:01Z</time>
      </trkpt>
      <trkpt lat="44.51306" lon="6.57824">
        <ele>1472</ele>
        <time>2021-04-07T05:53:02Z</time>
      </trkpt>
      <trkpt lat="44.51306" lon="6.57824">
        <ele>1472</ele>
        <time>2021-04-07T05:53:03Z</time>
      </trkpt>
      <trkpt lat="44.51306" lon="6.57825">
        <ele>1471</ele>
        <time>2021-04-07T05:53:04Z</time>
      </trkpt>
      <trkpt lat="44.51306" lon="6.57826">
        <ele>1471</ele>
        <time>2021-04-07T05:53:05Z</time>
      </trkpt>
      <trkpt lat="44.51306" lon="6.57828">
        <ele>1471</ele>
        <time>2021-04-07T05:53:06Z</time>
      </trkpt>
      <trkpt lat="44.51305" lon="6.57829">
        <ele>1471</ele>
        <time>2021-04-07T05:53:07Z</time>
      </trkpt>
      <trkpt lat="44.51305" lon="6.5783">
        <ele>1471</ele>
        <time>2021-04-07T05:53:08Z</time>
      </trkpt>
      <trkpt lat="44.51305" lon="6.57832">
        <ele>1472</ele>
        <time>2021-04-07T05:53:09Z</time>
      </trkpt>
      <trkpt lat="44.51305" lon="6.57833">
        <ele>1472</ele>
        <time>2021-04-07T05:53:10Z</time>
      </trkpt>
      <trkpt lat="44.51305" lon="6.57835">
        <ele>1472</ele>
        <time>2021-04-07T05:53:11Z</time>
      </trkpt>
      <trkpt lat="44.51305" lon="6.57836">
        <ele>1472</ele>
        <time>2021-04-07T05:53:12Z</time>
      </trkpt>
      <trkpt lat="44.51305" lon="6.57837">
        <ele>1472</ele>
        <time>2021-04-07T05:53:13Z</time>
      </trkpt>
      <trkpt lat="44.51306" lon="6.57838">
        <ele>1472</ele>
        <time>2021-04-07T05:53:14Z</time>
      </trkpt>
      <trkpt lat="44.51306" lon="6.5784">
        <ele>1472</ele>
        <time>2021-04-07T05:53:15Z</time>
      </trkpt>
      <trkpt lat="44.51307" lon="6.57842">
        <ele>1472</ele>
        <time>2021-04-07T05:53:16Z</time>
      </trkpt>
      <trkpt lat="44.51307" lon="6.57843">
        <ele>1472</ele>
        <time>2021-04-07T05:53:17Z</time>
      </trkpt>
      <trkpt lat="44.51307" lon="6.57844">
        <ele>1472</ele>
        <time>2021-04-07T05:53:18Z</time>
      </trkpt>
      <trkpt lat="44.51307" lon="6.57846">
        <ele>1472</ele>
        <time>2021-04-07T05:53:19Z</time>
      </trkpt>
      <trkpt lat="44.51308" lon="6.57847">
        <ele>1472</ele>
        <time>2021-04-07T05:53:20Z</time>
      </trkpt>
      <trkpt lat="44.51308" lon="6.57848">
        <ele>1472</ele>
        <time>2021-04-07T05:53:21Z</time>
      </trkpt>
      <trkpt lat="44.51307" lon="6.5785">
        <ele>1472</ele>
        <time>2021-04-07T05:53:22Z</time>
      </trkpt>
      <trkpt lat="44.51308" lon="6.57851">
        <ele>1472</ele>
        <time>2021-04-07T05:53:23Z</time>
      </trkpt>
      <trkpt lat="44.51307" lon="6.57853">
        <ele>1472</ele>
        <time>2021-04-07T05:53:24Z</time>
      </trkpt>
      <trkpt lat="44.51306" lon="6.57855">
        <ele>1473</ele>
        <time>2021-04-07T05:53:25Z</time>
      </trkpt>
      <trkpt lat="44.51306" lon="6.57856">
        <ele>1473</ele>
        <time>2021-04-07T05:53:26Z</time>
      </trkpt>
      <trkpt lat="44.51306" lon="6.57858">
        <ele>1473</ele>
        <time>2021-04-07T05:53:27Z</time>
      </trkpt>
      <trkpt lat="44.51306" lon="6.57859">
        <ele>1473</ele>
        <time>2021-04-07T05:53:28Z</time>
      </trkpt>
      <trkpt lat="44.51306" lon="6.57859">
        <ele>1473</ele>
        <time>2021-04-07T05:53:29Z</time>
      </trkpt>
      <trkpt lat="44.51305" lon="6.5786">
        <ele>1473</ele>
        <time>2021-04-07T05:53:30Z</time>
      </trkpt>
      <trkpt lat="44.51305" lon="6.57861">
        <ele>1473</ele>
        <time>2021-04-07T05:53:31Z</time>
      </trkpt>
      <trkpt lat="44.51305" lon="6.57862">
        <ele>1473</ele>
        <time>2021-04-07T05:53:32Z</time>
      </trkpt>
      <trkpt lat="44.51305" lon="6.57863">
        <ele>1473</ele>
        <time>2021-04-07T05:53:33Z</time>
      </trkpt>
      <trkpt lat="44.51305" lon="6.57864">
        <ele>1473</ele>
        <time>2021-04-07T05:53:34Z</time>
      </trkpt>
      <trkpt lat="44.51305" lon="6.57865">
        <ele>1473</ele>
        <time>2021-04-07T05:53:35Z</time>
      </trkpt>
      <trkpt lat="44.51306" lon="6.57866">
        <ele>1473</ele>
        <time>2021-04-07T05:53:36Z</time>
      </trkpt>
      <trkpt lat="44.51306" lon="6.57867">
        <ele>1473</ele>
        <time>2021-04-07T05:53:37Z</time>
      </trkpt>
      <trkpt lat="44.51306" lon="6.57868">
        <ele>1473</ele>
        <time>2021-04-07T05:53:38Z</time>
      </trkpt>
      <trkpt lat="44.51306" lon="6.57869">
        <ele>1473</ele>
        <time>2021-04-07T05:53:39Z</time>
      </trkpt>
      <trkpt lat="44.51305" lon="6.5787">
        <ele>1473</ele>
        <time>2021-04-07T05:53:40Z</time>
      </trkpt>
      <trkpt lat="44.51306" lon="6.57871">
        <ele>1473</ele>
        <time>2021-04-07T05:53:41Z</time>
      </trkpt>
      <trkpt lat="44.51305" lon="6.57872">
        <ele>1474</ele>
        <time>2021-04-07T05:53:42Z</time>
      </trkpt>
      <trkpt lat="44.51306" lon="6.57873">
        <ele>1474</ele>
        <time>2021-04-07T05:53:43Z</time>
      </trkpt>
      <trkpt lat="44.51306" lon="6.57874">
        <ele>1474</ele>
        <time>2021-04-07T05:53:44Z</time>
      </trkpt>
      <trkpt lat="44.51306" lon="6.57875">
        <ele>1474</ele>
        <time>2021-04-07T05:53:45Z</time>
      </trkpt>
      <trkpt lat="44.51306" lon="6.57877">
        <ele>1474</ele>
        <time>2021-04-07T05:53:46Z</time>
      </trkpt>
      <trkpt lat="44.51307" lon="6.57878">
        <ele>1474</ele>
        <time>2021-04-07T05:53:47Z</time>
      </trkpt>
      <trkpt lat="44.51307" lon="6.57879">
        <ele>1474</ele>
        <time>2021-04-07T05:53:48Z</time>
      </trkpt>
      <trkpt lat="44.51307" lon="6.5788">
        <ele>1474</ele>
        <time>2021-04-07T05:53:49Z</time>
      </trkpt>
      <trkpt lat="44.51308" lon="6.57881">
        <ele>1474</ele>
        <time>2021-04-07T05:53:50Z</time>
      </trkpt>
      <trkpt lat="44.51309" lon="6.57881">
        <ele>1475</ele>
        <time>2021-04-07T05:53:51Z</time>
      </trkpt>
      <trkpt lat="44.51309" lon="6.57883">
        <ele>1475</ele>
        <time>2021-04-07T05:53:52Z</time>
      </trkpt>
      <trkpt lat="44.5131" lon="6.57884">
        <ele>1475</ele>
        <time>2021-04-07T05:53:53Z</time>
      </trkpt>
      <trkpt lat="44.5131" lon="6.57885">
        <ele>1475</ele>
        <time>2021-04-07T05:53:54Z</time>
      </trkpt>
      <trkpt lat="44.51311" lon="6.57886">
        <ele>1475</ele>
        <time>2021-04-07T05:53:55Z</time>
      </trkpt>
      <trkpt lat="44.51311" lon="6.57887">
        <ele>1476</ele>
        <time>2021-04-07T05:53:56Z</time>
      </trkpt>
      <trkpt lat="44.51311" lon="6.57889">
        <ele>1476</ele>
        <time>2021-04-07T05:53:57Z</time>
      </trkpt>
      <trkpt lat="44.51311" lon="6.5789">
        <ele>1476</ele>
        <time>2021-04-07T05:53:58Z</time>
      </trkpt>
      <trkpt lat="44.5131" lon="6.57891">
        <ele>1476</ele>
        <time>2021-04-07T05:53:59Z</time>
      </trkpt>
      <trkpt lat="44.5131" lon="6.57893">
        <ele>1476</ele>
        <time>2021-04-07T05:54:00Z</time>
      </trkpt>
      <trkpt lat="44.51311" lon="6.57894">
        <ele>1476</ele>
        <time>2021-04-07T05:54:01Z</time>
      </trkpt>
      <trkpt lat="44.51311" lon="6.57895">
        <ele>1476</ele>
        <time>2021-04-07T05:54:02Z</time>
      </trkpt>
      <trkpt lat="44.51311" lon="6.57896">
        <ele>1476</ele>
        <time>2021-04-07T05:54:03Z</time>
      </trkpt>
      <trkpt lat="44.51311" lon="6.57898">
        <ele>1477</ele>
        <time>2021-04-07T05:54:04Z</time>
      </trkpt>
      <trkpt lat="44.51311" lon="6.57899">
        <ele>1477</ele>
        <time>2021-04-07T05:54:05Z</time>
      </trkpt>
      <trkpt lat="44.51311" lon="6.579">
        <ele>1477</ele>
        <time>2021-04-07T05:54:06Z</time>
      </trkpt>
      <trkpt lat="44.51311" lon="6.57901">
        <ele>1477</ele>
        <time>2021-04-07T05:54:07Z</time>
      </trkpt>
      <trkpt lat="44.51311" lon="6.57902">
        <ele>1477</ele>
        <time>2021-04-07T05:54:08Z</time>
      </trkpt>
      <trkpt lat="44.5131" lon="6.57903">
        <ele>1477</ele>
        <time>2021-04-07T05:54:09Z</time>
      </trkpt>
      <trkpt lat="44.5131" lon="6.57905">
        <ele>1477</ele>
        <time>2021-04-07T05:54:10Z</time>
      </trkpt>
      <trkpt lat="44.5131" lon="6.57906">
        <ele>1477</ele>
        <time>2021-04-07T05:54:11Z</time>
      </trkpt>
      <trkpt lat="44.5131" lon="6.57908">
        <ele>1477</ele>
        <time>2021-04-07T05:54:12Z</time>
      </trkpt>
      <trkpt lat="44.51311" lon="6.5791">
        <ele>1477</ele>
        <time>2021-04-07T05:54:13Z</time>
      </trkpt>
      <trkpt lat="44.51311" lon="6.57911">
        <ele>1477</ele>
        <time>2021-04-07T05:54:14Z</time>
      </trkpt>
      <trkpt lat="44.51311" lon="6.57911">
        <ele>1477</ele>
        <time>2021-04-07T05:54:15Z</time>
      </trkpt>
      <trkpt lat="44.5131" lon="6.57912">
        <ele>1477</ele>
        <time>2021-04-07T05:54:16Z</time>
      </trkpt>
      <trkpt lat="44.5131" lon="6.57914">
        <ele>1477</ele>
        <time>2021-04-07T05:54:17Z</time>
      </trkpt>
      <trkpt lat="44.5131" lon="6.57915">
        <ele>1477</ele>
        <time>2021-04-07T05:54:18Z</time>
      </trkpt>
      <trkpt lat="44.5131" lon="6.57916">
        <ele>1477</ele>
        <time>2021-04-07T05:54:19Z</time>
      </trkpt>
      <trkpt lat="44.5131" lon="6.57917">
        <ele>1477</ele>
        <time>2021-04-07T05:54:20Z</time>
      </trkpt>
      <trkpt lat="44.5131" lon="6.57918">
        <ele>1477</ele>
        <time>2021-04-07T05:54:21Z</time>
      </trkpt>
      <trkpt lat="44.5131" lon="6.57919">
        <ele>1477</ele>
        <time>2021-04-07T05:54:22Z</time>
      </trkpt>
      <trkpt lat="44.51309" lon="6.5792">
        <ele>1477</ele>
        <time>2021-04-07T05:54:23Z</time>
      </trkpt>
      <trkpt lat="44.51309" lon="6.57921">
        <ele>1478</ele>
        <time>2021-04-07T05:54:24Z</time>
      </trkpt>
      <trkpt lat="44.51309" lon="6.57922">
        <ele>1478</ele>
        <time>2021-04-07T05:54:25Z</time>
      </trkpt>
      <trkpt lat="44.51309" lon="6.57924">
        <ele>1478</ele>
        <time>2021-04-07T05:54:26Z</time>
      </trkpt>
      <trkpt lat="44.5131" lon="6.57926">
        <ele>1478</ele>
        <time>2021-04-07T05:54:27Z</time>
      </trkpt>
      <trkpt lat="44.5131" lon="6.57926">
        <ele>1478</ele>
        <time>2021-04-07T05:54:28Z</time>
      </trkpt>
      <trkpt lat="44.5131" lon="6.57927">
        <ele>1478</ele>
        <time>2021-04-07T05:54:29Z</time>
      </trkpt>
      <trkpt lat="44.5131" lon="6.57929">
        <ele>1478</ele>
        <time>2021-04-07T05:54:30Z</time>
      </trkpt>
      <trkpt lat="44.5131" lon="6.5793">
        <ele>1479</ele>
        <time>2021-04-07T05:54:31Z</time>
      </trkpt>
      <trkpt lat="44.5131" lon="6.57932">
        <ele>1479</ele>
        <time>2021-04-07T05:54:32Z</time>
      </trkpt>
      <trkpt lat="44.5131" lon="6.57933">
        <ele>1479</ele>
        <time>2021-04-07T05:54:33Z</time>
      </trkpt>
      <trkpt lat="44.51311" lon="6.57935">
        <ele>1479</ele>
        <time>2021-04-07T05:54:34Z</time>
      </trkpt>
      <trkpt lat="44.51311" lon="6.57936">
        <ele>1479</ele>
        <time>2021-04-07T05:54:35Z</time>
      </trkpt>
      <trkpt lat="44.51311" lon="6.57938">
        <ele>1479</ele>
        <time>2021-04-07T05:54:36Z</time>
      </trkpt>
      <trkpt lat="44.51311" lon="6.57939">
        <ele>1479</ele>
        <time>2021-04-07T05:54:37Z</time>
      </trkpt>
      <trkpt lat="44.51312" lon="6.57941">
        <ele>1479</ele>
        <time>2021-04-07T05:54:38Z</time>
      </trkpt>
      <trkpt lat="44.51312" lon="6.57943">
        <ele>1479</ele>
        <time>2021-04-07T05:54:39Z</time>
      </trkpt>
      <trkpt lat="44.51312" lon="6.57945">
        <ele>1480</ele>
        <time>2021-04-07T05:54:40Z</time>
      </trkpt>
      <trkpt lat="44.51313" lon="6.57946">
        <ele>1480</ele>
        <time>2021-04-07T05:54:41Z</time>
      </trkpt>
      <trkpt lat="44.51313" lon="6.57947">
        <ele>1480</ele>
        <time>2021-04-07T05:54:42Z</time>
      </trkpt>
      <trkpt lat="44.51314" lon="6.57949">
        <ele>1481</ele>
        <time>2021-04-07T05:54:43Z</time>
      </trkpt>
      <trkpt lat="44.51314" lon="6.57949">
        <ele>1481</ele>
        <time>2021-04-07T05:54:44Z</time>
      </trkpt>
      <trkpt lat="44.51314" lon="6.57951">
        <ele>1481</ele>
        <time>2021-04-07T05:54:45Z</time>
      </trkpt>
      <trkpt lat="44.51315" lon="6.57952">
        <ele>1481</ele>
        <time>2021-04-07T05:54:46Z</time>
      </trkpt>
      <trkpt lat="44.51315" lon="6.57954">
        <ele>1481</ele>
        <time>2021-04-07T05:54:47Z</time>
      </trkpt>
      <trkpt lat="44.51315" lon="6.57955">
        <ele>1482</ele>
        <time>2021-04-07T05:54:48Z</time>
      </trkpt>
      <trkpt lat="44.51315" lon="6.57956">
        <ele>1482</ele>
        <time>2021-04-07T05:54:49Z</time>
      </trkpt>
      <trkpt lat="44.51315" lon="6.57957">
        <ele>1482</ele>
        <time>2021-04-07T05:54:50Z</time>
      </trkpt>
      <trkpt lat="44.51314" lon="6.57959">
        <ele>1482</ele>
        <time>2021-04-07T05:54:51Z</time>
      </trkpt>
      <trkpt lat="44.51314" lon="6.5796">
        <ele>1482</ele>
        <time>2021-04-07T05:54:52Z</time>
      </trkpt>
      <trkpt lat="44.51314" lon="6.57962">
        <ele>1482</ele>
        <time>2021-04-07T05:54:53Z</time>
      </trkpt>
      <trkpt lat="44.51314" lon="6.57964">
        <ele>1483</ele>
        <time>2021-04-07T05:54:54Z</time>
      </trkpt>
      <trkpt lat="44.51314" lon="6.57965">
        <ele>1483</ele>
        <time>2021-04-07T05:54:55Z</time>
      </trkpt>
      <trkpt lat="44.51314" lon="6.57967">
        <ele>1483</ele>
        <time>2021-04-07T05:54:56Z</time>
      </trkpt>
      <trkpt lat="44.51314" lon="6.57969">
        <ele>1483</ele>
        <time>2021-04-07T05:54:57Z</time>
      </trkpt>
      <trkpt lat="44.51314" lon="6.5797">
        <ele>1483</ele>
        <time>2021-04-07T05:54:58Z</time>
      </trkpt>
      <trkpt lat="44.51314" lon="6.5797">
        <ele>1484</ele>
        <time>2021-04-07T05:54:59Z</time>
      </trkpt>
      <trkpt lat="44.51315" lon="6.57971">
        <ele>1484</ele>
        <time>2021-04-07T05:55:00Z</time>
      </trkpt>
      <trkpt lat="44.51315" lon="6.57972">
        <ele>1484</ele>
        <time>2021-04-07T05:55:01Z</time>
      </trkpt>
      <trkpt lat="44.51315" lon="6.57973">
        <ele>1484</ele>
        <time>2021-04-07T05:55:02Z</time>
      </trkpt>
      <trkpt lat="44.51315" lon="6.57973">
        <ele>1485</ele>
        <time>2021-04-07T05:55:03Z</time>
      </trkpt>
      <trkpt lat="44.51315" lon="6.57975">
        <ele>1485</ele>
        <time>2021-04-07T05:55:04Z</time>
      </trkpt>
      <trkpt lat="44.51316" lon="6.57976">
        <ele>1485</ele>
        <time>2021-04-07T05:55:05Z</time>
      </trkpt>
      <trkpt lat="44.51316" lon="6.57976">
        <ele>1485</ele>
        <time>2021-04-07T05:55:06Z</time>
      </trkpt>
      <trkpt lat="44.51317" lon="6.57977">
        <ele>1485</ele>
        <time>2021-04-07T05:55:07Z</time>
      </trkpt>
      <trkpt lat="44.51318" lon="6.57978">
        <ele>1485</ele>
        <time>2021-04-07T05:55:08Z</time>
      </trkpt>
      <trkpt lat="44.51318" lon="6.57979">
        <ele>1485</ele>
        <time>2021-04-07T05:55:09Z</time>
      </trkpt>
      <trkpt lat="44.51317" lon="6.57981">
        <ele>1485</ele>
        <time>2021-04-07T05:55:10Z</time>
      </trkpt>
      <trkpt lat="44.51317" lon="6.57983">
        <ele>1485</ele>
        <time>2021-04-07T05:55:11Z</time>
      </trkpt>
      <trkpt lat="44.51317" lon="6.57984">
        <ele>1485</ele>
        <time>2021-04-07T05:55:12Z</time>
      </trkpt>
      <trkpt lat="44.51316" lon="6.57985">
        <ele>1485</ele>
        <time>2021-04-07T05:55:13Z</time>
      </trkpt>
      <trkpt lat="44.51316" lon="6.57987">
        <ele>1484</ele>
        <time>2021-04-07T05:55:14Z</time>
      </trkpt>
      <trkpt lat="44.51316" lon="6.57988">
        <ele>1484</ele>
        <time>2021-04-07T05:55:15Z</time>
      </trkpt>
      <trkpt lat="44.51316" lon="6.57989">
        <ele>1484</ele>
        <time>2021-04-07T05:55:16Z</time>
      </trkpt>
      <trkpt lat="44.51316" lon="6.57991">
        <ele>1484</ele>
        <time>2021-04-07T05:55:17Z</time>
      </trkpt>
      <trkpt lat="44.51316" lon="6.57992">
        <ele>1484</ele>
        <time>2021-04-07T05:55:18Z</time>
      </trkpt>
      <trkpt lat="44.51316" lon="6.57994">
        <ele>1484</ele>
        <time>2021-04-07T05:55:19Z</time>
      </trkpt>
      <trkpt lat="44.51316" lon="6.57995">
        <ele>1484</ele>
        <time>2021-04-07T05:55:20Z</time>
      </trkpt>
      <trkpt lat="44.51316" lon="6.57996">
        <ele>1484</ele>
        <time>2021-04-07T05:55:21Z</time>
      </trkpt>
      <trkpt lat="44.51316" lon="6.57998">
        <ele>1484</ele>
        <time>2021-04-07T05:55:22Z</time>
      </trkpt>
      <trkpt lat="44.51316" lon="6.57998">
        <ele>1484</ele>
        <time>2021-04-07T05:55:23Z</time>
      </trkpt>
      <trkpt lat="44.51316" lon="6.57999">
        <ele>1484</ele>
        <time>2021-04-07T05:55:24Z</time>
      </trkpt>
      <trkpt lat="44.51316" lon="6.58001">
        <ele>1484</ele>
        <time>2021-04-07T05:55:25Z</time>
      </trkpt>
      <trkpt lat="44.51316" lon="6.58002">
        <ele>1484</ele>
        <time>2021-04-07T05:55:26Z</time>
      </trkpt>
      <trkpt lat="44.51317" lon="6.58003">
        <ele>1484</ele>
        <time>2021-04-07T05:55:27Z</time>
      </trkpt>
      <trkpt lat="44.51318" lon="6.58005">
        <ele>1484</ele>
        <time>2021-04-07T05:55:28Z</time>
      </trkpt>
      <trkpt lat="44.51318" lon="6.58007">
        <ele>1484</ele>
        <time>2021-04-07T05:55:29Z</time>
      </trkpt>
      <trkpt lat="44.51318" lon="6.58008">
        <ele>1484</ele>
        <time>2021-04-07T05:55:30Z</time>
      </trkpt>
      <trkpt lat="44.51318" lon="6.58009">
        <ele>1484</ele>
        <time>2021-04-07T05:55:31Z</time>
      </trkpt>
      <trkpt lat="44.51319" lon="6.58011">
        <ele>1484</ele>
        <time>2021-04-07T05:55:32Z</time>
      </trkpt>
      <trkpt lat="44.51318" lon="6.58012">
        <ele>1484</ele>
        <time>2021-04-07T05:55:33Z</time>
      </trkpt>
      <trkpt lat="44.51317" lon="6.58013">
        <ele>1484</ele>
        <time>2021-04-07T05:55:34Z</time>
      </trkpt>
      <trkpt lat="44.51317" lon="6.58015">
        <ele>1484</ele>
        <time>2021-04-07T05:55:35Z</time>
      </trkpt>
      <trkpt lat="44.51317" lon="6.58016">
        <ele>1484</ele>
        <time>2021-04-07T05:55:36Z</time>
      </trkpt>
      <trkpt lat="44.51317" lon="6.58019">
        <ele>1484</ele>
        <time>2021-04-07T05:55:37Z</time>
      </trkpt>
      <trkpt lat="44.51317" lon="6.58021">
        <ele>1484</ele>
        <time>2021-04-07T05:55:38Z</time>
      </trkpt>
      <trkpt lat="44.51317" lon="6.58022">
        <ele>1484</ele>
        <time>2021-04-07T05:55:39Z</time>
      </trkpt>
      <trkpt lat="44.51317" lon="6.58024">
        <ele>1484</ele>
        <time>2021-04-07T05:55:40Z</time>
      </trkpt>
      <trkpt lat="44.51317" lon="6.58026">
        <ele>1485</ele>
        <time>2021-04-07T05:55:41Z</time>
      </trkpt>
      <trkpt lat="44.51317" lon="6.58027">
        <ele>1485</ele>
        <time>2021-04-07T05:55:42Z</time>
      </trkpt>
      <trkpt lat="44.51316" lon="6.58029">
        <ele>1485</ele>
        <time>2021-04-07T05:55:43Z</time>
      </trkpt>
      <trkpt lat="44.51316" lon="6.5803">
        <ele>1485</ele>
        <time>2021-04-07T05:55:44Z</time>
      </trkpt>
      <trkpt lat="44.51316" lon="6.58032">
        <ele>1485</ele>
        <time>2021-04-07T05:55:45Z</time>
      </trkpt>
      <trkpt lat="44.51316" lon="6.58033">
        <ele>1485</ele>
        <time>2021-04-07T05:55:46Z</time>
      </trkpt>
      <trkpt lat="44.51315" lon="6.58035">
        <ele>1485</ele>
        <time>2021-04-07T05:55:47Z</time>
      </trkpt>
      <trkpt lat="44.51315" lon="6.58037">
        <ele>1485</ele>
        <time>2021-04-07T05:55:48Z</time>
      </trkpt>
      <trkpt lat="44.51314" lon="6.58038">
        <ele>1484</ele>
        <time>2021-04-07T05:55:49Z</time>
      </trkpt>
      <trkpt lat="44.51314" lon="6.58039">
        <ele>1484</ele>
        <time>2021-04-07T05:55:50Z</time>
      </trkpt>
      <trkpt lat="44.51314" lon="6.5804">
        <ele>1484</ele>
        <time>2021-04-07T05:55:51Z</time>
      </trkpt>
      <trkpt lat="44.51314" lon="6.58041">
        <ele>1484</ele>
        <time>2021-04-07T05:55:52Z</time>
      </trkpt>
      <trkpt lat="44.51313" lon="6.58043">
        <ele>1484</ele>
        <time>2021-04-07T05:55:53Z</time>
      </trkpt>
      <trkpt lat="44.51313" lon="6.58044">
        <ele>1484</ele>
        <time>2021-04-07T05:55:54Z</time>
      </trkpt>
      <trkpt lat="44.51313" lon="6.58044">
        <ele>1484</ele>
        <time>2021-04-07T05:55:55Z</time>
      </trkpt>
      <trkpt lat="44.51313" lon="6.58045">
        <ele>1484</ele>
        <time>2021-04-07T05:55:56Z</time>
      </trkpt>
      <trkpt lat="44.51313" lon="6.58046">
        <ele>1484</ele>
        <time>2021-04-07T05:55:57Z</time>
      </trkpt>
      <trkpt lat="44.51312" lon="6.58047">
        <ele>1484</ele>
        <time>2021-04-07T05:55:58Z</time>
      </trkpt>
      <trkpt lat="44.51312" lon="6.58048">
        <ele>1484</ele>
        <time>2021-04-07T05:55:59Z</time>
      </trkpt>
      <trkpt lat="44.51312" lon="6.58049">
        <ele>1484</ele>
        <time>2021-04-07T05:56:00Z</time>
      </trkpt>
      <trkpt lat="44.51312" lon="6.58049">
        <ele>1483</ele>
        <time>2021-04-07T05:56:01Z</time>
      </trkpt>
      <trkpt lat="44.51311" lon="6.5805">
        <ele>1483</ele>
        <time>2021-04-07T05:56:02Z</time>
      </trkpt>
      <trkpt lat="44.51311" lon="6.58052">
        <ele>1483</ele>
        <time>2021-04-07T05:56:03Z</time>
      </trkpt>
      <trkpt lat="44.5131" lon="6.58053">
        <ele>1483</ele>
        <time>2021-04-07T05:56:04Z</time>
      </trkpt>
      <trkpt lat="44.5131" lon="6.58054">
        <ele>1483</ele>
        <time>2021-04-07T05:56:05Z</time>
      </trkpt>
      <trkpt lat="44.5131" lon="6.58056">
        <ele>1483</ele>
        <time>2021-04-07T05:56:06Z</time>
      </trkpt>
      <trkpt lat="44.5131" lon="6.58057">
        <ele>1483</ele>
        <time>2021-04-07T05:56:07Z</time>
      </trkpt>
      <trkpt lat="44.51309" lon="6.58058">
        <ele>1483</ele>
        <time>2021-04-07T05:56:08Z</time>
      </trkpt>
      <trkpt lat="44.51309" lon="6.58059">
        <ele>1484</ele>
        <time>2021-04-07T05:56:09Z</time>
      </trkpt>
      <trkpt lat="44.51309" lon="6.5806">
        <ele>1484</ele>
        <time>2021-04-07T05:56:10Z</time>
      </trkpt>
      <trkpt lat="44.51309" lon="6.58061">
        <ele>1484</ele>
        <time>2021-04-07T05:56:11Z</time>
      </trkpt>
      <trkpt lat="44.51309" lon="6.58062">
        <ele>1484</ele>
        <time>2021-04-07T05:56:12Z</time>
      </trkpt>
      <trkpt lat="44.51308" lon="6.58063">
        <ele>1484</ele>
        <time>2021-04-07T05:56:13Z</time>
      </trkpt>
      <trkpt lat="44.51308" lon="6.58064">
        <ele>1484</ele>
        <time>2021-04-07T05:56:14Z</time>
      </trkpt>
      <trkpt lat="44.51307" lon="6.58065">
        <ele>1484</ele>
        <time>2021-04-07T05:56:15Z</time>
      </trkpt>
      <trkpt lat="44.51307" lon="6.58066">
        <ele>1484</ele>
        <time>2021-04-07T05:56:16Z</time>
      </trkpt>
      <trkpt lat="44.51307" lon="6.58068">
        <ele>1484</ele>
        <time>2021-04-07T05:56:17Z</time>
      </trkpt>
      <trkpt lat="44.51306" lon="6.58068">
        <ele>1484</ele>
        <time>2021-04-07T05:56:18Z</time>
      </trkpt>
      <trkpt lat="44.51306" lon="6.5807">
        <ele>1484</ele>
        <time>2021-04-07T05:56:19Z</time>
      </trkpt>
      <trkpt lat="44.51306" lon="6.58071">
        <ele>1484</ele>
        <time>2021-04-07T05:56:20Z</time>
      </trkpt>
      <trkpt lat="44.51306" lon="6.58072">
        <ele>1484</ele>
        <time>2021-04-07T05:56:21Z</time>
      </trkpt>
      <trkpt lat="44.51305" lon="6.58074">
        <ele>1484</ele>
        <time>2021-04-07T05:56:22Z</time>
      </trkpt>
      <trkpt lat="44.51305" lon="6.58075">
        <ele>1484</ele>
        <time>2021-04-07T05:56:23Z</time>
      </trkpt>
      <trkpt lat="44.51305" lon="6.58077">
        <ele>1484</ele>
        <time>2021-04-07T05:56:24Z</time>
      </trkpt>
      <trkpt lat="44.51304" lon="6.58077">
        <ele>1485</ele>
        <time>2021-04-07T05:56:25Z</time>
      </trkpt>
      <trkpt lat="44.51304" lon="6.58078">
        <ele>1485</ele>
        <time>2021-04-07T05:56:26Z</time>
      </trkpt>
      <trkpt lat="44.51304" lon="6.58079">
        <ele>1485</ele>
        <time>2021-04-07T05:56:27Z</time>
      </trkpt>
      <trkpt lat="44.51304" lon="6.5808">
        <ele>1485</ele>
        <time>2021-04-07T05:56:28Z</time>
      </trkpt>
      <trkpt lat="44.51304" lon="6.58081">
        <ele>1485</ele>
        <time>2021-04-07T05:56:29Z</time>
      </trkpt>
      <trkpt lat="44.51304" lon="6.58082">
        <ele>1485</ele>
        <time>2021-04-07T05:56:30Z</time>
      </trkpt>
      <trkpt lat="44.51305" lon="6.58083">
        <ele>1485</ele>
        <time>2021-04-07T05:56:31Z</time>
      </trkpt>
      <trkpt lat="44.51305" lon="6.58084">
        <ele>1486</ele>
        <time>2021-04-07T05:56:32Z</time>
      </trkpt>
      <trkpt lat="44.51305" lon="6.58085">
        <ele>1486</ele>
        <time>2021-04-07T05:56:33Z</time>
      </trkpt>
      <trkpt lat="44.51305" lon="6.58086">
        <ele>1486</ele>
        <time>2021-04-07T05:56:34Z</time>
      </trkpt>
      <trkpt lat="44.51305" lon="6.58087">
        <ele>1486</ele>
        <time>2021-04-07T05:56:35Z</time>
      </trkpt>
      <trkpt lat="44.51305" lon="6.58089">
        <ele>1486</ele>
        <time>2021-04-07T05:56:36Z</time>
      </trkpt>
      <trkpt lat="44.51305" lon="6.5809">
        <ele>1486</ele>
        <time>2021-04-07T05:56:37Z</time>
      </trkpt>
      <trkpt lat="44.51305" lon="6.58091">
        <ele>1486</ele>
        <time>2021-04-07T05:56:38Z</time>
      </trkpt>
      <trkpt lat="44.51304" lon="6.58093">
        <ele>1486</ele>
        <time>2021-04-07T05:56:39Z</time>
      </trkpt>
      <trkpt lat="44.51305" lon="6.58093">
        <ele>1486</ele>
        <time>2021-04-07T05:56:40Z</time>
      </trkpt>
      <trkpt lat="44.51304" lon="6.58095">
        <ele>1487</ele>
        <time>2021-04-07T05:56:41Z</time>
      </trkpt>
      <trkpt lat="44.51304" lon="6.58095">
        <ele>1487</ele>
        <time>2021-04-07T05:56:42Z</time>
      </trkpt>
      <trkpt lat="44.51304" lon="6.58096">
        <ele>1487</ele>
        <time>2021-04-07T05:56:43Z</time>
      </trkpt>
      <trkpt lat="44.51303" lon="6.58098">
        <ele>1487</ele>
        <time>2021-04-07T05:56:44Z</time>
      </trkpt>
      <trkpt lat="44.51303" lon="6.58099">
        <ele>1487</ele>
        <time>2021-04-07T05:56:45Z</time>
      </trkpt>
      <trkpt lat="44.51303" lon="6.58101">
        <ele>1488</ele>
        <time>2021-04-07T05:56:46Z</time>
      </trkpt>
      <trkpt lat="44.51303" lon="6.58102">
        <ele>1488</ele>
        <time>2021-04-07T05:56:47Z</time>
      </trkpt>
      <trkpt lat="44.51303" lon="6.58103">
        <ele>1488</ele>
        <time>2021-04-07T05:56:48Z</time>
      </trkpt>
      <trkpt lat="44.51303" lon="6.58104">
        <ele>1488</ele>
        <time>2021-04-07T05:56:49Z</time>
      </trkpt>
      <trkpt lat="44.51303" lon="6.58105">
        <ele>1488</ele>
        <time>2021-04-07T05:56:50Z</time>
      </trkpt>
      <trkpt lat="44.51303" lon="6.58106">
        <ele>1489</ele>
        <time>2021-04-07T05:56:51Z</time>
      </trkpt>
      <trkpt lat="44.51303" lon="6.58108">
        <ele>1489</ele>
        <time>2021-04-07T05:56:52Z</time>
      </trkpt>
      <trkpt lat="44.51303" lon="6.58109">
        <ele>1489</ele>
        <time>2021-04-07T05:56:53Z</time>
      </trkpt>
      <trkpt lat="44.51303" lon="6.58111">
        <ele>1489</ele>
        <time>2021-04-07T05:56:54Z</time>
      </trkpt>
      <trkpt lat="44.51302" lon="6.58112">
        <ele>1489</ele>
        <time>2021-04-07T05:56:55Z</time>
      </trkpt>
      <trkpt lat="44.51302" lon="6.58113">
        <ele>1490</ele>
        <time>2021-04-07T05:56:56Z</time>
      </trkpt>
      <trkpt lat="44.51302" lon="6.58114">
        <ele>1490</ele>
        <time>2021-04-07T05:56:57Z</time>
      </trkpt>
      <trkpt lat="44.51302" lon="6.58115">
        <ele>1490</ele>
        <time>2021-04-07T05:56:58Z</time>
      </trkpt>
      <trkpt lat="44.51302" lon="6.58117">
        <ele>1490</ele>
        <time>2021-04-07T05:56:59Z</time>
      </trkpt>
      <trkpt lat="44.51301" lon="6.58118">
        <ele>1491</ele>
        <time>2021-04-07T05:57:00Z</time>
      </trkpt>
      <trkpt lat="44.51301" lon="6.5812">
        <ele>1491</ele>
        <time>2021-04-07T05:57:01Z</time>
      </trkpt>
      <trkpt lat="44.51301" lon="6.58121">
        <ele>1491</ele>
        <time>2021-04-07T05:57:02Z</time>
      </trkpt>
      <trkpt lat="44.51301" lon="6.58122">
        <ele>1491</ele>
        <time>2021-04-07T05:57:03Z</time>
      </trkpt>
      <trkpt lat="44.51301" lon="6.58123">
        <ele>1492</ele>
        <time>2021-04-07T05:57:04Z</time>
      </trkpt>
      <trkpt lat="44.51301" lon="6.58124">
        <ele>1492</ele>
        <time>2021-04-07T05:57:05Z</time>
      </trkpt>
      <trkpt lat="44.513" lon="6.58125">
        <ele>1492</ele>
        <time>2021-04-07T05:57:06Z</time>
      </trkpt>
      <trkpt lat="44.513" lon="6.58126">
        <ele>1492</ele>
        <time>2021-04-07T05:57:07Z</time>
      </trkpt>
      <trkpt lat="44.51299" lon="6.58127">
        <ele>1492</ele>
        <time>2021-04-07T05:57:08Z</time>
      </trkpt>
      <trkpt lat="44.51298" lon="6.58129">
        <ele>1493</ele>
        <time>2021-04-07T05:57:09Z</time>
      </trkpt>
      <trkpt lat="44.51298" lon="6.58129">
        <ele>1493</ele>
        <time>2021-04-07T05:57:10Z</time>
      </trkpt>
      <trkpt lat="44.51298" lon="6.5813">
        <ele>1493</ele>
        <time>2021-04-07T05:57:11Z</time>
      </trkpt>
      <trkpt lat="44.51298" lon="6.5813">
        <ele>1493</ele>
        <time>2021-04-07T05:57:12Z</time>
      </trkpt>
      <trkpt lat="44.51298" lon="6.58131">
        <ele>1493</ele>
        <time>2021-04-07T05:57:13Z</time>
      </trkpt>
      <trkpt lat="44.51298" lon="6.58133">
        <ele>1493</ele>
        <time>2021-04-07T05:57:14Z</time>
      </trkpt>
      <trkpt lat="44.51298" lon="6.58134">
        <ele>1494</ele>
        <time>2021-04-07T05:57:15Z</time>
      </trkpt>
      <trkpt lat="44.51298" lon="6.58135">
        <ele>1494</ele>
        <time>2021-04-07T05:57:16Z</time>
      </trkpt>
      <trkpt lat="44.51298" lon="6.58136">
        <ele>1494</ele>
        <time>2021-04-07T05:57:17Z</time>
      </trkpt>
      <trkpt lat="44.51298" lon="6.58138">
        <ele>1495</ele>
        <time>2021-04-07T05:57:18Z</time>
      </trkpt>
      <trkpt lat="44.51299" lon="6.58139">
        <ele>1495</ele>
        <time>2021-04-07T05:57:19Z</time>
      </trkpt>
      <trkpt lat="44.51299" lon="6.5814">
        <ele>1497</ele>
        <time>2021-04-07T05:57:20Z</time>
      </trkpt>
      <trkpt lat="44.51299" lon="6.58142">
        <ele>1498</ele>
        <time>2021-04-07T05:57:21Z</time>
      </trkpt>
      <trkpt lat="44.51299" lon="6.58143">
        <ele>1498</ele>
        <time>2021-04-07T05:57:22Z</time>
      </trkpt>
      <trkpt lat="44.51299" lon="6.58144">
        <ele>1498</ele>
        <time>2021-04-07T05:57:23Z</time>
      </trkpt>
      <trkpt lat="44.51298" lon="6.58145">
        <ele>1499</ele>
        <time>2021-04-07T05:57:24Z</time>
      </trkpt>
      <trkpt lat="44.51298" lon="6.58146">
        <ele>1499</ele>
        <time>2021-04-07T05:57:25Z</time>
      </trkpt>
      <trkpt lat="44.51298" lon="6.58148">
        <ele>1500</ele>
        <time>2021-04-07T05:57:26Z</time>
      </trkpt>
      <trkpt lat="44.51298" lon="6.58149">
        <ele>1500</ele>
        <time>2021-04-07T05:57:27Z</time>
      </trkpt>
      <trkpt lat="44.51297" lon="6.5815">
        <ele>1500</ele>
        <time>2021-04-07T05:57:28Z</time>
      </trkpt>
      <trkpt lat="44.51297" lon="6.58152">
        <ele>1500</ele>
        <time>2021-04-07T05:57:29Z</time>
      </trkpt>
      <trkpt lat="44.51297" lon="6.58153">
        <ele>1501</ele>
        <time>2021-04-07T05:57:30Z</time>
      </trkpt>
      <trkpt lat="44.51296" lon="6.58154">
        <ele>1501</ele>
        <time>2021-04-07T05:57:31Z</time>
      </trkpt>
      <trkpt lat="44.51296" lon="6.58155">
        <ele>1501</ele>
        <time>2021-04-07T05:57:32Z</time>
      </trkpt>
      <trkpt lat="44.51296" lon="6.58157">
        <ele>1502</ele>
        <time>2021-04-07T05:57:33Z</time>
      </trkpt>
      <trkpt lat="44.51295" lon="6.58158">
        <ele>1502</ele>
        <time>2021-04-07T05:57:34Z</time>
      </trkpt>
      <trkpt lat="44.51294" lon="6.58159">
        <ele>1503</ele>
        <time>2021-04-07T05:57:35Z</time>
      </trkpt>
      <trkpt lat="44.51295" lon="6.58161">
        <ele>1503</ele>
        <time>2021-04-07T05:57:36Z</time>
      </trkpt>
      <trkpt lat="44.51294" lon="6.58163">
        <ele>1504</ele>
        <time>2021-04-07T05:57:37Z</time>
      </trkpt>
      <trkpt lat="44.51294" lon="6.58164">
        <ele>1504</ele>
        <time>2021-04-07T05:57:38Z</time>
      </trkpt>
      <trkpt lat="44.51294" lon="6.58166">
        <ele>1505</ele>
        <time>2021-04-07T05:57:39Z</time>
      </trkpt>
      <trkpt lat="44.51293" lon="6.58167">
        <ele>1505</ele>
        <time>2021-04-07T05:57:40Z</time>
      </trkpt>
      <trkpt lat="44.51293" lon="6.58168">
        <ele>1505</ele>
        <time>2021-04-07T05:57:41Z</time>
      </trkpt>
      <trkpt lat="44.51293" lon="6.5817">
        <ele>1505</ele>
        <time>2021-04-07T05:57:42Z</time>
      </trkpt>
      <trkpt lat="44.51292" lon="6.58171">
        <ele>1506</ele>
        <time>2021-04-07T05:57:43Z</time>
      </trkpt>
      <trkpt lat="44.51292" lon="6.58172">
        <ele>1506</ele>
        <time>2021-04-07T05:57:44Z</time>
      </trkpt>
      <trkpt lat="44.51291" lon="6.58173">
        <ele>1506</ele>
        <time>2021-04-07T05:57:45Z</time>
      </trkpt>
      <trkpt lat="44.5129" lon="6.58174">
        <ele>1506</ele>
        <time>2021-04-07T05:57:46Z</time>
      </trkpt>
      <trkpt lat="44.5129" lon="6.58175">
        <ele>1506</ele>
        <time>2021-04-07T05:57:47Z</time>
      </trkpt>
      <trkpt lat="44.5129" lon="6.58176">
        <ele>1506</ele>
        <time>2021-04-07T05:57:48Z</time>
      </trkpt>
      <trkpt lat="44.5129" lon="6.58177">
        <ele>1506</ele>
        <time>2021-04-07T05:57:49Z</time>
      </trkpt>
      <trkpt lat="44.5129" lon="6.58179">
        <ele>1506</ele>
        <time>2021-04-07T05:57:50Z</time>
      </trkpt>
      <trkpt lat="44.5129" lon="6.5818">
        <ele>1506</ele>
        <time>2021-04-07T05:57:51Z</time>
      </trkpt>
      <trkpt lat="44.51289" lon="6.58182">
        <ele>1506</ele>
        <time>2021-04-07T05:57:52Z</time>
      </trkpt>
      <trkpt lat="44.51289" lon="6.58183">
        <ele>1506</ele>
        <time>2021-04-07T05:57:53Z</time>
      </trkpt>
      <trkpt lat="44.51289" lon="6.58185">
        <ele>1506</ele>
        <time>2021-04-07T05:57:54Z</time>
      </trkpt>
      <trkpt lat="44.51289" lon="6.58186">
        <ele>1506</ele>
        <time>2021-04-07T05:57:55Z</time>
      </trkpt>
      <trkpt lat="44.51288" lon="6.58188">
        <ele>1506</ele>
        <time>2021-04-07T05:57:56Z</time>
      </trkpt>
      <trkpt lat="44.51288" lon="6.5819">
        <ele>1506</ele>
        <time>2021-04-07T05:57:57Z</time>
      </trkpt>
      <trkpt lat="44.51288" lon="6.58191">
        <ele>1507</ele>
        <time>2021-04-07T05:57:58Z</time>
      </trkpt>
      <trkpt lat="44.51288" lon="6.58192">
        <ele>1507</ele>
        <time>2021-04-07T05:57:59Z</time>
      </trkpt>
      <trkpt lat="44.51288" lon="6.58192">
        <ele>1507</ele>
        <time>2021-04-07T05:58:00Z</time>
      </trkpt>
      <trkpt lat="44.51288" lon="6.58193">
        <ele>1507</ele>
        <time>2021-04-07T05:58:01Z</time>
      </trkpt>
      <trkpt lat="44.51288" lon="6.58194">
        <ele>1507</ele>
        <time>2021-04-07T05:58:02Z</time>
      </trkpt>
      <trkpt lat="44.51288" lon="6.58195">
        <ele>1507</ele>
        <time>2021-04-07T05:58:03Z</time>
      </trkpt>
      <trkpt lat="44.51288" lon="6.58196">
        <ele>1507</ele>
        <time>2021-04-07T05:58:04Z</time>
      </trkpt>
      <trkpt lat="44.51288" lon="6.58197">
        <ele>1507</ele>
        <time>2021-04-07T05:58:05Z</time>
      </trkpt>
      <trkpt lat="44.51288" lon="6.58198">
        <ele>1508</ele>
        <time>2021-04-07T05:58:06Z</time>
      </trkpt>
      <trkpt lat="44.51288" lon="6.582">
        <ele>1508</ele>
        <time>2021-04-07T05:58:07Z</time>
      </trkpt>
      <trkpt lat="44.51288" lon="6.582">
        <ele>1508</ele>
        <time>2021-04-07T05:58:08Z</time>
      </trkpt>
      <trkpt lat="44.51288" lon="6.58201">
        <ele>1509</ele>
        <time>2021-04-07T05:58:09Z</time>
      </trkpt>
      <trkpt lat="44.51288" lon="6.58202">
        <ele>1509</ele>
        <time>2021-04-07T05:58:10Z</time>
      </trkpt>
      <trkpt lat="44.51288" lon="6.58203">
        <ele>1509</ele>
        <time>2021-04-07T05:58:11Z</time>
      </trkpt>
      <trkpt lat="44.51288" lon="6.58204">
        <ele>1509</ele>
        <time>2021-04-07T05:58:12Z</time>
      </trkpt>
      <trkpt lat="44.51288" lon="6.58204">
        <ele>1510</ele>
        <time>2021-04-07T05:58:13Z</time>
      </trkpt>
      <trkpt lat="44.51288" lon="6.58205">
        <ele>1510</ele>
        <time>2021-04-07T05:58:14Z</time>
      </trkpt>
      <trkpt lat="44.51288" lon="6.58205">
        <ele>1510</ele>
        <time>2021-04-07T05:58:15Z</time>
      </trkpt>
      <trkpt lat="44.51287" lon="6.58208">
        <ele>1510</ele>
        <time>2021-04-07T05:58:16Z</time>
      </trkpt>
      <trkpt lat="44.51286" lon="6.5821">
        <ele>1510</ele>
        <time>2021-04-07T05:58:17Z</time>
      </trkpt>
      <trkpt lat="44.51286" lon="6.58212">
        <ele>1510</ele>
        <time>2021-04-07T05:58:18Z</time>
      </trkpt>
      <trkpt lat="44.51286" lon="6.58214">
        <ele>1510</ele>
        <time>2021-04-07T05:58:19Z</time>
      </trkpt>
      <trkpt lat="44.51285" lon="6.58216">
        <ele>1510</ele>
        <time>2021-04-07T05:58:20Z</time>
      </trkpt>
      <trkpt lat="44.51285" lon="6.58217">
        <ele>1511</ele>
        <time>2021-04-07T05:58:21Z</time>
      </trkpt>
      <trkpt lat="44.51285" lon="6.58218">
        <ele>1511</ele>
        <time>2021-04-07T05:58:22Z</time>
      </trkpt>
      <trkpt lat="44.51284" lon="6.58219">
        <ele>1511</ele>
        <time>2021-04-07T05:58:23Z</time>
      </trkpt>
      <trkpt lat="44.51284" lon="6.58221">
        <ele>1511</ele>
        <time>2021-04-07T05:58:24Z</time>
      </trkpt>
      <trkpt lat="44.51283" lon="6.58222">
        <ele>1511</ele>
        <time>2021-04-07T05:58:25Z</time>
      </trkpt>
      <trkpt lat="44.51283" lon="6.58224">
        <ele>1511</ele>
        <time>2021-04-07T05:58:26Z</time>
      </trkpt>
      <trkpt lat="44.51283" lon="6.58225">
        <ele>1511</ele>
        <time>2021-04-07T05:58:27Z</time>
      </trkpt>
      <trkpt lat="44.51283" lon="6.58226">
        <ele>1511</ele>
        <time>2021-04-07T05:58:28Z</time>
      </trkpt>
      <trkpt lat="44.51283" lon="6.58226">
        <ele>1510</ele>
        <time>2021-04-07T05:58:29Z</time>
      </trkpt>
      <trkpt lat="44.51283" lon="6.58226">
        <ele>1510</ele>
        <time>2021-04-07T05:58:30Z</time>
      </trkpt>
      <trkpt lat="44.51283" lon="6.58227">
        <ele>1510</ele>
        <time>2021-04-07T05:58:31Z</time>
      </trkpt>
      <trkpt lat="44.51283" lon="6.58228">
        <ele>1510</ele>
        <time>2021-04-07T05:58:32Z</time>
      </trkpt>
      <trkpt lat="44.51283" lon="6.58229">
        <ele>1510</ele>
        <time>2021-04-07T05:58:33Z</time>
      </trkpt>
      <trkpt lat="44.51283" lon="6.58231">
        <ele>1510</ele>
        <time>2021-04-07T05:58:34Z</time>
      </trkpt>
      <trkpt lat="44.51282" lon="6.58233">
        <ele>1510</ele>
        <time>2021-04-07T05:58:35Z</time>
      </trkpt>
      <trkpt lat="44.51281" lon="6.58235">
        <ele>1510</ele>
        <time>2021-04-07T05:58:36Z</time>
      </trkpt>
      <trkpt lat="44.5128" lon="6.58235">
        <ele>1510</ele>
        <time>2021-04-07T05:58:37Z</time>
      </trkpt>
      <trkpt lat="44.5128" lon="6.58236">
        <ele>1510</ele>
        <time>2021-04-07T05:58:38Z</time>
      </trkpt>
      <trkpt lat="44.5128" lon="6.58237">
        <ele>1510</ele>
        <time>2021-04-07T05:58:39Z</time>
      </trkpt>
      <trkpt lat="44.5128" lon="6.58238">
        <ele>1510</ele>
        <time>2021-04-07T05:58:40Z</time>
      </trkpt>
      <trkpt lat="44.5128" lon="6.58239">
        <ele>1511</ele>
        <time>2021-04-07T05:58:41Z</time>
      </trkpt>
      <trkpt lat="44.5128" lon="6.5824">
        <ele>1511</ele>
        <time>2021-04-07T05:58:42Z</time>
      </trkpt>
      <trkpt lat="44.5128" lon="6.58241">
        <ele>1511</ele>
        <time>2021-04-07T05:58:43Z</time>
      </trkpt>
      <trkpt lat="44.5128" lon="6.58242">
        <ele>1511</ele>
        <time>2021-04-07T05:58:44Z</time>
      </trkpt>
      <trkpt lat="44.5128" lon="6.58243">
        <ele>1511</ele>
        <time>2021-04-07T05:58:45Z</time>
      </trkpt>
      <trkpt lat="44.51279" lon="6.58244">
        <ele>1511</ele>
        <time>2021-04-07T05:58:46Z</time>
      </trkpt>
      <trkpt lat="44.51279" lon="6.58245">
        <ele>1511</ele>
        <time>2021-04-07T05:58:47Z</time>
      </trkpt>
      <trkpt lat="44.51279" lon="6.58247">
        <ele>1512</ele>
        <time>2021-04-07T05:58:48Z</time>
      </trkpt>
      <trkpt lat="44.51279" lon="6.58248">
        <ele>1512</ele>
        <time>2021-04-07T05:58:49Z</time>
      </trkpt>
      <trkpt lat="44.51279" lon="6.5825">
        <ele>1512</ele>
        <time>2021-04-07T05:58:50Z</time>
      </trkpt>
      <trkpt lat="44.51279" lon="6.58252">
        <ele>1512</ele>
        <time>2021-04-07T05:58:51Z</time>
      </trkpt>
      <trkpt lat="44.51278" lon="6.58253">
        <ele>1513</ele>
        <time>2021-04-07T05:58:52Z</time>
      </trkpt>
      <trkpt lat="44.51278" lon="6.58255">
        <ele>1513</ele>
        <time>2021-04-07T05:58:53Z</time>
      </trkpt>
      <trkpt lat="44.51278" lon="6.58255">
        <ele>1513</ele>
        <time>2021-04-07T05:58:54Z</time>
      </trkpt>
      <trkpt lat="44.51278" lon="6.58256">
        <ele>1513</ele>
        <time>2021-04-07T05:58:55Z</time>
      </trkpt>
      <trkpt lat="44.51278" lon="6.58258">
        <ele>1513</ele>
        <time>2021-04-07T05:58:56Z</time>
      </trkpt>
      <trkpt lat="44.51278" lon="6.58259">
        <ele>1514</ele>
        <time>2021-04-07T05:58:57Z</time>
      </trkpt>
      <trkpt lat="44.51278" lon="6.5826">
        <ele>1515</ele>
        <time>2021-04-07T05:58:58Z</time>
      </trkpt>
      <trkpt lat="44.51278" lon="6.58262">
        <ele>1515</ele>
        <time>2021-04-07T05:58:59Z</time>
      </trkpt>
      <trkpt lat="44.51278" lon="6.58263">
        <ele>1515</ele>
        <time>2021-04-07T05:59:00Z</time>
      </trkpt>
      <trkpt lat="44.51278" lon="6.58265">
        <ele>1515</ele>
        <time>2021-04-07T05:59:01Z</time>
      </trkpt>
      <trkpt lat="44.51278" lon="6.58266">
        <ele>1515</ele>
        <time>2021-04-07T05:59:02Z</time>
      </trkpt>
      <trkpt lat="44.51278" lon="6.58268">
        <ele>1515</ele>
        <time>2021-04-07T05:59:03Z</time>
      </trkpt>
      <trkpt lat="44.51278" lon="6.58268">
        <ele>1515</ele>
        <time>2021-04-07T05:59:04Z</time>
      </trkpt>
      <trkpt lat="44.51278" lon="6.58269">
        <ele>1515</ele>
        <time>2021-04-07T05:59:05Z</time>
      </trkpt>
      <trkpt lat="44.51278" lon="6.5827">
        <ele>1515</ele>
        <time>2021-04-07T05:59:06Z</time>
      </trkpt>
      <trkpt lat="44.51278" lon="6.58271">
        <ele>1515</ele>
        <time>2021-04-07T05:59:07Z</time>
      </trkpt>
      <trkpt lat="44.51278" lon="6.58272">
        <ele>1515</ele>
        <time>2021-04-07T05:59:08Z</time>
      </trkpt>
      <trkpt lat="44.51277" lon="6.58274">
        <ele>1515</ele>
        <time>2021-04-07T05:59:09Z</time>
      </trkpt>
      <trkpt lat="44.51277" lon="6.58275">
        <ele>1515</ele>
        <time>2021-04-07T05:59:10Z</time>
      </trkpt>
      <trkpt lat="44.51278" lon="6.58276">
        <ele>1515</ele>
        <time>2021-04-07T05:59:11Z</time>
      </trkpt>
      <trkpt lat="44.51278" lon="6.58277">
        <ele>1515</ele>
        <time>2021-04-07T05:59:12Z</time>
      </trkpt>
      <trkpt lat="44.51278" lon="6.58278">
        <ele>1515</ele>
        <time>2021-04-07T05:59:13Z</time>
      </trkpt>
      <trkpt lat="44.51278" lon="6.58278">
        <ele>1516</ele>
        <time>2021-04-07T05:59:14Z</time>
      </trkpt>
      <trkpt lat="44.51278" lon="6.58279">
        <ele>1516</ele>
        <time>2021-04-07T05:59:15Z</time>
      </trkpt>
      <trkpt lat="44.51278" lon="6.5828">
        <ele>1516</ele>
        <time>2021-04-07T05:59:16Z</time>
      </trkpt>
      <trkpt lat="44.51278" lon="6.58281">
        <ele>1516</ele>
        <time>2021-04-07T05:59:17Z</time>
      </trkpt>
      <trkpt lat="44.51279" lon="6.58282">
        <ele>1516</ele>
        <time>2021-04-07T05:59:18Z</time>
      </trkpt>
      <trkpt lat="44.51279" lon="6.58283">
        <ele>1516</ele>
        <time>2021-04-07T05:59:19Z</time>
      </trkpt>
      <trkpt lat="44.5128" lon="6.58284">
        <ele>1516</ele>
        <time>2021-04-07T05:59:20Z</time>
      </trkpt>
      <trkpt lat="44.5128" lon="6.58286">
        <ele>1516</ele>
        <time>2021-04-07T05:59:21Z</time>
      </trkpt>
      <trkpt lat="44.5128" lon="6.58287">
        <ele>1517</ele>
        <time>2021-04-07T05:59:22Z</time>
      </trkpt>
      <trkpt lat="44.5128" lon="6.58288">
        <ele>1517</ele>
        <time>2021-04-07T05:59:23Z</time>
      </trkpt>
      <trkpt lat="44.5128" lon="6.58289">
        <ele>1517</ele>
        <time>2021-04-07T05:59:24Z</time>
      </trkpt>
      <trkpt lat="44.5128" lon="6.5829">
        <ele>1517</ele>
        <time>2021-04-07T05:59:25Z</time>
      </trkpt>
      <trkpt lat="44.5128" lon="6.58291">
        <ele>1517</ele>
        <time>2021-04-07T05:59:26Z</time>
      </trkpt>
      <trkpt lat="44.5128" lon="6.58292">
        <ele>1517</ele>
        <time>2021-04-07T05:59:27Z</time>
      </trkpt>
      <trkpt lat="44.5128" lon="6.58293">
        <ele>1518</ele>
        <time>2021-04-07T05:59:28Z</time>
      </trkpt>
      <trkpt lat="44.5128" lon="6.58295">
        <ele>1518</ele>
        <time>2021-04-07T05:59:29Z</time>
      </trkpt>
      <trkpt lat="44.51279" lon="6.58296">
        <ele>1518</ele>
        <time>2021-04-07T05:59:30Z</time>
      </trkpt>
      <trkpt lat="44.5128" lon="6.58297">
        <ele>1518</ele>
        <time>2021-04-07T05:59:31Z</time>
      </trkpt>
      <trkpt lat="44.5128" lon="6.58298">
        <ele>1518</ele>
        <time>2021-04-07T05:59:32Z</time>
      </trkpt>
      <trkpt lat="44.5128" lon="6.58299">
        <ele>1518</ele>
        <time>2021-04-07T05:59:33Z</time>
      </trkpt>
      <trkpt lat="44.5128" lon="6.58299">
        <ele>1518</ele>
        <time>2021-04-07T05:59:34Z</time>
      </trkpt>
      <trkpt lat="44.5128" lon="6.58301">
        <ele>1518</ele>
        <time>2021-04-07T05:59:35Z</time>
      </trkpt>
      <trkpt lat="44.5128" lon="6.58303">
        <ele>1519</ele>
        <time>2021-04-07T05:59:36Z</time>
      </trkpt>
      <trkpt lat="44.5128" lon="6.58305">
        <ele>1519</ele>
        <time>2021-04-07T05:59:37Z</time>
      </trkpt>
      <trkpt lat="44.5128" lon="6.58306">
        <ele>1519</ele>
        <time>2021-04-07T05:59:38Z</time>
      </trkpt>
      <trkpt lat="44.5128" lon="6.58308">
        <ele>1519</ele>
        <time>2021-04-07T05:59:39Z</time>
      </trkpt>
      <trkpt lat="44.5128" lon="6.58309">
        <ele>1520</ele>
        <time>2021-04-07T05:59:40Z</time>
      </trkpt>
      <trkpt lat="44.5128" lon="6.58311">
        <ele>1520</ele>
        <time>2021-04-07T05:59:41Z</time>
      </trkpt>
      <trkpt lat="44.51281" lon="6.58312">
        <ele>1520</ele>
        <time>2021-04-07T05:59:42Z</time>
      </trkpt>
      <trkpt lat="44.51282" lon="6.58314">
        <ele>1521</ele>
        <time>2021-04-07T05:59:43Z</time>
      </trkpt>
      <trkpt lat="44.51283" lon="6.58315">
        <ele>1522</ele>
        <time>2021-04-07T05:59:44Z</time>
      </trkpt>
      <trkpt lat="44.51285" lon="6.58317">
        <ele>1522</ele>
        <time>2021-04-07T05:59:45Z</time>
      </trkpt>
      <trkpt lat="44.51285" lon="6.58319">
        <ele>1522</ele>
        <time>2021-04-07T05:59:46Z</time>
      </trkpt>
      <trkpt lat="44.51285" lon="6.5832">
        <ele>1523</ele>
        <time>2021-04-07T05:59:47Z</time>
      </trkpt>
      <trkpt lat="44.51286" lon="6.58322">
        <ele>1523</ele>
        <time>2021-04-07T05:59:48Z</time>
      </trkpt>
      <trkpt lat="44.51286" lon="6.58323">
        <ele>1523</ele>
        <time>2021-04-07T05:59:49Z</time>
      </trkpt>
      <trkpt lat="44.51286" lon="6.58325">
        <ele>1524</ele>
        <time>2021-04-07T05:59:50Z</time>
      </trkpt>
      <trkpt lat="44.51286" lon="6.58326">
        <ele>1524</ele>
        <time>2021-04-07T05:59:51Z</time>
      </trkpt>
      <trkpt lat="44.51286" lon="6.58328">
        <ele>1525</ele>
        <time>2021-04-07T05:59:52Z</time>
      </trkpt>
      <trkpt lat="44.51286" lon="6.5833">
        <ele>1525</ele>
        <time>2021-04-07T05:59:53Z</time>
      </trkpt>
      <trkpt lat="44.51286" lon="6.58331">
        <ele>1525</ele>
        <time>2021-04-07T05:59:54Z</time>
      </trkpt>
      <trkpt lat="44.51287" lon="6.58332">
        <ele>1526</ele>
        <time>2021-04-07T05:59:55Z</time>
      </trkpt>
      <trkpt lat="44.51286" lon="6.58332">
        <ele>1526</ele>
        <time>2021-04-07T05:59:56Z</time>
      </trkpt>
      <trkpt lat="44.51287" lon="6.58333">
        <ele>1526</ele>
        <time>2021-04-07T05:59:57Z</time>
      </trkpt>
      <trkpt lat="44.51287" lon="6.58334">
        <ele>1526</ele>
        <time>2021-04-07T05:59:58Z</time>
      </trkpt>
      <trkpt lat="44.51287" lon="6.58336">
        <ele>1527</ele>
        <time>2021-04-07T05:59:59Z</time>
      </trkpt>
      <trkpt lat="44.51287" lon="6.58337">
        <ele>1527</ele>
        <time>2021-04-07T06:00:00Z</time>
      </trkpt>
      <trkpt lat="44.51287" lon="6.58338">
        <ele>1527</ele>
        <time>2021-04-07T06:00:01Z</time>
      </trkpt>
      <trkpt lat="44.51287" lon="6.58339">
        <ele>1527</ele>
        <time>2021-04-07T06:00:02Z</time>
      </trkpt>
      <trkpt lat="44.51287" lon="6.5834">
        <ele>1527</ele>
        <time>2021-04-07T06:00:03Z</time>
      </trkpt>
      <trkpt lat="44.51287" lon="6.58342">
        <ele>1527</ele>
        <time>2021-04-07T06:00:04Z</time>
      </trkpt>
      <trkpt lat="44.51287" lon="6.58343">
        <ele>1528</ele>
        <time>2021-04-07T06:00:05Z</time>
      </trkpt>
      <trkpt lat="44.51288" lon="6.58345">
        <ele>1528</ele>
        <time>2021-04-07T06:00:06Z</time>
      </trkpt>
      <trkpt lat="44.51288" lon="6.58346">
        <ele>1528</ele>
        <time>2021-04-07T06:00:07Z</time>
      </trkpt>
      <trkpt lat="44.51289" lon="6.58347">
        <ele>1528</ele>
        <time>2021-04-07T06:00:08Z</time>
      </trkpt>
      <trkpt lat="44.51289" lon="6.58349">
        <ele>1528</ele>
        <time>2021-04-07T06:00:09Z</time>
      </trkpt>
      <trkpt lat="44.5129" lon="6.58351">
        <ele>1528</ele>
        <time>2021-04-07T06:00:10Z</time>
      </trkpt>
      <trkpt lat="44.5129" lon="6.58352">
        <ele>1528</ele>
        <time>2021-04-07T06:00:11Z</time>
      </trkpt>
      <trkpt lat="44.51291" lon="6.58353">
        <ele>1528</ele>
        <time>2021-04-07T06:00:12Z</time>
      </trkpt>
      <trkpt lat="44.51291" lon="6.58354">
        <ele>1528</ele>
        <time>2021-04-07T06:00:13Z</time>
      </trkpt>
      <trkpt lat="44.51292" lon="6.58355">
        <ele>1529</ele>
        <time>2021-04-07T06:00:14Z</time>
      </trkpt>
      <trkpt lat="44.51292" lon="6.58356">
        <ele>1529</ele>
        <time>2021-04-07T06:00:15Z</time>
      </trkpt>
      <trkpt lat="44.51292" lon="6.58356">
        <ele>1529</ele>
        <time>2021-04-07T06:00:16Z</time>
      </trkpt>
      <trkpt lat="44.51293" lon="6.58357">
        <ele>1529</ele>
        <time>2021-04-07T06:00:17Z</time>
      </trkpt>
      <trkpt lat="44.51293" lon="6.58359">
        <ele>1529</ele>
        <time>2021-04-07T06:00:18Z</time>
      </trkpt>
      <trkpt lat="44.51294" lon="6.5836">
        <ele>1530</ele>
        <time>2021-04-07T06:00:19Z</time>
      </trkpt>
      <trkpt lat="44.51294" lon="6.58361">
        <ele>1530</ele>
        <time>2021-04-07T06:00:20Z</time>
      </trkpt>
      <trkpt lat="44.51295" lon="6.58362">
        <ele>1530</ele>
        <time>2021-04-07T06:00:21Z</time>
      </trkpt>
      <trkpt lat="44.51295" lon="6.58363">
        <ele>1530</ele>
        <time>2021-04-07T06:00:22Z</time>
      </trkpt>
      <trkpt lat="44.51295" lon="6.58365">
        <ele>1530</ele>
        <time>2021-04-07T06:00:23Z</time>
      </trkpt>
      <trkpt lat="44.51296" lon="6.58366">
        <ele>1530</ele>
        <time>2021-04-07T06:00:24Z</time>
      </trkpt>
      <trkpt lat="44.51296" lon="6.58367">
        <ele>1530</ele>
        <time>2021-04-07T06:00:25Z</time>
      </trkpt>
      <trkpt lat="44.51297" lon="6.58368">
        <ele>1531</ele>
        <time>2021-04-07T06:00:26Z</time>
      </trkpt>
      <trkpt lat="44.51297" lon="6.58369">
        <ele>1531</ele>
        <time>2021-04-07T06:00:27Z</time>
      </trkpt>
      <trkpt lat="44.51297" lon="6.58371">
        <ele>1531</ele>
        <time>2021-04-07T06:00:28Z</time>
      </trkpt>
      <trkpt lat="44.51297" lon="6.58372">
        <ele>1531</ele>
        <time>2021-04-07T06:00:29Z</time>
      </trkpt>
      <trkpt lat="44.51297" lon="6.58373">
        <ele>1531</ele>
        <time>2021-04-07T06:00:30Z</time>
      </trkpt>
      <trkpt lat="44.51297" lon="6.58374">
        <ele>1531</ele>
        <time>2021-04-07T06:00:31Z</time>
      </trkpt>
      <trkpt lat="44.51298" lon="6.58375">
        <ele>1531</ele>
        <time>2021-04-07T06:00:32Z</time>
      </trkpt>
      <trkpt lat="44.51298" lon="6.58377">
        <ele>1531</ele>
        <time>2021-04-07T06:00:33Z</time>
      </trkpt>
      <trkpt lat="44.51298" lon="6.58378">
        <ele>1531</ele>
        <time>2021-04-07T06:00:34Z</time>
      </trkpt>
      <trkpt lat="44.51298" lon="6.58379">
        <ele>1531</ele>
        <time>2021-04-07T06:00:35Z</time>
      </trkpt>
      <trkpt lat="44.51299" lon="6.58381">
        <ele>1531</ele>
        <time>2021-04-07T06:00:36Z</time>
      </trkpt>
      <trkpt lat="44.513" lon="6.58382">
        <ele>1532</ele>
        <time>2021-04-07T06:00:37Z</time>
      </trkpt>
      <trkpt lat="44.513" lon="6.58383">
        <ele>1532</ele>
        <time>2021-04-07T06:00:38Z</time>
      </trkpt>
      <trkpt lat="44.51301" lon="6.58383">
        <ele>1532</ele>
        <time>2021-04-07T06:00:39Z</time>
      </trkpt>
      <trkpt lat="44.51301" lon="6.58385">
        <ele>1532</ele>
        <time>2021-04-07T06:00:40Z</time>
      </trkpt>
      <trkpt lat="44.51301" lon="6.58386">
        <ele>1532</ele>
        <time>2021-04-07T06:00:41Z</time>
      </trkpt>
      <trkpt lat="44.51301" lon="6.58388">
        <ele>1532</ele>
        <time>2021-04-07T06:00:42Z</time>
      </trkpt>
      <trkpt lat="44.51302" lon="6.58389">
        <ele>1532</ele>
        <time>2021-04-07T06:00:43Z</time>
      </trkpt>
      <trkpt lat="44.51302" lon="6.5839">
        <ele>1532</ele>
        <time>2021-04-07T06:00:44Z</time>
      </trkpt>
      <trkpt lat="44.51303" lon="6.58391">
        <ele>1532</ele>
        <time>2021-04-07T06:00:45Z</time>
      </trkpt>
      <trkpt lat="44.51304" lon="6.58393">
        <ele>1533</ele>
        <time>2021-04-07T06:00:46Z</time>
      </trkpt>
      <trkpt lat="44.51305" lon="6.58394">
        <ele>1533</ele>
        <time>2021-04-07T06:00:47Z</time>
      </trkpt>
      <trkpt lat="44.51305" lon="6.58395">
        <ele>1533</ele>
        <time>2021-04-07T06:00:48Z</time>
      </trkpt>
      <trkpt lat="44.51306" lon="6.58396">
        <ele>1533</ele>
        <time>2021-04-07T06:00:49Z</time>
      </trkpt>
      <trkpt lat="44.51306" lon="6.58397">
        <ele>1533</ele>
        <time>2021-04-07T06:00:50Z</time>
      </trkpt>
      <trkpt lat="44.51307" lon="6.58397">
        <ele>1533</ele>
        <time>2021-04-07T06:00:51Z</time>
      </trkpt>
      <trkpt lat="44.51307" lon="6.58398">
        <ele>1533</ele>
        <time>2021-04-07T06:00:52Z</time>
      </trkpt>
      <trkpt lat="44.51308" lon="6.584">
        <ele>1533</ele>
        <time>2021-04-07T06:00:53Z</time>
      </trkpt>
      <trkpt lat="44.51309" lon="6.58401">
        <ele>1533</ele>
        <time>2021-04-07T06:00:54Z</time>
      </trkpt>
      <trkpt lat="44.51309" lon="6.58402">
        <ele>1533</ele>
        <time>2021-04-07T06:00:55Z</time>
      </trkpt>
      <trkpt lat="44.51308" lon="6.58404">
        <ele>1533</ele>
        <time>2021-04-07T06:00:56Z</time>
      </trkpt>
      <trkpt lat="44.51308" lon="6.58405">
        <ele>1533</ele>
        <time>2021-04-07T06:00:57Z</time>
      </trkpt>
      <trkpt lat="44.51308" lon="6.58407">
        <ele>1533</ele>
        <time>2021-04-07T06:00:58Z</time>
      </trkpt>
      <trkpt lat="44.51308" lon="6.58408">
        <ele>1533</ele>
        <time>2021-04-07T06:00:59Z</time>
      </trkpt>
      <trkpt lat="44.51309" lon="6.5841">
        <ele>1533</ele>
        <time>2021-04-07T06:01:00Z</time>
      </trkpt>
      <trkpt lat="44.5131" lon="6.58412">
        <ele>1533</ele>
        <time>2021-04-07T06:01:01Z</time>
      </trkpt>
      <trkpt lat="44.5131" lon="6.58413">
        <ele>1533</ele>
        <time>2021-04-07T06:01:02Z</time>
      </trkpt>
      <trkpt lat="44.5131" lon="6.58415">
        <ele>1533</ele>
        <time>2021-04-07T06:01:03Z</time>
      </trkpt>
      <trkpt lat="44.5131" lon="6.58416">
        <ele>1533</ele>
        <time>2021-04-07T06:01:04Z</time>
      </trkpt>
      <trkpt lat="44.51311" lon="6.58417">
        <ele>1533</ele>
        <time>2021-04-07T06:01:05Z</time>
      </trkpt>
      <trkpt lat="44.51311" lon="6.58419">
        <ele>1533</ele>
        <time>2021-04-07T06:01:06Z</time>
      </trkpt>
      <trkpt lat="44.51311" lon="6.5842">
        <ele>1533</ele>
        <time>2021-04-07T06:01:07Z</time>
      </trkpt>
      <trkpt lat="44.51311" lon="6.58422">
        <ele>1533</ele>
        <time>2021-04-07T06:01:08Z</time>
      </trkpt>
      <trkpt lat="44.51311" lon="6.58424">
        <ele>1533</ele>
        <time>2021-04-07T06:01:09Z</time>
      </trkpt>
      <trkpt lat="44.51311" lon="6.58425">
        <ele>1534</ele>
        <time>2021-04-07T06:01:10Z</time>
      </trkpt>
      <trkpt lat="44.51311" lon="6.58427">
        <ele>1534</ele>
        <time>2021-04-07T06:01:11Z</time>
      </trkpt>
      <trkpt lat="44.51311" lon="6.58428">
        <ele>1535</ele>
        <time>2021-04-07T06:01:12Z</time>
      </trkpt>
      <trkpt lat="44.51312" lon="6.5843">
        <ele>1535</ele>
        <time>2021-04-07T06:01:13Z</time>
      </trkpt>
      <trkpt lat="44.51312" lon="6.58432">
        <ele>1535</ele>
        <time>2021-04-07T06:01:14Z</time>
      </trkpt>
      <trkpt lat="44.51313" lon="6.58433">
        <ele>1535</ele>
        <time>2021-04-07T06:01:15Z</time>
      </trkpt>
      <trkpt lat="44.51313" lon="6.58434">
        <ele>1535</ele>
        <time>2021-04-07T06:01:16Z</time>
      </trkpt>
      <trkpt lat="44.51313" lon="6.58435">
        <ele>1535</ele>
        <time>2021-04-07T06:01:17Z</time>
      </trkpt>
      <trkpt lat="44.51314" lon="6.58436">
        <ele>1536</ele>
        <time>2021-04-07T06:01:18Z</time>
      </trkpt>
      <trkpt lat="44.51314" lon="6.58438">
        <ele>1536</ele>
        <time>2021-04-07T06:01:19Z</time>
      </trkpt>
      <trkpt lat="44.51314" lon="6.58438">
        <ele>1536</ele>
        <time>2021-04-07T06:01:20Z</time>
      </trkpt>
      <trkpt lat="44.51315" lon="6.5844">
        <ele>1536</ele>
        <time>2021-04-07T06:01:21Z</time>
      </trkpt>
      <trkpt lat="44.51315" lon="6.58442">
        <ele>1537</ele>
        <time>2021-04-07T06:01:22Z</time>
      </trkpt>
      <trkpt lat="44.51316" lon="6.58444">
        <ele>1537</ele>
        <time>2021-04-07T06:01:23Z</time>
      </trkpt>
      <trkpt lat="44.51316" lon="6.58445">
        <ele>1537</ele>
        <time>2021-04-07T06:01:24Z</time>
      </trkpt>
      <trkpt lat="44.51317" lon="6.58447">
        <ele>1538</ele>
        <time>2021-04-07T06:01:25Z</time>
      </trkpt>
      <trkpt lat="44.51318" lon="6.58449">
        <ele>1538</ele>
        <time>2021-04-07T06:01:26Z</time>
      </trkpt>
      <trkpt lat="44.51318" lon="6.58451">
        <ele>1538</ele>
        <time>2021-04-07T06:01:27Z</time>
      </trkpt>
      <trkpt lat="44.51318" lon="6.58452">
        <ele>1538</ele>
        <time>2021-04-07T06:01:28Z</time>
      </trkpt>
      <trkpt lat="44.51318" lon="6.58453">
        <ele>1539</ele>
        <time>2021-04-07T06:01:29Z</time>
      </trkpt>
      <trkpt lat="44.51319" lon="6.58454">
        <ele>1539</ele>
        <time>2021-04-07T06:01:30Z</time>
      </trkpt>
      <trkpt lat="44.51319" lon="6.58456">
        <ele>1539</ele>
        <time>2021-04-07T06:01:31Z</time>
      </trkpt>
      <trkpt lat="44.51319" lon="6.58457">
        <ele>1539</ele>
        <time>2021-04-07T06:01:32Z</time>
      </trkpt>
      <trkpt lat="44.5132" lon="6.58458">
        <ele>1539</ele>
        <time>2021-04-07T06:01:33Z</time>
      </trkpt>
      <trkpt lat="44.51321" lon="6.58459">
        <ele>1539</ele>
        <time>2021-04-07T06:01:34Z</time>
      </trkpt>
      <trkpt lat="44.51321" lon="6.5846">
        <ele>1539</ele>
        <time>2021-04-07T06:01:35Z</time>
      </trkpt>
      <trkpt lat="44.51322" lon="6.58461">
        <ele>1539</ele>
        <time>2021-04-07T06:01:36Z</time>
      </trkpt>
      <trkpt lat="44.51322" lon="6.58463">
        <ele>1539</ele>
        <time>2021-04-07T06:01:37Z</time>
      </trkpt>
      <trkpt lat="44.51323" lon="6.58464">
        <ele>1539</ele>
        <time>2021-04-07T06:01:38Z</time>
      </trkpt>
      <trkpt lat="44.51323" lon="6.58466">
        <ele>1539</ele>
        <time>2021-04-07T06:01:39Z</time>
      </trkpt>
      <trkpt lat="44.51324" lon="6.58467">
        <ele>1539</ele>
        <time>2021-04-07T06:01:40Z</time>
      </trkpt>
      <trkpt lat="44.51324" lon="6.58468">
        <ele>1539</ele>
        <time>2021-04-07T06:01:41Z</time>
      </trkpt>
      <trkpt lat="44.51324" lon="6.5847">
        <ele>1538</ele>
        <time>2021-04-07T06:01:42Z</time>
      </trkpt>
      <trkpt lat="44.51325" lon="6.58472">
        <ele>1538</ele>
        <time>2021-04-07T06:01:43Z</time>
      </trkpt>
      <trkpt lat="44.51325" lon="6.58473">
        <ele>1538</ele>
        <time>2021-04-07T06:01:44Z</time>
      </trkpt>
      <trkpt lat="44.51326" lon="6.58474">
        <ele>1538</ele>
        <time>2021-04-07T06:01:45Z</time>
      </trkpt>
      <trkpt lat="44.51326" lon="6.58476">
        <ele>1538</ele>
        <time>2021-04-07T06:01:46Z</time>
      </trkpt>
      <trkpt lat="44.51326" lon="6.58477">
        <ele>1538</ele>
        <time>2021-04-07T06:01:47Z</time>
      </trkpt>
      <trkpt lat="44.51326" lon="6.58479">
        <ele>1538</ele>
        <time>2021-04-07T06:01:48Z</time>
      </trkpt>
      <trkpt lat="44.51326" lon="6.5848">
        <ele>1538</ele>
        <time>2021-04-07T06:01:49Z</time>
      </trkpt>
      <trkpt lat="44.51325" lon="6.58482">
        <ele>1538</ele>
        <time>2021-04-07T06:01:50Z</time>
      </trkpt>
      <trkpt lat="44.51325" lon="6.58484">
        <ele>1538</ele>
        <time>2021-04-07T06:01:51Z</time>
      </trkpt>
      <trkpt lat="44.51325" lon="6.58485">
        <ele>1538</ele>
        <time>2021-04-07T06:01:52Z</time>
      </trkpt>
      <trkpt lat="44.51325" lon="6.58487">
        <ele>1538</ele>
        <time>2021-04-07T06:01:53Z</time>
      </trkpt>
      <trkpt lat="44.51325" lon="6.58488">
        <ele>1538</ele>
        <time>2021-04-07T06:01:54Z</time>
      </trkpt>
      <trkpt lat="44.51326" lon="6.5849">
        <ele>1538</ele>
        <time>2021-04-07T06:01:55Z</time>
      </trkpt>
      <trkpt lat="44.51327" lon="6.58491">
        <ele>1539</ele>
        <time>2021-04-07T06:01:56Z</time>
      </trkpt>
      <trkpt lat="44.51327" lon="6.58492">
        <ele>1539</ele>
        <time>2021-04-07T06:01:57Z</time>
      </trkpt>
      <trkpt lat="44.51328" lon="6.58493">
        <ele>1539</ele>
        <time>2021-04-07T06:01:58Z</time>
      </trkpt>
      <trkpt lat="44.51328" lon="6.58494">
        <ele>1539</ele>
        <time>2021-04-07T06:01:59Z</time>
      </trkpt>
      <trkpt lat="44.51329" lon="6.58495">
        <ele>1539</ele>
        <time>2021-04-07T06:02:00Z</time>
      </trkpt>
      <trkpt lat="44.51329" lon="6.58496">
        <ele>1539</ele>
        <time>2021-04-07T06:02:01Z</time>
      </trkpt>
      <trkpt lat="44.5133" lon="6.58497">
        <ele>1539</ele>
        <time>2021-04-07T06:02:02Z</time>
      </trkpt>
      <trkpt lat="44.5133" lon="6.58499">
        <ele>1539</ele>
        <time>2021-04-07T06:02:03Z</time>
      </trkpt>
      <trkpt lat="44.5133" lon="6.585">
        <ele>1540</ele>
        <time>2021-04-07T06:02:04Z</time>
      </trkpt>
      <trkpt lat="44.5133" lon="6.58501">
        <ele>1540</ele>
        <time>2021-04-07T06:02:05Z</time>
      </trkpt>
      <trkpt lat="44.5133" lon="6.58503">
        <ele>1540</ele>
        <time>2021-04-07T06:02:06Z</time>
      </trkpt>
      <trkpt lat="44.5133" lon="6.58503">
        <ele>1540</ele>
        <time>2021-04-07T06:02:07Z</time>
      </trkpt>
      <trkpt lat="44.5133" lon="6.58505">
        <ele>1540</ele>
        <time>2021-04-07T06:02:08Z</time>
      </trkpt>
      <trkpt lat="44.51331" lon="6.58506">
        <ele>1540</ele>
        <time>2021-04-07T06:02:09Z</time>
      </trkpt>
      <trkpt lat="44.5133" lon="6.58509">
        <ele>1540</ele>
        <time>2021-04-07T06:02:10Z</time>
      </trkpt>
      <trkpt lat="44.5133" lon="6.5851">
        <ele>1540</ele>
        <time>2021-04-07T06:02:11Z</time>
      </trkpt>
      <trkpt lat="44.5133" lon="6.58512">
        <ele>1539</ele>
        <time>2021-04-07T06:02:12Z</time>
      </trkpt>
      <trkpt lat="44.51329" lon="6.58514">
        <ele>1539</ele>
        <time>2021-04-07T06:02:13Z</time>
      </trkpt>
      <trkpt lat="44.51329" lon="6.58515">
        <ele>1539</ele>
        <time>2021-04-07T06:02:14Z</time>
      </trkpt>
      <trkpt lat="44.5133" lon="6.58516">
        <ele>1539</ele>
        <time>2021-04-07T06:02:15Z</time>
      </trkpt>
      <trkpt lat="44.5133" lon="6.58518">
        <ele>1538</ele>
        <time>2021-04-07T06:02:16Z</time>
      </trkpt>
      <trkpt lat="44.5133" lon="6.5852">
        <ele>1538</ele>
        <time>2021-04-07T06:02:17Z</time>
      </trkpt>
      <trkpt lat="44.5133" lon="6.58522">
        <ele>1538</ele>
        <time>2021-04-07T06:02:18Z</time>
      </trkpt>
      <trkpt lat="44.5133" lon="6.58523">
        <ele>1537</ele>
        <time>2021-04-07T06:02:19Z</time>
      </trkpt>
      <trkpt lat="44.5133" lon="6.58524">
        <ele>1537</ele>
        <time>2021-04-07T06:02:20Z</time>
      </trkpt>
      <trkpt lat="44.5133" lon="6.58526">
        <ele>1537</ele>
        <time>2021-04-07T06:02:21Z</time>
      </trkpt>
      <trkpt lat="44.51331" lon="6.58528">
        <ele>1536</ele>
        <time>2021-04-07T06:02:22Z</time>
      </trkpt>
      <trkpt lat="44.51331" lon="6.58529">
        <ele>1536</ele>
        <time>2021-04-07T06:02:23Z</time>
      </trkpt>
      <trkpt lat="44.51332" lon="6.5853">
        <ele>1536</ele>
        <time>2021-04-07T06:02:24Z</time>
      </trkpt>
      <trkpt lat="44.51332" lon="6.58532">
        <ele>1536</ele>
        <time>2021-04-07T06:02:25Z</time>
      </trkpt>
      <trkpt lat="44.51333" lon="6.58533">
        <ele>1535</ele>
        <time>2021-04-07T06:02:26Z</time>
      </trkpt>
      <trkpt lat="44.51333" lon="6.58535">
        <ele>1535</ele>
        <time>2021-04-07T06:02:27Z</time>
      </trkpt>
      <trkpt lat="44.51333" lon="6.58536">
        <ele>1535</ele>
        <time>2021-04-07T06:02:28Z</time>
      </trkpt>
      <trkpt lat="44.51334" lon="6.58537">
        <ele>1534</ele>
        <time>2021-04-07T06:02:29Z</time>
      </trkpt>
      <trkpt lat="44.51334" lon="6.58539">
        <ele>1534</ele>
        <time>2021-04-07T06:02:30Z</time>
      </trkpt>
      <trkpt lat="44.51335" lon="6.5854">
        <ele>1534</ele>
        <time>2021-04-07T06:02:31Z</time>
      </trkpt>
      <trkpt lat="44.51335" lon="6.58542">
        <ele>1534</ele>
        <time>2021-04-07T06:02:32Z</time>
      </trkpt>
      <trkpt lat="44.51336" lon="6.58544">
        <ele>1534</ele>
        <time>2021-04-07T06:02:33Z</time>
      </trkpt>
      <trkpt lat="44.51336" lon="6.58545">
        <ele>1534</ele>
        <time>2021-04-07T06:02:34Z</time>
      </trkpt>
      <trkpt lat="44.51336" lon="6.58547">
        <ele>1534</ele>
        <time>2021-04-07T06:02:35Z</time>
      </trkpt>
      <trkpt lat="44.51336" lon="6.58548">
        <ele>1534</ele>
        <time>2021-04-07T06:02:36Z</time>
      </trkpt>
      <trkpt lat="44.51336" lon="6.58549">
        <ele>1534</ele>
        <time>2021-04-07T06:02:37Z</time>
      </trkpt>
      <trkpt lat="44.51337" lon="6.5855">
        <ele>1534</ele>
        <time>2021-04-07T06:02:38Z</time>
      </trkpt>
      <trkpt lat="44.51337" lon="6.58551">
        <ele>1534</ele>
        <time>2021-04-07T06:02:39Z</time>
      </trkpt>
      <trkpt lat="44.51337" lon="6.58552">
        <ele>1533</ele>
        <time>2021-04-07T06:02:40Z</time>
      </trkpt>
      <trkpt lat="44.51337" lon="6.58553">
        <ele>1533</ele>
        <time>2021-04-07T06:02:41Z</time>
      </trkpt>
      <trkpt lat="44.51337" lon="6.58555">
        <ele>1533</ele>
        <time>2021-04-07T06:02:42Z</time>
      </trkpt>
      <trkpt lat="44.51337" lon="6.58556">
        <ele>1533</ele>
        <time>2021-04-07T06:02:43Z</time>
      </trkpt>
      <trkpt lat="44.51337" lon="6.58557">
        <ele>1533</ele>
        <time>2021-04-07T06:02:44Z</time>
      </trkpt>
      <trkpt lat="44.51337" lon="6.58558">
        <ele>1533</ele>
        <time>2021-04-07T06:02:45Z</time>
      </trkpt>
      <trkpt lat="44.51337" lon="6.58559">
        <ele>1533</ele>
        <time>2021-04-07T06:02:46Z</time>
      </trkpt>
      <trkpt lat="44.51337" lon="6.5856">
        <ele>1533</ele>
        <time>2021-04-07T06:02:47Z</time>
      </trkpt>
      <trkpt lat="44.51338" lon="6.58562">
        <ele>1533</ele>
        <time>2021-04-07T06:02:48Z</time>
      </trkpt>
      <trkpt lat="44.51339" lon="6.58563">
        <ele>1533</ele>
        <time>2021-04-07T06:02:49Z</time>
      </trkpt>
      <trkpt lat="44.5134" lon="6.58564">
        <ele>1533</ele>
        <time>2021-04-07T06:02:50Z</time>
      </trkpt>
      <trkpt lat="44.5134" lon="6.58565">
        <ele>1533</ele>
        <time>2021-04-07T06:02:51Z</time>
      </trkpt>
      <trkpt lat="44.5134" lon="6.58566">
        <ele>1533</ele>
        <time>2021-04-07T06:02:52Z</time>
      </trkpt>
      <trkpt lat="44.5134" lon="6.58567">
        <ele>1533</ele>
        <time>2021-04-07T06:02:53Z</time>
      </trkpt>
      <trkpt lat="44.5134" lon="6.58568">
        <ele>1533</ele>
        <time>2021-04-07T06:02:54Z</time>
      </trkpt>
      <trkpt lat="44.5134" lon="6.58569">
        <ele>1534</ele>
        <time>2021-04-07T06:02:55Z</time>
      </trkpt>
      <trkpt lat="44.5134" lon="6.58569">
        <ele>1535</ele>
        <time>2021-04-07T06:02:56Z</time>
      </trkpt>
      <trkpt lat="44.5134" lon="6.5857">
        <ele>1535</ele>
        <time>2021-04-07T06:02:57Z</time>
      </trkpt>
      <trkpt lat="44.5134" lon="6.58571">
        <ele>1535</ele>
        <time>2021-04-07T06:02:58Z</time>
      </trkpt>
      <trkpt lat="44.5134" lon="6.58573">
        <ele>1535</ele>
        <time>2021-04-07T06:02:59Z</time>
      </trkpt>
      <trkpt lat="44.5134" lon="6.58574">
        <ele>1536</ele>
        <time>2021-04-07T06:03:00Z</time>
      </trkpt>
      <trkpt lat="44.51341" lon="6.58574">
        <ele>1536</ele>
        <time>2021-04-07T06:03:01Z</time>
      </trkpt>
      <trkpt lat="44.51341" lon="6.58575">
        <ele>1536</ele>
        <time>2021-04-07T06:03:02Z</time>
      </trkpt>
      <trkpt lat="44.51341" lon="6.58576">
        <ele>1536</ele>
        <time>2021-04-07T06:03:03Z</time>
      </trkpt>
      <trkpt lat="44.51341" lon="6.58576">
        <ele>1537</ele>
        <time>2021-04-07T06:03:04Z</time>
      </trkpt>
      <trkpt lat="44.5134" lon="6.58577">
        <ele>1537</ele>
        <time>2021-04-07T06:03:05Z</time>
      </trkpt>
      <trkpt lat="44.5134" lon="6.58578">
        <ele>1537</ele>
        <time>2021-04-07T06:03:06Z</time>
      </trkpt>
      <trkpt lat="44.5134" lon="6.58579">
        <ele>1537</ele>
        <time>2021-04-07T06:03:07Z</time>
      </trkpt>
      <trkpt lat="44.5134" lon="6.58581">
        <ele>1537</ele>
        <time>2021-04-07T06:03:08Z</time>
      </trkpt>
      <trkpt lat="44.5134" lon="6.58582">
        <ele>1537</ele>
        <time>2021-04-07T06:03:09Z</time>
      </trkpt>
      <trkpt lat="44.5134" lon="6.58583">
        <ele>1538</ele>
        <time>2021-04-07T06:03:10Z</time>
      </trkpt>
      <trkpt lat="44.51341" lon="6.58584">
        <ele>1538</ele>
        <time>2021-04-07T06:03:11Z</time>
      </trkpt>
      <trkpt lat="44.51341" lon="6.58585">
        <ele>1538</ele>
        <time>2021-04-07T06:03:12Z</time>
      </trkpt>
      <trkpt lat="44.51341" lon="6.58585">
        <ele>1538</ele>
        <time>2021-04-07T06:03:13Z</time>
      </trkpt>
      <trkpt lat="44.51341" lon="6.58585">
        <ele>1538</ele>
        <time>2021-04-07T06:03:14Z</time>
      </trkpt>
      <trkpt lat="44.51341" lon="6.58586">
        <ele>1538</ele>
        <time>2021-04-07T06:03:15Z</time>
      </trkpt>
      <trkpt lat="44.51341" lon="6.58587">
        <ele>1538</ele>
        <time>2021-04-07T06:03:16Z</time>
      </trkpt>
      <trkpt lat="44.51341" lon="6.58588">
        <ele>1538</ele>
        <time>2021-04-07T06:03:17Z</time>
      </trkpt>
      <trkpt lat="44.51341" lon="6.58589">
        <ele>1538</ele>
        <time>2021-04-07T06:03:18Z</time>
      </trkpt>
      <trkpt lat="44.51342" lon="6.58589">
        <ele>1538</ele>
        <time>2021-04-07T06:03:19Z</time>
      </trkpt>
      <trkpt lat="44.51342" lon="6.58589">
        <ele>1538</ele>
        <time>2021-04-07T06:03:20Z</time>
      </trkpt>
      <trkpt lat="44.51341" lon="6.58589">
        <ele>1539</ele>
        <time>2021-04-07T06:03:21Z</time>
      </trkpt>
      <trkpt lat="44.51341" lon="6.5859">
        <ele>1539</ele>
        <time>2021-04-07T06:03:22Z</time>
      </trkpt>
      <trkpt lat="44.51342" lon="6.58591">
        <ele>1539</ele>
        <time>2021-04-07T06:03:23Z</time>
      </trkpt>
      <trkpt lat="44.51341" lon="6.58592">
        <ele>1539</ele>
        <time>2021-04-07T06:03:24Z</time>
      </trkpt>
      <trkpt lat="44.51341" lon="6.58594">
        <ele>1539</ele>
        <time>2021-04-07T06:03:25Z</time>
      </trkpt>
      <trkpt lat="44.51341" lon="6.58594">
        <ele>1539</ele>
        <time>2021-04-07T06:03:26Z</time>
      </trkpt>
      <trkpt lat="44.51341" lon="6.58595">
        <ele>1539</ele>
        <time>2021-04-07T06:03:27Z</time>
      </trkpt>
      <trkpt lat="44.51341" lon="6.58597">
        <ele>1540</ele>
        <time>2021-04-07T06:03:28Z</time>
      </trkpt>
      <trkpt lat="44.51341" lon="6.58598">
        <ele>1540</ele>
        <time>2021-04-07T06:03:29Z</time>
      </trkpt>
      <trkpt lat="44.51342" lon="6.58599">
        <ele>1540</ele>
        <time>2021-04-07T06:03:30Z</time>
      </trkpt>
      <trkpt lat="44.51341" lon="6.58602">
        <ele>1540</ele>
        <time>2021-04-07T06:03:31Z</time>
      </trkpt>
      <trkpt lat="44.51341" lon="6.58603">
        <ele>1540</ele>
        <time>2021-04-07T06:03:32Z</time>
      </trkpt>
      <trkpt lat="44.51341" lon="6.58604">
        <ele>1540</ele>
        <time>2021-04-07T06:03:33Z</time>
      </trkpt>
      <trkpt lat="44.51341" lon="6.58606">
        <ele>1540</ele>
        <time>2021-04-07T06:03:34Z</time>
      </trkpt>
      <trkpt lat="44.51342" lon="6.58606">
        <ele>1540</ele>
        <time>2021-04-07T06:03:35Z</time>
      </trkpt>
      <trkpt lat="44.51341" lon="6.58608">
        <ele>1540</ele>
        <time>2021-04-07T06:03:36Z</time>
      </trkpt>
      <trkpt lat="44.51341" lon="6.5861">
        <ele>1540</ele>
        <time>2021-04-07T06:03:37Z</time>
      </trkpt>
      <trkpt lat="44.51341" lon="6.58611">
        <ele>1541</ele>
        <time>2021-04-07T06:03:38Z</time>
      </trkpt>
      <trkpt lat="44.51341" lon="6.58613">
        <ele>1541</ele>
        <time>2021-04-07T06:03:39Z</time>
      </trkpt>
      <trkpt lat="44.51341" lon="6.58613">
        <ele>1541</ele>
        <time>2021-04-07T06:03:40Z</time>
      </trkpt>
      <trkpt lat="44.51341" lon="6.58614">
        <ele>1541</ele>
        <time>2021-04-07T06:03:41Z</time>
      </trkpt>
      <trkpt lat="44.51341" lon="6.58616">
        <ele>1541</ele>
        <time>2021-04-07T06:03:42Z</time>
      </trkpt>
      <trkpt lat="44.51341" lon="6.58617">
        <ele>1541</ele>
        <time>2021-04-07T06:03:43Z</time>
      </trkpt>
      <trkpt lat="44.51341" lon="6.58618">
        <ele>1541</ele>
        <time>2021-04-07T06:03:44Z</time>
      </trkpt>
      <trkpt lat="44.51341" lon="6.58619">
        <ele>1541</ele>
        <time>2021-04-07T06:03:45Z</time>
      </trkpt>
      <trkpt lat="44.51342" lon="6.5862">
        <ele>1541</ele>
        <time>2021-04-07T06:03:46Z</time>
      </trkpt>
      <trkpt lat="44.51342" lon="6.58621">
        <ele>1541</ele>
        <time>2021-04-07T06:03:47Z</time>
      </trkpt>
      <trkpt lat="44.51342" lon="6.58622">
        <ele>1541</ele>
        <time>2021-04-07T06:03:48Z</time>
      </trkpt>
      <trkpt lat="44.51342" lon="6.58622">
        <ele>1541</ele>
        <time>2021-04-07T06:03:49Z</time>
      </trkpt>
      <trkpt lat="44.51342" lon="6.58624">
        <ele>1541</ele>
        <time>2021-04-07T06:03:50Z</time>
      </trkpt>
      <trkpt lat="44.51343" lon="6.58626">
        <ele>1542</ele>
        <time>2021-04-07T06:03:51Z</time>
      </trkpt>
      <trkpt lat="44.51343" lon="6.58628">
        <ele>1542</ele>
        <time>2021-04-07T06:03:52Z</time>
      </trkpt>
      <trkpt lat="44.51342" lon="6.5863">
        <ele>1542</ele>
        <time>2021-04-07T06:03:53Z</time>
      </trkpt>
      <trkpt lat="44.51343" lon="6.58631">
        <ele>1542</ele>
        <time>2021-04-07T06:03:54Z</time>
      </trkpt>
      <trkpt lat="44.51343" lon="6.58632">
        <ele>1542</ele>
        <time>2021-04-07T06:03:55Z</time>
      </trkpt>
      <trkpt lat="44.51343" lon="6.58634">
        <ele>1543</ele>
        <time>2021-04-07T06:03:56Z</time>
      </trkpt>
      <trkpt lat="44.51343" lon="6.58635">
        <ele>1543</ele>
        <time>2021-04-07T06:03:57Z</time>
      </trkpt>
      <trkpt lat="44.51343" lon="6.58637">
        <ele>1543</ele>
        <time>2021-04-07T06:03:58Z</time>
      </trkpt>
      <trkpt lat="44.51343" lon="6.58639">
        <ele>1543</ele>
        <time>2021-04-07T06:03:59Z</time>
      </trkpt>
      <trkpt lat="44.51344" lon="6.58639">
        <ele>1544</ele>
        <time>2021-04-07T06:04:00Z</time>
      </trkpt>
      <trkpt lat="44.51343" lon="6.5864">
        <ele>1544</ele>
        <time>2021-04-07T06:04:01Z</time>
      </trkpt>
      <trkpt lat="44.51344" lon="6.58641">
        <ele>1544</ele>
        <time>2021-04-07T06:04:02Z</time>
      </trkpt>
      <trkpt lat="44.51344" lon="6.58643">
        <ele>1544</ele>
        <time>2021-04-07T06:04:03Z</time>
      </trkpt>
      <trkpt lat="44.51344" lon="6.58644">
        <ele>1544</ele>
        <time>2021-04-07T06:04:04Z</time>
      </trkpt>
      <trkpt lat="44.51344" lon="6.58646">
        <ele>1544</ele>
        <time>2021-04-07T06:04:05Z</time>
      </trkpt>
      <trkpt lat="44.51343" lon="6.58647">
        <ele>1545</ele>
        <time>2021-04-07T06:04:06Z</time>
      </trkpt>
      <trkpt lat="44.51343" lon="6.58648">
        <ele>1545</ele>
        <time>2021-04-07T06:04:07Z</time>
      </trkpt>
      <trkpt lat="44.51343" lon="6.5865">
        <ele>1545</ele>
        <time>2021-04-07T06:04:08Z</time>
      </trkpt>
      <trkpt lat="44.51343" lon="6.58651">
        <ele>1546</ele>
        <time>2021-04-07T06:04:09Z</time>
      </trkpt>
      <trkpt lat="44.51343" lon="6.58652">
        <ele>1546</ele>
        <time>2021-04-07T06:04:10Z</time>
      </trkpt>
      <trkpt lat="44.51343" lon="6.58654">
        <ele>1546</ele>
        <time>2021-04-07T06:04:11Z</time>
      </trkpt>
      <trkpt lat="44.51343" lon="6.58656">
        <ele>1546</ele>
        <time>2021-04-07T06:04:12Z</time>
      </trkpt>
      <trkpt lat="44.51343" lon="6.58657">
        <ele>1547</ele>
        <time>2021-04-07T06:04:13Z</time>
      </trkpt>
      <trkpt lat="44.51343" lon="6.58659">
        <ele>1547</ele>
        <time>2021-04-07T06:04:14Z</time>
      </trkpt>
      <trkpt lat="44.51343" lon="6.5866">
        <ele>1547</ele>
        <time>2021-04-07T06:04:15Z</time>
      </trkpt>
      <trkpt lat="44.51343" lon="6.58661">
        <ele>1547</ele>
        <time>2021-04-07T06:04:16Z</time>
      </trkpt>
      <trkpt lat="44.51343" lon="6.58662">
        <ele>1547</ele>
        <time>2021-04-07T06:04:17Z</time>
      </trkpt>
      <trkpt lat="44.51343" lon="6.58663">
        <ele>1547</ele>
        <time>2021-04-07T06:04:18Z</time>
      </trkpt>
      <trkpt lat="44.51343" lon="6.58664">
        <ele>1548</ele>
        <time>2021-04-07T06:04:19Z</time>
      </trkpt>
      <trkpt lat="44.51343" lon="6.58665">
        <ele>1548</ele>
        <time>2021-04-07T06:04:20Z</time>
      </trkpt>
      <trkpt lat="44.51344" lon="6.58666">
        <ele>1548</ele>
        <time>2021-04-07T06:04:21Z</time>
      </trkpt>
      <trkpt lat="44.51344" lon="6.58668">
        <ele>1548</ele>
        <time>2021-04-07T06:04:22Z</time>
      </trkpt>
      <trkpt lat="44.51344" lon="6.58669">
        <ele>1548</ele>
        <time>2021-04-07T06:04:23Z</time>
      </trkpt>
      <trkpt lat="44.51344" lon="6.58671">
        <ele>1548</ele>
        <time>2021-04-07T06:04:24Z</time>
      </trkpt>
      <trkpt lat="44.51344" lon="6.58672">
        <ele>1548</ele>
        <time>2021-04-07T06:04:25Z</time>
      </trkpt>
      <trkpt lat="44.51344" lon="6.58674">
        <ele>1548</ele>
        <time>2021-04-07T06:04:26Z</time>
      </trkpt>
      <trkpt lat="44.51343" lon="6.58674">
        <ele>1549</ele>
        <time>2021-04-07T06:04:27Z</time>
      </trkpt>
      <trkpt lat="44.51344" lon="6.58675">
        <ele>1549</ele>
        <time>2021-04-07T06:04:28Z</time>
      </trkpt>
      <trkpt lat="44.51344" lon="6.58676">
        <ele>1549</ele>
        <time>2021-04-07T06:04:29Z</time>
      </trkpt>
      <trkpt lat="44.51344" lon="6.58677">
        <ele>1549</ele>
        <time>2021-04-07T06:04:30Z</time>
      </trkpt>
      <trkpt lat="44.51345" lon="6.58678">
        <ele>1549</ele>
        <time>2021-04-07T06:04:31Z</time>
      </trkpt>
      <trkpt lat="44.51345" lon="6.5868">
        <ele>1550</ele>
        <time>2021-04-07T06:04:32Z</time>
      </trkpt>
      <trkpt lat="44.51345" lon="6.58682">
        <ele>1550</ele>
        <time>2021-04-07T06:04:33Z</time>
      </trkpt>
      <trkpt lat="44.51345" lon="6.58683">
        <ele>1550</ele>
        <time>2021-04-07T06:04:34Z</time>
      </trkpt>
      <trkpt lat="44.51345" lon="6.58684">
        <ele>1551</ele>
        <time>2021-04-07T06:04:35Z</time>
      </trkpt>
      <trkpt lat="44.51345" lon="6.58685">
        <ele>1551</ele>
        <time>2021-04-07T06:04:36Z</time>
      </trkpt>
      <trkpt lat="44.51346" lon="6.58686">
        <ele>1552</ele>
        <time>2021-04-07T06:04:37Z</time>
      </trkpt>
      <trkpt lat="44.51346" lon="6.58687">
        <ele>1553</ele>
        <time>2021-04-07T06:04:38Z</time>
      </trkpt>
      <trkpt lat="44.51347" lon="6.58688">
        <ele>1553</ele>
        <time>2021-04-07T06:04:39Z</time>
      </trkpt>
      <trkpt lat="44.51346" lon="6.58689">
        <ele>1553</ele>
        <time>2021-04-07T06:04:40Z</time>
      </trkpt>
      <trkpt lat="44.51346" lon="6.58691">
        <ele>1554</ele>
        <time>2021-04-07T06:04:41Z</time>
      </trkpt>
      <trkpt lat="44.51346" lon="6.58692">
        <ele>1555</ele>
        <time>2021-04-07T06:04:42Z</time>
      </trkpt>
      <trkpt lat="44.51347" lon="6.58693">
        <ele>1555</ele>
        <time>2021-04-07T06:04:43Z</time>
      </trkpt>
      <trkpt lat="44.51347" lon="6.58694">
        <ele>1555</ele>
        <time>2021-04-07T06:04:44Z</time>
      </trkpt>
      <trkpt lat="44.51348" lon="6.58695">
        <ele>1555</ele>
        <time>2021-04-07T06:04:45Z</time>
      </trkpt>
      <trkpt lat="44.51348" lon="6.58696">
        <ele>1556</ele>
        <time>2021-04-07T06:04:46Z</time>
      </trkpt>
      <trkpt lat="44.51349" lon="6.58697">
        <ele>1557</ele>
        <time>2021-04-07T06:04:47Z</time>
      </trkpt>
      <trkpt lat="44.51349" lon="6.58698">
        <ele>1557</ele>
        <time>2021-04-07T06:04:48Z</time>
      </trkpt>
      <trkpt lat="44.51349" lon="6.58699">
        <ele>1557</ele>
        <time>2021-04-07T06:04:49Z</time>
      </trkpt>
      <trkpt lat="44.51349" lon="6.587">
        <ele>1557</ele>
        <time>2021-04-07T06:04:50Z</time>
      </trkpt>
      <trkpt lat="44.51349" lon="6.58701">
        <ele>1557</ele>
        <time>2021-04-07T06:04:51Z</time>
      </trkpt>
      <trkpt lat="44.51349" lon="6.58703">
        <ele>1558</ele>
        <time>2021-04-07T06:04:52Z</time>
      </trkpt>
      <trkpt lat="44.51349" lon="6.58705">
        <ele>1558</ele>
        <time>2021-04-07T06:04:53Z</time>
      </trkpt>
      <trkpt lat="44.51348" lon="6.58706">
        <ele>1558</ele>
        <time>2021-04-07T06:04:54Z</time>
      </trkpt>
      <trkpt lat="44.51348" lon="6.58708">
        <ele>1558</ele>
        <time>2021-04-07T06:04:55Z</time>
      </trkpt>
      <trkpt lat="44.51348" lon="6.58709">
        <ele>1559</ele>
        <time>2021-04-07T06:04:56Z</time>
      </trkpt>
      <trkpt lat="44.51348" lon="6.5871">
        <ele>1559</ele>
        <time>2021-04-07T06:04:57Z</time>
      </trkpt>
      <trkpt lat="44.51349" lon="6.5871">
        <ele>1559</ele>
        <time>2021-04-07T06:04:58Z</time>
      </trkpt>
      <trkpt lat="44.51349" lon="6.58711">
        <ele>1559</ele>
        <time>2021-04-07T06:04:59Z</time>
      </trkpt>
      <trkpt lat="44.5135" lon="6.58712">
        <ele>1559</ele>
        <time>2021-04-07T06:05:00Z</time>
      </trkpt>
      <trkpt lat="44.51349" lon="6.58713">
        <ele>1559</ele>
        <time>2021-04-07T06:05:01Z</time>
      </trkpt>
      <trkpt lat="44.51349" lon="6.58714">
        <ele>1559</ele>
        <time>2021-04-07T06:05:02Z</time>
      </trkpt>
      <trkpt lat="44.51349" lon="6.58715">
        <ele>1559</ele>
        <time>2021-04-07T06:05:03Z</time>
      </trkpt>
      <trkpt lat="44.51349" lon="6.58717">
        <ele>1559</ele>
        <time>2021-04-07T06:05:04Z</time>
      </trkpt>
      <trkpt lat="44.51349" lon="6.58718">
        <ele>1559</ele>
        <time>2021-04-07T06:05:05Z</time>
      </trkpt>
      <trkpt lat="44.51349" lon="6.58719">
        <ele>1559</ele>
        <time>2021-04-07T06:05:06Z</time>
      </trkpt>
      <trkpt lat="44.51348" lon="6.58721">
        <ele>1560</ele>
        <time>2021-04-07T06:05:07Z</time>
      </trkpt>
      <trkpt lat="44.51349" lon="6.58722">
        <ele>1560</ele>
        <time>2021-04-07T06:05:08Z</time>
      </trkpt>
      <trkpt lat="44.5135" lon="6.58722">
        <ele>1560</ele>
        <time>2021-04-07T06:05:09Z</time>
      </trkpt>
      <trkpt lat="44.5135" lon="6.58723">
        <ele>1560</ele>
        <time>2021-04-07T06:05:10Z</time>
      </trkpt>
      <trkpt lat="44.5135" lon="6.58725">
        <ele>1560</ele>
        <time>2021-04-07T06:05:11Z</time>
      </trkpt>
      <trkpt lat="44.51351" lon="6.58726">
        <ele>1561</ele>
        <time>2021-04-07T06:05:12Z</time>
      </trkpt>
      <trkpt lat="44.51351" lon="6.58727">
        <ele>1561</ele>
        <time>2021-04-07T06:05:13Z</time>
      </trkpt>
      <trkpt lat="44.51351" lon="6.58729">
        <ele>1561</ele>
        <time>2021-04-07T06:05:14Z</time>
      </trkpt>
      <trkpt lat="44.51351" lon="6.58731">
        <ele>1561</ele>
        <time>2021-04-07T06:05:15Z</time>
      </trkpt>
      <trkpt lat="44.51352" lon="6.58732">
        <ele>1561</ele>
        <time>2021-04-07T06:05:16Z</time>
      </trkpt>
      <trkpt lat="44.51352" lon="6.58733">
        <ele>1561</ele>
        <time>2021-04-07T06:05:17Z</time>
      </trkpt>
      <trkpt lat="44.51352" lon="6.58733">
        <ele>1561</ele>
        <time>2021-04-07T06:05:18Z</time>
      </trkpt>
      <trkpt lat="44.51352" lon="6.58735">
        <ele>1561</ele>
        <time>2021-04-07T06:05:19Z</time>
      </trkpt>
      <trkpt lat="44.51352" lon="6.58736">
        <ele>1561</ele>
        <time>2021-04-07T06:05:20Z</time>
      </trkpt>
      <trkpt lat="44.51353" lon="6.58737">
        <ele>1561</ele>
        <time>2021-04-07T06:05:21Z</time>
      </trkpt>
      <trkpt lat="44.51353" lon="6.58739">
        <ele>1561</ele>
        <time>2021-04-07T06:05:22Z</time>
      </trkpt>
      <trkpt lat="44.51353" lon="6.5874">
        <ele>1561</ele>
        <time>2021-04-07T06:05:23Z</time>
      </trkpt>
      <trkpt lat="44.51352" lon="6.5874">
        <ele>1561</ele>
        <time>2021-04-07T06:05:24Z</time>
      </trkpt>
      <trkpt lat="44.51353" lon="6.58741">
        <ele>1561</ele>
        <time>2021-04-07T06:05:25Z</time>
      </trkpt>
      <trkpt lat="44.51353" lon="6.58742">
        <ele>1561</ele>
        <time>2021-04-07T06:05:26Z</time>
      </trkpt>
      <trkpt lat="44.51353" lon="6.58743">
        <ele>1561</ele>
        <time>2021-04-07T06:05:27Z</time>
      </trkpt>
      <trkpt lat="44.51353" lon="6.58743">
        <ele>1561</ele>
        <time>2021-04-07T06:05:28Z</time>
      </trkpt>
      <trkpt lat="44.51353" lon="6.58744">
        <ele>1561</ele>
        <time>2021-04-07T06:05:29Z</time>
      </trkpt>
      <trkpt lat="44.51353" lon="6.58745">
        <ele>1561</ele>
        <time>2021-04-07T06:05:30Z</time>
      </trkpt>
      <trkpt lat="44.51353" lon="6.58745">
        <ele>1561</ele>
        <time>2021-04-07T06:05:31Z</time>
      </trkpt>
      <trkpt lat="44.51354" lon="6.58745">
        <ele>1561</ele>
        <time>2021-04-07T06:05:32Z</time>
      </trkpt>
      <trkpt lat="44.51354" lon="6.58745">
        <ele>1561</ele>
        <time>2021-04-07T06:05:33Z</time>
      </trkpt>
      <trkpt lat="44.51354" lon="6.58745">
        <ele>1561</ele>
        <time>2021-04-07T06:05:34Z</time>
      </trkpt>
      <trkpt lat="44.51354" lon="6.58745">
        <ele>1561</ele>
        <time>2021-04-07T06:05:35Z</time>
      </trkpt>
      <trkpt lat="44.51354" lon="6.58745">
        <ele>1561</ele>
        <time>2021-04-07T06:05:36Z</time>
      </trkpt>
      <trkpt lat="44.51354" lon="6.58745">
        <ele>1561</ele>
        <time>2021-04-07T06:05:37Z</time>
      </trkpt>
      <trkpt lat="44.51354" lon="6.58745">
        <ele>1561</ele>
        <time>2021-04-07T06:05:38Z</time>
      </trkpt>
      <trkpt lat="44.51354" lon="6.58745">
        <ele>1561</ele>
        <time>2021-04-07T06:05:39Z</time>
      </trkpt>
      <trkpt lat="44.51354" lon="6.58745">
        <ele>1561</ele>
        <time>2021-04-07T06:05:40Z</time>
      </trkpt>
      <trkpt lat="44.51354" lon="6.58745">
        <ele>1561</ele>
        <time>2021-04-07T06:05:41Z</time>
      </trkpt>
      <trkpt lat="44.51354" lon="6.58747">
        <ele>1561</ele>
        <time>2021-04-07T06:05:42Z</time>
      </trkpt>
      <trkpt lat="44.51354" lon="6.58748">
        <ele>1562</ele>
        <time>2021-04-07T06:05:43Z</time>
      </trkpt>
      <trkpt lat="44.51353" lon="6.58749">
        <ele>1562</ele>
        <time>2021-04-07T06:05:44Z</time>
      </trkpt>
      <trkpt lat="44.51353" lon="6.5875">
        <ele>1562</ele>
        <time>2021-04-07T06:05:45Z</time>
      </trkpt>
      <trkpt lat="44.51353" lon="6.58752">
        <ele>1562</ele>
        <time>2021-04-07T06:05:46Z</time>
      </trkpt>
      <trkpt lat="44.51353" lon="6.58753">
        <ele>1562</ele>
        <time>2021-04-07T06:05:47Z</time>
      </trkpt>
      <trkpt lat="44.51353" lon="6.58755">
        <ele>1562</ele>
        <time>2021-04-07T06:05:48Z</time>
      </trkpt>
      <trkpt lat="44.51353" lon="6.58756">
        <ele>1562</ele>
        <time>2021-04-07T06:05:49Z</time>
      </trkpt>
      <trkpt lat="44.51353" lon="6.58758">
        <ele>1562</ele>
        <time>2021-04-07T06:05:50Z</time>
      </trkpt>
      <trkpt lat="44.51353" lon="6.58759">
        <ele>1563</ele>
        <time>2021-04-07T06:05:51Z</time>
      </trkpt>
      <trkpt lat="44.51353" lon="6.58761">
        <ele>1563</ele>
        <time>2021-04-07T06:05:52Z</time>
      </trkpt>
      <trkpt lat="44.51352" lon="6.58762">
        <ele>1563</ele>
        <time>2021-04-07T06:05:53Z</time>
      </trkpt>
      <trkpt lat="44.51352" lon="6.58763">
        <ele>1563</ele>
        <time>2021-04-07T06:05:54Z</time>
      </trkpt>
      <trkpt lat="44.51352" lon="6.58764">
        <ele>1563</ele>
        <time>2021-04-07T06:05:55Z</time>
      </trkpt>
      <trkpt lat="44.51352" lon="6.58765">
        <ele>1564</ele>
        <time>2021-04-07T06:05:56Z</time>
      </trkpt>
      <trkpt lat="44.51352" lon="6.58766">
        <ele>1564</ele>
        <time>2021-04-07T06:05:57Z</time>
      </trkpt>
      <trkpt lat="44.51352" lon="6.58767">
        <ele>1564</ele>
        <time>2021-04-07T06:05:58Z</time>
      </trkpt>
      <trkpt lat="44.51352" lon="6.58768">
        <ele>1564</ele>
        <time>2021-04-07T06:05:59Z</time>
      </trkpt>
      <trkpt lat="44.51352" lon="6.58769">
        <ele>1565</ele>
        <time>2021-04-07T06:06:00Z</time>
      </trkpt>
      <trkpt lat="44.51352" lon="6.5877">
        <ele>1565</ele>
        <time>2021-04-07T06:06:01Z</time>
      </trkpt>
      <trkpt lat="44.51352" lon="6.58771">
        <ele>1565</ele>
        <time>2021-04-07T06:06:02Z</time>
      </trkpt>
      <trkpt lat="44.51353" lon="6.58773">
        <ele>1565</ele>
        <time>2021-04-07T06:06:03Z</time>
      </trkpt>
      <trkpt lat="44.51353" lon="6.58774">
        <ele>1566</ele>
        <time>2021-04-07T06:06:04Z</time>
      </trkpt>
      <trkpt lat="44.51354" lon="6.58775">
        <ele>1566</ele>
        <time>2021-04-07T06:06:05Z</time>
      </trkpt>
      <trkpt lat="44.51355" lon="6.58776">
        <ele>1566</ele>
        <time>2021-04-07T06:06:06Z</time>
      </trkpt>
      <trkpt lat="44.51355" lon="6.58777">
        <ele>1567</ele>
        <time>2021-04-07T06:06:07Z</time>
      </trkpt>
      <trkpt lat="44.51356" lon="6.58779">
        <ele>1567</ele>
        <time>2021-04-07T06:06:08Z</time>
      </trkpt>
      <trkpt lat="44.51356" lon="6.5878">
        <ele>1568</ele>
        <time>2021-04-07T06:06:09Z</time>
      </trkpt>
      <trkpt lat="44.51357" lon="6.58781">
        <ele>1568</ele>
        <time>2021-04-07T06:06:10Z</time>
      </trkpt>
      <trkpt lat="44.51357" lon="6.58782">
        <ele>1568</ele>
        <time>2021-04-07T06:06:11Z</time>
      </trkpt>
      <trkpt lat="44.51357" lon="6.58783">
        <ele>1569</ele>
        <time>2021-04-07T06:06:12Z</time>
      </trkpt>
      <trkpt lat="44.51357" lon="6.58783">
        <ele>1569</ele>
        <time>2021-04-07T06:06:13Z</time>
      </trkpt>
      <trkpt lat="44.51357" lon="6.58784">
        <ele>1569</ele>
        <time>2021-04-07T06:06:14Z</time>
      </trkpt>
      <trkpt lat="44.51357" lon="6.58785">
        <ele>1569</ele>
        <time>2021-04-07T06:06:15Z</time>
      </trkpt>
      <trkpt lat="44.51357" lon="6.58786">
        <ele>1570</ele>
        <time>2021-04-07T06:06:16Z</time>
      </trkpt>
      <trkpt lat="44.51358" lon="6.58786">
        <ele>1571</ele>
        <time>2021-04-07T06:06:17Z</time>
      </trkpt>
      <trkpt lat="44.51358" lon="6.58787">
        <ele>1571</ele>
        <time>2021-04-07T06:06:18Z</time>
      </trkpt>
      <trkpt lat="44.51358" lon="6.58787">
        <ele>1571</ele>
        <time>2021-04-07T06:06:19Z</time>
      </trkpt>
      <trkpt lat="44.51359" lon="6.58788">
        <ele>1572</ele>
        <time>2021-04-07T06:06:20Z</time>
      </trkpt>
      <trkpt lat="44.5136" lon="6.5879">
        <ele>1573</ele>
        <time>2021-04-07T06:06:21Z</time>
      </trkpt>
      <trkpt lat="44.5136" lon="6.58792">
        <ele>1573</ele>
        <time>2021-04-07T06:06:22Z</time>
      </trkpt>
      <trkpt lat="44.51361" lon="6.58793">
        <ele>1574</ele>
        <time>2021-04-07T06:06:23Z</time>
      </trkpt>
      <trkpt lat="44.51361" lon="6.58794">
        <ele>1574</ele>
        <time>2021-04-07T06:06:24Z</time>
      </trkpt>
      <trkpt lat="44.51361" lon="6.58794">
        <ele>1574</ele>
        <time>2021-04-07T06:06:25Z</time>
      </trkpt>
      <trkpt lat="44.51361" lon="6.58796">
        <ele>1575</ele>
        <time>2021-04-07T06:06:26Z</time>
      </trkpt>
      <trkpt lat="44.51361" lon="6.58797">
        <ele>1575</ele>
        <time>2021-04-07T06:06:27Z</time>
      </trkpt>
      <trkpt lat="44.51361" lon="6.58798">
        <ele>1576</ele>
        <time>2021-04-07T06:06:28Z</time>
      </trkpt>
      <trkpt lat="44.51362" lon="6.58799">
        <ele>1576</ele>
        <time>2021-04-07T06:06:29Z</time>
      </trkpt>
      <trkpt lat="44.51362" lon="6.588">
        <ele>1576</ele>
        <time>2021-04-07T06:06:30Z</time>
      </trkpt>
      <trkpt lat="44.51361" lon="6.58802">
        <ele>1576</ele>
        <time>2021-04-07T06:06:31Z</time>
      </trkpt>
      <trkpt lat="44.51361" lon="6.58803">
        <ele>1577</ele>
        <time>2021-04-07T06:06:32Z</time>
      </trkpt>
      <trkpt lat="44.51362" lon="6.58804">
        <ele>1577</ele>
        <time>2021-04-07T06:06:33Z</time>
      </trkpt>
      <trkpt lat="44.51362" lon="6.58805">
        <ele>1577</ele>
        <time>2021-04-07T06:06:34Z</time>
      </trkpt>
      <trkpt lat="44.51362" lon="6.58807">
        <ele>1577</ele>
        <time>2021-04-07T06:06:35Z</time>
      </trkpt>
      <trkpt lat="44.51362" lon="6.58808">
        <ele>1577</ele>
        <time>2021-04-07T06:06:36Z</time>
      </trkpt>
      <trkpt lat="44.51363" lon="6.5881">
        <ele>1577</ele>
        <time>2021-04-07T06:06:37Z</time>
      </trkpt>
      <trkpt lat="44.51362" lon="6.58811">
        <ele>1577</ele>
        <time>2021-04-07T06:06:38Z</time>
      </trkpt>
      <trkpt lat="44.51362" lon="6.58813">
        <ele>1577</ele>
        <time>2021-04-07T06:06:39Z</time>
      </trkpt>
      <trkpt lat="44.51362" lon="6.58814">
        <ele>1577</ele>
        <time>2021-04-07T06:06:40Z</time>
      </trkpt>
      <trkpt lat="44.51362" lon="6.58815">
        <ele>1577</ele>
        <time>2021-04-07T06:06:41Z</time>
      </trkpt>
      <trkpt lat="44.51363" lon="6.58816">
        <ele>1577</ele>
        <time>2021-04-07T06:06:42Z</time>
      </trkpt>
      <trkpt lat="44.51363" lon="6.58817">
        <ele>1577</ele>
        <time>2021-04-07T06:06:43Z</time>
      </trkpt>
      <trkpt lat="44.51363" lon="6.58819">
        <ele>1577</ele>
        <time>2021-04-07T06:06:44Z</time>
      </trkpt>
      <trkpt lat="44.51363" lon="6.5882">
        <ele>1577</ele>
        <time>2021-04-07T06:06:45Z</time>
      </trkpt>
      <trkpt lat="44.51363" lon="6.58821">
        <ele>1576</ele>
        <time>2021-04-07T06:06:46Z</time>
      </trkpt>
      <trkpt lat="44.51363" lon="6.58823">
        <ele>1576</ele>
        <time>2021-04-07T06:06:47Z</time>
      </trkpt>
      <trkpt lat="44.51363" lon="6.58825">
        <ele>1576</ele>
        <time>2021-04-07T06:06:48Z</time>
      </trkpt>
      <trkpt lat="44.51362" lon="6.58827">
        <ele>1576</ele>
        <time>2021-04-07T06:06:49Z</time>
      </trkpt>
      <trkpt lat="44.51362" lon="6.58828">
        <ele>1575</ele>
        <time>2021-04-07T06:06:50Z</time>
      </trkpt>
      <trkpt lat="44.51361" lon="6.5883">
        <ele>1575</ele>
        <time>2021-04-07T06:06:51Z</time>
      </trkpt>
      <trkpt lat="44.51361" lon="6.5883">
        <ele>1575</ele>
        <time>2021-04-07T06:06:52Z</time>
      </trkpt>
      <trkpt lat="44.51361" lon="6.58832">
        <ele>1575</ele>
        <time>2021-04-07T06:06:53Z</time>
      </trkpt>
      <trkpt lat="44.51361" lon="6.58834">
        <ele>1575</ele>
        <time>2021-04-07T06:06:54Z</time>
      </trkpt>
      <trkpt lat="44.51361" lon="6.58835">
        <ele>1575</ele>
        <time>2021-04-07T06:06:55Z</time>
      </trkpt>
      <trkpt lat="44.5136" lon="6.58836">
        <ele>1575</ele>
        <time>2021-04-07T06:06:56Z</time>
      </trkpt>
      <trkpt lat="44.5136" lon="6.58837">
        <ele>1575</ele>
        <time>2021-04-07T06:06:57Z</time>
      </trkpt>
      <trkpt lat="44.5136" lon="6.58838">
        <ele>1575</ele>
        <time>2021-04-07T06:06:58Z</time>
      </trkpt>
      <trkpt lat="44.5136" lon="6.58839">
        <ele>1575</ele>
        <time>2021-04-07T06:06:59Z</time>
      </trkpt>
      <trkpt lat="44.5136" lon="6.58839">
        <ele>1576</ele>
        <time>2021-04-07T06:07:00Z</time>
      </trkpt>
      <trkpt lat="44.5136" lon="6.5884">
        <ele>1576</ele>
        <time>2021-04-07T06:07:01Z</time>
      </trkpt>
      <trkpt lat="44.5136" lon="6.58841">
        <ele>1576</ele>
        <time>2021-04-07T06:07:02Z</time>
      </trkpt>
      <trkpt lat="44.51361" lon="6.58841">
        <ele>1576</ele>
        <time>2021-04-07T06:07:03Z</time>
      </trkpt>
      <trkpt lat="44.51361" lon="6.58842">
        <ele>1576</ele>
        <time>2021-04-07T06:07:04Z</time>
      </trkpt>
      <trkpt lat="44.51361" lon="6.58841">
        <ele>1576</ele>
        <time>2021-04-07T06:07:05Z</time>
      </trkpt>
      <trkpt lat="44.51362" lon="6.58841">
        <ele>1576</ele>
        <time>2021-04-07T06:07:06Z</time>
      </trkpt>
      <trkpt lat="44.51362" lon="6.58841">
        <ele>1576</ele>
        <time>2021-04-07T06:07:07Z</time>
      </trkpt>
      <trkpt lat="44.51362" lon="6.58842">
        <ele>1576</ele>
        <time>2021-04-07T06:07:08Z</time>
      </trkpt>
      <trkpt lat="44.51362" lon="6.58842">
        <ele>1576</ele>
        <time>2021-04-07T06:07:09Z</time>
      </trkpt>
      <trkpt lat="44.51361" lon="6.58843">
        <ele>1576</ele>
        <time>2021-04-07T06:07:10Z</time>
      </trkpt>
      <trkpt lat="44.5136" lon="6.58843">
        <ele>1576</ele>
        <time>2021-04-07T06:07:11Z</time>
      </trkpt>
      <trkpt lat="44.51359" lon="6.58844">
        <ele>1576</ele>
        <time>2021-04-07T06:07:12Z</time>
      </trkpt>
      <trkpt lat="44.51359" lon="6.58845">
        <ele>1576</ele>
        <time>2021-04-07T06:07:13Z</time>
      </trkpt>
      <trkpt lat="44.51359" lon="6.58847">
        <ele>1576</ele>
        <time>2021-04-07T06:07:14Z</time>
      </trkpt>
      <trkpt lat="44.51359" lon="6.58848">
        <ele>1576</ele>
        <time>2021-04-07T06:07:15Z</time>
      </trkpt>
      <trkpt lat="44.5136" lon="6.58849">
        <ele>1576</ele>
        <time>2021-04-07T06:07:16Z</time>
      </trkpt>
      <trkpt lat="44.51361" lon="6.5885">
        <ele>1576</ele>
        <time>2021-04-07T06:07:17Z</time>
      </trkpt>
      <trkpt lat="44.51361" lon="6.58851">
        <ele>1576</ele>
        <time>2021-04-07T06:07:18Z</time>
      </trkpt>
      <trkpt lat="44.51361" lon="6.58854">
        <ele>1576</ele>
        <time>2021-04-07T06:07:19Z</time>
      </trkpt>
      <trkpt lat="44.51361" lon="6.58855">
        <ele>1576</ele>
        <time>2021-04-07T06:07:20Z</time>
      </trkpt>
      <trkpt lat="44.51361" lon="6.58856">
        <ele>1576</ele>
        <time>2021-04-07T06:07:21Z</time>
      </trkpt>
      <trkpt lat="44.51361" lon="6.58858">
        <ele>1576</ele>
        <time>2021-04-07T06:07:22Z</time>
      </trkpt>
      <trkpt lat="44.51362" lon="6.58858">
        <ele>1576</ele>
        <time>2021-04-07T06:07:23Z</time>
      </trkpt>
      <trkpt lat="44.51362" lon="6.58859">
        <ele>1576</ele>
        <time>2021-04-07T06:07:24Z</time>
      </trkpt>
      <trkpt lat="44.51362" lon="6.58861">
        <ele>1576</ele>
        <time>2021-04-07T06:07:25Z</time>
      </trkpt>
      <trkpt lat="44.51361" lon="6.58862">
        <ele>1575</ele>
        <time>2021-04-07T06:07:26Z</time>
      </trkpt>
      <trkpt lat="44.51361" lon="6.58863">
        <ele>1575</ele>
        <time>2021-04-07T06:07:27Z</time>
      </trkpt>
      <trkpt lat="44.51361" lon="6.58864">
        <ele>1575</ele>
        <time>2021-04-07T06:07:28Z</time>
      </trkpt>
      <trkpt lat="44.51361" lon="6.58864">
        <ele>1575</ele>
        <time>2021-04-07T06:07:29Z</time>
      </trkpt>
      <trkpt lat="44.51361" lon="6.58865">
        <ele>1575</ele>
        <time>2021-04-07T06:07:30Z</time>
      </trkpt>
      <trkpt lat="44.5136" lon="6.58867">
        <ele>1575</ele>
        <time>2021-04-07T06:07:31Z</time>
      </trkpt>
      <trkpt lat="44.51359" lon="6.58868">
        <ele>1574</ele>
        <time>2021-04-07T06:07:32Z</time>
      </trkpt>
      <trkpt lat="44.51359" lon="6.58869">
        <ele>1574</ele>
        <time>2021-04-07T06:07:33Z</time>
      </trkpt>
      <trkpt lat="44.51358" lon="6.58869">
        <ele>1574</ele>
        <time>2021-04-07T06:07:34Z</time>
      </trkpt>
      <trkpt lat="44.51358" lon="6.5887">
        <ele>1574</ele>
        <time>2021-04-07T06:07:35Z</time>
      </trkpt>
      <trkpt lat="44.51357" lon="6.5887">
        <ele>1573</ele>
        <time>2021-04-07T06:07:36Z</time>
      </trkpt>
      <trkpt lat="44.51357" lon="6.58871">
        <ele>1573</ele>
        <time>2021-04-07T06:07:37Z</time>
      </trkpt>
      <trkpt lat="44.51356" lon="6.58871">
        <ele>1573</ele>
        <time>2021-04-07T06:07:38Z</time>
      </trkpt>
      <trkpt lat="44.51356" lon="6.58871">
        <ele>1573</ele>
        <time>2021-04-07T06:07:39Z</time>
      </trkpt>
      <trkpt lat="44.51357" lon="6.58871">
        <ele>1573</ele>
        <time>2021-04-07T06:07:40Z</time>
      </trkpt>
      <trkpt lat="44.51359" lon="6.5887">
        <ele>1573</ele>
        <time>2021-04-07T06:07:41Z</time>
      </trkpt>
      <trkpt lat="44.5136" lon="6.5887">
        <ele>1573</ele>
        <time>2021-04-07T06:07:42Z</time>
      </trkpt>
      <trkpt lat="44.51361" lon="6.58871">
        <ele>1573</ele>
        <time>2021-04-07T06:07:43Z</time>
      </trkpt>
      <trkpt lat="44.51361" lon="6.58872">
        <ele>1573</ele>
        <time>2021-04-07T06:07:44Z</time>
      </trkpt>
      <trkpt lat="44.51361" lon="6.58872">
        <ele>1573</ele>
        <time>2021-04-07T06:07:45Z</time>
      </trkpt>
      <trkpt lat="44.51361" lon="6.58873">
        <ele>1573</ele>
        <time>2021-04-07T06:07:46Z</time>
      </trkpt>
      <trkpt lat="44.51362" lon="6.58874">
        <ele>1573</ele>
        <time>2021-04-07T06:07:47Z</time>
      </trkpt>
      <trkpt lat="44.51362" lon="6.58876">
        <ele>1573</ele>
        <time>2021-04-07T06:07:48Z</time>
      </trkpt>
      <trkpt lat="44.51362" lon="6.58877">
        <ele>1574</ele>
        <time>2021-04-07T06:07:49Z</time>
      </trkpt>
      <trkpt lat="44.51363" lon="6.58878">
        <ele>1574</ele>
        <time>2021-04-07T06:07:50Z</time>
      </trkpt>
      <trkpt lat="44.51363" lon="6.58879">
        <ele>1574</ele>
        <time>2021-04-07T06:07:51Z</time>
      </trkpt>
      <trkpt lat="44.51364" lon="6.5888">
        <ele>1574</ele>
        <time>2021-04-07T06:07:52Z</time>
      </trkpt>
      <trkpt lat="44.51364" lon="6.58881">
        <ele>1575</ele>
        <time>2021-04-07T06:07:53Z</time>
      </trkpt>
      <trkpt lat="44.51365" lon="6.58881">
        <ele>1575</ele>
        <time>2021-04-07T06:07:54Z</time>
      </trkpt>
      <trkpt lat="44.51365" lon="6.58883">
        <ele>1575</ele>
        <time>2021-04-07T06:07:55Z</time>
      </trkpt>
      <trkpt lat="44.51365" lon="6.58885">
        <ele>1575</ele>
        <time>2021-04-07T06:07:56Z</time>
      </trkpt>
      <trkpt lat="44.51365" lon="6.58886">
        <ele>1576</ele>
        <time>2021-04-07T06:07:57Z</time>
      </trkpt>
      <trkpt lat="44.51365" lon="6.58888">
        <ele>1576</ele>
        <time>2021-04-07T06:07:58Z</time>
      </trkpt>
      <trkpt lat="44.51366" lon="6.58889">
        <ele>1576</ele>
        <time>2021-04-07T06:07:59Z</time>
      </trkpt>
      <trkpt lat="44.51366" lon="6.5889">
        <ele>1577</ele>
        <time>2021-04-07T06:08:00Z</time>
      </trkpt>
      <trkpt lat="44.51366" lon="6.58891">
        <ele>1577</ele>
        <time>2021-04-07T06:08:01Z</time>
      </trkpt>
      <trkpt lat="44.51367" lon="6.58892">
        <ele>1577</ele>
        <time>2021-04-07T06:08:02Z</time>
      </trkpt>
      <trkpt lat="44.51367" lon="6.58893">
        <ele>1578</ele>
        <time>2021-04-07T06:08:03Z</time>
      </trkpt>
      <trkpt lat="44.51368" lon="6.58894">
        <ele>1578</ele>
        <time>2021-04-07T06:08:04Z</time>
      </trkpt>
      <trkpt lat="44.51368" lon="6.58895">
        <ele>1578</ele>
        <time>2021-04-07T06:08:05Z</time>
      </trkpt>
      <trkpt lat="44.51368" lon="6.58897">
        <ele>1578</ele>
        <time>2021-04-07T06:08:06Z</time>
      </trkpt>
      <trkpt lat="44.51368" lon="6.58898">
        <ele>1578</ele>
        <time>2021-04-07T06:08:07Z</time>
      </trkpt>
      <trkpt lat="44.51368" lon="6.58899">
        <ele>1579</ele>
        <time>2021-04-07T06:08:08Z</time>
      </trkpt>
      <trkpt lat="44.51368" lon="6.589">
        <ele>1579</ele>
        <time>2021-04-07T06:08:09Z</time>
      </trkpt>
      <trkpt lat="44.51368" lon="6.58901">
        <ele>1579</ele>
        <time>2021-04-07T06:08:10Z</time>
      </trkpt>
      <trkpt lat="44.51368" lon="6.58902">
        <ele>1579</ele>
        <time>2021-04-07T06:08:11Z</time>
      </trkpt>
      <trkpt lat="44.51368" lon="6.58904">
        <ele>1579</ele>
        <time>2021-04-07T06:08:12Z</time>
      </trkpt>
      <trkpt lat="44.51368" lon="6.58905">
        <ele>1579</ele>
        <time>2021-04-07T06:08:13Z</time>
      </trkpt>
      <trkpt lat="44.51368" lon="6.58907">
        <ele>1579</ele>
        <time>2021-04-07T06:08:14Z</time>
      </trkpt>
      <trkpt lat="44.51368" lon="6.58909">
        <ele>1579</ele>
        <time>2021-04-07T06:08:15Z</time>
      </trkpt>
      <trkpt lat="44.51368" lon="6.5891">
        <ele>1579</ele>
        <time>2021-04-07T06:08:16Z</time>
      </trkpt>
      <trkpt lat="44.51368" lon="6.58912">
        <ele>1579</ele>
        <time>2021-04-07T06:08:17Z</time>
      </trkpt>
      <trkpt lat="44.51368" lon="6.58912">
        <ele>1579</ele>
        <time>2021-04-07T06:08:18Z</time>
      </trkpt>
      <trkpt lat="44.51369" lon="6.58913">
        <ele>1579</ele>
        <time>2021-04-07T06:08:19Z</time>
      </trkpt>
      <trkpt lat="44.5137" lon="6.58913">
        <ele>1579</ele>
        <time>2021-04-07T06:08:20Z</time>
      </trkpt>
      <trkpt lat="44.5137" lon="6.58914">
        <ele>1579</ele>
        <time>2021-04-07T06:08:21Z</time>
      </trkpt>
      <trkpt lat="44.5137" lon="6.58914">
        <ele>1579</ele>
        <time>2021-04-07T06:08:22Z</time>
      </trkpt>
      <trkpt lat="44.5137" lon="6.58915">
        <ele>1579</ele>
        <time>2021-04-07T06:08:23Z</time>
      </trkpt>
      <trkpt lat="44.5137" lon="6.58916">
        <ele>1579</ele>
        <time>2021-04-07T06:08:24Z</time>
      </trkpt>
      <trkpt lat="44.51371" lon="6.58917">
        <ele>1579</ele>
        <time>2021-04-07T06:08:25Z</time>
      </trkpt>
      <trkpt lat="44.51371" lon="6.58918">
        <ele>1578</ele>
        <time>2021-04-07T06:08:26Z</time>
      </trkpt>
      <trkpt lat="44.51372" lon="6.5892">
        <ele>1578</ele>
        <time>2021-04-07T06:08:27Z</time>
      </trkpt>
      <trkpt lat="44.51372" lon="6.58921">
        <ele>1578</ele>
        <time>2021-04-07T06:08:28Z</time>
      </trkpt>
      <trkpt lat="44.51372" lon="6.58921">
        <ele>1578</ele>
        <time>2021-04-07T06:08:29Z</time>
      </trkpt>
      <trkpt lat="44.51372" lon="6.58923">
        <ele>1578</ele>
        <time>2021-04-07T06:08:30Z</time>
      </trkpt>
      <trkpt lat="44.51372" lon="6.58925">
        <ele>1579</ele>
        <time>2021-04-07T06:08:31Z</time>
      </trkpt>
      <trkpt lat="44.51372" lon="6.58927">
        <ele>1579</ele>
        <time>2021-04-07T06:08:32Z</time>
      </trkpt>
      <trkpt lat="44.51373" lon="6.58928">
        <ele>1579</ele>
        <time>2021-04-07T06:08:33Z</time>
      </trkpt>
      <trkpt lat="44.51373" lon="6.5893">
        <ele>1579</ele>
        <time>2021-04-07T06:08:34Z</time>
      </trkpt>
      <trkpt lat="44.51374" lon="6.58931">
        <ele>1579</ele>
        <time>2021-04-07T06:08:35Z</time>
      </trkpt>
      <trkpt lat="44.51375" lon="6.58932">
        <ele>1580</ele>
        <time>2021-04-07T06:08:36Z</time>
      </trkpt>
      <trkpt lat="44.51376" lon="6.58933">
        <ele>1580</ele>
        <time>2021-04-07T06:08:37Z</time>
      </trkpt>
      <trkpt lat="44.51377" lon="6.58934">
        <ele>1580</ele>
        <time>2021-04-07T06:08:38Z</time>
      </trkpt>
      <trkpt lat="44.51377" lon="6.58936">
        <ele>1580</ele>
        <time>2021-04-07T06:08:39Z</time>
      </trkpt>
      <trkpt lat="44.51378" lon="6.58937">
        <ele>1580</ele>
        <time>2021-04-07T06:08:40Z</time>
      </trkpt>
      <trkpt lat="44.51379" lon="6.58937">
        <ele>1580</ele>
        <time>2021-04-07T06:08:41Z</time>
      </trkpt>
      <trkpt lat="44.51379" lon="6.58939">
        <ele>1581</ele>
        <time>2021-04-07T06:08:42Z</time>
      </trkpt>
      <trkpt lat="44.5138" lon="6.5894">
        <ele>1581</ele>
        <time>2021-04-07T06:08:43Z</time>
      </trkpt>
      <trkpt lat="44.51381" lon="6.5894">
        <ele>1581</ele>
        <time>2021-04-07T06:08:44Z</time>
      </trkpt>
      <trkpt lat="44.51382" lon="6.58942">
        <ele>1582</ele>
        <time>2021-04-07T06:08:45Z</time>
      </trkpt>
      <trkpt lat="44.51382" lon="6.58943">
        <ele>1583</ele>
        <time>2021-04-07T06:08:46Z</time>
      </trkpt>
      <trkpt lat="44.51382" lon="6.58943">
        <ele>1583</ele>
        <time>2021-04-07T06:08:47Z</time>
      </trkpt>
      <trkpt lat="44.51382" lon="6.58945">
        <ele>1583</ele>
        <time>2021-04-07T06:08:48Z</time>
      </trkpt>
      <trkpt lat="44.51382" lon="6.58946">
        <ele>1584</ele>
        <time>2021-04-07T06:08:49Z</time>
      </trkpt>
      <trkpt lat="44.51383" lon="6.58947">
        <ele>1584</ele>
        <time>2021-04-07T06:08:50Z</time>
      </trkpt>
      <trkpt lat="44.51383" lon="6.58948">
        <ele>1585</ele>
        <time>2021-04-07T06:08:51Z</time>
      </trkpt>
      <trkpt lat="44.51383" lon="6.58949">
        <ele>1585</ele>
        <time>2021-04-07T06:08:52Z</time>
      </trkpt>
      <trkpt lat="44.51383" lon="6.58949">
        <ele>1585</ele>
        <time>2021-04-07T06:08:53Z</time>
      </trkpt>
      <trkpt lat="44.51383" lon="6.58949">
        <ele>1585</ele>
        <time>2021-04-07T06:08:54Z</time>
      </trkpt>
      <trkpt lat="44.51383" lon="6.5895">
        <ele>1586</ele>
        <time>2021-04-07T06:08:55Z</time>
      </trkpt>
      <trkpt lat="44.51383" lon="6.5895">
        <ele>1586</ele>
        <time>2021-04-07T06:08:56Z</time>
      </trkpt>
      <trkpt lat="44.51383" lon="6.58951">
        <ele>1586</ele>
        <time>2021-04-07T06:08:57Z</time>
      </trkpt>
      <trkpt lat="44.51382" lon="6.58951">
        <ele>1586</ele>
        <time>2021-04-07T06:08:58Z</time>
      </trkpt>
      <trkpt lat="44.51382" lon="6.58952">
        <ele>1586</ele>
        <time>2021-04-07T06:08:59Z</time>
      </trkpt>
      <trkpt lat="44.51381" lon="6.58954">
        <ele>1586</ele>
        <time>2021-04-07T06:09:00Z</time>
      </trkpt>
      <trkpt lat="44.5138" lon="6.58954">
        <ele>1586</ele>
        <time>2021-04-07T06:09:01Z</time>
      </trkpt>
      <trkpt lat="44.51381" lon="6.58954">
        <ele>1586</ele>
        <time>2021-04-07T06:09:02Z</time>
      </trkpt>
      <trkpt lat="44.51381" lon="6.58954">
        <ele>1586</ele>
        <time>2021-04-07T06:09:03Z</time>
      </trkpt>
      <trkpt lat="44.51381" lon="6.58954">
        <ele>1586</ele>
        <time>2021-04-07T06:09:04Z</time>
      </trkpt>
      <trkpt lat="44.51381" lon="6.58954">
        <ele>1587</ele>
        <time>2021-04-07T06:09:05Z</time>
      </trkpt>
      <trkpt lat="44.51381" lon="6.58954">
        <ele>1587</ele>
        <time>2021-04-07T06:09:06Z</time>
      </trkpt>
      <trkpt lat="44.51381" lon="6.58954">
        <ele>1587</ele>
        <time>2021-04-07T06:09:07Z</time>
      </trkpt>
      <trkpt lat="44.51381" lon="6.58954">
        <ele>1587</ele>
        <time>2021-04-07T06:09:08Z</time>
      </trkpt>
      <trkpt lat="44.51381" lon="6.58954">
        <ele>1587</ele>
        <time>2021-04-07T06:09:09Z</time>
      </trkpt>
      <trkpt lat="44.51382" lon="6.58953">
        <ele>1587</ele>
        <time>2021-04-07T06:09:10Z</time>
      </trkpt>
      <trkpt lat="44.51382" lon="6.58953">
        <ele>1586</ele>
        <time>2021-04-07T06:09:11Z</time>
      </trkpt>
      <trkpt lat="44.51383" lon="6.58953">
        <ele>1586</ele>
        <time>2021-04-07T06:09:12Z</time>
      </trkpt>
      <trkpt lat="44.51383" lon="6.58953">
        <ele>1586</ele>
        <time>2021-04-07T06:09:13Z</time>
      </trkpt>
      <trkpt lat="44.51384" lon="6.58952">
        <ele>1586</ele>
        <time>2021-04-07T06:09:14Z</time>
      </trkpt>
      <trkpt lat="44.51384" lon="6.58952">
        <ele>1586</ele>
        <time>2021-04-07T06:09:15Z</time>
      </trkpt>
      <trkpt lat="44.51384" lon="6.58952">
        <ele>1586</ele>
        <time>2021-04-07T06:09:16Z</time>
      </trkpt>
      <trkpt lat="44.51384" lon="6.58952">
        <ele>1586</ele>
        <time>2021-04-07T06:09:17Z</time>
      </trkpt>
      <trkpt lat="44.51384" lon="6.58952">
        <ele>1586</ele>
        <time>2021-04-07T06:09:18Z</time>
      </trkpt>
      <trkpt lat="44.51384" lon="6.58952">
        <ele>1586</ele>
        <time>2021-04-07T06:09:19Z</time>
      </trkpt>
      <trkpt lat="44.51384" lon="6.58952">
        <ele>1586</ele>
        <time>2021-04-07T06:09:20Z</time>
      </trkpt>
      <trkpt lat="44.51384" lon="6.58952">
        <ele>1586</ele>
        <time>2021-04-07T06:09:21Z</time>
      </trkpt>
      <trkpt lat="44.51384" lon="6.58952">
        <ele>1586</ele>
        <time>2021-04-07T06:09:22Z</time>
      </trkpt>
      <trkpt lat="44.51384" lon="6.58952">
        <ele>1586</ele>
        <time>2021-04-07T06:09:23Z</time>
      </trkpt>
      <trkpt lat="44.51384" lon="6.58952">
        <ele>1586</ele>
        <time>2021-04-07T06:09:24Z</time>
      </trkpt>
      <trkpt lat="44.51384" lon="6.58952">
        <ele>1586</ele>
        <time>2021-04-07T06:09:25Z</time>
      </trkpt>
      <trkpt lat="44.51384" lon="6.58952">
        <ele>1586</ele>
        <time>2021-04-07T06:09:26Z</time>
      </trkpt>
      <trkpt lat="44.51385" lon="6.58953">
        <ele>1586</ele>
        <time>2021-04-07T06:09:27Z</time>
      </trkpt>
      <trkpt lat="44.51386" lon="6.58953">
        <ele>1586</ele>
        <time>2021-04-07T06:09:28Z</time>
      </trkpt>
      <trkpt lat="44.51386" lon="6.58952">
        <ele>1586</ele>
        <time>2021-04-07T06:09:29Z</time>
      </trkpt>
      <trkpt lat="44.51386" lon="6.58951">
        <ele>1586</ele>
        <time>2021-04-07T06:09:30Z</time>
      </trkpt>
      <trkpt lat="44.51386" lon="6.58951">
        <ele>1586</ele>
        <time>2021-04-07T06:09:31Z</time>
      </trkpt>
      <trkpt lat="44.51386" lon="6.58951">
        <ele>1586</ele>
        <time>2021-04-07T06:09:32Z</time>
      </trkpt>
      <trkpt lat="44.51386" lon="6.58951">
        <ele>1586</ele>
        <time>2021-04-07T06:09:33Z</time>
      </trkpt>
      <trkpt lat="44.51386" lon="6.58949">
        <ele>1586</ele>
        <time>2021-04-07T06:09:34Z</time>
      </trkpt>
      <trkpt lat="44.51386" lon="6.58949">
        <ele>1586</ele>
        <time>2021-04-07T06:09:35Z</time>
      </trkpt>
      <trkpt lat="44.51386" lon="6.58949">
        <ele>1586</ele>
        <time>2021-04-07T06:09:36Z</time>
      </trkpt>
      <trkpt lat="44.51386" lon="6.5895">
        <ele>1585</ele>
        <time>2021-04-07T06:09:37Z</time>
      </trkpt>
      <trkpt lat="44.51386" lon="6.58951">
        <ele>1585</ele>
        <time>2021-04-07T06:09:38Z</time>
      </trkpt>
      <trkpt lat="44.51385" lon="6.58952">
        <ele>1585</ele>
        <time>2021-04-07T06:09:39Z</time>
      </trkpt>
      <trkpt lat="44.51386" lon="6.58953">
        <ele>1585</ele>
        <time>2021-04-07T06:09:40Z</time>
      </trkpt>
      <trkpt lat="44.51386" lon="6.58954">
        <ele>1585</ele>
        <time>2021-04-07T06:09:41Z</time>
      </trkpt>
      <trkpt lat="44.51387" lon="6.58954">
        <ele>1585</ele>
        <time>2021-04-07T06:09:42Z</time>
      </trkpt>
      <trkpt lat="44.51387" lon="6.58955">
        <ele>1585</ele>
        <time>2021-04-07T06:09:43Z</time>
      </trkpt>
      <trkpt lat="44.51387" lon="6.58957">
        <ele>1584</ele>
        <time>2021-04-07T06:09:44Z</time>
      </trkpt>
      <trkpt lat="44.51387" lon="6.58959">
        <ele>1583</ele>
        <time>2021-04-07T06:09:45Z</time>
      </trkpt>
      <trkpt lat="44.51387" lon="6.5896">
        <ele>1583</ele>
        <time>2021-04-07T06:09:46Z</time>
      </trkpt>
      <trkpt lat="44.51387" lon="6.58961">
        <ele>1583</ele>
        <time>2021-04-07T06:09:47Z</time>
      </trkpt>
      <trkpt lat="44.51387" lon="6.58963">
        <ele>1583</ele>
        <time>2021-04-07T06:09:48Z</time>
      </trkpt>
      <trkpt lat="44.51387" lon="6.58964">
        <ele>1583</ele>
        <time>2021-04-07T06:09:49Z</time>
      </trkpt>
      <trkpt lat="44.51388" lon="6.58964">
        <ele>1583</ele>
        <time>2021-04-07T06:09:50Z</time>
      </trkpt>
      <trkpt lat="44.51388" lon="6.58965">
        <ele>1583</ele>
        <time>2021-04-07T06:09:51Z</time>
      </trkpt>
      <trkpt lat="44.51388" lon="6.58966">
        <ele>1584</ele>
        <time>2021-04-07T06:09:52Z</time>
      </trkpt>
      <trkpt lat="44.51388" lon="6.58967">
        <ele>1584</ele>
        <time>2021-04-07T06:09:53Z</time>
      </trkpt>
      <trkpt lat="44.51388" lon="6.58968">
        <ele>1584</ele>
        <time>2021-04-07T06:09:54Z</time>
      </trkpt>
      <trkpt lat="44.51388" lon="6.5897">
        <ele>1584</ele>
        <time>2021-04-07T06:09:55Z</time>
      </trkpt>
      <trkpt lat="44.51388" lon="6.5897">
        <ele>1584</ele>
        <time>2021-04-07T06:09:56Z</time>
      </trkpt>
      <trkpt lat="44.51389" lon="6.58971">
        <ele>1584</ele>
        <time>2021-04-07T06:09:57Z</time>
      </trkpt>
      <trkpt lat="44.51389" lon="6.58973">
        <ele>1584</ele>
        <time>2021-04-07T06:09:58Z</time>
      </trkpt>
      <trkpt lat="44.51389" lon="6.58974">
        <ele>1585</ele>
        <time>2021-04-07T06:09:59Z</time>
      </trkpt>
      <trkpt lat="44.51389" lon="6.58976">
        <ele>1585</ele>
        <time>2021-04-07T06:10:00Z</time>
      </trkpt>
      <trkpt lat="44.51389" lon="6.58978">
        <ele>1586</ele>
        <time>2021-04-07T06:10:01Z</time>
      </trkpt>
      <trkpt lat="44.51389" lon="6.58979">
        <ele>1587</ele>
        <time>2021-04-07T06:10:02Z</time>
      </trkpt>
      <trkpt lat="44.5139" lon="6.5898">
        <ele>1587</ele>
        <time>2021-04-07T06:10:03Z</time>
      </trkpt>
      <trkpt lat="44.5139" lon="6.58981">
        <ele>1587</ele>
        <time>2021-04-07T06:10:04Z</time>
      </trkpt>
      <trkpt lat="44.5139" lon="6.58982">
        <ele>1588</ele>
        <time>2021-04-07T06:10:05Z</time>
      </trkpt>
      <trkpt lat="44.5139" lon="6.58983">
        <ele>1588</ele>
        <time>2021-04-07T06:10:06Z</time>
      </trkpt>
      <trkpt lat="44.5139" lon="6.58984">
        <ele>1589</ele>
        <time>2021-04-07T06:10:07Z</time>
      </trkpt>
      <trkpt lat="44.5139" lon="6.58985">
        <ele>1590</ele>
        <time>2021-04-07T06:10:08Z</time>
      </trkpt>
      <trkpt lat="44.5139" lon="6.58986">
        <ele>1590</ele>
        <time>2021-04-07T06:10:09Z</time>
      </trkpt>
      <trkpt lat="44.51391" lon="6.58988">
        <ele>1590</ele>
        <time>2021-04-07T06:10:10Z</time>
      </trkpt>
      <trkpt lat="44.51391" lon="6.58989">
        <ele>1590</ele>
        <time>2021-04-07T06:10:11Z</time>
      </trkpt>
      <trkpt lat="44.51391" lon="6.58989">
        <ele>1590</ele>
        <time>2021-04-07T06:10:12Z</time>
      </trkpt>
      <trkpt lat="44.51391" lon="6.5899">
        <ele>1589</ele>
        <time>2021-04-07T06:10:13Z</time>
      </trkpt>
      <trkpt lat="44.51391" lon="6.58992">
        <ele>1589</ele>
        <time>2021-04-07T06:10:14Z</time>
      </trkpt>
      <trkpt lat="44.51391" lon="6.58995">
        <ele>1589</ele>
        <time>2021-04-07T06:10:15Z</time>
      </trkpt>
      <trkpt lat="44.51392" lon="6.58997">
        <ele>1588</ele>
        <time>2021-04-07T06:10:16Z</time>
      </trkpt>
      <trkpt lat="44.51392" lon="6.59">
        <ele>1587</ele>
        <time>2021-04-07T06:10:17Z</time>
      </trkpt>
      <trkpt lat="44.51392" lon="6.59002">
        <ele>1587</ele>
        <time>2021-04-07T06:10:18Z</time>
      </trkpt>
      <trkpt lat="44.51392" lon="6.59004">
        <ele>1587</ele>
        <time>2021-04-07T06:10:19Z</time>
      </trkpt>
      <trkpt lat="44.51393" lon="6.59005">
        <ele>1587</ele>
        <time>2021-04-07T06:10:20Z</time>
      </trkpt>
      <trkpt lat="44.51393" lon="6.59007">
        <ele>1587</ele>
        <time>2021-04-07T06:10:21Z</time>
      </trkpt>
      <trkpt lat="44.51395" lon="6.59007">
        <ele>1587</ele>
        <time>2021-04-07T06:10:22Z</time>
      </trkpt>
      <trkpt lat="44.51395" lon="6.59008">
        <ele>1587</ele>
        <time>2021-04-07T06:10:23Z</time>
      </trkpt>
      <trkpt lat="44.51395" lon="6.5901">
        <ele>1588</ele>
        <time>2021-04-07T06:10:24Z</time>
      </trkpt>
      <trkpt lat="44.51396" lon="6.59012">
        <ele>1588</ele>
        <time>2021-04-07T06:10:25Z</time>
      </trkpt>
      <trkpt lat="44.51396" lon="6.59013">
        <ele>1588</ele>
        <time>2021-04-07T06:10:26Z</time>
      </trkpt>
      <trkpt lat="44.51397" lon="6.59015">
        <ele>1588</ele>
        <time>2021-04-07T06:10:27Z</time>
      </trkpt>
      <trkpt lat="44.51397" lon="6.59016">
        <ele>1588</ele>
        <time>2021-04-07T06:10:28Z</time>
      </trkpt>
      <trkpt lat="44.51399" lon="6.59017">
        <ele>1589</ele>
        <time>2021-04-07T06:10:29Z</time>
      </trkpt>
      <trkpt lat="44.514" lon="6.59017">
        <ele>1589</ele>
        <time>2021-04-07T06:10:30Z</time>
      </trkpt>
      <trkpt lat="44.514" lon="6.59018">
        <ele>1589</ele>
        <time>2021-04-07T06:10:31Z</time>
      </trkpt>
      <trkpt lat="44.51401" lon="6.59018">
        <ele>1590</ele>
        <time>2021-04-07T06:10:32Z</time>
      </trkpt>
      <trkpt lat="44.51402" lon="6.59019">
        <ele>1591</ele>
        <time>2021-04-07T06:10:33Z</time>
      </trkpt>
      <trkpt lat="44.51402" lon="6.5902">
        <ele>1591</ele>
        <time>2021-04-07T06:10:34Z</time>
      </trkpt>
      <trkpt lat="44.51403" lon="6.5902">
        <ele>1591</ele>
        <time>2021-04-07T06:10:35Z</time>
      </trkpt>
      <trkpt lat="44.51402" lon="6.59021">
        <ele>1591</ele>
        <time>2021-04-07T06:10:36Z</time>
      </trkpt>
      <trkpt lat="44.51403" lon="6.59022">
        <ele>1591</ele>
        <time>2021-04-07T06:10:37Z</time>
      </trkpt>
      <trkpt lat="44.51403" lon="6.59023">
        <ele>1591</ele>
        <time>2021-04-07T06:10:38Z</time>
      </trkpt>
      <trkpt lat="44.51403" lon="6.59023">
        <ele>1591</ele>
        <time>2021-04-07T06:10:39Z</time>
      </trkpt>
      <trkpt lat="44.51403" lon="6.59024">
        <ele>1591</ele>
        <time>2021-04-07T06:10:40Z</time>
      </trkpt>
      <trkpt lat="44.51404" lon="6.59026">
        <ele>1591</ele>
        <time>2021-04-07T06:10:41Z</time>
      </trkpt>
      <trkpt lat="44.51404" lon="6.59028">
        <ele>1591</ele>
        <time>2021-04-07T06:10:42Z</time>
      </trkpt>
      <trkpt lat="44.51404" lon="6.5903">
        <ele>1591</ele>
        <time>2021-04-07T06:10:43Z</time>
      </trkpt>
      <trkpt lat="44.51405" lon="6.59032">
        <ele>1591</ele>
        <time>2021-04-07T06:10:44Z</time>
      </trkpt>
      <trkpt lat="44.51406" lon="6.59033">
        <ele>1591</ele>
        <time>2021-04-07T06:10:45Z</time>
      </trkpt>
      <trkpt lat="44.51407" lon="6.59033">
        <ele>1592</ele>
        <time>2021-04-07T06:10:46Z</time>
      </trkpt>
      <trkpt lat="44.51408" lon="6.59034">
        <ele>1592</ele>
        <time>2021-04-07T06:10:47Z</time>
      </trkpt>
      <trkpt lat="44.51408" lon="6.59035">
        <ele>1592</ele>
        <time>2021-04-07T06:10:48Z</time>
      </trkpt>
      <trkpt lat="44.51409" lon="6.59036">
        <ele>1592</ele>
        <time>2021-04-07T06:10:49Z</time>
      </trkpt>
      <trkpt lat="44.5141" lon="6.59037">
        <ele>1592</ele>
        <time>2021-04-07T06:10:50Z</time>
      </trkpt>
      <trkpt lat="44.51411" lon="6.59038">
        <ele>1593</ele>
        <time>2021-04-07T06:10:51Z</time>
      </trkpt>
      <trkpt lat="44.51411" lon="6.59039">
        <ele>1593</ele>
        <time>2021-04-07T06:10:52Z</time>
      </trkpt>
      <trkpt lat="44.51412" lon="6.59039">
        <ele>1593</ele>
        <time>2021-04-07T06:10:53Z</time>
      </trkpt>
      <trkpt lat="44.51412" lon="6.5904">
        <ele>1592</ele>
        <time>2021-04-07T06:10:54Z</time>
      </trkpt>
      <trkpt lat="44.51413" lon="6.59042">
        <ele>1592</ele>
        <time>2021-04-07T06:10:55Z</time>
      </trkpt>
      <trkpt lat="44.51414" lon="6.59043">
        <ele>1592</ele>
        <time>2021-04-07T06:10:56Z</time>
      </trkpt>
      <trkpt lat="44.51414" lon="6.59043">
        <ele>1592</ele>
        <time>2021-04-07T06:10:57Z</time>
      </trkpt>
      <trkpt lat="44.51415" lon="6.59044">
        <ele>1592</ele>
        <time>2021-04-07T06:10:58Z</time>
      </trkpt>
      <trkpt lat="44.51415" lon="6.59046">
        <ele>1592</ele>
        <time>2021-04-07T06:10:59Z</time>
      </trkpt>
      <trkpt lat="44.51415" lon="6.59047">
        <ele>1592</ele>
        <time>2021-04-07T06:11:00Z</time>
      </trkpt>
      <trkpt lat="44.51415" lon="6.59048">
        <ele>1592</ele>
        <time>2021-04-07T06:11:01Z</time>
      </trkpt>
      <trkpt lat="44.51416" lon="6.5905">
        <ele>1593</ele>
        <time>2021-04-07T06:11:02Z</time>
      </trkpt>
      <trkpt lat="44.51416" lon="6.59051">
        <ele>1593</ele>
        <time>2021-04-07T06:11:03Z</time>
      </trkpt>
      <trkpt lat="44.51417" lon="6.59051">
        <ele>1593</ele>
        <time>2021-04-07T06:11:04Z</time>
      </trkpt>
      <trkpt lat="44.51417" lon="6.59053">
        <ele>1594</ele>
        <time>2021-04-07T06:11:05Z</time>
      </trkpt>
      <trkpt lat="44.51418" lon="6.59054">
        <ele>1594</ele>
        <time>2021-04-07T06:11:06Z</time>
      </trkpt>
      <trkpt lat="44.51418" lon="6.59056">
        <ele>1594</ele>
        <time>2021-04-07T06:11:07Z</time>
      </trkpt>
      <trkpt lat="44.51418" lon="6.59057">
        <ele>1594</ele>
        <time>2021-04-07T06:11:08Z</time>
      </trkpt>
      <trkpt lat="44.51418" lon="6.59059">
        <ele>1595</ele>
        <time>2021-04-07T06:11:09Z</time>
      </trkpt>
      <trkpt lat="44.51419" lon="6.5906">
        <ele>1595</ele>
        <time>2021-04-07T06:11:10Z</time>
      </trkpt>
      <trkpt lat="44.51419" lon="6.59061">
        <ele>1595</ele>
        <time>2021-04-07T06:11:11Z</time>
      </trkpt>
      <trkpt lat="44.51419" lon="6.59062">
        <ele>1595</ele>
        <time>2021-04-07T06:11:12Z</time>
      </trkpt>
      <trkpt lat="44.5142" lon="6.59063">
        <ele>1595</ele>
        <time>2021-04-07T06:11:13Z</time>
      </trkpt>
      <trkpt lat="44.5142" lon="6.59065">
        <ele>1595</ele>
        <time>2021-04-07T06:11:14Z</time>
      </trkpt>
      <trkpt lat="44.51421" lon="6.59066">
        <ele>1595</ele>
        <time>2021-04-07T06:11:15Z</time>
      </trkpt>
      <trkpt lat="44.51421" lon="6.59067">
        <ele>1595</ele>
        <time>2021-04-07T06:11:16Z</time>
      </trkpt>
      <trkpt lat="44.51421" lon="6.59068">
        <ele>1596</ele>
        <time>2021-04-07T06:11:17Z</time>
      </trkpt>
      <trkpt lat="44.51421" lon="6.59068">
        <ele>1596</ele>
        <time>2021-04-07T06:11:18Z</time>
      </trkpt>
      <trkpt lat="44.51422" lon="6.59069">
        <ele>1596</ele>
        <time>2021-04-07T06:11:19Z</time>
      </trkpt>
      <trkpt lat="44.51422" lon="6.5907">
        <ele>1596</ele>
        <time>2021-04-07T06:11:20Z</time>
      </trkpt>
      <trkpt lat="44.51422" lon="6.59071">
        <ele>1596</ele>
        <time>2021-04-07T06:11:21Z</time>
      </trkpt>
      <trkpt lat="44.51423" lon="6.59072">
        <ele>1596</ele>
        <time>2021-04-07T06:11:22Z</time>
      </trkpt>
      <trkpt lat="44.51423" lon="6.59074">
        <ele>1596</ele>
        <time>2021-04-07T06:11:23Z</time>
      </trkpt>
      <trkpt lat="44.51423" lon="6.59075">
        <ele>1596</ele>
        <time>2021-04-07T06:11:24Z</time>
      </trkpt>
      <trkpt lat="44.51423" lon="6.59076">
        <ele>1597</ele>
        <time>2021-04-07T06:11:25Z</time>
      </trkpt>
      <trkpt lat="44.51423" lon="6.59077">
        <ele>1597</ele>
        <time>2021-04-07T06:11:26Z</time>
      </trkpt>
      <trkpt lat="44.51423" lon="6.59079">
        <ele>1597</ele>
        <time>2021-04-07T06:11:27Z</time>
      </trkpt>
      <trkpt lat="44.51423" lon="6.5908">
        <ele>1597</ele>
        <time>2021-04-07T06:11:28Z</time>
      </trkpt>
      <trkpt lat="44.51424" lon="6.59081">
        <ele>1597</ele>
        <time>2021-04-07T06:11:29Z</time>
      </trkpt>
      <trkpt lat="44.51424" lon="6.59081">
        <ele>1597</ele>
        <time>2021-04-07T06:11:30Z</time>
      </trkpt>
      <trkpt lat="44.51424" lon="6.59081">
        <ele>1597</ele>
        <time>2021-04-07T06:11:31Z</time>
      </trkpt>
      <trkpt lat="44.51424" lon="6.59082">
        <ele>1597</ele>
        <time>2021-04-07T06:11:32Z</time>
      </trkpt>
      <trkpt lat="44.51424" lon="6.59082">
        <ele>1597</ele>
        <time>2021-04-07T06:11:33Z</time>
      </trkpt>
      <trkpt lat="44.51424" lon="6.59083">
        <ele>1597</ele>
        <time>2021-04-07T06:11:34Z</time>
      </trkpt>
      <trkpt lat="44.51424" lon="6.59085">
        <ele>1597</ele>
        <time>2021-04-07T06:11:35Z</time>
      </trkpt>
      <trkpt lat="44.51424" lon="6.59087">
        <ele>1597</ele>
        <time>2021-04-07T06:11:36Z</time>
      </trkpt>
      <trkpt lat="44.51424" lon="6.59088">
        <ele>1597</ele>
        <time>2021-04-07T06:11:37Z</time>
      </trkpt>
      <trkpt lat="44.51424" lon="6.59089">
        <ele>1597</ele>
        <time>2021-04-07T06:11:38Z</time>
      </trkpt>
      <trkpt lat="44.51424" lon="6.59091">
        <ele>1597</ele>
        <time>2021-04-07T06:11:39Z</time>
      </trkpt>
      <trkpt lat="44.51424" lon="6.59092">
        <ele>1597</ele>
        <time>2021-04-07T06:11:40Z</time>
      </trkpt>
      <trkpt lat="44.51424" lon="6.59094">
        <ele>1597</ele>
        <time>2021-04-07T06:11:41Z</time>
      </trkpt>
      <trkpt lat="44.51424" lon="6.59096">
        <ele>1597</ele>
        <time>2021-04-07T06:11:42Z</time>
      </trkpt>
      <trkpt lat="44.51424" lon="6.59097">
        <ele>1597</ele>
        <time>2021-04-07T06:11:43Z</time>
      </trkpt>
      <trkpt lat="44.51424" lon="6.59098">
        <ele>1598</ele>
        <time>2021-04-07T06:11:44Z</time>
      </trkpt>
      <trkpt lat="44.51424" lon="6.59099">
        <ele>1598</ele>
        <time>2021-04-07T06:11:45Z</time>
      </trkpt>
      <trkpt lat="44.51425" lon="6.591">
        <ele>1598</ele>
        <time>2021-04-07T06:11:46Z</time>
      </trkpt>
      <trkpt lat="44.51425" lon="6.59101">
        <ele>1598</ele>
        <time>2021-04-07T06:11:47Z</time>
      </trkpt>
      <trkpt lat="44.51425" lon="6.59103">
        <ele>1598</ele>
        <time>2021-04-07T06:11:48Z</time>
      </trkpt>
      <trkpt lat="44.51426" lon="6.59104">
        <ele>1599</ele>
        <time>2021-04-07T06:11:49Z</time>
      </trkpt>
      <trkpt lat="44.51426" lon="6.59105">
        <ele>1599</ele>
        <time>2021-04-07T06:11:50Z</time>
      </trkpt>
      <trkpt lat="44.51426" lon="6.59107">
        <ele>1599</ele>
        <time>2021-04-07T06:11:51Z</time>
      </trkpt>
      <trkpt lat="44.51426" lon="6.59108">
        <ele>1599</ele>
        <time>2021-04-07T06:11:52Z</time>
      </trkpt>
      <trkpt lat="44.51426" lon="6.59108">
        <ele>1599</ele>
        <time>2021-04-07T06:11:53Z</time>
      </trkpt>
      <trkpt lat="44.51425" lon="6.59109">
        <ele>1599</ele>
        <time>2021-04-07T06:11:54Z</time>
      </trkpt>
      <trkpt lat="44.51424" lon="6.5911">
        <ele>1599</ele>
        <time>2021-04-07T06:11:55Z</time>
      </trkpt>
      <trkpt lat="44.51424" lon="6.5911">
        <ele>1599</ele>
        <time>2021-04-07T06:11:56Z</time>
      </trkpt>
      <trkpt lat="44.51424" lon="6.59112">
        <ele>1599</ele>
        <time>2021-04-07T06:11:57Z</time>
      </trkpt>
      <trkpt lat="44.51423" lon="6.59113">
        <ele>1599</ele>
        <time>2021-04-07T06:11:58Z</time>
      </trkpt>
      <trkpt lat="44.51423" lon="6.59114">
        <ele>1599</ele>
        <time>2021-04-07T06:11:59Z</time>
      </trkpt>
      <trkpt lat="44.51424" lon="6.59115">
        <ele>1599</ele>
        <time>2021-04-07T06:12:00Z</time>
      </trkpt>
      <trkpt lat="44.51424" lon="6.59116">
        <ele>1599</ele>
        <time>2021-04-07T06:12:01Z</time>
      </trkpt>
      <trkpt lat="44.51424" lon="6.59117">
        <ele>1599</ele>
        <time>2021-04-07T06:12:02Z</time>
      </trkpt>
      <trkpt lat="44.51424" lon="6.59118">
        <ele>1600</ele>
        <time>2021-04-07T06:12:03Z</time>
      </trkpt>
      <trkpt lat="44.51424" lon="6.5912">
        <ele>1600</ele>
        <time>2021-04-07T06:12:04Z</time>
      </trkpt>
      <trkpt lat="44.51424" lon="6.59121">
        <ele>1600</ele>
        <time>2021-04-07T06:12:05Z</time>
      </trkpt>
      <trkpt lat="44.51423" lon="6.59123">
        <ele>1600</ele>
        <time>2021-04-07T06:12:06Z</time>
      </trkpt>
      <trkpt lat="44.51423" lon="6.59124">
        <ele>1600</ele>
        <time>2021-04-07T06:12:07Z</time>
      </trkpt>
      <trkpt lat="44.51423" lon="6.59125">
        <ele>1600</ele>
        <time>2021-04-07T06:12:08Z</time>
      </trkpt>
      <trkpt lat="44.51423" lon="6.59126">
        <ele>1600</ele>
        <time>2021-04-07T06:12:09Z</time>
      </trkpt>
      <trkpt lat="44.51423" lon="6.59127">
        <ele>1600</ele>
        <time>2021-04-07T06:12:10Z</time>
      </trkpt>
      <trkpt lat="44.51424" lon="6.59129">
        <ele>1601</ele>
        <time>2021-04-07T06:12:11Z</time>
      </trkpt>
      <trkpt lat="44.51424" lon="6.5913">
        <ele>1601</ele>
        <time>2021-04-07T06:12:12Z</time>
      </trkpt>
      <trkpt lat="44.51424" lon="6.59131">
        <ele>1601</ele>
        <time>2021-04-07T06:12:13Z</time>
      </trkpt>
      <trkpt lat="44.51424" lon="6.59132">
        <ele>1601</ele>
        <time>2021-04-07T06:12:14Z</time>
      </trkpt>
      <trkpt lat="44.51424" lon="6.59133">
        <ele>1601</ele>
        <time>2021-04-07T06:12:15Z</time>
      </trkpt>
      <trkpt lat="44.51423" lon="6.59134">
        <ele>1601</ele>
        <time>2021-04-07T06:12:16Z</time>
      </trkpt>
      <trkpt lat="44.51423" lon="6.59136">
        <ele>1602</ele>
        <time>2021-04-07T06:12:17Z</time>
      </trkpt>
      <trkpt lat="44.51423" lon="6.59137">
        <ele>1602</ele>
        <time>2021-04-07T06:12:18Z</time>
      </trkpt>
      <trkpt lat="44.51424" lon="6.59137">
        <ele>1602</ele>
        <time>2021-04-07T06:12:19Z</time>
      </trkpt>
      <trkpt lat="44.51424" lon="6.59139">
        <ele>1602</ele>
        <time>2021-04-07T06:12:20Z</time>
      </trkpt>
      <trkpt lat="44.51424" lon="6.5914">
        <ele>1603</ele>
        <time>2021-04-07T06:12:21Z</time>
      </trkpt>
      <trkpt lat="44.51425" lon="6.59141">
        <ele>1603</ele>
        <time>2021-04-07T06:12:22Z</time>
      </trkpt>
      <trkpt lat="44.51424" lon="6.59142">
        <ele>1604</ele>
        <time>2021-04-07T06:12:23Z</time>
      </trkpt>
      <trkpt lat="44.51425" lon="6.59144">
        <ele>1604</ele>
        <time>2021-04-07T06:12:24Z</time>
      </trkpt>
      <trkpt lat="44.51425" lon="6.59146">
        <ele>1604</ele>
        <time>2021-04-07T06:12:25Z</time>
      </trkpt>
      <trkpt lat="44.51425" lon="6.59148">
        <ele>1605</ele>
        <time>2021-04-07T06:12:26Z</time>
      </trkpt>
      <trkpt lat="44.51425" lon="6.59149">
        <ele>1606</ele>
        <time>2021-04-07T06:12:27Z</time>
      </trkpt>
      <trkpt lat="44.51424" lon="6.5915">
        <ele>1606</ele>
        <time>2021-04-07T06:12:28Z</time>
      </trkpt>
      <trkpt lat="44.51423" lon="6.59151">
        <ele>1606</ele>
        <time>2021-04-07T06:12:29Z</time>
      </trkpt>
      <trkpt lat="44.51423" lon="6.59151">
        <ele>1606</ele>
        <time>2021-04-07T06:12:30Z</time>
      </trkpt>
      <trkpt lat="44.51424" lon="6.59151">
        <ele>1607</ele>
        <time>2021-04-07T06:12:31Z</time>
      </trkpt>
      <trkpt lat="44.51424" lon="6.59152">
        <ele>1607</ele>
        <time>2021-04-07T06:12:32Z</time>
      </trkpt>
      <trkpt lat="44.51425" lon="6.59152">
        <ele>1607</ele>
        <time>2021-04-07T06:12:33Z</time>
      </trkpt>
      <trkpt lat="44.51425" lon="6.59153">
        <ele>1607</ele>
        <time>2021-04-07T06:12:34Z</time>
      </trkpt>
      <trkpt lat="44.51426" lon="6.59153">
        <ele>1608</ele>
        <time>2021-04-07T06:12:35Z</time>
      </trkpt>
      <trkpt lat="44.51427" lon="6.59154">
        <ele>1608</ele>
        <time>2021-04-07T06:12:36Z</time>
      </trkpt>
      <trkpt lat="44.51427" lon="6.59155">
        <ele>1608</ele>
        <time>2021-04-07T06:12:37Z</time>
      </trkpt>
      <trkpt lat="44.51428" lon="6.59156">
        <ele>1608</ele>
        <time>2021-04-07T06:12:38Z</time>
      </trkpt>
      <trkpt lat="44.51429" lon="6.59157">
        <ele>1608</ele>
        <time>2021-04-07T06:12:39Z</time>
      </trkpt>
      <trkpt lat="44.51429" lon="6.59158">
        <ele>1609</ele>
        <time>2021-04-07T06:12:40Z</time>
      </trkpt>
      <trkpt lat="44.51429" lon="6.59159">
        <ele>1609</ele>
        <time>2021-04-07T06:12:41Z</time>
      </trkpt>
      <trkpt lat="44.51429" lon="6.5916">
        <ele>1609</ele>
        <time>2021-04-07T06:12:42Z</time>
      </trkpt>
      <trkpt lat="44.51429" lon="6.59161">
        <ele>1609</ele>
        <time>2021-04-07T06:12:43Z</time>
      </trkpt>
      <trkpt lat="44.51429" lon="6.59162">
        <ele>1609</ele>
        <time>2021-04-07T06:12:44Z</time>
      </trkpt>
      <trkpt lat="44.51429" lon="6.59162">
        <ele>1609</ele>
        <time>2021-04-07T06:12:45Z</time>
      </trkpt>
      <trkpt lat="44.51429" lon="6.59163">
        <ele>1609</ele>
        <time>2021-04-07T06:12:46Z</time>
      </trkpt>
      <trkpt lat="44.51429" lon="6.59163">
        <ele>1609</ele>
        <time>2021-04-07T06:12:47Z</time>
      </trkpt>
      <trkpt lat="44.5143" lon="6.59165">
        <ele>1609</ele>
        <time>2021-04-07T06:12:48Z</time>
      </trkpt>
      <trkpt lat="44.5143" lon="6.59166">
        <ele>1609</ele>
        <time>2021-04-07T06:12:49Z</time>
      </trkpt>
      <trkpt lat="44.5143" lon="6.59168">
        <ele>1608</ele>
        <time>2021-04-07T06:12:50Z</time>
      </trkpt>
      <trkpt lat="44.5143" lon="6.5917">
        <ele>1608</ele>
        <time>2021-04-07T06:12:51Z</time>
      </trkpt>
      <trkpt lat="44.51429" lon="6.59171">
        <ele>1608</ele>
        <time>2021-04-07T06:12:52Z</time>
      </trkpt>
      <trkpt lat="44.51429" lon="6.59172">
        <ele>1608</ele>
        <time>2021-04-07T06:12:53Z</time>
      </trkpt>
      <trkpt lat="44.51429" lon="6.59173">
        <ele>1608</ele>
        <time>2021-04-07T06:12:54Z</time>
      </trkpt>
      <trkpt lat="44.51429" lon="6.59174">
        <ele>1608</ele>
        <time>2021-04-07T06:12:55Z</time>
      </trkpt>
      <trkpt lat="44.51429" lon="6.59176">
        <ele>1608</ele>
        <time>2021-04-07T06:12:56Z</time>
      </trkpt>
      <trkpt lat="44.51429" lon="6.59177">
        <ele>1609</ele>
        <time>2021-04-07T06:12:57Z</time>
      </trkpt>
      <trkpt lat="44.51429" lon="6.59179">
        <ele>1609</ele>
        <time>2021-04-07T06:12:58Z</time>
      </trkpt>
      <trkpt lat="44.51429" lon="6.59179">
        <ele>1609</ele>
        <time>2021-04-07T06:12:59Z</time>
      </trkpt>
      <trkpt lat="44.51429" lon="6.5918">
        <ele>1609</ele>
        <time>2021-04-07T06:13:00Z</time>
      </trkpt>
      <trkpt lat="44.51429" lon="6.5918">
        <ele>1609</ele>
        <time>2021-04-07T06:13:01Z</time>
      </trkpt>
      <trkpt lat="44.51429" lon="6.59181">
        <ele>1609</ele>
        <time>2021-04-07T06:13:02Z</time>
      </trkpt>
      <trkpt lat="44.51429" lon="6.59183">
        <ele>1609</ele>
        <time>2021-04-07T06:13:03Z</time>
      </trkpt>
      <trkpt lat="44.51428" lon="6.59184">
        <ele>1609</ele>
        <time>2021-04-07T06:13:04Z</time>
      </trkpt>
      <trkpt lat="44.51428" lon="6.59185">
        <ele>1609</ele>
        <time>2021-04-07T06:13:05Z</time>
      </trkpt>
      <trkpt lat="44.51427" lon="6.59187">
        <ele>1609</ele>
        <time>2021-04-07T06:13:06Z</time>
      </trkpt>
      <trkpt lat="44.51426" lon="6.59188">
        <ele>1609</ele>
        <time>2021-04-07T06:13:07Z</time>
      </trkpt>
      <trkpt lat="44.51425" lon="6.59189">
        <ele>1609</ele>
        <time>2021-04-07T06:13:08Z</time>
      </trkpt>
      <trkpt lat="44.51424" lon="6.5919">
        <ele>1609</ele>
        <time>2021-04-07T06:13:09Z</time>
      </trkpt>
      <trkpt lat="44.51423" lon="6.5919">
        <ele>1609</ele>
        <time>2021-04-07T06:13:10Z</time>
      </trkpt>
      <trkpt lat="44.51423" lon="6.5919">
        <ele>1609</ele>
        <time>2021-04-07T06:13:11Z</time>
      </trkpt>
      <trkpt lat="44.51422" lon="6.5919">
        <ele>1608</ele>
        <time>2021-04-07T06:13:12Z</time>
      </trkpt>
      <trkpt lat="44.51421" lon="6.59189">
        <ele>1608</ele>
        <time>2021-04-07T06:13:13Z</time>
      </trkpt>
      <trkpt lat="44.5142" lon="6.59189">
        <ele>1608</ele>
        <time>2021-04-07T06:13:14Z</time>
      </trkpt>
      <trkpt lat="44.51419" lon="6.59189">
        <ele>1608</ele>
        <time>2021-04-07T06:13:15Z</time>
      </trkpt>
      <trkpt lat="44.51418" lon="6.59188">
        <ele>1608</ele>
        <time>2021-04-07T06:13:16Z</time>
      </trkpt>
      <trkpt lat="44.51417" lon="6.59187">
        <ele>1607</ele>
        <time>2021-04-07T06:13:17Z</time>
      </trkpt>
      <trkpt lat="44.51416" lon="6.59187">
        <ele>1607</ele>
        <time>2021-04-07T06:13:18Z</time>
      </trkpt>
      <trkpt lat="44.51416" lon="6.59187">
        <ele>1607</ele>
        <time>2021-04-07T06:13:19Z</time>
      </trkpt>
      <trkpt lat="44.51416" lon="6.59186">
        <ele>1606</ele>
        <time>2021-04-07T06:13:20Z</time>
      </trkpt>
      <trkpt lat="44.51416" lon="6.59185">
        <ele>1606</ele>
        <time>2021-04-07T06:13:21Z</time>
      </trkpt>
      <trkpt lat="44.51415" lon="6.59184">
        <ele>1606</ele>
        <time>2021-04-07T06:13:22Z</time>
      </trkpt>
      <trkpt lat="44.51415" lon="6.59183">
        <ele>1606</ele>
        <time>2021-04-07T06:13:23Z</time>
      </trkpt>
      <trkpt lat="44.51415" lon="6.59182">
        <ele>1605</ele>
        <time>2021-04-07T06:13:24Z</time>
      </trkpt>
      <trkpt lat="44.51414" lon="6.59181">
        <ele>1605</ele>
        <time>2021-04-07T06:13:25Z</time>
      </trkpt>
      <trkpt lat="44.51414" lon="6.5918">
        <ele>1605</ele>
        <time>2021-04-07T06:13:26Z</time>
      </trkpt>
      <trkpt lat="44.51414" lon="6.5918">
        <ele>1605</ele>
        <time>2021-04-07T06:13:27Z</time>
      </trkpt>
      <trkpt lat="44.51413" lon="6.59178">
        <ele>1605</ele>
        <time>2021-04-07T06:13:28Z</time>
      </trkpt>
      <trkpt lat="44.51413" lon="6.59177">
        <ele>1604</ele>
        <time>2021-04-07T06:13:29Z</time>
      </trkpt>
      <trkpt lat="44.51413" lon="6.59176">
        <ele>1604</ele>
        <time>2021-04-07T06:13:30Z</time>
      </trkpt>
      <trkpt lat="44.51413" lon="6.59176">
        <ele>1604</ele>
        <time>2021-04-07T06:13:31Z</time>
      </trkpt>
      <trkpt lat="44.51414" lon="6.59175">
        <ele>1604</ele>
        <time>2021-04-07T06:13:32Z</time>
      </trkpt>
      <trkpt lat="44.51414" lon="6.59175">
        <ele>1604</ele>
        <time>2021-04-07T06:13:33Z</time>
      </trkpt>
      <trkpt lat="44.51414" lon="6.59175">
        <ele>1604</ele>
        <time>2021-04-07T06:13:34Z</time>
      </trkpt>
      <trkpt lat="44.51413" lon="6.59174">
        <ele>1604</ele>
        <time>2021-04-07T06:13:35Z</time>
      </trkpt>
      <trkpt lat="44.51413" lon="6.59172">
        <ele>1604</ele>
        <time>2021-04-07T06:13:36Z</time>
      </trkpt>
      <trkpt lat="44.51413" lon="6.59171">
        <ele>1606</ele>
        <time>2021-04-07T06:13:37Z</time>
      </trkpt>
      <trkpt lat="44.51413" lon="6.59169">
        <ele>1607</ele>
        <time>2021-04-07T06:13:38Z</time>
      </trkpt>
      <trkpt lat="44.51412" lon="6.59168">
        <ele>1608</ele>
        <time>2021-04-07T06:13:39Z</time>
      </trkpt>
      <trkpt lat="44.51412" lon="6.59167">
        <ele>1608</ele>
        <time>2021-04-07T06:13:40Z</time>
      </trkpt>
      <trkpt lat="44.51412" lon="6.59165">
        <ele>1610</ele>
        <time>2021-04-07T06:13:41Z</time>
      </trkpt>
      <trkpt lat="44.51412" lon="6.59163">
        <ele>1611</ele>
        <time>2021-04-07T06:13:42Z</time>
      </trkpt>
      <trkpt lat="44.51412" lon="6.59161">
        <ele>1611</ele>
        <time>2021-04-07T06:13:43Z</time>
      </trkpt>
      <trkpt lat="44.51412" lon="6.5916">
        <ele>1612</ele>
        <time>2021-04-07T06:13:44Z</time>
      </trkpt>
      <trkpt lat="44.51411" lon="6.59158">
        <ele>1613</ele>
        <time>2021-04-07T06:13:45Z</time>
      </trkpt>
      <trkpt lat="44.5141" lon="6.59157">
        <ele>1613</ele>
        <time>2021-04-07T06:13:46Z</time>
      </trkpt>
      <trkpt lat="44.5141" lon="6.59156">
        <ele>1614</ele>
        <time>2021-04-07T06:13:47Z</time>
      </trkpt>
      <trkpt lat="44.5141" lon="6.59155">
        <ele>1614</ele>
        <time>2021-04-07T06:13:48Z</time>
      </trkpt>
      <trkpt lat="44.5141" lon="6.59154">
        <ele>1614</ele>
        <time>2021-04-07T06:13:49Z</time>
      </trkpt>
      <trkpt lat="44.5141" lon="6.59152">
        <ele>1615</ele>
        <time>2021-04-07T06:13:50Z</time>
      </trkpt>
      <trkpt lat="44.5141" lon="6.5915">
        <ele>1615</ele>
        <time>2021-04-07T06:13:51Z</time>
      </trkpt>
      <trkpt lat="44.5141" lon="6.59149">
        <ele>1615</ele>
        <time>2021-04-07T06:13:52Z</time>
      </trkpt>
      <trkpt lat="44.5141" lon="6.59147">
        <ele>1616</ele>
        <time>2021-04-07T06:13:53Z</time>
      </trkpt>
      <trkpt lat="44.5141" lon="6.59146">
        <ele>1616</ele>
        <time>2021-04-07T06:13:54Z</time>
      </trkpt>
      <trkpt lat="44.5141" lon="6.59145">
        <ele>1616</ele>
        <time>2021-04-07T06:13:55Z</time>
      </trkpt>
      <trkpt lat="44.5141" lon="6.59144">
        <ele>1616</ele>
        <time>2021-04-07T06:13:56Z</time>
      </trkpt>
      <trkpt lat="44.51411" lon="6.59143">
        <ele>1617</ele>
        <time>2021-04-07T06:13:57Z</time>
      </trkpt>
      <trkpt lat="44.51411" lon="6.59141">
        <ele>1617</ele>
        <time>2021-04-07T06:13:58Z</time>
      </trkpt>
      <trkpt lat="44.51411" lon="6.5914">
        <ele>1617</ele>
        <time>2021-04-07T06:13:59Z</time>
      </trkpt>
      <trkpt lat="44.5141" lon="6.59139">
        <ele>1617</ele>
        <time>2021-04-07T06:14:00Z</time>
      </trkpt>
      <trkpt lat="44.5141" lon="6.59137">
        <ele>1618</ele>
        <time>2021-04-07T06:14:01Z</time>
      </trkpt>
      <trkpt lat="44.5141" lon="6.59136">
        <ele>1618</ele>
        <time>2021-04-07T06:14:02Z</time>
      </trkpt>
      <trkpt lat="44.51409" lon="6.59135">
        <ele>1618</ele>
        <time>2021-04-07T06:14:03Z</time>
      </trkpt>
      <trkpt lat="44.51409" lon="6.59133">
        <ele>1618</ele>
        <time>2021-04-07T06:14:04Z</time>
      </trkpt>
      <trkpt lat="44.51409" lon="6.59131">
        <ele>1618</ele>
        <time>2021-04-07T06:14:05Z</time>
      </trkpt>
      <trkpt lat="44.51409" lon="6.59129">
        <ele>1619</ele>
        <time>2021-04-07T06:14:06Z</time>
      </trkpt>
      <trkpt lat="44.51409" lon="6.59128">
        <ele>1619</ele>
        <time>2021-04-07T06:14:07Z</time>
      </trkpt>
      <trkpt lat="44.51409" lon="6.59126">
        <ele>1619</ele>
        <time>2021-04-07T06:14:08Z</time>
      </trkpt>
      <trkpt lat="44.51409" lon="6.59125">
        <ele>1619</ele>
        <time>2021-04-07T06:14:09Z</time>
      </trkpt>
      <trkpt lat="44.51408" lon="6.59124">
        <ele>1619</ele>
        <time>2021-04-07T06:14:10Z</time>
      </trkpt>
      <trkpt lat="44.51408" lon="6.59123">
        <ele>1620</ele>
        <time>2021-04-07T06:14:11Z</time>
      </trkpt>
      <trkpt lat="44.51408" lon="6.59122">
        <ele>1620</ele>
        <time>2021-04-07T06:14:12Z</time>
      </trkpt>
      <trkpt lat="44.51408" lon="6.59121">
        <ele>1620</ele>
        <time>2021-04-07T06:14:13Z</time>
      </trkpt>
      <trkpt lat="44.51407" lon="6.5912">
        <ele>1621</ele>
        <time>2021-04-07T06:14:14Z</time>
      </trkpt>
      <trkpt lat="44.51407" lon="6.59119">
        <ele>1621</ele>
        <time>2021-04-07T06:14:15Z</time>
      </trkpt>
      <trkpt lat="44.51406" lon="6.59118">
        <ele>1621</ele>
        <time>2021-04-07T06:14:16Z</time>
      </trkpt>
      <trkpt lat="44.51406" lon="6.59116">
        <ele>1622</ele>
        <time>2021-04-07T06:14:17Z</time>
      </trkpt>
      <trkpt lat="44.51406" lon="6.59114">
        <ele>1622</ele>
        <time>2021-04-07T06:14:18Z</time>
      </trkpt>
      <trkpt lat="44.51405" lon="6.59112">
        <ele>1621</ele>
        <time>2021-04-07T06:14:19Z</time>
      </trkpt>
      <trkpt lat="44.51405" lon="6.5911">
        <ele>1621</ele>
        <time>2021-04-07T06:14:20Z</time>
      </trkpt>
      <trkpt lat="44.51404" lon="6.59109">
        <ele>1621</ele>
        <time>2021-04-07T06:14:21Z</time>
      </trkpt>
      <trkpt lat="44.51404" lon="6.59107">
        <ele>1621</ele>
        <time>2021-04-07T06:14:22Z</time>
      </trkpt>
      <trkpt lat="44.51403" lon="6.59106">
        <ele>1620</ele>
        <time>2021-04-07T06:14:23Z</time>
      </trkpt>
      <trkpt lat="44.51403" lon="6.59105">
        <ele>1620</ele>
        <time>2021-04-07T06:14:24Z</time>
      </trkpt>
      <trkpt lat="44.51402" lon="6.59104">
        <ele>1620</ele>
        <time>2021-04-07T06:14:25Z</time>
      </trkpt>
      <trkpt lat="44.51401" lon="6.59103">
        <ele>1619</ele>
        <time>2021-04-07T06:14:26Z</time>
      </trkpt>
      <trkpt lat="44.51399" lon="6.59102">
        <ele>1619</ele>
        <time>2021-04-07T06:14:27Z</time>
      </trkpt>
      <trkpt lat="44.51398" lon="6.59101">
        <ele>1619</ele>
        <time>2021-04-07T06:14:28Z</time>
      </trkpt>
      <trkpt lat="44.51397" lon="6.59099">
        <ele>1618</ele>
        <time>2021-04-07T06:14:29Z</time>
      </trkpt>
      <trkpt lat="44.51397" lon="6.59098">
        <ele>1618</ele>
        <time>2021-04-07T06:14:30Z</time>
      </trkpt>
      <trkpt lat="44.51396" lon="6.59097">
        <ele>1618</ele>
        <time>2021-04-07T06:14:31Z</time>
      </trkpt>
      <trkpt lat="44.51395" lon="6.59096">
        <ele>1617</ele>
        <time>2021-04-07T06:14:32Z</time>
      </trkpt>
      <trkpt lat="44.51394" lon="6.59095">
        <ele>1617</ele>
        <time>2021-04-07T06:14:33Z</time>
      </trkpt>
      <trkpt lat="44.51393" lon="6.59095">
        <ele>1617</ele>
        <time>2021-04-07T06:14:34Z</time>
      </trkpt>
      <trkpt lat="44.51392" lon="6.59096">
        <ele>1617</ele>
        <time>2021-04-07T06:14:35Z</time>
      </trkpt>
      <trkpt lat="44.51391" lon="6.59096">
        <ele>1617</ele>
        <time>2021-04-07T06:14:36Z</time>
      </trkpt>
      <trkpt lat="44.5139" lon="6.59096">
        <ele>1617</ele>
        <time>2021-04-07T06:14:37Z</time>
      </trkpt>
      <trkpt lat="44.51389" lon="6.59097">
        <ele>1617</ele>
        <time>2021-04-07T06:14:38Z</time>
      </trkpt>
      <trkpt lat="44.51388" lon="6.59097">
        <ele>1617</ele>
        <time>2021-04-07T06:14:39Z</time>
      </trkpt>
      <trkpt lat="44.51388" lon="6.59098">
        <ele>1617</ele>
        <time>2021-04-07T06:14:40Z</time>
      </trkpt>
      <trkpt lat="44.51388" lon="6.59099">
        <ele>1617</ele>
        <time>2021-04-07T06:14:41Z</time>
      </trkpt>
      <trkpt lat="44.51388" lon="6.591">
        <ele>1617</ele>
        <time>2021-04-07T06:14:42Z</time>
      </trkpt>
      <trkpt lat="44.51388" lon="6.59102">
        <ele>1617</ele>
        <time>2021-04-07T06:14:43Z</time>
      </trkpt>
      <trkpt lat="44.51388" lon="6.59103">
        <ele>1617</ele>
        <time>2021-04-07T06:14:44Z</time>
      </trkpt>
      <trkpt lat="44.51387" lon="6.59105">
        <ele>1618</ele>
        <time>2021-04-07T06:14:45Z</time>
      </trkpt>
      <trkpt lat="44.51388" lon="6.59107">
        <ele>1618</ele>
        <time>2021-04-07T06:14:46Z</time>
      </trkpt>
      <trkpt lat="44.51388" lon="6.59108">
        <ele>1618</ele>
        <time>2021-04-07T06:14:47Z</time>
      </trkpt>
      <trkpt lat="44.51388" lon="6.5911">
        <ele>1619</ele>
        <time>2021-04-07T06:14:48Z</time>
      </trkpt>
      <trkpt lat="44.51388" lon="6.59112">
        <ele>1619</ele>
        <time>2021-04-07T06:14:49Z</time>
      </trkpt>
      <trkpt lat="44.51388" lon="6.59113">
        <ele>1619</ele>
        <time>2021-04-07T06:14:50Z</time>
      </trkpt>
      <trkpt lat="44.51388" lon="6.59115">
        <ele>1619</ele>
        <time>2021-04-07T06:14:51Z</time>
      </trkpt>
      <trkpt lat="44.51389" lon="6.59115">
        <ele>1620</ele>
        <time>2021-04-07T06:14:52Z</time>
      </trkpt>
      <trkpt lat="44.51389" lon="6.59116">
        <ele>1620</ele>
        <time>2021-04-07T06:14:53Z</time>
      </trkpt>
      <trkpt lat="44.5139" lon="6.59117">
        <ele>1620</ele>
        <time>2021-04-07T06:14:54Z</time>
      </trkpt>
      <trkpt lat="44.5139" lon="6.59118">
        <ele>1620</ele>
        <time>2021-04-07T06:14:55Z</time>
      </trkpt>
      <trkpt lat="44.5139" lon="6.59119">
        <ele>1620</ele>
        <time>2021-04-07T06:14:56Z</time>
      </trkpt>
      <trkpt lat="44.51391" lon="6.5912">
        <ele>1620</ele>
        <time>2021-04-07T06:14:57Z</time>
      </trkpt>
      <trkpt lat="44.51392" lon="6.59121">
        <ele>1620</ele>
        <time>2021-04-07T06:14:58Z</time>
      </trkpt>
      <trkpt lat="44.51392" lon="6.59122">
        <ele>1620</ele>
        <time>2021-04-07T06:14:59Z</time>
      </trkpt>
      <trkpt lat="44.51393" lon="6.59122">
        <ele>1620</ele>
        <time>2021-04-07T06:15:00Z</time>
      </trkpt>
      <trkpt lat="44.51393" lon="6.59124">
        <ele>1620</ele>
        <time>2021-04-07T06:15:01Z</time>
      </trkpt>
      <trkpt lat="44.51393" lon="6.59124">
        <ele>1620</ele>
        <time>2021-04-07T06:15:02Z</time>
      </trkpt>
      <trkpt lat="44.51394" lon="6.59125">
        <ele>1619</ele>
        <time>2021-04-07T06:15:03Z</time>
      </trkpt>
      <trkpt lat="44.51394" lon="6.59126">
        <ele>1619</ele>
        <time>2021-04-07T06:15:04Z</time>
      </trkpt>
      <trkpt lat="44.51395" lon="6.59127">
        <ele>1619</ele>
        <time>2021-04-07T06:15:05Z</time>
      </trkpt>
      <trkpt lat="44.51395" lon="6.59128">
        <ele>1619</ele>
        <time>2021-04-07T06:15:06Z</time>
      </trkpt>
      <trkpt lat="44.51395" lon="6.59129">
        <ele>1619</ele>
        <time>2021-04-07T06:15:07Z</time>
      </trkpt>
      <trkpt lat="44.51396" lon="6.5913">
        <ele>1619</ele>
        <time>2021-04-07T06:15:08Z</time>
      </trkpt>
      <trkpt lat="44.51396" lon="6.59131">
        <ele>1619</ele>
        <time>2021-04-07T06:15:09Z</time>
      </trkpt>
      <trkpt lat="44.51397" lon="6.59132">
        <ele>1619</ele>
        <time>2021-04-07T06:15:10Z</time>
      </trkpt>
      <trkpt lat="44.51397" lon="6.59133">
        <ele>1619</ele>
        <time>2021-04-07T06:15:11Z</time>
      </trkpt>
      <trkpt lat="44.51397" lon="6.59133">
        <ele>1619</ele>
        <time>2021-04-07T06:15:12Z</time>
      </trkpt>
      <trkpt lat="44.51397" lon="6.59135">
        <ele>1619</ele>
        <time>2021-04-07T06:15:13Z</time>
      </trkpt>
      <trkpt lat="44.51397" lon="6.59136">
        <ele>1618</ele>
        <time>2021-04-07T06:15:14Z</time>
      </trkpt>
      <trkpt lat="44.51397" lon="6.59137">
        <ele>1618</ele>
        <time>2021-04-07T06:15:15Z</time>
      </trkpt>
      <trkpt lat="44.51397" lon="6.59138">
        <ele>1618</ele>
        <time>2021-04-07T06:15:16Z</time>
      </trkpt>
      <trkpt lat="44.51396" lon="6.59139">
        <ele>1618</ele>
        <time>2021-04-07T06:15:17Z</time>
      </trkpt>
      <trkpt lat="44.51396" lon="6.5914">
        <ele>1616</ele>
        <time>2021-04-07T06:15:18Z</time>
      </trkpt>
      <trkpt lat="44.51396" lon="6.59142">
        <ele>1616</ele>
        <time>2021-04-07T06:15:19Z</time>
      </trkpt>
      <trkpt lat="44.51396" lon="6.59144">
        <ele>1616</ele>
        <time>2021-04-07T06:15:20Z</time>
      </trkpt>
      <trkpt lat="44.51396" lon="6.59146">
        <ele>1616</ele>
        <time>2021-04-07T06:15:21Z</time>
      </trkpt>
      <trkpt lat="44.51396" lon="6.59147">
        <ele>1616</ele>
        <time>2021-04-07T06:15:22Z</time>
      </trkpt>
      <trkpt lat="44.51396" lon="6.59148">
        <ele>1617</ele>
        <time>2021-04-07T06:15:22Z</time>
      </trkpt>
      <trkpt lat="44.51396" lon="6.59149">
        <ele>1617</ele>
        <time>2021-04-07T06:15:23Z</time>
      </trkpt>
      <trkpt lat="44.51396" lon="6.5915">
        <ele>1617</ele>
        <time>2021-04-07T06:15:25Z</time>
      </trkpt>
      <trkpt lat="44.51395" lon="6.59152">
        <ele>1617</ele>
        <time>2021-04-07T06:15:26Z</time>
      </trkpt>
      <trkpt lat="44.51396" lon="6.59152">
        <ele>1618</ele>
        <time>2021-04-07T06:15:27Z</time>
      </trkpt>
      <trkpt lat="44.51396" lon="6.59153">
        <ele>1618</ele>
        <time>2021-04-07T06:15:28Z</time>
      </trkpt>
      <trkpt lat="44.51396" lon="6.59154">
        <ele>1618</ele>
        <time>2021-04-07T06:15:29Z</time>
      </trkpt>
      <trkpt lat="44.51396" lon="6.59156">
        <ele>1618</ele>
        <time>2021-04-07T06:15:30Z</time>
      </trkpt>
      <trkpt lat="44.51395" lon="6.59157">
        <ele>1618</ele>
        <time>2021-04-07T06:15:31Z</time>
      </trkpt>
      <trkpt lat="44.51395" lon="6.59158">
        <ele>1618</ele>
        <time>2021-04-07T06:15:32Z</time>
      </trkpt>
      <trkpt lat="44.51395" lon="6.5916">
        <ele>1618</ele>
        <time>2021-04-07T06:15:33Z</time>
      </trkpt>
      <trkpt lat="44.51395" lon="6.59162">
        <ele>1618</ele>
        <time>2021-04-07T06:15:34Z</time>
      </trkpt>
      <trkpt lat="44.51395" lon="6.59164">
        <ele>1618</ele>
        <time>2021-04-07T06:15:35Z</time>
      </trkpt>
      <trkpt lat="44.51394" lon="6.59166">
        <ele>1618</ele>
        <time>2021-04-07T06:15:36Z</time>
      </trkpt>
      <trkpt lat="44.51394" lon="6.59168">
        <ele>1618</ele>
        <time>2021-04-07T06:15:37Z</time>
      </trkpt>
      <trkpt lat="44.51394" lon="6.59169">
        <ele>1618</ele>
        <time>2021-04-07T06:15:38Z</time>
      </trkpt>
      <trkpt lat="44.51394" lon="6.59171">
        <ele>1618</ele>
        <time>2021-04-07T06:15:39Z</time>
      </trkpt>
      <trkpt lat="44.51394" lon="6.59172">
        <ele>1619</ele>
        <time>2021-04-07T06:15:40Z</time>
      </trkpt>
      <trkpt lat="44.51394" lon="6.59173">
        <ele>1619</ele>
        <time>2021-04-07T06:15:41Z</time>
      </trkpt>
      <trkpt lat="44.51394" lon="6.59174">
        <ele>1619</ele>
        <time>2021-04-07T06:15:42Z</time>
      </trkpt>
      <trkpt lat="44.51394" lon="6.59176">
        <ele>1619</ele>
        <time>2021-04-07T06:15:43Z</time>
      </trkpt>
      <trkpt lat="44.51394" lon="6.59178">
        <ele>1619</ele>
        <time>2021-04-07T06:15:44Z</time>
      </trkpt>
      <trkpt lat="44.51394" lon="6.59179">
        <ele>1619</ele>
        <time>2021-04-07T06:15:45Z</time>
      </trkpt>
      <trkpt lat="44.51394" lon="6.5918">
        <ele>1619</ele>
        <time>2021-04-07T06:15:46Z</time>
      </trkpt>
      <trkpt lat="44.51394" lon="6.59182">
        <ele>1619</ele>
        <time>2021-04-07T06:15:47Z</time>
      </trkpt>
      <trkpt lat="44.51394" lon="6.59183">
        <ele>1619</ele>
        <time>2021-04-07T06:15:48Z</time>
      </trkpt>
      <trkpt lat="44.51394" lon="6.59185">
        <ele>1619</ele>
        <time>2021-04-07T06:15:49Z</time>
      </trkpt>
      <trkpt lat="44.51393" lon="6.59186">
        <ele>1619</ele>
        <time>2021-04-07T06:15:50Z</time>
      </trkpt>
      <trkpt lat="44.51392" lon="6.59187">
        <ele>1619</ele>
        <time>2021-04-07T06:15:51Z</time>
      </trkpt>
      <trkpt lat="44.51391" lon="6.59187">
        <ele>1619</ele>
        <time>2021-04-07T06:15:52Z</time>
      </trkpt>
      <trkpt lat="44.51391" lon="6.59187">
        <ele>1620</ele>
        <time>2021-04-07T06:15:53Z</time>
      </trkpt>
      <trkpt lat="44.5139" lon="6.59188">
        <ele>1620</ele>
        <time>2021-04-07T06:15:54Z</time>
      </trkpt>
      <trkpt lat="44.5139" lon="6.59189">
        <ele>1620</ele>
        <time>2021-04-07T06:15:55Z</time>
      </trkpt>
      <trkpt lat="44.5139" lon="6.5919">
        <ele>1620</ele>
        <time>2021-04-07T06:15:56Z</time>
      </trkpt>
      <trkpt lat="44.5139" lon="6.59191">
        <ele>1620</ele>
        <time>2021-04-07T06:15:57Z</time>
      </trkpt>
      <trkpt lat="44.51391" lon="6.59193">
        <ele>1621</ele>
        <time>2021-04-07T06:15:58Z</time>
      </trkpt>
      <trkpt lat="44.51391" lon="6.59194">
        <ele>1621</ele>
        <time>2021-04-07T06:15:59Z</time>
      </trkpt>
      <trkpt lat="44.51391" lon="6.59195">
        <ele>1621</ele>
        <time>2021-04-07T06:16:00Z</time>
      </trkpt>
      <trkpt lat="44.51391" lon="6.59196">
        <ele>1621</ele>
        <time>2021-04-07T06:16:01Z</time>
      </trkpt>
      <trkpt lat="44.51392" lon="6.59197">
        <ele>1621</ele>
        <time>2021-04-07T06:16:02Z</time>
      </trkpt>
      <trkpt lat="44.51393" lon="6.59198">
        <ele>1622</ele>
        <time>2021-04-07T06:16:03Z</time>
      </trkpt>
      <trkpt lat="44.51393" lon="6.59198">
        <ele>1622</ele>
        <time>2021-04-07T06:16:04Z</time>
      </trkpt>
      <trkpt lat="44.51393" lon="6.59199">
        <ele>1622</ele>
        <time>2021-04-07T06:16:05Z</time>
      </trkpt>
      <trkpt lat="44.51393" lon="6.59201">
        <ele>1622</ele>
        <time>2021-04-07T06:16:06Z</time>
      </trkpt>
      <trkpt lat="44.51394" lon="6.59202">
        <ele>1622</ele>
        <time>2021-04-07T06:16:07Z</time>
      </trkpt>
      <trkpt lat="44.51393" lon="6.59203">
        <ele>1622</ele>
        <time>2021-04-07T06:16:08Z</time>
      </trkpt>
      <trkpt lat="44.51392" lon="6.59205">
        <ele>1622</ele>
        <time>2021-04-07T06:16:09Z</time>
      </trkpt>
      <trkpt lat="44.51392" lon="6.59207">
        <ele>1622</ele>
        <time>2021-04-07T06:16:10Z</time>
      </trkpt>
      <trkpt lat="44.51392" lon="6.59209">
        <ele>1623</ele>
        <time>2021-04-07T06:16:11Z</time>
      </trkpt>
      <trkpt lat="44.51392" lon="6.5921">
        <ele>1623</ele>
        <time>2021-04-07T06:16:12Z</time>
      </trkpt>
      <trkpt lat="44.51393" lon="6.5921">
        <ele>1623</ele>
        <time>2021-04-07T06:16:13Z</time>
      </trkpt>
      <trkpt lat="44.51393" lon="6.59212">
        <ele>1623</ele>
        <time>2021-04-07T06:16:14Z</time>
      </trkpt>
      <trkpt lat="44.51393" lon="6.59214">
        <ele>1624</ele>
        <time>2021-04-07T06:16:15Z</time>
      </trkpt>
      <trkpt lat="44.51392" lon="6.59215">
        <ele>1624</ele>
        <time>2021-04-07T06:16:16Z</time>
      </trkpt>
      <trkpt lat="44.51392" lon="6.59215">
        <ele>1624</ele>
        <time>2021-04-07T06:16:17Z</time>
      </trkpt>
      <trkpt lat="44.51391" lon="6.59215">
        <ele>1624</ele>
        <time>2021-04-07T06:16:18Z</time>
      </trkpt>
      <trkpt lat="44.51391" lon="6.59216">
        <ele>1624</ele>
        <time>2021-04-07T06:16:19Z</time>
      </trkpt>
      <trkpt lat="44.5139" lon="6.59216">
        <ele>1624</ele>
        <time>2021-04-07T06:16:20Z</time>
      </trkpt>
      <trkpt lat="44.5139" lon="6.59216">
        <ele>1624</ele>
        <time>2021-04-07T06:16:21Z</time>
      </trkpt>
      <trkpt lat="44.5139" lon="6.59216">
        <ele>1624</ele>
        <time>2021-04-07T06:16:22Z</time>
      </trkpt>
      <trkpt lat="44.51389" lon="6.59216">
        <ele>1624</ele>
        <time>2021-04-07T06:16:23Z</time>
      </trkpt>
      <trkpt lat="44.51389" lon="6.59216">
        <ele>1624</ele>
        <time>2021-04-07T06:16:24Z</time>
      </trkpt>
      <trkpt lat="44.51388" lon="6.59217">
        <ele>1624</ele>
        <time>2021-04-07T06:16:25Z</time>
      </trkpt>
      <trkpt lat="44.51388" lon="6.59217">
        <ele>1624</ele>
        <time>2021-04-07T06:16:26Z</time>
      </trkpt>
      <trkpt lat="44.51388" lon="6.59219">
        <ele>1625</ele>
        <time>2021-04-07T06:16:27Z</time>
      </trkpt>
      <trkpt lat="44.51388" lon="6.5922">
        <ele>1625</ele>
        <time>2021-04-07T06:16:28Z</time>
      </trkpt>
      <trkpt lat="44.51388" lon="6.59222">
        <ele>1625</ele>
        <time>2021-04-07T06:16:29Z</time>
      </trkpt>
      <trkpt lat="44.51388" lon="6.59223">
        <ele>1626</ele>
        <time>2021-04-07T06:16:30Z</time>
      </trkpt>
      <trkpt lat="44.51388" lon="6.59225">
        <ele>1626</ele>
        <time>2021-04-07T06:16:31Z</time>
      </trkpt>
      <trkpt lat="44.51387" lon="6.59226">
        <ele>1627</ele>
        <time>2021-04-07T06:16:32Z</time>
      </trkpt>
      <trkpt lat="44.51387" lon="6.59227">
        <ele>1627</ele>
        <time>2021-04-07T06:16:33Z</time>
      </trkpt>
      <trkpt lat="44.51387" lon="6.59228">
        <ele>1627</ele>
        <time>2021-04-07T06:16:34Z</time>
      </trkpt>
      <trkpt lat="44.51387" lon="6.59229">
        <ele>1627</ele>
        <time>2021-04-07T06:16:35Z</time>
      </trkpt>
      <trkpt lat="44.51387" lon="6.59229">
        <ele>1628</ele>
        <time>2021-04-07T06:16:36Z</time>
      </trkpt>
      <trkpt lat="44.51388" lon="6.59231">
        <ele>1628</ele>
        <time>2021-04-07T06:16:37Z</time>
      </trkpt>
      <trkpt lat="44.51388" lon="6.59232">
        <ele>1628</ele>
        <time>2021-04-07T06:16:38Z</time>
      </trkpt>
      <trkpt lat="44.51387" lon="6.59233">
        <ele>1628</ele>
        <time>2021-04-07T06:16:39Z</time>
      </trkpt>
      <trkpt lat="44.51387" lon="6.59234">
        <ele>1628</ele>
        <time>2021-04-07T06:16:40Z</time>
      </trkpt>
      <trkpt lat="44.51387" lon="6.59235">
        <ele>1628</ele>
        <time>2021-04-07T06:16:41Z</time>
      </trkpt>
      <trkpt lat="44.51388" lon="6.59237">
        <ele>1627</ele>
        <time>2021-04-07T06:16:42Z</time>
      </trkpt>
      <trkpt lat="44.51387" lon="6.59239">
        <ele>1627</ele>
        <time>2021-04-07T06:16:43Z</time>
      </trkpt>
      <trkpt lat="44.51387" lon="6.59241">
        <ele>1627</ele>
        <time>2021-04-07T06:16:44Z</time>
      </trkpt>
      <trkpt lat="44.51387" lon="6.59242">
        <ele>1627</ele>
        <time>2021-04-07T06:16:45Z</time>
      </trkpt>
      <trkpt lat="44.51386" lon="6.59243">
        <ele>1627</ele>
        <time>2021-04-07T06:16:46Z</time>
      </trkpt>
      <trkpt lat="44.51386" lon="6.59245">
        <ele>1628</ele>
        <time>2021-04-07T06:16:47Z</time>
      </trkpt>
      <trkpt lat="44.51386" lon="6.59246">
        <ele>1628</ele>
        <time>2021-04-07T06:16:48Z</time>
      </trkpt>
      <trkpt lat="44.51386" lon="6.59247">
        <ele>1628</ele>
        <time>2021-04-07T06:16:49Z</time>
      </trkpt>
      <trkpt lat="44.51386" lon="6.59247">
        <ele>1628</ele>
        <time>2021-04-07T06:16:50Z</time>
      </trkpt>
      <trkpt lat="44.51386" lon="6.59247">
        <ele>1629</ele>
        <time>2021-04-07T06:16:51Z</time>
      </trkpt>
      <trkpt lat="44.51385" lon="6.59247">
        <ele>1629</ele>
        <time>2021-04-07T06:16:52Z</time>
      </trkpt>
      <trkpt lat="44.51385" lon="6.59248">
        <ele>1629</ele>
        <time>2021-04-07T06:16:53Z</time>
      </trkpt>
      <trkpt lat="44.51385" lon="6.59247">
        <ele>1629</ele>
        <time>2021-04-07T06:16:54Z</time>
      </trkpt>
      <trkpt lat="44.51385" lon="6.59247">
        <ele>1629</ele>
        <time>2021-04-07T06:16:55Z</time>
      </trkpt>
      <trkpt lat="44.51385" lon="6.59248">
        <ele>1629</ele>
        <time>2021-04-07T06:16:56Z</time>
      </trkpt>
      <trkpt lat="44.51385" lon="6.59248">
        <ele>1629</ele>
        <time>2021-04-07T06:16:57Z</time>
      </trkpt>
      <trkpt lat="44.51385" lon="6.59248">
        <ele>1630</ele>
        <time>2021-04-07T06:16:58Z</time>
      </trkpt>
      <trkpt lat="44.51386" lon="6.59248">
        <ele>1630</ele>
        <time>2021-04-07T06:16:59Z</time>
      </trkpt>
      <trkpt lat="44.51386" lon="6.59248">
        <ele>1630</ele>
        <time>2021-04-07T06:17:00Z</time>
      </trkpt>
      <trkpt lat="44.51386" lon="6.59248">
        <ele>1630</ele>
        <time>2021-04-07T06:17:01Z</time>
      </trkpt>
      <trkpt lat="44.51387" lon="6.59248">
        <ele>1630</ele>
        <time>2021-04-07T06:17:02Z</time>
      </trkpt>
      <trkpt lat="44.51387" lon="6.5925">
        <ele>1632</ele>
        <time>2021-04-07T06:17:03Z</time>
      </trkpt>
      <trkpt lat="44.51387" lon="6.59251">
        <ele>1632</ele>
        <time>2021-04-07T06:17:04Z</time>
      </trkpt>
      <trkpt lat="44.51387" lon="6.59251">
        <ele>1633</ele>
        <time>2021-04-07T06:17:05Z</time>
      </trkpt>
      <trkpt lat="44.51388" lon="6.59252">
        <ele>1633</ele>
        <time>2021-04-07T06:17:06Z</time>
      </trkpt>
      <trkpt lat="44.51388" lon="6.59253">
        <ele>1633</ele>
        <time>2021-04-07T06:17:07Z</time>
      </trkpt>
      <trkpt lat="44.51387" lon="6.59253">
        <ele>1633</ele>
        <time>2021-04-07T06:17:08Z</time>
      </trkpt>
      <trkpt lat="44.51387" lon="6.59254">
        <ele>1633</ele>
        <time>2021-04-07T06:17:09Z</time>
      </trkpt>
      <trkpt lat="44.51388" lon="6.59254">
        <ele>1633</ele>
        <time>2021-04-07T06:17:10Z</time>
      </trkpt>
      <trkpt lat="44.51388" lon="6.59254">
        <ele>1633</ele>
        <time>2021-04-07T06:17:11Z</time>
      </trkpt>
      <trkpt lat="44.51389" lon="6.59256">
        <ele>1633</ele>
        <time>2021-04-07T06:17:12Z</time>
      </trkpt>
      <trkpt lat="44.5139" lon="6.59256">
        <ele>1633</ele>
        <time>2021-04-07T06:17:13Z</time>
      </trkpt>
      <trkpt lat="44.5139" lon="6.59256">
        <ele>1634</ele>
        <time>2021-04-07T06:17:14Z</time>
      </trkpt>
      <trkpt lat="44.51385" lon="6.59253">
        <ele>1634</ele>
        <time>2021-04-07T06:17:15Z</time>
      </trkpt>
      <trkpt lat="44.51385" lon="6.59252">
        <ele>1634</ele>
        <time>2021-04-07T06:17:16Z</time>
      </trkpt>
      <trkpt lat="44.51384" lon="6.59253">
        <ele>1634</ele>
        <time>2021-04-07T06:17:17Z</time>
      </trkpt>
      <trkpt lat="44.51384" lon="6.59253">
        <ele>1634</ele>
        <time>2021-04-07T06:17:18Z</time>
      </trkpt>
      <trkpt lat="44.51382" lon="6.59253">
        <ele>1634</ele>
        <time>2021-04-07T06:17:19Z</time>
      </trkpt>
      <trkpt lat="44.51382" lon="6.59254">
        <ele>1634</ele>
        <time>2021-04-07T06:17:20Z</time>
      </trkpt>
      <trkpt lat="44.51382" lon="6.59253">
        <ele>1634</ele>
        <time>2021-04-07T06:17:21Z</time>
      </trkpt>
      <trkpt lat="44.51382" lon="6.59252">
        <ele>1634</ele>
        <time>2021-04-07T06:17:22Z</time>
      </trkpt>
      <trkpt lat="44.51381" lon="6.59253">
        <ele>1635</ele>
        <time>2021-04-07T06:17:23Z</time>
      </trkpt>
      <trkpt lat="44.51381" lon="6.59254">
        <ele>1635</ele>
        <time>2021-04-07T06:17:24Z</time>
      </trkpt>
      <trkpt lat="44.5138" lon="6.59256">
        <ele>1635</ele>
        <time>2021-04-07T06:17:25Z</time>
      </trkpt>
      <trkpt lat="44.5138" lon="6.59256">
        <ele>1635</ele>
        <time>2021-04-07T06:17:26Z</time>
      </trkpt>
      <trkpt lat="44.51379" lon="6.59257">
        <ele>1635</ele>
        <time>2021-04-07T06:17:27Z</time>
      </trkpt>
      <trkpt lat="44.51379" lon="6.59259">
        <ele>1636</ele>
        <time>2021-04-07T06:17:28Z</time>
      </trkpt>
      <trkpt lat="44.51378" lon="6.5926">
        <ele>1636</ele>
        <time>2021-04-07T06:17:29Z</time>
      </trkpt>
      <trkpt lat="44.51378" lon="6.59261">
        <ele>1636</ele>
        <time>2021-04-07T06:17:30Z</time>
      </trkpt>
      <trkpt lat="44.51377" lon="6.59263">
        <ele>1636</ele>
        <time>2021-04-07T06:17:31Z</time>
      </trkpt>
      <trkpt lat="44.51376" lon="6.59264">
        <ele>1637</ele>
        <time>2021-04-07T06:17:32Z</time>
      </trkpt>
      <trkpt lat="44.51375" lon="6.59265">
        <ele>1637</ele>
        <time>2021-04-07T06:17:33Z</time>
      </trkpt>
      <trkpt lat="44.51375" lon="6.59266">
        <ele>1637</ele>
        <time>2021-04-07T06:17:34Z</time>
      </trkpt>
      <trkpt lat="44.51374" lon="6.59268">
        <ele>1637</ele>
        <time>2021-04-07T06:17:35Z</time>
      </trkpt>
      <trkpt lat="44.51374" lon="6.59269">
        <ele>1638</ele>
        <time>2021-04-07T06:17:36Z</time>
      </trkpt>
      <trkpt lat="44.51374" lon="6.5927">
        <ele>1638</ele>
        <time>2021-04-07T06:17:37Z</time>
      </trkpt>
      <trkpt lat="44.51373" lon="6.59271">
        <ele>1638</ele>
        <time>2021-04-07T06:17:38Z</time>
      </trkpt>
      <trkpt lat="44.51373" lon="6.59273">
        <ele>1638</ele>
        <time>2021-04-07T06:17:39Z</time>
      </trkpt>
      <trkpt lat="44.51372" lon="6.59275">
        <ele>1638</ele>
        <time>2021-04-07T06:17:40Z</time>
      </trkpt>
      <trkpt lat="44.51372" lon="6.59276">
        <ele>1638</ele>
        <time>2021-04-07T06:17:41Z</time>
      </trkpt>
      <trkpt lat="44.51372" lon="6.59278">
        <ele>1638</ele>
        <time>2021-04-07T06:17:42Z</time>
      </trkpt>
      <trkpt lat="44.51372" lon="6.59279">
        <ele>1637</ele>
        <time>2021-04-07T06:17:43Z</time>
      </trkpt>
      <trkpt lat="44.51371" lon="6.59281">
        <ele>1637</ele>
        <time>2021-04-07T06:17:44Z</time>
      </trkpt>
      <trkpt lat="44.5137" lon="6.59282">
        <ele>1637</ele>
        <time>2021-04-07T06:17:45Z</time>
      </trkpt>
      <trkpt lat="44.5137" lon="6.59282">
        <ele>1637</ele>
        <time>2021-04-07T06:17:46Z</time>
      </trkpt>
      <trkpt lat="44.51369" lon="6.59283">
        <ele>1637</ele>
        <time>2021-04-07T06:17:47Z</time>
      </trkpt>
      <trkpt lat="44.51368" lon="6.59284">
        <ele>1637</ele>
        <time>2021-04-07T06:17:48Z</time>
      </trkpt>
      <trkpt lat="44.51368" lon="6.59286">
        <ele>1637</ele>
        <time>2021-04-07T06:17:49Z</time>
      </trkpt>
      <trkpt lat="44.51367" lon="6.59287">
        <ele>1637</ele>
        <time>2021-04-07T06:17:50Z</time>
      </trkpt>
      <trkpt lat="44.51366" lon="6.59288">
        <ele>1637</ele>
        <time>2021-04-07T06:17:51Z</time>
      </trkpt>
      <trkpt lat="44.51365" lon="6.59289">
        <ele>1637</ele>
        <time>2021-04-07T06:17:52Z</time>
      </trkpt>
      <trkpt lat="44.51364" lon="6.5929">
        <ele>1637</ele>
        <time>2021-04-07T06:17:53Z</time>
      </trkpt>
      <trkpt lat="44.51363" lon="6.59291">
        <ele>1638</ele>
        <time>2021-04-07T06:17:54Z</time>
      </trkpt>
      <trkpt lat="44.51363" lon="6.59292">
        <ele>1638</ele>
        <time>2021-04-07T06:17:55Z</time>
      </trkpt>
      <trkpt lat="44.51362" lon="6.59293">
        <ele>1638</ele>
        <time>2021-04-07T06:17:56Z</time>
      </trkpt>
      <trkpt lat="44.51362" lon="6.59294">
        <ele>1638</ele>
        <time>2021-04-07T06:17:57Z</time>
      </trkpt>
      <trkpt lat="44.51362" lon="6.59296">
        <ele>1638</ele>
        <time>2021-04-07T06:17:58Z</time>
      </trkpt>
      <trkpt lat="44.51361" lon="6.59297">
        <ele>1639</ele>
        <time>2021-04-07T06:17:59Z</time>
      </trkpt>
      <trkpt lat="44.51361" lon="6.59299">
        <ele>1639</ele>
        <time>2021-04-07T06:18:00Z</time>
      </trkpt>
      <trkpt lat="44.5136" lon="6.593">
        <ele>1639</ele>
        <time>2021-04-07T06:18:01Z</time>
      </trkpt>
      <trkpt lat="44.51359" lon="6.59301">
        <ele>1639</ele>
        <time>2021-04-07T06:18:02Z</time>
      </trkpt>
      <trkpt lat="44.51359" lon="6.59302">
        <ele>1640</ele>
        <time>2021-04-07T06:18:03Z</time>
      </trkpt>
      <trkpt lat="44.51359" lon="6.59303">
        <ele>1640</ele>
        <time>2021-04-07T06:18:04Z</time>
      </trkpt>
      <trkpt lat="44.51358" lon="6.59304">
        <ele>1640</ele>
        <time>2021-04-07T06:18:05Z</time>
      </trkpt>
      <trkpt lat="44.51358" lon="6.59306">
        <ele>1640</ele>
        <time>2021-04-07T06:18:06Z</time>
      </trkpt>
      <trkpt lat="44.51357" lon="6.59307">
        <ele>1640</ele>
        <time>2021-04-07T06:18:07Z</time>
      </trkpt>
      <trkpt lat="44.51357" lon="6.59308">
        <ele>1640</ele>
        <time>2021-04-07T06:18:08Z</time>
      </trkpt>
      <trkpt lat="44.51356" lon="6.59309">
        <ele>1640</ele>
        <time>2021-04-07T06:18:09Z</time>
      </trkpt>
      <trkpt lat="44.51355" lon="6.59311">
        <ele>1641</ele>
        <time>2021-04-07T06:18:10Z</time>
      </trkpt>
      <trkpt lat="44.51355" lon="6.59312">
        <ele>1641</ele>
        <time>2021-04-07T06:18:11Z</time>
      </trkpt>
      <trkpt lat="44.51356" lon="6.59313">
        <ele>1641</ele>
        <time>2021-04-07T06:18:12Z</time>
      </trkpt>
      <trkpt lat="44.51356" lon="6.59315">
        <ele>1641</ele>
        <time>2021-04-07T06:18:13Z</time>
      </trkpt>
      <trkpt lat="44.51356" lon="6.59315">
        <ele>1642</ele>
        <time>2021-04-07T06:18:14Z</time>
      </trkpt>
      <trkpt lat="44.51356" lon="6.59315">
        <ele>1642</ele>
        <time>2021-04-07T06:18:15Z</time>
      </trkpt>
      <trkpt lat="44.51355" lon="6.59316">
        <ele>1642</ele>
        <time>2021-04-07T06:18:16Z</time>
      </trkpt>
      <trkpt lat="44.51355" lon="6.59317">
        <ele>1642</ele>
        <time>2021-04-07T06:18:17Z</time>
      </trkpt>
      <trkpt lat="44.51354" lon="6.59317">
        <ele>1642</ele>
        <time>2021-04-07T06:18:18Z</time>
      </trkpt>
      <trkpt lat="44.51354" lon="6.59317">
        <ele>1642</ele>
        <time>2021-04-07T06:18:19Z</time>
      </trkpt>
      <trkpt lat="44.51354" lon="6.59318">
        <ele>1642</ele>
        <time>2021-04-07T06:18:20Z</time>
      </trkpt>
      <trkpt lat="44.51354" lon="6.59318">
        <ele>1642</ele>
        <time>2021-04-07T06:18:21Z</time>
      </trkpt>
      <trkpt lat="44.51354" lon="6.59319">
        <ele>1642</ele>
        <time>2021-04-07T06:18:22Z</time>
      </trkpt>
      <trkpt lat="44.51354" lon="6.5932">
        <ele>1642</ele>
        <time>2021-04-07T06:18:23Z</time>
      </trkpt>
      <trkpt lat="44.51354" lon="6.59321">
        <ele>1642</ele>
        <time>2021-04-07T06:18:24Z</time>
      </trkpt>
      <trkpt lat="44.51354" lon="6.59321">
        <ele>1642</ele>
        <time>2021-04-07T06:18:25Z</time>
      </trkpt>
      <trkpt lat="44.51354" lon="6.59322">
        <ele>1642</ele>
        <time>2021-04-07T06:18:26Z</time>
      </trkpt>
      <trkpt lat="44.51354" lon="6.59322">
        <ele>1642</ele>
        <time>2021-04-07T06:18:27Z</time>
      </trkpt>
      <trkpt lat="44.51354" lon="6.59322">
        <ele>1642</ele>
        <time>2021-04-07T06:18:28Z</time>
      </trkpt>
      <trkpt lat="44.51354" lon="6.59322">
        <ele>1642</ele>
        <time>2021-04-07T06:18:29Z</time>
      </trkpt>
      <trkpt lat="44.51354" lon="6.59322">
        <ele>1642</ele>
        <time>2021-04-07T06:18:30Z</time>
      </trkpt>
      <trkpt lat="44.51354" lon="6.59321">
        <ele>1642</ele>
        <time>2021-04-07T06:18:31Z</time>
      </trkpt>
      <trkpt lat="44.51355" lon="6.59321">
        <ele>1642</ele>
        <time>2021-04-07T06:18:32Z</time>
      </trkpt>
      <trkpt lat="44.51355" lon="6.59321">
        <ele>1642</ele>
        <time>2021-04-07T06:18:33Z</time>
      </trkpt>
      <trkpt lat="44.51355" lon="6.59321">
        <ele>1642</ele>
        <time>2021-04-07T06:18:34Z</time>
      </trkpt>
      <trkpt lat="44.51355" lon="6.59321">
        <ele>1642</ele>
        <time>2021-04-07T06:18:35Z</time>
      </trkpt>
      <trkpt lat="44.51355" lon="6.59321">
        <ele>1642</ele>
        <time>2021-04-07T06:18:36Z</time>
      </trkpt>
      <trkpt lat="44.51355" lon="6.59322">
        <ele>1642</ele>
        <time>2021-04-07T06:18:37Z</time>
      </trkpt>
      <trkpt lat="44.51354" lon="6.59322">
        <ele>1642</ele>
        <time>2021-04-07T06:18:38Z</time>
      </trkpt>
      <trkpt lat="44.51354" lon="6.59322">
        <ele>1642</ele>
        <time>2021-04-07T06:18:39Z</time>
      </trkpt>
      <trkpt lat="44.51353" lon="6.59321">
        <ele>1642</ele>
        <time>2021-04-07T06:18:40Z</time>
      </trkpt>
      <trkpt lat="44.51353" lon="6.59321">
        <ele>1642</ele>
        <time>2021-04-07T06:18:41Z</time>
      </trkpt>
      <trkpt lat="44.51353" lon="6.59321">
        <ele>1642</ele>
        <time>2021-04-07T06:18:42Z</time>
      </trkpt>
      <trkpt lat="44.51352" lon="6.59322">
        <ele>1642</ele>
        <time>2021-04-07T06:18:43Z</time>
      </trkpt>
      <trkpt lat="44.51352" lon="6.59322">
        <ele>1642</ele>
        <time>2021-04-07T06:18:44Z</time>
      </trkpt>
      <trkpt lat="44.51352" lon="6.59322">
        <ele>1642</ele>
        <time>2021-04-07T06:18:45Z</time>
      </trkpt>
      <trkpt lat="44.51351" lon="6.59322">
        <ele>1642</ele>
        <time>2021-04-07T06:18:46Z</time>
      </trkpt>
      <trkpt lat="44.51351" lon="6.59322">
        <ele>1642</ele>
        <time>2021-04-07T06:18:47Z</time>
      </trkpt>
      <trkpt lat="44.5135" lon="6.59324">
        <ele>1642</ele>
        <time>2021-04-07T06:18:48Z</time>
      </trkpt>
      <trkpt lat="44.51349" lon="6.59325">
        <ele>1642</ele>
        <time>2021-04-07T06:18:49Z</time>
      </trkpt>
      <trkpt lat="44.51349" lon="6.59325">
        <ele>1641</ele>
        <time>2021-04-07T06:18:50Z</time>
      </trkpt>
      <trkpt lat="44.51348" lon="6.59325">
        <ele>1641</ele>
        <time>2021-04-07T06:18:51Z</time>
      </trkpt>
      <trkpt lat="44.51347" lon="6.59325">
        <ele>1641</ele>
        <time>2021-04-07T06:18:52Z</time>
      </trkpt>
      <trkpt lat="44.51346" lon="6.59325">
        <ele>1640</ele>
        <time>2021-04-07T06:18:53Z</time>
      </trkpt>
      <trkpt lat="44.51345" lon="6.59327">
        <ele>1640</ele>
        <time>2021-04-07T06:18:54Z</time>
      </trkpt>
      <trkpt lat="44.51344" lon="6.59328">
        <ele>1640</ele>
        <time>2021-04-07T06:18:55Z</time>
      </trkpt>
      <trkpt lat="44.51342" lon="6.5933">
        <ele>1639</ele>
        <time>2021-04-07T06:18:56Z</time>
      </trkpt>
      <trkpt lat="44.5134" lon="6.59331">
        <ele>1639</ele>
        <time>2021-04-07T06:18:57Z</time>
      </trkpt>
      <trkpt lat="44.51339" lon="6.59333">
        <ele>1639</ele>
        <time>2021-04-07T06:18:58Z</time>
      </trkpt>
      <trkpt lat="44.51338" lon="6.59334">
        <ele>1639</ele>
        <time>2021-04-07T06:18:59Z</time>
      </trkpt>
      <trkpt lat="44.51336" lon="6.59336">
        <ele>1640</ele>
        <time>2021-04-07T06:19:00Z</time>
      </trkpt>
      <trkpt lat="44.51335" lon="6.59337">
        <ele>1640</ele>
        <time>2021-04-07T06:19:01Z</time>
      </trkpt>
      <trkpt lat="44.51334" lon="6.59339">
        <ele>1641</ele>
        <time>2021-04-07T06:19:02Z</time>
      </trkpt>
      <trkpt lat="44.51333" lon="6.5934">
        <ele>1642</ele>
        <time>2021-04-07T06:19:03Z</time>
      </trkpt>
      <trkpt lat="44.51332" lon="6.59341">
        <ele>1642</ele>
        <time>2021-04-07T06:19:04Z</time>
      </trkpt>
      <trkpt lat="44.51332" lon="6.59342">
        <ele>1642</ele>
        <time>2021-04-07T06:19:05Z</time>
      </trkpt>
      <trkpt lat="44.51332" lon="6.59343">
        <ele>1643</ele>
        <time>2021-04-07T06:19:06Z</time>
      </trkpt>
      <trkpt lat="44.51332" lon="6.59344">
        <ele>1643</ele>
        <time>2021-04-07T06:19:07Z</time>
      </trkpt>
      <trkpt lat="44.51332" lon="6.59345">
        <ele>1645</ele>
        <time>2021-04-07T06:19:08Z</time>
      </trkpt>
      <trkpt lat="44.51331" lon="6.59347">
        <ele>1646</ele>
        <time>2021-04-07T06:19:09Z</time>
      </trkpt>
      <trkpt lat="44.5133" lon="6.59349">
        <ele>1647</ele>
        <time>2021-04-07T06:19:10Z</time>
      </trkpt>
      <trkpt lat="44.5133" lon="6.5935">
        <ele>1647</ele>
        <time>2021-04-07T06:19:11Z</time>
      </trkpt>
      <trkpt lat="44.51331" lon="6.59351">
        <ele>1648</ele>
        <time>2021-04-07T06:19:12Z</time>
      </trkpt>
      <trkpt lat="44.51331" lon="6.59351">
        <ele>1648</ele>
        <time>2021-04-07T06:19:13Z</time>
      </trkpt>
      <trkpt lat="44.51331" lon="6.59351">
        <ele>1650</ele>
        <time>2021-04-07T06:19:14Z</time>
      </trkpt>
      <trkpt lat="44.5133" lon="6.59352">
        <ele>1651</ele>
        <time>2021-04-07T06:19:15Z</time>
      </trkpt>
      <trkpt lat="44.5133" lon="6.59352">
        <ele>1652</ele>
        <time>2021-04-07T06:19:16Z</time>
      </trkpt>
      <trkpt lat="44.51329" lon="6.59353">
        <ele>1652</ele>
        <time>2021-04-07T06:19:17Z</time>
      </trkpt>
      <trkpt lat="44.51329" lon="6.59354">
        <ele>1653</ele>
        <time>2021-04-07T06:19:18Z</time>
      </trkpt>
      <trkpt lat="44.51328" lon="6.59354">
        <ele>1653</ele>
        <time>2021-04-07T06:19:19Z</time>
      </trkpt>
      <trkpt lat="44.51327" lon="6.59355">
        <ele>1653</ele>
        <time>2021-04-07T06:19:20Z</time>
      </trkpt>
      <trkpt lat="44.51326" lon="6.59355">
        <ele>1653</ele>
        <time>2021-04-07T06:19:21Z</time>
      </trkpt>
      <trkpt lat="44.51325" lon="6.59356">
        <ele>1653</ele>
        <time>2021-04-07T06:19:22Z</time>
      </trkpt>
      <trkpt lat="44.51324" lon="6.59357">
        <ele>1653</ele>
        <time>2021-04-07T06:19:23Z</time>
      </trkpt>
      <trkpt lat="44.51324" lon="6.59358">
        <ele>1653</ele>
        <time>2021-04-07T06:19:24Z</time>
      </trkpt>
      <trkpt lat="44.51324" lon="6.5936">
        <ele>1653</ele>
        <time>2021-04-07T06:19:25Z</time>
      </trkpt>
      <trkpt lat="44.51323" lon="6.59361">
        <ele>1653</ele>
        <time>2021-04-07T06:19:26Z</time>
      </trkpt>
      <trkpt lat="44.51322" lon="6.59362">
        <ele>1653</ele>
        <time>2021-04-07T06:19:27Z</time>
      </trkpt>
      <trkpt lat="44.51322" lon="6.59363">
        <ele>1653</ele>
        <time>2021-04-07T06:19:28Z</time>
      </trkpt>
      <trkpt lat="44.51321" lon="6.59363">
        <ele>1653</ele>
        <time>2021-04-07T06:19:29Z</time>
      </trkpt>
      <trkpt lat="44.51321" lon="6.59364">
        <ele>1653</ele>
        <time>2021-04-07T06:19:30Z</time>
      </trkpt>
      <trkpt lat="44.5132" lon="6.59365">
        <ele>1654</ele>
        <time>2021-04-07T06:19:31Z</time>
      </trkpt>
      <trkpt lat="44.51319" lon="6.59366">
        <ele>1654</ele>
        <time>2021-04-07T06:19:32Z</time>
      </trkpt>
      <trkpt lat="44.51318" lon="6.59367">
        <ele>1654</ele>
        <time>2021-04-07T06:19:33Z</time>
      </trkpt>
      <trkpt lat="44.51318" lon="6.59368">
        <ele>1654</ele>
        <time>2021-04-07T06:19:34Z</time>
      </trkpt>
      <trkpt lat="44.51318" lon="6.59369">
        <ele>1655</ele>
        <time>2021-04-07T06:19:35Z</time>
      </trkpt>
      <trkpt lat="44.51318" lon="6.5937">
        <ele>1655</ele>
        <time>2021-04-07T06:19:36Z</time>
      </trkpt>
      <trkpt lat="44.51317" lon="6.5937">
        <ele>1655</ele>
        <time>2021-04-07T06:19:37Z</time>
      </trkpt>
      <trkpt lat="44.51317" lon="6.59372">
        <ele>1655</ele>
        <time>2021-04-07T06:19:38Z</time>
      </trkpt>
      <trkpt lat="44.51318" lon="6.59373">
        <ele>1655</ele>
        <time>2021-04-07T06:19:39Z</time>
      </trkpt>
      <trkpt lat="44.51317" lon="6.59375">
        <ele>1655</ele>
        <time>2021-04-07T06:19:40Z</time>
      </trkpt>
      <trkpt lat="44.51317" lon="6.59377">
        <ele>1655</ele>
        <time>2021-04-07T06:19:41Z</time>
      </trkpt>
      <trkpt lat="44.51316" lon="6.59378">
        <ele>1655</ele>
        <time>2021-04-07T06:19:42Z</time>
      </trkpt>
      <trkpt lat="44.51315" lon="6.59379">
        <ele>1654</ele>
        <time>2021-04-07T06:19:43Z</time>
      </trkpt>
      <trkpt lat="44.51315" lon="6.5938">
        <ele>1654</ele>
        <time>2021-04-07T06:19:44Z</time>
      </trkpt>
      <trkpt lat="44.51315" lon="6.59381">
        <ele>1654</ele>
        <time>2021-04-07T06:19:45Z</time>
      </trkpt>
      <trkpt lat="44.51315" lon="6.59383">
        <ele>1654</ele>
        <time>2021-04-07T06:19:46Z</time>
      </trkpt>
      <trkpt lat="44.51315" lon="6.59385">
        <ele>1654</ele>
        <time>2021-04-07T06:19:47Z</time>
      </trkpt>
      <trkpt lat="44.51315" lon="6.59387">
        <ele>1654</ele>
        <time>2021-04-07T06:19:48Z</time>
      </trkpt>
      <trkpt lat="44.51315" lon="6.59388">
        <ele>1654</ele>
        <time>2021-04-07T06:19:49Z</time>
      </trkpt>
      <trkpt lat="44.51315" lon="6.5939">
        <ele>1654</ele>
        <time>2021-04-07T06:19:50Z</time>
      </trkpt>
      <trkpt lat="44.51315" lon="6.59392">
        <ele>1654</ele>
        <time>2021-04-07T06:19:51Z</time>
      </trkpt>
      <trkpt lat="44.51316" lon="6.59393">
        <ele>1654</ele>
        <time>2021-04-07T06:19:52Z</time>
      </trkpt>
      <trkpt lat="44.51316" lon="6.59395">
        <ele>1654</ele>
        <time>2021-04-07T06:19:53Z</time>
      </trkpt>
      <trkpt lat="44.51316" lon="6.59397">
        <ele>1654</ele>
        <time>2021-04-07T06:19:54Z</time>
      </trkpt>
      <trkpt lat="44.51316" lon="6.59399">
        <ele>1655</ele>
        <time>2021-04-07T06:19:55Z</time>
      </trkpt>
      <trkpt lat="44.51316" lon="6.594">
        <ele>1655</ele>
        <time>2021-04-07T06:19:56Z</time>
      </trkpt>
      <trkpt lat="44.51315" lon="6.59401">
        <ele>1656</ele>
        <time>2021-04-07T06:19:57Z</time>
      </trkpt>
      <trkpt lat="44.51315" lon="6.59402">
        <ele>1656</ele>
        <time>2021-04-07T06:19:58Z</time>
      </trkpt>
      <trkpt lat="44.51315" lon="6.59403">
        <ele>1656</ele>
        <time>2021-04-07T06:19:59Z</time>
      </trkpt>
      <trkpt lat="44.51315" lon="6.59405">
        <ele>1657</ele>
        <time>2021-04-07T06:20:00Z</time>
      </trkpt>
      <trkpt lat="44.51315" lon="6.59406">
        <ele>1657</ele>
        <time>2021-04-07T06:20:01Z</time>
      </trkpt>
      <trkpt lat="44.51315" lon="6.59408">
        <ele>1657</ele>
        <time>2021-04-07T06:20:02Z</time>
      </trkpt>
      <trkpt lat="44.51316" lon="6.59409">
        <ele>1658</ele>
        <time>2021-04-07T06:20:03Z</time>
      </trkpt>
      <trkpt lat="44.51316" lon="6.59411">
        <ele>1658</ele>
        <time>2021-04-07T06:20:04Z</time>
      </trkpt>
      <trkpt lat="44.51317" lon="6.59411">
        <ele>1659</ele>
        <time>2021-04-07T06:20:05Z</time>
      </trkpt>
      <trkpt lat="44.51317" lon="6.59412">
        <ele>1659</ele>
        <time>2021-04-07T06:20:06Z</time>
      </trkpt>
      <trkpt lat="44.51318" lon="6.59413">
        <ele>1659</ele>
        <time>2021-04-07T06:20:07Z</time>
      </trkpt>
      <trkpt lat="44.51319" lon="6.59414">
        <ele>1659</ele>
        <time>2021-04-07T06:20:08Z</time>
      </trkpt>
      <trkpt lat="44.5132" lon="6.59414">
        <ele>1660</ele>
        <time>2021-04-07T06:20:09Z</time>
      </trkpt>
      <trkpt lat="44.51321" lon="6.59415">
        <ele>1660</ele>
        <time>2021-04-07T06:20:10Z</time>
      </trkpt>
      <trkpt lat="44.51322" lon="6.59415">
        <ele>1660</ele>
        <time>2021-04-07T06:20:11Z</time>
      </trkpt>
      <trkpt lat="44.51322" lon="6.59416">
        <ele>1660</ele>
        <time>2021-04-07T06:20:12Z</time>
      </trkpt>
      <trkpt lat="44.51322" lon="6.59417">
        <ele>1660</ele>
        <time>2021-04-07T06:20:13Z</time>
      </trkpt>
      <trkpt lat="44.51323" lon="6.59418">
        <ele>1660</ele>
        <time>2021-04-07T06:20:14Z</time>
      </trkpt>
      <trkpt lat="44.51324" lon="6.59418">
        <ele>1661</ele>
        <time>2021-04-07T06:20:15Z</time>
      </trkpt>
      <trkpt lat="44.51324" lon="6.59419">
        <ele>1661</ele>
        <time>2021-04-07T06:20:16Z</time>
      </trkpt>
      <trkpt lat="44.51324" lon="6.5942">
        <ele>1661</ele>
        <time>2021-04-07T06:20:17Z</time>
      </trkpt>
      <trkpt lat="44.51325" lon="6.59421">
        <ele>1661</ele>
        <time>2021-04-07T06:20:18Z</time>
      </trkpt>
      <trkpt lat="44.51326" lon="6.59422">
        <ele>1661</ele>
        <time>2021-04-07T06:20:19Z</time>
      </trkpt>
      <trkpt lat="44.51327" lon="6.59423">
        <ele>1660</ele>
        <time>2021-04-07T06:20:20Z</time>
      </trkpt>
      <trkpt lat="44.51327" lon="6.59424">
        <ele>1660</ele>
        <time>2021-04-07T06:20:21Z</time>
      </trkpt>
      <trkpt lat="44.51328" lon="6.59425">
        <ele>1659</ele>
        <time>2021-04-07T06:20:22Z</time>
      </trkpt>
      <trkpt lat="44.51328" lon="6.59425">
        <ele>1659</ele>
        <time>2021-04-07T06:20:23Z</time>
      </trkpt>
      <trkpt lat="44.51329" lon="6.59425">
        <ele>1659</ele>
        <time>2021-04-07T06:20:24Z</time>
      </trkpt>
      <trkpt lat="44.5133" lon="6.59426">
        <ele>1659</ele>
        <time>2021-04-07T06:20:25Z</time>
      </trkpt>
      <trkpt lat="44.5133" lon="6.59426">
        <ele>1658</ele>
        <time>2021-04-07T06:20:26Z</time>
      </trkpt>
      <trkpt lat="44.51331" lon="6.59426">
        <ele>1657</ele>
        <time>2021-04-07T06:20:27Z</time>
      </trkpt>
      <trkpt lat="44.51332" lon="6.59426">
        <ele>1657</ele>
        <time>2021-04-07T06:20:28Z</time>
      </trkpt>
      <trkpt lat="44.51333" lon="6.59427">
        <ele>1657</ele>
        <time>2021-04-07T06:20:29Z</time>
      </trkpt>
      <trkpt lat="44.51333" lon="6.59427">
        <ele>1657</ele>
        <time>2021-04-07T06:20:30Z</time>
      </trkpt>
      <trkpt lat="44.51333" lon="6.59428">
        <ele>1657</ele>
        <time>2021-04-07T06:20:31Z</time>
      </trkpt>
      <trkpt lat="44.51334" lon="6.59429">
        <ele>1656</ele>
        <time>2021-04-07T06:20:32Z</time>
      </trkpt>
      <trkpt lat="44.51334" lon="6.5943">
        <ele>1656</ele>
        <time>2021-04-07T06:20:33Z</time>
      </trkpt>
      <trkpt lat="44.51335" lon="6.59431">
        <ele>1656</ele>
        <time>2021-04-07T06:20:34Z</time>
      </trkpt>
      <trkpt lat="44.51336" lon="6.59431">
        <ele>1656</ele>
        <time>2021-04-07T06:20:35Z</time>
      </trkpt>
      <trkpt lat="44.51336" lon="6.59431">
        <ele>1656</ele>
        <time>2021-04-07T06:20:36Z</time>
      </trkpt>
      <trkpt lat="44.51337" lon="6.59431">
        <ele>1655</ele>
        <time>2021-04-07T06:20:37Z</time>
      </trkpt>
      <trkpt lat="44.51338" lon="6.59431">
        <ele>1655</ele>
        <time>2021-04-07T06:20:38Z</time>
      </trkpt>
      <trkpt lat="44.51339" lon="6.59431">
        <ele>1655</ele>
        <time>2021-04-07T06:20:39Z</time>
      </trkpt>
      <trkpt lat="44.51339" lon="6.59431">
        <ele>1655</ele>
        <time>2021-04-07T06:20:40Z</time>
      </trkpt>
      <trkpt lat="44.5134" lon="6.59432">
        <ele>1655</ele>
        <time>2021-04-07T06:20:41Z</time>
      </trkpt>
      <trkpt lat="44.51339" lon="6.59433">
        <ele>1655</ele>
        <time>2021-04-07T06:20:42Z</time>
      </trkpt>
      <trkpt lat="44.51339" lon="6.59434">
        <ele>1655</ele>
        <time>2021-04-07T06:20:43Z</time>
      </trkpt>
      <trkpt lat="44.51339" lon="6.59435">
        <ele>1655</ele>
        <time>2021-04-07T06:20:44Z</time>
      </trkpt>
      <trkpt lat="44.51339" lon="6.59436">
        <ele>1655</ele>
        <time>2021-04-07T06:20:45Z</time>
      </trkpt>
      <trkpt lat="44.51339" lon="6.59437">
        <ele>1655</ele>
        <time>2021-04-07T06:20:46Z</time>
      </trkpt>
      <trkpt lat="44.51339" lon="6.59439">
        <ele>1654</ele>
        <time>2021-04-07T06:20:47Z</time>
      </trkpt>
      <trkpt lat="44.51339" lon="6.59441">
        <ele>1654</ele>
        <time>2021-04-07T06:20:48Z</time>
      </trkpt>
      <trkpt lat="44.5134" lon="6.59441">
        <ele>1654</ele>
        <time>2021-04-07T06:20:49Z</time>
      </trkpt>
      <trkpt lat="44.5134" lon="6.59442">
        <ele>1654</ele>
        <time>2021-04-07T06:20:50Z</time>
      </trkpt>
      <trkpt lat="44.51342" lon="6.59443">
        <ele>1655</ele>
        <time>2021-04-07T06:20:51Z</time>
      </trkpt>
      <trkpt lat="44.51342" lon="6.59444">
        <ele>1655</ele>
        <time>2021-04-07T06:20:52Z</time>
      </trkpt>
      <trkpt lat="44.51342" lon="6.59444">
        <ele>1655</ele>
        <time>2021-04-07T06:20:53Z</time>
      </trkpt>
      <trkpt lat="44.51342" lon="6.59444">
        <ele>1655</ele>
        <time>2021-04-07T06:20:54Z</time>
      </trkpt>
      <trkpt lat="44.51343" lon="6.59445">
        <ele>1655</ele>
        <time>2021-04-07T06:20:55Z</time>
      </trkpt>
      <trkpt lat="44.51343" lon="6.59446">
        <ele>1655</ele>
        <time>2021-04-07T06:20:56Z</time>
      </trkpt>
      <trkpt lat="44.51343" lon="6.59448">
        <ele>1655</ele>
        <time>2021-04-07T06:20:57Z</time>
      </trkpt>
      <trkpt lat="44.51343" lon="6.59448">
        <ele>1655</ele>
        <time>2021-04-07T06:20:58Z</time>
      </trkpt>
      <trkpt lat="44.51344" lon="6.59449">
        <ele>1655</ele>
        <time>2021-04-07T06:20:59Z</time>
      </trkpt>
      <trkpt lat="44.51344" lon="6.5945">
        <ele>1655</ele>
        <time>2021-04-07T06:21:00Z</time>
      </trkpt>
      <trkpt lat="44.51347" lon="6.5945">
        <ele>1655</ele>
        <time>2021-04-07T06:21:01Z</time>
      </trkpt>
      <trkpt lat="44.51348" lon="6.59451">
        <ele>1655</ele>
        <time>2021-04-07T06:21:02Z</time>
      </trkpt>
      <trkpt lat="44.51349" lon="6.59452">
        <ele>1655</ele>
        <time>2021-04-07T06:21:03Z</time>
      </trkpt>
      <trkpt lat="44.51351" lon="6.59453">
        <ele>1655</ele>
        <time>2021-04-07T06:21:04Z</time>
      </trkpt>
      <trkpt lat="44.51352" lon="6.59453">
        <ele>1655</ele>
        <time>2021-04-07T06:21:05Z</time>
      </trkpt>
      <trkpt lat="44.51353" lon="6.59454">
        <ele>1655</ele>
        <time>2021-04-07T06:21:06Z</time>
      </trkpt>
      <trkpt lat="44.51354" lon="6.59455">
        <ele>1655</ele>
        <time>2021-04-07T06:21:07Z</time>
      </trkpt>
      <trkpt lat="44.51355" lon="6.59456">
        <ele>1655</ele>
        <time>2021-04-07T06:21:08Z</time>
      </trkpt>
      <trkpt lat="44.51356" lon="6.59458">
        <ele>1655</ele>
        <time>2021-04-07T06:21:09Z</time>
      </trkpt>
      <trkpt lat="44.51356" lon="6.59459">
        <ele>1655</ele>
        <time>2021-04-07T06:21:10Z</time>
      </trkpt>
      <trkpt lat="44.51357" lon="6.59461">
        <ele>1656</ele>
        <time>2021-04-07T06:21:11Z</time>
      </trkpt>
      <trkpt lat="44.51357" lon="6.59462">
        <ele>1656</ele>
        <time>2021-04-07T06:21:12Z</time>
      </trkpt>
      <trkpt lat="44.51357" lon="6.59463">
        <ele>1656</ele>
        <time>2021-04-07T06:21:13Z</time>
      </trkpt>
      <trkpt lat="44.51358" lon="6.59465">
        <ele>1657</ele>
        <time>2021-04-07T06:21:14Z</time>
      </trkpt>
      <trkpt lat="44.51358" lon="6.59466">
        <ele>1657</ele>
        <time>2021-04-07T06:21:15Z</time>
      </trkpt>
      <trkpt lat="44.51358" lon="6.59468">
        <ele>1657</ele>
        <time>2021-04-07T06:21:16Z</time>
      </trkpt>
      <trkpt lat="44.51359" lon="6.59469">
        <ele>1658</ele>
        <time>2021-04-07T06:21:17Z</time>
      </trkpt>
      <trkpt lat="44.51359" lon="6.59469">
        <ele>1658</ele>
        <time>2021-04-07T06:21:18Z</time>
      </trkpt>
      <trkpt lat="44.51359" lon="6.5947">
        <ele>1658</ele>
        <time>2021-04-07T06:21:19Z</time>
      </trkpt>
      <trkpt lat="44.51358" lon="6.59471">
        <ele>1658</ele>
        <time>2021-04-07T06:21:20Z</time>
      </trkpt>
      <trkpt lat="44.51359" lon="6.59472">
        <ele>1657</ele>
        <time>2021-04-07T06:21:21Z</time>
      </trkpt>
      <trkpt lat="44.5136" lon="6.59473">
        <ele>1657</ele>
        <time>2021-04-07T06:21:22Z</time>
      </trkpt>
      <trkpt lat="44.51359" lon="6.59474">
        <ele>1657</ele>
        <time>2021-04-07T06:21:23Z</time>
      </trkpt>
      <trkpt lat="44.51359" lon="6.59475">
        <ele>1657</ele>
        <time>2021-04-07T06:21:24Z</time>
      </trkpt>
      <trkpt lat="44.5136" lon="6.59477">
        <ele>1656</ele>
        <time>2021-04-07T06:21:25Z</time>
      </trkpt>
      <trkpt lat="44.5136" lon="6.59478">
        <ele>1656</ele>
        <time>2021-04-07T06:21:26Z</time>
      </trkpt>
      <trkpt lat="44.5136" lon="6.59479">
        <ele>1655</ele>
        <time>2021-04-07T06:21:27Z</time>
      </trkpt>
      <trkpt lat="44.51361" lon="6.5948">
        <ele>1655</ele>
        <time>2021-04-07T06:21:28Z</time>
      </trkpt>
      <trkpt lat="44.51362" lon="6.59481">
        <ele>1654</ele>
        <time>2021-04-07T06:21:29Z</time>
      </trkpt>
      <trkpt lat="44.51362" lon="6.59482">
        <ele>1654</ele>
        <time>2021-04-07T06:21:30Z</time>
      </trkpt>
      <trkpt lat="44.51362" lon="6.59483">
        <ele>1654</ele>
        <time>2021-04-07T06:21:31Z</time>
      </trkpt>
      <trkpt lat="44.51361" lon="6.59484">
        <ele>1653</ele>
        <time>2021-04-07T06:21:32Z</time>
      </trkpt>
      <trkpt lat="44.51361" lon="6.59486">
        <ele>1652</ele>
        <time>2021-04-07T06:21:33Z</time>
      </trkpt>
      <trkpt lat="44.51361" lon="6.59487">
        <ele>1652</ele>
        <time>2021-04-07T06:21:34Z</time>
      </trkpt>
      <trkpt lat="44.51361" lon="6.59488">
        <ele>1651</ele>
        <time>2021-04-07T06:21:35Z</time>
      </trkpt>
      <trkpt lat="44.51362" lon="6.59491">
        <ele>1651</ele>
        <time>2021-04-07T06:21:36Z</time>
      </trkpt>
      <trkpt lat="44.51362" lon="6.59492">
        <ele>1651</ele>
        <time>2021-04-07T06:21:37Z</time>
      </trkpt>
      <trkpt lat="44.51362" lon="6.59494">
        <ele>1650</ele>
        <time>2021-04-07T06:21:38Z</time>
      </trkpt>
      <trkpt lat="44.51362" lon="6.59495">
        <ele>1650</ele>
        <time>2021-04-07T06:21:39Z</time>
      </trkpt>
      <trkpt lat="44.51362" lon="6.59498">
        <ele>1650</ele>
        <time>2021-04-07T06:21:40Z</time>
      </trkpt>
      <trkpt lat="44.51361" lon="6.59499">
        <ele>1650</ele>
        <time>2021-04-07T06:21:41Z</time>
      </trkpt>
      <trkpt lat="44.51361" lon="6.595">
        <ele>1650</ele>
        <time>2021-04-07T06:21:42Z</time>
      </trkpt>
      <trkpt lat="44.5136" lon="6.59502">
        <ele>1650</ele>
        <time>2021-04-07T06:21:43Z</time>
      </trkpt>
      <trkpt lat="44.51359" lon="6.59503">
        <ele>1649</ele>
        <time>2021-04-07T06:21:44Z</time>
      </trkpt>
      <trkpt lat="44.51359" lon="6.59505">
        <ele>1649</ele>
        <time>2021-04-07T06:21:45Z</time>
      </trkpt>
      <trkpt lat="44.51359" lon="6.59506">
        <ele>1649</ele>
        <time>2021-04-07T06:21:46Z</time>
      </trkpt>
      <trkpt lat="44.51359" lon="6.59507">
        <ele>1648</ele>
        <time>2021-04-07T06:21:47Z</time>
      </trkpt>
      <trkpt lat="44.51359" lon="6.59508">
        <ele>1648</ele>
        <time>2021-04-07T06:21:48Z</time>
      </trkpt>
      <trkpt lat="44.51359" lon="6.59509">
        <ele>1648</ele>
        <time>2021-04-07T06:21:49Z</time>
      </trkpt>
      <trkpt lat="44.51359" lon="6.59511">
        <ele>1648</ele>
        <time>2021-04-07T06:21:50Z</time>
      </trkpt>
      <trkpt lat="44.51359" lon="6.59511">
        <ele>1648</ele>
        <time>2021-04-07T06:21:51Z</time>
      </trkpt>
      <trkpt lat="44.51359" lon="6.59512">
        <ele>1648</ele>
        <time>2021-04-07T06:21:52Z</time>
      </trkpt>
      <trkpt lat="44.51359" lon="6.59513">
        <ele>1648</ele>
        <time>2021-04-07T06:21:53Z</time>
      </trkpt>
      <trkpt lat="44.51359" lon="6.59515">
        <ele>1648</ele>
        <time>2021-04-07T06:21:54Z</time>
      </trkpt>
      <trkpt lat="44.51358" lon="6.59516">
        <ele>1648</ele>
        <time>2021-04-07T06:21:55Z</time>
      </trkpt>
      <trkpt lat="44.51358" lon="6.59517">
        <ele>1648</ele>
        <time>2021-04-07T06:21:56Z</time>
      </trkpt>
      <trkpt lat="44.51357" lon="6.59518">
        <ele>1649</ele>
        <time>2021-04-07T06:21:57Z</time>
      </trkpt>
      <trkpt lat="44.51357" lon="6.59519">
        <ele>1649</ele>
        <time>2021-04-07T06:21:58Z</time>
      </trkpt>
      <trkpt lat="44.51357" lon="6.59521">
        <ele>1649</ele>
        <time>2021-04-07T06:21:59Z</time>
      </trkpt>
      <trkpt lat="44.51357" lon="6.59522">
        <ele>1649</ele>
        <time>2021-04-07T06:22:00Z</time>
      </trkpt>
      <trkpt lat="44.51357" lon="6.59523">
        <ele>1649</ele>
        <time>2021-04-07T06:22:01Z</time>
      </trkpt>
      <trkpt lat="44.51357" lon="6.59524">
        <ele>1650</ele>
        <time>2021-04-07T06:22:02Z</time>
      </trkpt>
      <trkpt lat="44.51356" lon="6.59526">
        <ele>1650</ele>
        <time>2021-04-07T06:22:03Z</time>
      </trkpt>
      <trkpt lat="44.51356" lon="6.59527">
        <ele>1650</ele>
        <time>2021-04-07T06:22:04Z</time>
      </trkpt>
      <trkpt lat="44.51356" lon="6.59529">
        <ele>1651</ele>
        <time>2021-04-07T06:22:05Z</time>
      </trkpt>
      <trkpt lat="44.51356" lon="6.59531">
        <ele>1651</ele>
        <time>2021-04-07T06:22:06Z</time>
      </trkpt>
      <trkpt lat="44.51356" lon="6.59532">
        <ele>1652</ele>
        <time>2021-04-07T06:22:07Z</time>
      </trkpt>
      <trkpt lat="44.51356" lon="6.59534">
        <ele>1652</ele>
        <time>2021-04-07T06:22:08Z</time>
      </trkpt>
      <trkpt lat="44.51356" lon="6.59535">
        <ele>1652</ele>
        <time>2021-04-07T06:22:09Z</time>
      </trkpt>
      <trkpt lat="44.51357" lon="6.59536">
        <ele>1652</ele>
        <time>2021-04-07T06:22:10Z</time>
      </trkpt>
      <trkpt lat="44.51357" lon="6.59537">
        <ele>1653</ele>
        <time>2021-04-07T06:22:11Z</time>
      </trkpt>
      <trkpt lat="44.51357" lon="6.59537">
        <ele>1653</ele>
        <time>2021-04-07T06:22:12Z</time>
      </trkpt>
      <trkpt lat="44.51357" lon="6.59539">
        <ele>1653</ele>
        <time>2021-04-07T06:22:13Z</time>
      </trkpt>
      <trkpt lat="44.51357" lon="6.59539">
        <ele>1653</ele>
        <time>2021-04-07T06:22:14Z</time>
      </trkpt>
      <trkpt lat="44.51357" lon="6.5954">
        <ele>1653</ele>
        <time>2021-04-07T06:22:15Z</time>
      </trkpt>
      <trkpt lat="44.51357" lon="6.59542">
        <ele>1653</ele>
        <time>2021-04-07T06:22:16Z</time>
      </trkpt>
      <trkpt lat="44.51356" lon="6.59543">
        <ele>1653</ele>
        <time>2021-04-07T06:22:17Z</time>
      </trkpt>
      <trkpt lat="44.51356" lon="6.59544">
        <ele>1653</ele>
        <time>2021-04-07T06:22:18Z</time>
      </trkpt>
      <trkpt lat="44.51356" lon="6.59545">
        <ele>1653</ele>
        <time>2021-04-07T06:22:19Z</time>
      </trkpt>
      <trkpt lat="44.51355" lon="6.59546">
        <ele>1654</ele>
        <time>2021-04-07T06:22:20Z</time>
      </trkpt>
      <trkpt lat="44.51355" lon="6.59547">
        <ele>1654</ele>
        <time>2021-04-07T06:22:21Z</time>
      </trkpt>
      <trkpt lat="44.51355" lon="6.59549">
        <ele>1654</ele>
        <time>2021-04-07T06:22:22Z</time>
      </trkpt>
      <trkpt lat="44.51355" lon="6.5955">
        <ele>1655</ele>
        <time>2021-04-07T06:22:23Z</time>
      </trkpt>
      <trkpt lat="44.51355" lon="6.59551">
        <ele>1655</ele>
        <time>2021-04-07T06:22:24Z</time>
      </trkpt>
      <trkpt lat="44.51355" lon="6.59552">
        <ele>1655</ele>
        <time>2021-04-07T06:22:25Z</time>
      </trkpt>
      <trkpt lat="44.51356" lon="6.59553">
        <ele>1655</ele>
        <time>2021-04-07T06:22:26Z</time>
      </trkpt>
      <trkpt lat="44.51356" lon="6.59555">
        <ele>1655</ele>
        <time>2021-04-07T06:22:27Z</time>
      </trkpt>
      <trkpt lat="44.51356" lon="6.59557">
        <ele>1656</ele>
        <time>2021-04-07T06:22:28Z</time>
      </trkpt>
      <trkpt lat="44.51356" lon="6.59558">
        <ele>1657</ele>
        <time>2021-04-07T06:22:29Z</time>
      </trkpt>
      <trkpt lat="44.51356" lon="6.59559">
        <ele>1657</ele>
        <time>2021-04-07T06:22:30Z</time>
      </trkpt>
      <trkpt lat="44.51356" lon="6.5956">
        <ele>1657</ele>
        <time>2021-04-07T06:22:31Z</time>
      </trkpt>
      <trkpt lat="44.51356" lon="6.59562">
        <ele>1657</ele>
        <time>2021-04-07T06:22:32Z</time>
      </trkpt>
      <trkpt lat="44.51356" lon="6.59563">
        <ele>1659</ele>
        <time>2021-04-07T06:22:33Z</time>
      </trkpt>
      <trkpt lat="44.51356" lon="6.59564">
        <ele>1660</ele>
        <time>2021-04-07T06:22:34Z</time>
      </trkpt>
      <trkpt lat="44.51356" lon="6.59565">
        <ele>1660</ele>
        <time>2021-04-07T06:22:35Z</time>
      </trkpt>
      <trkpt lat="44.51356" lon="6.59566">
        <ele>1661</ele>
        <time>2021-04-07T06:22:36Z</time>
      </trkpt>
      <trkpt lat="44.51356" lon="6.59567">
        <ele>1661</ele>
        <time>2021-04-07T06:22:37Z</time>
      </trkpt>
      <trkpt lat="44.51356" lon="6.59568">
        <ele>1661</ele>
        <time>2021-04-07T06:22:38Z</time>
      </trkpt>
      <trkpt lat="44.51356" lon="6.59569">
        <ele>1661</ele>
        <time>2021-04-07T06:22:39Z</time>
      </trkpt>
      <trkpt lat="44.51357" lon="6.59569">
        <ele>1663</ele>
        <time>2021-04-07T06:22:40Z</time>
      </trkpt>
      <trkpt lat="44.51357" lon="6.5957">
        <ele>1663</ele>
        <time>2021-04-07T06:22:41Z</time>
      </trkpt>
      <trkpt lat="44.51357" lon="6.59571">
        <ele>1663</ele>
        <time>2021-04-07T06:22:42Z</time>
      </trkpt>
      <trkpt lat="44.51356" lon="6.59573">
        <ele>1664</ele>
        <time>2021-04-07T06:22:43Z</time>
      </trkpt>
      <trkpt lat="44.51356" lon="6.59574">
        <ele>1664</ele>
        <time>2021-04-07T06:22:44Z</time>
      </trkpt>
      <trkpt lat="44.51355" lon="6.59576">
        <ele>1665</ele>
        <time>2021-04-07T06:22:45Z</time>
      </trkpt>
      <trkpt lat="44.51355" lon="6.59577">
        <ele>1665</ele>
        <time>2021-04-07T06:22:46Z</time>
      </trkpt>
      <trkpt lat="44.51355" lon="6.59576">
        <ele>1665</ele>
        <time>2021-04-07T06:22:47Z</time>
      </trkpt>
      <trkpt lat="44.51356" lon="6.59576">
        <ele>1665</ele>
        <time>2021-04-07T06:22:48Z</time>
      </trkpt>
      <trkpt lat="44.51355" lon="6.59577">
        <ele>1665</ele>
        <time>2021-04-07T06:22:49Z</time>
      </trkpt>
      <trkpt lat="44.51355" lon="6.59578">
        <ele>1665</ele>
        <time>2021-04-07T06:22:50Z</time>
      </trkpt>
      <trkpt lat="44.51354" lon="6.5958">
        <ele>1666</ele>
        <time>2021-04-07T06:22:51Z</time>
      </trkpt>
      <trkpt lat="44.51354" lon="6.59581">
        <ele>1666</ele>
        <time>2021-04-07T06:22:52Z</time>
      </trkpt>
      <trkpt lat="44.51354" lon="6.59583">
        <ele>1667</ele>
        <time>2021-04-07T06:22:53Z</time>
      </trkpt>
      <trkpt lat="44.51354" lon="6.59585">
        <ele>1667</ele>
        <time>2021-04-07T06:22:54Z</time>
      </trkpt>
      <trkpt lat="44.51354" lon="6.59587">
        <ele>1668</ele>
        <time>2021-04-07T06:22:55Z</time>
      </trkpt>
      <trkpt lat="44.51355" lon="6.59588">
        <ele>1668</ele>
        <time>2021-04-07T06:22:56Z</time>
      </trkpt>
      <trkpt lat="44.51355" lon="6.59589">
        <ele>1668</ele>
        <time>2021-04-07T06:22:57Z</time>
      </trkpt>
      <trkpt lat="44.51355" lon="6.5959">
        <ele>1669</ele>
        <time>2021-04-07T06:22:58Z</time>
      </trkpt>
      <trkpt lat="44.51355" lon="6.59591">
        <ele>1669</ele>
        <time>2021-04-07T06:22:59Z</time>
      </trkpt>
      <trkpt lat="44.51356" lon="6.59592">
        <ele>1670</ele>
        <time>2021-04-07T06:23:00Z</time>
      </trkpt>
      <trkpt lat="44.51356" lon="6.59592">
        <ele>1670</ele>
        <time>2021-04-07T06:23:01Z</time>
      </trkpt>
      <trkpt lat="44.51356" lon="6.59593">
        <ele>1670</ele>
        <time>2021-04-07T06:23:02Z</time>
      </trkpt>
      <trkpt lat="44.51356" lon="6.59594">
        <ele>1670</ele>
        <time>2021-04-07T06:23:03Z</time>
      </trkpt>
      <trkpt lat="44.51357" lon="6.59595">
        <ele>1671</ele>
        <time>2021-04-07T06:23:04Z</time>
      </trkpt>
      <trkpt lat="44.51357" lon="6.59596">
        <ele>1671</ele>
        <time>2021-04-07T06:23:05Z</time>
      </trkpt>
      <trkpt lat="44.51357" lon="6.59597">
        <ele>1671</ele>
        <time>2021-04-07T06:23:06Z</time>
      </trkpt>
      <trkpt lat="44.51358" lon="6.59598">
        <ele>1671</ele>
        <time>2021-04-07T06:23:07Z</time>
      </trkpt>
      <trkpt lat="44.51358" lon="6.59599">
        <ele>1671</ele>
        <time>2021-04-07T06:23:08Z</time>
      </trkpt>
      <trkpt lat="44.51359" lon="6.596">
        <ele>1672</ele>
        <time>2021-04-07T06:23:09Z</time>
      </trkpt>
      <trkpt lat="44.51359" lon="6.596">
        <ele>1672</ele>
        <time>2021-04-07T06:23:10Z</time>
      </trkpt>
      <trkpt lat="44.5136" lon="6.59601">
        <ele>1672</ele>
        <time>2021-04-07T06:23:11Z</time>
      </trkpt>
      <trkpt lat="44.5136" lon="6.59602">
        <ele>1672</ele>
        <time>2021-04-07T06:23:12Z</time>
      </trkpt>
      <trkpt lat="44.5136" lon="6.59603">
        <ele>1672</ele>
        <time>2021-04-07T06:23:13Z</time>
      </trkpt>
      <trkpt lat="44.51361" lon="6.59603">
        <ele>1672</ele>
        <time>2021-04-07T06:23:14Z</time>
      </trkpt>
      <trkpt lat="44.51361" lon="6.59604">
        <ele>1672</ele>
        <time>2021-04-07T06:23:15Z</time>
      </trkpt>
      <trkpt lat="44.51362" lon="6.59605">
        <ele>1672</ele>
        <time>2021-04-07T06:23:16Z</time>
      </trkpt>
      <trkpt lat="44.51363" lon="6.59606">
        <ele>1672</ele>
        <time>2021-04-07T06:23:17Z</time>
      </trkpt>
      <trkpt lat="44.51363" lon="6.59607">
        <ele>1672</ele>
        <time>2021-04-07T06:23:18Z</time>
      </trkpt>
      <trkpt lat="44.51363" lon="6.59609">
        <ele>1672</ele>
        <time>2021-04-07T06:23:19Z</time>
      </trkpt>
      <trkpt lat="44.51364" lon="6.5961">
        <ele>1672</ele>
        <time>2021-04-07T06:23:20Z</time>
      </trkpt>
      <trkpt lat="44.51365" lon="6.5961">
        <ele>1672</ele>
        <time>2021-04-07T06:23:21Z</time>
      </trkpt>
      <trkpt lat="44.51366" lon="6.59611">
        <ele>1673</ele>
        <time>2021-04-07T06:23:22Z</time>
      </trkpt>
      <trkpt lat="44.51367" lon="6.59612">
        <ele>1673</ele>
        <time>2021-04-07T06:23:23Z</time>
      </trkpt>
      <trkpt lat="44.51368" lon="6.59612">
        <ele>1673</ele>
        <time>2021-04-07T06:23:24Z</time>
      </trkpt>
      <trkpt lat="44.51369" lon="6.59613">
        <ele>1674</ele>
        <time>2021-04-07T06:23:25Z</time>
      </trkpt>
      <trkpt lat="44.51369" lon="6.59614">
        <ele>1674</ele>
        <time>2021-04-07T06:23:26Z</time>
      </trkpt>
      <trkpt lat="44.51369" lon="6.59614">
        <ele>1674</ele>
        <time>2021-04-07T06:23:27Z</time>
      </trkpt>
      <trkpt lat="44.51369" lon="6.59614">
        <ele>1675</ele>
        <time>2021-04-07T06:23:28Z</time>
      </trkpt>
      <trkpt lat="44.51369" lon="6.59615">
        <ele>1675</ele>
        <time>2021-04-07T06:23:29Z</time>
      </trkpt>
      <trkpt lat="44.51369" lon="6.59616">
        <ele>1675</ele>
        <time>2021-04-07T06:23:30Z</time>
      </trkpt>
      <trkpt lat="44.5137" lon="6.59616">
        <ele>1675</ele>
        <time>2021-04-07T06:23:31Z</time>
      </trkpt>
      <trkpt lat="44.5137" lon="6.59617">
        <ele>1675</ele>
        <time>2021-04-07T06:23:32Z</time>
      </trkpt>
      <trkpt lat="44.5137" lon="6.59618">
        <ele>1675</ele>
        <time>2021-04-07T06:23:33Z</time>
      </trkpt>
      <trkpt lat="44.51371" lon="6.59619">
        <ele>1676</ele>
        <time>2021-04-07T06:23:34Z</time>
      </trkpt>
      <trkpt lat="44.5137" lon="6.5962">
        <ele>1676</ele>
        <time>2021-04-07T06:23:35Z</time>
      </trkpt>
      <trkpt lat="44.5137" lon="6.59622">
        <ele>1676</ele>
        <time>2021-04-07T06:23:36Z</time>
      </trkpt>
      <trkpt lat="44.5137" lon="6.59623">
        <ele>1676</ele>
        <time>2021-04-07T06:23:37Z</time>
      </trkpt>
      <trkpt lat="44.5137" lon="6.59624">
        <ele>1677</ele>
        <time>2021-04-07T06:23:38Z</time>
      </trkpt>
      <trkpt lat="44.5137" lon="6.59626">
        <ele>1677</ele>
        <time>2021-04-07T06:23:39Z</time>
      </trkpt>
      <trkpt lat="44.5137" lon="6.59627">
        <ele>1677</ele>
        <time>2021-04-07T06:23:40Z</time>
      </trkpt>
      <trkpt lat="44.5137" lon="6.59628">
        <ele>1677</ele>
        <time>2021-04-07T06:23:41Z</time>
      </trkpt>
      <trkpt lat="44.5137" lon="6.5963">
        <ele>1677</ele>
        <time>2021-04-07T06:23:42Z</time>
      </trkpt>
      <trkpt lat="44.5137" lon="6.59632">
        <ele>1677</ele>
        <time>2021-04-07T06:23:43Z</time>
      </trkpt>
      <trkpt lat="44.5137" lon="6.59633">
        <ele>1678</ele>
        <time>2021-04-07T06:23:44Z</time>
      </trkpt>
      <trkpt lat="44.5137" lon="6.59634">
        <ele>1678</ele>
        <time>2021-04-07T06:23:45Z</time>
      </trkpt>
      <trkpt lat="44.51369" lon="6.59636">
        <ele>1678</ele>
        <time>2021-04-07T06:23:46Z</time>
      </trkpt>
      <trkpt lat="44.5137" lon="6.59637">
        <ele>1678</ele>
        <time>2021-04-07T06:23:47Z</time>
      </trkpt>
      <trkpt lat="44.5137" lon="6.59638">
        <ele>1679</ele>
        <time>2021-04-07T06:23:48Z</time>
      </trkpt>
      <trkpt lat="44.51371" lon="6.5964">
        <ele>1679</ele>
        <time>2021-04-07T06:23:49Z</time>
      </trkpt>
      <trkpt lat="44.51371" lon="6.59641">
        <ele>1679</ele>
        <time>2021-04-07T06:23:50Z</time>
      </trkpt>
      <trkpt lat="44.51372" lon="6.59642">
        <ele>1679</ele>
        <time>2021-04-07T06:23:51Z</time>
      </trkpt>
      <trkpt lat="44.51371" lon="6.59644">
        <ele>1679</ele>
        <time>2021-04-07T06:23:52Z</time>
      </trkpt>
      <trkpt lat="44.51371" lon="6.59647">
        <ele>1680</ele>
        <time>2021-04-07T06:23:53Z</time>
      </trkpt>
      <trkpt lat="44.51371" lon="6.59648">
        <ele>1680</ele>
        <time>2021-04-07T06:23:54Z</time>
      </trkpt>
      <trkpt lat="44.51372" lon="6.59649">
        <ele>1680</ele>
        <time>2021-04-07T06:23:55Z</time>
      </trkpt>
      <trkpt lat="44.51372" lon="6.59649">
        <ele>1680</ele>
        <time>2021-04-07T06:23:56Z</time>
      </trkpt>
      <trkpt lat="44.51372" lon="6.5965">
        <ele>1681</ele>
        <time>2021-04-07T06:23:57Z</time>
      </trkpt>
      <trkpt lat="44.51372" lon="6.59651">
        <ele>1681</ele>
        <time>2021-04-07T06:23:58Z</time>
      </trkpt>
      <trkpt lat="44.51372" lon="6.59651">
        <ele>1682</ele>
        <time>2021-04-07T06:23:59Z</time>
      </trkpt>
      <trkpt lat="44.51372" lon="6.59652">
        <ele>1682</ele>
        <time>2021-04-07T06:24:00Z</time>
      </trkpt>
      <trkpt lat="44.51372" lon="6.59652">
        <ele>1682</ele>
        <time>2021-04-07T06:24:01Z</time>
      </trkpt>
      <trkpt lat="44.51372" lon="6.59653">
        <ele>1682</ele>
        <time>2021-04-07T06:24:02Z</time>
      </trkpt>
      <trkpt lat="44.51372" lon="6.59654">
        <ele>1682</ele>
        <time>2021-04-07T06:24:03Z</time>
      </trkpt>
      <trkpt lat="44.51372" lon="6.59655">
        <ele>1682</ele>
        <time>2021-04-07T06:24:04Z</time>
      </trkpt>
      <trkpt lat="44.51372" lon="6.59655">
        <ele>1682</ele>
        <time>2021-04-07T06:24:05Z</time>
      </trkpt>
      <trkpt lat="44.51372" lon="6.59656">
        <ele>1682</ele>
        <time>2021-04-07T06:24:06Z</time>
      </trkpt>
      <trkpt lat="44.51372" lon="6.59656">
        <ele>1683</ele>
        <time>2021-04-07T06:24:07Z</time>
      </trkpt>
      <trkpt lat="44.51372" lon="6.59656">
        <ele>1683</ele>
        <time>2021-04-07T06:24:08Z</time>
      </trkpt>
      <trkpt lat="44.51372" lon="6.59656">
        <ele>1683</ele>
        <time>2021-04-07T06:24:09Z</time>
      </trkpt>
      <trkpt lat="44.51373" lon="6.5966">
        <ele>1682</ele>
        <time>2021-04-07T06:24:10Z</time>
      </trkpt>
      <trkpt lat="44.51373" lon="6.59662">
        <ele>1682</ele>
        <time>2021-04-07T06:24:11Z</time>
      </trkpt>
      <trkpt lat="44.51373" lon="6.59664">
        <ele>1682</ele>
        <time>2021-04-07T06:24:12Z</time>
      </trkpt>
      <trkpt lat="44.51374" lon="6.59665">
        <ele>1682</ele>
        <time>2021-04-07T06:24:13Z</time>
      </trkpt>
      <trkpt lat="44.51373" lon="6.59667">
        <ele>1682</ele>
        <time>2021-04-07T06:24:14Z</time>
      </trkpt>
      <trkpt lat="44.51373" lon="6.59668">
        <ele>1682</ele>
        <time>2021-04-07T06:24:15Z</time>
      </trkpt>
      <trkpt lat="44.51373" lon="6.59668">
        <ele>1682</ele>
        <time>2021-04-07T06:24:16Z</time>
      </trkpt>
      <trkpt lat="44.51373" lon="6.59669">
        <ele>1682</ele>
        <time>2021-04-07T06:24:17Z</time>
      </trkpt>
      <trkpt lat="44.51372" lon="6.59671">
        <ele>1682</ele>
        <time>2021-04-07T06:24:18Z</time>
      </trkpt>
      <trkpt lat="44.51371" lon="6.59672">
        <ele>1682</ele>
        <time>2021-04-07T06:24:19Z</time>
      </trkpt>
      <trkpt lat="44.51371" lon="6.59673">
        <ele>1682</ele>
        <time>2021-04-07T06:24:20Z</time>
      </trkpt>
      <trkpt lat="44.5137" lon="6.59674">
        <ele>1682</ele>
        <time>2021-04-07T06:24:21Z</time>
      </trkpt>
      <trkpt lat="44.5137" lon="6.59676">
        <ele>1682</ele>
        <time>2021-04-07T06:24:22Z</time>
      </trkpt>
      <trkpt lat="44.5137" lon="6.59678">
        <ele>1682</ele>
        <time>2021-04-07T06:24:23Z</time>
      </trkpt>
      <trkpt lat="44.51369" lon="6.59679">
        <ele>1682</ele>
        <time>2021-04-07T06:24:24Z</time>
      </trkpt>
      <trkpt lat="44.51369" lon="6.5968">
        <ele>1682</ele>
        <time>2021-04-07T06:24:25Z</time>
      </trkpt>
      <trkpt lat="44.51368" lon="6.5968">
        <ele>1682</ele>
        <time>2021-04-07T06:24:26Z</time>
      </trkpt>
      <trkpt lat="44.51368" lon="6.59681">
        <ele>1682</ele>
        <time>2021-04-07T06:24:27Z</time>
      </trkpt>
      <trkpt lat="44.51368" lon="6.59681">
        <ele>1682</ele>
        <time>2021-04-07T06:24:28Z</time>
      </trkpt>
      <trkpt lat="44.51367" lon="6.59682">
        <ele>1683</ele>
        <time>2021-04-07T06:24:29Z</time>
      </trkpt>
      <trkpt lat="44.51367" lon="6.59683">
        <ele>1683</ele>
        <time>2021-04-07T06:24:30Z</time>
      </trkpt>
      <trkpt lat="44.51367" lon="6.59684">
        <ele>1683</ele>
        <time>2021-04-07T06:24:31Z</time>
      </trkpt>
      <trkpt lat="44.51367" lon="6.59684">
        <ele>1683</ele>
        <time>2021-04-07T06:24:32Z</time>
      </trkpt>
      <trkpt lat="44.51368" lon="6.59685">
        <ele>1683</ele>
        <time>2021-04-07T06:24:33Z</time>
      </trkpt>
      <trkpt lat="44.51368" lon="6.59687">
        <ele>1683</ele>
        <time>2021-04-07T06:24:34Z</time>
      </trkpt>
      <trkpt lat="44.51368" lon="6.59688">
        <ele>1683</ele>
        <time>2021-04-07T06:24:35Z</time>
      </trkpt>
      <trkpt lat="44.51367" lon="6.59689">
        <ele>1682</ele>
        <time>2021-04-07T06:24:36Z</time>
      </trkpt>
      <trkpt lat="44.51366" lon="6.5969">
        <ele>1682</ele>
        <time>2021-04-07T06:24:37Z</time>
      </trkpt>
      <trkpt lat="44.51365" lon="6.59691">
        <ele>1682</ele>
        <time>2021-04-07T06:24:38Z</time>
      </trkpt>
      <trkpt lat="44.51364" lon="6.59693">
        <ele>1682</ele>
        <time>2021-04-07T06:24:39Z</time>
      </trkpt>
      <trkpt lat="44.51364" lon="6.59694">
        <ele>1681</ele>
        <time>2021-04-07T06:24:40Z</time>
      </trkpt>
      <trkpt lat="44.51364" lon="6.59695">
        <ele>1681</ele>
        <time>2021-04-07T06:24:41Z</time>
      </trkpt>
      <trkpt lat="44.51363" lon="6.59696">
        <ele>1681</ele>
        <time>2021-04-07T06:24:42Z</time>
      </trkpt>
      <trkpt lat="44.51363" lon="6.59697">
        <ele>1680</ele>
        <time>2021-04-07T06:24:43Z</time>
      </trkpt>
      <trkpt lat="44.51364" lon="6.59698">
        <ele>1680</ele>
        <time>2021-04-07T06:24:44Z</time>
      </trkpt>
      <trkpt lat="44.51365" lon="6.59699">
        <ele>1679</ele>
        <time>2021-04-07T06:24:45Z</time>
      </trkpt>
      <trkpt lat="44.51364" lon="6.59701">
        <ele>1679</ele>
        <time>2021-04-07T06:24:46Z</time>
      </trkpt>
      <trkpt lat="44.51364" lon="6.59702">
        <ele>1678</ele>
        <time>2021-04-07T06:24:47Z</time>
      </trkpt>
      <trkpt lat="44.51364" lon="6.59703">
        <ele>1678</ele>
        <time>2021-04-07T06:24:48Z</time>
      </trkpt>
      <trkpt lat="44.51363" lon="6.59704">
        <ele>1678</ele>
        <time>2021-04-07T06:24:49Z</time>
      </trkpt>
      <trkpt lat="44.51363" lon="6.59705">
        <ele>1676</ele>
        <time>2021-04-07T06:24:50Z</time>
      </trkpt>
      <trkpt lat="44.51363" lon="6.59707">
        <ele>1676</ele>
        <time>2021-04-07T06:24:51Z</time>
      </trkpt>
      <trkpt lat="44.51363" lon="6.59708">
        <ele>1676</ele>
        <time>2021-04-07T06:24:52Z</time>
      </trkpt>
      <trkpt lat="44.51363" lon="6.59709">
        <ele>1675</ele>
        <time>2021-04-07T06:24:53Z</time>
      </trkpt>
      <trkpt lat="44.51362" lon="6.59711">
        <ele>1675</ele>
        <time>2021-04-07T06:24:54Z</time>
      </trkpt>
      <trkpt lat="44.51361" lon="6.59712">
        <ele>1674</ele>
        <time>2021-04-07T06:24:55Z</time>
      </trkpt>
      <trkpt lat="44.51361" lon="6.59713">
        <ele>1674</ele>
        <time>2021-04-07T06:24:56Z</time>
      </trkpt>
      <trkpt lat="44.51361" lon="6.59714">
        <ele>1674</ele>
        <time>2021-04-07T06:24:57Z</time>
      </trkpt>
      <trkpt lat="44.51361" lon="6.59715">
        <ele>1674</ele>
        <time>2021-04-07T06:24:58Z</time>
      </trkpt>
      <trkpt lat="44.51361" lon="6.59716">
        <ele>1674</ele>
        <time>2021-04-07T06:24:59Z</time>
      </trkpt>
      <trkpt lat="44.5136" lon="6.59717">
        <ele>1673</ele>
        <time>2021-04-07T06:25:00Z</time>
      </trkpt>
      <trkpt lat="44.5136" lon="6.59718">
        <ele>1673</ele>
        <time>2021-04-07T06:25:01Z</time>
      </trkpt>
      <trkpt lat="44.5136" lon="6.59721">
        <ele>1674</ele>
        <time>2021-04-07T06:25:02Z</time>
      </trkpt>
      <trkpt lat="44.51359" lon="6.59722">
        <ele>1674</ele>
        <time>2021-04-07T06:25:03Z</time>
      </trkpt>
      <trkpt lat="44.51361" lon="6.59722">
        <ele>1675</ele>
        <time>2021-04-07T06:25:04Z</time>
      </trkpt>
      <trkpt lat="44.51361" lon="6.59723">
        <ele>1675</ele>
        <time>2021-04-07T06:25:05Z</time>
      </trkpt>
      <trkpt lat="44.51361" lon="6.59725">
        <ele>1675</ele>
        <time>2021-04-07T06:25:06Z</time>
      </trkpt>
      <trkpt lat="44.51361" lon="6.59726">
        <ele>1676</ele>
        <time>2021-04-07T06:25:07Z</time>
      </trkpt>
      <trkpt lat="44.51361" lon="6.59727">
        <ele>1676</ele>
        <time>2021-04-07T06:25:08Z</time>
      </trkpt>
      <trkpt lat="44.51361" lon="6.59728">
        <ele>1677</ele>
        <time>2021-04-07T06:25:09Z</time>
      </trkpt>
      <trkpt lat="44.5136" lon="6.59729">
        <ele>1678</ele>
        <time>2021-04-07T06:25:10Z</time>
      </trkpt>
      <trkpt lat="44.5136" lon="6.5973">
        <ele>1678</ele>
        <time>2021-04-07T06:25:11Z</time>
      </trkpt>
      <trkpt lat="44.5136" lon="6.59732">
        <ele>1678</ele>
        <time>2021-04-07T06:25:12Z</time>
      </trkpt>
      <trkpt lat="44.51359" lon="6.59733">
        <ele>1679</ele>
        <time>2021-04-07T06:25:13Z</time>
      </trkpt>
      <trkpt lat="44.51358" lon="6.59735">
        <ele>1680</ele>
        <time>2021-04-07T06:25:14Z</time>
      </trkpt>
      <trkpt lat="44.51357" lon="6.59736">
        <ele>1680</ele>
        <time>2021-04-07T06:25:15Z</time>
      </trkpt>
      <trkpt lat="44.51357" lon="6.59738">
        <ele>1681</ele>
        <time>2021-04-07T06:25:16Z</time>
      </trkpt>
      <trkpt lat="44.51356" lon="6.59739">
        <ele>1681</ele>
        <time>2021-04-07T06:25:17Z</time>
      </trkpt>
      <trkpt lat="44.51356" lon="6.5974">
        <ele>1681</ele>
        <time>2021-04-07T06:25:18Z</time>
      </trkpt>
      <trkpt lat="44.51356" lon="6.59741">
        <ele>1681</ele>
        <time>2021-04-07T06:25:19Z</time>
      </trkpt>
      <trkpt lat="44.51356" lon="6.59742">
        <ele>1681</ele>
        <time>2021-04-07T06:25:20Z</time>
      </trkpt>
      <trkpt lat="44.51356" lon="6.59742">
        <ele>1682</ele>
        <time>2021-04-07T06:25:21Z</time>
      </trkpt>
      <trkpt lat="44.51355" lon="6.59743">
        <ele>1682</ele>
        <time>2021-04-07T06:25:22Z</time>
      </trkpt>
      <trkpt lat="44.51355" lon="6.59744">
        <ele>1682</ele>
        <time>2021-04-07T06:25:23Z</time>
      </trkpt>
      <trkpt lat="44.51354" lon="6.59744">
        <ele>1682</ele>
        <time>2021-04-07T06:25:24Z</time>
      </trkpt>
      <trkpt lat="44.51354" lon="6.59745">
        <ele>1682</ele>
        <time>2021-04-07T06:25:25Z</time>
      </trkpt>
      <trkpt lat="44.51354" lon="6.59746">
        <ele>1682</ele>
        <time>2021-04-07T06:25:26Z</time>
      </trkpt>
      <trkpt lat="44.51354" lon="6.59747">
        <ele>1682</ele>
        <time>2021-04-07T06:25:27Z</time>
      </trkpt>
      <trkpt lat="44.51354" lon="6.59748">
        <ele>1682</ele>
        <time>2021-04-07T06:25:28Z</time>
      </trkpt>
      <trkpt lat="44.51354" lon="6.59749">
        <ele>1682</ele>
        <time>2021-04-07T06:25:29Z</time>
      </trkpt>
      <trkpt lat="44.51353" lon="6.5975">
        <ele>1683</ele>
        <time>2021-04-07T06:25:30Z</time>
      </trkpt>
      <trkpt lat="44.51352" lon="6.59751">
        <ele>1683</ele>
        <time>2021-04-07T06:25:31Z</time>
      </trkpt>
      <trkpt lat="44.51353" lon="6.59752">
        <ele>1683</ele>
        <time>2021-04-07T06:25:32Z</time>
      </trkpt>
      <trkpt lat="44.51352" lon="6.59753">
        <ele>1683</ele>
        <time>2021-04-07T06:25:33Z</time>
      </trkpt>
      <trkpt lat="44.51352" lon="6.59754">
        <ele>1683</ele>
        <time>2021-04-07T06:25:34Z</time>
      </trkpt>
      <trkpt lat="44.51352" lon="6.59756">
        <ele>1683</ele>
        <time>2021-04-07T06:25:35Z</time>
      </trkpt>
      <trkpt lat="44.51352" lon="6.59757">
        <ele>1684</ele>
        <time>2021-04-07T06:25:36Z</time>
      </trkpt>
      <trkpt lat="44.51352" lon="6.59758">
        <ele>1684</ele>
        <time>2021-04-07T06:25:37Z</time>
      </trkpt>
      <trkpt lat="44.51352" lon="6.59759">
        <ele>1684</ele>
        <time>2021-04-07T06:25:38Z</time>
      </trkpt>
      <trkpt lat="44.51352" lon="6.5976">
        <ele>1684</ele>
        <time>2021-04-07T06:25:39Z</time>
      </trkpt>
      <trkpt lat="44.51352" lon="6.59761">
        <ele>1684</ele>
        <time>2021-04-07T06:25:40Z</time>
      </trkpt>
      <trkpt lat="44.51352" lon="6.59762">
        <ele>1684</ele>
        <time>2021-04-07T06:25:41Z</time>
      </trkpt>
      <trkpt lat="44.51352" lon="6.59763">
        <ele>1684</ele>
        <time>2021-04-07T06:25:42Z</time>
      </trkpt>
      <trkpt lat="44.51352" lon="6.59764">
        <ele>1684</ele>
        <time>2021-04-07T06:25:43Z</time>
      </trkpt>
      <trkpt lat="44.51352" lon="6.59765">
        <ele>1684</ele>
        <time>2021-04-07T06:25:44Z</time>
      </trkpt>
      <trkpt lat="44.51352" lon="6.59766">
        <ele>1684</ele>
        <time>2021-04-07T06:25:45Z</time>
      </trkpt>
      <trkpt lat="44.51351" lon="6.59767">
        <ele>1685</ele>
        <time>2021-04-07T06:25:46Z</time>
      </trkpt>
      <trkpt lat="44.51351" lon="6.59768">
        <ele>1685</ele>
        <time>2021-04-07T06:25:47Z</time>
      </trkpt>
      <trkpt lat="44.51351" lon="6.5977">
        <ele>1685</ele>
        <time>2021-04-07T06:25:48Z</time>
      </trkpt>
      <trkpt lat="44.5135" lon="6.59771">
        <ele>1685</ele>
        <time>2021-04-07T06:25:49Z</time>
      </trkpt>
      <trkpt lat="44.5135" lon="6.59773">
        <ele>1685</ele>
        <time>2021-04-07T06:25:50Z</time>
      </trkpt>
      <trkpt lat="44.51349" lon="6.59774">
        <ele>1685</ele>
        <time>2021-04-07T06:25:51Z</time>
      </trkpt>
      <trkpt lat="44.51349" lon="6.59775">
        <ele>1685</ele>
        <time>2021-04-07T06:25:52Z</time>
      </trkpt>
      <trkpt lat="44.51349" lon="6.59777">
        <ele>1685</ele>
        <time>2021-04-07T06:25:53Z</time>
      </trkpt>
      <trkpt lat="44.51349" lon="6.59778">
        <ele>1686</ele>
        <time>2021-04-07T06:25:54Z</time>
      </trkpt>
      <trkpt lat="44.51349" lon="6.5978">
        <ele>1686</ele>
        <time>2021-04-07T06:25:55Z</time>
      </trkpt>
      <trkpt lat="44.51347" lon="6.59782">
        <ele>1686</ele>
        <time>2021-04-07T06:25:56Z</time>
      </trkpt>
      <trkpt lat="44.51347" lon="6.59783">
        <ele>1686</ele>
        <time>2021-04-07T06:25:57Z</time>
      </trkpt>
      <trkpt lat="44.51347" lon="6.59784">
        <ele>1687</ele>
        <time>2021-04-07T06:25:58Z</time>
      </trkpt>
      <trkpt lat="44.51347" lon="6.59785">
        <ele>1687</ele>
        <time>2021-04-07T06:25:59Z</time>
      </trkpt>
      <trkpt lat="44.51347" lon="6.59785">
        <ele>1687</ele>
        <time>2021-04-07T06:26:00Z</time>
      </trkpt>
      <trkpt lat="44.51348" lon="6.59785">
        <ele>1687</ele>
        <time>2021-04-07T06:26:01Z</time>
      </trkpt>
      <trkpt lat="44.51348" lon="6.59786">
        <ele>1687</ele>
        <time>2021-04-07T06:26:02Z</time>
      </trkpt>
      <trkpt lat="44.51348" lon="6.59787">
        <ele>1687</ele>
        <time>2021-04-07T06:26:03Z</time>
      </trkpt>
      <trkpt lat="44.51348" lon="6.59788">
        <ele>1687</ele>
        <time>2021-04-07T06:26:04Z</time>
      </trkpt>
      <trkpt lat="44.51348" lon="6.59789">
        <ele>1688</ele>
        <time>2021-04-07T06:26:05Z</time>
      </trkpt>
      <trkpt lat="44.51348" lon="6.59791">
        <ele>1688</ele>
        <time>2021-04-07T06:26:06Z</time>
      </trkpt>
      <trkpt lat="44.51348" lon="6.59792">
        <ele>1688</ele>
        <time>2021-04-07T06:26:07Z</time>
      </trkpt>
      <trkpt lat="44.51348" lon="6.59794">
        <ele>1688</ele>
        <time>2021-04-07T06:26:08Z</time>
      </trkpt>
      <trkpt lat="44.51348" lon="6.59796">
        <ele>1688</ele>
        <time>2021-04-07T06:26:09Z</time>
      </trkpt>
      <trkpt lat="44.51347" lon="6.59797">
        <ele>1688</ele>
        <time>2021-04-07T06:26:10Z</time>
      </trkpt>
      <trkpt lat="44.51347" lon="6.59798">
        <ele>1688</ele>
        <time>2021-04-07T06:26:11Z</time>
      </trkpt>
      <trkpt lat="44.51346" lon="6.59799">
        <ele>1688</ele>
        <time>2021-04-07T06:26:12Z</time>
      </trkpt>
      <trkpt lat="44.51346" lon="6.59799">
        <ele>1688</ele>
        <time>2021-04-07T06:26:13Z</time>
      </trkpt>
      <trkpt lat="44.51346" lon="6.598">
        <ele>1688</ele>
        <time>2021-04-07T06:26:14Z</time>
      </trkpt>
      <trkpt lat="44.51346" lon="6.59802">
        <ele>1688</ele>
        <time>2021-04-07T06:26:15Z</time>
      </trkpt>
      <trkpt lat="44.51346" lon="6.59803">
        <ele>1688</ele>
        <time>2021-04-07T06:26:16Z</time>
      </trkpt>
      <trkpt lat="44.51346" lon="6.59804">
        <ele>1688</ele>
        <time>2021-04-07T06:26:17Z</time>
      </trkpt>
      <trkpt lat="44.51346" lon="6.59805">
        <ele>1688</ele>
        <time>2021-04-07T06:26:18Z</time>
      </trkpt>
      <trkpt lat="44.51345" lon="6.59806">
        <ele>1688</ele>
        <time>2021-04-07T06:26:19Z</time>
      </trkpt>
      <trkpt lat="44.51345" lon="6.59807">
        <ele>1688</ele>
        <time>2021-04-07T06:26:20Z</time>
      </trkpt>
      <trkpt lat="44.51344" lon="6.59808">
        <ele>1689</ele>
        <time>2021-04-07T06:26:21Z</time>
      </trkpt>
      <trkpt lat="44.51344" lon="6.5981">
        <ele>1689</ele>
        <time>2021-04-07T06:26:22Z</time>
      </trkpt>
      <trkpt lat="44.51343" lon="6.59811">
        <ele>1689</ele>
        <time>2021-04-07T06:26:23Z</time>
      </trkpt>
      <trkpt lat="44.51343" lon="6.59812">
        <ele>1689</ele>
        <time>2021-04-07T06:26:24Z</time>
      </trkpt>
      <trkpt lat="44.51343" lon="6.59813">
        <ele>1689</ele>
        <time>2021-04-07T06:26:25Z</time>
      </trkpt>
      <trkpt lat="44.51343" lon="6.59814">
        <ele>1689</ele>
        <time>2021-04-07T06:26:26Z</time>
      </trkpt>
      <trkpt lat="44.51343" lon="6.59815">
        <ele>1690</ele>
        <time>2021-04-07T06:26:27Z</time>
      </trkpt>
      <trkpt lat="44.51343" lon="6.59817">
        <ele>1690</ele>
        <time>2021-04-07T06:26:28Z</time>
      </trkpt>
      <trkpt lat="44.51343" lon="6.59818">
        <ele>1690</ele>
        <time>2021-04-07T06:26:29Z</time>
      </trkpt>
      <trkpt lat="44.51344" lon="6.5982">
        <ele>1690</ele>
        <time>2021-04-07T06:26:30Z</time>
      </trkpt>
      <trkpt lat="44.51344" lon="6.59821">
        <ele>1691</ele>
        <time>2021-04-07T06:26:31Z</time>
      </trkpt>
      <trkpt lat="44.51344" lon="6.59822">
        <ele>1691</ele>
        <time>2021-04-07T06:26:32Z</time>
      </trkpt>
      <trkpt lat="44.51343" lon="6.59823">
        <ele>1691</ele>
        <time>2021-04-07T06:26:33Z</time>
      </trkpt>
      <trkpt lat="44.51343" lon="6.59824">
        <ele>1691</ele>
        <time>2021-04-07T06:26:34Z</time>
      </trkpt>
      <trkpt lat="44.51343" lon="6.59825">
        <ele>1691</ele>
        <time>2021-04-07T06:26:35Z</time>
      </trkpt>
      <trkpt lat="44.51343" lon="6.59826">
        <ele>1691</ele>
        <time>2021-04-07T06:26:36Z</time>
      </trkpt>
      <trkpt lat="44.51342" lon="6.59827">
        <ele>1691</ele>
        <time>2021-04-07T06:26:37Z</time>
      </trkpt>
      <trkpt lat="44.51342" lon="6.59828">
        <ele>1691</ele>
        <time>2021-04-07T06:26:38Z</time>
      </trkpt>
      <trkpt lat="44.51342" lon="6.59829">
        <ele>1691</ele>
        <time>2021-04-07T06:26:39Z</time>
      </trkpt>
      <trkpt lat="44.51341" lon="6.5983">
        <ele>1691</ele>
        <time>2021-04-07T06:26:40Z</time>
      </trkpt>
      <trkpt lat="44.51341" lon="6.59832">
        <ele>1691</ele>
        <time>2021-04-07T06:26:41Z</time>
      </trkpt>
      <trkpt lat="44.5134" lon="6.59833">
        <ele>1691</ele>
        <time>2021-04-07T06:26:42Z</time>
      </trkpt>
      <trkpt lat="44.5134" lon="6.59834">
        <ele>1691</ele>
        <time>2021-04-07T06:26:43Z</time>
      </trkpt>
      <trkpt lat="44.51339" lon="6.59836">
        <ele>1691</ele>
        <time>2021-04-07T06:26:44Z</time>
      </trkpt>
      <trkpt lat="44.51339" lon="6.59837">
        <ele>1692</ele>
        <time>2021-04-07T06:26:45Z</time>
      </trkpt>
      <trkpt lat="44.51339" lon="6.59838">
        <ele>1692</ele>
        <time>2021-04-07T06:26:46Z</time>
      </trkpt>
      <trkpt lat="44.51338" lon="6.59839">
        <ele>1692</ele>
        <time>2021-04-07T06:26:47Z</time>
      </trkpt>
      <trkpt lat="44.51337" lon="6.5984">
        <ele>1692</ele>
        <time>2021-04-07T06:26:48Z</time>
      </trkpt>
      <trkpt lat="44.51337" lon="6.59842">
        <ele>1692</ele>
        <time>2021-04-07T06:26:49Z</time>
      </trkpt>
      <trkpt lat="44.51337" lon="6.59843">
        <ele>1692</ele>
        <time>2021-04-07T06:26:50Z</time>
      </trkpt>
      <trkpt lat="44.51336" lon="6.59844">
        <ele>1692</ele>
        <time>2021-04-07T06:26:51Z</time>
      </trkpt>
      <trkpt lat="44.51336" lon="6.59845">
        <ele>1692</ele>
        <time>2021-04-07T06:26:52Z</time>
      </trkpt>
      <trkpt lat="44.51335" lon="6.59846">
        <ele>1692</ele>
        <time>2021-04-07T06:26:53Z</time>
      </trkpt>
      <trkpt lat="44.51334" lon="6.59847">
        <ele>1692</ele>
        <time>2021-04-07T06:26:54Z</time>
      </trkpt>
      <trkpt lat="44.51334" lon="6.59847">
        <ele>1692</ele>
        <time>2021-04-07T06:26:55Z</time>
      </trkpt>
      <trkpt lat="44.51333" lon="6.59848">
        <ele>1692</ele>
        <time>2021-04-07T06:26:56Z</time>
      </trkpt>
      <trkpt lat="44.51333" lon="6.59849">
        <ele>1692</ele>
        <time>2021-04-07T06:26:57Z</time>
      </trkpt>
      <trkpt lat="44.51333" lon="6.5985">
        <ele>1692</ele>
        <time>2021-04-07T06:26:58Z</time>
      </trkpt>
      <trkpt lat="44.51333" lon="6.5985">
        <ele>1692</ele>
        <time>2021-04-07T06:26:59Z</time>
      </trkpt>
      <trkpt lat="44.51332" lon="6.59851">
        <ele>1692</ele>
        <time>2021-04-07T06:27:00Z</time>
      </trkpt>
      <trkpt lat="44.51332" lon="6.59852">
        <ele>1692</ele>
        <time>2021-04-07T06:27:01Z</time>
      </trkpt>
      <trkpt lat="44.51332" lon="6.59853">
        <ele>1692</ele>
        <time>2021-04-07T06:27:02Z</time>
      </trkpt>
      <trkpt lat="44.51332" lon="6.59854">
        <ele>1692</ele>
        <time>2021-04-07T06:27:03Z</time>
      </trkpt>
      <trkpt lat="44.51332" lon="6.59855">
        <ele>1693</ele>
        <time>2021-04-07T06:27:04Z</time>
      </trkpt>
      <trkpt lat="44.51332" lon="6.59855">
        <ele>1693</ele>
        <time>2021-04-07T06:27:05Z</time>
      </trkpt>
      <trkpt lat="44.51332" lon="6.59856">
        <ele>1693</ele>
        <time>2021-04-07T06:27:06Z</time>
      </trkpt>
      <trkpt lat="44.51332" lon="6.59856">
        <ele>1693</ele>
        <time>2021-04-07T06:27:07Z</time>
      </trkpt>
      <trkpt lat="44.51332" lon="6.59856">
        <ele>1693</ele>
        <time>2021-04-07T06:27:08Z</time>
      </trkpt>
      <trkpt lat="44.51332" lon="6.59857">
        <ele>1693</ele>
        <time>2021-04-07T06:27:09Z</time>
      </trkpt>
      <trkpt lat="44.51332" lon="6.59857">
        <ele>1693</ele>
        <time>2021-04-07T06:27:10Z</time>
      </trkpt>
      <trkpt lat="44.51332" lon="6.59858">
        <ele>1693</ele>
        <time>2021-04-07T06:27:11Z</time>
      </trkpt>
      <trkpt lat="44.51332" lon="6.59859">
        <ele>1693</ele>
        <time>2021-04-07T06:27:12Z</time>
      </trkpt>
      <trkpt lat="44.51332" lon="6.5986">
        <ele>1693</ele>
        <time>2021-04-07T06:27:13Z</time>
      </trkpt>
      <trkpt lat="44.51332" lon="6.59862">
        <ele>1693</ele>
        <time>2021-04-07T06:27:14Z</time>
      </trkpt>
      <trkpt lat="44.51332" lon="6.59863">
        <ele>1693</ele>
        <time>2021-04-07T06:27:15Z</time>
      </trkpt>
      <trkpt lat="44.51332" lon="6.59864">
        <ele>1693</ele>
        <time>2021-04-07T06:27:16Z</time>
      </trkpt>
      <trkpt lat="44.51332" lon="6.59866">
        <ele>1694</ele>
        <time>2021-04-07T06:27:17Z</time>
      </trkpt>
      <trkpt lat="44.51331" lon="6.59867">
        <ele>1694</ele>
        <time>2021-04-07T06:27:18Z</time>
      </trkpt>
      <trkpt lat="44.51331" lon="6.59867">
        <ele>1694</ele>
        <time>2021-04-07T06:27:19Z</time>
      </trkpt>
      <trkpt lat="44.51331" lon="6.59868">
        <ele>1694</ele>
        <time>2021-04-07T06:27:20Z</time>
      </trkpt>
      <trkpt lat="44.51331" lon="6.59869">
        <ele>1695</ele>
        <time>2021-04-07T06:27:21Z</time>
      </trkpt>
      <trkpt lat="44.51331" lon="6.5987">
        <ele>1695</ele>
        <time>2021-04-07T06:27:22Z</time>
      </trkpt>
      <trkpt lat="44.51331" lon="6.5987">
        <ele>1695</ele>
        <time>2021-04-07T06:27:23Z</time>
      </trkpt>
      <trkpt lat="44.51331" lon="6.5987">
        <ele>1695</ele>
        <time>2021-04-07T06:27:24Z</time>
      </trkpt>
      <trkpt lat="44.51331" lon="6.5987">
        <ele>1695</ele>
        <time>2021-04-07T06:27:25Z</time>
      </trkpt>
      <trkpt lat="44.5133" lon="6.59871">
        <ele>1695</ele>
        <time>2021-04-07T06:27:26Z</time>
      </trkpt>
      <trkpt lat="44.51331" lon="6.59872">
        <ele>1695</ele>
        <time>2021-04-07T06:27:27Z</time>
      </trkpt>
      <trkpt lat="44.5133" lon="6.59873">
        <ele>1696</ele>
        <time>2021-04-07T06:27:28Z</time>
      </trkpt>
      <trkpt lat="44.5133" lon="6.59873">
        <ele>1696</ele>
        <time>2021-04-07T06:27:29Z</time>
      </trkpt>
      <trkpt lat="44.5133" lon="6.59874">
        <ele>1696</ele>
        <time>2021-04-07T06:27:30Z</time>
      </trkpt>
      <trkpt lat="44.5133" lon="6.59875">
        <ele>1696</ele>
        <time>2021-04-07T06:27:31Z</time>
      </trkpt>
      <trkpt lat="44.5133" lon="6.59876">
        <ele>1696</ele>
        <time>2021-04-07T06:27:32Z</time>
      </trkpt>
      <trkpt lat="44.5133" lon="6.59878">
        <ele>1697</ele>
        <time>2021-04-07T06:27:33Z</time>
      </trkpt>
      <trkpt lat="44.5133" lon="6.59879">
        <ele>1697</ele>
        <time>2021-04-07T06:27:34Z</time>
      </trkpt>
      <trkpt lat="44.5133" lon="6.59881">
        <ele>1697</ele>
        <time>2021-04-07T06:27:35Z</time>
      </trkpt>
      <trkpt lat="44.51329" lon="6.59883">
        <ele>1697</ele>
        <time>2021-04-07T06:27:36Z</time>
      </trkpt>
      <trkpt lat="44.51329" lon="6.59885">
        <ele>1697</ele>
        <time>2021-04-07T06:27:37Z</time>
      </trkpt>
      <trkpt lat="44.51328" lon="6.59886">
        <ele>1697</ele>
        <time>2021-04-07T06:27:38Z</time>
      </trkpt>
      <trkpt lat="44.51327" lon="6.59887">
        <ele>1697</ele>
        <time>2021-04-07T06:27:39Z</time>
      </trkpt>
      <trkpt lat="44.51327" lon="6.59888">
        <ele>1697</ele>
        <time>2021-04-07T06:27:40Z</time>
      </trkpt>
      <trkpt lat="44.51326" lon="6.59889">
        <ele>1697</ele>
        <time>2021-04-07T06:27:41Z</time>
      </trkpt>
      <trkpt lat="44.51326" lon="6.5989">
        <ele>1697</ele>
        <time>2021-04-07T06:27:42Z</time>
      </trkpt>
      <trkpt lat="44.51326" lon="6.59892">
        <ele>1697</ele>
        <time>2021-04-07T06:27:43Z</time>
      </trkpt>
      <trkpt lat="44.51326" lon="6.59893">
        <ele>1697</ele>
        <time>2021-04-07T06:27:44Z</time>
      </trkpt>
      <trkpt lat="44.51325" lon="6.59894">
        <ele>1697</ele>
        <time>2021-04-07T06:27:45Z</time>
      </trkpt>
      <trkpt lat="44.51325" lon="6.59896">
        <ele>1697</ele>
        <time>2021-04-07T06:27:46Z</time>
      </trkpt>
      <trkpt lat="44.51325" lon="6.59896">
        <ele>1697</ele>
        <time>2021-04-07T06:27:47Z</time>
      </trkpt>
      <trkpt lat="44.51325" lon="6.59897">
        <ele>1697</ele>
        <time>2021-04-07T06:27:48Z</time>
      </trkpt>
      <trkpt lat="44.51325" lon="6.59898">
        <ele>1697</ele>
        <time>2021-04-07T06:27:49Z</time>
      </trkpt>
      <trkpt lat="44.51325" lon="6.59899">
        <ele>1697</ele>
        <time>2021-04-07T06:27:50Z</time>
      </trkpt>
      <trkpt lat="44.51324" lon="6.599">
        <ele>1697</ele>
        <time>2021-04-07T06:27:51Z</time>
      </trkpt>
      <trkpt lat="44.51324" lon="6.59902">
        <ele>1697</ele>
        <time>2021-04-07T06:27:52Z</time>
      </trkpt>
      <trkpt lat="44.51324" lon="6.59903">
        <ele>1697</ele>
        <time>2021-04-07T06:27:53Z</time>
      </trkpt>
      <trkpt lat="44.51324" lon="6.59904">
        <ele>1697</ele>
        <time>2021-04-07T06:27:54Z</time>
      </trkpt>
      <trkpt lat="44.51324" lon="6.59906">
        <ele>1697</ele>
        <time>2021-04-07T06:27:55Z</time>
      </trkpt>
      <trkpt lat="44.51324" lon="6.59907">
        <ele>1697</ele>
        <time>2021-04-07T06:27:56Z</time>
      </trkpt>
      <trkpt lat="44.51324" lon="6.59908">
        <ele>1697</ele>
        <time>2021-04-07T06:27:57Z</time>
      </trkpt>
      <trkpt lat="44.51323" lon="6.59909">
        <ele>1697</ele>
        <time>2021-04-07T06:27:58Z</time>
      </trkpt>
      <trkpt lat="44.51323" lon="6.5991">
        <ele>1697</ele>
        <time>2021-04-07T06:27:59Z</time>
      </trkpt>
      <trkpt lat="44.51323" lon="6.59912">
        <ele>1697</ele>
        <time>2021-04-07T06:28:00Z</time>
      </trkpt>
      <trkpt lat="44.51323" lon="6.59913">
        <ele>1697</ele>
        <time>2021-04-07T06:28:01Z</time>
      </trkpt>
      <trkpt lat="44.51323" lon="6.59914">
        <ele>1697</ele>
        <time>2021-04-07T06:28:02Z</time>
      </trkpt>
      <trkpt lat="44.51323" lon="6.59916">
        <ele>1697</ele>
        <time>2021-04-07T06:28:03Z</time>
      </trkpt>
      <trkpt lat="44.51323" lon="6.59917">
        <ele>1697</ele>
        <time>2021-04-07T06:28:04Z</time>
      </trkpt>
      <trkpt lat="44.51323" lon="6.59918">
        <ele>1698</ele>
        <time>2021-04-07T06:28:05Z</time>
      </trkpt>
      <trkpt lat="44.51323" lon="6.5992">
        <ele>1698</ele>
        <time>2021-04-07T06:28:06Z</time>
      </trkpt>
      <trkpt lat="44.51323" lon="6.59921">
        <ele>1698</ele>
        <time>2021-04-07T06:28:07Z</time>
      </trkpt>
      <trkpt lat="44.51323" lon="6.59922">
        <ele>1698</ele>
        <time>2021-04-07T06:28:08Z</time>
      </trkpt>
      <trkpt lat="44.51323" lon="6.59922">
        <ele>1698</ele>
        <time>2021-04-07T06:28:09Z</time>
      </trkpt>
      <trkpt lat="44.51323" lon="6.59923">
        <ele>1699</ele>
        <time>2021-04-07T06:28:10Z</time>
      </trkpt>
      <trkpt lat="44.51323" lon="6.59924">
        <ele>1699</ele>
        <time>2021-04-07T06:28:11Z</time>
      </trkpt>
      <trkpt lat="44.51323" lon="6.59924">
        <ele>1699</ele>
        <time>2021-04-07T06:28:12Z</time>
      </trkpt>
      <trkpt lat="44.51323" lon="6.59925">
        <ele>1699</ele>
        <time>2021-04-07T06:28:13Z</time>
      </trkpt>
      <trkpt lat="44.51323" lon="6.59925">
        <ele>1699</ele>
        <time>2021-04-07T06:28:14Z</time>
      </trkpt>
      <trkpt lat="44.51322" lon="6.59927">
        <ele>1700</ele>
        <time>2021-04-07T06:28:15Z</time>
      </trkpt>
      <trkpt lat="44.51322" lon="6.59928">
        <ele>1700</ele>
        <time>2021-04-07T06:28:16Z</time>
      </trkpt>
      <trkpt lat="44.51322" lon="6.59929">
        <ele>1700</ele>
        <time>2021-04-07T06:28:17Z</time>
      </trkpt>
      <trkpt lat="44.51322" lon="6.5993">
        <ele>1700</ele>
        <time>2021-04-07T06:28:18Z</time>
      </trkpt>
      <trkpt lat="44.51322" lon="6.59931">
        <ele>1700</ele>
        <time>2021-04-07T06:28:19Z</time>
      </trkpt>
      <trkpt lat="44.51322" lon="6.59932">
        <ele>1700</ele>
        <time>2021-04-07T06:28:20Z</time>
      </trkpt>
      <trkpt lat="44.51322" lon="6.59933">
        <ele>1701</ele>
        <time>2021-04-07T06:28:21Z</time>
      </trkpt>
      <trkpt lat="44.51322" lon="6.59935">
        <ele>1701</ele>
        <time>2021-04-07T06:28:22Z</time>
      </trkpt>
      <trkpt lat="44.51321" lon="6.59935">
        <ele>1701</ele>
        <time>2021-04-07T06:28:23Z</time>
      </trkpt>
      <trkpt lat="44.51321" lon="6.59936">
        <ele>1701</ele>
        <time>2021-04-07T06:28:24Z</time>
      </trkpt>
      <trkpt lat="44.5132" lon="6.59937">
        <ele>1701</ele>
        <time>2021-04-07T06:28:25Z</time>
      </trkpt>
      <trkpt lat="44.5132" lon="6.59937">
        <ele>1701</ele>
        <time>2021-04-07T06:28:26Z</time>
      </trkpt>
      <trkpt lat="44.51319" lon="6.59937">
        <ele>1702</ele>
        <time>2021-04-07T06:28:27Z</time>
      </trkpt>
      <trkpt lat="44.51319" lon="6.59937">
        <ele>1702</ele>
        <time>2021-04-07T06:28:28Z</time>
      </trkpt>
      <trkpt lat="44.51319" lon="6.59938">
        <ele>1702</ele>
        <time>2021-04-07T06:28:29Z</time>
      </trkpt>
      <trkpt lat="44.51319" lon="6.59938">
        <ele>1702</ele>
        <time>2021-04-07T06:28:30Z</time>
      </trkpt>
      <trkpt lat="44.5132" lon="6.59938">
        <ele>1702</ele>
        <time>2021-04-07T06:28:31Z</time>
      </trkpt>
      <trkpt lat="44.51319" lon="6.59939">
        <ele>1702</ele>
        <time>2021-04-07T06:28:32Z</time>
      </trkpt>
      <trkpt lat="44.51319" lon="6.59939">
        <ele>1702</ele>
        <time>2021-04-07T06:28:33Z</time>
      </trkpt>
      <trkpt lat="44.51319" lon="6.59939">
        <ele>1702</ele>
        <time>2021-04-07T06:28:34Z</time>
      </trkpt>
      <trkpt lat="44.51319" lon="6.59939">
        <ele>1702</ele>
        <time>2021-04-07T06:28:35Z</time>
      </trkpt>
      <trkpt lat="44.51319" lon="6.59939">
        <ele>1702</ele>
        <time>2021-04-07T06:28:36Z</time>
      </trkpt>
      <trkpt lat="44.51319" lon="6.59939">
        <ele>1703</ele>
        <time>2021-04-07T06:28:37Z</time>
      </trkpt>
      <trkpt lat="44.51319" lon="6.59939">
        <ele>1703</ele>
        <time>2021-04-07T06:28:38Z</time>
      </trkpt>
      <trkpt lat="44.51319" lon="6.59939">
        <ele>1703</ele>
        <time>2021-04-07T06:28:39Z</time>
      </trkpt>
      <trkpt lat="44.51319" lon="6.59939">
        <ele>1703</ele>
        <time>2021-04-07T06:28:40Z</time>
      </trkpt>
      <trkpt lat="44.51319" lon="6.59939">
        <ele>1703</ele>
        <time>2021-04-07T06:28:41Z</time>
      </trkpt>
      <trkpt lat="44.51319" lon="6.59939">
        <ele>1703</ele>
        <time>2021-04-07T06:28:42Z</time>
      </trkpt>
      <trkpt lat="44.51319" lon="6.59939">
        <ele>1703</ele>
        <time>2021-04-07T06:28:43Z</time>
      </trkpt>
      <trkpt lat="44.51319" lon="6.59939">
        <ele>1703</ele>
        <time>2021-04-07T06:28:44Z</time>
      </trkpt>
      <trkpt lat="44.51319" lon="6.59939">
        <ele>1703</ele>
        <time>2021-04-07T06:28:45Z</time>
      </trkpt>
      <trkpt lat="44.51319" lon="6.59939">
        <ele>1703</ele>
        <time>2021-04-07T06:28:46Z</time>
      </trkpt>
      <trkpt lat="44.51319" lon="6.59939">
        <ele>1703</ele>
        <time>2021-04-07T06:28:47Z</time>
      </trkpt>
      <trkpt lat="44.51319" lon="6.59939">
        <ele>1703</ele>
        <time>2021-04-07T06:28:48Z</time>
      </trkpt>
      <trkpt lat="44.51319" lon="6.59939">
        <ele>1703</ele>
        <time>2021-04-07T06:28:49Z</time>
      </trkpt>
      <trkpt lat="44.51319" lon="6.59939">
        <ele>1703</ele>
        <time>2021-04-07T06:28:50Z</time>
      </trkpt>
      <trkpt lat="44.51319" lon="6.59939">
        <ele>1703</ele>
        <time>2021-04-07T06:28:51Z</time>
      </trkpt>
      <trkpt lat="44.51319" lon="6.59939">
        <ele>1703</ele>
        <time>2021-04-07T06:28:52Z</time>
      </trkpt>
      <trkpt lat="44.51319" lon="6.59939">
        <ele>1703</ele>
        <time>2021-04-07T06:28:53Z</time>
      </trkpt>
      <trkpt lat="44.51319" lon="6.59939">
        <ele>1703</ele>
        <time>2021-04-07T06:28:54Z</time>
      </trkpt>
      <trkpt lat="44.51319" lon="6.59939">
        <ele>1703</ele>
        <time>2021-04-07T06:28:55Z</time>
      </trkpt>
      <trkpt lat="44.51319" lon="6.59939">
        <ele>1703</ele>
        <time>2021-04-07T06:28:56Z</time>
      </trkpt>
      <trkpt lat="44.51319" lon="6.59939">
        <ele>1703</ele>
        <time>2021-04-07T06:28:57Z</time>
      </trkpt>
      <trkpt lat="44.51319" lon="6.59939">
        <ele>1703</ele>
        <time>2021-04-07T06:28:58Z</time>
      </trkpt>
      <trkpt lat="44.51319" lon="6.59939">
        <ele>1703</ele>
        <time>2021-04-07T06:28:59Z</time>
      </trkpt>
      <trkpt lat="44.51319" lon="6.59939">
        <ele>1703</ele>
        <time>2021-04-07T06:29:00Z</time>
      </trkpt>
      <trkpt lat="44.51319" lon="6.59939">
        <ele>1703</ele>
        <time>2021-04-07T06:29:01Z</time>
      </trkpt>
      <trkpt lat="44.51321" lon="6.59938">
        <ele>1703</ele>
        <time>2021-04-07T06:29:02Z</time>
      </trkpt>
      <trkpt lat="44.51322" lon="6.59937">
        <ele>1703</ele>
        <time>2021-04-07T06:29:03Z</time>
      </trkpt>
      <trkpt lat="44.51322" lon="6.59937">
        <ele>1703</ele>
        <time>2021-04-07T06:29:04Z</time>
      </trkpt>
      <trkpt lat="44.51323" lon="6.59936">
        <ele>1702</ele>
        <time>2021-04-07T06:29:05Z</time>
      </trkpt>
      <trkpt lat="44.51323" lon="6.59936">
        <ele>1702</ele>
        <time>2021-04-07T06:29:06Z</time>
      </trkpt>
      <trkpt lat="44.51324" lon="6.59937">
        <ele>1702</ele>
        <time>2021-04-07T06:29:07Z</time>
      </trkpt>
      <trkpt lat="44.51324" lon="6.59937">
        <ele>1702</ele>
        <time>2021-04-07T06:29:08Z</time>
      </trkpt>
      <trkpt lat="44.51324" lon="6.59937">
        <ele>1702</ele>
        <time>2021-04-07T06:29:09Z</time>
      </trkpt>
      <trkpt lat="44.51324" lon="6.59937">
        <ele>1702</ele>
        <time>2021-04-07T06:29:10Z</time>
      </trkpt>
      <trkpt lat="44.51324" lon="6.59938">
        <ele>1702</ele>
        <time>2021-04-07T06:29:11Z</time>
      </trkpt>
      <trkpt lat="44.51325" lon="6.59938">
        <ele>1702</ele>
        <time>2021-04-07T06:29:12Z</time>
      </trkpt>
      <trkpt lat="44.51325" lon="6.59938">
        <ele>1702</ele>
        <time>2021-04-07T06:29:13Z</time>
      </trkpt>
      <trkpt lat="44.51325" lon="6.59938">
        <ele>1702</ele>
        <time>2021-04-07T06:29:14Z</time>
      </trkpt>
      <trkpt lat="44.51325" lon="6.59938">
        <ele>1702</ele>
        <time>2021-04-07T06:29:15Z</time>
      </trkpt>
      <trkpt lat="44.51325" lon="6.59938">
        <ele>1702</ele>
        <time>2021-04-07T06:29:16Z</time>
      </trkpt>
      <trkpt lat="44.51325" lon="6.59938">
        <ele>1702</ele>
        <time>2021-04-07T06:29:17Z</time>
      </trkpt>
      <trkpt lat="44.51325" lon="6.59938">
        <ele>1702</ele>
        <time>2021-04-07T06:29:18Z</time>
      </trkpt>
      <trkpt lat="44.51325" lon="6.59938">
        <ele>1702</ele>
        <time>2021-04-07T06:29:19Z</time>
      </trkpt>
      <trkpt lat="44.51325" lon="6.59938">
        <ele>1702</ele>
        <time>2021-04-07T06:29:20Z</time>
      </trkpt>
      <trkpt lat="44.51325" lon="6.59938">
        <ele>1702</ele>
        <time>2021-04-07T06:29:21Z</time>
      </trkpt>
      <trkpt lat="44.51325" lon="6.59938">
        <ele>1702</ele>
        <time>2021-04-07T06:29:22Z</time>
      </trkpt>
      <trkpt lat="44.51325" lon="6.59938">
        <ele>1702</ele>
        <time>2021-04-07T06:29:23Z</time>
      </trkpt>
      <trkpt lat="44.51325" lon="6.59938">
        <ele>1702</ele>
        <time>2021-04-07T06:29:24Z</time>
      </trkpt>
      <trkpt lat="44.51325" lon="6.59938">
        <ele>1702</ele>
        <time>2021-04-07T06:29:25Z</time>
      </trkpt>
      <trkpt lat="44.51325" lon="6.59938">
        <ele>1702</ele>
        <time>2021-04-07T06:29:26Z</time>
      </trkpt>
      <trkpt lat="44.51325" lon="6.59938">
        <ele>1702</ele>
        <time>2021-04-07T06:29:27Z</time>
      </trkpt>
      <trkpt lat="44.51325" lon="6.59938">
        <ele>1702</ele>
        <time>2021-04-07T06:29:28Z</time>
      </trkpt>
      <trkpt lat="44.51325" lon="6.59938">
        <ele>1702</ele>
        <time>2021-04-07T06:29:29Z</time>
      </trkpt>
      <trkpt lat="44.51325" lon="6.59938">
        <ele>1702</ele>
        <time>2021-04-07T06:29:30Z</time>
      </trkpt>
      <trkpt lat="44.51325" lon="6.59938">
        <ele>1702</ele>
        <time>2021-04-07T06:29:31Z</time>
      </trkpt>
      <trkpt lat="44.51325" lon="6.59938">
        <ele>1702</ele>
        <time>2021-04-07T06:29:32Z</time>
      </trkpt>
      <trkpt lat="44.51325" lon="6.59938">
        <ele>1702</ele>
        <time>2021-04-07T06:29:33Z</time>
      </trkpt>
      <trkpt lat="44.51325" lon="6.59938">
        <ele>1702</ele>
        <time>2021-04-07T06:29:34Z</time>
      </trkpt>
      <trkpt lat="44.51325" lon="6.59938">
        <ele>1702</ele>
        <time>2021-04-07T06:29:35Z</time>
      </trkpt>
      <trkpt lat="44.51325" lon="6.59938">
        <ele>1702</ele>
        <time>2021-04-07T06:29:36Z</time>
      </trkpt>
      <trkpt lat="44.51325" lon="6.59938">
        <ele>1702</ele>
        <time>2021-04-07T06:29:37Z</time>
      </trkpt>
      <trkpt lat="44.51325" lon="6.59938">
        <ele>1702</ele>
        <time>2021-04-07T06:29:38Z</time>
      </trkpt>
      <trkpt lat="44.51325" lon="6.59938">
        <ele>1702</ele>
        <time>2021-04-07T06:29:39Z</time>
      </trkpt>
      <trkpt lat="44.51325" lon="6.59938">
        <ele>1702</ele>
        <time>2021-04-07T06:29:40Z</time>
      </trkpt>
      <trkpt lat="44.51325" lon="6.59938">
        <ele>1702</ele>
        <time>2021-04-07T06:29:41Z</time>
      </trkpt>
      <trkpt lat="44.51325" lon="6.59938">
        <ele>1702</ele>
        <time>2021-04-07T06:29:42Z</time>
      </trkpt>
      <trkpt lat="44.51325" lon="6.59938">
        <ele>1702</ele>
        <time>2021-04-07T06:29:43Z</time>
      </trkpt>
      <trkpt lat="44.51323" lon="6.59937">
        <ele>1701</ele>
        <time>2021-04-07T06:29:44Z</time>
      </trkpt>
      <trkpt lat="44.51323" lon="6.59937">
        <ele>1701</ele>
        <time>2021-04-07T06:29:45Z</time>
      </trkpt>
      <trkpt lat="44.51322" lon="6.59937">
        <ele>1701</ele>
        <time>2021-04-07T06:29:46Z</time>
      </trkpt>
      <trkpt lat="44.51321" lon="6.59937">
        <ele>1701</ele>
        <time>2021-04-07T06:29:47Z</time>
      </trkpt>
      <trkpt lat="44.51321" lon="6.59937">
        <ele>1700</ele>
        <time>2021-04-07T06:29:48Z</time>
      </trkpt>
      <trkpt lat="44.51321" lon="6.59937">
        <ele>1700</ele>
        <time>2021-04-07T06:29:49Z</time>
      </trkpt>
      <trkpt lat="44.51321" lon="6.59937">
        <ele>1700</ele>
        <time>2021-04-07T06:29:50Z</time>
      </trkpt>
      <trkpt lat="44.51321" lon="6.59937">
        <ele>1700</ele>
        <time>2021-04-07T06:29:51Z</time>
      </trkpt>
      <trkpt lat="44.51321" lon="6.59937">
        <ele>1700</ele>
        <time>2021-04-07T06:29:52Z</time>
      </trkpt>
      <trkpt lat="44.51321" lon="6.59937">
        <ele>1700</ele>
        <time>2021-04-07T06:29:53Z</time>
      </trkpt>
      <trkpt lat="44.51321" lon="6.59937">
        <ele>1700</ele>
        <time>2021-04-07T06:29:54Z</time>
      </trkpt>
      <trkpt lat="44.51321" lon="6.59937">
        <ele>1700</ele>
        <time>2021-04-07T06:29:55Z</time>
      </trkpt>
      <trkpt lat="44.51321" lon="6.59937">
        <ele>1700</ele>
        <time>2021-04-07T06:29:56Z</time>
      </trkpt>
      <trkpt lat="44.51321" lon="6.59937">
        <ele>1700</ele>
        <time>2021-04-07T06:29:57Z</time>
      </trkpt>
      <trkpt lat="44.51321" lon="6.59937">
        <ele>1700</ele>
        <time>2021-04-07T06:29:58Z</time>
      </trkpt>
      <trkpt lat="44.51321" lon="6.59937">
        <ele>1700</ele>
        <time>2021-04-07T06:29:59Z</time>
      </trkpt>
      <trkpt lat="44.51321" lon="6.59937">
        <ele>1700</ele>
        <time>2021-04-07T06:30:00Z</time>
      </trkpt>
      <trkpt lat="44.51321" lon="6.59937">
        <ele>1700</ele>
        <time>2021-04-07T06:30:01Z</time>
      </trkpt>
      <trkpt lat="44.51321" lon="6.59937">
        <ele>1700</ele>
        <time>2021-04-07T06:30:02Z</time>
      </trkpt>
      <trkpt lat="44.51321" lon="6.59937">
        <ele>1700</ele>
        <time>2021-04-07T06:30:03Z</time>
      </trkpt>
      <trkpt lat="44.51321" lon="6.59937">
        <ele>1700</ele>
        <time>2021-04-07T06:30:04Z</time>
      </trkpt>
      <trkpt lat="44.51321" lon="6.59937">
        <ele>1700</ele>
        <time>2021-04-07T06:30:05Z</time>
      </trkpt>
      <trkpt lat="44.51321" lon="6.59937">
        <ele>1700</ele>
        <time>2021-04-07T06:30:06Z</time>
      </trkpt>
      <trkpt lat="44.51321" lon="6.59937">
        <ele>1700</ele>
        <time>2021-04-07T06:30:07Z</time>
      </trkpt>
      <trkpt lat="44.51321" lon="6.59937">
        <ele>1700</ele>
        <time>2021-04-07T06:30:08Z</time>
      </trkpt>
      <trkpt lat="44.51321" lon="6.59937">
        <ele>1700</ele>
        <time>2021-04-07T06:30:09Z</time>
      </trkpt>
      <trkpt lat="44.51321" lon="6.59937">
        <ele>1700</ele>
        <time>2021-04-07T06:30:10Z</time>
      </trkpt>
      <trkpt lat="44.51321" lon="6.59937">
        <ele>1700</ele>
        <time>2021-04-07T06:30:11Z</time>
      </trkpt>
      <trkpt lat="44.51321" lon="6.59937">
        <ele>1700</ele>
        <time>2021-04-07T06:30:12Z</time>
      </trkpt>
      <trkpt lat="44.51321" lon="6.59937">
        <ele>1700</ele>
        <time>2021-04-07T06:30:13Z</time>
      </trkpt>
      <trkpt lat="44.51321" lon="6.59937">
        <ele>1700</ele>
        <time>2021-04-07T06:30:14Z</time>
      </trkpt>
      <trkpt lat="44.51321" lon="6.59937">
        <ele>1700</ele>
        <time>2021-04-07T06:30:15Z</time>
      </trkpt>
      <trkpt lat="44.51321" lon="6.59937">
        <ele>1700</ele>
        <time>2021-04-07T06:30:16Z</time>
      </trkpt>
      <trkpt lat="44.51321" lon="6.59937">
        <ele>1700</ele>
        <time>2021-04-07T06:30:17Z</time>
      </trkpt>
      <trkpt lat="44.51321" lon="6.59937">
        <ele>1700</ele>
        <time>2021-04-07T06:30:18Z</time>
      </trkpt>
      <trkpt lat="44.51321" lon="6.59937">
        <ele>1700</ele>
        <time>2021-04-07T06:30:19Z</time>
      </trkpt>
      <trkpt lat="44.51321" lon="6.59937">
        <ele>1700</ele>
        <time>2021-04-07T06:30:20Z</time>
      </trkpt>
      <trkpt lat="44.51321" lon="6.59937">
        <ele>1700</ele>
        <time>2021-04-07T06:30:21Z</time>
      </trkpt>
      <trkpt lat="44.51321" lon="6.59937">
        <ele>1700</ele>
        <time>2021-04-07T06:30:22Z</time>
      </trkpt>
      <trkpt lat="44.51321" lon="6.59937">
        <ele>1700</ele>
        <time>2021-04-07T06:30:23Z</time>
      </trkpt>
      <trkpt lat="44.51321" lon="6.59937">
        <ele>1700</ele>
        <time>2021-04-07T06:30:24Z</time>
      </trkpt>
      <trkpt lat="44.51321" lon="6.59937">
        <ele>1700</ele>
        <time>2021-04-07T06:30:25Z</time>
      </trkpt>
      <trkpt lat="44.51321" lon="6.59937">
        <ele>1700</ele>
        <time>2021-04-07T06:30:26Z</time>
      </trkpt>
      <trkpt lat="44.51321" lon="6.59937">
        <ele>1700</ele>
        <time>2021-04-07T06:30:27Z</time>
      </trkpt>
      <trkpt lat="44.51321" lon="6.59937">
        <ele>1700</ele>
        <time>2021-04-07T06:30:28Z</time>
      </trkpt>
      <trkpt lat="44.51321" lon="6.59937">
        <ele>1700</ele>
        <time>2021-04-07T06:30:29Z</time>
      </trkpt>
      <trkpt lat="44.51321" lon="6.59937">
        <ele>1700</ele>
        <time>2021-04-07T06:30:30Z</time>
      </trkpt>
      <trkpt lat="44.51321" lon="6.59937">
        <ele>1700</ele>
        <time>2021-04-07T06:30:31Z</time>
      </trkpt>
      <trkpt lat="44.51321" lon="6.59937">
        <ele>1700</ele>
        <time>2021-04-07T06:30:32Z</time>
      </trkpt>
      <trkpt lat="44.51321" lon="6.59937">
        <ele>1700</ele>
        <time>2021-04-07T06:30:33Z</time>
      </trkpt>
      <trkpt lat="44.51321" lon="6.59937">
        <ele>1700</ele>
        <time>2021-04-07T06:30:34Z</time>
      </trkpt>
      <trkpt lat="44.51321" lon="6.59937">
        <ele>1700</ele>
        <time>2021-04-07T06:30:35Z</time>
      </trkpt>
      <trkpt lat="44.51321" lon="6.59937">
        <ele>1700</ele>
        <time>2021-04-07T06:30:36Z</time>
      </trkpt>
      <trkpt lat="44.51321" lon="6.59937">
        <ele>1700</ele>
        <time>2021-04-07T06:30:37Z</time>
      </trkpt>
      <trkpt lat="44.51321" lon="6.59937">
        <ele>1700</ele>
        <time>2021-04-07T06:30:38Z</time>
      </trkpt>
      <trkpt lat="44.51321" lon="6.59937">
        <ele>1700</ele>
        <time>2021-04-07T06:30:39Z</time>
      </trkpt>
      <trkpt lat="44.51321" lon="6.59937">
        <ele>1700</ele>
        <time>2021-04-07T06:30:40Z</time>
      </trkpt>
      <trkpt lat="44.51321" lon="6.59937">
        <ele>1700</ele>
        <time>2021-04-07T06:30:41Z</time>
      </trkpt>
      <trkpt lat="44.51321" lon="6.59937">
        <ele>1700</ele>
        <time>2021-04-07T06:30:42Z</time>
      </trkpt>
      <trkpt lat="44.51321" lon="6.59937">
        <ele>1700</ele>
        <time>2021-04-07T06:30:43Z</time>
      </trkpt>
      <trkpt lat="44.51321" lon="6.59937">
        <ele>1700</ele>
        <time>2021-04-07T06:30:44Z</time>
      </trkpt>
      <trkpt lat="44.51321" lon="6.59937">
        <ele>1700</ele>
        <time>2021-04-07T06:30:45Z</time>
      </trkpt>
      <trkpt lat="44.51321" lon="6.59937">
        <ele>1700</ele>
        <time>2021-04-07T06:30:46Z</time>
      </trkpt>
      <trkpt lat="44.51321" lon="6.59937">
        <ele>1700</ele>
        <time>2021-04-07T06:30:47Z</time>
      </trkpt>
      <trkpt lat="44.51321" lon="6.59937">
        <ele>1700</ele>
        <time>2021-04-07T06:30:48Z</time>
      </trkpt>
      <trkpt lat="44.51321" lon="6.59937">
        <ele>1700</ele>
        <time>2021-04-07T06:30:49Z</time>
      </trkpt>
      <trkpt lat="44.51321" lon="6.59937">
        <ele>1700</ele>
        <time>2021-04-07T06:30:50Z</time>
      </trkpt>
      <trkpt lat="44.51321" lon="6.59937">
        <ele>1700</ele>
        <time>2021-04-07T06:30:51Z</time>
      </trkpt>
      <trkpt lat="44.51321" lon="6.59937">
        <ele>1700</ele>
        <time>2021-04-07T06:30:52Z</time>
      </trkpt>
      <trkpt lat="44.51321" lon="6.59937">
        <ele>1700</ele>
        <time>2021-04-07T06:30:53Z</time>
      </trkpt>
      <trkpt lat="44.51321" lon="6.59937">
        <ele>1700</ele>
        <time>2021-04-07T06:30:54Z</time>
      </trkpt>
      <trkpt lat="44.51318" lon="6.59942">
        <ele>1700</ele>
        <time>2021-04-07T06:30:55Z</time>
      </trkpt>
      <trkpt lat="44.51317" lon="6.59942">
        <ele>1700</ele>
        <time>2021-04-07T06:30:56Z</time>
      </trkpt>
      <trkpt lat="44.51317" lon="6.59943">
        <ele>1700</ele>
        <time>2021-04-07T06:30:57Z</time>
      </trkpt>
      <trkpt lat="44.51316" lon="6.59944">
        <ele>1700</ele>
        <time>2021-04-07T06:30:58Z</time>
      </trkpt>
      <trkpt lat="44.51316" lon="6.59944">
        <ele>1700</ele>
        <time>2021-04-07T06:30:59Z</time>
      </trkpt>
      <trkpt lat="44.51315" lon="6.59945">
        <ele>1700</ele>
        <time>2021-04-07T06:31:00Z</time>
      </trkpt>
      <trkpt lat="44.51315" lon="6.59946">
        <ele>1700</ele>
        <time>2021-04-07T06:31:01Z</time>
      </trkpt>
      <trkpt lat="44.51315" lon="6.59946">
        <ele>1700</ele>
        <time>2021-04-07T06:31:02Z</time>
      </trkpt>
      <trkpt lat="44.51315" lon="6.59946">
        <ele>1700</ele>
        <time>2021-04-07T06:31:03Z</time>
      </trkpt>
      <trkpt lat="44.51314" lon="6.59946">
        <ele>1700</ele>
        <time>2021-04-07T06:31:04Z</time>
      </trkpt>
      <trkpt lat="44.51314" lon="6.59946">
        <ele>1700</ele>
        <time>2021-04-07T06:31:05Z</time>
      </trkpt>
      <trkpt lat="44.51314" lon="6.59946">
        <ele>1700</ele>
        <time>2021-04-07T06:31:06Z</time>
      </trkpt>
      <trkpt lat="44.51314" lon="6.59946">
        <ele>1700</ele>
        <time>2021-04-07T06:31:07Z</time>
      </trkpt>
      <trkpt lat="44.51314" lon="6.59945">
        <ele>1700</ele>
        <time>2021-04-07T06:31:08Z</time>
      </trkpt>
      <trkpt lat="44.51314" lon="6.59945">
        <ele>1700</ele>
        <time>2021-04-07T06:31:09Z</time>
      </trkpt>
      <trkpt lat="44.51314" lon="6.59945">
        <ele>1700</ele>
        <time>2021-04-07T06:31:10Z</time>
      </trkpt>
      <trkpt lat="44.51313" lon="6.59945">
        <ele>1700</ele>
        <time>2021-04-07T06:31:11Z</time>
      </trkpt>
      <trkpt lat="44.51312" lon="6.59945">
        <ele>1700</ele>
        <time>2021-04-07T06:31:12Z</time>
      </trkpt>
      <trkpt lat="44.51312" lon="6.59946">
        <ele>1700</ele>
        <time>2021-04-07T06:31:13Z</time>
      </trkpt>
      <trkpt lat="44.51311" lon="6.59945">
        <ele>1700</ele>
        <time>2021-04-07T06:31:14Z</time>
      </trkpt>
      <trkpt lat="44.51311" lon="6.59945">
        <ele>1700</ele>
        <time>2021-04-07T06:31:15Z</time>
      </trkpt>
      <trkpt lat="44.5131" lon="6.59944">
        <ele>1700</ele>
        <time>2021-04-07T06:31:16Z</time>
      </trkpt>
      <trkpt lat="44.51311" lon="6.59944">
        <ele>1700</ele>
        <time>2021-04-07T06:31:17Z</time>
      </trkpt>
      <trkpt lat="44.51311" lon="6.59944">
        <ele>1700</ele>
        <time>2021-04-07T06:31:18Z</time>
      </trkpt>
      <trkpt lat="44.51311" lon="6.59944">
        <ele>1700</ele>
        <time>2021-04-07T06:31:19Z</time>
      </trkpt>
      <trkpt lat="44.51311" lon="6.59944">
        <ele>1700</ele>
        <time>2021-04-07T06:31:20Z</time>
      </trkpt>
      <trkpt lat="44.51311" lon="6.59944">
        <ele>1700</ele>
        <time>2021-04-07T06:31:21Z</time>
      </trkpt>
      <trkpt lat="44.51311" lon="6.59944">
        <ele>1700</ele>
        <time>2021-04-07T06:31:22Z</time>
      </trkpt>
      <trkpt lat="44.51311" lon="6.59944">
        <ele>1700</ele>
        <time>2021-04-07T06:31:23Z</time>
      </trkpt>
      <trkpt lat="44.51311" lon="6.59944">
        <ele>1700</ele>
        <time>2021-04-07T06:31:24Z</time>
      </trkpt>
      <trkpt lat="44.51311" lon="6.59944">
        <ele>1700</ele>
        <time>2021-04-07T06:31:25Z</time>
      </trkpt>
      <trkpt lat="44.51311" lon="6.59944">
        <ele>1700</ele>
        <time>2021-04-07T06:31:26Z</time>
      </trkpt>
      <trkpt lat="44.51311" lon="6.59944">
        <ele>1700</ele>
        <time>2021-04-07T06:31:27Z</time>
      </trkpt>
      <trkpt lat="44.51311" lon="6.59944">
        <ele>1700</ele>
        <time>2021-04-07T06:31:28Z</time>
      </trkpt>
      <trkpt lat="44.51311" lon="6.59944">
        <ele>1700</ele>
        <time>2021-04-07T06:31:29Z</time>
      </trkpt>
      <trkpt lat="44.51311" lon="6.59944">
        <ele>1700</ele>
        <time>2021-04-07T06:31:30Z</time>
      </trkpt>
      <trkpt lat="44.51311" lon="6.59944">
        <ele>1700</ele>
        <time>2021-04-07T06:31:31Z</time>
      </trkpt>
      <trkpt lat="44.51311" lon="6.59944">
        <ele>1700</ele>
        <time>2021-04-07T06:31:32Z</time>
      </trkpt>
      <trkpt lat="44.51311" lon="6.59944">
        <ele>1700</ele>
        <time>2021-04-07T06:31:33Z</time>
      </trkpt>
      <trkpt lat="44.51311" lon="6.59944">
        <ele>1700</ele>
        <time>2021-04-07T06:31:34Z</time>
      </trkpt>
      <trkpt lat="44.51311" lon="6.59944">
        <ele>1700</ele>
        <time>2021-04-07T06:31:35Z</time>
      </trkpt>
      <trkpt lat="44.51311" lon="6.59944">
        <ele>1700</ele>
        <time>2021-04-07T06:31:36Z</time>
      </trkpt>
      <trkpt lat="44.51311" lon="6.59944">
        <ele>1700</ele>
        <time>2021-04-07T06:31:37Z</time>
      </trkpt>
      <trkpt lat="44.51311" lon="6.59944">
        <ele>1700</ele>
        <time>2021-04-07T06:31:38Z</time>
      </trkpt>
      <trkpt lat="44.51311" lon="6.59944">
        <ele>1700</ele>
        <time>2021-04-07T06:31:39Z</time>
      </trkpt>
      <trkpt lat="44.51311" lon="6.59944">
        <ele>1700</ele>
        <time>2021-04-07T06:31:40Z</time>
      </trkpt>
      <trkpt lat="44.51311" lon="6.59944">
        <ele>1700</ele>
        <time>2021-04-07T06:31:41Z</time>
      </trkpt>
      <trkpt lat="44.51311" lon="6.59944">
        <ele>1700</ele>
        <time>2021-04-07T06:31:42Z</time>
      </trkpt>
      <trkpt lat="44.51311" lon="6.59944">
        <ele>1700</ele>
        <time>2021-04-07T06:31:43Z</time>
      </trkpt>
      <trkpt lat="44.51311" lon="6.59944">
        <ele>1700</ele>
        <time>2021-04-07T06:31:44Z</time>
      </trkpt>
      <trkpt lat="44.51311" lon="6.59944">
        <ele>1700</ele>
        <time>2021-04-07T06:31:45Z</time>
      </trkpt>
      <trkpt lat="44.51311" lon="6.59944">
        <ele>1700</ele>
        <time>2021-04-07T06:31:46Z</time>
      </trkpt>
      <trkpt lat="44.51311" lon="6.59944">
        <ele>1700</ele>
        <time>2021-04-07T06:31:47Z</time>
      </trkpt>
      <trkpt lat="44.51311" lon="6.59944">
        <ele>1700</ele>
        <time>2021-04-07T06:31:48Z</time>
      </trkpt>
      <trkpt lat="44.51311" lon="6.59944">
        <ele>1700</ele>
        <time>2021-04-07T06:31:49Z</time>
      </trkpt>
      <trkpt lat="44.51311" lon="6.59944">
        <ele>1700</ele>
        <time>2021-04-07T06:31:50Z</time>
      </trkpt>
      <trkpt lat="44.51311" lon="6.59944">
        <ele>1700</ele>
        <time>2021-04-07T06:31:51Z</time>
      </trkpt>
      <trkpt lat="44.51311" lon="6.59941">
        <ele>1700</ele>
        <time>2021-04-07T06:31:52Z</time>
      </trkpt>
      <trkpt lat="44.51311" lon="6.59941">
        <ele>1700</ele>
        <time>2021-04-07T06:31:53Z</time>
      </trkpt>
      <trkpt lat="44.51311" lon="6.5994">
        <ele>1700</ele>
        <time>2021-04-07T06:31:54Z</time>
      </trkpt>
      <trkpt lat="44.51311" lon="6.5994">
        <ele>1700</ele>
        <time>2021-04-07T06:31:55Z</time>
      </trkpt>
      <trkpt lat="44.51311" lon="6.59939">
        <ele>1700</ele>
        <time>2021-04-07T06:31:56Z</time>
      </trkpt>
      <trkpt lat="44.51311" lon="6.59938">
        <ele>1700</ele>
        <time>2021-04-07T06:31:57Z</time>
      </trkpt>
      <trkpt lat="44.5131" lon="6.59937">
        <ele>1700</ele>
        <time>2021-04-07T06:31:58Z</time>
      </trkpt>
      <trkpt lat="44.5131" lon="6.59938">
        <ele>1700</ele>
        <time>2021-04-07T06:31:59Z</time>
      </trkpt>
      <trkpt lat="44.5131" lon="6.59939">
        <ele>1700</ele>
        <time>2021-04-07T06:32:00Z</time>
      </trkpt>
      <trkpt lat="44.5131" lon="6.59939">
        <ele>1700</ele>
        <time>2021-04-07T06:32:01Z</time>
      </trkpt>
      <trkpt lat="44.51309" lon="6.5994">
        <ele>1701</ele>
        <time>2021-04-07T06:32:02Z</time>
      </trkpt>
      <trkpt lat="44.51309" lon="6.59939">
        <ele>1701</ele>
        <time>2021-04-07T06:32:03Z</time>
      </trkpt>
      <trkpt lat="44.51308" lon="6.5994">
        <ele>1701</ele>
        <time>2021-04-07T06:32:04Z</time>
      </trkpt>
      <trkpt lat="44.51308" lon="6.59939">
        <ele>1701</ele>
        <time>2021-04-07T06:32:05Z</time>
      </trkpt>
      <trkpt lat="44.51307" lon="6.59938">
        <ele>1701</ele>
        <time>2021-04-07T06:32:06Z</time>
      </trkpt>
      <trkpt lat="44.51306" lon="6.59937">
        <ele>1701</ele>
        <time>2021-04-07T06:32:07Z</time>
      </trkpt>
      <trkpt lat="44.51306" lon="6.59937">
        <ele>1702</ele>
        <time>2021-04-07T06:32:08Z</time>
      </trkpt>
      <trkpt lat="44.51305" lon="6.59936">
        <ele>1702</ele>
        <time>2021-04-07T06:32:09Z</time>
      </trkpt>
      <trkpt lat="44.51305" lon="6.59936">
        <ele>1702</ele>
        <time>2021-04-07T06:32:10Z</time>
      </trkpt>
      <trkpt lat="44.51304" lon="6.59935">
        <ele>1702</ele>
        <time>2021-04-07T06:32:11Z</time>
      </trkpt>
      <trkpt lat="44.51303" lon="6.59935">
        <ele>1702</ele>
        <time>2021-04-07T06:32:12Z</time>
      </trkpt>
      <trkpt lat="44.51303" lon="6.59935">
        <ele>1702</ele>
        <time>2021-04-07T06:32:13Z</time>
      </trkpt>
      <trkpt lat="44.51303" lon="6.59934">
        <ele>1703</ele>
        <time>2021-04-07T06:32:14Z</time>
      </trkpt>
      <trkpt lat="44.51302" lon="6.59934">
        <ele>1703</ele>
        <time>2021-04-07T06:32:15Z</time>
      </trkpt>
      <trkpt lat="44.51302" lon="6.59933">
        <ele>1703</ele>
        <time>2021-04-07T06:32:16Z</time>
      </trkpt>
      <trkpt lat="44.51301" lon="6.59933">
        <ele>1703</ele>
        <time>2021-04-07T06:32:17Z</time>
      </trkpt>
      <trkpt lat="44.51301" lon="6.59933">
        <ele>1703</ele>
        <time>2021-04-07T06:32:18Z</time>
      </trkpt>
      <trkpt lat="44.513" lon="6.59933">
        <ele>1703</ele>
        <time>2021-04-07T06:32:19Z</time>
      </trkpt>
      <trkpt lat="44.513" lon="6.59932">
        <ele>1704</ele>
        <time>2021-04-07T06:32:20Z</time>
      </trkpt>
      <trkpt lat="44.51299" lon="6.59932">
        <ele>1704</ele>
        <time>2021-04-07T06:32:21Z</time>
      </trkpt>
      <trkpt lat="44.51298" lon="6.59931">
        <ele>1704</ele>
        <time>2021-04-07T06:32:22Z</time>
      </trkpt>
      <trkpt lat="44.51298" lon="6.59931">
        <ele>1704</ele>
        <time>2021-04-07T06:32:23Z</time>
      </trkpt>
      <trkpt lat="44.51298" lon="6.5993">
        <ele>1704</ele>
        <time>2021-04-07T06:32:24Z</time>
      </trkpt>
      <trkpt lat="44.51297" lon="6.59929">
        <ele>1705</ele>
        <time>2021-04-07T06:32:25Z</time>
      </trkpt>
      <trkpt lat="44.51297" lon="6.59929">
        <ele>1705</ele>
        <time>2021-04-07T06:32:26Z</time>
      </trkpt>
      <trkpt lat="44.51297" lon="6.59928">
        <ele>1705</ele>
        <time>2021-04-07T06:32:27Z</time>
      </trkpt>
      <trkpt lat="44.51297" lon="6.59928">
        <ele>1705</ele>
        <time>2021-04-07T06:32:28Z</time>
      </trkpt>
      <trkpt lat="44.51296" lon="6.59927">
        <ele>1705</ele>
        <time>2021-04-07T06:32:29Z</time>
      </trkpt>
      <trkpt lat="44.51296" lon="6.59927">
        <ele>1706</ele>
        <time>2021-04-07T06:32:30Z</time>
      </trkpt>
      <trkpt lat="44.51295" lon="6.59926">
        <ele>1706</ele>
        <time>2021-04-07T06:32:31Z</time>
      </trkpt>
      <trkpt lat="44.51294" lon="6.59925">
        <ele>1706</ele>
        <time>2021-04-07T06:32:32Z</time>
      </trkpt>
      <trkpt lat="44.51294" lon="6.59924">
        <ele>1706</ele>
        <time>2021-04-07T06:32:33Z</time>
      </trkpt>
      <trkpt lat="44.51293" lon="6.59924">
        <ele>1707</ele>
        <time>2021-04-07T06:32:34Z</time>
      </trkpt>
      <trkpt lat="44.51293" lon="6.59923">
        <ele>1707</ele>
        <time>2021-04-07T06:32:35Z</time>
      </trkpt>
      <trkpt lat="44.51293" lon="6.59923">
        <ele>1707</ele>
        <time>2021-04-07T06:32:36Z</time>
      </trkpt>
      <trkpt lat="44.51294" lon="6.59923">
        <ele>1707</ele>
        <time>2021-04-07T06:32:37Z</time>
      </trkpt>
      <trkpt lat="44.51294" lon="6.59922">
        <ele>1707</ele>
        <time>2021-04-07T06:32:38Z</time>
      </trkpt>
      <trkpt lat="44.51294" lon="6.59922">
        <ele>1707</ele>
        <time>2021-04-07T06:32:39Z</time>
      </trkpt>
      <trkpt lat="44.51294" lon="6.59922">
        <ele>1707</ele>
        <time>2021-04-07T06:32:40Z</time>
      </trkpt>
      <trkpt lat="44.51294" lon="6.59921">
        <ele>1707</ele>
        <time>2021-04-07T06:32:41Z</time>
      </trkpt>
      <trkpt lat="44.51293" lon="6.5992">
        <ele>1708</ele>
        <time>2021-04-07T06:32:42Z</time>
      </trkpt>
      <trkpt lat="44.51293" lon="6.59919">
        <ele>1708</ele>
        <time>2021-04-07T06:32:43Z</time>
      </trkpt>
      <trkpt lat="44.51293" lon="6.59919">
        <ele>1708</ele>
        <time>2021-04-07T06:32:44Z</time>
      </trkpt>
      <trkpt lat="44.51293" lon="6.59918">
        <ele>1708</ele>
        <time>2021-04-07T06:32:45Z</time>
      </trkpt>
      <trkpt lat="44.51292" lon="6.59917">
        <ele>1708</ele>
        <time>2021-04-07T06:32:46Z</time>
      </trkpt>
      <trkpt lat="44.51292" lon="6.59917">
        <ele>1707</ele>
        <time>2021-04-07T06:32:47Z</time>
      </trkpt>
      <trkpt lat="44.51292" lon="6.59916">
        <ele>1707</ele>
        <time>2021-04-07T06:32:48Z</time>
      </trkpt>
      <trkpt lat="44.51292" lon="6.59915">
        <ele>1707</ele>
        <time>2021-04-07T06:32:49Z</time>
      </trkpt>
      <trkpt lat="44.51292" lon="6.59914">
        <ele>1707</ele>
        <time>2021-04-07T06:32:50Z</time>
      </trkpt>
      <trkpt lat="44.51291" lon="6.59913">
        <ele>1707</ele>
        <time>2021-04-07T06:32:51Z</time>
      </trkpt>
      <trkpt lat="44.51291" lon="6.59912">
        <ele>1707</ele>
        <time>2021-04-07T06:32:52Z</time>
      </trkpt>
      <trkpt lat="44.5129" lon="6.59911">
        <ele>1707</ele>
        <time>2021-04-07T06:32:53Z</time>
      </trkpt>
      <trkpt lat="44.51289" lon="6.5991">
        <ele>1707</ele>
        <time>2021-04-07T06:32:54Z</time>
      </trkpt>
      <trkpt lat="44.51289" lon="6.5991">
        <ele>1707</ele>
        <time>2021-04-07T06:32:55Z</time>
      </trkpt>
      <trkpt lat="44.51289" lon="6.5991">
        <ele>1707</ele>
        <time>2021-04-07T06:32:56Z</time>
      </trkpt>
      <trkpt lat="44.51289" lon="6.5991">
        <ele>1707</ele>
        <time>2021-04-07T06:32:57Z</time>
      </trkpt>
      <trkpt lat="44.51289" lon="6.5991">
        <ele>1707</ele>
        <time>2021-04-07T06:32:58Z</time>
      </trkpt>
      <trkpt lat="44.51289" lon="6.5991">
        <ele>1707</ele>
        <time>2021-04-07T06:32:59Z</time>
      </trkpt>
      <trkpt lat="44.51289" lon="6.5991">
        <ele>1707</ele>
        <time>2021-04-07T06:33:00Z</time>
      </trkpt>
      <trkpt lat="44.51289" lon="6.5991">
        <ele>1707</ele>
        <time>2021-04-07T06:33:01Z</time>
      </trkpt>
      <trkpt lat="44.51289" lon="6.5991">
        <ele>1707</ele>
        <time>2021-04-07T06:33:02Z</time>
      </trkpt>
      <trkpt lat="44.51289" lon="6.5991">
        <ele>1707</ele>
        <time>2021-04-07T06:33:03Z</time>
      </trkpt>
      <trkpt lat="44.51289" lon="6.5991">
        <ele>1707</ele>
        <time>2021-04-07T06:33:04Z</time>
      </trkpt>
      <trkpt lat="44.51289" lon="6.5991">
        <ele>1707</ele>
        <time>2021-04-07T06:33:05Z</time>
      </trkpt>
      <trkpt lat="44.51289" lon="6.5991">
        <ele>1707</ele>
        <time>2021-04-07T06:33:06Z</time>
      </trkpt>
      <trkpt lat="44.51289" lon="6.5991">
        <ele>1707</ele>
        <time>2021-04-07T06:33:07Z</time>
      </trkpt>
      <trkpt lat="44.51289" lon="6.5991">
        <ele>1707</ele>
        <time>2021-04-07T06:33:08Z</time>
      </trkpt>
      <trkpt lat="44.51289" lon="6.5991">
        <ele>1707</ele>
        <time>2021-04-07T06:33:09Z</time>
      </trkpt>
      <trkpt lat="44.51289" lon="6.5991">
        <ele>1707</ele>
        <time>2021-04-07T06:33:10Z</time>
      </trkpt>
      <trkpt lat="44.51289" lon="6.5991">
        <ele>1707</ele>
        <time>2021-04-07T06:33:11Z</time>
      </trkpt>
      <trkpt lat="44.51289" lon="6.5991">
        <ele>1707</ele>
        <time>2021-04-07T06:33:12Z</time>
      </trkpt>
      <trkpt lat="44.51289" lon="6.5991">
        <ele>1707</ele>
        <time>2021-04-07T06:33:13Z</time>
      </trkpt>
      <trkpt lat="44.51289" lon="6.5991">
        <ele>1707</ele>
        <time>2021-04-07T06:33:14Z</time>
      </trkpt>
      <trkpt lat="44.51289" lon="6.5991">
        <ele>1707</ele>
        <time>2021-04-07T06:33:15Z</time>
      </trkpt>
      <trkpt lat="44.51289" lon="6.5991">
        <ele>1707</ele>
        <time>2021-04-07T06:33:16Z</time>
      </trkpt>
      <trkpt lat="44.51289" lon="6.5991">
        <ele>1707</ele>
        <time>2021-04-07T06:33:17Z</time>
      </trkpt>
      <trkpt lat="44.51289" lon="6.5991">
        <ele>1707</ele>
        <time>2021-04-07T06:33:18Z</time>
      </trkpt>
      <trkpt lat="44.51289" lon="6.5991">
        <ele>1707</ele>
        <time>2021-04-07T06:33:19Z</time>
      </trkpt>
      <trkpt lat="44.51289" lon="6.5991">
        <ele>1707</ele>
        <time>2021-04-07T06:33:20Z</time>
      </trkpt>
      <trkpt lat="44.51289" lon="6.5991">
        <ele>1707</ele>
        <time>2021-04-07T06:33:21Z</time>
      </trkpt>
      <trkpt lat="44.51289" lon="6.5991">
        <ele>1707</ele>
        <time>2021-04-07T06:33:22Z</time>
      </trkpt>
      <trkpt lat="44.51289" lon="6.5991">
        <ele>1707</ele>
        <time>2021-04-07T06:33:23Z</time>
      </trkpt>
      <trkpt lat="44.51289" lon="6.5991">
        <ele>1707</ele>
        <time>2021-04-07T06:33:24Z</time>
      </trkpt>
      <trkpt lat="44.51289" lon="6.5991">
        <ele>1707</ele>
        <time>2021-04-07T06:33:25Z</time>
      </trkpt>
      <trkpt lat="44.51289" lon="6.5991">
        <ele>1707</ele>
        <time>2021-04-07T06:33:26Z</time>
      </trkpt>
      <trkpt lat="44.51289" lon="6.59909">
        <ele>1707</ele>
        <time>2021-04-07T06:33:27Z</time>
      </trkpt>
      <trkpt lat="44.51288" lon="6.5991">
        <ele>1707</ele>
        <time>2021-04-07T06:33:28Z</time>
      </trkpt>
      <trkpt lat="44.51288" lon="6.5991">
        <ele>1707</ele>
        <time>2021-04-07T06:33:29Z</time>
      </trkpt>
      <trkpt lat="44.51288" lon="6.5991">
        <ele>1708</ele>
        <time>2021-04-07T06:33:30Z</time>
      </trkpt>
      <trkpt lat="44.51287" lon="6.5991">
        <ele>1708</ele>
        <time>2021-04-07T06:33:31Z</time>
      </trkpt>
      <trkpt lat="44.51286" lon="6.59911">
        <ele>1708</ele>
        <time>2021-04-07T06:33:32Z</time>
      </trkpt>
      <trkpt lat="44.51286" lon="6.59911">
        <ele>1709</ele>
        <time>2021-04-07T06:33:33Z</time>
      </trkpt>
      <trkpt lat="44.51285" lon="6.59911">
        <ele>1709</ele>
        <time>2021-04-07T06:33:34Z</time>
      </trkpt>
      <trkpt lat="44.51285" lon="6.59911">
        <ele>1709</ele>
        <time>2021-04-07T06:33:35Z</time>
      </trkpt>
      <trkpt lat="44.51285" lon="6.5991">
        <ele>1709</ele>
        <time>2021-04-07T06:33:36Z</time>
      </trkpt>
      <trkpt lat="44.51284" lon="6.5991">
        <ele>1709</ele>
        <time>2021-04-07T06:33:37Z</time>
      </trkpt>
      <trkpt lat="44.51284" lon="6.59909">
        <ele>1709</ele>
        <time>2021-04-07T06:33:38Z</time>
      </trkpt>
      <trkpt lat="44.51283" lon="6.59908">
        <ele>1709</ele>
        <time>2021-04-07T06:33:39Z</time>
      </trkpt>
      <trkpt lat="44.51283" lon="6.59906">
        <ele>1709</ele>
        <time>2021-04-07T06:33:40Z</time>
      </trkpt>
      <trkpt lat="44.51283" lon="6.59905">
        <ele>1709</ele>
        <time>2021-04-07T06:33:41Z</time>
      </trkpt>
      <trkpt lat="44.51283" lon="6.59905">
        <ele>1710</ele>
        <time>2021-04-07T06:33:42Z</time>
      </trkpt>
      <trkpt lat="44.51282" lon="6.59904">
        <ele>1710</ele>
        <time>2021-04-07T06:33:43Z</time>
      </trkpt>
      <trkpt lat="44.51282" lon="6.59904">
        <ele>1710</ele>
        <time>2021-04-07T06:33:44Z</time>
      </trkpt>
      <trkpt lat="44.51281" lon="6.59903">
        <ele>1710</ele>
        <time>2021-04-07T06:33:45Z</time>
      </trkpt>
      <trkpt lat="44.51281" lon="6.59903">
        <ele>1710</ele>
        <time>2021-04-07T06:33:46Z</time>
      </trkpt>
      <trkpt lat="44.5128" lon="6.59902">
        <ele>1710</ele>
        <time>2021-04-07T06:33:47Z</time>
      </trkpt>
      <trkpt lat="44.5128" lon="6.59902">
        <ele>1710</ele>
        <time>2021-04-07T06:33:48Z</time>
      </trkpt>
      <trkpt lat="44.5128" lon="6.59901">
        <ele>1710</ele>
        <time>2021-04-07T06:33:49Z</time>
      </trkpt>
      <trkpt lat="44.51279" lon="6.59901">
        <ele>1710</ele>
        <time>2021-04-07T06:33:50Z</time>
      </trkpt>
      <trkpt lat="44.51279" lon="6.59901">
        <ele>1710</ele>
        <time>2021-04-07T06:33:51Z</time>
      </trkpt>
      <trkpt lat="44.51279" lon="6.59901">
        <ele>1710</ele>
        <time>2021-04-07T06:33:52Z</time>
      </trkpt>
      <trkpt lat="44.51279" lon="6.59901">
        <ele>1710</ele>
        <time>2021-04-07T06:33:53Z</time>
      </trkpt>
      <trkpt lat="44.51279" lon="6.59901">
        <ele>1710</ele>
        <time>2021-04-07T06:33:54Z</time>
      </trkpt>
      <trkpt lat="44.51279" lon="6.599">
        <ele>1710</ele>
        <time>2021-04-07T06:33:55Z</time>
      </trkpt>
      <trkpt lat="44.51279" lon="6.599">
        <ele>1710</ele>
        <time>2021-04-07T06:33:56Z</time>
      </trkpt>
      <trkpt lat="44.51279" lon="6.599">
        <ele>1710</ele>
        <time>2021-04-07T06:33:57Z</time>
      </trkpt>
      <trkpt lat="44.51279" lon="6.599">
        <ele>1710</ele>
        <time>2021-04-07T06:33:58Z</time>
      </trkpt>
      <trkpt lat="44.51279" lon="6.599">
        <ele>1710</ele>
        <time>2021-04-07T06:33:59Z</time>
      </trkpt>
      <trkpt lat="44.51279" lon="6.599">
        <ele>1710</ele>
        <time>2021-04-07T06:34:00Z</time>
      </trkpt>
      <trkpt lat="44.51279" lon="6.599">
        <ele>1710</ele>
        <time>2021-04-07T06:34:01Z</time>
      </trkpt>
      <trkpt lat="44.51279" lon="6.599">
        <ele>1710</ele>
        <time>2021-04-07T06:34:02Z</time>
      </trkpt>
      <trkpt lat="44.51279" lon="6.599">
        <ele>1710</ele>
        <time>2021-04-07T06:34:03Z</time>
      </trkpt>
      <trkpt lat="44.51279" lon="6.599">
        <ele>1710</ele>
        <time>2021-04-07T06:34:04Z</time>
      </trkpt>
      <trkpt lat="44.51279" lon="6.599">
        <ele>1710</ele>
        <time>2021-04-07T06:34:05Z</time>
      </trkpt>
      <trkpt lat="44.51279" lon="6.599">
        <ele>1710</ele>
        <time>2021-04-07T06:34:06Z</time>
      </trkpt>
      <trkpt lat="44.51279" lon="6.599">
        <ele>1710</ele>
        <time>2021-04-07T06:34:07Z</time>
      </trkpt>
      <trkpt lat="44.51279" lon="6.599">
        <ele>1710</ele>
        <time>2021-04-07T06:34:08Z</time>
      </trkpt>
      <trkpt lat="44.51279" lon="6.599">
        <ele>1710</ele>
        <time>2021-04-07T06:34:09Z</time>
      </trkpt>
      <trkpt lat="44.51279" lon="6.599">
        <ele>1710</ele>
        <time>2021-04-07T06:34:10Z</time>
      </trkpt>
      <trkpt lat="44.51279" lon="6.599">
        <ele>1710</ele>
        <time>2021-04-07T06:34:11Z</time>
      </trkpt>
      <trkpt lat="44.51279" lon="6.599">
        <ele>1710</ele>
        <time>2021-04-07T06:34:12Z</time>
      </trkpt>
      <trkpt lat="44.51279" lon="6.599">
        <ele>1710</ele>
        <time>2021-04-07T06:34:13Z</time>
      </trkpt>
      <trkpt lat="44.51279" lon="6.599">
        <ele>1710</ele>
        <time>2021-04-07T06:34:14Z</time>
      </trkpt>
      <trkpt lat="44.51279" lon="6.599">
        <ele>1710</ele>
        <time>2021-04-07T06:34:15Z</time>
      </trkpt>
      <trkpt lat="44.51279" lon="6.599">
        <ele>1710</ele>
        <time>2021-04-07T06:34:16Z</time>
      </trkpt>
      <trkpt lat="44.51279" lon="6.59899">
        <ele>1710</ele>
        <time>2021-04-07T06:34:17Z</time>
      </trkpt>
      <trkpt lat="44.51279" lon="6.59899">
        <ele>1710</ele>
        <time>2021-04-07T06:34:18Z</time>
      </trkpt>
      <trkpt lat="44.51278" lon="6.59898">
        <ele>1710</ele>
        <time>2021-04-07T06:34:19Z</time>
      </trkpt>
      <trkpt lat="44.51278" lon="6.59897">
        <ele>1711</ele>
        <time>2021-04-07T06:34:20Z</time>
      </trkpt>
      <trkpt lat="44.51277" lon="6.59897">
        <ele>1711</ele>
        <time>2021-04-07T06:34:21Z</time>
      </trkpt>
      <trkpt lat="44.51277" lon="6.59896">
        <ele>1711</ele>
        <time>2021-04-07T06:34:22Z</time>
      </trkpt>
      <trkpt lat="44.51276" lon="6.59896">
        <ele>1711</ele>
        <time>2021-04-07T06:34:23Z</time>
      </trkpt>
      <trkpt lat="44.51276" lon="6.59895">
        <ele>1711</ele>
        <time>2021-04-07T06:34:24Z</time>
      </trkpt>
      <trkpt lat="44.51276" lon="6.59894">
        <ele>1712</ele>
        <time>2021-04-07T06:34:25Z</time>
      </trkpt>
      <trkpt lat="44.51276" lon="6.59893">
        <ele>1712</ele>
        <time>2021-04-07T06:34:26Z</time>
      </trkpt>
      <trkpt lat="44.51275" lon="6.59891">
        <ele>1712</ele>
        <time>2021-04-07T06:34:27Z</time>
      </trkpt>
      <trkpt lat="44.51275" lon="6.5989">
        <ele>1712</ele>
        <time>2021-04-07T06:34:28Z</time>
      </trkpt>
      <trkpt lat="44.51274" lon="6.59889">
        <ele>1712</ele>
        <time>2021-04-07T06:34:29Z</time>
      </trkpt>
      <trkpt lat="44.51274" lon="6.59888">
        <ele>1712</ele>
        <time>2021-04-07T06:34:30Z</time>
      </trkpt>
      <trkpt lat="44.51273" lon="6.59887">
        <ele>1712</ele>
        <time>2021-04-07T06:34:31Z</time>
      </trkpt>
      <trkpt lat="44.51273" lon="6.59886">
        <ele>1712</ele>
        <time>2021-04-07T06:34:32Z</time>
      </trkpt>
      <trkpt lat="44.51272" lon="6.59885">
        <ele>1712</ele>
        <time>2021-04-07T06:34:33Z</time>
      </trkpt>
      <trkpt lat="44.51271" lon="6.59884">
        <ele>1712</ele>
        <time>2021-04-07T06:34:34Z</time>
      </trkpt>
      <trkpt lat="44.51271" lon="6.59883">
        <ele>1712</ele>
        <time>2021-04-07T06:34:35Z</time>
      </trkpt>
      <trkpt lat="44.5127" lon="6.59882">
        <ele>1712</ele>
        <time>2021-04-07T06:34:36Z</time>
      </trkpt>
      <trkpt lat="44.5127" lon="6.59881">
        <ele>1713</ele>
        <time>2021-04-07T06:34:37Z</time>
      </trkpt>
      <trkpt lat="44.51269" lon="6.5988">
        <ele>1713</ele>
        <time>2021-04-07T06:34:38Z</time>
      </trkpt>
      <trkpt lat="44.51269" lon="6.59879">
        <ele>1713</ele>
        <time>2021-04-07T06:34:39Z</time>
      </trkpt>
      <trkpt lat="44.51268" lon="6.59878">
        <ele>1713</ele>
        <time>2021-04-07T06:34:40Z</time>
      </trkpt>
      <trkpt lat="44.51268" lon="6.59877">
        <ele>1713</ele>
        <time>2021-04-07T06:34:41Z</time>
      </trkpt>
      <trkpt lat="44.51267" lon="6.59877">
        <ele>1714</ele>
        <time>2021-04-07T06:34:42Z</time>
      </trkpt>
      <trkpt lat="44.51267" lon="6.59875">
        <ele>1714</ele>
        <time>2021-04-07T06:34:43Z</time>
      </trkpt>
      <trkpt lat="44.51266" lon="6.59874">
        <ele>1714</ele>
        <time>2021-04-07T06:34:44Z</time>
      </trkpt>
      <trkpt lat="44.51266" lon="6.59873">
        <ele>1714</ele>
        <time>2021-04-07T06:34:45Z</time>
      </trkpt>
      <trkpt lat="44.51265" lon="6.59873">
        <ele>1714</ele>
        <time>2021-04-07T06:34:46Z</time>
      </trkpt>
      <trkpt lat="44.51265" lon="6.59873">
        <ele>1715</ele>
        <time>2021-04-07T06:34:47Z</time>
      </trkpt>
      <trkpt lat="44.51265" lon="6.59873">
        <ele>1715</ele>
        <time>2021-04-07T06:34:48Z</time>
      </trkpt>
      <trkpt lat="44.51264" lon="6.59873">
        <ele>1715</ele>
        <time>2021-04-07T06:34:49Z</time>
      </trkpt>
      <trkpt lat="44.51264" lon="6.59872">
        <ele>1715</ele>
        <time>2021-04-07T06:34:50Z</time>
      </trkpt>
      <trkpt lat="44.51263" lon="6.59872">
        <ele>1715</ele>
        <time>2021-04-07T06:34:51Z</time>
      </trkpt>
      <trkpt lat="44.51263" lon="6.59871">
        <ele>1715</ele>
        <time>2021-04-07T06:34:52Z</time>
      </trkpt>
      <trkpt lat="44.51262" lon="6.5987">
        <ele>1715</ele>
        <time>2021-04-07T06:34:53Z</time>
      </trkpt>
      <trkpt lat="44.51261" lon="6.5987">
        <ele>1716</ele>
        <time>2021-04-07T06:34:54Z</time>
      </trkpt>
      <trkpt lat="44.51261" lon="6.5987">
        <ele>1716</ele>
        <time>2021-04-07T06:34:55Z</time>
      </trkpt>
      <trkpt lat="44.5126" lon="6.5987">
        <ele>1716</ele>
        <time>2021-04-07T06:34:56Z</time>
      </trkpt>
      <trkpt lat="44.5126" lon="6.5987">
        <ele>1717</ele>
        <time>2021-04-07T06:34:57Z</time>
      </trkpt>
      <trkpt lat="44.51259" lon="6.59869">
        <ele>1717</ele>
        <time>2021-04-07T06:34:58Z</time>
      </trkpt>
      <trkpt lat="44.51259" lon="6.59869">
        <ele>1717</ele>
        <time>2021-04-07T06:34:59Z</time>
      </trkpt>
      <trkpt lat="44.51258" lon="6.59867">
        <ele>1717</ele>
        <time>2021-04-07T06:35:00Z</time>
      </trkpt>
      <trkpt lat="44.51258" lon="6.59867">
        <ele>1717</ele>
        <time>2021-04-07T06:35:01Z</time>
      </trkpt>
      <trkpt lat="44.51257" lon="6.59867">
        <ele>1718</ele>
        <time>2021-04-07T06:35:02Z</time>
      </trkpt>
      <trkpt lat="44.51257" lon="6.59867">
        <ele>1718</ele>
        <time>2021-04-07T06:35:03Z</time>
      </trkpt>
      <trkpt lat="44.51257" lon="6.59866">
        <ele>1719</ele>
        <time>2021-04-07T06:35:04Z</time>
      </trkpt>
      <trkpt lat="44.51256" lon="6.59866">
        <ele>1719</ele>
        <time>2021-04-07T06:35:05Z</time>
      </trkpt>
      <trkpt lat="44.51256" lon="6.59865">
        <ele>1719</ele>
        <time>2021-04-07T06:35:06Z</time>
      </trkpt>
      <trkpt lat="44.51256" lon="6.59865">
        <ele>1719</ele>
        <time>2021-04-07T06:35:07Z</time>
      </trkpt>
      <trkpt lat="44.51256" lon="6.59866">
        <ele>1720</ele>
        <time>2021-04-07T06:35:08Z</time>
      </trkpt>
      <trkpt lat="44.51255" lon="6.59867">
        <ele>1720</ele>
        <time>2021-04-07T06:35:09Z</time>
      </trkpt>
      <trkpt lat="44.51255" lon="6.59867">
        <ele>1720</ele>
        <time>2021-04-07T06:35:10Z</time>
      </trkpt>
      <trkpt lat="44.51255" lon="6.59868">
        <ele>1720</ele>
        <time>2021-04-07T06:35:11Z</time>
      </trkpt>
      <trkpt lat="44.51254" lon="6.59869">
        <ele>1721</ele>
        <time>2021-04-07T06:35:12Z</time>
      </trkpt>
      <trkpt lat="44.51254" lon="6.59869">
        <ele>1722</ele>
        <time>2021-04-07T06:35:13Z</time>
      </trkpt>
      <trkpt lat="44.51253" lon="6.5987">
        <ele>1722</ele>
        <time>2021-04-07T06:35:14Z</time>
      </trkpt>
      <trkpt lat="44.51253" lon="6.59871">
        <ele>1722</ele>
        <time>2021-04-07T06:35:15Z</time>
      </trkpt>
      <trkpt lat="44.51253" lon="6.59872">
        <ele>1722</ele>
        <time>2021-04-07T06:35:16Z</time>
      </trkpt>
      <trkpt lat="44.51253" lon="6.59873">
        <ele>1723</ele>
        <time>2021-04-07T06:35:17Z</time>
      </trkpt>
      <trkpt lat="44.51252" lon="6.59874">
        <ele>1724</ele>
        <time>2021-04-07T06:35:18Z</time>
      </trkpt>
      <trkpt lat="44.51252" lon="6.59875">
        <ele>1724</ele>
        <time>2021-04-07T06:35:19Z</time>
      </trkpt>
      <trkpt lat="44.51252" lon="6.59876">
        <ele>1724</ele>
        <time>2021-04-07T06:35:20Z</time>
      </trkpt>
      <trkpt lat="44.51252" lon="6.59877">
        <ele>1724</ele>
        <time>2021-04-07T06:35:21Z</time>
      </trkpt>
      <trkpt lat="44.51253" lon="6.59878">
        <ele>1725</ele>
        <time>2021-04-07T06:35:22Z</time>
      </trkpt>
      <trkpt lat="44.51253" lon="6.59879">
        <ele>1725</ele>
        <time>2021-04-07T06:35:23Z</time>
      </trkpt>
      <trkpt lat="44.51253" lon="6.5988">
        <ele>1726</ele>
        <time>2021-04-07T06:35:24Z</time>
      </trkpt>
      <trkpt lat="44.51253" lon="6.59881">
        <ele>1726</ele>
        <time>2021-04-07T06:35:25Z</time>
      </trkpt>
      <trkpt lat="44.51253" lon="6.59882">
        <ele>1726</ele>
        <time>2021-04-07T06:35:26Z</time>
      </trkpt>
      <trkpt lat="44.51253" lon="6.59883">
        <ele>1727</ele>
        <time>2021-04-07T06:35:27Z</time>
      </trkpt>
      <trkpt lat="44.51253" lon="6.59884">
        <ele>1727</ele>
        <time>2021-04-07T06:35:28Z</time>
      </trkpt>
      <trkpt lat="44.51253" lon="6.59885">
        <ele>1727</ele>
        <time>2021-04-07T06:35:29Z</time>
      </trkpt>
      <trkpt lat="44.51252" lon="6.59886">
        <ele>1727</ele>
        <time>2021-04-07T06:35:30Z</time>
      </trkpt>
      <trkpt lat="44.51252" lon="6.59887">
        <ele>1728</ele>
        <time>2021-04-07T06:35:31Z</time>
      </trkpt>
      <trkpt lat="44.51251" lon="6.59887">
        <ele>1728</ele>
        <time>2021-04-07T06:35:32Z</time>
      </trkpt>
      <trkpt lat="44.51251" lon="6.59887">
        <ele>1728</ele>
        <time>2021-04-07T06:35:33Z</time>
      </trkpt>
      <trkpt lat="44.5125" lon="6.59888">
        <ele>1729</ele>
        <time>2021-04-07T06:35:34Z</time>
      </trkpt>
      <trkpt lat="44.5125" lon="6.59888">
        <ele>1729</ele>
        <time>2021-04-07T06:35:35Z</time>
      </trkpt>
      <trkpt lat="44.51249" lon="6.59889">
        <ele>1729</ele>
        <time>2021-04-07T06:35:36Z</time>
      </trkpt>
      <trkpt lat="44.51248" lon="6.59889">
        <ele>1729</ele>
        <time>2021-04-07T06:35:37Z</time>
      </trkpt>
      <trkpt lat="44.51247" lon="6.59889">
        <ele>1729</ele>
        <time>2021-04-07T06:35:38Z</time>
      </trkpt>
      <trkpt lat="44.51247" lon="6.5989">
        <ele>1730</ele>
        <time>2021-04-07T06:35:39Z</time>
      </trkpt>
      <trkpt lat="44.51247" lon="6.5989">
        <ele>1730</ele>
        <time>2021-04-07T06:35:40Z</time>
      </trkpt>
      <trkpt lat="44.51247" lon="6.5989">
        <ele>1730</ele>
        <time>2021-04-07T06:35:41Z</time>
      </trkpt>
      <trkpt lat="44.51247" lon="6.5989">
        <ele>1730</ele>
        <time>2021-04-07T06:35:42Z</time>
      </trkpt>
      <trkpt lat="44.51246" lon="6.59891">
        <ele>1730</ele>
        <time>2021-04-07T06:35:43Z</time>
      </trkpt>
      <trkpt lat="44.51246" lon="6.59892">
        <ele>1730</ele>
        <time>2021-04-07T06:35:44Z</time>
      </trkpt>
      <trkpt lat="44.51245" lon="6.59893">
        <ele>1730</ele>
        <time>2021-04-07T06:35:45Z</time>
      </trkpt>
      <trkpt lat="44.51244" lon="6.59894">
        <ele>1730</ele>
        <time>2021-04-07T06:35:46Z</time>
      </trkpt>
      <trkpt lat="44.51244" lon="6.59894">
        <ele>1729</ele>
        <time>2021-04-07T06:35:47Z</time>
      </trkpt>
      <trkpt lat="44.51244" lon="6.59894">
        <ele>1729</ele>
        <time>2021-04-07T06:35:48Z</time>
      </trkpt>
      <trkpt lat="44.51243" lon="6.59894">
        <ele>1729</ele>
        <time>2021-04-07T06:35:49Z</time>
      </trkpt>
      <trkpt lat="44.51242" lon="6.59894">
        <ele>1729</ele>
        <time>2021-04-07T06:35:50Z</time>
      </trkpt>
      <trkpt lat="44.51242" lon="6.59895">
        <ele>1729</ele>
        <time>2021-04-07T06:35:51Z</time>
      </trkpt>
      <trkpt lat="44.51241" lon="6.59895">
        <ele>1729</ele>
        <time>2021-04-07T06:35:52Z</time>
      </trkpt>
      <trkpt lat="44.51241" lon="6.59895">
        <ele>1729</ele>
        <time>2021-04-07T06:35:53Z</time>
      </trkpt>
      <trkpt lat="44.51241" lon="6.59895">
        <ele>1729</ele>
        <time>2021-04-07T06:35:54Z</time>
      </trkpt>
      <trkpt lat="44.51241" lon="6.59895">
        <ele>1729</ele>
        <time>2021-04-07T06:35:55Z</time>
      </trkpt>
      <trkpt lat="44.51241" lon="6.59894">
        <ele>1729</ele>
        <time>2021-04-07T06:35:56Z</time>
      </trkpt>
      <trkpt lat="44.5124" lon="6.59894">
        <ele>1729</ele>
        <time>2021-04-07T06:35:57Z</time>
      </trkpt>
      <trkpt lat="44.5124" lon="6.59894">
        <ele>1729</ele>
        <time>2021-04-07T06:35:58Z</time>
      </trkpt>
      <trkpt lat="44.5124" lon="6.59894">
        <ele>1729</ele>
        <time>2021-04-07T06:35:59Z</time>
      </trkpt>
      <trkpt lat="44.5124" lon="6.59894">
        <ele>1729</ele>
        <time>2021-04-07T06:36:00Z</time>
      </trkpt>
      <trkpt lat="44.5124" lon="6.59894">
        <ele>1729</ele>
        <time>2021-04-07T06:36:01Z</time>
      </trkpt>
      <trkpt lat="44.5124" lon="6.59894">
        <ele>1729</ele>
        <time>2021-04-07T06:36:02Z</time>
      </trkpt>
      <trkpt lat="44.5124" lon="6.59894">
        <ele>1729</ele>
        <time>2021-04-07T06:36:03Z</time>
      </trkpt>
      <trkpt lat="44.5124" lon="6.59894">
        <ele>1729</ele>
        <time>2021-04-07T06:36:04Z</time>
      </trkpt>
      <trkpt lat="44.5124" lon="6.59894">
        <ele>1729</ele>
        <time>2021-04-07T06:36:05Z</time>
      </trkpt>
      <trkpt lat="44.5124" lon="6.59894">
        <ele>1729</ele>
        <time>2021-04-07T06:36:06Z</time>
      </trkpt>
      <trkpt lat="44.5124" lon="6.59894">
        <ele>1729</ele>
        <time>2021-04-07T06:36:07Z</time>
      </trkpt>
      <trkpt lat="44.5124" lon="6.59894">
        <ele>1729</ele>
        <time>2021-04-07T06:36:08Z</time>
      </trkpt>
      <trkpt lat="44.51237" lon="6.59892">
        <ele>1729</ele>
        <time>2021-04-07T06:36:09Z</time>
      </trkpt>
      <trkpt lat="44.51236" lon="6.59892">
        <ele>1729</ele>
        <time>2021-04-07T06:36:10Z</time>
      </trkpt>
      <trkpt lat="44.51236" lon="6.59892">
        <ele>1729</ele>
        <time>2021-04-07T06:36:11Z</time>
      </trkpt>
      <trkpt lat="44.51235" lon="6.59892">
        <ele>1729</ele>
        <time>2021-04-07T06:36:12Z</time>
      </trkpt>
      <trkpt lat="44.51235" lon="6.59892">
        <ele>1729</ele>
        <time>2021-04-07T06:36:13Z</time>
      </trkpt>
      <trkpt lat="44.51234" lon="6.59892">
        <ele>1729</ele>
        <time>2021-04-07T06:36:14Z</time>
      </trkpt>
      <trkpt lat="44.51233" lon="6.59892">
        <ele>1730</ele>
        <time>2021-04-07T06:36:15Z</time>
      </trkpt>
      <trkpt lat="44.51233" lon="6.59891">
        <ele>1730</ele>
        <time>2021-04-07T06:36:16Z</time>
      </trkpt>
      <trkpt lat="44.51232" lon="6.59892">
        <ele>1730</ele>
        <time>2021-04-07T06:36:17Z</time>
      </trkpt>
      <trkpt lat="44.51231" lon="6.59892">
        <ele>1730</ele>
        <time>2021-04-07T06:36:18Z</time>
      </trkpt>
      <trkpt lat="44.51231" lon="6.59892">
        <ele>1730</ele>
        <time>2021-04-07T06:36:19Z</time>
      </trkpt>
      <trkpt lat="44.51231" lon="6.59893">
        <ele>1730</ele>
        <time>2021-04-07T06:36:20Z</time>
      </trkpt>
      <trkpt lat="44.5123" lon="6.59893">
        <ele>1730</ele>
        <time>2021-04-07T06:36:21Z</time>
      </trkpt>
      <trkpt lat="44.51229" lon="6.59894">
        <ele>1730</ele>
        <time>2021-04-07T06:36:22Z</time>
      </trkpt>
      <trkpt lat="44.51229" lon="6.59894">
        <ele>1730</ele>
        <time>2021-04-07T06:36:23Z</time>
      </trkpt>
      <trkpt lat="44.51228" lon="6.59894">
        <ele>1730</ele>
        <time>2021-04-07T06:36:24Z</time>
      </trkpt>
      <trkpt lat="44.51227" lon="6.59895">
        <ele>1731</ele>
        <time>2021-04-07T06:36:25Z</time>
      </trkpt>
      <trkpt lat="44.51227" lon="6.59895">
        <ele>1731</ele>
        <time>2021-04-07T06:36:26Z</time>
      </trkpt>
      <trkpt lat="44.51226" lon="6.59895">
        <ele>1731</ele>
        <time>2021-04-07T06:36:27Z</time>
      </trkpt>
      <trkpt lat="44.51226" lon="6.59895">
        <ele>1731</ele>
        <time>2021-04-07T06:36:28Z</time>
      </trkpt>
      <trkpt lat="44.51226" lon="6.59895">
        <ele>1731</ele>
        <time>2021-04-07T06:36:29Z</time>
      </trkpt>
      <trkpt lat="44.51226" lon="6.59895">
        <ele>1731</ele>
        <time>2021-04-07T06:36:30Z</time>
      </trkpt>
      <trkpt lat="44.51226" lon="6.59895">
        <ele>1732</ele>
        <time>2021-04-07T06:36:31Z</time>
      </trkpt>
      <trkpt lat="44.51226" lon="6.59895">
        <ele>1732</ele>
        <time>2021-04-07T06:36:32Z</time>
      </trkpt>
      <trkpt lat="44.51226" lon="6.59894">
        <ele>1732</ele>
        <time>2021-04-07T06:36:33Z</time>
      </trkpt>
      <trkpt lat="44.51226" lon="6.59894">
        <ele>1732</ele>
        <time>2021-04-07T06:36:34Z</time>
      </trkpt>
      <trkpt lat="44.51226" lon="6.59894">
        <ele>1732</ele>
        <time>2021-04-07T06:36:35Z</time>
      </trkpt>
      <trkpt lat="44.51226" lon="6.59894">
        <ele>1732</ele>
        <time>2021-04-07T06:36:36Z</time>
      </trkpt>
      <trkpt lat="44.51226" lon="6.59894">
        <ele>1732</ele>
        <time>2021-04-07T06:36:37Z</time>
      </trkpt>
      <trkpt lat="44.51226" lon="6.59894">
        <ele>1732</ele>
        <time>2021-04-07T06:36:38Z</time>
      </trkpt>
      <trkpt lat="44.51226" lon="6.59894">
        <ele>1732</ele>
        <time>2021-04-07T06:36:39Z</time>
      </trkpt>
      <trkpt lat="44.51226" lon="6.59894">
        <ele>1732</ele>
        <time>2021-04-07T06:36:40Z</time>
      </trkpt>
      <trkpt lat="44.51226" lon="6.59894">
        <ele>1732</ele>
        <time>2021-04-07T06:36:41Z</time>
      </trkpt>
      <trkpt lat="44.51226" lon="6.59894">
        <ele>1732</ele>
        <time>2021-04-07T06:36:42Z</time>
      </trkpt>
      <trkpt lat="44.51226" lon="6.59894">
        <ele>1732</ele>
        <time>2021-04-07T06:36:43Z</time>
      </trkpt>
      <trkpt lat="44.51226" lon="6.59894">
        <ele>1732</ele>
        <time>2021-04-07T06:36:44Z</time>
      </trkpt>
      <trkpt lat="44.51226" lon="6.59894">
        <ele>1732</ele>
        <time>2021-04-07T06:36:45Z</time>
      </trkpt>
      <trkpt lat="44.51226" lon="6.59894">
        <ele>1732</ele>
        <time>2021-04-07T06:36:46Z</time>
      </trkpt>
      <trkpt lat="44.51226" lon="6.59894">
        <ele>1732</ele>
        <time>2021-04-07T06:36:47Z</time>
      </trkpt>
      <trkpt lat="44.51226" lon="6.59894">
        <ele>1732</ele>
        <time>2021-04-07T06:36:48Z</time>
      </trkpt>
      <trkpt lat="44.51226" lon="6.59894">
        <ele>1732</ele>
        <time>2021-04-07T06:36:49Z</time>
      </trkpt>
      <trkpt lat="44.51226" lon="6.59894">
        <ele>1732</ele>
        <time>2021-04-07T06:36:50Z</time>
      </trkpt>
      <trkpt lat="44.51226" lon="6.59894">
        <ele>1732</ele>
        <time>2021-04-07T06:36:51Z</time>
      </trkpt>
      <trkpt lat="44.51226" lon="6.59894">
        <ele>1732</ele>
        <time>2021-04-07T06:36:52Z</time>
      </trkpt>
      <trkpt lat="44.51226" lon="6.59894">
        <ele>1732</ele>
        <time>2021-04-07T06:36:53Z</time>
      </trkpt>
      <trkpt lat="44.51226" lon="6.59894">
        <ele>1732</ele>
        <time>2021-04-07T06:36:54Z</time>
      </trkpt>
      <trkpt lat="44.51226" lon="6.59894">
        <ele>1732</ele>
        <time>2021-04-07T06:36:55Z</time>
      </trkpt>
      <trkpt lat="44.51226" lon="6.59894">
        <ele>1732</ele>
        <time>2021-04-07T06:36:56Z</time>
      </trkpt>
      <trkpt lat="44.51226" lon="6.59894">
        <ele>1732</ele>
        <time>2021-04-07T06:36:57Z</time>
      </trkpt>
      <trkpt lat="44.51226" lon="6.59894">
        <ele>1732</ele>
        <time>2021-04-07T06:36:58Z</time>
      </trkpt>
      <trkpt lat="44.51226" lon="6.59894">
        <ele>1732</ele>
        <time>2021-04-07T06:36:59Z</time>
      </trkpt>
      <trkpt lat="44.51227" lon="6.59891">
        <ele>1732</ele>
        <time>2021-04-07T06:37:00Z</time>
      </trkpt>
      <trkpt lat="44.51226" lon="6.5989">
        <ele>1733</ele>
        <time>2021-04-07T06:37:01Z</time>
      </trkpt>
      <trkpt lat="44.51226" lon="6.5989">
        <ele>1734</ele>
        <time>2021-04-07T06:37:02Z</time>
      </trkpt>
      <trkpt lat="44.51225" lon="6.5989">
        <ele>1734</ele>
        <time>2021-04-07T06:37:03Z</time>
      </trkpt>
      <trkpt lat="44.51224" lon="6.59889">
        <ele>1734</ele>
        <time>2021-04-07T06:37:04Z</time>
      </trkpt>
      <trkpt lat="44.51224" lon="6.59889">
        <ele>1734</ele>
        <time>2021-04-07T06:37:05Z</time>
      </trkpt>
      <trkpt lat="44.51223" lon="6.59889">
        <ele>1734</ele>
        <time>2021-04-07T06:37:06Z</time>
      </trkpt>
      <trkpt lat="44.51222" lon="6.59889">
        <ele>1735</ele>
        <time>2021-04-07T06:37:07Z</time>
      </trkpt>
      <trkpt lat="44.51222" lon="6.59888">
        <ele>1735</ele>
        <time>2021-04-07T06:37:08Z</time>
      </trkpt>
      <trkpt lat="44.51221" lon="6.59888">
        <ele>1735</ele>
        <time>2021-04-07T06:37:09Z</time>
      </trkpt>
      <trkpt lat="44.5122" lon="6.59888">
        <ele>1735</ele>
        <time>2021-04-07T06:37:10Z</time>
      </trkpt>
      <trkpt lat="44.51219" lon="6.59887">
        <ele>1735</ele>
        <time>2021-04-07T06:37:11Z</time>
      </trkpt>
      <trkpt lat="44.51218" lon="6.59887">
        <ele>1735</ele>
        <time>2021-04-07T06:37:12Z</time>
      </trkpt>
      <trkpt lat="44.51217" lon="6.59887">
        <ele>1735</ele>
        <time>2021-04-07T06:37:13Z</time>
      </trkpt>
      <trkpt lat="44.51216" lon="6.59887">
        <ele>1735</ele>
        <time>2021-04-07T06:37:14Z</time>
      </trkpt>
      <trkpt lat="44.51216" lon="6.59887">
        <ele>1736</ele>
        <time>2021-04-07T06:37:15Z</time>
      </trkpt>
      <trkpt lat="44.51215" lon="6.59886">
        <ele>1736</ele>
        <time>2021-04-07T06:37:16Z</time>
      </trkpt>
      <trkpt lat="44.51215" lon="6.59886">
        <ele>1736</ele>
        <time>2021-04-07T06:37:17Z</time>
      </trkpt>
      <trkpt lat="44.51215" lon="6.59886">
        <ele>1736</ele>
        <time>2021-04-07T06:37:18Z</time>
      </trkpt>
      <trkpt lat="44.51214" lon="6.59885">
        <ele>1736</ele>
        <time>2021-04-07T06:37:19Z</time>
      </trkpt>
      <trkpt lat="44.51213" lon="6.59885">
        <ele>1736</ele>
        <time>2021-04-07T06:37:20Z</time>
      </trkpt>
      <trkpt lat="44.51213" lon="6.59885">
        <ele>1736</ele>
        <time>2021-04-07T06:37:21Z</time>
      </trkpt>
      <trkpt lat="44.51212" lon="6.59884">
        <ele>1737</ele>
        <time>2021-04-07T06:37:22Z</time>
      </trkpt>
      <trkpt lat="44.51212" lon="6.59884">
        <ele>1737</ele>
        <time>2021-04-07T06:37:23Z</time>
      </trkpt>
      <trkpt lat="44.51212" lon="6.59884">
        <ele>1737</ele>
        <time>2021-04-07T06:37:24Z</time>
      </trkpt>
      <trkpt lat="44.51212" lon="6.59884">
        <ele>1737</ele>
        <time>2021-04-07T06:37:25Z</time>
      </trkpt>
      <trkpt lat="44.51212" lon="6.59884">
        <ele>1737</ele>
        <time>2021-04-07T06:37:26Z</time>
      </trkpt>
      <trkpt lat="44.51212" lon="6.59883">
        <ele>1737</ele>
        <time>2021-04-07T06:37:27Z</time>
      </trkpt>
      <trkpt lat="44.51212" lon="6.59883">
        <ele>1737</ele>
        <time>2021-04-07T06:37:28Z</time>
      </trkpt>
      <trkpt lat="44.51212" lon="6.59883">
        <ele>1737</ele>
        <time>2021-04-07T06:37:29Z</time>
      </trkpt>
      <trkpt lat="44.51212" lon="6.59883">
        <ele>1737</ele>
        <time>2021-04-07T06:37:30Z</time>
      </trkpt>
      <trkpt lat="44.51212" lon="6.59883">
        <ele>1737</ele>
        <time>2021-04-07T06:37:31Z</time>
      </trkpt>
      <trkpt lat="44.51213" lon="6.5988">
        <ele>1738</ele>
        <time>2021-04-07T06:37:32Z</time>
      </trkpt>
      <trkpt lat="44.51212" lon="6.59879">
        <ele>1738</ele>
        <time>2021-04-07T06:37:33Z</time>
      </trkpt>
      <trkpt lat="44.51212" lon="6.59878">
        <ele>1738</ele>
        <time>2021-04-07T06:37:34Z</time>
      </trkpt>
      <trkpt lat="44.51212" lon="6.59878">
        <ele>1738</ele>
        <time>2021-04-07T06:37:35Z</time>
      </trkpt>
      <trkpt lat="44.51211" lon="6.59877">
        <ele>1738</ele>
        <time>2021-04-07T06:37:36Z</time>
      </trkpt>
      <trkpt lat="44.51211" lon="6.59876">
        <ele>1738</ele>
        <time>2021-04-07T06:37:37Z</time>
      </trkpt>
      <trkpt lat="44.5121" lon="6.59876">
        <ele>1739</ele>
        <time>2021-04-07T06:37:38Z</time>
      </trkpt>
      <trkpt lat="44.51209" lon="6.59876">
        <ele>1739</ele>
        <time>2021-04-07T06:37:39Z</time>
      </trkpt>
      <trkpt lat="44.51209" lon="6.59876">
        <ele>1739</ele>
        <time>2021-04-07T06:37:40Z</time>
      </trkpt>
      <trkpt lat="44.51208" lon="6.59876">
        <ele>1739</ele>
        <time>2021-04-07T06:37:41Z</time>
      </trkpt>
      <trkpt lat="44.51208" lon="6.59877">
        <ele>1739</ele>
        <time>2021-04-07T06:37:42Z</time>
      </trkpt>
      <trkpt lat="44.51208" lon="6.59877">
        <ele>1739</ele>
        <time>2021-04-07T06:37:43Z</time>
      </trkpt>
      <trkpt lat="44.51208" lon="6.59876">
        <ele>1739</ele>
        <time>2021-04-07T06:37:44Z</time>
      </trkpt>
      <trkpt lat="44.51208" lon="6.59876">
        <ele>1739</ele>
        <time>2021-04-07T06:37:45Z</time>
      </trkpt>
      <trkpt lat="44.51208" lon="6.59876">
        <ele>1739</ele>
        <time>2021-04-07T06:37:46Z</time>
      </trkpt>
      <trkpt lat="44.51208" lon="6.59876">
        <ele>1739</ele>
        <time>2021-04-07T06:37:47Z</time>
      </trkpt>
      <trkpt lat="44.51208" lon="6.59876">
        <ele>1740</ele>
        <time>2021-04-07T06:37:48Z</time>
      </trkpt>
      <trkpt lat="44.51208" lon="6.59876">
        <ele>1740</ele>
        <time>2021-04-07T06:37:49Z</time>
      </trkpt>
      <trkpt lat="44.51208" lon="6.59876">
        <ele>1740</ele>
        <time>2021-04-07T06:37:50Z</time>
      </trkpt>
      <trkpt lat="44.51208" lon="6.59876">
        <ele>1740</ele>
        <time>2021-04-07T06:37:51Z</time>
      </trkpt>
      <trkpt lat="44.51208" lon="6.59876">
        <ele>1740</ele>
        <time>2021-04-07T06:37:52Z</time>
      </trkpt>
      <trkpt lat="44.51208" lon="6.59876">
        <ele>1740</ele>
        <time>2021-04-07T06:37:53Z</time>
      </trkpt>
      <trkpt lat="44.51208" lon="6.59876">
        <ele>1740</ele>
        <time>2021-04-07T06:37:54Z</time>
      </trkpt>
      <trkpt lat="44.51208" lon="6.59876">
        <ele>1740</ele>
        <time>2021-04-07T06:37:55Z</time>
      </trkpt>
      <trkpt lat="44.51208" lon="6.59876">
        <ele>1740</ele>
        <time>2021-04-07T06:37:56Z</time>
      </trkpt>
      <trkpt lat="44.51208" lon="6.59876">
        <ele>1740</ele>
        <time>2021-04-07T06:37:57Z</time>
      </trkpt>
      <trkpt lat="44.51208" lon="6.59876">
        <ele>1740</ele>
        <time>2021-04-07T06:37:58Z</time>
      </trkpt>
      <trkpt lat="44.51208" lon="6.59876">
        <ele>1740</ele>
        <time>2021-04-07T06:37:59Z</time>
      </trkpt>
      <trkpt lat="44.51206" lon="6.59873">
        <ele>1740</ele>
        <time>2021-04-07T06:38:00Z</time>
      </trkpt>
      <trkpt lat="44.51206" lon="6.59873">
        <ele>1740</ele>
        <time>2021-04-07T06:38:01Z</time>
      </trkpt>
      <trkpt lat="44.51206" lon="6.59872">
        <ele>1740</ele>
        <time>2021-04-07T06:38:02Z</time>
      </trkpt>
      <trkpt lat="44.51206" lon="6.59871">
        <ele>1740</ele>
        <time>2021-04-07T06:38:03Z</time>
      </trkpt>
      <trkpt lat="44.51205" lon="6.5987">
        <ele>1739</ele>
        <time>2021-04-07T06:38:04Z</time>
      </trkpt>
      <trkpt lat="44.51205" lon="6.59869">
        <ele>1739</ele>
        <time>2021-04-07T06:38:05Z</time>
      </trkpt>
      <trkpt lat="44.51205" lon="6.59868">
        <ele>1739</ele>
        <time>2021-04-07T06:38:06Z</time>
      </trkpt>
      <trkpt lat="44.51206" lon="6.59867">
        <ele>1739</ele>
        <time>2021-04-07T06:38:07Z</time>
      </trkpt>
      <trkpt lat="44.51206" lon="6.59866">
        <ele>1739</ele>
        <time>2021-04-07T06:38:08Z</time>
      </trkpt>
      <trkpt lat="44.51206" lon="6.59866">
        <ele>1739</ele>
        <time>2021-04-07T06:38:09Z</time>
      </trkpt>
      <trkpt lat="44.51205" lon="6.59864">
        <ele>1738</ele>
        <time>2021-04-07T06:38:10Z</time>
      </trkpt>
      <trkpt lat="44.51205" lon="6.59864">
        <ele>1738</ele>
        <time>2021-04-07T06:38:11Z</time>
      </trkpt>
      <trkpt lat="44.51204" lon="6.59863">
        <ele>1738</ele>
        <time>2021-04-07T06:38:12Z</time>
      </trkpt>
      <trkpt lat="44.51204" lon="6.59862">
        <ele>1738</ele>
        <time>2021-04-07T06:38:13Z</time>
      </trkpt>
      <trkpt lat="44.51204" lon="6.59862">
        <ele>1738</ele>
        <time>2021-04-07T06:38:14Z</time>
      </trkpt>
      <trkpt lat="44.51203" lon="6.59861">
        <ele>1738</ele>
        <time>2021-04-07T06:38:15Z</time>
      </trkpt>
      <trkpt lat="44.51203" lon="6.5986">
        <ele>1738</ele>
        <time>2021-04-07T06:38:16Z</time>
      </trkpt>
      <trkpt lat="44.51202" lon="6.59859">
        <ele>1738</ele>
        <time>2021-04-07T06:38:17Z</time>
      </trkpt>
      <trkpt lat="44.51202" lon="6.59858">
        <ele>1738</ele>
        <time>2021-04-07T06:38:18Z</time>
      </trkpt>
      <trkpt lat="44.51202" lon="6.59857">
        <ele>1738</ele>
        <time>2021-04-07T06:38:19Z</time>
      </trkpt>
      <trkpt lat="44.51202" lon="6.59856">
        <ele>1738</ele>
        <time>2021-04-07T06:38:20Z</time>
      </trkpt>
      <trkpt lat="44.51201" lon="6.59855">
        <ele>1738</ele>
        <time>2021-04-07T06:38:21Z</time>
      </trkpt>
      <trkpt lat="44.512" lon="6.59854">
        <ele>1738</ele>
        <time>2021-04-07T06:38:22Z</time>
      </trkpt>
      <trkpt lat="44.512" lon="6.59853">
        <ele>1738</ele>
        <time>2021-04-07T06:38:23Z</time>
      </trkpt>
      <trkpt lat="44.512" lon="6.59852">
        <ele>1738</ele>
        <time>2021-04-07T06:38:24Z</time>
      </trkpt>
      <trkpt lat="44.51199" lon="6.59852">
        <ele>1738</ele>
        <time>2021-04-07T06:38:25Z</time>
      </trkpt>
      <trkpt lat="44.51199" lon="6.59851">
        <ele>1738</ele>
        <time>2021-04-07T06:38:26Z</time>
      </trkpt>
      <trkpt lat="44.51198" lon="6.5985">
        <ele>1738</ele>
        <time>2021-04-07T06:38:27Z</time>
      </trkpt>
      <trkpt lat="44.51198" lon="6.59849">
        <ele>1738</ele>
        <time>2021-04-07T06:38:28Z</time>
      </trkpt>
      <trkpt lat="44.51197" lon="6.59849">
        <ele>1738</ele>
        <time>2021-04-07T06:38:29Z</time>
      </trkpt>
      <trkpt lat="44.51197" lon="6.59848">
        <ele>1738</ele>
        <time>2021-04-07T06:38:30Z</time>
      </trkpt>
      <trkpt lat="44.51196" lon="6.59847">
        <ele>1739</ele>
        <time>2021-04-07T06:38:31Z</time>
      </trkpt>
      <trkpt lat="44.51196" lon="6.59846">
        <ele>1739</ele>
        <time>2021-04-07T06:38:32Z</time>
      </trkpt>
      <trkpt lat="44.51195" lon="6.59845">
        <ele>1739</ele>
        <time>2021-04-07T06:38:33Z</time>
      </trkpt>
      <trkpt lat="44.51195" lon="6.59845">
        <ele>1739</ele>
        <time>2021-04-07T06:38:34Z</time>
      </trkpt>
      <trkpt lat="44.51194" lon="6.59844">
        <ele>1739</ele>
        <time>2021-04-07T06:38:35Z</time>
      </trkpt>
      <trkpt lat="44.51194" lon="6.59844">
        <ele>1739</ele>
        <time>2021-04-07T06:38:36Z</time>
      </trkpt>
      <trkpt lat="44.51193" lon="6.59843">
        <ele>1739</ele>
        <time>2021-04-07T06:38:37Z</time>
      </trkpt>
      <trkpt lat="44.51193" lon="6.59843">
        <ele>1739</ele>
        <time>2021-04-07T06:38:38Z</time>
      </trkpt>
      <trkpt lat="44.51192" lon="6.59842">
        <ele>1739</ele>
        <time>2021-04-07T06:38:39Z</time>
      </trkpt>
      <trkpt lat="44.51192" lon="6.59842">
        <ele>1739</ele>
        <time>2021-04-07T06:38:40Z</time>
      </trkpt>
      <trkpt lat="44.51191" lon="6.59842">
        <ele>1739</ele>
        <time>2021-04-07T06:38:41Z</time>
      </trkpt>
      <trkpt lat="44.5119" lon="6.59841">
        <ele>1740</ele>
        <time>2021-04-07T06:38:42Z</time>
      </trkpt>
      <trkpt lat="44.5119" lon="6.59841">
        <ele>1740</ele>
        <time>2021-04-07T06:38:43Z</time>
      </trkpt>
      <trkpt lat="44.51189" lon="6.5984">
        <ele>1740</ele>
        <time>2021-04-07T06:38:44Z</time>
      </trkpt>
      <trkpt lat="44.51188" lon="6.59839">
        <ele>1740</ele>
        <time>2021-04-07T06:38:45Z</time>
      </trkpt>
      <trkpt lat="44.51188" lon="6.59839">
        <ele>1740</ele>
        <time>2021-04-07T06:38:46Z</time>
      </trkpt>
      <trkpt lat="44.51188" lon="6.59839">
        <ele>1740</ele>
        <time>2021-04-07T06:38:47Z</time>
      </trkpt>
      <trkpt lat="44.51187" lon="6.59839">
        <ele>1740</ele>
        <time>2021-04-07T06:38:48Z</time>
      </trkpt>
      <trkpt lat="44.51187" lon="6.59838">
        <ele>1740</ele>
        <time>2021-04-07T06:38:49Z</time>
      </trkpt>
      <trkpt lat="44.51186" lon="6.59838">
        <ele>1740</ele>
        <time>2021-04-07T06:38:50Z</time>
      </trkpt>
      <trkpt lat="44.51185" lon="6.59838">
        <ele>1741</ele>
        <time>2021-04-07T06:38:51Z</time>
      </trkpt>
      <trkpt lat="44.51184" lon="6.59838">
        <ele>1741</ele>
        <time>2021-04-07T06:38:52Z</time>
      </trkpt>
      <trkpt lat="44.51184" lon="6.59838">
        <ele>1741</ele>
        <time>2021-04-07T06:38:53Z</time>
      </trkpt>
      <trkpt lat="44.51184" lon="6.59837">
        <ele>1741</ele>
        <time>2021-04-07T06:38:54Z</time>
      </trkpt>
      <trkpt lat="44.51184" lon="6.59837">
        <ele>1741</ele>
        <time>2021-04-07T06:38:55Z</time>
      </trkpt>
      <trkpt lat="44.51183" lon="6.59837">
        <ele>1741</ele>
        <time>2021-04-07T06:38:56Z</time>
      </trkpt>
      <trkpt lat="44.51183" lon="6.59837">
        <ele>1741</ele>
        <time>2021-04-07T06:38:57Z</time>
      </trkpt>
      <trkpt lat="44.51183" lon="6.59836">
        <ele>1742</ele>
        <time>2021-04-07T06:38:58Z</time>
      </trkpt>
      <trkpt lat="44.51183" lon="6.59836">
        <ele>1742</ele>
        <time>2021-04-07T06:38:59Z</time>
      </trkpt>
      <trkpt lat="44.51183" lon="6.59836">
        <ele>1742</ele>
        <time>2021-04-07T06:39:00Z</time>
      </trkpt>
      <trkpt lat="44.51183" lon="6.59836">
        <ele>1742</ele>
        <time>2021-04-07T06:39:01Z</time>
      </trkpt>
      <trkpt lat="44.51183" lon="6.59836">
        <ele>1742</ele>
        <time>2021-04-07T06:39:02Z</time>
      </trkpt>
      <trkpt lat="44.51183" lon="6.59836">
        <ele>1742</ele>
        <time>2021-04-07T06:39:03Z</time>
      </trkpt>
      <trkpt lat="44.51183" lon="6.59836">
        <ele>1742</ele>
        <time>2021-04-07T06:39:04Z</time>
      </trkpt>
      <trkpt lat="44.51182" lon="6.59836">
        <ele>1742</ele>
        <time>2021-04-07T06:39:05Z</time>
      </trkpt>
      <trkpt lat="44.51182" lon="6.59836">
        <ele>1742</ele>
        <time>2021-04-07T06:39:06Z</time>
      </trkpt>
      <trkpt lat="44.51181" lon="6.59835">
        <ele>1742</ele>
        <time>2021-04-07T06:39:07Z</time>
      </trkpt>
      <trkpt lat="44.51181" lon="6.59835">
        <ele>1743</ele>
        <time>2021-04-07T06:39:08Z</time>
      </trkpt>
      <trkpt lat="44.5118" lon="6.59835">
        <ele>1743</ele>
        <time>2021-04-07T06:39:09Z</time>
      </trkpt>
      <trkpt lat="44.51179" lon="6.59834">
        <ele>1743</ele>
        <time>2021-04-07T06:39:10Z</time>
      </trkpt>
      <trkpt lat="44.51178" lon="6.59834">
        <ele>1744</ele>
        <time>2021-04-07T06:39:11Z</time>
      </trkpt>
      <trkpt lat="44.51177" lon="6.59834">
        <ele>1744</ele>
        <time>2021-04-07T06:39:12Z</time>
      </trkpt>
      <trkpt lat="44.51176" lon="6.59835">
        <ele>1744</ele>
        <time>2021-04-07T06:39:13Z</time>
      </trkpt>
      <trkpt lat="44.51175" lon="6.59835">
        <ele>1744</ele>
        <time>2021-04-07T06:39:14Z</time>
      </trkpt>
      <trkpt lat="44.51175" lon="6.59836">
        <ele>1745</ele>
        <time>2021-04-07T06:39:15Z</time>
      </trkpt>
      <trkpt lat="44.51174" lon="6.59836">
        <ele>1745</ele>
        <time>2021-04-07T06:39:16Z</time>
      </trkpt>
      <trkpt lat="44.51173" lon="6.59836">
        <ele>1745</ele>
        <time>2021-04-07T06:39:17Z</time>
      </trkpt>
      <trkpt lat="44.51172" lon="6.59837">
        <ele>1745</ele>
        <time>2021-04-07T06:39:18Z</time>
      </trkpt>
      <trkpt lat="44.51171" lon="6.59837">
        <ele>1746</ele>
        <time>2021-04-07T06:39:19Z</time>
      </trkpt>
      <trkpt lat="44.51171" lon="6.59837">
        <ele>1746</ele>
        <time>2021-04-07T06:39:20Z</time>
      </trkpt>
      <trkpt lat="44.5117" lon="6.59837">
        <ele>1746</ele>
        <time>2021-04-07T06:39:21Z</time>
      </trkpt>
      <trkpt lat="44.51169" lon="6.59837">
        <ele>1747</ele>
        <time>2021-04-07T06:39:22Z</time>
      </trkpt>
      <trkpt lat="44.51169" lon="6.59837">
        <ele>1747</ele>
        <time>2021-04-07T06:39:23Z</time>
      </trkpt>
      <trkpt lat="44.51169" lon="6.59837">
        <ele>1747</ele>
        <time>2021-04-07T06:39:24Z</time>
      </trkpt>
      <trkpt lat="44.51168" lon="6.59837">
        <ele>1747</ele>
        <time>2021-04-07T06:39:25Z</time>
      </trkpt>
      <trkpt lat="44.51167" lon="6.59837">
        <ele>1747</ele>
        <time>2021-04-07T06:39:26Z</time>
      </trkpt>
      <trkpt lat="44.51166" lon="6.59837">
        <ele>1748</ele>
        <time>2021-04-07T06:39:27Z</time>
      </trkpt>
      <trkpt lat="44.51166" lon="6.59837">
        <ele>1748</ele>
        <time>2021-04-07T06:39:28Z</time>
      </trkpt>
      <trkpt lat="44.51165" lon="6.59836">
        <ele>1748</ele>
        <time>2021-04-07T06:39:29Z</time>
      </trkpt>
      <trkpt lat="44.51165" lon="6.59836">
        <ele>1748</ele>
        <time>2021-04-07T06:39:30Z</time>
      </trkpt>
      <trkpt lat="44.51165" lon="6.59836">
        <ele>1748</ele>
        <time>2021-04-07T06:39:31Z</time>
      </trkpt>
      <trkpt lat="44.51165" lon="6.59836">
        <ele>1748</ele>
        <time>2021-04-07T06:39:32Z</time>
      </trkpt>
      <trkpt lat="44.51165" lon="6.59836">
        <ele>1749</ele>
        <time>2021-04-07T06:39:33Z</time>
      </trkpt>
      <trkpt lat="44.51165" lon="6.59836">
        <ele>1749</ele>
        <time>2021-04-07T06:39:34Z</time>
      </trkpt>
      <trkpt lat="44.51165" lon="6.59836">
        <ele>1749</ele>
        <time>2021-04-07T06:39:35Z</time>
      </trkpt>
      <trkpt lat="44.51165" lon="6.59836">
        <ele>1749</ele>
        <time>2021-04-07T06:39:36Z</time>
      </trkpt>
      <trkpt lat="44.51165" lon="6.59836">
        <ele>1749</ele>
        <time>2021-04-07T06:39:37Z</time>
      </trkpt>
      <trkpt lat="44.51165" lon="6.59836">
        <ele>1749</ele>
        <time>2021-04-07T06:39:38Z</time>
      </trkpt>
      <trkpt lat="44.51165" lon="6.59836">
        <ele>1749</ele>
        <time>2021-04-07T06:39:39Z</time>
      </trkpt>
      <trkpt lat="44.51165" lon="6.59836">
        <ele>1749</ele>
        <time>2021-04-07T06:39:40Z</time>
      </trkpt>
      <trkpt lat="44.51165" lon="6.59836">
        <ele>1749</ele>
        <time>2021-04-07T06:39:41Z</time>
      </trkpt>
      <trkpt lat="44.51165" lon="6.59836">
        <ele>1749</ele>
        <time>2021-04-07T06:39:42Z</time>
      </trkpt>
      <trkpt lat="44.51165" lon="6.59836">
        <ele>1749</ele>
        <time>2021-04-07T06:39:43Z</time>
      </trkpt>
      <trkpt lat="44.51165" lon="6.59836">
        <ele>1749</ele>
        <time>2021-04-07T06:39:44Z</time>
      </trkpt>
      <trkpt lat="44.51165" lon="6.59836">
        <ele>1749</ele>
        <time>2021-04-07T06:39:45Z</time>
      </trkpt>
      <trkpt lat="44.51165" lon="6.59836">
        <ele>1749</ele>
        <time>2021-04-07T06:39:46Z</time>
      </trkpt>
      <trkpt lat="44.51165" lon="6.59836">
        <ele>1749</ele>
        <time>2021-04-07T06:39:47Z</time>
      </trkpt>
      <trkpt lat="44.51165" lon="6.59836">
        <ele>1749</ele>
        <time>2021-04-07T06:39:48Z</time>
      </trkpt>
      <trkpt lat="44.51165" lon="6.59836">
        <ele>1749</ele>
        <time>2021-04-07T06:39:49Z</time>
      </trkpt>
      <trkpt lat="44.51163" lon="6.59834">
        <ele>1749</ele>
        <time>2021-04-07T06:39:50Z</time>
      </trkpt>
      <trkpt lat="44.51163" lon="6.59834">
        <ele>1749</ele>
        <time>2021-04-07T06:39:51Z</time>
      </trkpt>
      <trkpt lat="44.51163" lon="6.59833">
        <ele>1749</ele>
        <time>2021-04-07T06:39:52Z</time>
      </trkpt>
      <trkpt lat="44.51163" lon="6.59833">
        <ele>1749</ele>
        <time>2021-04-07T06:39:53Z</time>
      </trkpt>
      <trkpt lat="44.51163" lon="6.59833">
        <ele>1749</ele>
        <time>2021-04-07T06:39:54Z</time>
      </trkpt>
      <trkpt lat="44.5116" lon="6.59833">
        <ele>1750</ele>
        <time>2021-04-07T06:39:55Z</time>
      </trkpt>
      <trkpt lat="44.5116" lon="6.59834">
        <ele>1750</ele>
        <time>2021-04-07T06:39:56Z</time>
      </trkpt>
      <trkpt lat="44.5116" lon="6.59834">
        <ele>1751</ele>
        <time>2021-04-07T06:39:57Z</time>
      </trkpt>
      <trkpt lat="44.51159" lon="6.59834">
        <ele>1751</ele>
        <time>2021-04-07T06:39:58Z</time>
      </trkpt>
      <trkpt lat="44.51158" lon="6.59834">
        <ele>1751</ele>
        <time>2021-04-07T06:39:59Z</time>
      </trkpt>
      <trkpt lat="44.51157" lon="6.59834">
        <ele>1751</ele>
        <time>2021-04-07T06:40:00Z</time>
      </trkpt>
      <trkpt lat="44.51157" lon="6.59835">
        <ele>1752</ele>
        <time>2021-04-07T06:40:01Z</time>
      </trkpt>
      <trkpt lat="44.51156" lon="6.59835">
        <ele>1752</ele>
        <time>2021-04-07T06:40:02Z</time>
      </trkpt>
      <trkpt lat="44.51156" lon="6.59836">
        <ele>1752</ele>
        <time>2021-04-07T06:40:03Z</time>
      </trkpt>
      <trkpt lat="44.51156" lon="6.59836">
        <ele>1753</ele>
        <time>2021-04-07T06:40:04Z</time>
      </trkpt>
      <trkpt lat="44.51155" lon="6.59836">
        <ele>1753</ele>
        <time>2021-04-07T06:40:05Z</time>
      </trkpt>
      <trkpt lat="44.51154" lon="6.59837">
        <ele>1753</ele>
        <time>2021-04-07T06:40:06Z</time>
      </trkpt>
      <trkpt lat="44.51154" lon="6.59837">
        <ele>1754</ele>
        <time>2021-04-07T06:40:07Z</time>
      </trkpt>
      <trkpt lat="44.51153" lon="6.59837">
        <ele>1754</ele>
        <time>2021-04-07T06:40:08Z</time>
      </trkpt>
      <trkpt lat="44.51152" lon="6.59838">
        <ele>1754</ele>
        <time>2021-04-07T06:40:09Z</time>
      </trkpt>
      <trkpt lat="44.51152" lon="6.59838">
        <ele>1754</ele>
        <time>2021-04-07T06:40:10Z</time>
      </trkpt>
      <trkpt lat="44.51151" lon="6.59838">
        <ele>1755</ele>
        <time>2021-04-07T06:40:11Z</time>
      </trkpt>
      <trkpt lat="44.51151" lon="6.59838">
        <ele>1755</ele>
        <time>2021-04-07T06:40:12Z</time>
      </trkpt>
      <trkpt lat="44.51151" lon="6.59838">
        <ele>1755</ele>
        <time>2021-04-07T06:40:13Z</time>
      </trkpt>
      <trkpt lat="44.51151" lon="6.59838">
        <ele>1756</ele>
        <time>2021-04-07T06:40:14Z</time>
      </trkpt>
      <trkpt lat="44.51151" lon="6.59838">
        <ele>1756</ele>
        <time>2021-04-07T06:40:15Z</time>
      </trkpt>
      <trkpt lat="44.51151" lon="6.59839">
        <ele>1756</ele>
        <time>2021-04-07T06:40:16Z</time>
      </trkpt>
      <trkpt lat="44.51151" lon="6.59839">
        <ele>1756</ele>
        <time>2021-04-07T06:40:17Z</time>
      </trkpt>
      <trkpt lat="44.51151" lon="6.59839">
        <ele>1756</ele>
        <time>2021-04-07T06:40:18Z</time>
      </trkpt>
      <trkpt lat="44.51151" lon="6.59839">
        <ele>1756</ele>
        <time>2021-04-07T06:40:19Z</time>
      </trkpt>
      <trkpt lat="44.51151" lon="6.59839">
        <ele>1756</ele>
        <time>2021-04-07T06:40:20Z</time>
      </trkpt>
      <trkpt lat="44.51151" lon="6.59839">
        <ele>1756</ele>
        <time>2021-04-07T06:40:21Z</time>
      </trkpt>
      <trkpt lat="44.51151" lon="6.59839">
        <ele>1756</ele>
        <time>2021-04-07T06:40:22Z</time>
      </trkpt>
      <trkpt lat="44.51151" lon="6.59839">
        <ele>1756</ele>
        <time>2021-04-07T06:40:23Z</time>
      </trkpt>
      <trkpt lat="44.51151" lon="6.59839">
        <ele>1756</ele>
        <time>2021-04-07T06:40:24Z</time>
      </trkpt>
      <trkpt lat="44.51151" lon="6.59839">
        <ele>1756</ele>
        <time>2021-04-07T06:40:25Z</time>
      </trkpt>
      <trkpt lat="44.51151" lon="6.59839">
        <ele>1756</ele>
        <time>2021-04-07T06:40:26Z</time>
      </trkpt>
      <trkpt lat="44.51151" lon="6.59839">
        <ele>1756</ele>
        <time>2021-04-07T06:40:27Z</time>
      </trkpt>
      <trkpt lat="44.51151" lon="6.59839">
        <ele>1756</ele>
        <time>2021-04-07T06:40:28Z</time>
      </trkpt>
      <trkpt lat="44.51151" lon="6.59839">
        <ele>1756</ele>
        <time>2021-04-07T06:40:29Z</time>
      </trkpt>
      <trkpt lat="44.51151" lon="6.59839">
        <ele>1756</ele>
        <time>2021-04-07T06:40:30Z</time>
      </trkpt>
      <trkpt lat="44.51151" lon="6.59839">
        <ele>1756</ele>
        <time>2021-04-07T06:40:31Z</time>
      </trkpt>
      <trkpt lat="44.51151" lon="6.59839">
        <ele>1756</ele>
        <time>2021-04-07T06:40:32Z</time>
      </trkpt>
      <trkpt lat="44.51151" lon="6.59839">
        <ele>1756</ele>
        <time>2021-04-07T06:40:33Z</time>
      </trkpt>
      <trkpt lat="44.51151" lon="6.59839">
        <ele>1756</ele>
        <time>2021-04-07T06:40:34Z</time>
      </trkpt>
      <trkpt lat="44.51151" lon="6.59839">
        <ele>1756</ele>
        <time>2021-04-07T06:40:35Z</time>
      </trkpt>
      <trkpt lat="44.51151" lon="6.59839">
        <ele>1756</ele>
        <time>2021-04-07T06:40:36Z</time>
      </trkpt>
      <trkpt lat="44.51151" lon="6.59839">
        <ele>1756</ele>
        <time>2021-04-07T06:40:37Z</time>
      </trkpt>
      <trkpt lat="44.51151" lon="6.59839">
        <ele>1756</ele>
        <time>2021-04-07T06:40:38Z</time>
      </trkpt>
      <trkpt lat="44.51151" lon="6.59839">
        <ele>1756</ele>
        <time>2021-04-07T06:40:39Z</time>
      </trkpt>
      <trkpt lat="44.51151" lon="6.59839">
        <ele>1756</ele>
        <time>2021-04-07T06:40:40Z</time>
      </trkpt>
      <trkpt lat="44.51151" lon="6.59839">
        <ele>1756</ele>
        <time>2021-04-07T06:40:41Z</time>
      </trkpt>
      <trkpt lat="44.51151" lon="6.59839">
        <ele>1756</ele>
        <time>2021-04-07T06:40:42Z</time>
      </trkpt>
      <trkpt lat="44.51151" lon="6.59839">
        <ele>1756</ele>
        <time>2021-04-07T06:40:43Z</time>
      </trkpt>
      <trkpt lat="44.51145" lon="6.59838">
        <ele>1757</ele>
        <time>2021-04-07T06:40:44Z</time>
      </trkpt>
      <trkpt lat="44.51144" lon="6.59838">
        <ele>1757</ele>
        <time>2021-04-07T06:40:45Z</time>
      </trkpt>
      <trkpt lat="44.51144" lon="6.59838">
        <ele>1757</ele>
        <time>2021-04-07T06:40:46Z</time>
      </trkpt>
      <trkpt lat="44.51143" lon="6.59839">
        <ele>1757</ele>
        <time>2021-04-07T06:40:47Z</time>
      </trkpt>
      <trkpt lat="44.51142" lon="6.59839">
        <ele>1757</ele>
        <time>2021-04-07T06:40:48Z</time>
      </trkpt>
      <trkpt lat="44.51141" lon="6.59839">
        <ele>1756</ele>
        <time>2021-04-07T06:40:49Z</time>
      </trkpt>
      <trkpt lat="44.5114" lon="6.59839">
        <ele>1756</ele>
        <time>2021-04-07T06:40:50Z</time>
      </trkpt>
      <trkpt lat="44.51139" lon="6.59839">
        <ele>1756</ele>
        <time>2021-04-07T06:40:51Z</time>
      </trkpt>
      <trkpt lat="44.51138" lon="6.59839">
        <ele>1756</ele>
        <time>2021-04-07T06:40:52Z</time>
      </trkpt>
      <trkpt lat="44.51137" lon="6.59839">
        <ele>1756</ele>
        <time>2021-04-07T06:40:53Z</time>
      </trkpt>
      <trkpt lat="44.51136" lon="6.59839">
        <ele>1756</ele>
        <time>2021-04-07T06:40:54Z</time>
      </trkpt>
      <trkpt lat="44.51136" lon="6.59839">
        <ele>1756</ele>
        <time>2021-04-07T06:40:55Z</time>
      </trkpt>
      <trkpt lat="44.51136" lon="6.59839">
        <ele>1756</ele>
        <time>2021-04-07T06:40:56Z</time>
      </trkpt>
      <trkpt lat="44.51136" lon="6.59838">
        <ele>1757</ele>
        <time>2021-04-07T06:40:57Z</time>
      </trkpt>
      <trkpt lat="44.51136" lon="6.59838">
        <ele>1757</ele>
        <time>2021-04-07T06:40:58Z</time>
      </trkpt>
      <trkpt lat="44.51136" lon="6.59837">
        <ele>1757</ele>
        <time>2021-04-07T06:40:59Z</time>
      </trkpt>
      <trkpt lat="44.51135" lon="6.59836">
        <ele>1757</ele>
        <time>2021-04-07T06:41:00Z</time>
      </trkpt>
      <trkpt lat="44.51135" lon="6.59836">
        <ele>1757</ele>
        <time>2021-04-07T06:41:01Z</time>
      </trkpt>
      <trkpt lat="44.51135" lon="6.59836">
        <ele>1757</ele>
        <time>2021-04-07T06:41:02Z</time>
      </trkpt>
      <trkpt lat="44.51135" lon="6.59836">
        <ele>1757</ele>
        <time>2021-04-07T06:41:03Z</time>
      </trkpt>
      <trkpt lat="44.51135" lon="6.59836">
        <ele>1757</ele>
        <time>2021-04-07T06:41:04Z</time>
      </trkpt>
      <trkpt lat="44.51135" lon="6.59836">
        <ele>1757</ele>
        <time>2021-04-07T06:41:05Z</time>
      </trkpt>
      <trkpt lat="44.51135" lon="6.59836">
        <ele>1757</ele>
        <time>2021-04-07T06:41:06Z</time>
      </trkpt>
      <trkpt lat="44.51135" lon="6.59836">
        <ele>1757</ele>
        <time>2021-04-07T06:41:07Z</time>
      </trkpt>
      <trkpt lat="44.51135" lon="6.59835">
        <ele>1757</ele>
        <time>2021-04-07T06:41:08Z</time>
      </trkpt>
      <trkpt lat="44.51135" lon="6.59835">
        <ele>1757</ele>
        <time>2021-04-07T06:41:09Z</time>
      </trkpt>
      <trkpt lat="44.51134" lon="6.59835">
        <ele>1757</ele>
        <time>2021-04-07T06:41:10Z</time>
      </trkpt>
      <trkpt lat="44.51134" lon="6.59834">
        <ele>1757</ele>
        <time>2021-04-07T06:41:11Z</time>
      </trkpt>
      <trkpt lat="44.51133" lon="6.59834">
        <ele>1757</ele>
        <time>2021-04-07T06:41:12Z</time>
      </trkpt>
      <trkpt lat="44.51133" lon="6.59834">
        <ele>1757</ele>
        <time>2021-04-07T06:41:13Z</time>
      </trkpt>
      <trkpt lat="44.51133" lon="6.59834">
        <ele>1757</ele>
        <time>2021-04-07T06:41:14Z</time>
      </trkpt>
      <trkpt lat="44.51132" lon="6.59834">
        <ele>1757</ele>
        <time>2021-04-07T06:41:15Z</time>
      </trkpt>
      <trkpt lat="44.51131" lon="6.59834">
        <ele>1757</ele>
        <time>2021-04-07T06:41:16Z</time>
      </trkpt>
      <trkpt lat="44.5113" lon="6.59833">
        <ele>1757</ele>
        <time>2021-04-07T06:41:17Z</time>
      </trkpt>
      <trkpt lat="44.51129" lon="6.59833">
        <ele>1757</ele>
        <time>2021-04-07T06:41:18Z</time>
      </trkpt>
      <trkpt lat="44.51129" lon="6.59833">
        <ele>1757</ele>
        <time>2021-04-07T06:41:19Z</time>
      </trkpt>
      <trkpt lat="44.51128" lon="6.59833">
        <ele>1758</ele>
        <time>2021-04-07T06:41:20Z</time>
      </trkpt>
      <trkpt lat="44.51128" lon="6.59832">
        <ele>1758</ele>
        <time>2021-04-07T06:41:21Z</time>
      </trkpt>
      <trkpt lat="44.51128" lon="6.59831">
        <ele>1758</ele>
        <time>2021-04-07T06:41:22Z</time>
      </trkpt>
      <trkpt lat="44.51128" lon="6.5983">
        <ele>1759</ele>
        <time>2021-04-07T06:41:23Z</time>
      </trkpt>
      <trkpt lat="44.51129" lon="6.59832">
        <ele>1760</ele>
        <time>2021-04-07T06:41:24Z</time>
      </trkpt>
      <trkpt lat="44.51128" lon="6.59833">
        <ele>1760</ele>
        <time>2021-04-07T06:41:25Z</time>
      </trkpt>
      <trkpt lat="44.51128" lon="6.59833">
        <ele>1761</ele>
        <time>2021-04-07T06:41:26Z</time>
      </trkpt>
      <trkpt lat="44.51128" lon="6.59833">
        <ele>1761</ele>
        <time>2021-04-07T06:41:27Z</time>
      </trkpt>
      <trkpt lat="44.51128" lon="6.59832">
        <ele>1761</ele>
        <time>2021-04-07T06:41:28Z</time>
      </trkpt>
      <trkpt lat="44.51127" lon="6.59831">
        <ele>1762</ele>
        <time>2021-04-07T06:41:29Z</time>
      </trkpt>
      <trkpt lat="44.51125" lon="6.59829">
        <ele>1762</ele>
        <time>2021-04-07T06:41:30Z</time>
      </trkpt>
      <trkpt lat="44.51124" lon="6.59828">
        <ele>1762</ele>
        <time>2021-04-07T06:41:31Z</time>
      </trkpt>
      <trkpt lat="44.51124" lon="6.59827">
        <ele>1764</ele>
        <time>2021-04-07T06:41:32Z</time>
      </trkpt>
      <trkpt lat="44.51123" lon="6.59826">
        <ele>1765</ele>
        <time>2021-04-07T06:41:33Z</time>
      </trkpt>
      <trkpt lat="44.51123" lon="6.59825">
        <ele>1765</ele>
        <time>2021-04-07T06:41:34Z</time>
      </trkpt>
      <trkpt lat="44.51122" lon="6.59823">
        <ele>1766</ele>
        <time>2021-04-07T06:41:35Z</time>
      </trkpt>
      <trkpt lat="44.51122" lon="6.59823">
        <ele>1766</ele>
        <time>2021-04-07T06:41:36Z</time>
      </trkpt>
      <trkpt lat="44.51121" lon="6.59823">
        <ele>1767</ele>
        <time>2021-04-07T06:41:37Z</time>
      </trkpt>
      <trkpt lat="44.5112" lon="6.59823">
        <ele>1768</ele>
        <time>2021-04-07T06:41:38Z</time>
      </trkpt>
      <trkpt lat="44.51119" lon="6.59823">
        <ele>1768</ele>
        <time>2021-04-07T06:41:39Z</time>
      </trkpt>
      <trkpt lat="44.51118" lon="6.59823">
        <ele>1768</ele>
        <time>2021-04-07T06:41:40Z</time>
      </trkpt>
      <trkpt lat="44.51117" lon="6.59823">
        <ele>1769</ele>
        <time>2021-04-07T06:41:41Z</time>
      </trkpt>
      <trkpt lat="44.51116" lon="6.59823">
        <ele>1769</ele>
        <time>2021-04-07T06:41:42Z</time>
      </trkpt>
      <trkpt lat="44.51115" lon="6.59822">
        <ele>1769</ele>
        <time>2021-04-07T06:41:43Z</time>
      </trkpt>
      <trkpt lat="44.51114" lon="6.59822">
        <ele>1769</ele>
        <time>2021-04-07T06:41:44Z</time>
      </trkpt>
      <trkpt lat="44.51113" lon="6.59822">
        <ele>1770</ele>
        <time>2021-04-07T06:41:45Z</time>
      </trkpt>
      <trkpt lat="44.51112" lon="6.59822">
        <ele>1770</ele>
        <time>2021-04-07T06:41:46Z</time>
      </trkpt>
      <trkpt lat="44.51111" lon="6.59822">
        <ele>1770</ele>
        <time>2021-04-07T06:41:47Z</time>
      </trkpt>
      <trkpt lat="44.51111" lon="6.59821">
        <ele>1770</ele>
        <time>2021-04-07T06:41:48Z</time>
      </trkpt>
      <trkpt lat="44.5111" lon="6.59821">
        <ele>1770</ele>
        <time>2021-04-07T06:41:49Z</time>
      </trkpt>
      <trkpt lat="44.51109" lon="6.59821">
        <ele>1770</ele>
        <time>2021-04-07T06:41:50Z</time>
      </trkpt>
      <trkpt lat="44.51109" lon="6.59821">
        <ele>1771</ele>
        <time>2021-04-07T06:41:51Z</time>
      </trkpt>
      <trkpt lat="44.51108" lon="6.5982">
        <ele>1771</ele>
        <time>2021-04-07T06:41:52Z</time>
      </trkpt>
      <trkpt lat="44.51107" lon="6.5982">
        <ele>1771</ele>
        <time>2021-04-07T06:41:53Z</time>
      </trkpt>
      <trkpt lat="44.51106" lon="6.59821">
        <ele>1771</ele>
        <time>2021-04-07T06:41:54Z</time>
      </trkpt>
      <trkpt lat="44.51106" lon="6.5982">
        <ele>1772</ele>
        <time>2021-04-07T06:41:55Z</time>
      </trkpt>
      <trkpt lat="44.51105" lon="6.5982">
        <ele>1772</ele>
        <time>2021-04-07T06:41:56Z</time>
      </trkpt>
      <trkpt lat="44.51104" lon="6.5982">
        <ele>1772</ele>
        <time>2021-04-07T06:41:57Z</time>
      </trkpt>
      <trkpt lat="44.51103" lon="6.59821">
        <ele>1773</ele>
        <time>2021-04-07T06:41:58Z</time>
      </trkpt>
      <trkpt lat="44.51103" lon="6.5982">
        <ele>1773</ele>
        <time>2021-04-07T06:41:59Z</time>
      </trkpt>
      <trkpt lat="44.51103" lon="6.5982">
        <ele>1773</ele>
        <time>2021-04-07T06:42:00Z</time>
      </trkpt>
      <trkpt lat="44.51102" lon="6.5982">
        <ele>1773</ele>
        <time>2021-04-07T06:42:01Z</time>
      </trkpt>
      <trkpt lat="44.51101" lon="6.59821">
        <ele>1773</ele>
        <time>2021-04-07T06:42:02Z</time>
      </trkpt>
      <trkpt lat="44.51101" lon="6.59821">
        <ele>1773</ele>
        <time>2021-04-07T06:42:03Z</time>
      </trkpt>
      <trkpt lat="44.511" lon="6.59822">
        <ele>1774</ele>
        <time>2021-04-07T06:42:04Z</time>
      </trkpt>
      <trkpt lat="44.511" lon="6.59822">
        <ele>1774</ele>
        <time>2021-04-07T06:42:05Z</time>
      </trkpt>
      <trkpt lat="44.511" lon="6.59823">
        <ele>1774</ele>
        <time>2021-04-07T06:42:06Z</time>
      </trkpt>
      <trkpt lat="44.51101" lon="6.59824">
        <ele>1774</ele>
        <time>2021-04-07T06:42:07Z</time>
      </trkpt>
      <trkpt lat="44.51102" lon="6.59825">
        <ele>1774</ele>
        <time>2021-04-07T06:42:08Z</time>
      </trkpt>
      <trkpt lat="44.51102" lon="6.59825">
        <ele>1774</ele>
        <time>2021-04-07T06:42:09Z</time>
      </trkpt>
      <trkpt lat="44.51102" lon="6.59826">
        <ele>1774</ele>
        <time>2021-04-07T06:42:10Z</time>
      </trkpt>
      <trkpt lat="44.51102" lon="6.59826">
        <ele>1774</ele>
        <time>2021-04-07T06:42:11Z</time>
      </trkpt>
      <trkpt lat="44.51102" lon="6.59826">
        <ele>1774</ele>
        <time>2021-04-07T06:42:12Z</time>
      </trkpt>
      <trkpt lat="44.51102" lon="6.59826">
        <ele>1774</ele>
        <time>2021-04-07T06:42:13Z</time>
      </trkpt>
      <trkpt lat="44.51102" lon="6.59826">
        <ele>1774</ele>
        <time>2021-04-07T06:42:14Z</time>
      </trkpt>
      <trkpt lat="44.51103" lon="6.59828">
        <ele>1774</ele>
        <time>2021-04-07T06:42:15Z</time>
      </trkpt>
      <trkpt lat="44.51104" lon="6.59829">
        <ele>1774</ele>
        <time>2021-04-07T06:42:16Z</time>
      </trkpt>
      <trkpt lat="44.51103" lon="6.59829">
        <ele>1774</ele>
        <time>2021-04-07T06:42:17Z</time>
      </trkpt>
      <trkpt lat="44.51103" lon="6.59828">
        <ele>1773</ele>
        <time>2021-04-07T06:42:18Z</time>
      </trkpt>
      <trkpt lat="44.51102" lon="6.59828">
        <ele>1773</ele>
        <time>2021-04-07T06:42:19Z</time>
      </trkpt>
      <trkpt lat="44.51101" lon="6.59828">
        <ele>1773</ele>
        <time>2021-04-07T06:42:20Z</time>
      </trkpt>
      <trkpt lat="44.51101" lon="6.59828">
        <ele>1773</ele>
        <time>2021-04-07T06:42:21Z</time>
      </trkpt>
      <trkpt lat="44.511" lon="6.59828">
        <ele>1773</ele>
        <time>2021-04-07T06:42:22Z</time>
      </trkpt>
      <trkpt lat="44.511" lon="6.59828">
        <ele>1772</ele>
        <time>2021-04-07T06:42:23Z</time>
      </trkpt>
      <trkpt lat="44.51099" lon="6.59828">
        <ele>1772</ele>
        <time>2021-04-07T06:42:24Z</time>
      </trkpt>
      <trkpt lat="44.51098" lon="6.59829">
        <ele>1772</ele>
        <time>2021-04-07T06:42:25Z</time>
      </trkpt>
      <trkpt lat="44.51097" lon="6.59829">
        <ele>1771</ele>
        <time>2021-04-07T06:42:26Z</time>
      </trkpt>
      <trkpt lat="44.51096" lon="6.59829">
        <ele>1771</ele>
        <time>2021-04-07T06:42:27Z</time>
      </trkpt>
      <trkpt lat="44.51095" lon="6.5983">
        <ele>1771</ele>
        <time>2021-04-07T06:42:28Z</time>
      </trkpt>
      <trkpt lat="44.51094" lon="6.5983">
        <ele>1770</ele>
        <time>2021-04-07T06:42:29Z</time>
      </trkpt>
      <trkpt lat="44.51093" lon="6.5983">
        <ele>1770</ele>
        <time>2021-04-07T06:42:30Z</time>
      </trkpt>
      <trkpt lat="44.51092" lon="6.5983">
        <ele>1770</ele>
        <time>2021-04-07T06:42:31Z</time>
      </trkpt>
      <trkpt lat="44.51092" lon="6.59831">
        <ele>1770</ele>
        <time>2021-04-07T06:42:32Z</time>
      </trkpt>
      <trkpt lat="44.51091" lon="6.59832">
        <ele>1770</ele>
        <time>2021-04-07T06:42:33Z</time>
      </trkpt>
      <trkpt lat="44.5109" lon="6.59832">
        <ele>1770</ele>
        <time>2021-04-07T06:42:34Z</time>
      </trkpt>
      <trkpt lat="44.5109" lon="6.59833">
        <ele>1769</ele>
        <time>2021-04-07T06:42:35Z</time>
      </trkpt>
      <trkpt lat="44.51089" lon="6.59833">
        <ele>1769</ele>
        <time>2021-04-07T06:42:36Z</time>
      </trkpt>
      <trkpt lat="44.51088" lon="6.59834">
        <ele>1769</ele>
        <time>2021-04-07T06:42:37Z</time>
      </trkpt>
      <trkpt lat="44.51087" lon="6.59836">
        <ele>1769</ele>
        <time>2021-04-07T06:42:38Z</time>
      </trkpt>
      <trkpt lat="44.51086" lon="6.59837">
        <ele>1769</ele>
        <time>2021-04-07T06:42:39Z</time>
      </trkpt>
      <trkpt lat="44.51086" lon="6.59837">
        <ele>1769</ele>
        <time>2021-04-07T06:42:40Z</time>
      </trkpt>
      <trkpt lat="44.51085" lon="6.59838">
        <ele>1769</ele>
        <time>2021-04-07T06:42:41Z</time>
      </trkpt>
      <trkpt lat="44.51085" lon="6.59838">
        <ele>1769</ele>
        <time>2021-04-07T06:42:42Z</time>
      </trkpt>
      <trkpt lat="44.51084" lon="6.59838">
        <ele>1769</ele>
        <time>2021-04-07T06:42:43Z</time>
      </trkpt>
      <trkpt lat="44.51084" lon="6.59838">
        <ele>1768</ele>
        <time>2021-04-07T06:42:44Z</time>
      </trkpt>
      <trkpt lat="44.51083" lon="6.59838">
        <ele>1768</ele>
        <time>2021-04-07T06:42:45Z</time>
      </trkpt>
      <trkpt lat="44.51083" lon="6.59839">
        <ele>1768</ele>
        <time>2021-04-07T06:42:46Z</time>
      </trkpt>
      <trkpt lat="44.51082" lon="6.59839">
        <ele>1768</ele>
        <time>2021-04-07T06:42:47Z</time>
      </trkpt>
      <trkpt lat="44.51082" lon="6.59839">
        <ele>1768</ele>
        <time>2021-04-07T06:42:48Z</time>
      </trkpt>
      <trkpt lat="44.51081" lon="6.5984">
        <ele>1768</ele>
        <time>2021-04-07T06:42:49Z</time>
      </trkpt>
      <trkpt lat="44.5108" lon="6.59841">
        <ele>1768</ele>
        <time>2021-04-07T06:42:50Z</time>
      </trkpt>
      <trkpt lat="44.5108" lon="6.59841">
        <ele>1767</ele>
        <time>2021-04-07T06:42:51Z</time>
      </trkpt>
      <trkpt lat="44.51079" lon="6.59841">
        <ele>1767</ele>
        <time>2021-04-07T06:42:52Z</time>
      </trkpt>
      <trkpt lat="44.51078" lon="6.59842">
        <ele>1767</ele>
        <time>2021-04-07T06:42:53Z</time>
      </trkpt>
      <trkpt lat="44.51077" lon="6.59842">
        <ele>1767</ele>
        <time>2021-04-07T06:42:54Z</time>
      </trkpt>
      <trkpt lat="44.51076" lon="6.59842">
        <ele>1767</ele>
        <time>2021-04-07T06:42:55Z</time>
      </trkpt>
      <trkpt lat="44.51076" lon="6.59842">
        <ele>1767</ele>
        <time>2021-04-07T06:42:56Z</time>
      </trkpt>
      <trkpt lat="44.51075" lon="6.59842">
        <ele>1767</ele>
        <time>2021-04-07T06:42:57Z</time>
      </trkpt>
      <trkpt lat="44.51074" lon="6.59842">
        <ele>1767</ele>
        <time>2021-04-07T06:42:58Z</time>
      </trkpt>
      <trkpt lat="44.51073" lon="6.59842">
        <ele>1767</ele>
        <time>2021-04-07T06:42:59Z</time>
      </trkpt>
      <trkpt lat="44.51073" lon="6.59842">
        <ele>1767</ele>
        <time>2021-04-07T06:43:00Z</time>
      </trkpt>
      <trkpt lat="44.51071" lon="6.59843">
        <ele>1767</ele>
        <time>2021-04-07T06:43:02Z</time>
      </trkpt>
      <trkpt lat="44.5107" lon="6.59843">
        <ele>1768</ele>
        <time>2021-04-07T06:43:03Z</time>
      </trkpt>
      <trkpt lat="44.51069" lon="6.59844">
        <ele>1768</ele>
        <time>2021-04-07T06:43:04Z</time>
      </trkpt>
      <trkpt lat="44.51068" lon="6.59844">
        <ele>1769</ele>
        <time>2021-04-07T06:43:05Z</time>
      </trkpt>
      <trkpt lat="44.51068" lon="6.59844">
        <ele>1769</ele>
        <time>2021-04-07T06:43:06Z</time>
      </trkpt>
      <trkpt lat="44.51067" lon="6.59844">
        <ele>1769</ele>
        <time>2021-04-07T06:43:07Z</time>
      </trkpt>
      <trkpt lat="44.51066" lon="6.59845">
        <ele>1770</ele>
        <time>2021-04-07T06:43:08Z</time>
      </trkpt>
      <trkpt lat="44.51065" lon="6.59845">
        <ele>1770</ele>
        <time>2021-04-07T06:43:09Z</time>
      </trkpt>
      <trkpt lat="44.51064" lon="6.59846">
        <ele>1770</ele>
        <time>2021-04-07T06:43:10Z</time>
      </trkpt>
      <trkpt lat="44.51064" lon="6.59846">
        <ele>1770</ele>
        <time>2021-04-07T06:43:11Z</time>
      </trkpt>
      <trkpt lat="44.51063" lon="6.59846">
        <ele>1771</ele>
        <time>2021-04-07T06:43:12Z</time>
      </trkpt>
      <trkpt lat="44.51063" lon="6.59846">
        <ele>1771</ele>
        <time>2021-04-07T06:43:13Z</time>
      </trkpt>
      <trkpt lat="44.51062" lon="6.59846">
        <ele>1771</ele>
        <time>2021-04-07T06:43:14Z</time>
      </trkpt>
      <trkpt lat="44.51061" lon="6.59847">
        <ele>1771</ele>
        <time>2021-04-07T06:43:15Z</time>
      </trkpt>
      <trkpt lat="44.5106" lon="6.59847">
        <ele>1772</ele>
        <time>2021-04-07T06:43:16Z</time>
      </trkpt>
      <trkpt lat="44.5106" lon="6.59847">
        <ele>1772</ele>
        <time>2021-04-07T06:43:17Z</time>
      </trkpt>
      <trkpt lat="44.51059" lon="6.59847">
        <ele>1772</ele>
        <time>2021-04-07T06:43:18Z</time>
      </trkpt>
      <trkpt lat="44.51058" lon="6.59847">
        <ele>1772</ele>
        <time>2021-04-07T06:43:19Z</time>
      </trkpt>
      <trkpt lat="44.51057" lon="6.59847">
        <ele>1772</ele>
        <time>2021-04-07T06:43:20Z</time>
      </trkpt>
      <trkpt lat="44.51057" lon="6.59847">
        <ele>1773</ele>
        <time>2021-04-07T06:43:21Z</time>
      </trkpt>
      <trkpt lat="44.51056" lon="6.59847">
        <ele>1773</ele>
        <time>2021-04-07T06:43:22Z</time>
      </trkpt>
      <trkpt lat="44.51056" lon="6.59847">
        <ele>1773</ele>
        <time>2021-04-07T06:43:23Z</time>
      </trkpt>
      <trkpt lat="44.51055" lon="6.59847">
        <ele>1773</ele>
        <time>2021-04-07T06:43:24Z</time>
      </trkpt>
      <trkpt lat="44.51055" lon="6.59847">
        <ele>1774</ele>
        <time>2021-04-07T06:43:25Z</time>
      </trkpt>
      <trkpt lat="44.51054" lon="6.59847">
        <ele>1774</ele>
        <time>2021-04-07T06:43:26Z</time>
      </trkpt>
      <trkpt lat="44.51054" lon="6.59847">
        <ele>1774</ele>
        <time>2021-04-07T06:43:27Z</time>
      </trkpt>
      <trkpt lat="44.51054" lon="6.59847">
        <ele>1774</ele>
        <time>2021-04-07T06:43:28Z</time>
      </trkpt>
      <trkpt lat="44.51054" lon="6.59847">
        <ele>1774</ele>
        <time>2021-04-07T06:43:29Z</time>
      </trkpt>
      <trkpt lat="44.51053" lon="6.59846">
        <ele>1774</ele>
        <time>2021-04-07T06:43:30Z</time>
      </trkpt>
      <trkpt lat="44.51052" lon="6.59845">
        <ele>1774</ele>
        <time>2021-04-07T06:43:31Z</time>
      </trkpt>
      <trkpt lat="44.51051" lon="6.59845">
        <ele>1775</ele>
        <time>2021-04-07T06:43:32Z</time>
      </trkpt>
      <trkpt lat="44.5105" lon="6.59845">
        <ele>1775</ele>
        <time>2021-04-07T06:43:33Z</time>
      </trkpt>
      <trkpt lat="44.5105" lon="6.59846">
        <ele>1775</ele>
        <time>2021-04-07T06:43:34Z</time>
      </trkpt>
      <trkpt lat="44.51049" lon="6.59845">
        <ele>1775</ele>
        <time>2021-04-07T06:43:35Z</time>
      </trkpt>
      <trkpt lat="44.51048" lon="6.59845">
        <ele>1775</ele>
        <time>2021-04-07T06:43:36Z</time>
      </trkpt>
      <trkpt lat="44.51048" lon="6.59844">
        <ele>1775</ele>
        <time>2021-04-07T06:43:37Z</time>
      </trkpt>
      <trkpt lat="44.51047" lon="6.59843">
        <ele>1776</ele>
        <time>2021-04-07T06:43:38Z</time>
      </trkpt>
      <trkpt lat="44.51047" lon="6.59843">
        <ele>1776</ele>
        <time>2021-04-07T06:43:39Z</time>
      </trkpt>
      <trkpt lat="44.51047" lon="6.59842">
        <ele>1776</ele>
        <time>2021-04-07T06:43:40Z</time>
      </trkpt>
      <trkpt lat="44.51046" lon="6.59842">
        <ele>1776</ele>
        <time>2021-04-07T06:43:41Z</time>
      </trkpt>
      <trkpt lat="44.51046" lon="6.59841">
        <ele>1776</ele>
        <time>2021-04-07T06:43:42Z</time>
      </trkpt>
      <trkpt lat="44.51045" lon="6.59841">
        <ele>1776</ele>
        <time>2021-04-07T06:43:43Z</time>
      </trkpt>
      <trkpt lat="44.51045" lon="6.5984">
        <ele>1776</ele>
        <time>2021-04-07T06:43:44Z</time>
      </trkpt>
      <trkpt lat="44.51044" lon="6.59839">
        <ele>1776</ele>
        <time>2021-04-07T06:43:45Z</time>
      </trkpt>
      <trkpt lat="44.51044" lon="6.59838">
        <ele>1776</ele>
        <time>2021-04-07T06:43:46Z</time>
      </trkpt>
      <trkpt lat="44.51044" lon="6.59836">
        <ele>1776</ele>
        <time>2021-04-07T06:43:47Z</time>
      </trkpt>
      <trkpt lat="44.51043" lon="6.59836">
        <ele>1776</ele>
        <time>2021-04-07T06:43:48Z</time>
      </trkpt>
      <trkpt lat="44.51043" lon="6.59834">
        <ele>1776</ele>
        <time>2021-04-07T06:43:49Z</time>
      </trkpt>
      <trkpt lat="44.51043" lon="6.59833">
        <ele>1776</ele>
        <time>2021-04-07T06:43:50Z</time>
      </trkpt>
      <trkpt lat="44.51043" lon="6.59832">
        <ele>1777</ele>
        <time>2021-04-07T06:43:51Z</time>
      </trkpt>
      <trkpt lat="44.51043" lon="6.59832">
        <ele>1777</ele>
        <time>2021-04-07T06:43:52Z</time>
      </trkpt>
      <trkpt lat="44.51042" lon="6.59831">
        <ele>1777</ele>
        <time>2021-04-07T06:43:53Z</time>
      </trkpt>
      <trkpt lat="44.51041" lon="6.59831">
        <ele>1777</ele>
        <time>2021-04-07T06:43:54Z</time>
      </trkpt>
      <trkpt lat="44.51041" lon="6.5983">
        <ele>1777</ele>
        <time>2021-04-07T06:43:55Z</time>
      </trkpt>
      <trkpt lat="44.51041" lon="6.59829">
        <ele>1778</ele>
        <time>2021-04-07T06:43:56Z</time>
      </trkpt>
      <trkpt lat="44.51041" lon="6.59828">
        <ele>1778</ele>
        <time>2021-04-07T06:43:57Z</time>
      </trkpt>
      <trkpt lat="44.51041" lon="6.59827">
        <ele>1778</ele>
        <time>2021-04-07T06:43:58Z</time>
      </trkpt>
      <trkpt lat="44.5104" lon="6.59826">
        <ele>1778</ele>
        <time>2021-04-07T06:43:59Z</time>
      </trkpt>
      <trkpt lat="44.5104" lon="6.59825">
        <ele>1778</ele>
        <time>2021-04-07T06:44:00Z</time>
      </trkpt>
      <trkpt lat="44.5104" lon="6.59825">
        <ele>1778</ele>
        <time>2021-04-07T06:44:01Z</time>
      </trkpt>
      <trkpt lat="44.5104" lon="6.59824">
        <ele>1779</ele>
        <time>2021-04-07T06:44:02Z</time>
      </trkpt>
      <trkpt lat="44.5104" lon="6.59821">
        <ele>1779</ele>
        <time>2021-04-07T06:44:03Z</time>
      </trkpt>
      <trkpt lat="44.51039" lon="6.59821">
        <ele>1779</ele>
        <time>2021-04-07T06:44:04Z</time>
      </trkpt>
      <trkpt lat="44.51039" lon="6.59819">
        <ele>1779</ele>
        <time>2021-04-07T06:44:05Z</time>
      </trkpt>
      <trkpt lat="44.51039" lon="6.59818">
        <ele>1779</ele>
        <time>2021-04-07T06:44:06Z</time>
      </trkpt>
      <trkpt lat="44.51039" lon="6.59817">
        <ele>1779</ele>
        <time>2021-04-07T06:44:07Z</time>
      </trkpt>
      <trkpt lat="44.51038" lon="6.59816">
        <ele>1779</ele>
        <time>2021-04-07T06:44:08Z</time>
      </trkpt>
      <trkpt lat="44.51038" lon="6.59814">
        <ele>1779</ele>
        <time>2021-04-07T06:44:09Z</time>
      </trkpt>
      <trkpt lat="44.51037" lon="6.59814">
        <ele>1779</ele>
        <time>2021-04-07T06:44:10Z</time>
      </trkpt>
      <trkpt lat="44.51037" lon="6.59813">
        <ele>1779</ele>
        <time>2021-04-07T06:44:11Z</time>
      </trkpt>
      <trkpt lat="44.51037" lon="6.59813">
        <ele>1779</ele>
        <time>2021-04-07T06:44:12Z</time>
      </trkpt>
      <trkpt lat="44.51037" lon="6.59811">
        <ele>1779</ele>
        <time>2021-04-07T06:44:13Z</time>
      </trkpt>
      <trkpt lat="44.51036" lon="6.59811">
        <ele>1779</ele>
        <time>2021-04-07T06:44:14Z</time>
      </trkpt>
      <trkpt lat="44.51036" lon="6.5981">
        <ele>1779</ele>
        <time>2021-04-07T06:44:15Z</time>
      </trkpt>
      <trkpt lat="44.51035" lon="6.5981">
        <ele>1779</ele>
        <time>2021-04-07T06:44:16Z</time>
      </trkpt>
      <trkpt lat="44.51035" lon="6.5981">
        <ele>1779</ele>
        <time>2021-04-07T06:44:17Z</time>
      </trkpt>
      <trkpt lat="44.51035" lon="6.59809">
        <ele>1780</ele>
        <time>2021-04-07T06:44:18Z</time>
      </trkpt>
      <trkpt lat="44.51035" lon="6.59809">
        <ele>1780</ele>
        <time>2021-04-07T06:44:19Z</time>
      </trkpt>
      <trkpt lat="44.51035" lon="6.59808">
        <ele>1780</ele>
        <time>2021-04-07T06:44:20Z</time>
      </trkpt>
      <trkpt lat="44.51034" lon="6.59807">
        <ele>1780</ele>
        <time>2021-04-07T06:44:21Z</time>
      </trkpt>
      <trkpt lat="44.51034" lon="6.59806">
        <ele>1780</ele>
        <time>2021-04-07T06:44:22Z</time>
      </trkpt>
      <trkpt lat="44.51034" lon="6.59805">
        <ele>1780</ele>
        <time>2021-04-07T06:44:23Z</time>
      </trkpt>
      <trkpt lat="44.51034" lon="6.59805">
        <ele>1780</ele>
        <time>2021-04-07T06:44:24Z</time>
      </trkpt>
      <trkpt lat="44.51033" lon="6.59803">
        <ele>1780</ele>
        <time>2021-04-07T06:44:25Z</time>
      </trkpt>
      <trkpt lat="44.51033" lon="6.59802">
        <ele>1780</ele>
        <time>2021-04-07T06:44:26Z</time>
      </trkpt>
      <trkpt lat="44.51033" lon="6.59802">
        <ele>1780</ele>
        <time>2021-04-07T06:44:27Z</time>
      </trkpt>
      <trkpt lat="44.51033" lon="6.598">
        <ele>1781</ele>
        <time>2021-04-07T06:44:28Z</time>
      </trkpt>
      <trkpt lat="44.51033" lon="6.59799">
        <ele>1781</ele>
        <time>2021-04-07T06:44:29Z</time>
      </trkpt>
      <trkpt lat="44.51033" lon="6.59799">
        <ele>1781</ele>
        <time>2021-04-07T06:44:30Z</time>
      </trkpt>
      <trkpt lat="44.51033" lon="6.59798">
        <ele>1781</ele>
        <time>2021-04-07T06:44:31Z</time>
      </trkpt>
      <trkpt lat="44.51033" lon="6.59798">
        <ele>1781</ele>
        <time>2021-04-07T06:44:32Z</time>
      </trkpt>
      <trkpt lat="44.51033" lon="6.59797">
        <ele>1781</ele>
        <time>2021-04-07T06:44:33Z</time>
      </trkpt>
      <trkpt lat="44.51033" lon="6.59796">
        <ele>1781</ele>
        <time>2021-04-07T06:44:34Z</time>
      </trkpt>
      <trkpt lat="44.51033" lon="6.59795">
        <ele>1781</ele>
        <time>2021-04-07T06:44:35Z</time>
      </trkpt>
      <trkpt lat="44.51033" lon="6.59794">
        <ele>1781</ele>
        <time>2021-04-07T06:44:36Z</time>
      </trkpt>
      <trkpt lat="44.51033" lon="6.59793">
        <ele>1782</ele>
        <time>2021-04-07T06:44:37Z</time>
      </trkpt>
      <trkpt lat="44.51034" lon="6.59792">
        <ele>1782</ele>
        <time>2021-04-07T06:44:38Z</time>
      </trkpt>
      <trkpt lat="44.51034" lon="6.59791">
        <ele>1782</ele>
        <time>2021-04-07T06:44:39Z</time>
      </trkpt>
      <trkpt lat="44.51035" lon="6.59791">
        <ele>1782</ele>
        <time>2021-04-07T06:44:40Z</time>
      </trkpt>
      <trkpt lat="44.51035" lon="6.5979">
        <ele>1782</ele>
        <time>2021-04-07T06:44:41Z</time>
      </trkpt>
      <trkpt lat="44.51035" lon="6.59789">
        <ele>1782</ele>
        <time>2021-04-07T06:44:42Z</time>
      </trkpt>
      <trkpt lat="44.51036" lon="6.59789">
        <ele>1782</ele>
        <time>2021-04-07T06:44:43Z</time>
      </trkpt>
      <trkpt lat="44.51036" lon="6.59788">
        <ele>1783</ele>
        <time>2021-04-07T06:44:44Z</time>
      </trkpt>
      <trkpt lat="44.51036" lon="6.59788">
        <ele>1783</ele>
        <time>2021-04-07T06:44:45Z</time>
      </trkpt>
      <trkpt lat="44.51037" lon="6.59789">
        <ele>1783</ele>
        <time>2021-04-07T06:44:46Z</time>
      </trkpt>
      <trkpt lat="44.51037" lon="6.59789">
        <ele>1783</ele>
        <time>2021-04-07T06:44:47Z</time>
      </trkpt>
      <trkpt lat="44.51037" lon="6.59788">
        <ele>1783</ele>
        <time>2021-04-07T06:44:48Z</time>
      </trkpt>
      <trkpt lat="44.51037" lon="6.59788">
        <ele>1783</ele>
        <time>2021-04-07T06:44:49Z</time>
      </trkpt>
      <trkpt lat="44.51037" lon="6.59788">
        <ele>1783</ele>
        <time>2021-04-07T06:44:50Z</time>
      </trkpt>
      <trkpt lat="44.51037" lon="6.59775">
        <ele>1786</ele>
        <time>2021-04-07T06:44:51Z</time>
      </trkpt>
      <trkpt lat="44.51037" lon="6.59775">
        <ele>1787</ele>
        <time>2021-04-07T06:44:52Z</time>
      </trkpt>
      <trkpt lat="44.51037" lon="6.59774">
        <ele>1788</ele>
        <time>2021-04-07T06:44:53Z</time>
      </trkpt>
      <trkpt lat="44.51037" lon="6.59774">
        <ele>1788</ele>
        <time>2021-04-07T06:44:54Z</time>
      </trkpt>
      <trkpt lat="44.51037" lon="6.59773">
        <ele>1789</ele>
        <time>2021-04-07T06:44:55Z</time>
      </trkpt>
      <trkpt lat="44.51036" lon="6.59772">
        <ele>1789</ele>
        <time>2021-04-07T06:44:56Z</time>
      </trkpt>
      <trkpt lat="44.51036" lon="6.59772">
        <ele>1789</ele>
        <time>2021-04-07T06:44:57Z</time>
      </trkpt>
      <trkpt lat="44.51036" lon="6.59771">
        <ele>1789</ele>
        <time>2021-04-07T06:44:58Z</time>
      </trkpt>
      <trkpt lat="44.51036" lon="6.59771">
        <ele>1790</ele>
        <time>2021-04-07T06:44:59Z</time>
      </trkpt>
      <trkpt lat="44.51037" lon="6.59771">
        <ele>1790</ele>
        <time>2021-04-07T06:45:00Z</time>
      </trkpt>
      <trkpt lat="44.51037" lon="6.59771">
        <ele>1790</ele>
        <time>2021-04-07T06:45:01Z</time>
      </trkpt>
      <trkpt lat="44.51037" lon="6.5977">
        <ele>1790</ele>
        <time>2021-04-07T06:45:02Z</time>
      </trkpt>
      <trkpt lat="44.51037" lon="6.5977">
        <ele>1792</ele>
        <time>2021-04-07T06:45:03Z</time>
      </trkpt>
      <trkpt lat="44.51038" lon="6.5977">
        <ele>1792</ele>
        <time>2021-04-07T06:45:04Z</time>
      </trkpt>
      <trkpt lat="44.51038" lon="6.5977">
        <ele>1793</ele>
        <time>2021-04-07T06:45:05Z</time>
      </trkpt>
      <trkpt lat="44.51038" lon="6.5977">
        <ele>1793</ele>
        <time>2021-04-07T06:45:06Z</time>
      </trkpt>
      <trkpt lat="44.51037" lon="6.59769">
        <ele>1793</ele>
        <time>2021-04-07T06:45:07Z</time>
      </trkpt>
      <trkpt lat="44.51037" lon="6.59769">
        <ele>1793</ele>
        <time>2021-04-07T06:45:08Z</time>
      </trkpt>
      <trkpt lat="44.51037" lon="6.59769">
        <ele>1793</ele>
        <time>2021-04-07T06:45:09Z</time>
      </trkpt>
      <trkpt lat="44.51037" lon="6.59769">
        <ele>1793</ele>
        <time>2021-04-07T06:45:10Z</time>
      </trkpt>
      <trkpt lat="44.51037" lon="6.59769">
        <ele>1793</ele>
        <time>2021-04-07T06:45:11Z</time>
      </trkpt>
      <trkpt lat="44.51037" lon="6.59769">
        <ele>1793</ele>
        <time>2021-04-07T06:45:12Z</time>
      </trkpt>
      <trkpt lat="44.51037" lon="6.59769">
        <ele>1793</ele>
        <time>2021-04-07T06:45:13Z</time>
      </trkpt>
      <trkpt lat="44.51037" lon="6.59769">
        <ele>1793</ele>
        <time>2021-04-07T06:45:14Z</time>
      </trkpt>
      <trkpt lat="44.51037" lon="6.59769">
        <ele>1793</ele>
        <time>2021-04-07T06:45:15Z</time>
      </trkpt>
      <trkpt lat="44.51034" lon="6.5976">
        <ele>1796</ele>
        <time>2021-04-07T06:45:16Z</time>
      </trkpt>
      <trkpt lat="44.51034" lon="6.59759">
        <ele>1797</ele>
        <time>2021-04-07T06:45:17Z</time>
      </trkpt>
      <trkpt lat="44.51033" lon="6.59759">
        <ele>1797</ele>
        <time>2021-04-07T06:45:18Z</time>
      </trkpt>
      <trkpt lat="44.51032" lon="6.59758">
        <ele>1797</ele>
        <time>2021-04-07T06:45:19Z</time>
      </trkpt>
      <trkpt lat="44.51032" lon="6.59758">
        <ele>1798</ele>
        <time>2021-04-07T06:45:20Z</time>
      </trkpt>
      <trkpt lat="44.51031" lon="6.59758">
        <ele>1798</ele>
        <time>2021-04-07T06:45:21Z</time>
      </trkpt>
      <trkpt lat="44.5103" lon="6.59757">
        <ele>1799</ele>
        <time>2021-04-07T06:45:22Z</time>
      </trkpt>
      <trkpt lat="44.5103" lon="6.59756">
        <ele>1799</ele>
        <time>2021-04-07T06:45:23Z</time>
      </trkpt>
      <trkpt lat="44.51029" lon="6.59756">
        <ele>1800</ele>
        <time>2021-04-07T06:45:24Z</time>
      </trkpt>
      <trkpt lat="44.51029" lon="6.59755">
        <ele>1800</ele>
        <time>2021-04-07T06:45:25Z</time>
      </trkpt>
      <trkpt lat="44.51028" lon="6.59754">
        <ele>1800</ele>
        <time>2021-04-07T06:45:26Z</time>
      </trkpt>
      <trkpt lat="44.51028" lon="6.59753">
        <ele>1801</ele>
        <time>2021-04-07T06:45:27Z</time>
      </trkpt>
      <trkpt lat="44.51027" lon="6.59753">
        <ele>1801</ele>
        <time>2021-04-07T06:45:28Z</time>
      </trkpt>
      <trkpt lat="44.51027" lon="6.59752">
        <ele>1801</ele>
        <time>2021-04-07T06:45:29Z</time>
      </trkpt>
      <trkpt lat="44.51027" lon="6.59751">
        <ele>1801</ele>
        <time>2021-04-07T06:45:30Z</time>
      </trkpt>
      <trkpt lat="44.51026" lon="6.59751">
        <ele>1802</ele>
        <time>2021-04-07T06:45:31Z</time>
      </trkpt>
      <trkpt lat="44.51026" lon="6.5975">
        <ele>1802</ele>
        <time>2021-04-07T06:45:32Z</time>
      </trkpt>
      <trkpt lat="44.51025" lon="6.5975">
        <ele>1802</ele>
        <time>2021-04-07T06:45:33Z</time>
      </trkpt>
      <trkpt lat="44.51025" lon="6.5975">
        <ele>1802</ele>
        <time>2021-04-07T06:45:34Z</time>
      </trkpt>
      <trkpt lat="44.51024" lon="6.5975">
        <ele>1803</ele>
        <time>2021-04-07T06:45:35Z</time>
      </trkpt>
      <trkpt lat="44.51023" lon="6.5975">
        <ele>1803</ele>
        <time>2021-04-07T06:45:36Z</time>
      </trkpt>
      <trkpt lat="44.51023" lon="6.5975">
        <ele>1803</ele>
        <time>2021-04-07T06:45:37Z</time>
      </trkpt>
      <trkpt lat="44.51022" lon="6.59749">
        <ele>1803</ele>
        <time>2021-04-07T06:45:38Z</time>
      </trkpt>
      <trkpt lat="44.51021" lon="6.59749">
        <ele>1804</ele>
        <time>2021-04-07T06:45:39Z</time>
      </trkpt>
      <trkpt lat="44.51021" lon="6.59749">
        <ele>1804</ele>
        <time>2021-04-07T06:45:40Z</time>
      </trkpt>
      <trkpt lat="44.5102" lon="6.59748">
        <ele>1804</ele>
        <time>2021-04-07T06:45:41Z</time>
      </trkpt>
      <trkpt lat="44.51019" lon="6.59748">
        <ele>1805</ele>
        <time>2021-04-07T06:45:42Z</time>
      </trkpt>
      <trkpt lat="44.51017" lon="6.59747">
        <ele>1805</ele>
        <time>2021-04-07T06:45:43Z</time>
      </trkpt>
      <trkpt lat="44.51016" lon="6.59748">
        <ele>1805</ele>
        <time>2021-04-07T06:45:44Z</time>
      </trkpt>
      <trkpt lat="44.51015" lon="6.59748">
        <ele>1806</ele>
        <time>2021-04-07T06:45:45Z</time>
      </trkpt>
      <trkpt lat="44.51014" lon="6.59748">
        <ele>1806</ele>
        <time>2021-04-07T06:45:46Z</time>
      </trkpt>
      <trkpt lat="44.51013" lon="6.59748">
        <ele>1806</ele>
        <time>2021-04-07T06:45:47Z</time>
      </trkpt>
      <trkpt lat="44.51013" lon="6.59747">
        <ele>1807</ele>
        <time>2021-04-07T06:45:48Z</time>
      </trkpt>
      <trkpt lat="44.51013" lon="6.59747">
        <ele>1807</ele>
        <time>2021-04-07T06:45:49Z</time>
      </trkpt>
      <trkpt lat="44.51013" lon="6.59747">
        <ele>1807</ele>
        <time>2021-04-07T06:45:50Z</time>
      </trkpt>
      <trkpt lat="44.51013" lon="6.59747">
        <ele>1808</ele>
        <time>2021-04-07T06:45:51Z</time>
      </trkpt>
      <trkpt lat="44.51013" lon="6.59747">
        <ele>1808</ele>
        <time>2021-04-07T06:45:52Z</time>
      </trkpt>
      <trkpt lat="44.51013" lon="6.59747">
        <ele>1808</ele>
        <time>2021-04-07T06:45:53Z</time>
      </trkpt>
      <trkpt lat="44.51013" lon="6.59747">
        <ele>1808</ele>
        <time>2021-04-07T06:45:54Z</time>
      </trkpt>
      <trkpt lat="44.51013" lon="6.59747">
        <ele>1808</ele>
        <time>2021-04-07T06:45:55Z</time>
      </trkpt>
      <trkpt lat="44.51012" lon="6.59747">
        <ele>1808</ele>
        <time>2021-04-07T06:45:56Z</time>
      </trkpt>
      <trkpt lat="44.51013" lon="6.59747">
        <ele>1808</ele>
        <time>2021-04-07T06:45:57Z</time>
      </trkpt>
      <trkpt lat="44.51012" lon="6.59747">
        <ele>1808</ele>
        <time>2021-04-07T06:45:58Z</time>
      </trkpt>
      <trkpt lat="44.51012" lon="6.59747">
        <ele>1808</ele>
        <time>2021-04-07T06:45:59Z</time>
      </trkpt>
      <trkpt lat="44.51012" lon="6.59747">
        <ele>1808</ele>
        <time>2021-04-07T06:46:00Z</time>
      </trkpt>
      <trkpt lat="44.51012" lon="6.59747">
        <ele>1808</ele>
        <time>2021-04-07T06:46:01Z</time>
      </trkpt>
      <trkpt lat="44.51012" lon="6.59747">
        <ele>1808</ele>
        <time>2021-04-07T06:46:02Z</time>
      </trkpt>
      <trkpt lat="44.51012" lon="6.59747">
        <ele>1808</ele>
        <time>2021-04-07T06:46:03Z</time>
      </trkpt>
      <trkpt lat="44.51013" lon="6.59747">
        <ele>1808</ele>
        <time>2021-04-07T06:46:04Z</time>
      </trkpt>
      <trkpt lat="44.51014" lon="6.59747">
        <ele>1808</ele>
        <time>2021-04-07T06:46:05Z</time>
      </trkpt>
      <trkpt lat="44.51014" lon="6.59748">
        <ele>1808</ele>
        <time>2021-04-07T06:46:06Z</time>
      </trkpt>
      <trkpt lat="44.51013" lon="6.59748">
        <ele>1808</ele>
        <time>2021-04-07T06:46:07Z</time>
      </trkpt>
      <trkpt lat="44.51013" lon="6.59749">
        <ele>1808</ele>
        <time>2021-04-07T06:46:08Z</time>
      </trkpt>
      <trkpt lat="44.51012" lon="6.59749">
        <ele>1808</ele>
        <time>2021-04-07T06:46:09Z</time>
      </trkpt>
      <trkpt lat="44.51011" lon="6.5975">
        <ele>1808</ele>
        <time>2021-04-07T06:46:10Z</time>
      </trkpt>
      <trkpt lat="44.51011" lon="6.5975">
        <ele>1808</ele>
        <time>2021-04-07T06:46:11Z</time>
      </trkpt>
      <trkpt lat="44.5101" lon="6.59751">
        <ele>1808</ele>
        <time>2021-04-07T06:46:12Z</time>
      </trkpt>
      <trkpt lat="44.5101" lon="6.59752">
        <ele>1807</ele>
        <time>2021-04-07T06:46:13Z</time>
      </trkpt>
      <trkpt lat="44.51008" lon="6.59752">
        <ele>1807</ele>
        <time>2021-04-07T06:46:14Z</time>
      </trkpt>
      <trkpt lat="44.51007" lon="6.59752">
        <ele>1807</ele>
        <time>2021-04-07T06:46:15Z</time>
      </trkpt>
      <trkpt lat="44.51007" lon="6.59752">
        <ele>1807</ele>
        <time>2021-04-07T06:46:16Z</time>
      </trkpt>
      <trkpt lat="44.51006" lon="6.59752">
        <ele>1806</ele>
        <time>2021-04-07T06:46:17Z</time>
      </trkpt>
      <trkpt lat="44.51005" lon="6.59753">
        <ele>1806</ele>
        <time>2021-04-07T06:46:18Z</time>
      </trkpt>
      <trkpt lat="44.51005" lon="6.59753">
        <ele>1806</ele>
        <time>2021-04-07T06:46:19Z</time>
      </trkpt>
      <trkpt lat="44.51004" lon="6.59753">
        <ele>1806</ele>
        <time>2021-04-07T06:46:20Z</time>
      </trkpt>
      <trkpt lat="44.51003" lon="6.59753">
        <ele>1806</ele>
        <time>2021-04-07T06:46:21Z</time>
      </trkpt>
      <trkpt lat="44.51003" lon="6.59753">
        <ele>1806</ele>
        <time>2021-04-07T06:46:22Z</time>
      </trkpt>
      <trkpt lat="44.51002" lon="6.59754">
        <ele>1806</ele>
        <time>2021-04-07T06:46:23Z</time>
      </trkpt>
      <trkpt lat="44.51001" lon="6.59754">
        <ele>1806</ele>
        <time>2021-04-07T06:46:24Z</time>
      </trkpt>
      <trkpt lat="44.51" lon="6.59754">
        <ele>1806</ele>
        <time>2021-04-07T06:46:25Z</time>
      </trkpt>
      <trkpt lat="44.51" lon="6.59753">
        <ele>1806</ele>
        <time>2021-04-07T06:46:26Z</time>
      </trkpt>
      <trkpt lat="44.50999" lon="6.59753">
        <ele>1807</ele>
        <time>2021-04-07T06:46:27Z</time>
      </trkpt>
      <trkpt lat="44.50999" lon="6.59754">
        <ele>1807</ele>
        <time>2021-04-07T06:46:28Z</time>
      </trkpt>
      <trkpt lat="44.50999" lon="6.59753">
        <ele>1807</ele>
        <time>2021-04-07T06:46:29Z</time>
      </trkpt>
      <trkpt lat="44.50998" lon="6.59753">
        <ele>1807</ele>
        <time>2021-04-07T06:46:30Z</time>
      </trkpt>
      <trkpt lat="44.50998" lon="6.59752">
        <ele>1808</ele>
        <time>2021-04-07T06:46:31Z</time>
      </trkpt>
      <trkpt lat="44.50998" lon="6.59752">
        <ele>1808</ele>
        <time>2021-04-07T06:46:32Z</time>
      </trkpt>
      <trkpt lat="44.50998" lon="6.59752">
        <ele>1808</ele>
        <time>2021-04-07T06:46:33Z</time>
      </trkpt>
      <trkpt lat="44.50997" lon="6.59751">
        <ele>1808</ele>
        <time>2021-04-07T06:46:34Z</time>
      </trkpt>
      <trkpt lat="44.50996" lon="6.59749">
        <ele>1809</ele>
        <time>2021-04-07T06:46:35Z</time>
      </trkpt>
      <trkpt lat="44.50996" lon="6.59748">
        <ele>1809</ele>
        <time>2021-04-07T06:46:36Z</time>
      </trkpt>
      <trkpt lat="44.50995" lon="6.59747">
        <ele>1809</ele>
        <time>2021-04-07T06:46:37Z</time>
      </trkpt>
      <trkpt lat="44.50995" lon="6.59746">
        <ele>1809</ele>
        <time>2021-04-07T06:46:38Z</time>
      </trkpt>
      <trkpt lat="44.50995" lon="6.59745">
        <ele>1809</ele>
        <time>2021-04-07T06:46:39Z</time>
      </trkpt>
      <trkpt lat="44.50994" lon="6.59744">
        <ele>1809</ele>
        <time>2021-04-07T06:46:40Z</time>
      </trkpt>
      <trkpt lat="44.50994" lon="6.59742">
        <ele>1810</ele>
        <time>2021-04-07T06:46:41Z</time>
      </trkpt>
      <trkpt lat="44.50994" lon="6.59741">
        <ele>1810</ele>
        <time>2021-04-07T06:46:42Z</time>
      </trkpt>
      <trkpt lat="44.50993" lon="6.5974">
        <ele>1810</ele>
        <time>2021-04-07T06:46:43Z</time>
      </trkpt>
      <trkpt lat="44.50993" lon="6.59739">
        <ele>1810</ele>
        <time>2021-04-07T06:46:44Z</time>
      </trkpt>
      <trkpt lat="44.50993" lon="6.59738">
        <ele>1810</ele>
        <time>2021-04-07T06:46:45Z</time>
      </trkpt>
      <trkpt lat="44.50993" lon="6.59738">
        <ele>1810</ele>
        <time>2021-04-07T06:46:46Z</time>
      </trkpt>
      <trkpt lat="44.50993" lon="6.59737">
        <ele>1810</ele>
        <time>2021-04-07T06:46:47Z</time>
      </trkpt>
      <trkpt lat="44.50993" lon="6.59737">
        <ele>1810</ele>
        <time>2021-04-07T06:46:48Z</time>
      </trkpt>
      <trkpt lat="44.50993" lon="6.59737">
        <ele>1810</ele>
        <time>2021-04-07T06:46:49Z</time>
      </trkpt>
      <trkpt lat="44.50993" lon="6.59736">
        <ele>1811</ele>
        <time>2021-04-07T06:46:50Z</time>
      </trkpt>
      <trkpt lat="44.50991" lon="6.59736">
        <ele>1811</ele>
        <time>2021-04-07T06:46:51Z</time>
      </trkpt>
      <trkpt lat="44.5099" lon="6.59736">
        <ele>1811</ele>
        <time>2021-04-07T06:46:52Z</time>
      </trkpt>
      <trkpt lat="44.5099" lon="6.59736">
        <ele>1811</ele>
        <time>2021-04-07T06:46:53Z</time>
      </trkpt>
      <trkpt lat="44.50989" lon="6.59736">
        <ele>1811</ele>
        <time>2021-04-07T06:46:54Z</time>
      </trkpt>
      <trkpt lat="44.50989" lon="6.59736">
        <ele>1812</ele>
        <time>2021-04-07T06:46:55Z</time>
      </trkpt>
      <trkpt lat="44.50988" lon="6.59737">
        <ele>1812</ele>
        <time>2021-04-07T06:46:56Z</time>
      </trkpt>
      <trkpt lat="44.50987" lon="6.59737">
        <ele>1812</ele>
        <time>2021-04-07T06:46:57Z</time>
      </trkpt>
      <trkpt lat="44.50987" lon="6.59737">
        <ele>1812</ele>
        <time>2021-04-07T06:46:58Z</time>
      </trkpt>
      <trkpt lat="44.50986" lon="6.59738">
        <ele>1812</ele>
        <time>2021-04-07T06:46:59Z</time>
      </trkpt>
      <trkpt lat="44.50985" lon="6.59739">
        <ele>1813</ele>
        <time>2021-04-07T06:47:00Z</time>
      </trkpt>
      <trkpt lat="44.50984" lon="6.59739">
        <ele>1813</ele>
        <time>2021-04-07T06:47:01Z</time>
      </trkpt>
      <trkpt lat="44.50983" lon="6.5974">
        <ele>1813</ele>
        <time>2021-04-07T06:47:02Z</time>
      </trkpt>
      <trkpt lat="44.50983" lon="6.59741">
        <ele>1814</ele>
        <time>2021-04-07T06:47:03Z</time>
      </trkpt>
      <trkpt lat="44.50983" lon="6.59741">
        <ele>1814</ele>
        <time>2021-04-07T06:47:04Z</time>
      </trkpt>
      <trkpt lat="44.50982" lon="6.59742">
        <ele>1814</ele>
        <time>2021-04-07T06:47:05Z</time>
      </trkpt>
      <trkpt lat="44.50981" lon="6.59743">
        <ele>1814</ele>
        <time>2021-04-07T06:47:06Z</time>
      </trkpt>
      <trkpt lat="44.50981" lon="6.59743">
        <ele>1815</ele>
        <time>2021-04-07T06:47:07Z</time>
      </trkpt>
      <trkpt lat="44.50981" lon="6.59744">
        <ele>1815</ele>
        <time>2021-04-07T06:47:08Z</time>
      </trkpt>
      <trkpt lat="44.50981" lon="6.59745">
        <ele>1815</ele>
        <time>2021-04-07T06:47:09Z</time>
      </trkpt>
      <trkpt lat="44.5098" lon="6.59746">
        <ele>1815</ele>
        <time>2021-04-07T06:47:10Z</time>
      </trkpt>
      <trkpt lat="44.5098" lon="6.59746">
        <ele>1815</ele>
        <time>2021-04-07T06:47:11Z</time>
      </trkpt>
      <trkpt lat="44.50979" lon="6.59747">
        <ele>1816</ele>
        <time>2021-04-07T06:47:12Z</time>
      </trkpt>
      <trkpt lat="44.50978" lon="6.59747">
        <ele>1816</ele>
        <time>2021-04-07T06:47:13Z</time>
      </trkpt>
      <trkpt lat="44.50977" lon="6.59748">
        <ele>1816</ele>
        <time>2021-04-07T06:47:14Z</time>
      </trkpt>
      <trkpt lat="44.50976" lon="6.59748">
        <ele>1817</ele>
        <time>2021-04-07T06:47:15Z</time>
      </trkpt>
      <trkpt lat="44.50976" lon="6.59749">
        <ele>1817</ele>
        <time>2021-04-07T06:47:16Z</time>
      </trkpt>
      <trkpt lat="44.50975" lon="6.59749">
        <ele>1817</ele>
        <time>2021-04-07T06:47:17Z</time>
      </trkpt>
      <trkpt lat="44.50974" lon="6.59749">
        <ele>1817</ele>
        <time>2021-04-07T06:47:18Z</time>
      </trkpt>
      <trkpt lat="44.50974" lon="6.59749">
        <ele>1817</ele>
        <time>2021-04-07T06:47:19Z</time>
      </trkpt>
      <trkpt lat="44.50973" lon="6.5975">
        <ele>1817</ele>
        <time>2021-04-07T06:47:20Z</time>
      </trkpt>
      <trkpt lat="44.50972" lon="6.5975">
        <ele>1818</ele>
        <time>2021-04-07T06:47:21Z</time>
      </trkpt>
      <trkpt lat="44.50972" lon="6.5975">
        <ele>1818</ele>
        <time>2021-04-07T06:47:22Z</time>
      </trkpt>
      <trkpt lat="44.50971" lon="6.5975">
        <ele>1818</ele>
        <time>2021-04-07T06:47:23Z</time>
      </trkpt>
      <trkpt lat="44.5097" lon="6.5975">
        <ele>1818</ele>
        <time>2021-04-07T06:47:24Z</time>
      </trkpt>
      <trkpt lat="44.50969" lon="6.5975">
        <ele>1818</ele>
        <time>2021-04-07T06:47:25Z</time>
      </trkpt>
      <trkpt lat="44.50969" lon="6.59749">
        <ele>1819</ele>
        <time>2021-04-07T06:47:26Z</time>
      </trkpt>
      <trkpt lat="44.50969" lon="6.59748">
        <ele>1819</ele>
        <time>2021-04-07T06:47:27Z</time>
      </trkpt>
      <trkpt lat="44.50968" lon="6.59747">
        <ele>1819</ele>
        <time>2021-04-07T06:47:28Z</time>
      </trkpt>
      <trkpt lat="44.50968" lon="6.59747">
        <ele>1819</ele>
        <time>2021-04-07T06:47:29Z</time>
      </trkpt>
      <trkpt lat="44.50968" lon="6.59747">
        <ele>1819</ele>
        <time>2021-04-07T06:47:30Z</time>
      </trkpt>
      <trkpt lat="44.50967" lon="6.59746">
        <ele>1819</ele>
        <time>2021-04-07T06:47:31Z</time>
      </trkpt>
      <trkpt lat="44.50967" lon="6.59746">
        <ele>1820</ele>
        <time>2021-04-07T06:47:32Z</time>
      </trkpt>
      <trkpt lat="44.50966" lon="6.59745">
        <ele>1820</ele>
        <time>2021-04-07T06:47:33Z</time>
      </trkpt>
      <trkpt lat="44.50966" lon="6.59744">
        <ele>1820</ele>
        <time>2021-04-07T06:47:34Z</time>
      </trkpt>
      <trkpt lat="44.50966" lon="6.59744">
        <ele>1820</ele>
        <time>2021-04-07T06:47:35Z</time>
      </trkpt>
      <trkpt lat="44.50967" lon="6.59743">
        <ele>1820</ele>
        <time>2021-04-07T06:47:36Z</time>
      </trkpt>
      <trkpt lat="44.50966" lon="6.59743">
        <ele>1820</ele>
        <time>2021-04-07T06:47:37Z</time>
      </trkpt>
      <trkpt lat="44.50966" lon="6.59743">
        <ele>1820</ele>
        <time>2021-04-07T06:47:38Z</time>
      </trkpt>
      <trkpt lat="44.50966" lon="6.59743">
        <ele>1820</ele>
        <time>2021-04-07T06:47:39Z</time>
      </trkpt>
      <trkpt lat="44.50966" lon="6.59742">
        <ele>1821</ele>
        <time>2021-04-07T06:47:40Z</time>
      </trkpt>
      <trkpt lat="44.50965" lon="6.59741">
        <ele>1821</ele>
        <time>2021-04-07T06:47:41Z</time>
      </trkpt>
      <trkpt lat="44.50965" lon="6.5974">
        <ele>1821</ele>
        <time>2021-04-07T06:47:42Z</time>
      </trkpt>
      <trkpt lat="44.50965" lon="6.5974">
        <ele>1821</ele>
        <time>2021-04-07T06:47:43Z</time>
      </trkpt>
      <trkpt lat="44.50964" lon="6.59739">
        <ele>1821</ele>
        <time>2021-04-07T06:47:44Z</time>
      </trkpt>
      <trkpt lat="44.50964" lon="6.59739">
        <ele>1821</ele>
        <time>2021-04-07T06:47:45Z</time>
      </trkpt>
      <trkpt lat="44.50964" lon="6.59739">
        <ele>1821</ele>
        <time>2021-04-07T06:47:46Z</time>
      </trkpt>
      <trkpt lat="44.50963" lon="6.59738">
        <ele>1821</ele>
        <time>2021-04-07T06:47:47Z</time>
      </trkpt>
      <trkpt lat="44.50963" lon="6.59739">
        <ele>1821</ele>
        <time>2021-04-07T06:47:48Z</time>
      </trkpt>
      <trkpt lat="44.50963" lon="6.59739">
        <ele>1821</ele>
        <time>2021-04-07T06:47:49Z</time>
      </trkpt>
      <trkpt lat="44.50962" lon="6.59739">
        <ele>1821</ele>
        <time>2021-04-07T06:47:50Z</time>
      </trkpt>
      <trkpt lat="44.50961" lon="6.59739">
        <ele>1821</ele>
        <time>2021-04-07T06:47:51Z</time>
      </trkpt>
      <trkpt lat="44.50961" lon="6.59738">
        <ele>1821</ele>
        <time>2021-04-07T06:47:52Z</time>
      </trkpt>
      <trkpt lat="44.50961" lon="6.59738">
        <ele>1821</ele>
        <time>2021-04-07T06:47:53Z</time>
      </trkpt>
      <trkpt lat="44.5096" lon="6.59738">
        <ele>1821</ele>
        <time>2021-04-07T06:47:54Z</time>
      </trkpt>
      <trkpt lat="44.5096" lon="6.59738">
        <ele>1821</ele>
        <time>2021-04-07T06:47:55Z</time>
      </trkpt>
      <trkpt lat="44.5096" lon="6.59738">
        <ele>1821</ele>
        <time>2021-04-07T06:47:56Z</time>
      </trkpt>
      <trkpt lat="44.5096" lon="6.59739">
        <ele>1821</ele>
        <time>2021-04-07T06:47:57Z</time>
      </trkpt>
      <trkpt lat="44.5096" lon="6.59739">
        <ele>1821</ele>
        <time>2021-04-07T06:47:58Z</time>
      </trkpt>
      <trkpt lat="44.5096" lon="6.59739">
        <ele>1821</ele>
        <time>2021-04-07T06:47:59Z</time>
      </trkpt>
      <trkpt lat="44.5096" lon="6.59739">
        <ele>1821</ele>
        <time>2021-04-07T06:48:00Z</time>
      </trkpt>
      <trkpt lat="44.5096" lon="6.59739">
        <ele>1821</ele>
        <time>2021-04-07T06:48:01Z</time>
      </trkpt>
      <trkpt lat="44.5096" lon="6.59739">
        <ele>1821</ele>
        <time>2021-04-07T06:48:02Z</time>
      </trkpt>
      <trkpt lat="44.5096" lon="6.59739">
        <ele>1821</ele>
        <time>2021-04-07T06:48:03Z</time>
      </trkpt>
      <trkpt lat="44.5096" lon="6.59739">
        <ele>1821</ele>
        <time>2021-04-07T06:48:04Z</time>
      </trkpt>
      <trkpt lat="44.5096" lon="6.59739">
        <ele>1821</ele>
        <time>2021-04-07T06:48:05Z</time>
      </trkpt>
      <trkpt lat="44.5096" lon="6.59739">
        <ele>1821</ele>
        <time>2021-04-07T06:48:06Z</time>
      </trkpt>
      <trkpt lat="44.5096" lon="6.59739">
        <ele>1821</ele>
        <time>2021-04-07T06:48:07Z</time>
      </trkpt>
      <trkpt lat="44.5096" lon="6.59739">
        <ele>1821</ele>
        <time>2021-04-07T06:48:08Z</time>
      </trkpt>
      <trkpt lat="44.5096" lon="6.59739">
        <ele>1821</ele>
        <time>2021-04-07T06:48:09Z</time>
      </trkpt>
      <trkpt lat="44.5096" lon="6.59739">
        <ele>1821</ele>
        <time>2021-04-07T06:48:10Z</time>
      </trkpt>
      <trkpt lat="44.5096" lon="6.59739">
        <ele>1821</ele>
        <time>2021-04-07T06:48:11Z</time>
      </trkpt>
      <trkpt lat="44.5096" lon="6.59739">
        <ele>1821</ele>
        <time>2021-04-07T06:48:12Z</time>
      </trkpt>
      <trkpt lat="44.5096" lon="6.59739">
        <ele>1821</ele>
        <time>2021-04-07T06:48:13Z</time>
      </trkpt>
      <trkpt lat="44.5096" lon="6.59739">
        <ele>1821</ele>
        <time>2021-04-07T06:48:14Z</time>
      </trkpt>
      <trkpt lat="44.5096" lon="6.59739">
        <ele>1821</ele>
        <time>2021-04-07T06:48:15Z</time>
      </trkpt>
      <trkpt lat="44.5096" lon="6.59739">
        <ele>1821</ele>
        <time>2021-04-07T06:48:16Z</time>
      </trkpt>
      <trkpt lat="44.5096" lon="6.59739">
        <ele>1821</ele>
        <time>2021-04-07T06:48:17Z</time>
      </trkpt>
      <trkpt lat="44.5096" lon="6.59739">
        <ele>1821</ele>
        <time>2021-04-07T06:48:18Z</time>
      </trkpt>
      <trkpt lat="44.5096" lon="6.59739">
        <ele>1821</ele>
        <time>2021-04-07T06:48:19Z</time>
      </trkpt>
      <trkpt lat="44.5096" lon="6.59738">
        <ele>1822</ele>
        <time>2021-04-07T06:48:20Z</time>
      </trkpt>
      <trkpt lat="44.5096" lon="6.59737">
        <ele>1822</ele>
        <time>2021-04-07T06:48:21Z</time>
      </trkpt>
      <trkpt lat="44.50959" lon="6.59735">
        <ele>1822</ele>
        <time>2021-04-07T06:48:22Z</time>
      </trkpt>
      <trkpt lat="44.50959" lon="6.59736">
        <ele>1822</ele>
        <time>2021-04-07T06:48:23Z</time>
      </trkpt>
      <trkpt lat="44.50959" lon="6.59735">
        <ele>1822</ele>
        <time>2021-04-07T06:48:24Z</time>
      </trkpt>
      <trkpt lat="44.50959" lon="6.59734">
        <ele>1822</ele>
        <time>2021-04-07T06:48:25Z</time>
      </trkpt>
      <trkpt lat="44.50959" lon="6.59733">
        <ele>1823</ele>
        <time>2021-04-07T06:48:26Z</time>
      </trkpt>
      <trkpt lat="44.50959" lon="6.59731">
        <ele>1823</ele>
        <time>2021-04-07T06:48:27Z</time>
      </trkpt>
      <trkpt lat="44.50959" lon="6.5973">
        <ele>1823</ele>
        <time>2021-04-07T06:48:28Z</time>
      </trkpt>
      <trkpt lat="44.50958" lon="6.5973">
        <ele>1823</ele>
        <time>2021-04-07T06:48:29Z</time>
      </trkpt>
      <trkpt lat="44.50958" lon="6.59729">
        <ele>1823</ele>
        <time>2021-04-07T06:48:30Z</time>
      </trkpt>
      <trkpt lat="44.50957" lon="6.59729">
        <ele>1823</ele>
        <time>2021-04-07T06:48:31Z</time>
      </trkpt>
      <trkpt lat="44.50957" lon="6.59729">
        <ele>1823</ele>
        <time>2021-04-07T06:48:32Z</time>
      </trkpt>
      <trkpt lat="44.50956" lon="6.5973">
        <ele>1823</ele>
        <time>2021-04-07T06:48:33Z</time>
      </trkpt>
      <trkpt lat="44.50956" lon="6.5973">
        <ele>1823</ele>
        <time>2021-04-07T06:48:34Z</time>
      </trkpt>
      <trkpt lat="44.50955" lon="6.5973">
        <ele>1823</ele>
        <time>2021-04-07T06:48:35Z</time>
      </trkpt>
      <trkpt lat="44.50954" lon="6.5973">
        <ele>1823</ele>
        <time>2021-04-07T06:48:36Z</time>
      </trkpt>
      <trkpt lat="44.50954" lon="6.5973">
        <ele>1823</ele>
        <time>2021-04-07T06:48:37Z</time>
      </trkpt>
      <trkpt lat="44.50954" lon="6.59731">
        <ele>1823</ele>
        <time>2021-04-07T06:48:38Z</time>
      </trkpt>
      <trkpt lat="44.50953" lon="6.59731">
        <ele>1823</ele>
        <time>2021-04-07T06:48:39Z</time>
      </trkpt>
      <trkpt lat="44.50953" lon="6.59731">
        <ele>1823</ele>
        <time>2021-04-07T06:48:40Z</time>
      </trkpt>
      <trkpt lat="44.50952" lon="6.59731">
        <ele>1824</ele>
        <time>2021-04-07T06:48:41Z</time>
      </trkpt>
      <trkpt lat="44.50952" lon="6.59732">
        <ele>1824</ele>
        <time>2021-04-07T06:48:42Z</time>
      </trkpt>
      <trkpt lat="44.50951" lon="6.59732">
        <ele>1824</ele>
        <time>2021-04-07T06:48:43Z</time>
      </trkpt>
      <trkpt lat="44.50951" lon="6.59732">
        <ele>1824</ele>
        <time>2021-04-07T06:48:44Z</time>
      </trkpt>
      <trkpt lat="44.50951" lon="6.59732">
        <ele>1824</ele>
        <time>2021-04-07T06:48:45Z</time>
      </trkpt>
      <trkpt lat="44.5095" lon="6.59732">
        <ele>1824</ele>
        <time>2021-04-07T06:48:46Z</time>
      </trkpt>
      <trkpt lat="44.5095" lon="6.59731">
        <ele>1824</ele>
        <time>2021-04-07T06:48:47Z</time>
      </trkpt>
      <trkpt lat="44.50949" lon="6.59731">
        <ele>1825</ele>
        <time>2021-04-07T06:48:48Z</time>
      </trkpt>
      <trkpt lat="44.50949" lon="6.59731">
        <ele>1825</ele>
        <time>2021-04-07T06:48:49Z</time>
      </trkpt>
      <trkpt lat="44.50949" lon="6.59731">
        <ele>1825</ele>
        <time>2021-04-07T06:48:50Z</time>
      </trkpt>
      <trkpt lat="44.50949" lon="6.59732">
        <ele>1825</ele>
        <time>2021-04-07T06:48:51Z</time>
      </trkpt>
      <trkpt lat="44.50949" lon="6.59732">
        <ele>1825</ele>
        <time>2021-04-07T06:48:52Z</time>
      </trkpt>
      <trkpt lat="44.50949" lon="6.59733">
        <ele>1825</ele>
        <time>2021-04-07T06:48:53Z</time>
      </trkpt>
      <trkpt lat="44.50949" lon="6.59733">
        <ele>1825</ele>
        <time>2021-04-07T06:48:54Z</time>
      </trkpt>
      <trkpt lat="44.50949" lon="6.59733">
        <ele>1825</ele>
        <time>2021-04-07T06:48:55Z</time>
      </trkpt>
      <trkpt lat="44.50949" lon="6.59733">
        <ele>1825</ele>
        <time>2021-04-07T06:48:56Z</time>
      </trkpt>
      <trkpt lat="44.50949" lon="6.59733">
        <ele>1825</ele>
        <time>2021-04-07T06:48:57Z</time>
      </trkpt>
      <trkpt lat="44.50949" lon="6.59733">
        <ele>1826</ele>
        <time>2021-04-07T06:48:58Z</time>
      </trkpt>
      <trkpt lat="44.50949" lon="6.59733">
        <ele>1826</ele>
        <time>2021-04-07T06:48:59Z</time>
      </trkpt>
      <trkpt lat="44.50949" lon="6.59733">
        <ele>1826</ele>
        <time>2021-04-07T06:49:00Z</time>
      </trkpt>
      <trkpt lat="44.50949" lon="6.59733">
        <ele>1826</ele>
        <time>2021-04-07T06:49:01Z</time>
      </trkpt>
      <trkpt lat="44.50949" lon="6.59733">
        <ele>1826</ele>
        <time>2021-04-07T06:49:02Z</time>
      </trkpt>
      <trkpt lat="44.50946" lon="6.59734">
        <ele>1826</ele>
        <time>2021-04-07T06:49:03Z</time>
      </trkpt>
      <trkpt lat="44.50945" lon="6.59734">
        <ele>1826</ele>
        <time>2021-04-07T06:49:04Z</time>
      </trkpt>
      <trkpt lat="44.50945" lon="6.59734">
        <ele>1826</ele>
        <time>2021-04-07T06:49:05Z</time>
      </trkpt>
      <trkpt lat="44.50944" lon="6.59734">
        <ele>1826</ele>
        <time>2021-04-07T06:49:06Z</time>
      </trkpt>
      <trkpt lat="44.50944" lon="6.59734">
        <ele>1826</ele>
        <time>2021-04-07T06:49:07Z</time>
      </trkpt>
      <trkpt lat="44.50943" lon="6.59734">
        <ele>1826</ele>
        <time>2021-04-07T06:49:08Z</time>
      </trkpt>
      <trkpt lat="44.50943" lon="6.59733">
        <ele>1827</ele>
        <time>2021-04-07T06:49:09Z</time>
      </trkpt>
      <trkpt lat="44.50942" lon="6.59733">
        <ele>1827</ele>
        <time>2021-04-07T06:49:10Z</time>
      </trkpt>
      <trkpt lat="44.50941" lon="6.59733">
        <ele>1827</ele>
        <time>2021-04-07T06:49:11Z</time>
      </trkpt>
      <trkpt lat="44.50941" lon="6.59733">
        <ele>1827</ele>
        <time>2021-04-07T06:49:12Z</time>
      </trkpt>
      <trkpt lat="44.5094" lon="6.59733">
        <ele>1827</ele>
        <time>2021-04-07T06:49:13Z</time>
      </trkpt>
      <trkpt lat="44.5094" lon="6.59733">
        <ele>1827</ele>
        <time>2021-04-07T06:49:14Z</time>
      </trkpt>
      <trkpt lat="44.50939" lon="6.59733">
        <ele>1828</ele>
        <time>2021-04-07T06:49:15Z</time>
      </trkpt>
      <trkpt lat="44.50939" lon="6.59733">
        <ele>1828</ele>
        <time>2021-04-07T06:49:16Z</time>
      </trkpt>
      <trkpt lat="44.50937" lon="6.59732">
        <ele>1828</ele>
        <time>2021-04-07T06:49:17Z</time>
      </trkpt>
      <trkpt lat="44.50937" lon="6.59731">
        <ele>1828</ele>
        <time>2021-04-07T06:49:18Z</time>
      </trkpt>
      <trkpt lat="44.50936" lon="6.59731">
        <ele>1828</ele>
        <time>2021-04-07T06:49:19Z</time>
      </trkpt>
      <trkpt lat="44.50935" lon="6.5973">
        <ele>1828</ele>
        <time>2021-04-07T06:49:20Z</time>
      </trkpt>
      <trkpt lat="44.50934" lon="6.5973">
        <ele>1828</ele>
        <time>2021-04-07T06:49:21Z</time>
      </trkpt>
      <trkpt lat="44.50933" lon="6.59729">
        <ele>1828</ele>
        <time>2021-04-07T06:49:22Z</time>
      </trkpt>
      <trkpt lat="44.50932" lon="6.59728">
        <ele>1829</ele>
        <time>2021-04-07T06:49:23Z</time>
      </trkpt>
      <trkpt lat="44.50932" lon="6.59728">
        <ele>1829</ele>
        <time>2021-04-07T06:49:24Z</time>
      </trkpt>
      <trkpt lat="44.50931" lon="6.59728">
        <ele>1829</ele>
        <time>2021-04-07T06:49:25Z</time>
      </trkpt>
      <trkpt lat="44.5093" lon="6.59728">
        <ele>1829</ele>
        <time>2021-04-07T06:49:26Z</time>
      </trkpt>
      <trkpt lat="44.50929" lon="6.59727">
        <ele>1829</ele>
        <time>2021-04-07T06:49:27Z</time>
      </trkpt>
      <trkpt lat="44.50929" lon="6.59728">
        <ele>1830</ele>
        <time>2021-04-07T06:49:28Z</time>
      </trkpt>
      <trkpt lat="44.50929" lon="6.59728">
        <ele>1830</ele>
        <time>2021-04-07T06:49:29Z</time>
      </trkpt>
      <trkpt lat="44.50928" lon="6.59727">
        <ele>1830</ele>
        <time>2021-04-07T06:49:30Z</time>
      </trkpt>
      <trkpt lat="44.50927" lon="6.59727">
        <ele>1830</ele>
        <time>2021-04-07T06:49:31Z</time>
      </trkpt>
      <trkpt lat="44.50927" lon="6.59727">
        <ele>1830</ele>
        <time>2021-04-07T06:49:32Z</time>
      </trkpt>
      <trkpt lat="44.50927" lon="6.59726">
        <ele>1830</ele>
        <time>2021-04-07T06:49:33Z</time>
      </trkpt>
      <trkpt lat="44.50927" lon="6.59726">
        <ele>1830</ele>
        <time>2021-04-07T06:49:34Z</time>
      </trkpt>
      <trkpt lat="44.50926" lon="6.59726">
        <ele>1830</ele>
        <time>2021-04-07T06:49:35Z</time>
      </trkpt>
      <trkpt lat="44.50926" lon="6.59725">
        <ele>1831</ele>
        <time>2021-04-07T06:49:36Z</time>
      </trkpt>
      <trkpt lat="44.50926" lon="6.59725">
        <ele>1831</ele>
        <time>2021-04-07T06:49:37Z</time>
      </trkpt>
      <trkpt lat="44.50925" lon="6.59725">
        <ele>1831</ele>
        <time>2021-04-07T06:49:38Z</time>
      </trkpt>
      <trkpt lat="44.50925" lon="6.59725">
        <ele>1832</ele>
        <time>2021-04-07T06:49:39Z</time>
      </trkpt>
      <trkpt lat="44.50924" lon="6.59726">
        <ele>1832</ele>
        <time>2021-04-07T06:49:40Z</time>
      </trkpt>
      <trkpt lat="44.50924" lon="6.59726">
        <ele>1832</ele>
        <time>2021-04-07T06:49:41Z</time>
      </trkpt>
      <trkpt lat="44.50924" lon="6.59726">
        <ele>1832</ele>
        <time>2021-04-07T06:49:42Z</time>
      </trkpt>
      <trkpt lat="44.50923" lon="6.59727">
        <ele>1832</ele>
        <time>2021-04-07T06:49:43Z</time>
      </trkpt>
      <trkpt lat="44.50923" lon="6.59727">
        <ele>1833</ele>
        <time>2021-04-07T06:49:44Z</time>
      </trkpt>
      <trkpt lat="44.50922" lon="6.59728">
        <ele>1833</ele>
        <time>2021-04-07T06:49:45Z</time>
      </trkpt>
      <trkpt lat="44.50922" lon="6.59728">
        <ele>1833</ele>
        <time>2021-04-07T06:49:46Z</time>
      </trkpt>
      <trkpt lat="44.50923" lon="6.59729">
        <ele>1834</ele>
        <time>2021-04-07T06:49:47Z</time>
      </trkpt>
      <trkpt lat="44.50923" lon="6.5973">
        <ele>1834</ele>
        <time>2021-04-07T06:49:48Z</time>
      </trkpt>
      <trkpt lat="44.50923" lon="6.59731">
        <ele>1834</ele>
        <time>2021-04-07T06:49:49Z</time>
      </trkpt>
      <trkpt lat="44.50923" lon="6.59732">
        <ele>1835</ele>
        <time>2021-04-07T06:49:50Z</time>
      </trkpt>
      <trkpt lat="44.50923" lon="6.59733">
        <ele>1835</ele>
        <time>2021-04-07T06:49:51Z</time>
      </trkpt>
      <trkpt lat="44.50922" lon="6.59733">
        <ele>1835</ele>
        <time>2021-04-07T06:49:52Z</time>
      </trkpt>
      <trkpt lat="44.50922" lon="6.59734">
        <ele>1835</ele>
        <time>2021-04-07T06:49:53Z</time>
      </trkpt>
      <trkpt lat="44.50921" lon="6.59734">
        <ele>1835</ele>
        <time>2021-04-07T06:49:54Z</time>
      </trkpt>
      <trkpt lat="44.5092" lon="6.59734">
        <ele>1836</ele>
        <time>2021-04-07T06:49:55Z</time>
      </trkpt>
      <trkpt lat="44.5092" lon="6.59734">
        <ele>1836</ele>
        <time>2021-04-07T06:49:56Z</time>
      </trkpt>
      <trkpt lat="44.50919" lon="6.59734">
        <ele>1836</ele>
        <time>2021-04-07T06:49:57Z</time>
      </trkpt>
      <trkpt lat="44.50919" lon="6.59734">
        <ele>1836</ele>
        <time>2021-04-07T06:49:58Z</time>
      </trkpt>
      <trkpt lat="44.50918" lon="6.59734">
        <ele>1836</ele>
        <time>2021-04-07T06:49:59Z</time>
      </trkpt>
      <trkpt lat="44.50918" lon="6.59734">
        <ele>1837</ele>
        <time>2021-04-07T06:50:00Z</time>
      </trkpt>
      <trkpt lat="44.50917" lon="6.59734">
        <ele>1837</ele>
        <time>2021-04-07T06:50:01Z</time>
      </trkpt>
      <trkpt lat="44.50916" lon="6.59733">
        <ele>1837</ele>
        <time>2021-04-07T06:50:02Z</time>
      </trkpt>
      <trkpt lat="44.50916" lon="6.59733">
        <ele>1837</ele>
        <time>2021-04-07T06:50:03Z</time>
      </trkpt>
      <trkpt lat="44.50916" lon="6.59733">
        <ele>1838</ele>
        <time>2021-04-07T06:50:04Z</time>
      </trkpt>
      <trkpt lat="44.50915" lon="6.59733">
        <ele>1838</ele>
        <time>2021-04-07T06:50:05Z</time>
      </trkpt>
      <trkpt lat="44.50915" lon="6.59732">
        <ele>1838</ele>
        <time>2021-04-07T06:50:06Z</time>
      </trkpt>
      <trkpt lat="44.50914" lon="6.59732">
        <ele>1838</ele>
        <time>2021-04-07T06:50:07Z</time>
      </trkpt>
      <trkpt lat="44.50914" lon="6.59732">
        <ele>1839</ele>
        <time>2021-04-07T06:50:08Z</time>
      </trkpt>
      <trkpt lat="44.50913" lon="6.59732">
        <ele>1839</ele>
        <time>2021-04-07T06:50:09Z</time>
      </trkpt>
      <trkpt lat="44.50912" lon="6.59732">
        <ele>1839</ele>
        <time>2021-04-07T06:50:10Z</time>
      </trkpt>
      <trkpt lat="44.50911" lon="6.59732">
        <ele>1839</ele>
        <time>2021-04-07T06:50:11Z</time>
      </trkpt>
      <trkpt lat="44.50911" lon="6.59732">
        <ele>1839</ele>
        <time>2021-04-07T06:50:12Z</time>
      </trkpt>
      <trkpt lat="44.50911" lon="6.59732">
        <ele>1839</ele>
        <time>2021-04-07T06:50:13Z</time>
      </trkpt>
      <trkpt lat="44.5091" lon="6.59733">
        <ele>1840</ele>
        <time>2021-04-07T06:50:14Z</time>
      </trkpt>
      <trkpt lat="44.5091" lon="6.59733">
        <ele>1840</ele>
        <time>2021-04-07T06:50:15Z</time>
      </trkpt>
      <trkpt lat="44.50909" lon="6.59733">
        <ele>1840</ele>
        <time>2021-04-07T06:50:16Z</time>
      </trkpt>
      <trkpt lat="44.50909" lon="6.59734">
        <ele>1841</ele>
        <time>2021-04-07T06:50:17Z</time>
      </trkpt>
      <trkpt lat="44.50908" lon="6.59734">
        <ele>1841</ele>
        <time>2021-04-07T06:50:18Z</time>
      </trkpt>
      <trkpt lat="44.50907" lon="6.59734">
        <ele>1841</ele>
        <time>2021-04-07T06:50:19Z</time>
      </trkpt>
      <trkpt lat="44.50907" lon="6.59734">
        <ele>1841</ele>
        <time>2021-04-07T06:50:20Z</time>
      </trkpt>
      <trkpt lat="44.50906" lon="6.59734">
        <ele>1841</ele>
        <time>2021-04-07T06:50:21Z</time>
      </trkpt>
      <trkpt lat="44.50906" lon="6.59735">
        <ele>1842</ele>
        <time>2021-04-07T06:50:22Z</time>
      </trkpt>
      <trkpt lat="44.50905" lon="6.59734">
        <ele>1842</ele>
        <time>2021-04-07T06:50:23Z</time>
      </trkpt>
      <trkpt lat="44.50905" lon="6.59734">
        <ele>1842</ele>
        <time>2021-04-07T06:50:24Z</time>
      </trkpt>
      <trkpt lat="44.50904" lon="6.59733">
        <ele>1842</ele>
        <time>2021-04-07T06:50:25Z</time>
      </trkpt>
      <trkpt lat="44.50903" lon="6.59734">
        <ele>1842</ele>
        <time>2021-04-07T06:50:26Z</time>
      </trkpt>
      <trkpt lat="44.50903" lon="6.59734">
        <ele>1843</ele>
        <time>2021-04-07T06:50:27Z</time>
      </trkpt>
      <trkpt lat="44.50902" lon="6.59734">
        <ele>1843</ele>
        <time>2021-04-07T06:50:28Z</time>
      </trkpt>
      <trkpt lat="44.50901" lon="6.59734">
        <ele>1843</ele>
        <time>2021-04-07T06:50:29Z</time>
      </trkpt>
      <trkpt lat="44.50901" lon="6.59735">
        <ele>1843</ele>
        <time>2021-04-07T06:50:30Z</time>
      </trkpt>
      <trkpt lat="44.509" lon="6.59735">
        <ele>1844</ele>
        <time>2021-04-07T06:50:31Z</time>
      </trkpt>
      <trkpt lat="44.50899" lon="6.59735">
        <ele>1844</ele>
        <time>2021-04-07T06:50:32Z</time>
      </trkpt>
      <trkpt lat="44.50899" lon="6.59735">
        <ele>1844</ele>
        <time>2021-04-07T06:50:33Z</time>
      </trkpt>
      <trkpt lat="44.50898" lon="6.59735">
        <ele>1844</ele>
        <time>2021-04-07T06:50:34Z</time>
      </trkpt>
      <trkpt lat="44.50898" lon="6.59735">
        <ele>1844</ele>
        <time>2021-04-07T06:50:35Z</time>
      </trkpt>
      <trkpt lat="44.50897" lon="6.59736">
        <ele>1845</ele>
        <time>2021-04-07T06:50:36Z</time>
      </trkpt>
      <trkpt lat="44.50897" lon="6.59736">
        <ele>1845</ele>
        <time>2021-04-07T06:50:37Z</time>
      </trkpt>
      <trkpt lat="44.50896" lon="6.59737">
        <ele>1845</ele>
        <time>2021-04-07T06:50:38Z</time>
      </trkpt>
      <trkpt lat="44.50896" lon="6.59737">
        <ele>1845</ele>
        <time>2021-04-07T06:50:39Z</time>
      </trkpt>
      <trkpt lat="44.50895" lon="6.59737">
        <ele>1845</ele>
        <time>2021-04-07T06:50:40Z</time>
      </trkpt>
      <trkpt lat="44.50894" lon="6.59737">
        <ele>1846</ele>
        <time>2021-04-07T06:50:41Z</time>
      </trkpt>
      <trkpt lat="44.50894" lon="6.59737">
        <ele>1846</ele>
        <time>2021-04-07T06:50:42Z</time>
      </trkpt>
      <trkpt lat="44.50893" lon="6.59737">
        <ele>1846</ele>
        <time>2021-04-07T06:50:43Z</time>
      </trkpt>
      <trkpt lat="44.50893" lon="6.59737">
        <ele>1846</ele>
        <time>2021-04-07T06:50:44Z</time>
      </trkpt>
      <trkpt lat="44.50892" lon="6.59737">
        <ele>1846</ele>
        <time>2021-04-07T06:50:45Z</time>
      </trkpt>
      <trkpt lat="44.50892" lon="6.59738">
        <ele>1847</ele>
        <time>2021-04-07T06:50:46Z</time>
      </trkpt>
      <trkpt lat="44.50891" lon="6.59738">
        <ele>1847</ele>
        <time>2021-04-07T06:50:47Z</time>
      </trkpt>
      <trkpt lat="44.50891" lon="6.59739">
        <ele>1847</ele>
        <time>2021-04-07T06:50:48Z</time>
      </trkpt>
      <trkpt lat="44.5089" lon="6.59739">
        <ele>1847</ele>
        <time>2021-04-07T06:50:49Z</time>
      </trkpt>
      <trkpt lat="44.5089" lon="6.59739">
        <ele>1848</ele>
        <time>2021-04-07T06:50:50Z</time>
      </trkpt>
      <trkpt lat="44.50889" lon="6.59739">
        <ele>1848</ele>
        <time>2021-04-07T06:50:51Z</time>
      </trkpt>
      <trkpt lat="44.50889" lon="6.5974">
        <ele>1848</ele>
        <time>2021-04-07T06:50:52Z</time>
      </trkpt>
      <trkpt lat="44.50888" lon="6.5974">
        <ele>1848</ele>
        <time>2021-04-07T06:50:53Z</time>
      </trkpt>
      <trkpt lat="44.50888" lon="6.59741">
        <ele>1848</ele>
        <time>2021-04-07T06:50:54Z</time>
      </trkpt>
      <trkpt lat="44.50887" lon="6.59741">
        <ele>1849</ele>
        <time>2021-04-07T06:50:55Z</time>
      </trkpt>
      <trkpt lat="44.50886" lon="6.59741">
        <ele>1849</ele>
        <time>2021-04-07T06:50:56Z</time>
      </trkpt>
      <trkpt lat="44.50886" lon="6.59742">
        <ele>1849</ele>
        <time>2021-04-07T06:50:57Z</time>
      </trkpt>
      <trkpt lat="44.50885" lon="6.59742">
        <ele>1849</ele>
        <time>2021-04-07T06:50:58Z</time>
      </trkpt>
      <trkpt lat="44.50884" lon="6.59742">
        <ele>1850</ele>
        <time>2021-04-07T06:50:59Z</time>
      </trkpt>
      <trkpt lat="44.50884" lon="6.59742">
        <ele>1850</ele>
        <time>2021-04-07T06:51:00Z</time>
      </trkpt>
      <trkpt lat="44.50883" lon="6.59742">
        <ele>1850</ele>
        <time>2021-04-07T06:51:01Z</time>
      </trkpt>
      <trkpt lat="44.50883" lon="6.59742">
        <ele>1850</ele>
        <time>2021-04-07T06:51:02Z</time>
      </trkpt>
      <trkpt lat="44.50882" lon="6.59742">
        <ele>1851</ele>
        <time>2021-04-07T06:51:03Z</time>
      </trkpt>
      <trkpt lat="44.50881" lon="6.59742">
        <ele>1851</ele>
        <time>2021-04-07T06:51:04Z</time>
      </trkpt>
      <trkpt lat="44.5088" lon="6.59742">
        <ele>1851</ele>
        <time>2021-04-07T06:51:05Z</time>
      </trkpt>
      <trkpt lat="44.5088" lon="6.59743">
        <ele>1851</ele>
        <time>2021-04-07T06:51:06Z</time>
      </trkpt>
      <trkpt lat="44.50879" lon="6.59742">
        <ele>1851</ele>
        <time>2021-04-07T06:51:07Z</time>
      </trkpt>
      <trkpt lat="44.50879" lon="6.59743">
        <ele>1851</ele>
        <time>2021-04-07T06:51:08Z</time>
      </trkpt>
      <trkpt lat="44.50878" lon="6.59742">
        <ele>1852</ele>
        <time>2021-04-07T06:51:09Z</time>
      </trkpt>
      <trkpt lat="44.50878" lon="6.59741">
        <ele>1852</ele>
        <time>2021-04-07T06:51:10Z</time>
      </trkpt>
      <trkpt lat="44.50878" lon="6.59741">
        <ele>1853</ele>
        <time>2021-04-07T06:51:11Z</time>
      </trkpt>
      <trkpt lat="44.50878" lon="6.5974">
        <ele>1853</ele>
        <time>2021-04-07T06:51:12Z</time>
      </trkpt>
      <trkpt lat="44.50878" lon="6.59739">
        <ele>1853</ele>
        <time>2021-04-07T06:51:13Z</time>
      </trkpt>
      <trkpt lat="44.50877" lon="6.59738">
        <ele>1853</ele>
        <time>2021-04-07T06:51:14Z</time>
      </trkpt>
      <trkpt lat="44.50878" lon="6.59737">
        <ele>1853</ele>
        <time>2021-04-07T06:51:15Z</time>
      </trkpt>
      <trkpt lat="44.50878" lon="6.59736">
        <ele>1854</ele>
        <time>2021-04-07T06:51:16Z</time>
      </trkpt>
      <trkpt lat="44.50878" lon="6.59735">
        <ele>1854</ele>
        <time>2021-04-07T06:51:17Z</time>
      </trkpt>
      <trkpt lat="44.50878" lon="6.59734">
        <ele>1854</ele>
        <time>2021-04-07T06:51:18Z</time>
      </trkpt>
      <trkpt lat="44.50878" lon="6.59733">
        <ele>1854</ele>
        <time>2021-04-07T06:51:19Z</time>
      </trkpt>
      <trkpt lat="44.50879" lon="6.59732">
        <ele>1855</ele>
        <time>2021-04-07T06:51:20Z</time>
      </trkpt>
      <trkpt lat="44.50879" lon="6.59731">
        <ele>1855</ele>
        <time>2021-04-07T06:51:21Z</time>
      </trkpt>
      <trkpt lat="44.50879" lon="6.59731">
        <ele>1855</ele>
        <time>2021-04-07T06:51:22Z</time>
      </trkpt>
      <trkpt lat="44.50879" lon="6.5973">
        <ele>1855</ele>
        <time>2021-04-07T06:51:23Z</time>
      </trkpt>
      <trkpt lat="44.50878" lon="6.5973">
        <ele>1855</ele>
        <time>2021-04-07T06:51:24Z</time>
      </trkpt>
      <trkpt lat="44.50878" lon="6.5973">
        <ele>1855</ele>
        <time>2021-04-07T06:51:25Z</time>
      </trkpt>
      <trkpt lat="44.50878" lon="6.5973">
        <ele>1855</ele>
        <time>2021-04-07T06:51:26Z</time>
      </trkpt>
      <trkpt lat="44.50877" lon="6.5973">
        <ele>1855</ele>
        <time>2021-04-07T06:51:27Z</time>
      </trkpt>
      <trkpt lat="44.50876" lon="6.5973">
        <ele>1855</ele>
        <time>2021-04-07T06:51:28Z</time>
      </trkpt>
      <trkpt lat="44.50875" lon="6.5973">
        <ele>1855</ele>
        <time>2021-04-07T06:51:29Z</time>
      </trkpt>
      <trkpt lat="44.50875" lon="6.5973">
        <ele>1855</ele>
        <time>2021-04-07T06:51:30Z</time>
      </trkpt>
      <trkpt lat="44.50875" lon="6.59731">
        <ele>1856</ele>
        <time>2021-04-07T06:51:31Z</time>
      </trkpt>
      <trkpt lat="44.50873" lon="6.5973">
        <ele>1856</ele>
        <time>2021-04-07T06:51:32Z</time>
      </trkpt>
      <trkpt lat="44.50873" lon="6.5973">
        <ele>1856</ele>
        <time>2021-04-07T06:51:33Z</time>
      </trkpt>
      <trkpt lat="44.50871" lon="6.59729">
        <ele>1856</ele>
        <time>2021-04-07T06:51:34Z</time>
      </trkpt>
      <trkpt lat="44.5087" lon="6.59729">
        <ele>1856</ele>
        <time>2021-04-07T06:51:35Z</time>
      </trkpt>
      <trkpt lat="44.5087" lon="6.59729">
        <ele>1856</ele>
        <time>2021-04-07T06:51:36Z</time>
      </trkpt>
      <trkpt lat="44.50869" lon="6.59729">
        <ele>1856</ele>
        <time>2021-04-07T06:51:37Z</time>
      </trkpt>
      <trkpt lat="44.50869" lon="6.59729">
        <ele>1856</ele>
        <time>2021-04-07T06:51:38Z</time>
      </trkpt>
      <trkpt lat="44.50868" lon="6.59728">
        <ele>1857</ele>
        <time>2021-04-07T06:51:39Z</time>
      </trkpt>
      <trkpt lat="44.50867" lon="6.59728">
        <ele>1857</ele>
        <time>2021-04-07T06:51:40Z</time>
      </trkpt>
      <trkpt lat="44.50867" lon="6.59728">
        <ele>1857</ele>
        <time>2021-04-07T06:51:41Z</time>
      </trkpt>
      <trkpt lat="44.50867" lon="6.59728">
        <ele>1857</ele>
        <time>2021-04-07T06:51:42Z</time>
      </trkpt>
      <trkpt lat="44.50866" lon="6.59727">
        <ele>1857</ele>
        <time>2021-04-07T06:51:43Z</time>
      </trkpt>
      <trkpt lat="44.50866" lon="6.59727">
        <ele>1857</ele>
        <time>2021-04-07T06:51:44Z</time>
      </trkpt>
      <trkpt lat="44.50865" lon="6.59726">
        <ele>1857</ele>
        <time>2021-04-07T06:51:45Z</time>
      </trkpt>
      <trkpt lat="44.50864" lon="6.59725">
        <ele>1858</ele>
        <time>2021-04-07T06:51:46Z</time>
      </trkpt>
      <trkpt lat="44.50864" lon="6.59724">
        <ele>1858</ele>
        <time>2021-04-07T06:51:47Z</time>
      </trkpt>
      <trkpt lat="44.50863" lon="6.59724">
        <ele>1858</ele>
        <time>2021-04-07T06:51:48Z</time>
      </trkpt>
      <trkpt lat="44.50863" lon="6.59724">
        <ele>1858</ele>
        <time>2021-04-07T06:51:49Z</time>
      </trkpt>
      <trkpt lat="44.50862" lon="6.59723">
        <ele>1858</ele>
        <time>2021-04-07T06:51:50Z</time>
      </trkpt>
      <trkpt lat="44.50861" lon="6.59723">
        <ele>1858</ele>
        <time>2021-04-07T06:51:51Z</time>
      </trkpt>
      <trkpt lat="44.5086" lon="6.59723">
        <ele>1858</ele>
        <time>2021-04-07T06:51:52Z</time>
      </trkpt>
      <trkpt lat="44.5086" lon="6.59723">
        <ele>1858</ele>
        <time>2021-04-07T06:51:53Z</time>
      </trkpt>
      <trkpt lat="44.50858" lon="6.59722">
        <ele>1859</ele>
        <time>2021-04-07T06:51:54Z</time>
      </trkpt>
      <trkpt lat="44.50857" lon="6.59722">
        <ele>1859</ele>
        <time>2021-04-07T06:51:55Z</time>
      </trkpt>
      <trkpt lat="44.50856" lon="6.59721">
        <ele>1859</ele>
        <time>2021-04-07T06:51:56Z</time>
      </trkpt>
      <trkpt lat="44.50855" lon="6.59721">
        <ele>1859</ele>
        <time>2021-04-07T06:51:57Z</time>
      </trkpt>
      <trkpt lat="44.50854" lon="6.5972">
        <ele>1859</ele>
        <time>2021-04-07T06:51:58Z</time>
      </trkpt>
      <trkpt lat="44.50853" lon="6.59719">
        <ele>1859</ele>
        <time>2021-04-07T06:51:59Z</time>
      </trkpt>
      <trkpt lat="44.50852" lon="6.59719">
        <ele>1859</ele>
        <time>2021-04-07T06:52:00Z</time>
      </trkpt>
      <trkpt lat="44.50851" lon="6.59718">
        <ele>1859</ele>
        <time>2021-04-07T06:52:01Z</time>
      </trkpt>
      <trkpt lat="44.5085" lon="6.59718">
        <ele>1859</ele>
        <time>2021-04-07T06:52:02Z</time>
      </trkpt>
      <trkpt lat="44.50849" lon="6.59718">
        <ele>1859</ele>
        <time>2021-04-07T06:52:03Z</time>
      </trkpt>
      <trkpt lat="44.50848" lon="6.59718">
        <ele>1859</ele>
        <time>2021-04-07T06:52:04Z</time>
      </trkpt>
      <trkpt lat="44.50848" lon="6.59719">
        <ele>1860</ele>
        <time>2021-04-07T06:52:05Z</time>
      </trkpt>
      <trkpt lat="44.50846" lon="6.59719">
        <ele>1860</ele>
        <time>2021-04-07T06:52:06Z</time>
      </trkpt>
      <trkpt lat="44.50846" lon="6.59719">
        <ele>1860</ele>
        <time>2021-04-07T06:52:07Z</time>
      </trkpt>
      <trkpt lat="44.50845" lon="6.59719">
        <ele>1860</ele>
        <time>2021-04-07T06:52:08Z</time>
      </trkpt>
      <trkpt lat="44.50844" lon="6.59719">
        <ele>1860</ele>
        <time>2021-04-07T06:52:09Z</time>
      </trkpt>
      <trkpt lat="44.50843" lon="6.59719">
        <ele>1859</ele>
        <time>2021-04-07T06:52:10Z</time>
      </trkpt>
      <trkpt lat="44.50843" lon="6.5972">
        <ele>1859</ele>
        <time>2021-04-07T06:52:11Z</time>
      </trkpt>
      <trkpt lat="44.50842" lon="6.5972">
        <ele>1859</ele>
        <time>2021-04-07T06:52:12Z</time>
      </trkpt>
      <trkpt lat="44.50842" lon="6.5972">
        <ele>1859</ele>
        <time>2021-04-07T06:52:13Z</time>
      </trkpt>
      <trkpt lat="44.50841" lon="6.59719">
        <ele>1859</ele>
        <time>2021-04-07T06:52:14Z</time>
      </trkpt>
      <trkpt lat="44.5084" lon="6.59719">
        <ele>1859</ele>
        <time>2021-04-07T06:52:15Z</time>
      </trkpt>
      <trkpt lat="44.50839" lon="6.59719">
        <ele>1859</ele>
        <time>2021-04-07T06:52:16Z</time>
      </trkpt>
      <trkpt lat="44.50837" lon="6.59719">
        <ele>1859</ele>
        <time>2021-04-07T06:52:17Z</time>
      </trkpt>
      <trkpt lat="44.50837" lon="6.59719">
        <ele>1859</ele>
        <time>2021-04-07T06:52:18Z</time>
      </trkpt>
      <trkpt lat="44.50836" lon="6.59719">
        <ele>1859</ele>
        <time>2021-04-07T06:52:19Z</time>
      </trkpt>
      <trkpt lat="44.50836" lon="6.59718">
        <ele>1859</ele>
        <time>2021-04-07T06:52:20Z</time>
      </trkpt>
      <trkpt lat="44.50835" lon="6.59717">
        <ele>1859</ele>
        <time>2021-04-07T06:52:21Z</time>
      </trkpt>
      <trkpt lat="44.50834" lon="6.59716">
        <ele>1859</ele>
        <time>2021-04-07T06:52:22Z</time>
      </trkpt>
      <trkpt lat="44.50834" lon="6.59716">
        <ele>1859</ele>
        <time>2021-04-07T06:52:23Z</time>
      </trkpt>
      <trkpt lat="44.50833" lon="6.59715">
        <ele>1859</ele>
        <time>2021-04-07T06:52:24Z</time>
      </trkpt>
      <trkpt lat="44.50832" lon="6.59715">
        <ele>1859</ele>
        <time>2021-04-07T06:52:25Z</time>
      </trkpt>
      <trkpt lat="44.50831" lon="6.59714">
        <ele>1859</ele>
        <time>2021-04-07T06:52:26Z</time>
      </trkpt>
      <trkpt lat="44.50831" lon="6.59713">
        <ele>1860</ele>
        <time>2021-04-07T06:52:27Z</time>
      </trkpt>
      <trkpt lat="44.5083" lon="6.59713">
        <ele>1860</ele>
        <time>2021-04-07T06:52:28Z</time>
      </trkpt>
      <trkpt lat="44.5083" lon="6.59712">
        <ele>1860</ele>
        <time>2021-04-07T06:52:29Z</time>
      </trkpt>
      <trkpt lat="44.5083" lon="6.59711">
        <ele>1860</ele>
        <time>2021-04-07T06:52:30Z</time>
      </trkpt>
      <trkpt lat="44.50829" lon="6.5971">
        <ele>1860</ele>
        <time>2021-04-07T06:52:31Z</time>
      </trkpt>
      <trkpt lat="44.50829" lon="6.59709">
        <ele>1860</ele>
        <time>2021-04-07T06:52:32Z</time>
      </trkpt>
      <trkpt lat="44.50829" lon="6.59709">
        <ele>1861</ele>
        <time>2021-04-07T06:52:33Z</time>
      </trkpt>
      <trkpt lat="44.50829" lon="6.59707">
        <ele>1861</ele>
        <time>2021-04-07T06:52:34Z</time>
      </trkpt>
      <trkpt lat="44.50828" lon="6.59707">
        <ele>1861</ele>
        <time>2021-04-07T06:52:35Z</time>
      </trkpt>
      <trkpt lat="44.50828" lon="6.59706">
        <ele>1861</ele>
        <time>2021-04-07T06:52:36Z</time>
      </trkpt>
      <trkpt lat="44.50828" lon="6.59705">
        <ele>1861</ele>
        <time>2021-04-07T06:52:37Z</time>
      </trkpt>
      <trkpt lat="44.50828" lon="6.59704">
        <ele>1861</ele>
        <time>2021-04-07T06:52:38Z</time>
      </trkpt>
      <trkpt lat="44.50827" lon="6.59703">
        <ele>1862</ele>
        <time>2021-04-07T06:52:39Z</time>
      </trkpt>
      <trkpt lat="44.50827" lon="6.59702">
        <ele>1862</ele>
        <time>2021-04-07T06:52:40Z</time>
      </trkpt>
      <trkpt lat="44.50827" lon="6.59702">
        <ele>1862</ele>
        <time>2021-04-07T06:52:41Z</time>
      </trkpt>
      <trkpt lat="44.50827" lon="6.59701">
        <ele>1862</ele>
        <time>2021-04-07T06:52:42Z</time>
      </trkpt>
      <trkpt lat="44.50827" lon="6.597">
        <ele>1862</ele>
        <time>2021-04-07T06:52:43Z</time>
      </trkpt>
      <trkpt lat="44.50826" lon="6.59699">
        <ele>1863</ele>
        <time>2021-04-07T06:52:44Z</time>
      </trkpt>
      <trkpt lat="44.50826" lon="6.59698">
        <ele>1863</ele>
        <time>2021-04-07T06:52:45Z</time>
      </trkpt>
      <trkpt lat="44.50826" lon="6.59698">
        <ele>1863</ele>
        <time>2021-04-07T06:52:46Z</time>
      </trkpt>
      <trkpt lat="44.50825" lon="6.59697">
        <ele>1863</ele>
        <time>2021-04-07T06:52:47Z</time>
      </trkpt>
      <trkpt lat="44.50825" lon="6.59696">
        <ele>1863</ele>
        <time>2021-04-07T06:52:48Z</time>
      </trkpt>
      <trkpt lat="44.50825" lon="6.59696">
        <ele>1864</ele>
        <time>2021-04-07T06:52:49Z</time>
      </trkpt>
      <trkpt lat="44.50825" lon="6.59694">
        <ele>1864</ele>
        <time>2021-04-07T06:52:50Z</time>
      </trkpt>
      <trkpt lat="44.50825" lon="6.59693">
        <ele>1864</ele>
        <time>2021-04-07T06:52:51Z</time>
      </trkpt>
      <trkpt lat="44.50825" lon="6.59692">
        <ele>1864</ele>
        <time>2021-04-07T06:52:52Z</time>
      </trkpt>
      <trkpt lat="44.50824" lon="6.59691">
        <ele>1864</ele>
        <time>2021-04-07T06:52:53Z</time>
      </trkpt>
      <trkpt lat="44.50824" lon="6.59691">
        <ele>1864</ele>
        <time>2021-04-07T06:52:54Z</time>
      </trkpt>
      <trkpt lat="44.50823" lon="6.5969">
        <ele>1864</ele>
        <time>2021-04-07T06:52:55Z</time>
      </trkpt>
      <trkpt lat="44.50823" lon="6.59689">
        <ele>1864</ele>
        <time>2021-04-07T06:52:56Z</time>
      </trkpt>
      <trkpt lat="44.50822" lon="6.59689">
        <ele>1864</ele>
        <time>2021-04-07T06:52:57Z</time>
      </trkpt>
      <trkpt lat="44.50822" lon="6.59688">
        <ele>1865</ele>
        <time>2021-04-07T06:52:58Z</time>
      </trkpt>
      <trkpt lat="44.50821" lon="6.59687">
        <ele>1865</ele>
        <time>2021-04-07T06:52:59Z</time>
      </trkpt>
      <trkpt lat="44.50821" lon="6.59687">
        <ele>1865</ele>
        <time>2021-04-07T06:53:00Z</time>
      </trkpt>
      <trkpt lat="44.5082" lon="6.59686">
        <ele>1865</ele>
        <time>2021-04-07T06:53:01Z</time>
      </trkpt>
      <trkpt lat="44.5082" lon="6.59686">
        <ele>1866</ele>
        <time>2021-04-07T06:53:02Z</time>
      </trkpt>
      <trkpt lat="44.50819" lon="6.59686">
        <ele>1866</ele>
        <time>2021-04-07T06:53:03Z</time>
      </trkpt>
      <trkpt lat="44.50819" lon="6.59686">
        <ele>1866</ele>
        <time>2021-04-07T06:53:04Z</time>
      </trkpt>
      <trkpt lat="44.50818" lon="6.59686">
        <ele>1866</ele>
        <time>2021-04-07T06:53:05Z</time>
      </trkpt>
      <trkpt lat="44.50817" lon="6.59686">
        <ele>1866</ele>
        <time>2021-04-07T06:53:06Z</time>
      </trkpt>
      <trkpt lat="44.50816" lon="6.59685">
        <ele>1867</ele>
        <time>2021-04-07T06:53:07Z</time>
      </trkpt>
      <trkpt lat="44.50816" lon="6.59685">
        <ele>1868</ele>
        <time>2021-04-07T06:53:08Z</time>
      </trkpt>
      <trkpt lat="44.50816" lon="6.59685">
        <ele>1868</ele>
        <time>2021-04-07T06:53:09Z</time>
      </trkpt>
      <trkpt lat="44.50815" lon="6.59685">
        <ele>1868</ele>
        <time>2021-04-07T06:53:10Z</time>
      </trkpt>
      <trkpt lat="44.50814" lon="6.59684">
        <ele>1868</ele>
        <time>2021-04-07T06:53:11Z</time>
      </trkpt>
      <trkpt lat="44.50813" lon="6.59684">
        <ele>1868</ele>
        <time>2021-04-07T06:53:12Z</time>
      </trkpt>
      <trkpt lat="44.50813" lon="6.59683">
        <ele>1868</ele>
        <time>2021-04-07T06:53:13Z</time>
      </trkpt>
      <trkpt lat="44.50813" lon="6.59682">
        <ele>1868</ele>
        <time>2021-04-07T06:53:14Z</time>
      </trkpt>
      <trkpt lat="44.50813" lon="6.59681">
        <ele>1868</ele>
        <time>2021-04-07T06:53:15Z</time>
      </trkpt>
      <trkpt lat="44.50812" lon="6.59681">
        <ele>1868</ele>
        <time>2021-04-07T06:53:16Z</time>
      </trkpt>
      <trkpt lat="44.50812" lon="6.59681">
        <ele>1868</ele>
        <time>2021-04-07T06:53:17Z</time>
      </trkpt>
      <trkpt lat="44.50812" lon="6.59679">
        <ele>1868</ele>
        <time>2021-04-07T06:53:18Z</time>
      </trkpt>
      <trkpt lat="44.50811" lon="6.59678">
        <ele>1867</ele>
        <time>2021-04-07T06:53:19Z</time>
      </trkpt>
      <trkpt lat="44.5081" lon="6.59678">
        <ele>1867</ele>
        <time>2021-04-07T06:53:20Z</time>
      </trkpt>
      <trkpt lat="44.5081" lon="6.59677">
        <ele>1867</ele>
        <time>2021-04-07T06:53:21Z</time>
      </trkpt>
      <trkpt lat="44.5081" lon="6.59676">
        <ele>1867</ele>
        <time>2021-04-07T06:53:22Z</time>
      </trkpt>
      <trkpt lat="44.50809" lon="6.59675">
        <ele>1867</ele>
        <time>2021-04-07T06:53:23Z</time>
      </trkpt>
      <trkpt lat="44.50809" lon="6.59675">
        <ele>1866</ele>
        <time>2021-04-07T06:53:24Z</time>
      </trkpt>
      <trkpt lat="44.50809" lon="6.59674">
        <ele>1866</ele>
        <time>2021-04-07T06:53:25Z</time>
      </trkpt>
      <trkpt lat="44.50809" lon="6.59673">
        <ele>1866</ele>
        <time>2021-04-07T06:53:26Z</time>
      </trkpt>
      <trkpt lat="44.50808" lon="6.59672">
        <ele>1866</ele>
        <time>2021-04-07T06:53:27Z</time>
      </trkpt>
      <trkpt lat="44.50808" lon="6.59671">
        <ele>1866</ele>
        <time>2021-04-07T06:53:28Z</time>
      </trkpt>
      <trkpt lat="44.50807" lon="6.59671">
        <ele>1866</ele>
        <time>2021-04-07T06:53:29Z</time>
      </trkpt>
      <trkpt lat="44.50807" lon="6.5967">
        <ele>1866</ele>
        <time>2021-04-07T06:53:30Z</time>
      </trkpt>
      <trkpt lat="44.50807" lon="6.5967">
        <ele>1866</ele>
        <time>2021-04-07T06:53:31Z</time>
      </trkpt>
      <trkpt lat="44.50806" lon="6.5967">
        <ele>1866</ele>
        <time>2021-04-07T06:53:32Z</time>
      </trkpt>
      <trkpt lat="44.50806" lon="6.5967">
        <ele>1866</ele>
        <time>2021-04-07T06:53:33Z</time>
      </trkpt>
      <trkpt lat="44.50805" lon="6.5967">
        <ele>1866</ele>
        <time>2021-04-07T06:53:34Z</time>
      </trkpt>
      <trkpt lat="44.50804" lon="6.5967">
        <ele>1866</ele>
        <time>2021-04-07T06:53:35Z</time>
      </trkpt>
      <trkpt lat="44.50804" lon="6.5967">
        <ele>1866</ele>
        <time>2021-04-07T06:53:36Z</time>
      </trkpt>
      <trkpt lat="44.50804" lon="6.59669">
        <ele>1866</ele>
        <time>2021-04-07T06:53:37Z</time>
      </trkpt>
      <trkpt lat="44.50803" lon="6.59669">
        <ele>1866</ele>
        <time>2021-04-07T06:53:38Z</time>
      </trkpt>
      <trkpt lat="44.50802" lon="6.59668">
        <ele>1866</ele>
        <time>2021-04-07T06:53:39Z</time>
      </trkpt>
      <trkpt lat="44.50802" lon="6.59667">
        <ele>1866</ele>
        <time>2021-04-07T06:53:40Z</time>
      </trkpt>
      <trkpt lat="44.50801" lon="6.59666">
        <ele>1866</ele>
        <time>2021-04-07T06:53:41Z</time>
      </trkpt>
      <trkpt lat="44.50801" lon="6.59666">
        <ele>1866</ele>
        <time>2021-04-07T06:53:42Z</time>
      </trkpt>
      <trkpt lat="44.50801" lon="6.59665">
        <ele>1866</ele>
        <time>2021-04-07T06:53:43Z</time>
      </trkpt>
      <trkpt lat="44.50801" lon="6.59664">
        <ele>1866</ele>
        <time>2021-04-07T06:53:44Z</time>
      </trkpt>
      <trkpt lat="44.50801" lon="6.59663">
        <ele>1866</ele>
        <time>2021-04-07T06:53:45Z</time>
      </trkpt>
      <trkpt lat="44.50801" lon="6.59662">
        <ele>1867</ele>
        <time>2021-04-07T06:53:46Z</time>
      </trkpt>
      <trkpt lat="44.50801" lon="6.59662">
        <ele>1867</ele>
        <time>2021-04-07T06:53:47Z</time>
      </trkpt>
      <trkpt lat="44.50801" lon="6.59662">
        <ele>1867</ele>
        <time>2021-04-07T06:53:48Z</time>
      </trkpt>
      <trkpt lat="44.50801" lon="6.59662">
        <ele>1867</ele>
        <time>2021-04-07T06:53:49Z</time>
      </trkpt>
      <trkpt lat="44.50801" lon="6.59661">
        <ele>1867</ele>
        <time>2021-04-07T06:53:50Z</time>
      </trkpt>
      <trkpt lat="44.508" lon="6.5966">
        <ele>1867</ele>
        <time>2021-04-07T06:53:51Z</time>
      </trkpt>
      <trkpt lat="44.508" lon="6.5966">
        <ele>1867</ele>
        <time>2021-04-07T06:53:52Z</time>
      </trkpt>
      <trkpt lat="44.508" lon="6.59659">
        <ele>1867</ele>
        <time>2021-04-07T06:53:53Z</time>
      </trkpt>
      <trkpt lat="44.50799" lon="6.59658">
        <ele>1867</ele>
        <time>2021-04-07T06:53:54Z</time>
      </trkpt>
      <trkpt lat="44.50799" lon="6.59658">
        <ele>1867</ele>
        <time>2021-04-07T06:53:55Z</time>
      </trkpt>
      <trkpt lat="44.50798" lon="6.59658">
        <ele>1868</ele>
        <time>2021-04-07T06:53:56Z</time>
      </trkpt>
      <trkpt lat="44.50798" lon="6.59658">
        <ele>1868</ele>
        <time>2021-04-07T06:53:57Z</time>
      </trkpt>
      <trkpt lat="44.50797" lon="6.59658">
        <ele>1868</ele>
        <time>2021-04-07T06:53:58Z</time>
      </trkpt>
      <trkpt lat="44.50797" lon="6.59658">
        <ele>1868</ele>
        <time>2021-04-07T06:53:59Z</time>
      </trkpt>
      <trkpt lat="44.50796" lon="6.59658">
        <ele>1868</ele>
        <time>2021-04-07T06:54:00Z</time>
      </trkpt>
      <trkpt lat="44.50795" lon="6.59658">
        <ele>1869</ele>
        <time>2021-04-07T06:54:01Z</time>
      </trkpt>
      <trkpt lat="44.50795" lon="6.59658">
        <ele>1870</ele>
        <time>2021-04-07T06:54:02Z</time>
      </trkpt>
      <trkpt lat="44.50794" lon="6.59657">
        <ele>1870</ele>
        <time>2021-04-07T06:54:03Z</time>
      </trkpt>
      <trkpt lat="44.50793" lon="6.59656">
        <ele>1870</ele>
        <time>2021-04-07T06:54:04Z</time>
      </trkpt>
      <trkpt lat="44.50792" lon="6.59656">
        <ele>1871</ele>
        <time>2021-04-07T06:54:05Z</time>
      </trkpt>
      <trkpt lat="44.50792" lon="6.59655">
        <ele>1871</ele>
        <time>2021-04-07T06:54:06Z</time>
      </trkpt>
      <trkpt lat="44.50791" lon="6.59654">
        <ele>1872</ele>
        <time>2021-04-07T06:54:07Z</time>
      </trkpt>
      <trkpt lat="44.50791" lon="6.59654">
        <ele>1872</ele>
        <time>2021-04-07T06:54:08Z</time>
      </trkpt>
      <trkpt lat="44.50791" lon="6.59653">
        <ele>1872</ele>
        <time>2021-04-07T06:54:09Z</time>
      </trkpt>
      <trkpt lat="44.5079" lon="6.59652">
        <ele>1872</ele>
        <time>2021-04-07T06:54:10Z</time>
      </trkpt>
      <trkpt lat="44.50789" lon="6.59651">
        <ele>1873</ele>
        <time>2021-04-07T06:54:11Z</time>
      </trkpt>
      <trkpt lat="44.50789" lon="6.59651">
        <ele>1873</ele>
        <time>2021-04-07T06:54:12Z</time>
      </trkpt>
      <trkpt lat="44.50789" lon="6.5965">
        <ele>1873</ele>
        <time>2021-04-07T06:54:13Z</time>
      </trkpt>
      <trkpt lat="44.50788" lon="6.59649">
        <ele>1873</ele>
        <time>2021-04-07T06:54:14Z</time>
      </trkpt>
      <trkpt lat="44.50788" lon="6.59649">
        <ele>1873</ele>
        <time>2021-04-07T06:54:15Z</time>
      </trkpt>
      <trkpt lat="44.50787" lon="6.59648">
        <ele>1874</ele>
        <time>2021-04-07T06:54:16Z</time>
      </trkpt>
      <trkpt lat="44.50787" lon="6.59648">
        <ele>1874</ele>
        <time>2021-04-07T06:54:17Z</time>
      </trkpt>
      <trkpt lat="44.50786" lon="6.59647">
        <ele>1874</ele>
        <time>2021-04-07T06:54:18Z</time>
      </trkpt>
      <trkpt lat="44.50785" lon="6.59647">
        <ele>1874</ele>
        <time>2021-04-07T06:54:19Z</time>
      </trkpt>
      <trkpt lat="44.50784" lon="6.59647">
        <ele>1874</ele>
        <time>2021-04-07T06:54:20Z</time>
      </trkpt>
      <trkpt lat="44.50784" lon="6.59646">
        <ele>1875</ele>
        <time>2021-04-07T06:54:21Z</time>
      </trkpt>
      <trkpt lat="44.50783" lon="6.59646">
        <ele>1875</ele>
        <time>2021-04-07T06:54:22Z</time>
      </trkpt>
      <trkpt lat="44.50783" lon="6.59645">
        <ele>1875</ele>
        <time>2021-04-07T06:54:23Z</time>
      </trkpt>
      <trkpt lat="44.50782" lon="6.59645">
        <ele>1875</ele>
        <time>2021-04-07T06:54:24Z</time>
      </trkpt>
      <trkpt lat="44.50781" lon="6.59645">
        <ele>1875</ele>
        <time>2021-04-07T06:54:25Z</time>
      </trkpt>
      <trkpt lat="44.50781" lon="6.59644">
        <ele>1875</ele>
        <time>2021-04-07T06:54:26Z</time>
      </trkpt>
      <trkpt lat="44.50781" lon="6.59644">
        <ele>1876</ele>
        <time>2021-04-07T06:54:27Z</time>
      </trkpt>
      <trkpt lat="44.5078" lon="6.59644">
        <ele>1876</ele>
        <time>2021-04-07T06:54:28Z</time>
      </trkpt>
      <trkpt lat="44.5078" lon="6.59643">
        <ele>1876</ele>
        <time>2021-04-07T06:54:29Z</time>
      </trkpt>
      <trkpt lat="44.50779" lon="6.59642">
        <ele>1877</ele>
        <time>2021-04-07T06:54:30Z</time>
      </trkpt>
      <trkpt lat="44.50779" lon="6.59642">
        <ele>1877</ele>
        <time>2021-04-07T06:54:31Z</time>
      </trkpt>
      <trkpt lat="44.50778" lon="6.59641">
        <ele>1877</ele>
        <time>2021-04-07T06:54:32Z</time>
      </trkpt>
      <trkpt lat="44.50777" lon="6.59641">
        <ele>1878</ele>
        <time>2021-04-07T06:54:33Z</time>
      </trkpt>
      <trkpt lat="44.50777" lon="6.5964">
        <ele>1878</ele>
        <time>2021-04-07T06:54:34Z</time>
      </trkpt>
      <trkpt lat="44.50776" lon="6.5964">
        <ele>1878</ele>
        <time>2021-04-07T06:54:35Z</time>
      </trkpt>
      <trkpt lat="44.50776" lon="6.5964">
        <ele>1878</ele>
        <time>2021-04-07T06:54:36Z</time>
      </trkpt>
      <trkpt lat="44.50775" lon="6.5964">
        <ele>1878</ele>
        <time>2021-04-07T06:54:37Z</time>
      </trkpt>
      <trkpt lat="44.50775" lon="6.5964">
        <ele>1878</ele>
        <time>2021-04-07T06:54:38Z</time>
      </trkpt>
      <trkpt lat="44.50775" lon="6.59639">
        <ele>1879</ele>
        <time>2021-04-07T06:54:39Z</time>
      </trkpt>
      <trkpt lat="44.50775" lon="6.59639">
        <ele>1879</ele>
        <time>2021-04-07T06:54:40Z</time>
      </trkpt>
      <trkpt lat="44.50774" lon="6.59639">
        <ele>1879</ele>
        <time>2021-04-07T06:54:41Z</time>
      </trkpt>
      <trkpt lat="44.50773" lon="6.59639">
        <ele>1880</ele>
        <time>2021-04-07T06:54:42Z</time>
      </trkpt>
      <trkpt lat="44.50773" lon="6.59639">
        <ele>1880</ele>
        <time>2021-04-07T06:54:43Z</time>
      </trkpt>
      <trkpt lat="44.50772" lon="6.59639">
        <ele>1880</ele>
        <time>2021-04-07T06:54:44Z</time>
      </trkpt>
      <trkpt lat="44.50772" lon="6.59639">
        <ele>1880</ele>
        <time>2021-04-07T06:54:45Z</time>
      </trkpt>
      <trkpt lat="44.50771" lon="6.59639">
        <ele>1880</ele>
        <time>2021-04-07T06:54:46Z</time>
      </trkpt>
      <trkpt lat="44.50771" lon="6.59638">
        <ele>1880</ele>
        <time>2021-04-07T06:54:47Z</time>
      </trkpt>
      <trkpt lat="44.5077" lon="6.59638">
        <ele>1880</ele>
        <time>2021-04-07T06:54:48Z</time>
      </trkpt>
      <trkpt lat="44.5077" lon="6.59638">
        <ele>1880</ele>
        <time>2021-04-07T06:54:49Z</time>
      </trkpt>
      <trkpt lat="44.50769" lon="6.59637">
        <ele>1880</ele>
        <time>2021-04-07T06:54:50Z</time>
      </trkpt>
      <trkpt lat="44.50769" lon="6.59637">
        <ele>1880</ele>
        <time>2021-04-07T06:54:51Z</time>
      </trkpt>
      <trkpt lat="44.50768" lon="6.59636">
        <ele>1880</ele>
        <time>2021-04-07T06:54:52Z</time>
      </trkpt>
      <trkpt lat="44.50768" lon="6.59636">
        <ele>1881</ele>
        <time>2021-04-07T06:54:53Z</time>
      </trkpt>
      <trkpt lat="44.50767" lon="6.59635">
        <ele>1881</ele>
        <time>2021-04-07T06:54:54Z</time>
      </trkpt>
      <trkpt lat="44.50767" lon="6.59635">
        <ele>1881</ele>
        <time>2021-04-07T06:54:55Z</time>
      </trkpt>
      <trkpt lat="44.50766" lon="6.59634">
        <ele>1881</ele>
        <time>2021-04-07T06:54:56Z</time>
      </trkpt>
      <trkpt lat="44.50766" lon="6.59634">
        <ele>1881</ele>
        <time>2021-04-07T06:54:57Z</time>
      </trkpt>
      <trkpt lat="44.50766" lon="6.59633">
        <ele>1881</ele>
        <time>2021-04-07T06:54:58Z</time>
      </trkpt>
      <trkpt lat="44.50765" lon="6.59633">
        <ele>1881</ele>
        <time>2021-04-07T06:54:59Z</time>
      </trkpt>
      <trkpt lat="44.50765" lon="6.59632">
        <ele>1882</ele>
        <time>2021-04-07T06:55:00Z</time>
      </trkpt>
      <trkpt lat="44.50765" lon="6.59631">
        <ele>1882</ele>
        <time>2021-04-07T06:55:01Z</time>
      </trkpt>
      <trkpt lat="44.50764" lon="6.5963">
        <ele>1882</ele>
        <time>2021-04-07T06:55:02Z</time>
      </trkpt>
      <trkpt lat="44.50764" lon="6.59629">
        <ele>1882</ele>
        <time>2021-04-07T06:55:03Z</time>
      </trkpt>
      <trkpt lat="44.50763" lon="6.59629">
        <ele>1882</ele>
        <time>2021-04-07T06:55:04Z</time>
      </trkpt>
      <trkpt lat="44.50763" lon="6.59628">
        <ele>1883</ele>
        <time>2021-04-07T06:55:05Z</time>
      </trkpt>
      <trkpt lat="44.50763" lon="6.59628">
        <ele>1883</ele>
        <time>2021-04-07T06:55:06Z</time>
      </trkpt>
      <trkpt lat="44.50762" lon="6.59627">
        <ele>1883</ele>
        <time>2021-04-07T06:55:07Z</time>
      </trkpt>
      <trkpt lat="44.50762" lon="6.59627">
        <ele>1883</ele>
        <time>2021-04-07T06:55:08Z</time>
      </trkpt>
      <trkpt lat="44.50762" lon="6.59626">
        <ele>1884</ele>
        <time>2021-04-07T06:55:09Z</time>
      </trkpt>
      <trkpt lat="44.50762" lon="6.59626">
        <ele>1884</ele>
        <time>2021-04-07T06:55:10Z</time>
      </trkpt>
      <trkpt lat="44.50761" lon="6.59625">
        <ele>1884</ele>
        <time>2021-04-07T06:55:11Z</time>
      </trkpt>
      <trkpt lat="44.50761" lon="6.59625">
        <ele>1884</ele>
        <time>2021-04-07T06:55:12Z</time>
      </trkpt>
      <trkpt lat="44.50761" lon="6.59625">
        <ele>1885</ele>
        <time>2021-04-07T06:55:13Z</time>
      </trkpt>
      <trkpt lat="44.50761" lon="6.59626">
        <ele>1885</ele>
        <time>2021-04-07T06:55:14Z</time>
      </trkpt>
      <trkpt lat="44.50761" lon="6.59626">
        <ele>1885</ele>
        <time>2021-04-07T06:55:15Z</time>
      </trkpt>
      <trkpt lat="44.5076" lon="6.59625">
        <ele>1885</ele>
        <time>2021-04-07T06:55:16Z</time>
      </trkpt>
      <trkpt lat="44.5076" lon="6.59625">
        <ele>1885</ele>
        <time>2021-04-07T06:55:17Z</time>
      </trkpt>
      <trkpt lat="44.5076" lon="6.59625">
        <ele>1885</ele>
        <time>2021-04-07T06:55:18Z</time>
      </trkpt>
      <trkpt lat="44.5076" lon="6.59624">
        <ele>1886</ele>
        <time>2021-04-07T06:55:19Z</time>
      </trkpt>
      <trkpt lat="44.5076" lon="6.59624">
        <ele>1886</ele>
        <time>2021-04-07T06:55:20Z</time>
      </trkpt>
      <trkpt lat="44.5076" lon="6.59624">
        <ele>1886</ele>
        <time>2021-04-07T06:55:21Z</time>
      </trkpt>
      <trkpt lat="44.5076" lon="6.59624">
        <ele>1886</ele>
        <time>2021-04-07T06:55:22Z</time>
      </trkpt>
      <trkpt lat="44.5076" lon="6.59624">
        <ele>1886</ele>
        <time>2021-04-07T06:55:23Z</time>
      </trkpt>
      <trkpt lat="44.5076" lon="6.59624">
        <ele>1886</ele>
        <time>2021-04-07T06:55:24Z</time>
      </trkpt>
      <trkpt lat="44.5076" lon="6.59624">
        <ele>1886</ele>
        <time>2021-04-07T06:55:25Z</time>
      </trkpt>
      <trkpt lat="44.5076" lon="6.59624">
        <ele>1886</ele>
        <time>2021-04-07T06:55:26Z</time>
      </trkpt>
      <trkpt lat="44.5076" lon="6.59624">
        <ele>1886</ele>
        <time>2021-04-07T06:55:27Z</time>
      </trkpt>
      <trkpt lat="44.5076" lon="6.59624">
        <ele>1886</ele>
        <time>2021-04-07T06:55:28Z</time>
      </trkpt>
      <trkpt lat="44.5076" lon="6.59624">
        <ele>1886</ele>
        <time>2021-04-07T06:55:29Z</time>
      </trkpt>
      <trkpt lat="44.5076" lon="6.59624">
        <ele>1886</ele>
        <time>2021-04-07T06:55:30Z</time>
      </trkpt>
      <trkpt lat="44.5076" lon="6.59624">
        <ele>1886</ele>
        <time>2021-04-07T06:55:31Z</time>
      </trkpt>
      <trkpt lat="44.5076" lon="6.59624">
        <ele>1886</ele>
        <time>2021-04-07T06:55:32Z</time>
      </trkpt>
      <trkpt lat="44.5076" lon="6.59624">
        <ele>1886</ele>
        <time>2021-04-07T06:55:33Z</time>
      </trkpt>
      <trkpt lat="44.5076" lon="6.59624">
        <ele>1886</ele>
        <time>2021-04-07T06:55:34Z</time>
      </trkpt>
      <trkpt lat="44.5076" lon="6.59624">
        <ele>1886</ele>
        <time>2021-04-07T06:55:35Z</time>
      </trkpt>
      <trkpt lat="44.5076" lon="6.59624">
        <ele>1886</ele>
        <time>2021-04-07T06:55:36Z</time>
      </trkpt>
      <trkpt lat="44.5076" lon="6.59624">
        <ele>1886</ele>
        <time>2021-04-07T06:55:37Z</time>
      </trkpt>
      <trkpt lat="44.5076" lon="6.59624">
        <ele>1886</ele>
        <time>2021-04-07T06:55:38Z</time>
      </trkpt>
      <trkpt lat="44.5076" lon="6.59624">
        <ele>1886</ele>
        <time>2021-04-07T06:55:39Z</time>
      </trkpt>
      <trkpt lat="44.5076" lon="6.59624">
        <ele>1886</ele>
        <time>2021-04-07T06:55:40Z</time>
      </trkpt>
      <trkpt lat="44.5076" lon="6.59624">
        <ele>1886</ele>
        <time>2021-04-07T06:55:41Z</time>
      </trkpt>
      <trkpt lat="44.5076" lon="6.59624">
        <ele>1886</ele>
        <time>2021-04-07T06:55:42Z</time>
      </trkpt>
      <trkpt lat="44.5076" lon="6.59624">
        <ele>1886</ele>
        <time>2021-04-07T06:55:43Z</time>
      </trkpt>
      <trkpt lat="44.5076" lon="6.59624">
        <ele>1886</ele>
        <time>2021-04-07T06:55:44Z</time>
      </trkpt>
      <trkpt lat="44.5076" lon="6.59624">
        <ele>1886</ele>
        <time>2021-04-07T06:55:45Z</time>
      </trkpt>
      <trkpt lat="44.5076" lon="6.59624">
        <ele>1886</ele>
        <time>2021-04-07T06:55:46Z</time>
      </trkpt>
      <trkpt lat="44.5076" lon="6.59624">
        <ele>1886</ele>
        <time>2021-04-07T06:55:47Z</time>
      </trkpt>
      <trkpt lat="44.5076" lon="6.59624">
        <ele>1886</ele>
        <time>2021-04-07T06:55:48Z</time>
      </trkpt>
      <trkpt lat="44.50757" lon="6.5962">
        <ele>1887</ele>
        <time>2021-04-07T06:55:49Z</time>
      </trkpt>
      <trkpt lat="44.50757" lon="6.5962">
        <ele>1887</ele>
        <time>2021-04-07T06:55:50Z</time>
      </trkpt>
      <trkpt lat="44.50757" lon="6.5962">
        <ele>1887</ele>
        <time>2021-04-07T06:55:51Z</time>
      </trkpt>
      <trkpt lat="44.50756" lon="6.5962">
        <ele>1887</ele>
        <time>2021-04-07T06:55:52Z</time>
      </trkpt>
      <trkpt lat="44.50756" lon="6.5962">
        <ele>1887</ele>
        <time>2021-04-07T06:55:53Z</time>
      </trkpt>
      <trkpt lat="44.50755" lon="6.5962">
        <ele>1887</ele>
        <time>2021-04-07T06:55:54Z</time>
      </trkpt>
      <trkpt lat="44.50754" lon="6.59619">
        <ele>1888</ele>
        <time>2021-04-07T06:55:55Z</time>
      </trkpt>
      <trkpt lat="44.50754" lon="6.59619">
        <ele>1888</ele>
        <time>2021-04-07T06:55:56Z</time>
      </trkpt>
      <trkpt lat="44.50753" lon="6.59618">
        <ele>1888</ele>
        <time>2021-04-07T06:55:57Z</time>
      </trkpt>
      <trkpt lat="44.50752" lon="6.59617">
        <ele>1888</ele>
        <time>2021-04-07T06:55:58Z</time>
      </trkpt>
      <trkpt lat="44.50752" lon="6.59617">
        <ele>1888</ele>
        <time>2021-04-07T06:55:59Z</time>
      </trkpt>
      <trkpt lat="44.50751" lon="6.59616">
        <ele>1888</ele>
        <time>2021-04-07T06:56:00Z</time>
      </trkpt>
      <trkpt lat="44.5075" lon="6.59615">
        <ele>1889</ele>
        <time>2021-04-07T06:56:01Z</time>
      </trkpt>
      <trkpt lat="44.5075" lon="6.59615">
        <ele>1889</ele>
        <time>2021-04-07T06:56:02Z</time>
      </trkpt>
      <trkpt lat="44.50749" lon="6.59616">
        <ele>1889</ele>
        <time>2021-04-07T06:56:03Z</time>
      </trkpt>
      <trkpt lat="44.50749" lon="6.59616">
        <ele>1889</ele>
        <time>2021-04-07T06:56:04Z</time>
      </trkpt>
      <trkpt lat="44.50748" lon="6.59615">
        <ele>1889</ele>
        <time>2021-04-07T06:56:05Z</time>
      </trkpt>
      <trkpt lat="44.50747" lon="6.59615">
        <ele>1889</ele>
        <time>2021-04-07T06:56:06Z</time>
      </trkpt>
      <trkpt lat="44.50746" lon="6.59615">
        <ele>1889</ele>
        <time>2021-04-07T06:56:07Z</time>
      </trkpt>
      <trkpt lat="44.50745" lon="6.59615">
        <ele>1889</ele>
        <time>2021-04-07T06:56:08Z</time>
      </trkpt>
      <trkpt lat="44.50744" lon="6.59615">
        <ele>1889</ele>
        <time>2021-04-07T06:56:09Z</time>
      </trkpt>
      <trkpt lat="44.50743" lon="6.59614">
        <ele>1889</ele>
        <time>2021-04-07T06:56:10Z</time>
      </trkpt>
      <trkpt lat="44.50743" lon="6.59614">
        <ele>1889</ele>
        <time>2021-04-07T06:56:11Z</time>
      </trkpt>
      <trkpt lat="44.50742" lon="6.59614">
        <ele>1889</ele>
        <time>2021-04-07T06:56:12Z</time>
      </trkpt>
      <trkpt lat="44.50741" lon="6.59613">
        <ele>1889</ele>
        <time>2021-04-07T06:56:13Z</time>
      </trkpt>
      <trkpt lat="44.50741" lon="6.59613">
        <ele>1889</ele>
        <time>2021-04-07T06:56:14Z</time>
      </trkpt>
      <trkpt lat="44.5074" lon="6.59612">
        <ele>1889</ele>
        <time>2021-04-07T06:56:15Z</time>
      </trkpt>
      <trkpt lat="44.5074" lon="6.59611">
        <ele>1889</ele>
        <time>2021-04-07T06:56:16Z</time>
      </trkpt>
      <trkpt lat="44.50739" lon="6.59611">
        <ele>1889</ele>
        <time>2021-04-07T06:56:17Z</time>
      </trkpt>
      <trkpt lat="44.50739" lon="6.5961">
        <ele>1889</ele>
        <time>2021-04-07T06:56:18Z</time>
      </trkpt>
      <trkpt lat="44.50738" lon="6.59609">
        <ele>1889</ele>
        <time>2021-04-07T06:56:19Z</time>
      </trkpt>
      <trkpt lat="44.50737" lon="6.59607">
        <ele>1889</ele>
        <time>2021-04-07T06:56:20Z</time>
      </trkpt>
      <trkpt lat="44.50737" lon="6.59606">
        <ele>1889</ele>
        <time>2021-04-07T06:56:21Z</time>
      </trkpt>
      <trkpt lat="44.50737" lon="6.59606">
        <ele>1889</ele>
        <time>2021-04-07T06:56:22Z</time>
      </trkpt>
      <trkpt lat="44.50737" lon="6.59605">
        <ele>1890</ele>
        <time>2021-04-07T06:56:23Z</time>
      </trkpt>
      <trkpt lat="44.50736" lon="6.59605">
        <ele>1890</ele>
        <time>2021-04-07T06:56:24Z</time>
      </trkpt>
      <trkpt lat="44.50736" lon="6.59604">
        <ele>1890</ele>
        <time>2021-04-07T06:56:25Z</time>
      </trkpt>
      <trkpt lat="44.50736" lon="6.59603">
        <ele>1890</ele>
        <time>2021-04-07T06:56:26Z</time>
      </trkpt>
      <trkpt lat="44.50736" lon="6.59603">
        <ele>1890</ele>
        <time>2021-04-07T06:56:27Z</time>
      </trkpt>
      <trkpt lat="44.50736" lon="6.59602">
        <ele>1890</ele>
        <time>2021-04-07T06:56:28Z</time>
      </trkpt>
      <trkpt lat="44.50735" lon="6.59601">
        <ele>1890</ele>
        <time>2021-04-07T06:56:29Z</time>
      </trkpt>
      <trkpt lat="44.50735" lon="6.59601">
        <ele>1890</ele>
        <time>2021-04-07T06:56:30Z</time>
      </trkpt>
      <trkpt lat="44.50735" lon="6.596">
        <ele>1890</ele>
        <time>2021-04-07T06:56:31Z</time>
      </trkpt>
      <trkpt lat="44.50734" lon="6.59599">
        <ele>1890</ele>
        <time>2021-04-07T06:56:32Z</time>
      </trkpt>
      <trkpt lat="44.50734" lon="6.59599">
        <ele>1890</ele>
        <time>2021-04-07T06:56:33Z</time>
      </trkpt>
      <trkpt lat="44.50734" lon="6.59599">
        <ele>1890</ele>
        <time>2021-04-07T06:56:34Z</time>
      </trkpt>
      <trkpt lat="44.50733" lon="6.59598">
        <ele>1890</ele>
        <time>2021-04-07T06:56:35Z</time>
      </trkpt>
      <trkpt lat="44.50733" lon="6.59598">
        <ele>1890</ele>
        <time>2021-04-07T06:56:36Z</time>
      </trkpt>
      <trkpt lat="44.50732" lon="6.59598">
        <ele>1890</ele>
        <time>2021-04-07T06:56:37Z</time>
      </trkpt>
      <trkpt lat="44.50731" lon="6.59598">
        <ele>1890</ele>
        <time>2021-04-07T06:56:38Z</time>
      </trkpt>
      <trkpt lat="44.5073" lon="6.59598">
        <ele>1890</ele>
        <time>2021-04-07T06:56:39Z</time>
      </trkpt>
      <trkpt lat="44.5073" lon="6.59599">
        <ele>1890</ele>
        <time>2021-04-07T06:56:40Z</time>
      </trkpt>
      <trkpt lat="44.50729" lon="6.59598">
        <ele>1890</ele>
        <time>2021-04-07T06:56:41Z</time>
      </trkpt>
      <trkpt lat="44.50728" lon="6.59598">
        <ele>1890</ele>
        <time>2021-04-07T06:56:42Z</time>
      </trkpt>
      <trkpt lat="44.50727" lon="6.59598">
        <ele>1890</ele>
        <time>2021-04-07T06:56:43Z</time>
      </trkpt>
      <trkpt lat="44.50727" lon="6.59597">
        <ele>1890</ele>
        <time>2021-04-07T06:56:44Z</time>
      </trkpt>
      <trkpt lat="44.50726" lon="6.59596">
        <ele>1890</ele>
        <time>2021-04-07T06:56:45Z</time>
      </trkpt>
      <trkpt lat="44.50726" lon="6.59596">
        <ele>1890</ele>
        <time>2021-04-07T06:56:46Z</time>
      </trkpt>
      <trkpt lat="44.50726" lon="6.59595">
        <ele>1890</ele>
        <time>2021-04-07T06:56:47Z</time>
      </trkpt>
      <trkpt lat="44.50725" lon="6.59595">
        <ele>1890</ele>
        <time>2021-04-07T06:56:48Z</time>
      </trkpt>
      <trkpt lat="44.50725" lon="6.59594">
        <ele>1890</ele>
        <time>2021-04-07T06:56:49Z</time>
      </trkpt>
      <trkpt lat="44.50725" lon="6.59592">
        <ele>1890</ele>
        <time>2021-04-07T06:56:50Z</time>
      </trkpt>
      <trkpt lat="44.50724" lon="6.59592">
        <ele>1890</ele>
        <time>2021-04-07T06:56:51Z</time>
      </trkpt>
      <trkpt lat="44.50724" lon="6.5959">
        <ele>1891</ele>
        <time>2021-04-07T06:56:52Z</time>
      </trkpt>
      <trkpt lat="44.50724" lon="6.5959">
        <ele>1891</ele>
        <time>2021-04-07T06:56:53Z</time>
      </trkpt>
      <trkpt lat="44.50723" lon="6.5959">
        <ele>1891</ele>
        <time>2021-04-07T06:56:54Z</time>
      </trkpt>
      <trkpt lat="44.50723" lon="6.59589">
        <ele>1891</ele>
        <time>2021-04-07T06:56:55Z</time>
      </trkpt>
      <trkpt lat="44.50722" lon="6.59589">
        <ele>1891</ele>
        <time>2021-04-07T06:56:56Z</time>
      </trkpt>
      <trkpt lat="44.50721" lon="6.59589">
        <ele>1891</ele>
        <time>2021-04-07T06:56:57Z</time>
      </trkpt>
      <trkpt lat="44.50721" lon="6.59589">
        <ele>1891</ele>
        <time>2021-04-07T06:56:58Z</time>
      </trkpt>
      <trkpt lat="44.50721" lon="6.59589">
        <ele>1891</ele>
        <time>2021-04-07T06:56:59Z</time>
      </trkpt>
      <trkpt lat="44.5072" lon="6.59589">
        <ele>1891</ele>
        <time>2021-04-07T06:57:00Z</time>
      </trkpt>
      <trkpt lat="44.50719" lon="6.59589">
        <ele>1891</ele>
        <time>2021-04-07T06:57:01Z</time>
      </trkpt>
      <trkpt lat="44.50718" lon="6.59588">
        <ele>1890</ele>
        <time>2021-04-07T06:57:02Z</time>
      </trkpt>
      <trkpt lat="44.50718" lon="6.59587">
        <ele>1890</ele>
        <time>2021-04-07T06:57:03Z</time>
      </trkpt>
      <trkpt lat="44.50717" lon="6.59587">
        <ele>1891</ele>
        <time>2021-04-07T06:57:04Z</time>
      </trkpt>
      <trkpt lat="44.50717" lon="6.59586">
        <ele>1891</ele>
        <time>2021-04-07T06:57:05Z</time>
      </trkpt>
      <trkpt lat="44.50717" lon="6.59585">
        <ele>1891</ele>
        <time>2021-04-07T06:57:06Z</time>
      </trkpt>
      <trkpt lat="44.50716" lon="6.59585">
        <ele>1891</ele>
        <time>2021-04-07T06:57:07Z</time>
      </trkpt>
      <trkpt lat="44.50716" lon="6.59584">
        <ele>1891</ele>
        <time>2021-04-07T06:57:08Z</time>
      </trkpt>
      <trkpt lat="44.50716" lon="6.59583">
        <ele>1891</ele>
        <time>2021-04-07T06:57:09Z</time>
      </trkpt>
      <trkpt lat="44.50715" lon="6.59583">
        <ele>1891</ele>
        <time>2021-04-07T06:57:10Z</time>
      </trkpt>
      <trkpt lat="44.50715" lon="6.59583">
        <ele>1891</ele>
        <time>2021-04-07T06:57:11Z</time>
      </trkpt>
      <trkpt lat="44.50715" lon="6.59583">
        <ele>1891</ele>
        <time>2021-04-07T06:57:12Z</time>
      </trkpt>
      <trkpt lat="44.50715" lon="6.59583">
        <ele>1891</ele>
        <time>2021-04-07T06:57:13Z</time>
      </trkpt>
      <trkpt lat="44.50714" lon="6.59583">
        <ele>1891</ele>
        <time>2021-04-07T06:57:14Z</time>
      </trkpt>
      <trkpt lat="44.50714" lon="6.59583">
        <ele>1891</ele>
        <time>2021-04-07T06:57:15Z</time>
      </trkpt>
      <trkpt lat="44.50714" lon="6.59583">
        <ele>1891</ele>
        <time>2021-04-07T06:57:16Z</time>
      </trkpt>
      <trkpt lat="44.50714" lon="6.59583">
        <ele>1891</ele>
        <time>2021-04-07T06:57:17Z</time>
      </trkpt>
      <trkpt lat="44.50711" lon="6.59583">
        <ele>1891</ele>
        <time>2021-04-07T06:57:18Z</time>
      </trkpt>
      <trkpt lat="44.50711" lon="6.59583">
        <ele>1891</ele>
        <time>2021-04-07T06:57:19Z</time>
      </trkpt>
      <trkpt lat="44.5071" lon="6.59583">
        <ele>1891</ele>
        <time>2021-04-07T06:57:20Z</time>
      </trkpt>
      <trkpt lat="44.5071" lon="6.59583">
        <ele>1891</ele>
        <time>2021-04-07T06:57:21Z</time>
      </trkpt>
      <trkpt lat="44.50709" lon="6.59582">
        <ele>1891</ele>
        <time>2021-04-07T06:57:22Z</time>
      </trkpt>
      <trkpt lat="44.50709" lon="6.59582">
        <ele>1891</ele>
        <time>2021-04-07T06:57:23Z</time>
      </trkpt>
      <trkpt lat="44.50708" lon="6.59582">
        <ele>1891</ele>
        <time>2021-04-07T06:57:24Z</time>
      </trkpt>
      <trkpt lat="44.50707" lon="6.59582">
        <ele>1891</ele>
        <time>2021-04-07T06:57:25Z</time>
      </trkpt>
      <trkpt lat="44.50707" lon="6.59582">
        <ele>1891</ele>
        <time>2021-04-07T06:57:26Z</time>
      </trkpt>
      <trkpt lat="44.50706" lon="6.59582">
        <ele>1891</ele>
        <time>2021-04-07T06:57:27Z</time>
      </trkpt>
      <trkpt lat="44.50705" lon="6.59581">
        <ele>1891</ele>
        <time>2021-04-07T06:57:28Z</time>
      </trkpt>
      <trkpt lat="44.50705" lon="6.59581">
        <ele>1891</ele>
        <time>2021-04-07T06:57:29Z</time>
      </trkpt>
      <trkpt lat="44.50705" lon="6.59581">
        <ele>1891</ele>
        <time>2021-04-07T06:57:30Z</time>
      </trkpt>
      <trkpt lat="44.50704" lon="6.5958">
        <ele>1891</ele>
        <time>2021-04-07T06:57:31Z</time>
      </trkpt>
      <trkpt lat="44.50703" lon="6.5958">
        <ele>1891</ele>
        <time>2021-04-07T06:57:32Z</time>
      </trkpt>
      <trkpt lat="44.50703" lon="6.59579">
        <ele>1891</ele>
        <time>2021-04-07T06:57:33Z</time>
      </trkpt>
      <trkpt lat="44.50702" lon="6.59578">
        <ele>1891</ele>
        <time>2021-04-07T06:57:34Z</time>
      </trkpt>
      <trkpt lat="44.50702" lon="6.59577">
        <ele>1891</ele>
        <time>2021-04-07T06:57:35Z</time>
      </trkpt>
      <trkpt lat="44.50702" lon="6.59577">
        <ele>1892</ele>
        <time>2021-04-07T06:57:36Z</time>
      </trkpt>
      <trkpt lat="44.50701" lon="6.59577">
        <ele>1892</ele>
        <time>2021-04-07T06:57:37Z</time>
      </trkpt>
      <trkpt lat="44.50702" lon="6.59577">
        <ele>1892</ele>
        <time>2021-04-07T06:57:38Z</time>
      </trkpt>
      <trkpt lat="44.50702" lon="6.59577">
        <ele>1892</ele>
        <time>2021-04-07T06:57:39Z</time>
      </trkpt>
      <trkpt lat="44.50702" lon="6.59576">
        <ele>1892</ele>
        <time>2021-04-07T06:57:40Z</time>
      </trkpt>
      <trkpt lat="44.50701" lon="6.59577">
        <ele>1892</ele>
        <time>2021-04-07T06:57:41Z</time>
      </trkpt>
      <trkpt lat="44.50701" lon="6.59576">
        <ele>1892</ele>
        <time>2021-04-07T06:57:42Z</time>
      </trkpt>
      <trkpt lat="44.507" lon="6.59576">
        <ele>1892</ele>
        <time>2021-04-07T06:57:43Z</time>
      </trkpt>
      <trkpt lat="44.507" lon="6.59576">
        <ele>1892</ele>
        <time>2021-04-07T06:57:44Z</time>
      </trkpt>
      <trkpt lat="44.507" lon="6.59576">
        <ele>1893</ele>
        <time>2021-04-07T06:57:45Z</time>
      </trkpt>
      <trkpt lat="44.507" lon="6.59576">
        <ele>1893</ele>
        <time>2021-04-07T06:57:46Z</time>
      </trkpt>
      <trkpt lat="44.507" lon="6.59576">
        <ele>1893</ele>
        <time>2021-04-07T06:57:47Z</time>
      </trkpt>
      <trkpt lat="44.50696" lon="6.59573">
        <ele>1893</ele>
        <time>2021-04-07T06:57:48Z</time>
      </trkpt>
      <trkpt lat="44.50696" lon="6.59571">
        <ele>1893</ele>
        <time>2021-04-07T06:57:49Z</time>
      </trkpt>
      <trkpt lat="44.50696" lon="6.59571">
        <ele>1893</ele>
        <time>2021-04-07T06:57:50Z</time>
      </trkpt>
      <trkpt lat="44.50696" lon="6.5957">
        <ele>1894</ele>
        <time>2021-04-07T06:57:51Z</time>
      </trkpt>
      <trkpt lat="44.50695" lon="6.59569">
        <ele>1894</ele>
        <time>2021-04-07T06:57:52Z</time>
      </trkpt>
      <trkpt lat="44.50695" lon="6.59568">
        <ele>1894</ele>
        <time>2021-04-07T06:57:53Z</time>
      </trkpt>
      <trkpt lat="44.50695" lon="6.59567">
        <ele>1894</ele>
        <time>2021-04-07T06:57:54Z</time>
      </trkpt>
      <trkpt lat="44.50696" lon="6.59567">
        <ele>1895</ele>
        <time>2021-04-07T06:57:55Z</time>
      </trkpt>
      <trkpt lat="44.50695" lon="6.59566">
        <ele>1895</ele>
        <time>2021-04-07T06:57:56Z</time>
      </trkpt>
      <trkpt lat="44.50695" lon="6.59565">
        <ele>1895</ele>
        <time>2021-04-07T06:57:57Z</time>
      </trkpt>
      <trkpt lat="44.50695" lon="6.59565">
        <ele>1895</ele>
        <time>2021-04-07T06:57:58Z</time>
      </trkpt>
      <trkpt lat="44.50695" lon="6.59564">
        <ele>1895</ele>
        <time>2021-04-07T06:57:59Z</time>
      </trkpt>
      <trkpt lat="44.50695" lon="6.59564">
        <ele>1896</ele>
        <time>2021-04-07T06:58:00Z</time>
      </trkpt>
      <trkpt lat="44.50695" lon="6.59563">
        <ele>1896</ele>
        <time>2021-04-07T06:58:01Z</time>
      </trkpt>
      <trkpt lat="44.50695" lon="6.59562">
        <ele>1896</ele>
        <time>2021-04-07T06:58:02Z</time>
      </trkpt>
      <trkpt lat="44.50695" lon="6.59562">
        <ele>1897</ele>
        <time>2021-04-07T06:58:03Z</time>
      </trkpt>
      <trkpt lat="44.50695" lon="6.59561">
        <ele>1897</ele>
        <time>2021-04-07T06:58:04Z</time>
      </trkpt>
      <trkpt lat="44.50695" lon="6.5956">
        <ele>1897</ele>
        <time>2021-04-07T06:58:05Z</time>
      </trkpt>
      <trkpt lat="44.50695" lon="6.59559">
        <ele>1897</ele>
        <time>2021-04-07T06:58:06Z</time>
      </trkpt>
      <trkpt lat="44.50695" lon="6.59559">
        <ele>1898</ele>
        <time>2021-04-07T06:58:07Z</time>
      </trkpt>
      <trkpt lat="44.50695" lon="6.59557">
        <ele>1898</ele>
        <time>2021-04-07T06:58:08Z</time>
      </trkpt>
      <trkpt lat="44.50695" lon="6.59557">
        <ele>1898</ele>
        <time>2021-04-07T06:58:09Z</time>
      </trkpt>
      <trkpt lat="44.50694" lon="6.59557">
        <ele>1898</ele>
        <time>2021-04-07T06:58:10Z</time>
      </trkpt>
      <trkpt lat="44.50693" lon="6.59558">
        <ele>1898</ele>
        <time>2021-04-07T06:58:11Z</time>
      </trkpt>
      <trkpt lat="44.50692" lon="6.59558">
        <ele>1898</ele>
        <time>2021-04-07T06:58:12Z</time>
      </trkpt>
      <trkpt lat="44.50691" lon="6.59558">
        <ele>1899</ele>
        <time>2021-04-07T06:58:13Z</time>
      </trkpt>
      <trkpt lat="44.50691" lon="6.59558">
        <ele>1899</ele>
        <time>2021-04-07T06:58:14Z</time>
      </trkpt>
      <trkpt lat="44.5069" lon="6.59558">
        <ele>1899</ele>
        <time>2021-04-07T06:58:15Z</time>
      </trkpt>
      <trkpt lat="44.5069" lon="6.59558">
        <ele>1899</ele>
        <time>2021-04-07T06:58:16Z</time>
      </trkpt>
      <trkpt lat="44.50689" lon="6.59558">
        <ele>1899</ele>
        <time>2021-04-07T06:58:17Z</time>
      </trkpt>
      <trkpt lat="44.50689" lon="6.59558">
        <ele>1900</ele>
        <time>2021-04-07T06:58:18Z</time>
      </trkpt>
      <trkpt lat="44.50689" lon="6.59558">
        <ele>1900</ele>
        <time>2021-04-07T06:58:19Z</time>
      </trkpt>
      <trkpt lat="44.50688" lon="6.59558">
        <ele>1900</ele>
        <time>2021-04-07T06:58:20Z</time>
      </trkpt>
      <trkpt lat="44.50688" lon="6.59558">
        <ele>1901</ele>
        <time>2021-04-07T06:58:21Z</time>
      </trkpt>
      <trkpt lat="44.50687" lon="6.59558">
        <ele>1901</ele>
        <time>2021-04-07T06:58:22Z</time>
      </trkpt>
      <trkpt lat="44.50686" lon="6.59558">
        <ele>1901</ele>
        <time>2021-04-07T06:58:23Z</time>
      </trkpt>
      <trkpt lat="44.50686" lon="6.59557">
        <ele>1901</ele>
        <time>2021-04-07T06:58:24Z</time>
      </trkpt>
      <trkpt lat="44.50686" lon="6.59557">
        <ele>1902</ele>
        <time>2021-04-07T06:58:25Z</time>
      </trkpt>
      <trkpt lat="44.50686" lon="6.59557">
        <ele>1902</ele>
        <time>2021-04-07T06:58:26Z</time>
      </trkpt>
      <trkpt lat="44.50686" lon="6.59557">
        <ele>1902</ele>
        <time>2021-04-07T06:58:27Z</time>
      </trkpt>
      <trkpt lat="44.50686" lon="6.59557">
        <ele>1902</ele>
        <time>2021-04-07T06:58:28Z</time>
      </trkpt>
      <trkpt lat="44.50686" lon="6.59557">
        <ele>1902</ele>
        <time>2021-04-07T06:58:29Z</time>
      </trkpt>
      <trkpt lat="44.50686" lon="6.59557">
        <ele>1902</ele>
        <time>2021-04-07T06:58:30Z</time>
      </trkpt>
      <trkpt lat="44.50686" lon="6.59557">
        <ele>1902</ele>
        <time>2021-04-07T06:58:31Z</time>
      </trkpt>
      <trkpt lat="44.50686" lon="6.59557">
        <ele>1902</ele>
        <time>2021-04-07T06:58:32Z</time>
      </trkpt>
      <trkpt lat="44.50686" lon="6.59557">
        <ele>1902</ele>
        <time>2021-04-07T06:58:33Z</time>
      </trkpt>
      <trkpt lat="44.50686" lon="6.59557">
        <ele>1902</ele>
        <time>2021-04-07T06:58:34Z</time>
      </trkpt>
      <trkpt lat="44.50686" lon="6.59557">
        <ele>1902</ele>
        <time>2021-04-07T06:58:35Z</time>
      </trkpt>
      <trkpt lat="44.50686" lon="6.59557">
        <ele>1902</ele>
        <time>2021-04-07T06:58:36Z</time>
      </trkpt>
      <trkpt lat="44.50686" lon="6.59557">
        <ele>1902</ele>
        <time>2021-04-07T06:58:37Z</time>
      </trkpt>
      <trkpt lat="44.50686" lon="6.59557">
        <ele>1902</ele>
        <time>2021-04-07T06:58:38Z</time>
      </trkpt>
      <trkpt lat="44.50686" lon="6.59557">
        <ele>1902</ele>
        <time>2021-04-07T06:58:39Z</time>
      </trkpt>
      <trkpt lat="44.50686" lon="6.59556">
        <ele>1903</ele>
        <time>2021-04-07T06:58:40Z</time>
      </trkpt>
      <trkpt lat="44.50685" lon="6.59556">
        <ele>1903</ele>
        <time>2021-04-07T06:58:41Z</time>
      </trkpt>
      <trkpt lat="44.50685" lon="6.59556">
        <ele>1903</ele>
        <time>2021-04-07T06:58:42Z</time>
      </trkpt>
      <trkpt lat="44.50684" lon="6.59556">
        <ele>1904</ele>
        <time>2021-04-07T06:58:43Z</time>
      </trkpt>
      <trkpt lat="44.50683" lon="6.59556">
        <ele>1904</ele>
        <time>2021-04-07T06:58:44Z</time>
      </trkpt>
      <trkpt lat="44.50683" lon="6.59556">
        <ele>1904</ele>
        <time>2021-04-07T06:58:45Z</time>
      </trkpt>
      <trkpt lat="44.50682" lon="6.59556">
        <ele>1904</ele>
        <time>2021-04-07T06:58:46Z</time>
      </trkpt>
      <trkpt lat="44.50681" lon="6.59556">
        <ele>1904</ele>
        <time>2021-04-07T06:58:47Z</time>
      </trkpt>
      <trkpt lat="44.5068" lon="6.59556">
        <ele>1904</ele>
        <time>2021-04-07T06:58:48Z</time>
      </trkpt>
      <trkpt lat="44.5068" lon="6.59555">
        <ele>1904</ele>
        <time>2021-04-07T06:58:49Z</time>
      </trkpt>
      <trkpt lat="44.50679" lon="6.59555">
        <ele>1904</ele>
        <time>2021-04-07T06:58:50Z</time>
      </trkpt>
      <trkpt lat="44.50678" lon="6.59555">
        <ele>1904</ele>
        <time>2021-04-07T06:58:51Z</time>
      </trkpt>
      <trkpt lat="44.50678" lon="6.59555">
        <ele>1905</ele>
        <time>2021-04-07T06:58:52Z</time>
      </trkpt>
      <trkpt lat="44.50677" lon="6.59555">
        <ele>1905</ele>
        <time>2021-04-07T06:58:53Z</time>
      </trkpt>
      <trkpt lat="44.50677" lon="6.59555">
        <ele>1905</ele>
        <time>2021-04-07T06:58:54Z</time>
      </trkpt>
      <trkpt lat="44.50676" lon="6.59555">
        <ele>1905</ele>
        <time>2021-04-07T06:58:55Z</time>
      </trkpt>
      <trkpt lat="44.50676" lon="6.59555">
        <ele>1905</ele>
        <time>2021-04-07T06:58:56Z</time>
      </trkpt>
      <trkpt lat="44.50675" lon="6.59555">
        <ele>1905</ele>
        <time>2021-04-07T06:58:57Z</time>
      </trkpt>
      <trkpt lat="44.50674" lon="6.59555">
        <ele>1905</ele>
        <time>2021-04-07T06:58:58Z</time>
      </trkpt>
      <trkpt lat="44.50673" lon="6.59554">
        <ele>1905</ele>
        <time>2021-04-07T06:58:59Z</time>
      </trkpt>
      <trkpt lat="44.50673" lon="6.59554">
        <ele>1905</ele>
        <time>2021-04-07T06:59:00Z</time>
      </trkpt>
      <trkpt lat="44.50672" lon="6.59553">
        <ele>1905</ele>
        <time>2021-04-07T06:59:01Z</time>
      </trkpt>
      <trkpt lat="44.50672" lon="6.59552">
        <ele>1905</ele>
        <time>2021-04-07T06:59:02Z</time>
      </trkpt>
      <trkpt lat="44.50673" lon="6.59552">
        <ele>1905</ele>
        <time>2021-04-07T06:59:03Z</time>
      </trkpt>
      <trkpt lat="44.50673" lon="6.59552">
        <ele>1905</ele>
        <time>2021-04-07T06:59:04Z</time>
      </trkpt>
      <trkpt lat="44.50672" lon="6.59551">
        <ele>1905</ele>
        <time>2021-04-07T06:59:05Z</time>
      </trkpt>
      <trkpt lat="44.50672" lon="6.59551">
        <ele>1905</ele>
        <time>2021-04-07T06:59:06Z</time>
      </trkpt>
      <trkpt lat="44.50672" lon="6.59551">
        <ele>1906</ele>
        <time>2021-04-07T06:59:07Z</time>
      </trkpt>
      <trkpt lat="44.50671" lon="6.59551">
        <ele>1906</ele>
        <time>2021-04-07T06:59:08Z</time>
      </trkpt>
      <trkpt lat="44.50671" lon="6.59551">
        <ele>1906</ele>
        <time>2021-04-07T06:59:09Z</time>
      </trkpt>
      <trkpt lat="44.5067" lon="6.5955">
        <ele>1906</ele>
        <time>2021-04-07T06:59:10Z</time>
      </trkpt>
      <trkpt lat="44.5067" lon="6.5955">
        <ele>1906</ele>
        <time>2021-04-07T06:59:11Z</time>
      </trkpt>
      <trkpt lat="44.5067" lon="6.5955">
        <ele>1906</ele>
        <time>2021-04-07T06:59:12Z</time>
      </trkpt>
      <trkpt lat="44.50669" lon="6.59549">
        <ele>1906</ele>
        <time>2021-04-07T06:59:13Z</time>
      </trkpt>
      <trkpt lat="44.50669" lon="6.59549">
        <ele>1906</ele>
        <time>2021-04-07T06:59:14Z</time>
      </trkpt>
      <trkpt lat="44.50668" lon="6.59548">
        <ele>1906</ele>
        <time>2021-04-07T06:59:15Z</time>
      </trkpt>
      <trkpt lat="44.50668" lon="6.59547">
        <ele>1907</ele>
        <time>2021-04-07T06:59:16Z</time>
      </trkpt>
      <trkpt lat="44.50667" lon="6.59546">
        <ele>1907</ele>
        <time>2021-04-07T06:59:17Z</time>
      </trkpt>
      <trkpt lat="44.50666" lon="6.59546">
        <ele>1907</ele>
        <time>2021-04-07T06:59:18Z</time>
      </trkpt>
      <trkpt lat="44.50666" lon="6.59545">
        <ele>1907</ele>
        <time>2021-04-07T06:59:19Z</time>
      </trkpt>
      <trkpt lat="44.50666" lon="6.59544">
        <ele>1908</ele>
        <time>2021-04-07T06:59:20Z</time>
      </trkpt>
      <trkpt lat="44.50665" lon="6.59544">
        <ele>1908</ele>
        <time>2021-04-07T06:59:21Z</time>
      </trkpt>
      <trkpt lat="44.50665" lon="6.59544">
        <ele>1908</ele>
        <time>2021-04-07T06:59:22Z</time>
      </trkpt>
      <trkpt lat="44.50665" lon="6.59543">
        <ele>1908</ele>
        <time>2021-04-07T06:59:23Z</time>
      </trkpt>
      <trkpt lat="44.50664" lon="6.59543">
        <ele>1908</ele>
        <time>2021-04-07T06:59:24Z</time>
      </trkpt>
      <trkpt lat="44.50664" lon="6.59542">
        <ele>1908</ele>
        <time>2021-04-07T06:59:25Z</time>
      </trkpt>
      <trkpt lat="44.50664" lon="6.59542">
        <ele>1909</ele>
        <time>2021-04-07T06:59:26Z</time>
      </trkpt>
      <trkpt lat="44.50664" lon="6.59541">
        <ele>1909</ele>
        <time>2021-04-07T06:59:27Z</time>
      </trkpt>
      <trkpt lat="44.50664" lon="6.5954">
        <ele>1909</ele>
        <time>2021-04-07T06:59:28Z</time>
      </trkpt>
      <trkpt lat="44.50663" lon="6.59539">
        <ele>1909</ele>
        <time>2021-04-07T06:59:29Z</time>
      </trkpt>
      <trkpt lat="44.50663" lon="6.59539">
        <ele>1909</ele>
        <time>2021-04-07T06:59:30Z</time>
      </trkpt>
      <trkpt lat="44.50664" lon="6.59538">
        <ele>1909</ele>
        <time>2021-04-07T06:59:31Z</time>
      </trkpt>
      <trkpt lat="44.50663" lon="6.59538">
        <ele>1909</ele>
        <time>2021-04-07T06:59:32Z</time>
      </trkpt>
      <trkpt lat="44.50663" lon="6.59537">
        <ele>1910</ele>
        <time>2021-04-07T06:59:33Z</time>
      </trkpt>
      <trkpt lat="44.50663" lon="6.59536">
        <ele>1910</ele>
        <time>2021-04-07T06:59:34Z</time>
      </trkpt>
      <trkpt lat="44.50663" lon="6.59535">
        <ele>1910</ele>
        <time>2021-04-07T06:59:35Z</time>
      </trkpt>
      <trkpt lat="44.50663" lon="6.59534">
        <ele>1910</ele>
        <time>2021-04-07T06:59:36Z</time>
      </trkpt>
      <trkpt lat="44.50663" lon="6.59534">
        <ele>1910</ele>
        <time>2021-04-07T06:59:37Z</time>
      </trkpt>
      <trkpt lat="44.50663" lon="6.59533">
        <ele>1911</ele>
        <time>2021-04-07T06:59:38Z</time>
      </trkpt>
      <trkpt lat="44.50663" lon="6.59533">
        <ele>1911</ele>
        <time>2021-04-07T06:59:39Z</time>
      </trkpt>
      <trkpt lat="44.50663" lon="6.59533">
        <ele>1911</ele>
        <time>2021-04-07T06:59:40Z</time>
      </trkpt>
      <trkpt lat="44.50663" lon="6.59533">
        <ele>1911</ele>
        <time>2021-04-07T06:59:41Z</time>
      </trkpt>
      <trkpt lat="44.50663" lon="6.59533">
        <ele>1911</ele>
        <time>2021-04-07T06:59:42Z</time>
      </trkpt>
      <trkpt lat="44.50664" lon="6.59532">
        <ele>1911</ele>
        <time>2021-04-07T06:59:43Z</time>
      </trkpt>
      <trkpt lat="44.50664" lon="6.59533">
        <ele>1911</ele>
        <time>2021-04-07T06:59:44Z</time>
      </trkpt>
      <trkpt lat="44.50664" lon="6.59533">
        <ele>1911</ele>
        <time>2021-04-07T06:59:45Z</time>
      </trkpt>
      <trkpt lat="44.50664" lon="6.59533">
        <ele>1911</ele>
        <time>2021-04-07T06:59:46Z</time>
      </trkpt>
      <trkpt lat="44.50664" lon="6.59533">
        <ele>1911</ele>
        <time>2021-04-07T06:59:47Z</time>
      </trkpt>
      <trkpt lat="44.50664" lon="6.59533">
        <ele>1911</ele>
        <time>2021-04-07T06:59:48Z</time>
      </trkpt>
      <trkpt lat="44.50664" lon="6.59533">
        <ele>1911</ele>
        <time>2021-04-07T06:59:49Z</time>
      </trkpt>
      <trkpt lat="44.50662" lon="6.59534">
        <ele>1911</ele>
        <time>2021-04-07T06:59:50Z</time>
      </trkpt>
      <trkpt lat="44.50662" lon="6.59534">
        <ele>1911</ele>
        <time>2021-04-07T06:59:51Z</time>
      </trkpt>
      <trkpt lat="44.50662" lon="6.59534">
        <ele>1911</ele>
        <time>2021-04-07T06:59:52Z</time>
      </trkpt>
      <trkpt lat="44.50662" lon="6.59534">
        <ele>1911</ele>
        <time>2021-04-07T06:59:53Z</time>
      </trkpt>
      <trkpt lat="44.50662" lon="6.59534">
        <ele>1912</ele>
        <time>2021-04-07T06:59:54Z</time>
      </trkpt>
      <trkpt lat="44.50662" lon="6.59534">
        <ele>1912</ele>
        <time>2021-04-07T06:59:55Z</time>
      </trkpt>
      <trkpt lat="44.50662" lon="6.59534">
        <ele>1912</ele>
        <time>2021-04-07T06:59:56Z</time>
      </trkpt>
      <trkpt lat="44.50662" lon="6.59534">
        <ele>1912</ele>
        <time>2021-04-07T06:59:57Z</time>
      </trkpt>
      <trkpt lat="44.50662" lon="6.59534">
        <ele>1912</ele>
        <time>2021-04-07T06:59:58Z</time>
      </trkpt>
      <trkpt lat="44.50662" lon="6.59536">
        <ele>1912</ele>
        <time>2021-04-07T06:59:59Z</time>
      </trkpt>
      <trkpt lat="44.50661" lon="6.59536">
        <ele>1912</ele>
        <time>2021-04-07T07:00:00Z</time>
      </trkpt>
      <trkpt lat="44.50661" lon="6.59537">
        <ele>1912</ele>
        <time>2021-04-07T07:00:01Z</time>
      </trkpt>
      <trkpt lat="44.50661" lon="6.59537">
        <ele>1912</ele>
        <time>2021-04-07T07:00:02Z</time>
      </trkpt>
      <trkpt lat="44.50661" lon="6.59538">
        <ele>1912</ele>
        <time>2021-04-07T07:00:03Z</time>
      </trkpt>
      <trkpt lat="44.50661" lon="6.59538">
        <ele>1912</ele>
        <time>2021-04-07T07:00:04Z</time>
      </trkpt>
      <trkpt lat="44.50661" lon="6.59538">
        <ele>1912</ele>
        <time>2021-04-07T07:00:05Z</time>
      </trkpt>
      <trkpt lat="44.50661" lon="6.59538">
        <ele>1912</ele>
        <time>2021-04-07T07:00:06Z</time>
      </trkpt>
      <trkpt lat="44.50661" lon="6.59538">
        <ele>1912</ele>
        <time>2021-04-07T07:00:07Z</time>
      </trkpt>
      <trkpt lat="44.50661" lon="6.59538">
        <ele>1914</ele>
        <time>2021-04-07T07:00:08Z</time>
      </trkpt>
      <trkpt lat="44.50661" lon="6.59538">
        <ele>1914</ele>
        <time>2021-04-07T07:00:09Z</time>
      </trkpt>
      <trkpt lat="44.50661" lon="6.59538">
        <ele>1914</ele>
        <time>2021-04-07T07:00:10Z</time>
      </trkpt>
      <trkpt lat="44.50661" lon="6.59538">
        <ele>1914</ele>
        <time>2021-04-07T07:00:11Z</time>
      </trkpt>
      <trkpt lat="44.50661" lon="6.59538">
        <ele>1915</ele>
        <time>2021-04-07T07:00:12Z</time>
      </trkpt>
      <trkpt lat="44.50661" lon="6.59538">
        <ele>1915</ele>
        <time>2021-04-07T07:00:13Z</time>
      </trkpt>
      <trkpt lat="44.50658" lon="6.59534">
        <ele>1915</ele>
        <time>2021-04-07T07:00:14Z</time>
      </trkpt>
      <trkpt lat="44.50658" lon="6.59533">
        <ele>1915</ele>
        <time>2021-04-07T07:00:15Z</time>
      </trkpt>
      <trkpt lat="44.50658" lon="6.59532">
        <ele>1915</ele>
        <time>2021-04-07T07:00:16Z</time>
      </trkpt>
      <trkpt lat="44.50657" lon="6.59531">
        <ele>1915</ele>
        <time>2021-04-07T07:00:17Z</time>
      </trkpt>
      <trkpt lat="44.50657" lon="6.59531">
        <ele>1915</ele>
        <time>2021-04-07T07:00:18Z</time>
      </trkpt>
      <trkpt lat="44.50656" lon="6.5953">
        <ele>1915</ele>
        <time>2021-04-07T07:00:19Z</time>
      </trkpt>
      <trkpt lat="44.50656" lon="6.5953">
        <ele>1915</ele>
        <time>2021-04-07T07:00:20Z</time>
      </trkpt>
      <trkpt lat="44.50655" lon="6.59529">
        <ele>1915</ele>
        <time>2021-04-07T07:00:21Z</time>
      </trkpt>
      <trkpt lat="44.50654" lon="6.59529">
        <ele>1915</ele>
        <time>2021-04-07T07:00:22Z</time>
      </trkpt>
      <trkpt lat="44.50654" lon="6.5953">
        <ele>1915</ele>
        <time>2021-04-07T07:00:23Z</time>
      </trkpt>
      <trkpt lat="44.50653" lon="6.5953">
        <ele>1915</ele>
        <time>2021-04-07T07:00:24Z</time>
      </trkpt>
      <trkpt lat="44.50653" lon="6.59531">
        <ele>1916</ele>
        <time>2021-04-07T07:00:25Z</time>
      </trkpt>
      <trkpt lat="44.50652" lon="6.59531">
        <ele>1916</ele>
        <time>2021-04-07T07:00:26Z</time>
      </trkpt>
      <trkpt lat="44.50652" lon="6.59531">
        <ele>1916</ele>
        <time>2021-04-07T07:00:27Z</time>
      </trkpt>
      <trkpt lat="44.50652" lon="6.59532">
        <ele>1916</ele>
        <time>2021-04-07T07:00:28Z</time>
      </trkpt>
      <trkpt lat="44.50651" lon="6.59532">
        <ele>1916</ele>
        <time>2021-04-07T07:00:29Z</time>
      </trkpt>
      <trkpt lat="44.50651" lon="6.59532">
        <ele>1917</ele>
        <time>2021-04-07T07:00:30Z</time>
      </trkpt>
      <trkpt lat="44.5065" lon="6.59531">
        <ele>1917</ele>
        <time>2021-04-07T07:00:31Z</time>
      </trkpt>
      <trkpt lat="44.5065" lon="6.59531">
        <ele>1917</ele>
        <time>2021-04-07T07:00:32Z</time>
      </trkpt>
      <trkpt lat="44.50649" lon="6.5953">
        <ele>1917</ele>
        <time>2021-04-07T07:00:33Z</time>
      </trkpt>
      <trkpt lat="44.5065" lon="6.5953">
        <ele>1917</ele>
        <time>2021-04-07T07:00:34Z</time>
      </trkpt>
      <trkpt lat="44.5065" lon="6.5953">
        <ele>1917</ele>
        <time>2021-04-07T07:00:35Z</time>
      </trkpt>
      <trkpt lat="44.5065" lon="6.59529">
        <ele>1917</ele>
        <time>2021-04-07T07:00:36Z</time>
      </trkpt>
      <trkpt lat="44.50651" lon="6.59528">
        <ele>1918</ele>
        <time>2021-04-07T07:00:37Z</time>
      </trkpt>
      <trkpt lat="44.50651" lon="6.59528">
        <ele>1918</ele>
        <time>2021-04-07T07:00:38Z</time>
      </trkpt>
      <trkpt lat="44.50651" lon="6.59528">
        <ele>1918</ele>
        <time>2021-04-07T07:00:39Z</time>
      </trkpt>
      <trkpt lat="44.50651" lon="6.59528">
        <ele>1918</ele>
        <time>2021-04-07T07:00:40Z</time>
      </trkpt>
      <trkpt lat="44.50652" lon="6.59526">
        <ele>1918</ele>
        <time>2021-04-07T07:00:41Z</time>
      </trkpt>
      <trkpt lat="44.50652" lon="6.59525">
        <ele>1919</ele>
        <time>2021-04-07T07:00:42Z</time>
      </trkpt>
      <trkpt lat="44.50652" lon="6.59524">
        <ele>1919</ele>
        <time>2021-04-07T07:00:43Z</time>
      </trkpt>
      <trkpt lat="44.50653" lon="6.59524">
        <ele>1919</ele>
        <time>2021-04-07T07:00:44Z</time>
      </trkpt>
      <trkpt lat="44.50653" lon="6.59524">
        <ele>1919</ele>
        <time>2021-04-07T07:00:45Z</time>
      </trkpt>
      <trkpt lat="44.50652" lon="6.59523">
        <ele>1919</ele>
        <time>2021-04-07T07:00:46Z</time>
      </trkpt>
      <trkpt lat="44.50652" lon="6.59523">
        <ele>1919</ele>
        <time>2021-04-07T07:00:47Z</time>
      </trkpt>
      <trkpt lat="44.50651" lon="6.59523">
        <ele>1919</ele>
        <time>2021-04-07T07:00:48Z</time>
      </trkpt>
      <trkpt lat="44.5065" lon="6.59524">
        <ele>1919</ele>
        <time>2021-04-07T07:00:49Z</time>
      </trkpt>
      <trkpt lat="44.5065" lon="6.59524">
        <ele>1919</ele>
        <time>2021-04-07T07:00:50Z</time>
      </trkpt>
      <trkpt lat="44.50649" lon="6.59524">
        <ele>1920</ele>
        <time>2021-04-07T07:00:51Z</time>
      </trkpt>
      <trkpt lat="44.50648" lon="6.59524">
        <ele>1920</ele>
        <time>2021-04-07T07:00:52Z</time>
      </trkpt>
      <trkpt lat="44.50647" lon="6.59525">
        <ele>1921</ele>
        <time>2021-04-07T07:00:53Z</time>
      </trkpt>
      <trkpt lat="44.50647" lon="6.59526">
        <ele>1921</ele>
        <time>2021-04-07T07:00:54Z</time>
      </trkpt>
      <trkpt lat="44.50647" lon="6.59526">
        <ele>1921</ele>
        <time>2021-04-07T07:00:55Z</time>
      </trkpt>
      <trkpt lat="44.50646" lon="6.59526">
        <ele>1921</ele>
        <time>2021-04-07T07:00:56Z</time>
      </trkpt>
      <trkpt lat="44.50646" lon="6.59527">
        <ele>1921</ele>
        <time>2021-04-07T07:00:57Z</time>
      </trkpt>
      <trkpt lat="44.50646" lon="6.59527">
        <ele>1921</ele>
        <time>2021-04-07T07:00:58Z</time>
      </trkpt>
      <trkpt lat="44.50646" lon="6.59527">
        <ele>1921</ele>
        <time>2021-04-07T07:00:59Z</time>
      </trkpt>
      <trkpt lat="44.50646" lon="6.59527">
        <ele>1922</ele>
        <time>2021-04-07T07:01:00Z</time>
      </trkpt>
      <trkpt lat="44.50646" lon="6.59527">
        <ele>1922</ele>
        <time>2021-04-07T07:01:01Z</time>
      </trkpt>
      <trkpt lat="44.50645" lon="6.59527">
        <ele>1922</ele>
        <time>2021-04-07T07:01:02Z</time>
      </trkpt>
      <trkpt lat="44.50645" lon="6.59528">
        <ele>1923</ele>
        <time>2021-04-07T07:01:03Z</time>
      </trkpt>
      <trkpt lat="44.50645" lon="6.59528">
        <ele>1923</ele>
        <time>2021-04-07T07:01:04Z</time>
      </trkpt>
      <trkpt lat="44.50645" lon="6.59528">
        <ele>1923</ele>
        <time>2021-04-07T07:01:05Z</time>
      </trkpt>
      <trkpt lat="44.50645" lon="6.59528">
        <ele>1923</ele>
        <time>2021-04-07T07:01:06Z</time>
      </trkpt>
      <trkpt lat="44.50645" lon="6.59528">
        <ele>1923</ele>
        <time>2021-04-07T07:01:07Z</time>
      </trkpt>
      <trkpt lat="44.50645" lon="6.59528">
        <ele>1923</ele>
        <time>2021-04-07T07:01:08Z</time>
      </trkpt>
      <trkpt lat="44.50645" lon="6.59528">
        <ele>1923</ele>
        <time>2021-04-07T07:01:09Z</time>
      </trkpt>
      <trkpt lat="44.50645" lon="6.59528">
        <ele>1923</ele>
        <time>2021-04-07T07:01:10Z</time>
      </trkpt>
      <trkpt lat="44.50645" lon="6.59528">
        <ele>1923</ele>
        <time>2021-04-07T07:01:11Z</time>
      </trkpt>
      <trkpt lat="44.50645" lon="6.59528">
        <ele>1923</ele>
        <time>2021-04-07T07:01:12Z</time>
      </trkpt>
      <trkpt lat="44.50645" lon="6.59528">
        <ele>1923</ele>
        <time>2021-04-07T07:01:13Z</time>
      </trkpt>
      <trkpt lat="44.50644" lon="6.59526">
        <ele>1923</ele>
        <time>2021-04-07T07:01:14Z</time>
      </trkpt>
      <trkpt lat="44.50643" lon="6.59525">
        <ele>1923</ele>
        <time>2021-04-07T07:01:15Z</time>
      </trkpt>
      <trkpt lat="44.50643" lon="6.59525">
        <ele>1923</ele>
        <time>2021-04-07T07:01:16Z</time>
      </trkpt>
      <trkpt lat="44.50643" lon="6.59525">
        <ele>1923</ele>
        <time>2021-04-07T07:01:17Z</time>
      </trkpt>
      <trkpt lat="44.50643" lon="6.59525">
        <ele>1923</ele>
        <time>2021-04-07T07:01:18Z</time>
      </trkpt>
      <trkpt lat="44.50643" lon="6.59525">
        <ele>1923</ele>
        <time>2021-04-07T07:01:19Z</time>
      </trkpt>
      <trkpt lat="44.50643" lon="6.59525">
        <ele>1923</ele>
        <time>2021-04-07T07:01:20Z</time>
      </trkpt>
      <trkpt lat="44.50643" lon="6.59525">
        <ele>1923</ele>
        <time>2021-04-07T07:01:21Z</time>
      </trkpt>
      <trkpt lat="44.50643" lon="6.59525">
        <ele>1924</ele>
        <time>2021-04-07T07:01:22Z</time>
      </trkpt>
      <trkpt lat="44.50643" lon="6.59525">
        <ele>1924</ele>
        <time>2021-04-07T07:01:23Z</time>
      </trkpt>
      <trkpt lat="44.50643" lon="6.59525">
        <ele>1924</ele>
        <time>2021-04-07T07:01:24Z</time>
      </trkpt>
      <trkpt lat="44.50643" lon="6.59525">
        <ele>1924</ele>
        <time>2021-04-07T07:01:25Z</time>
      </trkpt>
      <trkpt lat="44.50643" lon="6.59525">
        <ele>1924</ele>
        <time>2021-04-07T07:01:26Z</time>
      </trkpt>
      <trkpt lat="44.50641" lon="6.59521">
        <ele>1924</ele>
        <time>2021-04-07T07:01:27Z</time>
      </trkpt>
      <trkpt lat="44.50641" lon="6.5952">
        <ele>1924</ele>
        <time>2021-04-07T07:01:28Z</time>
      </trkpt>
      <trkpt lat="44.50641" lon="6.59519">
        <ele>1924</ele>
        <time>2021-04-07T07:01:29Z</time>
      </trkpt>
      <trkpt lat="44.50642" lon="6.59519">
        <ele>1925</ele>
        <time>2021-04-07T07:01:30Z</time>
      </trkpt>
      <trkpt lat="44.50642" lon="6.59519">
        <ele>1925</ele>
        <time>2021-04-07T07:01:31Z</time>
      </trkpt>
      <trkpt lat="44.50642" lon="6.59519">
        <ele>1925</ele>
        <time>2021-04-07T07:01:32Z</time>
      </trkpt>
      <trkpt lat="44.50642" lon="6.59519">
        <ele>1925</ele>
        <time>2021-04-07T07:01:33Z</time>
      </trkpt>
      <trkpt lat="44.50642" lon="6.59519">
        <ele>1925</ele>
        <time>2021-04-07T07:01:34Z</time>
      </trkpt>
      <trkpt lat="44.50642" lon="6.59519">
        <ele>1925</ele>
        <time>2021-04-07T07:01:35Z</time>
      </trkpt>
      <trkpt lat="44.50642" lon="6.59519">
        <ele>1925</ele>
        <time>2021-04-07T07:01:36Z</time>
      </trkpt>
      <trkpt lat="44.50642" lon="6.59519">
        <ele>1925</ele>
        <time>2021-04-07T07:01:37Z</time>
      </trkpt>
      <trkpt lat="44.50642" lon="6.59519">
        <ele>1925</ele>
        <time>2021-04-07T07:01:38Z</time>
      </trkpt>
      <trkpt lat="44.50642" lon="6.59519">
        <ele>1925</ele>
        <time>2021-04-07T07:01:39Z</time>
      </trkpt>
      <trkpt lat="44.50642" lon="6.59519">
        <ele>1925</ele>
        <time>2021-04-07T07:01:40Z</time>
      </trkpt>
      <trkpt lat="44.50642" lon="6.59519">
        <ele>1925</ele>
        <time>2021-04-07T07:01:41Z</time>
      </trkpt>
      <trkpt lat="44.50642" lon="6.59519">
        <ele>1925</ele>
        <time>2021-04-07T07:01:42Z</time>
      </trkpt>
      <trkpt lat="44.50642" lon="6.59519">
        <ele>1925</ele>
        <time>2021-04-07T07:01:43Z</time>
      </trkpt>
      <trkpt lat="44.50642" lon="6.59519">
        <ele>1925</ele>
        <time>2021-04-07T07:01:44Z</time>
      </trkpt>
      <trkpt lat="44.50642" lon="6.59519">
        <ele>1925</ele>
        <time>2021-04-07T07:01:45Z</time>
      </trkpt>
      <trkpt lat="44.50642" lon="6.59519">
        <ele>1925</ele>
        <time>2021-04-07T07:01:46Z</time>
      </trkpt>
      <trkpt lat="44.50642" lon="6.59519">
        <ele>1925</ele>
        <time>2021-04-07T07:01:47Z</time>
      </trkpt>
      <trkpt lat="44.50642" lon="6.59519">
        <ele>1925</ele>
        <time>2021-04-07T07:01:48Z</time>
      </trkpt>
      <trkpt lat="44.50642" lon="6.59519">
        <ele>1925</ele>
        <time>2021-04-07T07:01:49Z</time>
      </trkpt>
      <trkpt lat="44.50642" lon="6.59519">
        <ele>1925</ele>
        <time>2021-04-07T07:01:50Z</time>
      </trkpt>
      <trkpt lat="44.50642" lon="6.59519">
        <ele>1925</ele>
        <time>2021-04-07T07:01:51Z</time>
      </trkpt>
      <trkpt lat="44.50642" lon="6.59519">
        <ele>1925</ele>
        <time>2021-04-07T07:01:52Z</time>
      </trkpt>
      <trkpt lat="44.50642" lon="6.59519">
        <ele>1925</ele>
        <time>2021-04-07T07:01:53Z</time>
      </trkpt>
      <trkpt lat="44.50642" lon="6.59519">
        <ele>1925</ele>
        <time>2021-04-07T07:01:54Z</time>
      </trkpt>
      <trkpt lat="44.50642" lon="6.59519">
        <ele>1925</ele>
        <time>2021-04-07T07:01:55Z</time>
      </trkpt>
      <trkpt lat="44.50642" lon="6.59519">
        <ele>1925</ele>
        <time>2021-04-07T07:01:56Z</time>
      </trkpt>
      <trkpt lat="44.50642" lon="6.59519">
        <ele>1925</ele>
        <time>2021-04-07T07:01:57Z</time>
      </trkpt>
      <trkpt lat="44.50642" lon="6.59519">
        <ele>1925</ele>
        <time>2021-04-07T07:01:58Z</time>
      </trkpt>
      <trkpt lat="44.50642" lon="6.59519">
        <ele>1925</ele>
        <time>2021-04-07T07:01:59Z</time>
      </trkpt>
      <trkpt lat="44.50642" lon="6.59519">
        <ele>1925</ele>
        <time>2021-04-07T07:02:00Z</time>
      </trkpt>
      <trkpt lat="44.50645" lon="6.59513">
        <ele>1927</ele>
        <time>2021-04-07T07:02:01Z</time>
      </trkpt>
      <trkpt lat="44.50645" lon="6.59512">
        <ele>1928</ele>
        <time>2021-04-07T07:02:02Z</time>
      </trkpt>
      <trkpt lat="44.50645" lon="6.59512">
        <ele>1929</ele>
        <time>2021-04-07T07:02:03Z</time>
      </trkpt>
      <trkpt lat="44.50646" lon="6.59512">
        <ele>1929</ele>
        <time>2021-04-07T07:02:04Z</time>
      </trkpt>
      <trkpt lat="44.50646" lon="6.59512">
        <ele>1929</ele>
        <time>2021-04-07T07:02:05Z</time>
      </trkpt>
      <trkpt lat="44.50646" lon="6.59512">
        <ele>1929</ele>
        <time>2021-04-07T07:02:06Z</time>
      </trkpt>
      <trkpt lat="44.50647" lon="6.5951">
        <ele>1929</ele>
        <time>2021-04-07T07:02:07Z</time>
      </trkpt>
      <trkpt lat="44.50647" lon="6.5951">
        <ele>1929</ele>
        <time>2021-04-07T07:02:08Z</time>
      </trkpt>
      <trkpt lat="44.50647" lon="6.5951">
        <ele>1930</ele>
        <time>2021-04-07T07:02:09Z</time>
      </trkpt>
      <trkpt lat="44.50646" lon="6.5951">
        <ele>1930</ele>
        <time>2021-04-07T07:02:10Z</time>
      </trkpt>
      <trkpt lat="44.50646" lon="6.5951">
        <ele>1930</ele>
        <time>2021-04-07T07:02:11Z</time>
      </trkpt>
      <trkpt lat="44.50646" lon="6.5951">
        <ele>1930</ele>
        <time>2021-04-07T07:02:12Z</time>
      </trkpt>
      <trkpt lat="44.50646" lon="6.5951">
        <ele>1930</ele>
        <time>2021-04-07T07:02:13Z</time>
      </trkpt>
      <trkpt lat="44.50644" lon="6.59509">
        <ele>1930</ele>
        <time>2021-04-07T07:02:14Z</time>
      </trkpt>
      <trkpt lat="44.50643" lon="6.59509">
        <ele>1931</ele>
        <time>2021-04-07T07:02:15Z</time>
      </trkpt>
      <trkpt lat="44.50642" lon="6.59509">
        <ele>1931</ele>
        <time>2021-04-07T07:02:16Z</time>
      </trkpt>
      <trkpt lat="44.50641" lon="6.59509">
        <ele>1931</ele>
        <time>2021-04-07T07:02:17Z</time>
      </trkpt>
      <trkpt lat="44.50641" lon="6.59509">
        <ele>1931</ele>
        <time>2021-04-07T07:02:18Z</time>
      </trkpt>
      <trkpt lat="44.50641" lon="6.59509">
        <ele>1931</ele>
        <time>2021-04-07T07:02:19Z</time>
      </trkpt>
      <trkpt lat="44.5064" lon="6.59509">
        <ele>1931</ele>
        <time>2021-04-07T07:02:20Z</time>
      </trkpt>
      <trkpt lat="44.5064" lon="6.59509">
        <ele>1931</ele>
        <time>2021-04-07T07:02:21Z</time>
      </trkpt>
      <trkpt lat="44.50639" lon="6.5951">
        <ele>1931</ele>
        <time>2021-04-07T07:02:22Z</time>
      </trkpt>
      <trkpt lat="44.50639" lon="6.5951">
        <ele>1931</ele>
        <time>2021-04-07T07:02:23Z</time>
      </trkpt>
      <trkpt lat="44.50638" lon="6.59509">
        <ele>1931</ele>
        <time>2021-04-07T07:02:24Z</time>
      </trkpt>
      <trkpt lat="44.50637" lon="6.5951">
        <ele>1931</ele>
        <time>2021-04-07T07:02:25Z</time>
      </trkpt>
      <trkpt lat="44.50637" lon="6.5951">
        <ele>1931</ele>
        <time>2021-04-07T07:02:26Z</time>
      </trkpt>
      <trkpt lat="44.50637" lon="6.59511">
        <ele>1931</ele>
        <time>2021-04-07T07:02:27Z</time>
      </trkpt>
      <trkpt lat="44.50636" lon="6.59511">
        <ele>1931</ele>
        <time>2021-04-07T07:02:28Z</time>
      </trkpt>
      <trkpt lat="44.50636" lon="6.5951">
        <ele>1931</ele>
        <time>2021-04-07T07:02:29Z</time>
      </trkpt>
      <trkpt lat="44.50636" lon="6.59511">
        <ele>1931</ele>
        <time>2021-04-07T07:02:30Z</time>
      </trkpt>
      <trkpt lat="44.50636" lon="6.59511">
        <ele>1931</ele>
        <time>2021-04-07T07:02:31Z</time>
      </trkpt>
      <trkpt lat="44.50636" lon="6.59511">
        <ele>1931</ele>
        <time>2021-04-07T07:02:32Z</time>
      </trkpt>
      <trkpt lat="44.50636" lon="6.59511">
        <ele>1931</ele>
        <time>2021-04-07T07:02:33Z</time>
      </trkpt>
      <trkpt lat="44.50636" lon="6.59511">
        <ele>1931</ele>
        <time>2021-04-07T07:02:34Z</time>
      </trkpt>
      <trkpt lat="44.50636" lon="6.59512">
        <ele>1931</ele>
        <time>2021-04-07T07:02:35Z</time>
      </trkpt>
      <trkpt lat="44.50636" lon="6.59512">
        <ele>1931</ele>
        <time>2021-04-07T07:02:36Z</time>
      </trkpt>
      <trkpt lat="44.50636" lon="6.59512">
        <ele>1931</ele>
        <time>2021-04-07T07:02:37Z</time>
      </trkpt>
      <trkpt lat="44.50636" lon="6.59512">
        <ele>1931</ele>
        <time>2021-04-07T07:02:38Z</time>
      </trkpt>
      <trkpt lat="44.50636" lon="6.59512">
        <ele>1931</ele>
        <time>2021-04-07T07:02:39Z</time>
      </trkpt>
      <trkpt lat="44.50636" lon="6.59512">
        <ele>1931</ele>
        <time>2021-04-07T07:02:40Z</time>
      </trkpt>
      <trkpt lat="44.50636" lon="6.59512">
        <ele>1932</ele>
        <time>2021-04-07T07:02:41Z</time>
      </trkpt>
      <trkpt lat="44.50637" lon="6.59512">
        <ele>1932</ele>
        <time>2021-04-07T07:02:42Z</time>
      </trkpt>
      <trkpt lat="44.50637" lon="6.59512">
        <ele>1932</ele>
        <time>2021-04-07T07:02:43Z</time>
      </trkpt>
      <trkpt lat="44.50637" lon="6.59511">
        <ele>1932</ele>
        <time>2021-04-07T07:02:44Z</time>
      </trkpt>
      <trkpt lat="44.50637" lon="6.59511">
        <ele>1932</ele>
        <time>2021-04-07T07:02:45Z</time>
      </trkpt>
      <trkpt lat="44.50637" lon="6.59511">
        <ele>1932</ele>
        <time>2021-04-07T07:02:46Z</time>
      </trkpt>
      <trkpt lat="44.50637" lon="6.59511">
        <ele>1932</ele>
        <time>2021-04-07T07:02:47Z</time>
      </trkpt>
      <trkpt lat="44.50637" lon="6.59511">
        <ele>1932</ele>
        <time>2021-04-07T07:02:48Z</time>
      </trkpt>
      <trkpt lat="44.50637" lon="6.59511">
        <ele>1932</ele>
        <time>2021-04-07T07:02:49Z</time>
      </trkpt>
      <trkpt lat="44.50637" lon="6.59511">
        <ele>1932</ele>
        <time>2021-04-07T07:02:50Z</time>
      </trkpt>
      <trkpt lat="44.50637" lon="6.59511">
        <ele>1932</ele>
        <time>2021-04-07T07:02:51Z</time>
      </trkpt>
      <trkpt lat="44.50637" lon="6.59511">
        <ele>1932</ele>
        <time>2021-04-07T07:02:52Z</time>
      </trkpt>
      <trkpt lat="44.50636" lon="6.5951">
        <ele>1932</ele>
        <time>2021-04-07T07:02:53Z</time>
      </trkpt>
      <trkpt lat="44.50637" lon="6.59509">
        <ele>1932</ele>
        <time>2021-04-07T07:02:54Z</time>
      </trkpt>
      <trkpt lat="44.50637" lon="6.59508">
        <ele>1932</ele>
        <time>2021-04-07T07:02:55Z</time>
      </trkpt>
      <trkpt lat="44.50637" lon="6.59507">
        <ele>1932</ele>
        <time>2021-04-07T07:02:56Z</time>
      </trkpt>
      <trkpt lat="44.50637" lon="6.59507">
        <ele>1932</ele>
        <time>2021-04-07T07:02:57Z</time>
      </trkpt>
      <trkpt lat="44.50637" lon="6.59506">
        <ele>1933</ele>
        <time>2021-04-07T07:02:58Z</time>
      </trkpt>
      <trkpt lat="44.50637" lon="6.59506">
        <ele>1933</ele>
        <time>2021-04-07T07:02:59Z</time>
      </trkpt>
      <trkpt lat="44.50637" lon="6.59506">
        <ele>1933</ele>
        <time>2021-04-07T07:03:00Z</time>
      </trkpt>
      <trkpt lat="44.50637" lon="6.59505">
        <ele>1933</ele>
        <time>2021-04-07T07:03:01Z</time>
      </trkpt>
      <trkpt lat="44.50637" lon="6.59505">
        <ele>1933</ele>
        <time>2021-04-07T07:03:02Z</time>
      </trkpt>
      <trkpt lat="44.50637" lon="6.59505">
        <ele>1933</ele>
        <time>2021-04-07T07:03:03Z</time>
      </trkpt>
      <trkpt lat="44.50637" lon="6.59505">
        <ele>1933</ele>
        <time>2021-04-07T07:03:04Z</time>
      </trkpt>
      <trkpt lat="44.50637" lon="6.59505">
        <ele>1933</ele>
        <time>2021-04-07T07:03:05Z</time>
      </trkpt>
      <trkpt lat="44.50637" lon="6.59504">
        <ele>1933</ele>
        <time>2021-04-07T07:03:06Z</time>
      </trkpt>
      <trkpt lat="44.50638" lon="6.59504">
        <ele>1933</ele>
        <time>2021-04-07T07:03:07Z</time>
      </trkpt>
      <trkpt lat="44.50638" lon="6.59504">
        <ele>1933</ele>
        <time>2021-04-07T07:03:08Z</time>
      </trkpt>
      <trkpt lat="44.50637" lon="6.59503">
        <ele>1933</ele>
        <time>2021-04-07T07:03:09Z</time>
      </trkpt>
      <trkpt lat="44.50636" lon="6.59502">
        <ele>1933</ele>
        <time>2021-04-07T07:03:10Z</time>
      </trkpt>
      <trkpt lat="44.50635" lon="6.59502">
        <ele>1933</ele>
        <time>2021-04-07T07:03:11Z</time>
      </trkpt>
      <trkpt lat="44.50635" lon="6.59502">
        <ele>1933</ele>
        <time>2021-04-07T07:03:12Z</time>
      </trkpt>
      <trkpt lat="44.50634" lon="6.59502">
        <ele>1933</ele>
        <time>2021-04-07T07:03:13Z</time>
      </trkpt>
      <trkpt lat="44.50634" lon="6.59503">
        <ele>1933</ele>
        <time>2021-04-07T07:03:14Z</time>
      </trkpt>
      <trkpt lat="44.50634" lon="6.59503">
        <ele>1933</ele>
        <time>2021-04-07T07:03:15Z</time>
      </trkpt>
      <trkpt lat="44.50634" lon="6.59503">
        <ele>1934</ele>
        <time>2021-04-07T07:03:16Z</time>
      </trkpt>
      <trkpt lat="44.50634" lon="6.59503">
        <ele>1934</ele>
        <time>2021-04-07T07:03:17Z</time>
      </trkpt>
      <trkpt lat="44.50634" lon="6.59503">
        <ele>1934</ele>
        <time>2021-04-07T07:03:18Z</time>
      </trkpt>
      <trkpt lat="44.50634" lon="6.59503">
        <ele>1934</ele>
        <time>2021-04-07T07:03:19Z</time>
      </trkpt>
      <trkpt lat="44.50634" lon="6.59503">
        <ele>1934</ele>
        <time>2021-04-07T07:03:20Z</time>
      </trkpt>
      <trkpt lat="44.50634" lon="6.59503">
        <ele>1934</ele>
        <time>2021-04-07T07:03:21Z</time>
      </trkpt>
      <trkpt lat="44.50634" lon="6.59503">
        <ele>1934</ele>
        <time>2021-04-07T07:03:22Z</time>
      </trkpt>
      <trkpt lat="44.50634" lon="6.59503">
        <ele>1934</ele>
        <time>2021-04-07T07:03:23Z</time>
      </trkpt>
      <trkpt lat="44.50634" lon="6.59503">
        <ele>1934</ele>
        <time>2021-04-07T07:03:24Z</time>
      </trkpt>
      <trkpt lat="44.50634" lon="6.59503">
        <ele>1934</ele>
        <time>2021-04-07T07:03:25Z</time>
      </trkpt>
      <trkpt lat="44.50634" lon="6.59503">
        <ele>1934</ele>
        <time>2021-04-07T07:03:26Z</time>
      </trkpt>
      <trkpt lat="44.50634" lon="6.59503">
        <ele>1934</ele>
        <time>2021-04-07T07:03:27Z</time>
      </trkpt>
      <trkpt lat="44.50634" lon="6.59503">
        <ele>1934</ele>
        <time>2021-04-07T07:03:28Z</time>
      </trkpt>
      <trkpt lat="44.50634" lon="6.59503">
        <ele>1934</ele>
        <time>2021-04-07T07:03:29Z</time>
      </trkpt>
      <trkpt lat="44.50634" lon="6.59503">
        <ele>1934</ele>
        <time>2021-04-07T07:03:30Z</time>
      </trkpt>
      <trkpt lat="44.50634" lon="6.59503">
        <ele>1934</ele>
        <time>2021-04-07T07:03:31Z</time>
      </trkpt>
      <trkpt lat="44.50637" lon="6.59498">
        <ele>1935</ele>
        <time>2021-04-07T07:03:32Z</time>
      </trkpt>
      <trkpt lat="44.50637" lon="6.59497">
        <ele>1935</ele>
        <time>2021-04-07T07:03:33Z</time>
      </trkpt>
      <trkpt lat="44.50638" lon="6.59497">
        <ele>1935</ele>
        <time>2021-04-07T07:03:34Z</time>
      </trkpt>
      <trkpt lat="44.50638" lon="6.59496">
        <ele>1935</ele>
        <time>2021-04-07T07:03:35Z</time>
      </trkpt>
      <trkpt lat="44.50638" lon="6.59495">
        <ele>1936</ele>
        <time>2021-04-07T07:03:36Z</time>
      </trkpt>
      <trkpt lat="44.50638" lon="6.59494">
        <ele>1936</ele>
        <time>2021-04-07T07:03:37Z</time>
      </trkpt>
      <trkpt lat="44.50638" lon="6.59494">
        <ele>1936</ele>
        <time>2021-04-07T07:03:38Z</time>
      </trkpt>
      <trkpt lat="44.50638" lon="6.59493">
        <ele>1936</ele>
        <time>2021-04-07T07:03:39Z</time>
      </trkpt>
      <trkpt lat="44.50638" lon="6.59493">
        <ele>1936</ele>
        <time>2021-04-07T07:03:40Z</time>
      </trkpt>
      <trkpt lat="44.50637" lon="6.59493">
        <ele>1936</ele>
        <time>2021-04-07T07:03:41Z</time>
      </trkpt>
      <trkpt lat="44.50637" lon="6.59493">
        <ele>1936</ele>
        <time>2021-04-07T07:03:42Z</time>
      </trkpt>
      <trkpt lat="44.50637" lon="6.59493">
        <ele>1936</ele>
        <time>2021-04-07T07:03:43Z</time>
      </trkpt>
      <trkpt lat="44.50637" lon="6.59492">
        <ele>1936</ele>
        <time>2021-04-07T07:03:44Z</time>
      </trkpt>
      <trkpt lat="44.50637" lon="6.59491">
        <ele>1937</ele>
        <time>2021-04-07T07:03:45Z</time>
      </trkpt>
      <trkpt lat="44.50636" lon="6.59491">
        <ele>1937</ele>
        <time>2021-04-07T07:03:46Z</time>
      </trkpt>
      <trkpt lat="44.50636" lon="6.59491">
        <ele>1937</ele>
        <time>2021-04-07T07:03:47Z</time>
      </trkpt>
      <trkpt lat="44.50636" lon="6.59491">
        <ele>1937</ele>
        <time>2021-04-07T07:03:48Z</time>
      </trkpt>
      <trkpt lat="44.50635" lon="6.5949">
        <ele>1937</ele>
        <time>2021-04-07T07:03:49Z</time>
      </trkpt>
      <trkpt lat="44.50635" lon="6.5949">
        <ele>1937</ele>
        <time>2021-04-07T07:03:50Z</time>
      </trkpt>
      <trkpt lat="44.50635" lon="6.5949">
        <ele>1937</ele>
        <time>2021-04-07T07:03:51Z</time>
      </trkpt>
      <trkpt lat="44.50635" lon="6.5949">
        <ele>1937</ele>
        <time>2021-04-07T07:03:52Z</time>
      </trkpt>
      <trkpt lat="44.50635" lon="6.5949">
        <ele>1937</ele>
        <time>2021-04-07T07:03:53Z</time>
      </trkpt>
      <trkpt lat="44.50635" lon="6.5949">
        <ele>1937</ele>
        <time>2021-04-07T07:03:54Z</time>
      </trkpt>
      <trkpt lat="44.50635" lon="6.5949">
        <ele>1937</ele>
        <time>2021-04-07T07:03:55Z</time>
      </trkpt>
      <trkpt lat="44.50635" lon="6.5949">
        <ele>1937</ele>
        <time>2021-04-07T07:03:56Z</time>
      </trkpt>
      <trkpt lat="44.50635" lon="6.5949">
        <ele>1937</ele>
        <time>2021-04-07T07:03:57Z</time>
      </trkpt>
      <trkpt lat="44.50635" lon="6.5949">
        <ele>1937</ele>
        <time>2021-04-07T07:03:58Z</time>
      </trkpt>
      <trkpt lat="44.50635" lon="6.5949">
        <ele>1937</ele>
        <time>2021-04-07T07:03:59Z</time>
      </trkpt>
      <trkpt lat="44.50635" lon="6.5949">
        <ele>1937</ele>
        <time>2021-04-07T07:04:00Z</time>
      </trkpt>
      <trkpt lat="44.50635" lon="6.5949">
        <ele>1938</ele>
        <time>2021-04-07T07:04:01Z</time>
      </trkpt>
      <trkpt lat="44.50636" lon="6.5949">
        <ele>1938</ele>
        <time>2021-04-07T07:04:02Z</time>
      </trkpt>
      <trkpt lat="44.50636" lon="6.59491">
        <ele>1938</ele>
        <time>2021-04-07T07:04:03Z</time>
      </trkpt>
      <trkpt lat="44.50636" lon="6.59491">
        <ele>1938</ele>
        <time>2021-04-07T07:04:04Z</time>
      </trkpt>
      <trkpt lat="44.50636" lon="6.59491">
        <ele>1938</ele>
        <time>2021-04-07T07:04:05Z</time>
      </trkpt>
      <trkpt lat="44.50635" lon="6.59491">
        <ele>1938</ele>
        <time>2021-04-07T07:04:06Z</time>
      </trkpt>
      <trkpt lat="44.50635" lon="6.59492">
        <ele>1938</ele>
        <time>2021-04-07T07:04:07Z</time>
      </trkpt>
      <trkpt lat="44.50635" lon="6.59493">
        <ele>1938</ele>
        <time>2021-04-07T07:04:08Z</time>
      </trkpt>
      <trkpt lat="44.50635" lon="6.59492">
        <ele>1938</ele>
        <time>2021-04-07T07:04:09Z</time>
      </trkpt>
      <trkpt lat="44.50634" lon="6.59493">
        <ele>1938</ele>
        <time>2021-04-07T07:04:10Z</time>
      </trkpt>
      <trkpt lat="44.50634" lon="6.59493">
        <ele>1938</ele>
        <time>2021-04-07T07:04:11Z</time>
      </trkpt>
      <trkpt lat="44.50634" lon="6.59493">
        <ele>1938</ele>
        <time>2021-04-07T07:04:12Z</time>
      </trkpt>
      <trkpt lat="44.50634" lon="6.59493">
        <ele>1938</ele>
        <time>2021-04-07T07:04:13Z</time>
      </trkpt>
      <trkpt lat="44.50634" lon="6.59493">
        <ele>1938</ele>
        <time>2021-04-07T07:04:14Z</time>
      </trkpt>
      <trkpt lat="44.50634" lon="6.59493">
        <ele>1938</ele>
        <time>2021-04-07T07:04:15Z</time>
      </trkpt>
      <trkpt lat="44.50634" lon="6.59493">
        <ele>1938</ele>
        <time>2021-04-07T07:04:16Z</time>
      </trkpt>
      <trkpt lat="44.50634" lon="6.59493">
        <ele>1938</ele>
        <time>2021-04-07T07:04:17Z</time>
      </trkpt>
      <trkpt lat="44.50634" lon="6.59493">
        <ele>1938</ele>
        <time>2021-04-07T07:04:18Z</time>
      </trkpt>
      <trkpt lat="44.50634" lon="6.59493">
        <ele>1939</ele>
        <time>2021-04-07T07:04:19Z</time>
      </trkpt>
      <trkpt lat="44.50634" lon="6.59493">
        <ele>1939</ele>
        <time>2021-04-07T07:04:20Z</time>
      </trkpt>
      <trkpt lat="44.50634" lon="6.59493">
        <ele>1939</ele>
        <time>2021-04-07T07:04:21Z</time>
      </trkpt>
      <trkpt lat="44.50634" lon="6.59493">
        <ele>1939</ele>
        <time>2021-04-07T07:04:22Z</time>
      </trkpt>
      <trkpt lat="44.50634" lon="6.59493">
        <ele>1939</ele>
        <time>2021-04-07T07:04:23Z</time>
      </trkpt>
      <trkpt lat="44.50634" lon="6.59493">
        <ele>1939</ele>
        <time>2021-04-07T07:04:24Z</time>
      </trkpt>
      <trkpt lat="44.50634" lon="6.59493">
        <ele>1939</ele>
        <time>2021-04-07T07:04:25Z</time>
      </trkpt>
      <trkpt lat="44.50634" lon="6.59493">
        <ele>1939</ele>
        <time>2021-04-07T07:04:26Z</time>
      </trkpt>
      <trkpt lat="44.50634" lon="6.59493">
        <ele>1939</ele>
        <time>2021-04-07T07:04:27Z</time>
      </trkpt>
      <trkpt lat="44.50634" lon="6.59493">
        <ele>1939</ele>
        <time>2021-04-07T07:04:28Z</time>
      </trkpt>
      <trkpt lat="44.50634" lon="6.59493">
        <ele>1939</ele>
        <time>2021-04-07T07:04:29Z</time>
      </trkpt>
      <trkpt lat="44.50634" lon="6.59487">
        <ele>1939</ele>
        <time>2021-04-07T07:04:30Z</time>
      </trkpt>
      <trkpt lat="44.50634" lon="6.59487">
        <ele>1939</ele>
        <time>2021-04-07T07:04:31Z</time>
      </trkpt>
      <trkpt lat="44.50635" lon="6.59488">
        <ele>1939</ele>
        <time>2021-04-07T07:04:32Z</time>
      </trkpt>
      <trkpt lat="44.50635" lon="6.59488">
        <ele>1939</ele>
        <time>2021-04-07T07:04:33Z</time>
      </trkpt>
      <trkpt lat="44.50635" lon="6.59489">
        <ele>1939</ele>
        <time>2021-04-07T07:04:34Z</time>
      </trkpt>
      <trkpt lat="44.50635" lon="6.59489">
        <ele>1939</ele>
        <time>2021-04-07T07:04:35Z</time>
      </trkpt>
      <trkpt lat="44.50635" lon="6.59489">
        <ele>1938</ele>
        <time>2021-04-07T07:04:36Z</time>
      </trkpt>
      <trkpt lat="44.50635" lon="6.59489">
        <ele>1938</ele>
        <time>2021-04-07T07:04:37Z</time>
      </trkpt>
      <trkpt lat="44.50635" lon="6.59489">
        <ele>1938</ele>
        <time>2021-04-07T07:04:38Z</time>
      </trkpt>
      <trkpt lat="44.50635" lon="6.59489">
        <ele>1938</ele>
        <time>2021-04-07T07:04:39Z</time>
      </trkpt>
      <trkpt lat="44.50635" lon="6.59489">
        <ele>1938</ele>
        <time>2021-04-07T07:04:40Z</time>
      </trkpt>
      <trkpt lat="44.50635" lon="6.59486">
        <ele>1938</ele>
        <time>2021-04-07T07:04:41Z</time>
      </trkpt>
      <trkpt lat="44.50635" lon="6.59485">
        <ele>1937</ele>
        <time>2021-04-07T07:04:42Z</time>
      </trkpt>
      <trkpt lat="44.50635" lon="6.59485">
        <ele>1936</ele>
        <time>2021-04-07T07:04:43Z</time>
      </trkpt>
      <trkpt lat="44.50636" lon="6.59484">
        <ele>1936</ele>
        <time>2021-04-07T07:04:44Z</time>
      </trkpt>
      <trkpt lat="44.50636" lon="6.59485">
        <ele>1936</ele>
        <time>2021-04-07T07:04:45Z</time>
      </trkpt>
      <trkpt lat="44.50637" lon="6.59484">
        <ele>1936</ele>
        <time>2021-04-07T07:04:46Z</time>
      </trkpt>
      <trkpt lat="44.50637" lon="6.59485">
        <ele>1936</ele>
        <time>2021-04-07T07:04:47Z</time>
      </trkpt>
      <trkpt lat="44.50637" lon="6.59485">
        <ele>1936</ele>
        <time>2021-04-07T07:04:48Z</time>
      </trkpt>
      <trkpt lat="44.50637" lon="6.59485">
        <ele>1936</ele>
        <time>2021-04-07T07:04:49Z</time>
      </trkpt>
      <trkpt lat="44.50637" lon="6.59485">
        <ele>1936</ele>
        <time>2021-04-07T07:04:50Z</time>
      </trkpt>
      <trkpt lat="44.50637" lon="6.59485">
        <ele>1936</ele>
        <time>2021-04-07T07:04:51Z</time>
      </trkpt>
      <trkpt lat="44.50637" lon="6.59485">
        <ele>1936</ele>
        <time>2021-04-07T07:04:52Z</time>
      </trkpt>
      <trkpt lat="44.50637" lon="6.59485">
        <ele>1936</ele>
        <time>2021-04-07T07:04:53Z</time>
      </trkpt>
      <trkpt lat="44.50637" lon="6.59485">
        <ele>1936</ele>
        <time>2021-04-07T07:04:54Z</time>
      </trkpt>
      <trkpt lat="44.50637" lon="6.59485">
        <ele>1936</ele>
        <time>2021-04-07T07:04:55Z</time>
      </trkpt>
      <trkpt lat="44.50637" lon="6.59485">
        <ele>1936</ele>
        <time>2021-04-07T07:04:56Z</time>
      </trkpt>
      <trkpt lat="44.50637" lon="6.59485">
        <ele>1936</ele>
        <time>2021-04-07T07:04:57Z</time>
      </trkpt>
      <trkpt lat="44.50631" lon="6.59491">
        <ele>1936</ele>
        <time>2021-04-07T07:04:58Z</time>
      </trkpt>
      <trkpt lat="44.50631" lon="6.59491">
        <ele>1936</ele>
        <time>2021-04-07T07:04:59Z</time>
      </trkpt>
      <trkpt lat="44.5063" lon="6.59491">
        <ele>1936</ele>
        <time>2021-04-07T07:05:00Z</time>
      </trkpt>
      <trkpt lat="44.5063" lon="6.59491">
        <ele>1936</ele>
        <time>2021-04-07T07:05:01Z</time>
      </trkpt>
      <trkpt lat="44.50629" lon="6.59491">
        <ele>1936</ele>
        <time>2021-04-07T07:05:02Z</time>
      </trkpt>
      <trkpt lat="44.50628" lon="6.59491">
        <ele>1937</ele>
        <time>2021-04-07T07:05:03Z</time>
      </trkpt>
      <trkpt lat="44.50627" lon="6.59491">
        <ele>1937</ele>
        <time>2021-04-07T07:05:04Z</time>
      </trkpt>
      <trkpt lat="44.50627" lon="6.59491">
        <ele>1937</ele>
        <time>2021-04-07T07:05:05Z</time>
      </trkpt>
      <trkpt lat="44.50626" lon="6.59491">
        <ele>1937</ele>
        <time>2021-04-07T07:05:06Z</time>
      </trkpt>
      <trkpt lat="44.50625" lon="6.59491">
        <ele>1938</ele>
        <time>2021-04-07T07:05:07Z</time>
      </trkpt>
      <trkpt lat="44.50625" lon="6.5949">
        <ele>1938</ele>
        <time>2021-04-07T07:05:08Z</time>
      </trkpt>
      <trkpt lat="44.50624" lon="6.5949">
        <ele>1938</ele>
        <time>2021-04-07T07:05:09Z</time>
      </trkpt>
      <trkpt lat="44.50624" lon="6.5949">
        <ele>1938</ele>
        <time>2021-04-07T07:05:10Z</time>
      </trkpt>
      <trkpt lat="44.50624" lon="6.59489">
        <ele>1938</ele>
        <time>2021-04-07T07:05:11Z</time>
      </trkpt>
      <trkpt lat="44.50624" lon="6.59489">
        <ele>1938</ele>
        <time>2021-04-07T07:05:12Z</time>
      </trkpt>
      <trkpt lat="44.50624" lon="6.59489">
        <ele>1939</ele>
        <time>2021-04-07T07:05:13Z</time>
      </trkpt>
      <trkpt lat="44.50624" lon="6.59489">
        <ele>1939</ele>
        <time>2021-04-07T07:05:14Z</time>
      </trkpt>
      <trkpt lat="44.50625" lon="6.59489">
        <ele>1939</ele>
        <time>2021-04-07T07:05:15Z</time>
      </trkpt>
      <trkpt lat="44.50625" lon="6.5949">
        <ele>1939</ele>
        <time>2021-04-07T07:05:16Z</time>
      </trkpt>
      <trkpt lat="44.50625" lon="6.5949">
        <ele>1939</ele>
        <time>2021-04-07T07:05:17Z</time>
      </trkpt>
      <trkpt lat="44.50625" lon="6.5949">
        <ele>1941</ele>
        <time>2021-04-07T07:05:18Z</time>
      </trkpt>
      <trkpt lat="44.50625" lon="6.5949">
        <ele>1941</ele>
        <time>2021-04-07T07:05:19Z</time>
      </trkpt>
      <trkpt lat="44.50625" lon="6.5949">
        <ele>1941</ele>
        <time>2021-04-07T07:05:20Z</time>
      </trkpt>
      <trkpt lat="44.50625" lon="6.5949">
        <ele>1941</ele>
        <time>2021-04-07T07:05:21Z</time>
      </trkpt>
      <trkpt lat="44.50625" lon="6.5949">
        <ele>1941</ele>
        <time>2021-04-07T07:05:22Z</time>
      </trkpt>
      <trkpt lat="44.50625" lon="6.5949">
        <ele>1942</ele>
        <time>2021-04-07T07:05:23Z</time>
      </trkpt>
      <trkpt lat="44.50625" lon="6.5949">
        <ele>1942</ele>
        <time>2021-04-07T07:05:24Z</time>
      </trkpt>
      <trkpt lat="44.50625" lon="6.59488">
        <ele>1942</ele>
        <time>2021-04-07T07:05:25Z</time>
      </trkpt>
      <trkpt lat="44.50624" lon="6.59487">
        <ele>1942</ele>
        <time>2021-04-07T07:05:26Z</time>
      </trkpt>
      <trkpt lat="44.50624" lon="6.59487">
        <ele>1942</ele>
        <time>2021-04-07T07:05:27Z</time>
      </trkpt>
      <trkpt lat="44.50624" lon="6.59487">
        <ele>1942</ele>
        <time>2021-04-07T07:05:28Z</time>
      </trkpt>
      <trkpt lat="44.50624" lon="6.59487">
        <ele>1942</ele>
        <time>2021-04-07T07:05:29Z</time>
      </trkpt>
      <trkpt lat="44.50624" lon="6.59487">
        <ele>1942</ele>
        <time>2021-04-07T07:05:30Z</time>
      </trkpt>
      <trkpt lat="44.50624" lon="6.59486">
        <ele>1942</ele>
        <time>2021-04-07T07:05:31Z</time>
      </trkpt>
      <trkpt lat="44.50624" lon="6.59486">
        <ele>1942</ele>
        <time>2021-04-07T07:05:32Z</time>
      </trkpt>
      <trkpt lat="44.50624" lon="6.59485">
        <ele>1942</ele>
        <time>2021-04-07T07:05:33Z</time>
      </trkpt>
      <trkpt lat="44.50624" lon="6.59484">
        <ele>1943</ele>
        <time>2021-04-07T07:05:34Z</time>
      </trkpt>
      <trkpt lat="44.50623" lon="6.59483">
        <ele>1944</ele>
        <time>2021-04-07T07:05:35Z</time>
      </trkpt>
      <trkpt lat="44.50623" lon="6.59483">
        <ele>1944</ele>
        <time>2021-04-07T07:05:36Z</time>
      </trkpt>
      <trkpt lat="44.50622" lon="6.59483">
        <ele>1944</ele>
        <time>2021-04-07T07:05:37Z</time>
      </trkpt>
      <trkpt lat="44.50621" lon="6.59482">
        <ele>1945</ele>
        <time>2021-04-07T07:05:38Z</time>
      </trkpt>
      <trkpt lat="44.50621" lon="6.59482">
        <ele>1945</ele>
        <time>2021-04-07T07:05:39Z</time>
      </trkpt>
      <trkpt lat="44.5062" lon="6.59481">
        <ele>1945</ele>
        <time>2021-04-07T07:05:40Z</time>
      </trkpt>
      <trkpt lat="44.50619" lon="6.59481">
        <ele>1946</ele>
        <time>2021-04-07T07:05:41Z</time>
      </trkpt>
      <trkpt lat="44.50619" lon="6.59482">
        <ele>1947</ele>
        <time>2021-04-07T07:05:42Z</time>
      </trkpt>
      <trkpt lat="44.50619" lon="6.59482">
        <ele>1947</ele>
        <time>2021-04-07T07:05:43Z</time>
      </trkpt>
      <trkpt lat="44.50618" lon="6.59482">
        <ele>1947</ele>
        <time>2021-04-07T07:05:44Z</time>
      </trkpt>
      <trkpt lat="44.50618" lon="6.59483">
        <ele>1947</ele>
        <time>2021-04-07T07:05:45Z</time>
      </trkpt>
      <trkpt lat="44.50617" lon="6.59483">
        <ele>1948</ele>
        <time>2021-04-07T07:05:46Z</time>
      </trkpt>
      <trkpt lat="44.50617" lon="6.59483">
        <ele>1948</ele>
        <time>2021-04-07T07:05:47Z</time>
      </trkpt>
      <trkpt lat="44.50616" lon="6.59483">
        <ele>1948</ele>
        <time>2021-04-07T07:05:48Z</time>
      </trkpt>
      <trkpt lat="44.50616" lon="6.59483">
        <ele>1948</ele>
        <time>2021-04-07T07:05:49Z</time>
      </trkpt>
      <trkpt lat="44.50616" lon="6.59483">
        <ele>1948</ele>
        <time>2021-04-07T07:05:50Z</time>
      </trkpt>
      <trkpt lat="44.50615" lon="6.59482">
        <ele>1948</ele>
        <time>2021-04-07T07:05:51Z</time>
      </trkpt>
      <trkpt lat="44.50615" lon="6.59482">
        <ele>1948</ele>
        <time>2021-04-07T07:05:52Z</time>
      </trkpt>
      <trkpt lat="44.50616" lon="6.59482">
        <ele>1949</ele>
        <time>2021-04-07T07:05:53Z</time>
      </trkpt>
      <trkpt lat="44.50616" lon="6.59482">
        <ele>1949</ele>
        <time>2021-04-07T07:05:54Z</time>
      </trkpt>
      <trkpt lat="44.50615" lon="6.59483">
        <ele>1950</ele>
        <time>2021-04-07T07:05:55Z</time>
      </trkpt>
      <trkpt lat="44.50614" lon="6.59483">
        <ele>1950</ele>
        <time>2021-04-07T07:05:56Z</time>
      </trkpt>
      <trkpt lat="44.50613" lon="6.59483">
        <ele>1950</ele>
        <time>2021-04-07T07:05:57Z</time>
      </trkpt>
      <trkpt lat="44.50613" lon="6.59483">
        <ele>1950</ele>
        <time>2021-04-07T07:05:58Z</time>
      </trkpt>
      <trkpt lat="44.50612" lon="6.59483">
        <ele>1950</ele>
        <time>2021-04-07T07:05:59Z</time>
      </trkpt>
      <trkpt lat="44.50611" lon="6.59485">
        <ele>1950</ele>
        <time>2021-04-07T07:06:00Z</time>
      </trkpt>
      <trkpt lat="44.50611" lon="6.59485">
        <ele>1950</ele>
        <time>2021-04-07T07:06:01Z</time>
      </trkpt>
      <trkpt lat="44.5061" lon="6.59485">
        <ele>1950</ele>
        <time>2021-04-07T07:06:02Z</time>
      </trkpt>
      <trkpt lat="44.5061" lon="6.59485">
        <ele>1950</ele>
        <time>2021-04-07T07:06:03Z</time>
      </trkpt>
      <trkpt lat="44.50609" lon="6.59485">
        <ele>1950</ele>
        <time>2021-04-07T07:06:04Z</time>
      </trkpt>
      <trkpt lat="44.50608" lon="6.59485">
        <ele>1950</ele>
        <time>2021-04-07T07:06:05Z</time>
      </trkpt>
      <trkpt lat="44.50608" lon="6.59485">
        <ele>1950</ele>
        <time>2021-04-07T07:06:06Z</time>
      </trkpt>
      <trkpt lat="44.50608" lon="6.59485">
        <ele>1950</ele>
        <time>2021-04-07T07:06:07Z</time>
      </trkpt>
      <trkpt lat="44.50607" lon="6.59485">
        <ele>1950</ele>
        <time>2021-04-07T07:06:08Z</time>
      </trkpt>
      <trkpt lat="44.50607" lon="6.59485">
        <ele>1950</ele>
        <time>2021-04-07T07:06:09Z</time>
      </trkpt>
      <trkpt lat="44.50607" lon="6.59485">
        <ele>1950</ele>
        <time>2021-04-07T07:06:10Z</time>
      </trkpt>
      <trkpt lat="44.50607" lon="6.59485">
        <ele>1950</ele>
        <time>2021-04-07T07:06:11Z</time>
      </trkpt>
      <trkpt lat="44.50607" lon="6.59485">
        <ele>1950</ele>
        <time>2021-04-07T07:06:12Z</time>
      </trkpt>
      <trkpt lat="44.50607" lon="6.59485">
        <ele>1950</ele>
        <time>2021-04-07T07:06:13Z</time>
      </trkpt>
      <trkpt lat="44.50607" lon="6.59485">
        <ele>1950</ele>
        <time>2021-04-07T07:06:14Z</time>
      </trkpt>
      <trkpt lat="44.50607" lon="6.59485">
        <ele>1950</ele>
        <time>2021-04-07T07:06:15Z</time>
      </trkpt>
      <trkpt lat="44.50605" lon="6.59486">
        <ele>1950</ele>
        <time>2021-04-07T07:06:16Z</time>
      </trkpt>
      <trkpt lat="44.50605" lon="6.59486">
        <ele>1950</ele>
        <time>2021-04-07T07:06:17Z</time>
      </trkpt>
      <trkpt lat="44.50605" lon="6.59486">
        <ele>1950</ele>
        <time>2021-04-07T07:06:18Z</time>
      </trkpt>
      <trkpt lat="44.50605" lon="6.59486">
        <ele>1951</ele>
        <time>2021-04-07T07:06:19Z</time>
      </trkpt>
      <trkpt lat="44.50605" lon="6.59486">
        <ele>1951</ele>
        <time>2021-04-07T07:06:20Z</time>
      </trkpt>
      <trkpt lat="44.50605" lon="6.59486">
        <ele>1951</ele>
        <time>2021-04-07T07:06:21Z</time>
      </trkpt>
      <trkpt lat="44.50604" lon="6.59486">
        <ele>1951</ele>
        <time>2021-04-07T07:06:22Z</time>
      </trkpt>
      <trkpt lat="44.50604" lon="6.59486">
        <ele>1952</ele>
        <time>2021-04-07T07:06:23Z</time>
      </trkpt>
      <trkpt lat="44.50604" lon="6.59486">
        <ele>1952</ele>
        <time>2021-04-07T07:06:24Z</time>
      </trkpt>
      <trkpt lat="44.50605" lon="6.59486">
        <ele>1952</ele>
        <time>2021-04-07T07:06:25Z</time>
      </trkpt>
      <trkpt lat="44.50605" lon="6.59486">
        <ele>1952</ele>
        <time>2021-04-07T07:06:26Z</time>
      </trkpt>
      <trkpt lat="44.50605" lon="6.59486">
        <ele>1952</ele>
        <time>2021-04-07T07:06:27Z</time>
      </trkpt>
      <trkpt lat="44.50604" lon="6.59486">
        <ele>1952</ele>
        <time>2021-04-07T07:06:28Z</time>
      </trkpt>
      <trkpt lat="44.50604" lon="6.59486">
        <ele>1952</ele>
        <time>2021-04-07T07:06:29Z</time>
      </trkpt>
      <trkpt lat="44.50604" lon="6.59487">
        <ele>1952</ele>
        <time>2021-04-07T07:06:30Z</time>
      </trkpt>
      <trkpt lat="44.50604" lon="6.59487">
        <ele>1953</ele>
        <time>2021-04-07T07:06:31Z</time>
      </trkpt>
      <trkpt lat="44.50604" lon="6.59487">
        <ele>1953</ele>
        <time>2021-04-07T07:06:32Z</time>
      </trkpt>
      <trkpt lat="44.50604" lon="6.59487">
        <ele>1953</ele>
        <time>2021-04-07T07:06:33Z</time>
      </trkpt>
      <trkpt lat="44.50604" lon="6.59487">
        <ele>1953</ele>
        <time>2021-04-07T07:06:34Z</time>
      </trkpt>
      <trkpt lat="44.50603" lon="6.59485">
        <ele>1953</ele>
        <time>2021-04-07T07:06:35Z</time>
      </trkpt>
      <trkpt lat="44.50603" lon="6.59485">
        <ele>1953</ele>
        <time>2021-04-07T07:06:36Z</time>
      </trkpt>
      <trkpt lat="44.50603" lon="6.59485">
        <ele>1953</ele>
        <time>2021-04-07T07:06:37Z</time>
      </trkpt>
      <trkpt lat="44.50602" lon="6.59485">
        <ele>1953</ele>
        <time>2021-04-07T07:06:38Z</time>
      </trkpt>
      <trkpt lat="44.50602" lon="6.59485">
        <ele>1953</ele>
        <time>2021-04-07T07:06:39Z</time>
      </trkpt>
      <trkpt lat="44.50602" lon="6.59485">
        <ele>1953</ele>
        <time>2021-04-07T07:06:40Z</time>
      </trkpt>
      <trkpt lat="44.50602" lon="6.59485">
        <ele>1953</ele>
        <time>2021-04-07T07:06:41Z</time>
      </trkpt>
      <trkpt lat="44.50602" lon="6.59485">
        <ele>1953</ele>
        <time>2021-04-07T07:06:42Z</time>
      </trkpt>
      <trkpt lat="44.50602" lon="6.59485">
        <ele>1953</ele>
        <time>2021-04-07T07:06:43Z</time>
      </trkpt>
      <trkpt lat="44.50602" lon="6.59485">
        <ele>1953</ele>
        <time>2021-04-07T07:06:44Z</time>
      </trkpt>
      <trkpt lat="44.50603" lon="6.59487">
        <ele>1953</ele>
        <time>2021-04-07T07:06:45Z</time>
      </trkpt>
      <trkpt lat="44.50603" lon="6.59487">
        <ele>1954</ele>
        <time>2021-04-07T07:06:46Z</time>
      </trkpt>
      <trkpt lat="44.50604" lon="6.59487">
        <ele>1954</ele>
        <time>2021-04-07T07:06:47Z</time>
      </trkpt>
      <trkpt lat="44.50604" lon="6.59487">
        <ele>1954</ele>
        <time>2021-04-07T07:06:48Z</time>
      </trkpt>
      <trkpt lat="44.50605" lon="6.59486">
        <ele>1954</ele>
        <time>2021-04-07T07:06:49Z</time>
      </trkpt>
      <trkpt lat="44.50605" lon="6.59486">
        <ele>1954</ele>
        <time>2021-04-07T07:06:50Z</time>
      </trkpt>
      <trkpt lat="44.50605" lon="6.59485">
        <ele>1954</ele>
        <time>2021-04-07T07:06:51Z</time>
      </trkpt>
      <trkpt lat="44.50604" lon="6.59486">
        <ele>1954</ele>
        <time>2021-04-07T07:06:52Z</time>
      </trkpt>
      <trkpt lat="44.50604" lon="6.59485">
        <ele>1954</ele>
        <time>2021-04-07T07:06:53Z</time>
      </trkpt>
      <trkpt lat="44.50603" lon="6.59485">
        <ele>1954</ele>
        <time>2021-04-07T07:06:54Z</time>
      </trkpt>
      <trkpt lat="44.50603" lon="6.59485">
        <ele>1954</ele>
        <time>2021-04-07T07:06:55Z</time>
      </trkpt>
      <trkpt lat="44.50602" lon="6.59486">
        <ele>1954</ele>
        <time>2021-04-07T07:06:56Z</time>
      </trkpt>
      <trkpt lat="44.50601" lon="6.59486">
        <ele>1954</ele>
        <time>2021-04-07T07:06:57Z</time>
      </trkpt>
      <trkpt lat="44.506" lon="6.59486">
        <ele>1956</ele>
        <time>2021-04-07T07:06:58Z</time>
      </trkpt>
      <trkpt lat="44.50598" lon="6.59487">
        <ele>1957</ele>
        <time>2021-04-07T07:06:59Z</time>
      </trkpt>
      <trkpt lat="44.50598" lon="6.59488">
        <ele>1957</ele>
        <time>2021-04-07T07:07:00Z</time>
      </trkpt>
      <trkpt lat="44.50597" lon="6.59488">
        <ele>1957</ele>
        <time>2021-04-07T07:07:01Z</time>
      </trkpt>
      <trkpt lat="44.50597" lon="6.59488">
        <ele>1957</ele>
        <time>2021-04-07T07:07:02Z</time>
      </trkpt>
      <trkpt lat="44.50597" lon="6.59488">
        <ele>1957</ele>
        <time>2021-04-07T07:07:03Z</time>
      </trkpt>
      <trkpt lat="44.50597" lon="6.59488">
        <ele>1958</ele>
        <time>2021-04-07T07:07:04Z</time>
      </trkpt>
      <trkpt lat="44.50597" lon="6.59488">
        <ele>1958</ele>
        <time>2021-04-07T07:07:05Z</time>
      </trkpt>
      <trkpt lat="44.50594" lon="6.59486">
        <ele>1958</ele>
        <time>2021-04-07T07:07:06Z</time>
      </trkpt>
      <trkpt lat="44.50593" lon="6.59485">
        <ele>1958</ele>
        <time>2021-04-07T07:07:07Z</time>
      </trkpt>
      <trkpt lat="44.50593" lon="6.59485">
        <ele>1958</ele>
        <time>2021-04-07T07:07:08Z</time>
      </trkpt>
      <trkpt lat="44.50593" lon="6.59485">
        <ele>1957</ele>
        <time>2021-04-07T07:07:09Z</time>
      </trkpt>
      <trkpt lat="44.50593" lon="6.59484">
        <ele>1957</ele>
        <time>2021-04-07T07:07:10Z</time>
      </trkpt>
      <trkpt lat="44.50593" lon="6.59484">
        <ele>1957</ele>
        <time>2021-04-07T07:07:11Z</time>
      </trkpt>
      <trkpt lat="44.50593" lon="6.59483">
        <ele>1957</ele>
        <time>2021-04-07T07:07:12Z</time>
      </trkpt>
      <trkpt lat="44.50593" lon="6.59483">
        <ele>1957</ele>
        <time>2021-04-07T07:07:13Z</time>
      </trkpt>
      <trkpt lat="44.50593" lon="6.59483">
        <ele>1956</ele>
        <time>2021-04-07T07:07:14Z</time>
      </trkpt>
      <trkpt lat="44.50593" lon="6.59483">
        <ele>1956</ele>
        <time>2021-04-07T07:07:15Z</time>
      </trkpt>
      <trkpt lat="44.50593" lon="6.59483">
        <ele>1956</ele>
        <time>2021-04-07T07:07:16Z</time>
      </trkpt>
      <trkpt lat="44.50593" lon="6.59483">
        <ele>1956</ele>
        <time>2021-04-07T07:07:17Z</time>
      </trkpt>
      <trkpt lat="44.50593" lon="6.59483">
        <ele>1956</ele>
        <time>2021-04-07T07:07:18Z</time>
      </trkpt>
      <trkpt lat="44.50593" lon="6.59483">
        <ele>1956</ele>
        <time>2021-04-07T07:07:19Z</time>
      </trkpt>
      <trkpt lat="44.50594" lon="6.59481">
        <ele>1955</ele>
        <time>2021-04-07T07:07:20Z</time>
      </trkpt>
      <trkpt lat="44.50594" lon="6.59481">
        <ele>1955</ele>
        <time>2021-04-07T07:07:21Z</time>
      </trkpt>
      <trkpt lat="44.50595" lon="6.59481">
        <ele>1955</ele>
        <time>2021-04-07T07:07:22Z</time>
      </trkpt>
      <trkpt lat="44.50595" lon="6.59481">
        <ele>1955</ele>
        <time>2021-04-07T07:07:23Z</time>
      </trkpt>
      <trkpt lat="44.50595" lon="6.59481">
        <ele>1955</ele>
        <time>2021-04-07T07:07:24Z</time>
      </trkpt>
      <trkpt lat="44.50595" lon="6.59481">
        <ele>1955</ele>
        <time>2021-04-07T07:07:25Z</time>
      </trkpt>
      <trkpt lat="44.50595" lon="6.59481">
        <ele>1955</ele>
        <time>2021-04-07T07:07:26Z</time>
      </trkpt>
      <trkpt lat="44.50595" lon="6.59481">
        <ele>1955</ele>
        <time>2021-04-07T07:07:27Z</time>
      </trkpt>
      <trkpt lat="44.50595" lon="6.59481">
        <ele>1955</ele>
        <time>2021-04-07T07:07:28Z</time>
      </trkpt>
      <trkpt lat="44.50595" lon="6.59481">
        <ele>1955</ele>
        <time>2021-04-07T07:07:29Z</time>
      </trkpt>
      <trkpt lat="44.50595" lon="6.59481">
        <ele>1955</ele>
        <time>2021-04-07T07:07:30Z</time>
      </trkpt>
      <trkpt lat="44.50595" lon="6.59481">
        <ele>1955</ele>
        <time>2021-04-07T07:07:31Z</time>
      </trkpt>
      <trkpt lat="44.50595" lon="6.59481">
        <ele>1955</ele>
        <time>2021-04-07T07:07:32Z</time>
      </trkpt>
      <trkpt lat="44.50595" lon="6.59481">
        <ele>1955</ele>
        <time>2021-04-07T07:07:33Z</time>
      </trkpt>
      <trkpt lat="44.50595" lon="6.59481">
        <ele>1955</ele>
        <time>2021-04-07T07:07:34Z</time>
      </trkpt>
      <trkpt lat="44.50595" lon="6.59481">
        <ele>1955</ele>
        <time>2021-04-07T07:07:35Z</time>
      </trkpt>
      <trkpt lat="44.50595" lon="6.59481">
        <ele>1955</ele>
        <time>2021-04-07T07:07:36Z</time>
      </trkpt>
      <trkpt lat="44.50595" lon="6.59481">
        <ele>1955</ele>
        <time>2021-04-07T07:07:37Z</time>
      </trkpt>
      <trkpt lat="44.50595" lon="6.59481">
        <ele>1955</ele>
        <time>2021-04-07T07:07:38Z</time>
      </trkpt>
      <trkpt lat="44.50595" lon="6.59481">
        <ele>1955</ele>
        <time>2021-04-07T07:07:39Z</time>
      </trkpt>
      <trkpt lat="44.50595" lon="6.59481">
        <ele>1955</ele>
        <time>2021-04-07T07:07:40Z</time>
      </trkpt>
      <trkpt lat="44.50595" lon="6.59481">
        <ele>1955</ele>
        <time>2021-04-07T07:07:41Z</time>
      </trkpt>
      <trkpt lat="44.50595" lon="6.59481">
        <ele>1955</ele>
        <time>2021-04-07T07:07:42Z</time>
      </trkpt>
      <trkpt lat="44.50595" lon="6.59481">
        <ele>1955</ele>
        <time>2021-04-07T07:07:43Z</time>
      </trkpt>
      <trkpt lat="44.50595" lon="6.59481">
        <ele>1955</ele>
        <time>2021-04-07T07:07:44Z</time>
      </trkpt>
      <trkpt lat="44.50595" lon="6.59481">
        <ele>1955</ele>
        <time>2021-04-07T07:07:45Z</time>
      </trkpt>
      <trkpt lat="44.50595" lon="6.59481">
        <ele>1955</ele>
        <time>2021-04-07T07:07:46Z</time>
      </trkpt>
      <trkpt lat="44.50595" lon="6.59481">
        <ele>1955</ele>
        <time>2021-04-07T07:07:47Z</time>
      </trkpt>
      <trkpt lat="44.50595" lon="6.59481">
        <ele>1955</ele>
        <time>2021-04-07T07:07:48Z</time>
      </trkpt>
      <trkpt lat="44.50595" lon="6.59481">
        <ele>1955</ele>
        <time>2021-04-07T07:07:49Z</time>
      </trkpt>
      <trkpt lat="44.50595" lon="6.59481">
        <ele>1955</ele>
        <time>2021-04-07T07:07:50Z</time>
      </trkpt>
      <trkpt lat="44.50595" lon="6.59481">
        <ele>1955</ele>
        <time>2021-04-07T07:07:51Z</time>
      </trkpt>
      <trkpt lat="44.50595" lon="6.59481">
        <ele>1955</ele>
        <time>2021-04-07T07:07:52Z</time>
      </trkpt>
      <trkpt lat="44.50595" lon="6.59481">
        <ele>1955</ele>
        <time>2021-04-07T07:07:53Z</time>
      </trkpt>
      <trkpt lat="44.50595" lon="6.59481">
        <ele>1955</ele>
        <time>2021-04-07T07:07:54Z</time>
      </trkpt>
      <trkpt lat="44.50595" lon="6.59481">
        <ele>1955</ele>
        <time>2021-04-07T07:07:55Z</time>
      </trkpt>
      <trkpt lat="44.50595" lon="6.59481">
        <ele>1955</ele>
        <time>2021-04-07T07:07:56Z</time>
      </trkpt>
      <trkpt lat="44.50595" lon="6.59481">
        <ele>1955</ele>
        <time>2021-04-07T07:07:57Z</time>
      </trkpt>
      <trkpt lat="44.50595" lon="6.59481">
        <ele>1955</ele>
        <time>2021-04-07T07:07:58Z</time>
      </trkpt>
      <trkpt lat="44.50594" lon="6.5948">
        <ele>1955</ele>
        <time>2021-04-07T07:07:59Z</time>
      </trkpt>
      <trkpt lat="44.50593" lon="6.59481">
        <ele>1955</ele>
        <time>2021-04-07T07:08:00Z</time>
      </trkpt>
      <trkpt lat="44.50593" lon="6.59482">
        <ele>1955</ele>
        <time>2021-04-07T07:08:01Z</time>
      </trkpt>
      <trkpt lat="44.50593" lon="6.59482">
        <ele>1955</ele>
        <time>2021-04-07T07:08:02Z</time>
      </trkpt>
      <trkpt lat="44.50592" lon="6.59483">
        <ele>1955</ele>
        <time>2021-04-07T07:08:03Z</time>
      </trkpt>
      <trkpt lat="44.50592" lon="6.59483">
        <ele>1955</ele>
        <time>2021-04-07T07:08:04Z</time>
      </trkpt>
      <trkpt lat="44.50591" lon="6.59483">
        <ele>1955</ele>
        <time>2021-04-07T07:08:05Z</time>
      </trkpt>
      <trkpt lat="44.50591" lon="6.59484">
        <ele>1956</ele>
        <time>2021-04-07T07:08:06Z</time>
      </trkpt>
      <trkpt lat="44.50591" lon="6.59484">
        <ele>1956</ele>
        <time>2021-04-07T07:08:07Z</time>
      </trkpt>
      <trkpt lat="44.50591" lon="6.59485">
        <ele>1956</ele>
        <time>2021-04-07T07:08:08Z</time>
      </trkpt>
      <trkpt lat="44.5059" lon="6.59485">
        <ele>1956</ele>
        <time>2021-04-07T07:08:09Z</time>
      </trkpt>
      <trkpt lat="44.5059" lon="6.59486">
        <ele>1956</ele>
        <time>2021-04-07T07:08:10Z</time>
      </trkpt>
      <trkpt lat="44.50589" lon="6.59487">
        <ele>1956</ele>
        <time>2021-04-07T07:08:11Z</time>
      </trkpt>
      <trkpt lat="44.50589" lon="6.59489">
        <ele>1956</ele>
        <time>2021-04-07T07:08:12Z</time>
      </trkpt>
      <trkpt lat="44.50588" lon="6.59489">
        <ele>1956</ele>
        <time>2021-04-07T07:08:13Z</time>
      </trkpt>
      <trkpt lat="44.50588" lon="6.5949">
        <ele>1956</ele>
        <time>2021-04-07T07:08:14Z</time>
      </trkpt>
      <trkpt lat="44.50588" lon="6.5949">
        <ele>1956</ele>
        <time>2021-04-07T07:08:15Z</time>
      </trkpt>
      <trkpt lat="44.50587" lon="6.59489">
        <ele>1956</ele>
        <time>2021-04-07T07:08:16Z</time>
      </trkpt>
      <trkpt lat="44.50587" lon="6.59489">
        <ele>1956</ele>
        <time>2021-04-07T07:08:17Z</time>
      </trkpt>
      <trkpt lat="44.50587" lon="6.59489">
        <ele>1956</ele>
        <time>2021-04-07T07:08:18Z</time>
      </trkpt>
      <trkpt lat="44.50586" lon="6.59488">
        <ele>1956</ele>
        <time>2021-04-07T07:08:19Z</time>
      </trkpt>
      <trkpt lat="44.50586" lon="6.59488">
        <ele>1956</ele>
        <time>2021-04-07T07:08:20Z</time>
      </trkpt>
      <trkpt lat="44.50586" lon="6.59488">
        <ele>1956</ele>
        <time>2021-04-07T07:08:21Z</time>
      </trkpt>
      <trkpt lat="44.50586" lon="6.59487">
        <ele>1956</ele>
        <time>2021-04-07T07:08:22Z</time>
      </trkpt>
      <trkpt lat="44.50586" lon="6.59487">
        <ele>1956</ele>
        <time>2021-04-07T07:08:23Z</time>
      </trkpt>
      <trkpt lat="44.50586" lon="6.59487">
        <ele>1956</ele>
        <time>2021-04-07T07:08:24Z</time>
      </trkpt>
      <trkpt lat="44.50586" lon="6.59486">
        <ele>1956</ele>
        <time>2021-04-07T07:08:25Z</time>
      </trkpt>
      <trkpt lat="44.50585" lon="6.59485">
        <ele>1956</ele>
        <time>2021-04-07T07:08:26Z</time>
      </trkpt>
      <trkpt lat="44.50585" lon="6.59485">
        <ele>1956</ele>
        <time>2021-04-07T07:08:27Z</time>
      </trkpt>
      <trkpt lat="44.50585" lon="6.59484">
        <ele>1956</ele>
        <time>2021-04-07T07:08:28Z</time>
      </trkpt>
      <trkpt lat="44.50585" lon="6.59484">
        <ele>1955</ele>
        <time>2021-04-07T07:08:29Z</time>
      </trkpt>
      <trkpt lat="44.50584" lon="6.59483">
        <ele>1955</ele>
        <time>2021-04-07T07:08:30Z</time>
      </trkpt>
      <trkpt lat="44.50584" lon="6.59483">
        <ele>1955</ele>
        <time>2021-04-07T07:08:31Z</time>
      </trkpt>
      <trkpt lat="44.50583" lon="6.59481">
        <ele>1955</ele>
        <time>2021-04-07T07:08:32Z</time>
      </trkpt>
      <trkpt lat="44.50583" lon="6.59481">
        <ele>1955</ele>
        <time>2021-04-07T07:08:33Z</time>
      </trkpt>
      <trkpt lat="44.50582" lon="6.5948">
        <ele>1955</ele>
        <time>2021-04-07T07:08:34Z</time>
      </trkpt>
      <trkpt lat="44.50582" lon="6.5948">
        <ele>1955</ele>
        <time>2021-04-07T07:08:35Z</time>
      </trkpt>
      <trkpt lat="44.50581" lon="6.5948">
        <ele>1955</ele>
        <time>2021-04-07T07:08:36Z</time>
      </trkpt>
      <trkpt lat="44.5058" lon="6.5948">
        <ele>1955</ele>
        <time>2021-04-07T07:08:37Z</time>
      </trkpt>
      <trkpt lat="44.5058" lon="6.5948">
        <ele>1955</ele>
        <time>2021-04-07T07:08:38Z</time>
      </trkpt>
      <trkpt lat="44.5058" lon="6.5948">
        <ele>1955</ele>
        <time>2021-04-07T07:08:39Z</time>
      </trkpt>
      <trkpt lat="44.50579" lon="6.5948">
        <ele>1955</ele>
        <time>2021-04-07T07:08:40Z</time>
      </trkpt>
      <trkpt lat="44.50579" lon="6.59481">
        <ele>1955</ele>
        <time>2021-04-07T07:08:41Z</time>
      </trkpt>
      <trkpt lat="44.50578" lon="6.59482">
        <ele>1955</ele>
        <time>2021-04-07T07:08:42Z</time>
      </trkpt>
      <trkpt lat="44.50578" lon="6.59482">
        <ele>1955</ele>
        <time>2021-04-07T07:08:43Z</time>
      </trkpt>
      <trkpt lat="44.50578" lon="6.59482">
        <ele>1955</ele>
        <time>2021-04-07T07:08:44Z</time>
      </trkpt>
      <trkpt lat="44.50578" lon="6.59483">
        <ele>1955</ele>
        <time>2021-04-07T07:08:45Z</time>
      </trkpt>
      <trkpt lat="44.50578" lon="6.59483">
        <ele>1955</ele>
        <time>2021-04-07T07:08:46Z</time>
      </trkpt>
      <trkpt lat="44.50578" lon="6.59483">
        <ele>1955</ele>
        <time>2021-04-07T07:08:47Z</time>
      </trkpt>
      <trkpt lat="44.50577" lon="6.59484">
        <ele>1955</ele>
        <time>2021-04-07T07:08:48Z</time>
      </trkpt>
      <trkpt lat="44.50577" lon="6.59484">
        <ele>1955</ele>
        <time>2021-04-07T07:08:49Z</time>
      </trkpt>
      <trkpt lat="44.50576" lon="6.59485">
        <ele>1955</ele>
        <time>2021-04-07T07:08:50Z</time>
      </trkpt>
      <trkpt lat="44.50575" lon="6.59485">
        <ele>1955</ele>
        <time>2021-04-07T07:08:51Z</time>
      </trkpt>
      <trkpt lat="44.50574" lon="6.59485">
        <ele>1955</ele>
        <time>2021-04-07T07:08:52Z</time>
      </trkpt>
      <trkpt lat="44.50574" lon="6.59485">
        <ele>1956</ele>
        <time>2021-04-07T07:08:53Z</time>
      </trkpt>
      <trkpt lat="44.50574" lon="6.59485">
        <ele>1956</ele>
        <time>2021-04-07T07:08:54Z</time>
      </trkpt>
      <trkpt lat="44.50574" lon="6.59485">
        <ele>1956</ele>
        <time>2021-04-07T07:08:55Z</time>
      </trkpt>
      <trkpt lat="44.50574" lon="6.59485">
        <ele>1956</ele>
        <time>2021-04-07T07:08:56Z</time>
      </trkpt>
      <trkpt lat="44.50574" lon="6.59485">
        <ele>1956</ele>
        <time>2021-04-07T07:08:57Z</time>
      </trkpt>
      <trkpt lat="44.50574" lon="6.59484">
        <ele>1956</ele>
        <time>2021-04-07T07:08:58Z</time>
      </trkpt>
      <trkpt lat="44.50574" lon="6.59484">
        <ele>1957</ele>
        <time>2021-04-07T07:08:59Z</time>
      </trkpt>
      <trkpt lat="44.50574" lon="6.59485">
        <ele>1957</ele>
        <time>2021-04-07T07:09:00Z</time>
      </trkpt>
      <trkpt lat="44.50573" lon="6.59485">
        <ele>1957</ele>
        <time>2021-04-07T07:09:01Z</time>
      </trkpt>
      <trkpt lat="44.50573" lon="6.59485">
        <ele>1957</ele>
        <time>2021-04-07T07:09:02Z</time>
      </trkpt>
      <trkpt lat="44.50572" lon="6.59485">
        <ele>1958</ele>
        <time>2021-04-07T07:09:03Z</time>
      </trkpt>
      <trkpt lat="44.50572" lon="6.59485">
        <ele>1958</ele>
        <time>2021-04-07T07:09:04Z</time>
      </trkpt>
      <trkpt lat="44.50572" lon="6.59485">
        <ele>1958</ele>
        <time>2021-04-07T07:09:05Z</time>
      </trkpt>
      <trkpt lat="44.50572" lon="6.59485">
        <ele>1958</ele>
        <time>2021-04-07T07:09:06Z</time>
      </trkpt>
      <trkpt lat="44.50572" lon="6.59485">
        <ele>1958</ele>
        <time>2021-04-07T07:09:07Z</time>
      </trkpt>
      <trkpt lat="44.50572" lon="6.59485">
        <ele>1959</ele>
        <time>2021-04-07T07:09:08Z</time>
      </trkpt>
      <trkpt lat="44.50572" lon="6.59485">
        <ele>1960</ele>
        <time>2021-04-07T07:09:09Z</time>
      </trkpt>
      <trkpt lat="44.50572" lon="6.59485">
        <ele>1960</ele>
        <time>2021-04-07T07:09:10Z</time>
      </trkpt>
      <trkpt lat="44.50572" lon="6.59485">
        <ele>1960</ele>
        <time>2021-04-07T07:09:11Z</time>
      </trkpt>
      <trkpt lat="44.50572" lon="6.59485">
        <ele>1960</ele>
        <time>2021-04-07T07:09:12Z</time>
      </trkpt>
      <trkpt lat="44.50572" lon="6.59485">
        <ele>1960</ele>
        <time>2021-04-07T07:09:13Z</time>
      </trkpt>
      <trkpt lat="44.50572" lon="6.59485">
        <ele>1961</ele>
        <time>2021-04-07T07:09:14Z</time>
      </trkpt>
      <trkpt lat="44.50572" lon="6.59485">
        <ele>1961</ele>
        <time>2021-04-07T07:09:15Z</time>
      </trkpt>
      <trkpt lat="44.50569" lon="6.59486">
        <ele>1961</ele>
        <time>2021-04-07T07:09:16Z</time>
      </trkpt>
      <trkpt lat="44.50569" lon="6.59487">
        <ele>1961</ele>
        <time>2021-04-07T07:09:17Z</time>
      </trkpt>
      <trkpt lat="44.50568" lon="6.59487">
        <ele>1962</ele>
        <time>2021-04-07T07:09:18Z</time>
      </trkpt>
      <trkpt lat="44.50568" lon="6.59487">
        <ele>1962</ele>
        <time>2021-04-07T07:09:19Z</time>
      </trkpt>
      <trkpt lat="44.50567" lon="6.59488">
        <ele>1962</ele>
        <time>2021-04-07T07:09:20Z</time>
      </trkpt>
      <trkpt lat="44.50566" lon="6.59488">
        <ele>1962</ele>
        <time>2021-04-07T07:09:21Z</time>
      </trkpt>
      <trkpt lat="44.50566" lon="6.59488">
        <ele>1962</ele>
        <time>2021-04-07T07:09:22Z</time>
      </trkpt>
      <trkpt lat="44.50565" lon="6.59489">
        <ele>1963</ele>
        <time>2021-04-07T07:09:23Z</time>
      </trkpt>
      <trkpt lat="44.50565" lon="6.5949">
        <ele>1963</ele>
        <time>2021-04-07T07:09:24Z</time>
      </trkpt>
      <trkpt lat="44.50565" lon="6.5949">
        <ele>1963</ele>
        <time>2021-04-07T07:09:25Z</time>
      </trkpt>
      <trkpt lat="44.50564" lon="6.59491">
        <ele>1964</ele>
        <time>2021-04-07T07:09:26Z</time>
      </trkpt>
      <trkpt lat="44.50564" lon="6.59492">
        <ele>1964</ele>
        <time>2021-04-07T07:09:27Z</time>
      </trkpt>
      <trkpt lat="44.50564" lon="6.59491">
        <ele>1964</ele>
        <time>2021-04-07T07:09:28Z</time>
      </trkpt>
      <trkpt lat="44.50564" lon="6.59491">
        <ele>1964</ele>
        <time>2021-04-07T07:09:29Z</time>
      </trkpt>
      <trkpt lat="44.50566" lon="6.59481">
        <ele>1967</ele>
        <time>2021-04-07T07:09:30Z</time>
      </trkpt>
      <trkpt lat="44.50567" lon="6.59479">
        <ele>1968</ele>
        <time>2021-04-07T07:09:31Z</time>
      </trkpt>
      <trkpt lat="44.50567" lon="6.59479">
        <ele>1969</ele>
        <time>2021-04-07T07:09:32Z</time>
      </trkpt>
      <trkpt lat="44.50566" lon="6.59479">
        <ele>1970</ele>
        <time>2021-04-07T07:09:33Z</time>
      </trkpt>
      <trkpt lat="44.50567" lon="6.59481">
        <ele>1970</ele>
        <time>2021-04-07T07:09:34Z</time>
      </trkpt>
      <trkpt lat="44.50566" lon="6.59481">
        <ele>1970</ele>
        <time>2021-04-07T07:09:35Z</time>
      </trkpt>
      <trkpt lat="44.50566" lon="6.59481">
        <ele>1971</ele>
        <time>2021-04-07T07:09:36Z</time>
      </trkpt>
      <trkpt lat="44.50566" lon="6.59481">
        <ele>1971</ele>
        <time>2021-04-07T07:09:37Z</time>
      </trkpt>
      <trkpt lat="44.50565" lon="6.59482">
        <ele>1971</ele>
        <time>2021-04-07T07:09:38Z</time>
      </trkpt>
      <trkpt lat="44.50565" lon="6.59483">
        <ele>1971</ele>
        <time>2021-04-07T07:09:39Z</time>
      </trkpt>
      <trkpt lat="44.50565" lon="6.59484">
        <ele>1971</ele>
        <time>2021-04-07T07:09:40Z</time>
      </trkpt>
      <trkpt lat="44.50563" lon="6.59484">
        <ele>1971</ele>
        <time>2021-04-07T07:09:41Z</time>
      </trkpt>
      <trkpt lat="44.50563" lon="6.59484">
        <ele>1971</ele>
        <time>2021-04-07T07:09:42Z</time>
      </trkpt>
      <trkpt lat="44.50563" lon="6.59483">
        <ele>1971</ele>
        <time>2021-04-07T07:09:43Z</time>
      </trkpt>
      <trkpt lat="44.50563" lon="6.59483">
        <ele>1971</ele>
        <time>2021-04-07T07:09:44Z</time>
      </trkpt>
      <trkpt lat="44.50562" lon="6.59483">
        <ele>1972</ele>
        <time>2021-04-07T07:09:45Z</time>
      </trkpt>
      <trkpt lat="44.50562" lon="6.59484">
        <ele>1972</ele>
        <time>2021-04-07T07:09:46Z</time>
      </trkpt>
      <trkpt lat="44.50563" lon="6.59484">
        <ele>1972</ele>
        <time>2021-04-07T07:09:47Z</time>
      </trkpt>
      <trkpt lat="44.50562" lon="6.59485">
        <ele>1972</ele>
        <time>2021-04-07T07:09:48Z</time>
      </trkpt>
      <trkpt lat="44.50563" lon="6.59485">
        <ele>1972</ele>
        <time>2021-04-07T07:09:49Z</time>
      </trkpt>
      <trkpt lat="44.50563" lon="6.59485">
        <ele>1973</ele>
        <time>2021-04-07T07:09:50Z</time>
      </trkpt>
      <trkpt lat="44.50563" lon="6.59484">
        <ele>1973</ele>
        <time>2021-04-07T07:09:51Z</time>
      </trkpt>
      <trkpt lat="44.50562" lon="6.59483">
        <ele>1973</ele>
        <time>2021-04-07T07:09:52Z</time>
      </trkpt>
      <trkpt lat="44.50562" lon="6.59483">
        <ele>1973</ele>
        <time>2021-04-07T07:09:53Z</time>
      </trkpt>
      <trkpt lat="44.50561" lon="6.59483">
        <ele>1973</ele>
        <time>2021-04-07T07:09:54Z</time>
      </trkpt>
      <trkpt lat="44.5056" lon="6.59482">
        <ele>1973</ele>
        <time>2021-04-07T07:09:55Z</time>
      </trkpt>
      <trkpt lat="44.50561" lon="6.59482">
        <ele>1973</ele>
        <time>2021-04-07T07:09:56Z</time>
      </trkpt>
      <trkpt lat="44.50561" lon="6.59482">
        <ele>1973</ele>
        <time>2021-04-07T07:09:57Z</time>
      </trkpt>
      <trkpt lat="44.50561" lon="6.59482">
        <ele>1973</ele>
        <time>2021-04-07T07:09:58Z</time>
      </trkpt>
      <trkpt lat="44.5056" lon="6.59482">
        <ele>1973</ele>
        <time>2021-04-07T07:09:59Z</time>
      </trkpt>
      <trkpt lat="44.5056" lon="6.59482">
        <ele>1973</ele>
        <time>2021-04-07T07:10:00Z</time>
      </trkpt>
      <trkpt lat="44.5056" lon="6.59483">
        <ele>1973</ele>
        <time>2021-04-07T07:10:01Z</time>
      </trkpt>
      <trkpt lat="44.5056" lon="6.59483">
        <ele>1974</ele>
        <time>2021-04-07T07:10:02Z</time>
      </trkpt>
      <trkpt lat="44.5056" lon="6.59483">
        <ele>1974</ele>
        <time>2021-04-07T07:10:03Z</time>
      </trkpt>
      <trkpt lat="44.5056" lon="6.59483">
        <ele>1974</ele>
        <time>2021-04-07T07:10:04Z</time>
      </trkpt>
      <trkpt lat="44.5056" lon="6.59483">
        <ele>1974</ele>
        <time>2021-04-07T07:10:05Z</time>
      </trkpt>
      <trkpt lat="44.5056" lon="6.59483">
        <ele>1974</ele>
        <time>2021-04-07T07:10:06Z</time>
      </trkpt>
      <trkpt lat="44.5056" lon="6.59483">
        <ele>1974</ele>
        <time>2021-04-07T07:10:07Z</time>
      </trkpt>
      <trkpt lat="44.5056" lon="6.59483">
        <ele>1974</ele>
        <time>2021-04-07T07:10:08Z</time>
      </trkpt>
      <trkpt lat="44.5056" lon="6.59483">
        <ele>1974</ele>
        <time>2021-04-07T07:10:09Z</time>
      </trkpt>
      <trkpt lat="44.5056" lon="6.59483">
        <ele>1974</ele>
        <time>2021-04-07T07:10:10Z</time>
      </trkpt>
      <trkpt lat="44.5056" lon="6.59483">
        <ele>1974</ele>
        <time>2021-04-07T07:10:11Z</time>
      </trkpt>
      <trkpt lat="44.5056" lon="6.59483">
        <ele>1974</ele>
        <time>2021-04-07T07:10:12Z</time>
      </trkpt>
      <trkpt lat="44.5056" lon="6.59483">
        <ele>1974</ele>
        <time>2021-04-07T07:10:13Z</time>
      </trkpt>
      <trkpt lat="44.5056" lon="6.59483">
        <ele>1974</ele>
        <time>2021-04-07T07:10:14Z</time>
      </trkpt>
      <trkpt lat="44.5056" lon="6.59483">
        <ele>1974</ele>
        <time>2021-04-07T07:10:15Z</time>
      </trkpt>
      <trkpt lat="44.50558" lon="6.59482">
        <ele>1974</ele>
        <time>2021-04-07T07:10:16Z</time>
      </trkpt>
      <trkpt lat="44.50557" lon="6.59483">
        <ele>1974</ele>
        <time>2021-04-07T07:10:17Z</time>
      </trkpt>
      <trkpt lat="44.50557" lon="6.59485">
        <ele>1974</ele>
        <time>2021-04-07T07:10:18Z</time>
      </trkpt>
      <trkpt lat="44.50557" lon="6.59485">
        <ele>1975</ele>
        <time>2021-04-07T07:10:19Z</time>
      </trkpt>
      <trkpt lat="44.50556" lon="6.59486">
        <ele>1975</ele>
        <time>2021-04-07T07:10:20Z</time>
      </trkpt>
      <trkpt lat="44.50555" lon="6.59486">
        <ele>1975</ele>
        <time>2021-04-07T07:10:21Z</time>
      </trkpt>
      <trkpt lat="44.50555" lon="6.59486">
        <ele>1975</ele>
        <time>2021-04-07T07:10:22Z</time>
      </trkpt>
      <trkpt lat="44.50555" lon="6.59487">
        <ele>1975</ele>
        <time>2021-04-07T07:10:23Z</time>
      </trkpt>
      <trkpt lat="44.50554" lon="6.59488">
        <ele>1975</ele>
        <time>2021-04-07T07:10:24Z</time>
      </trkpt>
      <trkpt lat="44.50554" lon="6.59488">
        <ele>1975</ele>
        <time>2021-04-07T07:10:25Z</time>
      </trkpt>
      <trkpt lat="44.50554" lon="6.59488">
        <ele>1975</ele>
        <time>2021-04-07T07:10:26Z</time>
      </trkpt>
      <trkpt lat="44.50553" lon="6.59489">
        <ele>1976</ele>
        <time>2021-04-07T07:10:27Z</time>
      </trkpt>
      <trkpt lat="44.50553" lon="6.59489">
        <ele>1976</ele>
        <time>2021-04-07T07:10:28Z</time>
      </trkpt>
      <trkpt lat="44.50553" lon="6.59489">
        <ele>1976</ele>
        <time>2021-04-07T07:10:29Z</time>
      </trkpt>
      <trkpt lat="44.50553" lon="6.59489">
        <ele>1976</ele>
        <time>2021-04-07T07:10:30Z</time>
      </trkpt>
      <trkpt lat="44.50553" lon="6.5949">
        <ele>1976</ele>
        <time>2021-04-07T07:10:31Z</time>
      </trkpt>
      <trkpt lat="44.50553" lon="6.5949">
        <ele>1977</ele>
        <time>2021-04-07T07:10:32Z</time>
      </trkpt>
      <trkpt lat="44.50552" lon="6.59489">
        <ele>1977</ele>
        <time>2021-04-07T07:10:33Z</time>
      </trkpt>
      <trkpt lat="44.50552" lon="6.59488">
        <ele>1977</ele>
        <time>2021-04-07T07:10:34Z</time>
      </trkpt>
      <trkpt lat="44.50551" lon="6.59488">
        <ele>1977</ele>
        <time>2021-04-07T07:10:35Z</time>
      </trkpt>
      <trkpt lat="44.50551" lon="6.59487">
        <ele>1977</ele>
        <time>2021-04-07T07:10:36Z</time>
      </trkpt>
      <trkpt lat="44.5055" lon="6.59485">
        <ele>1977</ele>
        <time>2021-04-07T07:10:37Z</time>
      </trkpt>
      <trkpt lat="44.5055" lon="6.59484">
        <ele>1978</ele>
        <time>2021-04-07T07:10:38Z</time>
      </trkpt>
      <trkpt lat="44.50549" lon="6.59483">
        <ele>1978</ele>
        <time>2021-04-07T07:10:39Z</time>
      </trkpt>
      <trkpt lat="44.50549" lon="6.59482">
        <ele>1979</ele>
        <time>2021-04-07T07:10:40Z</time>
      </trkpt>
      <trkpt lat="44.50549" lon="6.59481">
        <ele>1979</ele>
        <time>2021-04-07T07:10:41Z</time>
      </trkpt>
      <trkpt lat="44.50549" lon="6.5948">
        <ele>1981</ele>
        <time>2021-04-07T07:10:42Z</time>
      </trkpt>
      <trkpt lat="44.50549" lon="6.59479">
        <ele>1982</ele>
        <time>2021-04-07T07:10:43Z</time>
      </trkpt>
      <trkpt lat="44.50549" lon="6.59478">
        <ele>1983</ele>
        <time>2021-04-07T07:10:44Z</time>
      </trkpt>
      <trkpt lat="44.50549" lon="6.59477">
        <ele>1983</ele>
        <time>2021-04-07T07:10:45Z</time>
      </trkpt>
      <trkpt lat="44.50548" lon="6.59477">
        <ele>1984</ele>
        <time>2021-04-07T07:10:46Z</time>
      </trkpt>
      <trkpt lat="44.50548" lon="6.59477">
        <ele>1984</ele>
        <time>2021-04-07T07:10:47Z</time>
      </trkpt>
      <trkpt lat="44.50548" lon="6.59476">
        <ele>1985</ele>
        <time>2021-04-07T07:10:48Z</time>
      </trkpt>
      <trkpt lat="44.50548" lon="6.59476">
        <ele>1985</ele>
        <time>2021-04-07T07:10:49Z</time>
      </trkpt>
      <trkpt lat="44.50547" lon="6.59476">
        <ele>1987</ele>
        <time>2021-04-07T07:10:50Z</time>
      </trkpt>
      <trkpt lat="44.50547" lon="6.59475">
        <ele>1988</ele>
        <time>2021-04-07T07:10:51Z</time>
      </trkpt>
      <trkpt lat="44.50547" lon="6.59475">
        <ele>1988</ele>
        <time>2021-04-07T07:10:52Z</time>
      </trkpt>
      <trkpt lat="44.50547" lon="6.59474">
        <ele>1988</ele>
        <time>2021-04-07T07:10:53Z</time>
      </trkpt>
      <trkpt lat="44.50546" lon="6.59474">
        <ele>1989</ele>
        <time>2021-04-07T07:10:54Z</time>
      </trkpt>
      <trkpt lat="44.50546" lon="6.59474">
        <ele>1989</ele>
        <time>2021-04-07T07:10:55Z</time>
      </trkpt>
      <trkpt lat="44.50546" lon="6.59473">
        <ele>1989</ele>
        <time>2021-04-07T07:10:56Z</time>
      </trkpt>
      <trkpt lat="44.50546" lon="6.59473">
        <ele>1989</ele>
        <time>2021-04-07T07:10:57Z</time>
      </trkpt>
      <trkpt lat="44.50545" lon="6.59473">
        <ele>1989</ele>
        <time>2021-04-07T07:10:58Z</time>
      </trkpt>
      <trkpt lat="44.50545" lon="6.59473">
        <ele>1989</ele>
        <time>2021-04-07T07:10:59Z</time>
      </trkpt>
      <trkpt lat="44.50544" lon="6.59472">
        <ele>1990</ele>
        <time>2021-04-07T07:11:00Z</time>
      </trkpt>
      <trkpt lat="44.50544" lon="6.59471">
        <ele>1990</ele>
        <time>2021-04-07T07:11:01Z</time>
      </trkpt>
      <trkpt lat="44.50543" lon="6.59471">
        <ele>1990</ele>
        <time>2021-04-07T07:11:02Z</time>
      </trkpt>
      <trkpt lat="44.50543" lon="6.5947">
        <ele>1990</ele>
        <time>2021-04-07T07:11:03Z</time>
      </trkpt>
      <trkpt lat="44.50543" lon="6.5947">
        <ele>1991</ele>
        <time>2021-04-07T07:11:04Z</time>
      </trkpt>
      <trkpt lat="44.50543" lon="6.5947">
        <ele>1991</ele>
        <time>2021-04-07T07:11:05Z</time>
      </trkpt>
      <trkpt lat="44.50543" lon="6.5947">
        <ele>1991</ele>
        <time>2021-04-07T07:11:06Z</time>
      </trkpt>
      <trkpt lat="44.50543" lon="6.5947">
        <ele>1991</ele>
        <time>2021-04-07T07:11:07Z</time>
      </trkpt>
      <trkpt lat="44.50543" lon="6.5947">
        <ele>1991</ele>
        <time>2021-04-07T07:11:08Z</time>
      </trkpt>
      <trkpt lat="44.50541" lon="6.59466">
        <ele>1991</ele>
        <time>2021-04-07T07:11:09Z</time>
      </trkpt>
      <trkpt lat="44.50541" lon="6.59465">
        <ele>1992</ele>
        <time>2021-04-07T07:11:10Z</time>
      </trkpt>
      <trkpt lat="44.50541" lon="6.59464">
        <ele>1992</ele>
        <time>2021-04-07T07:11:11Z</time>
      </trkpt>
      <trkpt lat="44.5054" lon="6.59463">
        <ele>1992</ele>
        <time>2021-04-07T07:11:12Z</time>
      </trkpt>
      <trkpt lat="44.5054" lon="6.59463">
        <ele>1992</ele>
        <time>2021-04-07T07:11:13Z</time>
      </trkpt>
      <trkpt lat="44.5054" lon="6.59462">
        <ele>1993</ele>
        <time>2021-04-07T07:11:14Z</time>
      </trkpt>
      <trkpt lat="44.50541" lon="6.59461">
        <ele>1993</ele>
        <time>2021-04-07T07:11:15Z</time>
      </trkpt>
      <trkpt lat="44.50541" lon="6.59461">
        <ele>1993</ele>
        <time>2021-04-07T07:11:16Z</time>
      </trkpt>
      <trkpt lat="44.50541" lon="6.5946">
        <ele>1993</ele>
        <time>2021-04-07T07:11:17Z</time>
      </trkpt>
      <trkpt lat="44.50541" lon="6.59459">
        <ele>1993</ele>
        <time>2021-04-07T07:11:18Z</time>
      </trkpt>
      <trkpt lat="44.50542" lon="6.59458">
        <ele>1993</ele>
        <time>2021-04-07T07:11:19Z</time>
      </trkpt>
      <trkpt lat="44.50542" lon="6.59458">
        <ele>1993</ele>
        <time>2021-04-07T07:11:20Z</time>
      </trkpt>
      <trkpt lat="44.50542" lon="6.59458">
        <ele>1993</ele>
        <time>2021-04-07T07:11:21Z</time>
      </trkpt>
      <trkpt lat="44.50541" lon="6.59458">
        <ele>1993</ele>
        <time>2021-04-07T07:11:22Z</time>
      </trkpt>
      <trkpt lat="44.50541" lon="6.59458">
        <ele>1993</ele>
        <time>2021-04-07T07:11:23Z</time>
      </trkpt>
      <trkpt lat="44.5054" lon="6.59459">
        <ele>1993</ele>
        <time>2021-04-07T07:11:24Z</time>
      </trkpt>
      <trkpt lat="44.50539" lon="6.59459">
        <ele>1993</ele>
        <time>2021-04-07T07:11:25Z</time>
      </trkpt>
      <trkpt lat="44.50538" lon="6.5946">
        <ele>1994</ele>
        <time>2021-04-07T07:11:26Z</time>
      </trkpt>
      <trkpt lat="44.50538" lon="6.59461">
        <ele>1994</ele>
        <time>2021-04-07T07:11:27Z</time>
      </trkpt>
      <trkpt lat="44.50537" lon="6.59461">
        <ele>1994</ele>
        <time>2021-04-07T07:11:28Z</time>
      </trkpt>
      <trkpt lat="44.50537" lon="6.59461">
        <ele>1994</ele>
        <time>2021-04-07T07:11:29Z</time>
      </trkpt>
      <trkpt lat="44.50536" lon="6.59462">
        <ele>1994</ele>
        <time>2021-04-07T07:11:30Z</time>
      </trkpt>
      <trkpt lat="44.50535" lon="6.59461">
        <ele>1994</ele>
        <time>2021-04-07T07:11:31Z</time>
      </trkpt>
      <trkpt lat="44.50535" lon="6.59461">
        <ele>1994</ele>
        <time>2021-04-07T07:11:32Z</time>
      </trkpt>
      <trkpt lat="44.50535" lon="6.5946">
        <ele>1994</ele>
        <time>2021-04-07T07:11:33Z</time>
      </trkpt>
      <trkpt lat="44.50535" lon="6.59459">
        <ele>1994</ele>
        <time>2021-04-07T07:11:34Z</time>
      </trkpt>
      <trkpt lat="44.50535" lon="6.59458">
        <ele>1994</ele>
        <time>2021-04-07T07:11:35Z</time>
      </trkpt>
      <trkpt lat="44.50535" lon="6.59457">
        <ele>1994</ele>
        <time>2021-04-07T07:11:36Z</time>
      </trkpt>
      <trkpt lat="44.50536" lon="6.59457">
        <ele>1995</ele>
        <time>2021-04-07T07:11:37Z</time>
      </trkpt>
      <trkpt lat="44.50536" lon="6.59456">
        <ele>1995</ele>
        <time>2021-04-07T07:11:38Z</time>
      </trkpt>
      <trkpt lat="44.50536" lon="6.59455">
        <ele>1995</ele>
        <time>2021-04-07T07:11:39Z</time>
      </trkpt>
      <trkpt lat="44.50536" lon="6.59454">
        <ele>1995</ele>
        <time>2021-04-07T07:11:40Z</time>
      </trkpt>
      <trkpt lat="44.50535" lon="6.59454">
        <ele>1995</ele>
        <time>2021-04-07T07:11:41Z</time>
      </trkpt>
      <trkpt lat="44.50535" lon="6.59454">
        <ele>1995</ele>
        <time>2021-04-07T07:11:42Z</time>
      </trkpt>
      <trkpt lat="44.50535" lon="6.59454">
        <ele>1995</ele>
        <time>2021-04-07T07:11:43Z</time>
      </trkpt>
      <trkpt lat="44.50535" lon="6.59454">
        <ele>1995</ele>
        <time>2021-04-07T07:11:44Z</time>
      </trkpt>
      <trkpt lat="44.50535" lon="6.59454">
        <ele>1995</ele>
        <time>2021-04-07T07:11:45Z</time>
      </trkpt>
      <trkpt lat="44.50536" lon="6.59454">
        <ele>1995</ele>
        <time>2021-04-07T07:11:46Z</time>
      </trkpt>
      <trkpt lat="44.50537" lon="6.59454">
        <ele>1995</ele>
        <time>2021-04-07T07:11:47Z</time>
      </trkpt>
      <trkpt lat="44.50537" lon="6.59454">
        <ele>1995</ele>
        <time>2021-04-07T07:11:48Z</time>
      </trkpt>
      <trkpt lat="44.50537" lon="6.59454">
        <ele>1995</ele>
        <time>2021-04-07T07:11:49Z</time>
      </trkpt>
      <trkpt lat="44.50537" lon="6.59455">
        <ele>1995</ele>
        <time>2021-04-07T07:11:50Z</time>
      </trkpt>
      <trkpt lat="44.50537" lon="6.59454">
        <ele>1995</ele>
        <time>2021-04-07T07:11:51Z</time>
      </trkpt>
      <trkpt lat="44.50537" lon="6.59454">
        <ele>1995</ele>
        <time>2021-04-07T07:11:52Z</time>
      </trkpt>
      <trkpt lat="44.50536" lon="6.59454">
        <ele>1995</ele>
        <time>2021-04-07T07:11:53Z</time>
      </trkpt>
      <trkpt lat="44.50535" lon="6.59454">
        <ele>1995</ele>
        <time>2021-04-07T07:11:54Z</time>
      </trkpt>
      <trkpt lat="44.50535" lon="6.59454">
        <ele>1995</ele>
        <time>2021-04-07T07:11:55Z</time>
      </trkpt>
      <trkpt lat="44.50534" lon="6.59454">
        <ele>1995</ele>
        <time>2021-04-07T07:11:56Z</time>
      </trkpt>
      <trkpt lat="44.50534" lon="6.59455">
        <ele>1995</ele>
        <time>2021-04-07T07:11:57Z</time>
      </trkpt>
      <trkpt lat="44.50533" lon="6.59455">
        <ele>1995</ele>
        <time>2021-04-07T07:11:58Z</time>
      </trkpt>
      <trkpt lat="44.50532" lon="6.59455">
        <ele>1995</ele>
        <time>2021-04-07T07:11:59Z</time>
      </trkpt>
      <trkpt lat="44.50531" lon="6.59455">
        <ele>1995</ele>
        <time>2021-04-07T07:12:00Z</time>
      </trkpt>
      <trkpt lat="44.50531" lon="6.59455">
        <ele>1995</ele>
        <time>2021-04-07T07:12:01Z</time>
      </trkpt>
      <trkpt lat="44.5053" lon="6.59456">
        <ele>1995</ele>
        <time>2021-04-07T07:12:02Z</time>
      </trkpt>
      <trkpt lat="44.50529" lon="6.59456">
        <ele>1995</ele>
        <time>2021-04-07T07:12:03Z</time>
      </trkpt>
      <trkpt lat="44.50529" lon="6.59456">
        <ele>1995</ele>
        <time>2021-04-07T07:12:04Z</time>
      </trkpt>
      <trkpt lat="44.50528" lon="6.59457">
        <ele>1995</ele>
        <time>2021-04-07T07:12:05Z</time>
      </trkpt>
      <trkpt lat="44.50528" lon="6.59457">
        <ele>1995</ele>
        <time>2021-04-07T07:12:06Z</time>
      </trkpt>
      <trkpt lat="44.50527" lon="6.59457">
        <ele>1995</ele>
        <time>2021-04-07T07:12:07Z</time>
      </trkpt>
      <trkpt lat="44.50526" lon="6.59457">
        <ele>1995</ele>
        <time>2021-04-07T07:12:08Z</time>
      </trkpt>
      <trkpt lat="44.50526" lon="6.59457">
        <ele>1995</ele>
        <time>2021-04-07T07:12:09Z</time>
      </trkpt>
      <trkpt lat="44.50526" lon="6.59458">
        <ele>1995</ele>
        <time>2021-04-07T07:12:10Z</time>
      </trkpt>
      <trkpt lat="44.50525" lon="6.59458">
        <ele>1995</ele>
        <time>2021-04-07T07:12:11Z</time>
      </trkpt>
      <trkpt lat="44.50525" lon="6.59459">
        <ele>1995</ele>
        <time>2021-04-07T07:12:12Z</time>
      </trkpt>
      <trkpt lat="44.50524" lon="6.59459">
        <ele>1995</ele>
        <time>2021-04-07T07:12:13Z</time>
      </trkpt>
      <trkpt lat="44.50524" lon="6.59458">
        <ele>1995</ele>
        <time>2021-04-07T07:12:14Z</time>
      </trkpt>
      <trkpt lat="44.50524" lon="6.59457">
        <ele>1995</ele>
        <time>2021-04-07T07:12:15Z</time>
      </trkpt>
      <trkpt lat="44.50524" lon="6.59457">
        <ele>1995</ele>
        <time>2021-04-07T07:12:16Z</time>
      </trkpt>
      <trkpt lat="44.50524" lon="6.59457">
        <ele>1995</ele>
        <time>2021-04-07T07:12:17Z</time>
      </trkpt>
      <trkpt lat="44.50524" lon="6.59457">
        <ele>1995</ele>
        <time>2021-04-07T07:12:18Z</time>
      </trkpt>
      <trkpt lat="44.50524" lon="6.59457">
        <ele>1995</ele>
        <time>2021-04-07T07:12:19Z</time>
      </trkpt>
      <trkpt lat="44.50524" lon="6.59457">
        <ele>1995</ele>
        <time>2021-04-07T07:12:20Z</time>
      </trkpt>
      <trkpt lat="44.50524" lon="6.59457">
        <ele>1995</ele>
        <time>2021-04-07T07:12:21Z</time>
      </trkpt>
      <trkpt lat="44.50524" lon="6.59457">
        <ele>1995</ele>
        <time>2021-04-07T07:12:22Z</time>
      </trkpt>
      <trkpt lat="44.50524" lon="6.59457">
        <ele>1995</ele>
        <time>2021-04-07T07:12:23Z</time>
      </trkpt>
      <trkpt lat="44.50523" lon="6.59451">
        <ele>1996</ele>
        <time>2021-04-07T07:12:24Z</time>
      </trkpt>
      <trkpt lat="44.50523" lon="6.5945">
        <ele>1996</ele>
        <time>2021-04-07T07:12:25Z</time>
      </trkpt>
      <trkpt lat="44.50523" lon="6.59449">
        <ele>1996</ele>
        <time>2021-04-07T07:12:26Z</time>
      </trkpt>
      <trkpt lat="44.50523" lon="6.59449">
        <ele>1997</ele>
        <time>2021-04-07T07:12:27Z</time>
      </trkpt>
      <trkpt lat="44.50523" lon="6.59448">
        <ele>1997</ele>
        <time>2021-04-07T07:12:28Z</time>
      </trkpt>
      <trkpt lat="44.50523" lon="6.59448">
        <ele>1997</ele>
        <time>2021-04-07T07:12:29Z</time>
      </trkpt>
      <trkpt lat="44.50523" lon="6.59449">
        <ele>1997</ele>
        <time>2021-04-07T07:12:30Z</time>
      </trkpt>
      <trkpt lat="44.50522" lon="6.5945">
        <ele>1997</ele>
        <time>2021-04-07T07:12:31Z</time>
      </trkpt>
      <trkpt lat="44.50522" lon="6.5945">
        <ele>1997</ele>
        <time>2021-04-07T07:12:32Z</time>
      </trkpt>
      <trkpt lat="44.50521" lon="6.59451">
        <ele>1997</ele>
        <time>2021-04-07T07:12:33Z</time>
      </trkpt>
      <trkpt lat="44.50521" lon="6.59451">
        <ele>1997</ele>
        <time>2021-04-07T07:12:34Z</time>
      </trkpt>
      <trkpt lat="44.5052" lon="6.59451">
        <ele>1997</ele>
        <time>2021-04-07T07:12:35Z</time>
      </trkpt>
      <trkpt lat="44.5052" lon="6.59451">
        <ele>1997</ele>
        <time>2021-04-07T07:12:36Z</time>
      </trkpt>
      <trkpt lat="44.5052" lon="6.59451">
        <ele>1998</ele>
        <time>2021-04-07T07:12:37Z</time>
      </trkpt>
      <trkpt lat="44.5052" lon="6.59451">
        <ele>1998</ele>
        <time>2021-04-07T07:12:38Z</time>
      </trkpt>
      <trkpt lat="44.5052" lon="6.59451">
        <ele>1998</ele>
        <time>2021-04-07T07:12:39Z</time>
      </trkpt>
      <trkpt lat="44.5052" lon="6.59451">
        <ele>1998</ele>
        <time>2021-04-07T07:12:40Z</time>
      </trkpt>
      <trkpt lat="44.5052" lon="6.59451">
        <ele>1998</ele>
        <time>2021-04-07T07:12:41Z</time>
      </trkpt>
      <trkpt lat="44.5052" lon="6.59451">
        <ele>1998</ele>
        <time>2021-04-07T07:12:42Z</time>
      </trkpt>
      <trkpt lat="44.5052" lon="6.59451">
        <ele>1998</ele>
        <time>2021-04-07T07:12:43Z</time>
      </trkpt>
      <trkpt lat="44.5052" lon="6.59451">
        <ele>1998</ele>
        <time>2021-04-07T07:12:44Z</time>
      </trkpt>
      <trkpt lat="44.5052" lon="6.59451">
        <ele>1998</ele>
        <time>2021-04-07T07:12:45Z</time>
      </trkpt>
      <trkpt lat="44.5052" lon="6.59451">
        <ele>1998</ele>
        <time>2021-04-07T07:12:46Z</time>
      </trkpt>
      <trkpt lat="44.5052" lon="6.59451">
        <ele>1998</ele>
        <time>2021-04-07T07:12:47Z</time>
      </trkpt>
      <trkpt lat="44.5052" lon="6.59451">
        <ele>1998</ele>
        <time>2021-04-07T07:12:48Z</time>
      </trkpt>
      <trkpt lat="44.5052" lon="6.59451">
        <ele>1998</ele>
        <time>2021-04-07T07:12:49Z</time>
      </trkpt>
      <trkpt lat="44.5052" lon="6.59451">
        <ele>1998</ele>
        <time>2021-04-07T07:12:50Z</time>
      </trkpt>
      <trkpt lat="44.5052" lon="6.59451">
        <ele>1998</ele>
        <time>2021-04-07T07:12:51Z</time>
      </trkpt>
      <trkpt lat="44.5052" lon="6.59451">
        <ele>1998</ele>
        <time>2021-04-07T07:12:52Z</time>
      </trkpt>
      <trkpt lat="44.5052" lon="6.59451">
        <ele>1998</ele>
        <time>2021-04-07T07:12:53Z</time>
      </trkpt>
      <trkpt lat="44.50518" lon="6.59453">
        <ele>1998</ele>
        <time>2021-04-07T07:12:54Z</time>
      </trkpt>
      <trkpt lat="44.50518" lon="6.59452">
        <ele>1998</ele>
        <time>2021-04-07T07:12:55Z</time>
      </trkpt>
      <trkpt lat="44.50518" lon="6.59452">
        <ele>1998</ele>
        <time>2021-04-07T07:12:56Z</time>
      </trkpt>
      <trkpt lat="44.50518" lon="6.59452">
        <ele>1998</ele>
        <time>2021-04-07T07:12:57Z</time>
      </trkpt>
      <trkpt lat="44.50518" lon="6.59452">
        <ele>1998</ele>
        <time>2021-04-07T07:12:58Z</time>
      </trkpt>
      <trkpt lat="44.50518" lon="6.59452">
        <ele>1998</ele>
        <time>2021-04-07T07:12:59Z</time>
      </trkpt>
      <trkpt lat="44.50518" lon="6.59452">
        <ele>1998</ele>
        <time>2021-04-07T07:13:00Z</time>
      </trkpt>
      <trkpt lat="44.50518" lon="6.59452">
        <ele>1998</ele>
        <time>2021-04-07T07:13:01Z</time>
      </trkpt>
      <trkpt lat="44.50518" lon="6.59452">
        <ele>1998</ele>
        <time>2021-04-07T07:13:02Z</time>
      </trkpt>
      <trkpt lat="44.50518" lon="6.59452">
        <ele>1998</ele>
        <time>2021-04-07T07:13:03Z</time>
      </trkpt>
      <trkpt lat="44.50518" lon="6.59452">
        <ele>1998</ele>
        <time>2021-04-07T07:13:04Z</time>
      </trkpt>
      <trkpt lat="44.50518" lon="6.59452">
        <ele>1998</ele>
        <time>2021-04-07T07:13:05Z</time>
      </trkpt>
      <trkpt lat="44.50518" lon="6.59452">
        <ele>1998</ele>
        <time>2021-04-07T07:13:06Z</time>
      </trkpt>
      <trkpt lat="44.50518" lon="6.59452">
        <ele>1998</ele>
        <time>2021-04-07T07:13:07Z</time>
      </trkpt>
      <trkpt lat="44.50518" lon="6.59452">
        <ele>1998</ele>
        <time>2021-04-07T07:13:08Z</time>
      </trkpt>
      <trkpt lat="44.50518" lon="6.59452">
        <ele>1998</ele>
        <time>2021-04-07T07:13:09Z</time>
      </trkpt>
      <trkpt lat="44.50516" lon="6.59454">
        <ele>1997</ele>
        <time>2021-04-07T07:13:10Z</time>
      </trkpt>
      <trkpt lat="44.50516" lon="6.59454">
        <ele>1997</ele>
        <time>2021-04-07T07:13:11Z</time>
      </trkpt>
      <trkpt lat="44.50515" lon="6.59454">
        <ele>1997</ele>
        <time>2021-04-07T07:13:12Z</time>
      </trkpt>
      <trkpt lat="44.50514" lon="6.59454">
        <ele>1997</ele>
        <time>2021-04-07T07:13:13Z</time>
      </trkpt>
      <trkpt lat="44.50513" lon="6.59454">
        <ele>1997</ele>
        <time>2021-04-07T07:13:14Z</time>
      </trkpt>
      <trkpt lat="44.50513" lon="6.59454">
        <ele>1997</ele>
        <time>2021-04-07T07:13:15Z</time>
      </trkpt>
      <trkpt lat="44.50512" lon="6.59454">
        <ele>1998</ele>
        <time>2021-04-07T07:13:16Z</time>
      </trkpt>
      <trkpt lat="44.50512" lon="6.59455">
        <ele>1998</ele>
        <time>2021-04-07T07:13:17Z</time>
      </trkpt>
      <trkpt lat="44.50511" lon="6.59455">
        <ele>1998</ele>
        <time>2021-04-07T07:13:18Z</time>
      </trkpt>
      <trkpt lat="44.50511" lon="6.59455">
        <ele>1999</ele>
        <time>2021-04-07T07:13:19Z</time>
      </trkpt>
      <trkpt lat="44.5051" lon="6.59454">
        <ele>1999</ele>
        <time>2021-04-07T07:13:20Z</time>
      </trkpt>
      <trkpt lat="44.5051" lon="6.59455">
        <ele>1999</ele>
        <time>2021-04-07T07:13:21Z</time>
      </trkpt>
      <trkpt lat="44.5051" lon="6.59455">
        <ele>1999</ele>
        <time>2021-04-07T07:13:22Z</time>
      </trkpt>
      <trkpt lat="44.50509" lon="6.59455">
        <ele>1999</ele>
        <time>2021-04-07T07:13:23Z</time>
      </trkpt>
      <trkpt lat="44.50509" lon="6.59456">
        <ele>1999</ele>
        <time>2021-04-07T07:13:24Z</time>
      </trkpt>
      <trkpt lat="44.50508" lon="6.59456">
        <ele>2000</ele>
        <time>2021-04-07T07:13:25Z</time>
      </trkpt>
      <trkpt lat="44.50508" lon="6.59458">
        <ele>2000</ele>
        <time>2021-04-07T07:13:26Z</time>
      </trkpt>
      <trkpt lat="44.50507" lon="6.59458">
        <ele>2000</ele>
        <time>2021-04-07T07:13:27Z</time>
      </trkpt>
      <trkpt lat="44.50506" lon="6.59459">
        <ele>2000</ele>
        <time>2021-04-07T07:13:28Z</time>
      </trkpt>
      <trkpt lat="44.50506" lon="6.5946">
        <ele>2001</ele>
        <time>2021-04-07T07:13:29Z</time>
      </trkpt>
      <trkpt lat="44.50505" lon="6.59461">
        <ele>2001</ele>
        <time>2021-04-07T07:13:30Z</time>
      </trkpt>
      <trkpt lat="44.50505" lon="6.59461">
        <ele>2001</ele>
        <time>2021-04-07T07:13:31Z</time>
      </trkpt>
      <trkpt lat="44.50505" lon="6.59462">
        <ele>2001</ele>
        <time>2021-04-07T07:13:32Z</time>
      </trkpt>
      <trkpt lat="44.50504" lon="6.59463">
        <ele>2001</ele>
        <time>2021-04-07T07:13:33Z</time>
      </trkpt>
      <trkpt lat="44.50504" lon="6.59464">
        <ele>2002</ele>
        <time>2021-04-07T07:13:34Z</time>
      </trkpt>
      <trkpt lat="44.50503" lon="6.59465">
        <ele>2002</ele>
        <time>2021-04-07T07:13:35Z</time>
      </trkpt>
      <trkpt lat="44.50503" lon="6.59466">
        <ele>2002</ele>
        <time>2021-04-07T07:13:36Z</time>
      </trkpt>
      <trkpt lat="44.50503" lon="6.59467">
        <ele>2002</ele>
        <time>2021-04-07T07:13:37Z</time>
      </trkpt>
      <trkpt lat="44.50502" lon="6.59467">
        <ele>2002</ele>
        <time>2021-04-07T07:13:38Z</time>
      </trkpt>
      <trkpt lat="44.50502" lon="6.59467">
        <ele>2002</ele>
        <time>2021-04-07T07:13:39Z</time>
      </trkpt>
      <trkpt lat="44.50501" lon="6.59467">
        <ele>2002</ele>
        <time>2021-04-07T07:13:40Z</time>
      </trkpt>
      <trkpt lat="44.50501" lon="6.59467">
        <ele>2002</ele>
        <time>2021-04-07T07:13:41Z</time>
      </trkpt>
      <trkpt lat="44.50501" lon="6.59468">
        <ele>2002</ele>
        <time>2021-04-07T07:13:42Z</time>
      </trkpt>
      <trkpt lat="44.50501" lon="6.59469">
        <ele>2002</ele>
        <time>2021-04-07T07:13:43Z</time>
      </trkpt>
      <trkpt lat="44.50501" lon="6.59469">
        <ele>2002</ele>
        <time>2021-04-07T07:13:44Z</time>
      </trkpt>
      <trkpt lat="44.50501" lon="6.59469">
        <ele>2002</ele>
        <time>2021-04-07T07:13:45Z</time>
      </trkpt>
      <trkpt lat="44.50501" lon="6.59469">
        <ele>2002</ele>
        <time>2021-04-07T07:13:46Z</time>
      </trkpt>
      <trkpt lat="44.50501" lon="6.59469">
        <ele>2002</ele>
        <time>2021-04-07T07:13:47Z</time>
      </trkpt>
      <trkpt lat="44.50501" lon="6.59469">
        <ele>2002</ele>
        <time>2021-04-07T07:13:48Z</time>
      </trkpt>
      <trkpt lat="44.50501" lon="6.59469">
        <ele>2002</ele>
        <time>2021-04-07T07:13:49Z</time>
      </trkpt>
      <trkpt lat="44.50501" lon="6.59469">
        <ele>2002</ele>
        <time>2021-04-07T07:13:50Z</time>
      </trkpt>
      <trkpt lat="44.505" lon="6.59468">
        <ele>2003</ele>
        <time>2021-04-07T07:13:51Z</time>
      </trkpt>
      <trkpt lat="44.505" lon="6.59467">
        <ele>2003</ele>
        <time>2021-04-07T07:13:52Z</time>
      </trkpt>
      <trkpt lat="44.505" lon="6.59466">
        <ele>2003</ele>
        <time>2021-04-07T07:13:53Z</time>
      </trkpt>
      <trkpt lat="44.505" lon="6.59466">
        <ele>2003</ele>
        <time>2021-04-07T07:13:54Z</time>
      </trkpt>
      <trkpt lat="44.505" lon="6.59465">
        <ele>2003</ele>
        <time>2021-04-07T07:13:55Z</time>
      </trkpt>
      <trkpt lat="44.505" lon="6.59464">
        <ele>2003</ele>
        <time>2021-04-07T07:13:56Z</time>
      </trkpt>
      <trkpt lat="44.50501" lon="6.59464">
        <ele>2004</ele>
        <time>2021-04-07T07:13:57Z</time>
      </trkpt>
      <trkpt lat="44.50501" lon="6.59463">
        <ele>2004</ele>
        <time>2021-04-07T07:13:58Z</time>
      </trkpt>
      <trkpt lat="44.50501" lon="6.59463">
        <ele>2006</ele>
        <time>2021-04-07T07:13:59Z</time>
      </trkpt>
      <trkpt lat="44.50501" lon="6.59463">
        <ele>2007</ele>
        <time>2021-04-07T07:14:00Z</time>
      </trkpt>
      <trkpt lat="44.50501" lon="6.59463">
        <ele>2007</ele>
        <time>2021-04-07T07:14:01Z</time>
      </trkpt>
      <trkpt lat="44.50501" lon="6.59463">
        <ele>2007</ele>
        <time>2021-04-07T07:14:02Z</time>
      </trkpt>
      <trkpt lat="44.50501" lon="6.59463">
        <ele>2008</ele>
        <time>2021-04-07T07:14:03Z</time>
      </trkpt>
      <trkpt lat="44.50501" lon="6.59463">
        <ele>2008</ele>
        <time>2021-04-07T07:14:04Z</time>
      </trkpt>
      <trkpt lat="44.50501" lon="6.59463">
        <ele>2008</ele>
        <time>2021-04-07T07:14:05Z</time>
      </trkpt>
      <trkpt lat="44.50501" lon="6.59463">
        <ele>2008</ele>
        <time>2021-04-07T07:14:06Z</time>
      </trkpt>
      <trkpt lat="44.50501" lon="6.59463">
        <ele>2008</ele>
        <time>2021-04-07T07:14:07Z</time>
      </trkpt>
      <trkpt lat="44.50501" lon="6.59463">
        <ele>2008</ele>
        <time>2021-04-07T07:14:08Z</time>
      </trkpt>
      <trkpt lat="44.50501" lon="6.59463">
        <ele>2008</ele>
        <time>2021-04-07T07:14:09Z</time>
      </trkpt>
      <trkpt lat="44.50501" lon="6.59463">
        <ele>2008</ele>
        <time>2021-04-07T07:14:10Z</time>
      </trkpt>
      <trkpt lat="44.50501" lon="6.59463">
        <ele>2008</ele>
        <time>2021-04-07T07:14:11Z</time>
      </trkpt>
      <trkpt lat="44.50501" lon="6.59463">
        <ele>2008</ele>
        <time>2021-04-07T07:14:12Z</time>
      </trkpt>
      <trkpt lat="44.50501" lon="6.59463">
        <ele>2008</ele>
        <time>2021-04-07T07:14:13Z</time>
      </trkpt>
      <trkpt lat="44.50501" lon="6.59463">
        <ele>2008</ele>
        <time>2021-04-07T07:14:14Z</time>
      </trkpt>
      <trkpt lat="44.50501" lon="6.59463">
        <ele>2008</ele>
        <time>2021-04-07T07:14:15Z</time>
      </trkpt>
      <trkpt lat="44.50501" lon="6.59463">
        <ele>2008</ele>
        <time>2021-04-07T07:14:16Z</time>
      </trkpt>
      <trkpt lat="44.50501" lon="6.59463">
        <ele>2008</ele>
        <time>2021-04-07T07:14:17Z</time>
      </trkpt>
      <trkpt lat="44.50501" lon="6.59463">
        <ele>2008</ele>
        <time>2021-04-07T07:14:18Z</time>
      </trkpt>
      <trkpt lat="44.50501" lon="6.59463">
        <ele>2008</ele>
        <time>2021-04-07T07:14:19Z</time>
      </trkpt>
      <trkpt lat="44.50501" lon="6.59463">
        <ele>2008</ele>
        <time>2021-04-07T07:14:20Z</time>
      </trkpt>
      <trkpt lat="44.50501" lon="6.59463">
        <ele>2008</ele>
        <time>2021-04-07T07:14:21Z</time>
      </trkpt>
      <trkpt lat="44.50501" lon="6.59463">
        <ele>2008</ele>
        <time>2021-04-07T07:14:22Z</time>
      </trkpt>
      <trkpt lat="44.50501" lon="6.59463">
        <ele>2008</ele>
        <time>2021-04-07T07:14:23Z</time>
      </trkpt>
      <trkpt lat="44.50501" lon="6.59463">
        <ele>2008</ele>
        <time>2021-04-07T07:14:24Z</time>
      </trkpt>
      <trkpt lat="44.50501" lon="6.59463">
        <ele>2008</ele>
        <time>2021-04-07T07:14:25Z</time>
      </trkpt>
      <trkpt lat="44.50501" lon="6.59462">
        <ele>2008</ele>
        <time>2021-04-07T07:14:26Z</time>
      </trkpt>
      <trkpt lat="44.505" lon="6.59462">
        <ele>2008</ele>
        <time>2021-04-07T07:14:27Z</time>
      </trkpt>
      <trkpt lat="44.505" lon="6.59461">
        <ele>2008</ele>
        <time>2021-04-07T07:14:28Z</time>
      </trkpt>
      <trkpt lat="44.505" lon="6.59461">
        <ele>2008</ele>
        <time>2021-04-07T07:14:29Z</time>
      </trkpt>
      <trkpt lat="44.505" lon="6.5946">
        <ele>2008</ele>
        <time>2021-04-07T07:14:30Z</time>
      </trkpt>
      <trkpt lat="44.505" lon="6.5946">
        <ele>2009</ele>
        <time>2021-04-07T07:14:31Z</time>
      </trkpt>
      <trkpt lat="44.505" lon="6.5946">
        <ele>2009</ele>
        <time>2021-04-07T07:14:32Z</time>
      </trkpt>
      <trkpt lat="44.505" lon="6.5946">
        <ele>2009</ele>
        <time>2021-04-07T07:14:33Z</time>
      </trkpt>
      <trkpt lat="44.505" lon="6.5946">
        <ele>2009</ele>
        <time>2021-04-07T07:14:34Z</time>
      </trkpt>
      <trkpt lat="44.505" lon="6.5946">
        <ele>2009</ele>
        <time>2021-04-07T07:14:35Z</time>
      </trkpt>
      <trkpt lat="44.505" lon="6.5946">
        <ele>2009</ele>
        <time>2021-04-07T07:14:36Z</time>
      </trkpt>
      <trkpt lat="44.505" lon="6.5946">
        <ele>2009</ele>
        <time>2021-04-07T07:14:37Z</time>
      </trkpt>
      <trkpt lat="44.505" lon="6.5946">
        <ele>2010</ele>
        <time>2021-04-07T07:14:38Z</time>
      </trkpt>
      <trkpt lat="44.505" lon="6.5946">
        <ele>2010</ele>
        <time>2021-04-07T07:14:39Z</time>
      </trkpt>
      <trkpt lat="44.505" lon="6.5946">
        <ele>2010</ele>
        <time>2021-04-07T07:14:40Z</time>
      </trkpt>
      <trkpt lat="44.505" lon="6.5946">
        <ele>2010</ele>
        <time>2021-04-07T07:14:41Z</time>
      </trkpt>
      <trkpt lat="44.505" lon="6.5946">
        <ele>2010</ele>
        <time>2021-04-07T07:14:42Z</time>
      </trkpt>
      <trkpt lat="44.505" lon="6.5946">
        <ele>2010</ele>
        <time>2021-04-07T07:14:43Z</time>
      </trkpt>
      <trkpt lat="44.505" lon="6.5946">
        <ele>2010</ele>
        <time>2021-04-07T07:14:44Z</time>
      </trkpt>
      <trkpt lat="44.50498" lon="6.59461">
        <ele>2010</ele>
        <time>2021-04-07T07:14:45Z</time>
      </trkpt>
      <trkpt lat="44.50498" lon="6.59461">
        <ele>2010</ele>
        <time>2021-04-07T07:14:46Z</time>
      </trkpt>
      <trkpt lat="44.50497" lon="6.59462">
        <ele>2010</ele>
        <time>2021-04-07T07:14:47Z</time>
      </trkpt>
      <trkpt lat="44.50497" lon="6.59462">
        <ele>2011</ele>
        <time>2021-04-07T07:14:48Z</time>
      </trkpt>
      <trkpt lat="44.50497" lon="6.59463">
        <ele>2011</ele>
        <time>2021-04-07T07:14:49Z</time>
      </trkpt>
      <trkpt lat="44.50497" lon="6.59463">
        <ele>2011</ele>
        <time>2021-04-07T07:14:50Z</time>
      </trkpt>
      <trkpt lat="44.50497" lon="6.59464">
        <ele>2011</ele>
        <time>2021-04-07T07:14:51Z</time>
      </trkpt>
      <trkpt lat="44.50496" lon="6.59465">
        <ele>2012</ele>
        <time>2021-04-07T07:14:52Z</time>
      </trkpt>
      <trkpt lat="44.50495" lon="6.59465">
        <ele>2012</ele>
        <time>2021-04-07T07:14:53Z</time>
      </trkpt>
      <trkpt lat="44.50495" lon="6.59465">
        <ele>2012</ele>
        <time>2021-04-07T07:14:54Z</time>
      </trkpt>
      <trkpt lat="44.50495" lon="6.59465">
        <ele>2012</ele>
        <time>2021-04-07T07:14:55Z</time>
      </trkpt>
      <trkpt lat="44.50494" lon="6.59466">
        <ele>2012</ele>
        <time>2021-04-07T07:14:56Z</time>
      </trkpt>
      <trkpt lat="44.50494" lon="6.59466">
        <ele>2012</ele>
        <time>2021-04-07T07:14:57Z</time>
      </trkpt>
      <trkpt lat="44.50494" lon="6.59467">
        <ele>2012</ele>
        <time>2021-04-07T07:14:58Z</time>
      </trkpt>
      <trkpt lat="44.50494" lon="6.59467">
        <ele>2012</ele>
        <time>2021-04-07T07:14:59Z</time>
      </trkpt>
      <trkpt lat="44.50494" lon="6.59468">
        <ele>2012</ele>
        <time>2021-04-07T07:15:00Z</time>
      </trkpt>
      <trkpt lat="44.50494" lon="6.59468">
        <ele>2012</ele>
        <time>2021-04-07T07:15:01Z</time>
      </trkpt>
      <trkpt lat="44.50494" lon="6.59468">
        <ele>2012</ele>
        <time>2021-04-07T07:15:02Z</time>
      </trkpt>
      <trkpt lat="44.50494" lon="6.59468">
        <ele>2012</ele>
        <time>2021-04-07T07:15:03Z</time>
      </trkpt>
      <trkpt lat="44.50494" lon="6.59468">
        <ele>2012</ele>
        <time>2021-04-07T07:15:04Z</time>
      </trkpt>
      <trkpt lat="44.50494" lon="6.59468">
        <ele>2012</ele>
        <time>2021-04-07T07:15:05Z</time>
      </trkpt>
      <trkpt lat="44.50494" lon="6.59468">
        <ele>2012</ele>
        <time>2021-04-07T07:15:06Z</time>
      </trkpt>
      <trkpt lat="44.50494" lon="6.59468">
        <ele>2012</ele>
        <time>2021-04-07T07:15:07Z</time>
      </trkpt>
      <trkpt lat="44.50494" lon="6.59468">
        <ele>2012</ele>
        <time>2021-04-07T07:15:08Z</time>
      </trkpt>
      <trkpt lat="44.50494" lon="6.59468">
        <ele>2012</ele>
        <time>2021-04-07T07:15:09Z</time>
      </trkpt>
      <trkpt lat="44.50492" lon="6.59475">
        <ele>2012</ele>
        <time>2021-04-07T07:15:10Z</time>
      </trkpt>
      <trkpt lat="44.50492" lon="6.59476">
        <ele>2012</ele>
        <time>2021-04-07T07:15:11Z</time>
      </trkpt>
      <trkpt lat="44.50492" lon="6.59477">
        <ele>2012</ele>
        <time>2021-04-07T07:15:12Z</time>
      </trkpt>
      <trkpt lat="44.50492" lon="6.59478">
        <ele>2012</ele>
        <time>2021-04-07T07:15:13Z</time>
      </trkpt>
      <trkpt lat="44.50492" lon="6.59479">
        <ele>2012</ele>
        <time>2021-04-07T07:15:14Z</time>
      </trkpt>
      <trkpt lat="44.50492" lon="6.59479">
        <ele>2012</ele>
        <time>2021-04-07T07:15:15Z</time>
      </trkpt>
      <trkpt lat="44.50492" lon="6.5948">
        <ele>2013</ele>
        <time>2021-04-07T07:15:16Z</time>
      </trkpt>
      <trkpt lat="44.50491" lon="6.59481">
        <ele>2013</ele>
        <time>2021-04-07T07:15:17Z</time>
      </trkpt>
      <trkpt lat="44.50491" lon="6.59481">
        <ele>2013</ele>
        <time>2021-04-07T07:15:18Z</time>
      </trkpt>
      <trkpt lat="44.50491" lon="6.59481">
        <ele>2013</ele>
        <time>2021-04-07T07:15:19Z</time>
      </trkpt>
      <trkpt lat="44.5049" lon="6.59481">
        <ele>2013</ele>
        <time>2021-04-07T07:15:20Z</time>
      </trkpt>
      <trkpt lat="44.5049" lon="6.59481">
        <ele>2013</ele>
        <time>2021-04-07T07:15:21Z</time>
      </trkpt>
      <trkpt lat="44.5049" lon="6.59481">
        <ele>2013</ele>
        <time>2021-04-07T07:15:22Z</time>
      </trkpt>
      <trkpt lat="44.5049" lon="6.59481">
        <ele>2013</ele>
        <time>2021-04-07T07:15:23Z</time>
      </trkpt>
      <trkpt lat="44.5049" lon="6.59481">
        <ele>2013</ele>
        <time>2021-04-07T07:15:24Z</time>
      </trkpt>
      <trkpt lat="44.50489" lon="6.59478">
        <ele>2013</ele>
        <time>2021-04-07T07:15:25Z</time>
      </trkpt>
      <trkpt lat="44.50488" lon="6.59476">
        <ele>2013</ele>
        <time>2021-04-07T07:15:26Z</time>
      </trkpt>
      <trkpt lat="44.50488" lon="6.59475">
        <ele>2014</ele>
        <time>2021-04-07T07:15:27Z</time>
      </trkpt>
      <trkpt lat="44.50488" lon="6.59475">
        <ele>2014</ele>
        <time>2021-04-07T07:15:28Z</time>
      </trkpt>
      <trkpt lat="44.50488" lon="6.59474">
        <ele>2014</ele>
        <time>2021-04-07T07:15:29Z</time>
      </trkpt>
      <trkpt lat="44.50488" lon="6.59474">
        <ele>2014</ele>
        <time>2021-04-07T07:15:30Z</time>
      </trkpt>
      <trkpt lat="44.50488" lon="6.59475">
        <ele>2014</ele>
        <time>2021-04-07T07:15:31Z</time>
      </trkpt>
      <trkpt lat="44.50487" lon="6.59474">
        <ele>2014</ele>
        <time>2021-04-07T07:15:32Z</time>
      </trkpt>
      <trkpt lat="44.50487" lon="6.59474">
        <ele>2015</ele>
        <time>2021-04-07T07:15:33Z</time>
      </trkpt>
      <trkpt lat="44.50487" lon="6.59475">
        <ele>2015</ele>
        <time>2021-04-07T07:15:34Z</time>
      </trkpt>
      <trkpt lat="44.50486" lon="6.59475">
        <ele>2015</ele>
        <time>2021-04-07T07:15:35Z</time>
      </trkpt>
      <trkpt lat="44.50486" lon="6.59474">
        <ele>2015</ele>
        <time>2021-04-07T07:15:36Z</time>
      </trkpt>
      <trkpt lat="44.50485" lon="6.59474">
        <ele>2015</ele>
        <time>2021-04-07T07:15:37Z</time>
      </trkpt>
      <trkpt lat="44.50484" lon="6.59473">
        <ele>2015</ele>
        <time>2021-04-07T07:15:38Z</time>
      </trkpt>
      <trkpt lat="44.50484" lon="6.59473">
        <ele>2016</ele>
        <time>2021-04-07T07:15:39Z</time>
      </trkpt>
      <trkpt lat="44.50484" lon="6.59472">
        <ele>2016</ele>
        <time>2021-04-07T07:15:40Z</time>
      </trkpt>
      <trkpt lat="44.50484" lon="6.59472">
        <ele>2015</ele>
        <time>2021-04-07T07:15:41Z</time>
      </trkpt>
      <trkpt lat="44.50484" lon="6.59472">
        <ele>2015</ele>
        <time>2021-04-07T07:15:42Z</time>
      </trkpt>
      <trkpt lat="44.50484" lon="6.59471">
        <ele>2015</ele>
        <time>2021-04-07T07:15:43Z</time>
      </trkpt>
      <trkpt lat="44.50483" lon="6.5947">
        <ele>2015</ele>
        <time>2021-04-07T07:15:44Z</time>
      </trkpt>
      <trkpt lat="44.50483" lon="6.59469">
        <ele>2015</ele>
        <time>2021-04-07T07:15:45Z</time>
      </trkpt>
      <trkpt lat="44.50483" lon="6.59469">
        <ele>2015</ele>
        <time>2021-04-07T07:15:46Z</time>
      </trkpt>
      <trkpt lat="44.50482" lon="6.59468">
        <ele>2015</ele>
        <time>2021-04-07T07:15:47Z</time>
      </trkpt>
      <trkpt lat="44.50482" lon="6.59467">
        <ele>2015</ele>
        <time>2021-04-07T07:15:48Z</time>
      </trkpt>
      <trkpt lat="44.50481" lon="6.59466">
        <ele>2015</ele>
        <time>2021-04-07T07:15:49Z</time>
      </trkpt>
      <trkpt lat="44.50481" lon="6.59466">
        <ele>2016</ele>
        <time>2021-04-07T07:15:50Z</time>
      </trkpt>
      <trkpt lat="44.5048" lon="6.59466">
        <ele>2016</ele>
        <time>2021-04-07T07:15:51Z</time>
      </trkpt>
      <trkpt lat="44.5048" lon="6.59466">
        <ele>2016</ele>
        <time>2021-04-07T07:15:52Z</time>
      </trkpt>
      <trkpt lat="44.50479" lon="6.59465">
        <ele>2016</ele>
        <time>2021-04-07T07:15:53Z</time>
      </trkpt>
      <trkpt lat="44.50479" lon="6.59465">
        <ele>2017</ele>
        <time>2021-04-07T07:15:54Z</time>
      </trkpt>
      <trkpt lat="44.50478" lon="6.59465">
        <ele>2017</ele>
        <time>2021-04-07T07:15:55Z</time>
      </trkpt>
      <trkpt lat="44.50478" lon="6.59465">
        <ele>2017</ele>
        <time>2021-04-07T07:15:56Z</time>
      </trkpt>
      <trkpt lat="44.50478" lon="6.59465">
        <ele>2017</ele>
        <time>2021-04-07T07:15:57Z</time>
      </trkpt>
      <trkpt lat="44.50478" lon="6.59464">
        <ele>2017</ele>
        <time>2021-04-07T07:15:58Z</time>
      </trkpt>
      <trkpt lat="44.50478" lon="6.59463">
        <ele>2018</ele>
        <time>2021-04-07T07:15:59Z</time>
      </trkpt>
      <trkpt lat="44.50478" lon="6.59463">
        <ele>2018</ele>
        <time>2021-04-07T07:16:00Z</time>
      </trkpt>
      <trkpt lat="44.50478" lon="6.59462">
        <ele>2018</ele>
        <time>2021-04-07T07:16:01Z</time>
      </trkpt>
      <trkpt lat="44.50478" lon="6.59461">
        <ele>2019</ele>
        <time>2021-04-07T07:16:02Z</time>
      </trkpt>
      <trkpt lat="44.50478" lon="6.59461">
        <ele>2019</ele>
        <time>2021-04-07T07:16:03Z</time>
      </trkpt>
      <trkpt lat="44.50478" lon="6.5946">
        <ele>2019</ele>
        <time>2021-04-07T07:16:04Z</time>
      </trkpt>
      <trkpt lat="44.50478" lon="6.5946">
        <ele>2019</ele>
        <time>2021-04-07T07:16:05Z</time>
      </trkpt>
      <trkpt lat="44.50478" lon="6.59459">
        <ele>2019</ele>
        <time>2021-04-07T07:16:06Z</time>
      </trkpt>
      <trkpt lat="44.50477" lon="6.59459">
        <ele>2019</ele>
        <time>2021-04-07T07:16:07Z</time>
      </trkpt>
      <trkpt lat="44.50477" lon="6.59457">
        <ele>2019</ele>
        <time>2021-04-07T07:16:08Z</time>
      </trkpt>
      <trkpt lat="44.50477" lon="6.59457">
        <ele>2019</ele>
        <time>2021-04-07T07:16:09Z</time>
      </trkpt>
      <trkpt lat="44.50477" lon="6.59456">
        <ele>2019</ele>
        <time>2021-04-07T07:16:10Z</time>
      </trkpt>
      <trkpt lat="44.50477" lon="6.59455">
        <ele>2020</ele>
        <time>2021-04-07T07:16:11Z</time>
      </trkpt>
      <trkpt lat="44.50477" lon="6.59454">
        <ele>2020</ele>
        <time>2021-04-07T07:16:12Z</time>
      </trkpt>
      <trkpt lat="44.50477" lon="6.59453">
        <ele>2020</ele>
        <time>2021-04-07T07:16:13Z</time>
      </trkpt>
      <trkpt lat="44.50477" lon="6.59452">
        <ele>2021</ele>
        <time>2021-04-07T07:16:14Z</time>
      </trkpt>
      <trkpt lat="44.50476" lon="6.59452">
        <ele>2021</ele>
        <time>2021-04-07T07:16:15Z</time>
      </trkpt>
      <trkpt lat="44.50476" lon="6.59451">
        <ele>2021</ele>
        <time>2021-04-07T07:16:16Z</time>
      </trkpt>
      <trkpt lat="44.50475" lon="6.59452">
        <ele>2021</ele>
        <time>2021-04-07T07:16:17Z</time>
      </trkpt>
      <trkpt lat="44.50475" lon="6.59452">
        <ele>2021</ele>
        <time>2021-04-07T07:16:18Z</time>
      </trkpt>
      <trkpt lat="44.50474" lon="6.59453">
        <ele>2022</ele>
        <time>2021-04-07T07:16:19Z</time>
      </trkpt>
      <trkpt lat="44.50474" lon="6.59454">
        <ele>2022</ele>
        <time>2021-04-07T07:16:20Z</time>
      </trkpt>
      <trkpt lat="44.50473" lon="6.59455">
        <ele>2023</ele>
        <time>2021-04-07T07:16:21Z</time>
      </trkpt>
      <trkpt lat="44.50473" lon="6.59456">
        <ele>2024</ele>
        <time>2021-04-07T07:16:22Z</time>
      </trkpt>
      <trkpt lat="44.50473" lon="6.59457">
        <ele>2024</ele>
        <time>2021-04-07T07:16:23Z</time>
      </trkpt>
      <trkpt lat="44.50473" lon="6.59457">
        <ele>2024</ele>
        <time>2021-04-07T07:16:24Z</time>
      </trkpt>
      <trkpt lat="44.50472" lon="6.59457">
        <ele>2024</ele>
        <time>2021-04-07T07:16:25Z</time>
      </trkpt>
      <trkpt lat="44.50472" lon="6.59458">
        <ele>2024</ele>
        <time>2021-04-07T07:16:26Z</time>
      </trkpt>
      <trkpt lat="44.50472" lon="6.59459">
        <ele>2025</ele>
        <time>2021-04-07T07:16:27Z</time>
      </trkpt>
      <trkpt lat="44.50472" lon="6.5946">
        <ele>2026</ele>
        <time>2021-04-07T07:16:28Z</time>
      </trkpt>
      <trkpt lat="44.50471" lon="6.5946">
        <ele>2026</ele>
        <time>2021-04-07T07:16:29Z</time>
      </trkpt>
      <trkpt lat="44.50471" lon="6.5946">
        <ele>2026</ele>
        <time>2021-04-07T07:16:30Z</time>
      </trkpt>
      <trkpt lat="44.5047" lon="6.59461">
        <ele>2026</ele>
        <time>2021-04-07T07:16:31Z</time>
      </trkpt>
      <trkpt lat="44.5047" lon="6.59462">
        <ele>2027</ele>
        <time>2021-04-07T07:16:32Z</time>
      </trkpt>
      <trkpt lat="44.5047" lon="6.59463">
        <ele>2027</ele>
        <time>2021-04-07T07:16:33Z</time>
      </trkpt>
      <trkpt lat="44.50469" lon="6.59464">
        <ele>2027</ele>
        <time>2021-04-07T07:16:34Z</time>
      </trkpt>
      <trkpt lat="44.50469" lon="6.59464">
        <ele>2028</ele>
        <time>2021-04-07T07:16:35Z</time>
      </trkpt>
      <trkpt lat="44.50469" lon="6.59465">
        <ele>2028</ele>
        <time>2021-04-07T07:16:36Z</time>
      </trkpt>
      <trkpt lat="44.50469" lon="6.59465">
        <ele>2028</ele>
        <time>2021-04-07T07:16:37Z</time>
      </trkpt>
      <trkpt lat="44.50469" lon="6.59466">
        <ele>2028</ele>
        <time>2021-04-07T07:16:38Z</time>
      </trkpt>
      <trkpt lat="44.50468" lon="6.59465">
        <ele>2028</ele>
        <time>2021-04-07T07:16:39Z</time>
      </trkpt>
      <trkpt lat="44.50468" lon="6.59466">
        <ele>2028</ele>
        <time>2021-04-07T07:16:40Z</time>
      </trkpt>
      <trkpt lat="44.50468" lon="6.59467">
        <ele>2029</ele>
        <time>2021-04-07T07:16:41Z</time>
      </trkpt>
      <trkpt lat="44.50468" lon="6.59467">
        <ele>2029</ele>
        <time>2021-04-07T07:16:42Z</time>
      </trkpt>
      <trkpt lat="44.50468" lon="6.59468">
        <ele>2030</ele>
        <time>2021-04-07T07:16:43Z</time>
      </trkpt>
      <trkpt lat="44.50467" lon="6.59468">
        <ele>2030</ele>
        <time>2021-04-07T07:16:44Z</time>
      </trkpt>
      <trkpt lat="44.50468" lon="6.59469">
        <ele>2030</ele>
        <time>2021-04-07T07:16:45Z</time>
      </trkpt>
      <trkpt lat="44.50468" lon="6.59469">
        <ele>2030</ele>
        <time>2021-04-07T07:16:46Z</time>
      </trkpt>
      <trkpt lat="44.50468" lon="6.59469">
        <ele>2030</ele>
        <time>2021-04-07T07:16:47Z</time>
      </trkpt>
      <trkpt lat="44.50468" lon="6.59469">
        <ele>2031</ele>
        <time>2021-04-07T07:16:48Z</time>
      </trkpt>
      <trkpt lat="44.50468" lon="6.59469">
        <ele>2031</ele>
        <time>2021-04-07T07:16:49Z</time>
      </trkpt>
      <trkpt lat="44.50468" lon="6.59469">
        <ele>2031</ele>
        <time>2021-04-07T07:16:50Z</time>
      </trkpt>
      <trkpt lat="44.50468" lon="6.5947">
        <ele>2031</ele>
        <time>2021-04-07T07:16:51Z</time>
      </trkpt>
      <trkpt lat="44.50468" lon="6.59471">
        <ele>2031</ele>
        <time>2021-04-07T07:16:52Z</time>
      </trkpt>
      <trkpt lat="44.50468" lon="6.59471">
        <ele>2031</ele>
        <time>2021-04-07T07:16:53Z</time>
      </trkpt>
      <trkpt lat="44.50468" lon="6.59472">
        <ele>2031</ele>
        <time>2021-04-07T07:16:54Z</time>
      </trkpt>
      <trkpt lat="44.50467" lon="6.59472">
        <ele>2031</ele>
        <time>2021-04-07T07:16:55Z</time>
      </trkpt>
      <trkpt lat="44.50467" lon="6.59473">
        <ele>2032</ele>
        <time>2021-04-07T07:16:56Z</time>
      </trkpt>
      <trkpt lat="44.50467" lon="6.59474">
        <ele>2032</ele>
        <time>2021-04-07T07:16:57Z</time>
      </trkpt>
      <trkpt lat="44.50467" lon="6.59475">
        <ele>2032</ele>
        <time>2021-04-07T07:16:58Z</time>
      </trkpt>
      <trkpt lat="44.50466" lon="6.59476">
        <ele>2032</ele>
        <time>2021-04-07T07:16:59Z</time>
      </trkpt>
      <trkpt lat="44.50466" lon="6.59476">
        <ele>2032</ele>
        <time>2021-04-07T07:17:00Z</time>
      </trkpt>
      <trkpt lat="44.50465" lon="6.59477">
        <ele>2032</ele>
        <time>2021-04-07T07:17:01Z</time>
      </trkpt>
      <trkpt lat="44.50465" lon="6.59478">
        <ele>2032</ele>
        <time>2021-04-07T07:17:02Z</time>
      </trkpt>
      <trkpt lat="44.50465" lon="6.59479">
        <ele>2032</ele>
        <time>2021-04-07T07:17:03Z</time>
      </trkpt>
      <trkpt lat="44.50465" lon="6.5948">
        <ele>2032</ele>
        <time>2021-04-07T07:17:04Z</time>
      </trkpt>
      <trkpt lat="44.50466" lon="6.59481">
        <ele>2032</ele>
        <time>2021-04-07T07:17:05Z</time>
      </trkpt>
      <trkpt lat="44.50466" lon="6.59481">
        <ele>2032</ele>
        <time>2021-04-07T07:17:06Z</time>
      </trkpt>
      <trkpt lat="44.50466" lon="6.59482">
        <ele>2032</ele>
        <time>2021-04-07T07:17:07Z</time>
      </trkpt>
      <trkpt lat="44.50466" lon="6.59482">
        <ele>2032</ele>
        <time>2021-04-07T07:17:08Z</time>
      </trkpt>
      <trkpt lat="44.50466" lon="6.59482">
        <ele>2032</ele>
        <time>2021-04-07T07:17:09Z</time>
      </trkpt>
      <trkpt lat="44.50467" lon="6.59482">
        <ele>2032</ele>
        <time>2021-04-07T07:17:10Z</time>
      </trkpt>
      <trkpt lat="44.50467" lon="6.59482">
        <ele>2032</ele>
        <time>2021-04-07T07:17:11Z</time>
      </trkpt>
      <trkpt lat="44.50467" lon="6.59481">
        <ele>2032</ele>
        <time>2021-04-07T07:17:12Z</time>
      </trkpt>
      <trkpt lat="44.50466" lon="6.59481">
        <ele>2032</ele>
        <time>2021-04-07T07:17:13Z</time>
      </trkpt>
      <trkpt lat="44.50466" lon="6.59481">
        <ele>2032</ele>
        <time>2021-04-07T07:17:14Z</time>
      </trkpt>
      <trkpt lat="44.50466" lon="6.5948">
        <ele>2032</ele>
        <time>2021-04-07T07:17:15Z</time>
      </trkpt>
      <trkpt lat="44.50465" lon="6.59479">
        <ele>2032</ele>
        <time>2021-04-07T07:17:16Z</time>
      </trkpt>
      <trkpt lat="44.50465" lon="6.59479">
        <ele>2032</ele>
        <time>2021-04-07T07:17:17Z</time>
      </trkpt>
      <trkpt lat="44.50465" lon="6.59476">
        <ele>2033</ele>
        <time>2021-04-07T07:17:18Z</time>
      </trkpt>
      <trkpt lat="44.50464" lon="6.59475">
        <ele>2034</ele>
        <time>2021-04-07T07:17:19Z</time>
      </trkpt>
      <trkpt lat="44.50464" lon="6.59475">
        <ele>2034</ele>
        <time>2021-04-07T07:17:20Z</time>
      </trkpt>
      <trkpt lat="44.50464" lon="6.59474">
        <ele>2035</ele>
        <time>2021-04-07T07:17:21Z</time>
      </trkpt>
      <trkpt lat="44.50463" lon="6.59473">
        <ele>2035</ele>
        <time>2021-04-07T07:17:22Z</time>
      </trkpt>
      <trkpt lat="44.50463" lon="6.59473">
        <ele>2035</ele>
        <time>2021-04-07T07:17:23Z</time>
      </trkpt>
      <trkpt lat="44.50462" lon="6.59473">
        <ele>2036</ele>
        <time>2021-04-07T07:17:24Z</time>
      </trkpt>
      <trkpt lat="44.50462" lon="6.59472">
        <ele>2036</ele>
        <time>2021-04-07T07:17:25Z</time>
      </trkpt>
      <trkpt lat="44.50462" lon="6.59472">
        <ele>2036</ele>
        <time>2021-04-07T07:17:26Z</time>
      </trkpt>
      <trkpt lat="44.50461" lon="6.59471">
        <ele>2036</ele>
        <time>2021-04-07T07:17:27Z</time>
      </trkpt>
      <trkpt lat="44.5046" lon="6.59471">
        <ele>2036</ele>
        <time>2021-04-07T07:17:28Z</time>
      </trkpt>
      <trkpt lat="44.5046" lon="6.59471">
        <ele>2035</ele>
        <time>2021-04-07T07:17:29Z</time>
      </trkpt>
      <trkpt lat="44.5046" lon="6.59469">
        <ele>2035</ele>
        <time>2021-04-07T07:17:30Z</time>
      </trkpt>
      <trkpt lat="44.5046" lon="6.59468">
        <ele>2034</ele>
        <time>2021-04-07T07:17:31Z</time>
      </trkpt>
      <trkpt lat="44.5046" lon="6.59466">
        <ele>2034</ele>
        <time>2021-04-07T07:17:32Z</time>
      </trkpt>
      <trkpt lat="44.50459" lon="6.59465">
        <ele>2034</ele>
        <time>2021-04-07T07:17:33Z</time>
      </trkpt>
      <trkpt lat="44.50459" lon="6.59464">
        <ele>2033</ele>
        <time>2021-04-07T07:17:34Z</time>
      </trkpt>
      <trkpt lat="44.50459" lon="6.59463">
        <ele>2033</ele>
        <time>2021-04-07T07:17:35Z</time>
      </trkpt>
      <trkpt lat="44.50458" lon="6.59463">
        <ele>2033</ele>
        <time>2021-04-07T07:17:36Z</time>
      </trkpt>
      <trkpt lat="44.50458" lon="6.59462">
        <ele>2033</ele>
        <time>2021-04-07T07:17:37Z</time>
      </trkpt>
      <trkpt lat="44.50458" lon="6.59462">
        <ele>2033</ele>
        <time>2021-04-07T07:17:38Z</time>
      </trkpt>
      <trkpt lat="44.50457" lon="6.59461">
        <ele>2032</ele>
        <time>2021-04-07T07:17:39Z</time>
      </trkpt>
      <trkpt lat="44.50457" lon="6.59461">
        <ele>2032</ele>
        <time>2021-04-07T07:17:40Z</time>
      </trkpt>
      <trkpt lat="44.50457" lon="6.5946">
        <ele>2032</ele>
        <time>2021-04-07T07:17:41Z</time>
      </trkpt>
      <trkpt lat="44.50456" lon="6.5946">
        <ele>2032</ele>
        <time>2021-04-07T07:17:42Z</time>
      </trkpt>
      <trkpt lat="44.50456" lon="6.59459">
        <ele>2032</ele>
        <time>2021-04-07T07:17:43Z</time>
      </trkpt>
      <trkpt lat="44.50455" lon="6.59458">
        <ele>2032</ele>
        <time>2021-04-07T07:17:44Z</time>
      </trkpt>
      <trkpt lat="44.50455" lon="6.59457">
        <ele>2032</ele>
        <time>2021-04-07T07:17:45Z</time>
      </trkpt>
      <trkpt lat="44.50455" lon="6.59457">
        <ele>2032</ele>
        <time>2021-04-07T07:17:46Z</time>
      </trkpt>
      <trkpt lat="44.50454" lon="6.59456">
        <ele>2032</ele>
        <time>2021-04-07T07:17:47Z</time>
      </trkpt>
      <trkpt lat="44.50454" lon="6.59455">
        <ele>2031</ele>
        <time>2021-04-07T07:17:48Z</time>
      </trkpt>
      <trkpt lat="44.50454" lon="6.59454">
        <ele>2031</ele>
        <time>2021-04-07T07:17:49Z</time>
      </trkpt>
      <trkpt lat="44.50454" lon="6.59454">
        <ele>2032</ele>
        <time>2021-04-07T07:17:50Z</time>
      </trkpt>
      <trkpt lat="44.50454" lon="6.59453">
        <ele>2032</ele>
        <time>2021-04-07T07:17:51Z</time>
      </trkpt>
      <trkpt lat="44.50454" lon="6.59452">
        <ele>2032</ele>
        <time>2021-04-07T07:17:52Z</time>
      </trkpt>
      <trkpt lat="44.50453" lon="6.59452">
        <ele>2032</ele>
        <time>2021-04-07T07:17:53Z</time>
      </trkpt>
      <trkpt lat="44.50454" lon="6.5945">
        <ele>2032</ele>
        <time>2021-04-07T07:17:54Z</time>
      </trkpt>
      <trkpt lat="44.50453" lon="6.5945">
        <ele>2033</ele>
        <time>2021-04-07T07:17:55Z</time>
      </trkpt>
      <trkpt lat="44.50453" lon="6.59449">
        <ele>2033</ele>
        <time>2021-04-07T07:17:56Z</time>
      </trkpt>
      <trkpt lat="44.50453" lon="6.59448">
        <ele>2033</ele>
        <time>2021-04-07T07:17:57Z</time>
      </trkpt>
      <trkpt lat="44.50453" lon="6.59448">
        <ele>2034</ele>
        <time>2021-04-07T07:17:58Z</time>
      </trkpt>
      <trkpt lat="44.50453" lon="6.59447">
        <ele>2034</ele>
        <time>2021-04-07T07:17:59Z</time>
      </trkpt>
      <trkpt lat="44.50452" lon="6.59447">
        <ele>2034</ele>
        <time>2021-04-07T07:18:00Z</time>
      </trkpt>
      <trkpt lat="44.50452" lon="6.59446">
        <ele>2034</ele>
        <time>2021-04-07T07:18:01Z</time>
      </trkpt>
      <trkpt lat="44.50452" lon="6.59445">
        <ele>2034</ele>
        <time>2021-04-07T07:18:02Z</time>
      </trkpt>
      <trkpt lat="44.50452" lon="6.59445">
        <ele>2035</ele>
        <time>2021-04-07T07:18:03Z</time>
      </trkpt>
      <trkpt lat="44.50452" lon="6.59444">
        <ele>2035</ele>
        <time>2021-04-07T07:18:04Z</time>
      </trkpt>
      <trkpt lat="44.50452" lon="6.59443">
        <ele>2035</ele>
        <time>2021-04-07T07:18:05Z</time>
      </trkpt>
      <trkpt lat="44.50452" lon="6.59442">
        <ele>2035</ele>
        <time>2021-04-07T07:18:06Z</time>
      </trkpt>
      <trkpt lat="44.50451" lon="6.59442">
        <ele>2035</ele>
        <time>2021-04-07T07:18:07Z</time>
      </trkpt>
      <trkpt lat="44.50451" lon="6.59442">
        <ele>2035</ele>
        <time>2021-04-07T07:18:08Z</time>
      </trkpt>
      <trkpt lat="44.50451" lon="6.59442">
        <ele>2035</ele>
        <time>2021-04-07T07:18:09Z</time>
      </trkpt>
      <trkpt lat="44.50451" lon="6.59442">
        <ele>2036</ele>
        <time>2021-04-07T07:18:10Z</time>
      </trkpt>
      <trkpt lat="44.50451" lon="6.59442">
        <ele>2036</ele>
        <time>2021-04-07T07:18:11Z</time>
      </trkpt>
      <trkpt lat="44.50451" lon="6.59442">
        <ele>2036</ele>
        <time>2021-04-07T07:18:12Z</time>
      </trkpt>
      <trkpt lat="44.50452" lon="6.59441">
        <ele>2036</ele>
        <time>2021-04-07T07:18:13Z</time>
      </trkpt>
      <trkpt lat="44.50452" lon="6.59441">
        <ele>2036</ele>
        <time>2021-04-07T07:18:14Z</time>
      </trkpt>
      <trkpt lat="44.50452" lon="6.59441">
        <ele>2036</ele>
        <time>2021-04-07T07:18:15Z</time>
      </trkpt>
      <trkpt lat="44.50451" lon="6.59442">
        <ele>2036</ele>
        <time>2021-04-07T07:18:16Z</time>
      </trkpt>
      <trkpt lat="44.5045" lon="6.59442">
        <ele>2036</ele>
        <time>2021-04-07T07:18:17Z</time>
      </trkpt>
      <trkpt lat="44.5045" lon="6.59442">
        <ele>2037</ele>
        <time>2021-04-07T07:18:18Z</time>
      </trkpt>
      <trkpt lat="44.5045" lon="6.59443">
        <ele>2037</ele>
        <time>2021-04-07T07:18:19Z</time>
      </trkpt>
      <trkpt lat="44.5045" lon="6.59444">
        <ele>2037</ele>
        <time>2021-04-07T07:18:20Z</time>
      </trkpt>
      <trkpt lat="44.50449" lon="6.59444">
        <ele>2037</ele>
        <time>2021-04-07T07:18:21Z</time>
      </trkpt>
      <trkpt lat="44.50449" lon="6.59445">
        <ele>2037</ele>
        <time>2021-04-07T07:18:22Z</time>
      </trkpt>
      <trkpt lat="44.50448" lon="6.59446">
        <ele>2038</ele>
        <time>2021-04-07T07:18:23Z</time>
      </trkpt>
      <trkpt lat="44.50448" lon="6.59447">
        <ele>2038</ele>
        <time>2021-04-07T07:18:24Z</time>
      </trkpt>
      <trkpt lat="44.50447" lon="6.59448">
        <ele>2038</ele>
        <time>2021-04-07T07:18:25Z</time>
      </trkpt>
      <trkpt lat="44.50446" lon="6.59448">
        <ele>2038</ele>
        <time>2021-04-07T07:18:26Z</time>
      </trkpt>
      <trkpt lat="44.50446" lon="6.59449">
        <ele>2038</ele>
        <time>2021-04-07T07:18:27Z</time>
      </trkpt>
      <trkpt lat="44.50446" lon="6.59449">
        <ele>2039</ele>
        <time>2021-04-07T07:18:28Z</time>
      </trkpt>
      <trkpt lat="44.50446" lon="6.59448">
        <ele>2039</ele>
        <time>2021-04-07T07:18:29Z</time>
      </trkpt>
      <trkpt lat="44.50445" lon="6.59448">
        <ele>2039</ele>
        <time>2021-04-07T07:18:30Z</time>
      </trkpt>
      <trkpt lat="44.50445" lon="6.59449">
        <ele>2039</ele>
        <time>2021-04-07T07:18:31Z</time>
      </trkpt>
      <trkpt lat="44.50445" lon="6.59449">
        <ele>2039</ele>
        <time>2021-04-07T07:18:32Z</time>
      </trkpt>
      <trkpt lat="44.50445" lon="6.59448">
        <ele>2039</ele>
        <time>2021-04-07T07:18:33Z</time>
      </trkpt>
      <trkpt lat="44.50445" lon="6.59448">
        <ele>2039</ele>
        <time>2021-04-07T07:18:34Z</time>
      </trkpt>
      <trkpt lat="44.50445" lon="6.59447">
        <ele>2039</ele>
        <time>2021-04-07T07:18:35Z</time>
      </trkpt>
      <trkpt lat="44.50445" lon="6.59447">
        <ele>2039</ele>
        <time>2021-04-07T07:18:36Z</time>
      </trkpt>
      <trkpt lat="44.50445" lon="6.59446">
        <ele>2039</ele>
        <time>2021-04-07T07:18:37Z</time>
      </trkpt>
      <trkpt lat="44.50445" lon="6.59445">
        <ele>2040</ele>
        <time>2021-04-07T07:18:38Z</time>
      </trkpt>
      <trkpt lat="44.50445" lon="6.59445">
        <ele>2040</ele>
        <time>2021-04-07T07:18:39Z</time>
      </trkpt>
      <trkpt lat="44.50445" lon="6.59444">
        <ele>2040</ele>
        <time>2021-04-07T07:18:40Z</time>
      </trkpt>
      <trkpt lat="44.50445" lon="6.59443">
        <ele>2040</ele>
        <time>2021-04-07T07:18:41Z</time>
      </trkpt>
      <trkpt lat="44.50445" lon="6.59442">
        <ele>2040</ele>
        <time>2021-04-07T07:18:42Z</time>
      </trkpt>
      <trkpt lat="44.50445" lon="6.59441">
        <ele>2041</ele>
        <time>2021-04-07T07:18:43Z</time>
      </trkpt>
      <trkpt lat="44.50444" lon="6.59439">
        <ele>2041</ele>
        <time>2021-04-07T07:18:44Z</time>
      </trkpt>
      <trkpt lat="44.50444" lon="6.59439">
        <ele>2041</ele>
        <time>2021-04-07T07:18:45Z</time>
      </trkpt>
      <trkpt lat="44.50444" lon="6.59438">
        <ele>2041</ele>
        <time>2021-04-07T07:18:46Z</time>
      </trkpt>
      <trkpt lat="44.50444" lon="6.59438">
        <ele>2042</ele>
        <time>2021-04-07T07:18:47Z</time>
      </trkpt>
      <trkpt lat="44.50445" lon="6.59437">
        <ele>2042</ele>
        <time>2021-04-07T07:18:48Z</time>
      </trkpt>
      <trkpt lat="44.50445" lon="6.59437">
        <ele>2042</ele>
        <time>2021-04-07T07:18:49Z</time>
      </trkpt>
      <trkpt lat="44.50445" lon="6.59436">
        <ele>2042</ele>
        <time>2021-04-07T07:18:50Z</time>
      </trkpt>
      <trkpt lat="44.50445" lon="6.59436">
        <ele>2042</ele>
        <time>2021-04-07T07:18:51Z</time>
      </trkpt>
      <trkpt lat="44.50445" lon="6.59436">
        <ele>2042</ele>
        <time>2021-04-07T07:18:52Z</time>
      </trkpt>
      <trkpt lat="44.50444" lon="6.59437">
        <ele>2042</ele>
        <time>2021-04-07T07:18:53Z</time>
      </trkpt>
      <trkpt lat="44.50443" lon="6.59437">
        <ele>2042</ele>
        <time>2021-04-07T07:18:54Z</time>
      </trkpt>
      <trkpt lat="44.50443" lon="6.59437">
        <ele>2042</ele>
        <time>2021-04-07T07:18:55Z</time>
      </trkpt>
      <trkpt lat="44.50443" lon="6.59437">
        <ele>2043</ele>
        <time>2021-04-07T07:18:56Z</time>
      </trkpt>
      <trkpt lat="44.50442" lon="6.59438">
        <ele>2043</ele>
        <time>2021-04-07T07:18:57Z</time>
      </trkpt>
      <trkpt lat="44.50442" lon="6.59437">
        <ele>2043</ele>
        <time>2021-04-07T07:18:58Z</time>
      </trkpt>
      <trkpt lat="44.50441" lon="6.59437">
        <ele>2043</ele>
        <time>2021-04-07T07:18:59Z</time>
      </trkpt>
      <trkpt lat="44.50441" lon="6.59437">
        <ele>2044</ele>
        <time>2021-04-07T07:19:00Z</time>
      </trkpt>
      <trkpt lat="44.50441" lon="6.59437">
        <ele>2044</ele>
        <time>2021-04-07T07:19:01Z</time>
      </trkpt>
      <trkpt lat="44.50441" lon="6.59437">
        <ele>2044</ele>
        <time>2021-04-07T07:19:02Z</time>
      </trkpt>
      <trkpt lat="44.5044" lon="6.59437">
        <ele>2044</ele>
        <time>2021-04-07T07:19:03Z</time>
      </trkpt>
      <trkpt lat="44.50439" lon="6.59437">
        <ele>2044</ele>
        <time>2021-04-07T07:19:04Z</time>
      </trkpt>
      <trkpt lat="44.50439" lon="6.59437">
        <ele>2045</ele>
        <time>2021-04-07T07:19:05Z</time>
      </trkpt>
      <trkpt lat="44.50439" lon="6.59437">
        <ele>2045</ele>
        <time>2021-04-07T07:19:06Z</time>
      </trkpt>
      <trkpt lat="44.50439" lon="6.59437">
        <ele>2045</ele>
        <time>2021-04-07T07:19:07Z</time>
      </trkpt>
      <trkpt lat="44.50439" lon="6.59437">
        <ele>2045</ele>
        <time>2021-04-07T07:19:08Z</time>
      </trkpt>
      <trkpt lat="44.50439" lon="6.59437">
        <ele>2045</ele>
        <time>2021-04-07T07:19:09Z</time>
      </trkpt>
      <trkpt lat="44.50439" lon="6.59437">
        <ele>2045</ele>
        <time>2021-04-07T07:19:10Z</time>
      </trkpt>
      <trkpt lat="44.50435" lon="6.59437">
        <ele>2046</ele>
        <time>2021-04-07T07:19:11Z</time>
      </trkpt>
      <trkpt lat="44.50434" lon="6.59436">
        <ele>2046</ele>
        <time>2021-04-07T07:19:12Z</time>
      </trkpt>
      <trkpt lat="44.50434" lon="6.59436">
        <ele>2046</ele>
        <time>2021-04-07T07:19:13Z</time>
      </trkpt>
      <trkpt lat="44.50433" lon="6.59436">
        <ele>2047</ele>
        <time>2021-04-07T07:19:14Z</time>
      </trkpt>
      <trkpt lat="44.50433" lon="6.59435">
        <ele>2047</ele>
        <time>2021-04-07T07:19:15Z</time>
      </trkpt>
      <trkpt lat="44.50434" lon="6.59435">
        <ele>2047</ele>
        <time>2021-04-07T07:19:16Z</time>
      </trkpt>
      <trkpt lat="44.50434" lon="6.59434">
        <ele>2047</ele>
        <time>2021-04-07T07:19:17Z</time>
      </trkpt>
      <trkpt lat="44.50434" lon="6.59433">
        <ele>2047</ele>
        <time>2021-04-07T07:19:18Z</time>
      </trkpt>
      <trkpt lat="44.50434" lon="6.59433">
        <ele>2048</ele>
        <time>2021-04-07T07:19:19Z</time>
      </trkpt>
      <trkpt lat="44.50434" lon="6.59432">
        <ele>2048</ele>
        <time>2021-04-07T07:19:20Z</time>
      </trkpt>
      <trkpt lat="44.50433" lon="6.59431">
        <ele>2048</ele>
        <time>2021-04-07T07:19:21Z</time>
      </trkpt>
      <trkpt lat="44.50433" lon="6.59431">
        <ele>2049</ele>
        <time>2021-04-07T07:19:22Z</time>
      </trkpt>
      <trkpt lat="44.50433" lon="6.5943">
        <ele>2049</ele>
        <time>2021-04-07T07:19:23Z</time>
      </trkpt>
      <trkpt lat="44.50433" lon="6.5943">
        <ele>2049</ele>
        <time>2021-04-07T07:19:24Z</time>
      </trkpt>
      <trkpt lat="44.50432" lon="6.59429">
        <ele>2049</ele>
        <time>2021-04-07T07:19:25Z</time>
      </trkpt>
      <trkpt lat="44.50432" lon="6.59429">
        <ele>2049</ele>
        <time>2021-04-07T07:19:26Z</time>
      </trkpt>
      <trkpt lat="44.50431" lon="6.59429">
        <ele>2050</ele>
        <time>2021-04-07T07:19:27Z</time>
      </trkpt>
      <trkpt lat="44.5043" lon="6.59429">
        <ele>2050</ele>
        <time>2021-04-07T07:19:28Z</time>
      </trkpt>
      <trkpt lat="44.5043" lon="6.59429">
        <ele>2050</ele>
        <time>2021-04-07T07:19:29Z</time>
      </trkpt>
      <trkpt lat="44.50429" lon="6.59429">
        <ele>2050</ele>
        <time>2021-04-07T07:19:30Z</time>
      </trkpt>
      <trkpt lat="44.50429" lon="6.5943">
        <ele>2051</ele>
        <time>2021-04-07T07:19:31Z</time>
      </trkpt>
      <trkpt lat="44.50428" lon="6.5943">
        <ele>2051</ele>
        <time>2021-04-07T07:19:32Z</time>
      </trkpt>
      <trkpt lat="44.50428" lon="6.5943">
        <ele>2051</ele>
        <time>2021-04-07T07:19:33Z</time>
      </trkpt>
      <trkpt lat="44.50427" lon="6.59429">
        <ele>2052</ele>
        <time>2021-04-07T07:19:34Z</time>
      </trkpt>
      <trkpt lat="44.50426" lon="6.59429">
        <ele>2052</ele>
        <time>2021-04-07T07:19:35Z</time>
      </trkpt>
      <trkpt lat="44.50425" lon="6.59429">
        <ele>2052</ele>
        <time>2021-04-07T07:19:36Z</time>
      </trkpt>
      <trkpt lat="44.50425" lon="6.59428">
        <ele>2053</ele>
        <time>2021-04-07T07:19:37Z</time>
      </trkpt>
      <trkpt lat="44.50424" lon="6.59428">
        <ele>2053</ele>
        <time>2021-04-07T07:19:38Z</time>
      </trkpt>
      <trkpt lat="44.50424" lon="6.59427">
        <ele>2053</ele>
        <time>2021-04-07T07:19:39Z</time>
      </trkpt>
      <trkpt lat="44.50424" lon="6.59426">
        <ele>2053</ele>
        <time>2021-04-07T07:19:40Z</time>
      </trkpt>
      <trkpt lat="44.50423" lon="6.59425">
        <ele>2053</ele>
        <time>2021-04-07T07:19:41Z</time>
      </trkpt>
      <trkpt lat="44.50423" lon="6.59425">
        <ele>2054</ele>
        <time>2021-04-07T07:19:42Z</time>
      </trkpt>
      <trkpt lat="44.50422" lon="6.59424">
        <ele>2054</ele>
        <time>2021-04-07T07:19:43Z</time>
      </trkpt>
      <trkpt lat="44.50422" lon="6.59424">
        <ele>2054</ele>
        <time>2021-04-07T07:19:44Z</time>
      </trkpt>
      <trkpt lat="44.50422" lon="6.59423">
        <ele>2054</ele>
        <time>2021-04-07T07:19:45Z</time>
      </trkpt>
      <trkpt lat="44.50422" lon="6.59423">
        <ele>2055</ele>
        <time>2021-04-07T07:19:46Z</time>
      </trkpt>
      <trkpt lat="44.50421" lon="6.59423">
        <ele>2055</ele>
        <time>2021-04-07T07:19:47Z</time>
      </trkpt>
      <trkpt lat="44.50421" lon="6.59422">
        <ele>2055</ele>
        <time>2021-04-07T07:19:48Z</time>
      </trkpt>
      <trkpt lat="44.5042" lon="6.59422">
        <ele>2055</ele>
        <time>2021-04-07T07:19:49Z</time>
      </trkpt>
      <trkpt lat="44.50419" lon="6.59421">
        <ele>2056</ele>
        <time>2021-04-07T07:19:50Z</time>
      </trkpt>
      <trkpt lat="44.50419" lon="6.59421">
        <ele>2056</ele>
        <time>2021-04-07T07:19:51Z</time>
      </trkpt>
      <trkpt lat="44.50419" lon="6.5942">
        <ele>2056</ele>
        <time>2021-04-07T07:19:52Z</time>
      </trkpt>
      <trkpt lat="44.50418" lon="6.5942">
        <ele>2056</ele>
        <time>2021-04-07T07:19:53Z</time>
      </trkpt>
      <trkpt lat="44.50418" lon="6.59419">
        <ele>2057</ele>
        <time>2021-04-07T07:19:54Z</time>
      </trkpt>
      <trkpt lat="44.50417" lon="6.59419">
        <ele>2057</ele>
        <time>2021-04-07T07:19:55Z</time>
      </trkpt>
      <trkpt lat="44.50416" lon="6.59419">
        <ele>2057</ele>
        <time>2021-04-07T07:19:56Z</time>
      </trkpt>
      <trkpt lat="44.50416" lon="6.59418">
        <ele>2057</ele>
        <time>2021-04-07T07:19:57Z</time>
      </trkpt>
      <trkpt lat="44.50415" lon="6.59417">
        <ele>2058</ele>
        <time>2021-04-07T07:19:58Z</time>
      </trkpt>
      <trkpt lat="44.50415" lon="6.59416">
        <ele>2058</ele>
        <time>2021-04-07T07:19:59Z</time>
      </trkpt>
      <trkpt lat="44.50415" lon="6.59416">
        <ele>2058</ele>
        <time>2021-04-07T07:20:00Z</time>
      </trkpt>
      <trkpt lat="44.50414" lon="6.59415">
        <ele>2058</ele>
        <time>2021-04-07T07:20:01Z</time>
      </trkpt>
      <trkpt lat="44.50414" lon="6.59414">
        <ele>2059</ele>
        <time>2021-04-07T07:20:02Z</time>
      </trkpt>
      <trkpt lat="44.50414" lon="6.59413">
        <ele>2059</ele>
        <time>2021-04-07T07:20:03Z</time>
      </trkpt>
      <trkpt lat="44.50413" lon="6.59412">
        <ele>2059</ele>
        <time>2021-04-07T07:20:04Z</time>
      </trkpt>
      <trkpt lat="44.50413" lon="6.59411">
        <ele>2060</ele>
        <time>2021-04-07T07:20:05Z</time>
      </trkpt>
      <trkpt lat="44.50413" lon="6.59411">
        <ele>2060</ele>
        <time>2021-04-07T07:20:06Z</time>
      </trkpt>
      <trkpt lat="44.50412" lon="6.5941">
        <ele>2060</ele>
        <time>2021-04-07T07:20:07Z</time>
      </trkpt>
      <trkpt lat="44.50412" lon="6.59409">
        <ele>2060</ele>
        <time>2021-04-07T07:20:08Z</time>
      </trkpt>
      <trkpt lat="44.50412" lon="6.59409">
        <ele>2060</ele>
        <time>2021-04-07T07:20:09Z</time>
      </trkpt>
      <trkpt lat="44.50412" lon="6.59408">
        <ele>2060</ele>
        <time>2021-04-07T07:20:10Z</time>
      </trkpt>
      <trkpt lat="44.50412" lon="6.59407">
        <ele>2060</ele>
        <time>2021-04-07T07:20:11Z</time>
      </trkpt>
      <trkpt lat="44.50412" lon="6.59407">
        <ele>2061</ele>
        <time>2021-04-07T07:20:12Z</time>
      </trkpt>
      <trkpt lat="44.50412" lon="6.59405">
        <ele>2061</ele>
        <time>2021-04-07T07:20:13Z</time>
      </trkpt>
      <trkpt lat="44.50412" lon="6.59405">
        <ele>2061</ele>
        <time>2021-04-07T07:20:14Z</time>
      </trkpt>
      <trkpt lat="44.50412" lon="6.59404">
        <ele>2061</ele>
        <time>2021-04-07T07:20:15Z</time>
      </trkpt>
      <trkpt lat="44.50412" lon="6.59403">
        <ele>2061</ele>
        <time>2021-04-07T07:20:16Z</time>
      </trkpt>
      <trkpt lat="44.50412" lon="6.59402">
        <ele>2061</ele>
        <time>2021-04-07T07:20:17Z</time>
      </trkpt>
      <trkpt lat="44.50411" lon="6.59402">
        <ele>2062</ele>
        <time>2021-04-07T07:20:18Z</time>
      </trkpt>
      <trkpt lat="44.50411" lon="6.59401">
        <ele>2062</ele>
        <time>2021-04-07T07:20:19Z</time>
      </trkpt>
      <trkpt lat="44.50411" lon="6.59401">
        <ele>2062</ele>
        <time>2021-04-07T07:20:20Z</time>
      </trkpt>
      <trkpt lat="44.50411" lon="6.594">
        <ele>2062</ele>
        <time>2021-04-07T07:20:21Z</time>
      </trkpt>
      <trkpt lat="44.50411" lon="6.594">
        <ele>2062</ele>
        <time>2021-04-07T07:20:22Z</time>
      </trkpt>
      <trkpt lat="44.5041" lon="6.594">
        <ele>2062</ele>
        <time>2021-04-07T07:20:23Z</time>
      </trkpt>
      <trkpt lat="44.5041" lon="6.594">
        <ele>2062</ele>
        <time>2021-04-07T07:20:24Z</time>
      </trkpt>
      <trkpt lat="44.5041" lon="6.594">
        <ele>2062</ele>
        <time>2021-04-07T07:20:25Z</time>
      </trkpt>
      <trkpt lat="44.5041" lon="6.594">
        <ele>2062</ele>
        <time>2021-04-07T07:20:26Z</time>
      </trkpt>
      <trkpt lat="44.5041" lon="6.594">
        <ele>2062</ele>
        <time>2021-04-07T07:20:27Z</time>
      </trkpt>
      <trkpt lat="44.5041" lon="6.594">
        <ele>2062</ele>
        <time>2021-04-07T07:20:28Z</time>
      </trkpt>
      <trkpt lat="44.5041" lon="6.594">
        <ele>2062</ele>
        <time>2021-04-07T07:20:29Z</time>
      </trkpt>
      <trkpt lat="44.5041" lon="6.594">
        <ele>2062</ele>
        <time>2021-04-07T07:20:30Z</time>
      </trkpt>
      <trkpt lat="44.5041" lon="6.594">
        <ele>2062</ele>
        <time>2021-04-07T07:20:31Z</time>
      </trkpt>
      <trkpt lat="44.5041" lon="6.594">
        <ele>2062</ele>
        <time>2021-04-07T07:20:32Z</time>
      </trkpt>
      <trkpt lat="44.5041" lon="6.594">
        <ele>2062</ele>
        <time>2021-04-07T07:20:33Z</time>
      </trkpt>
      <trkpt lat="44.5041" lon="6.594">
        <ele>2062</ele>
        <time>2021-04-07T07:20:34Z</time>
      </trkpt>
      <trkpt lat="44.5041" lon="6.594">
        <ele>2062</ele>
        <time>2021-04-07T07:20:35Z</time>
      </trkpt>
      <trkpt lat="44.5041" lon="6.594">
        <ele>2062</ele>
        <time>2021-04-07T07:20:36Z</time>
      </trkpt>
      <trkpt lat="44.5041" lon="6.594">
        <ele>2062</ele>
        <time>2021-04-07T07:20:37Z</time>
      </trkpt>
      <trkpt lat="44.5041" lon="6.594">
        <ele>2062</ele>
        <time>2021-04-07T07:20:38Z</time>
      </trkpt>
      <trkpt lat="44.5041" lon="6.594">
        <ele>2063</ele>
        <time>2021-04-07T07:20:39Z</time>
      </trkpt>
      <trkpt lat="44.5041" lon="6.594">
        <ele>2063</ele>
        <time>2021-04-07T07:20:40Z</time>
      </trkpt>
      <trkpt lat="44.5041" lon="6.594">
        <ele>2063</ele>
        <time>2021-04-07T07:20:41Z</time>
      </trkpt>
      <trkpt lat="44.5041" lon="6.594">
        <ele>2063</ele>
        <time>2021-04-07T07:20:42Z</time>
      </trkpt>
      <trkpt lat="44.5041" lon="6.594">
        <ele>2063</ele>
        <time>2021-04-07T07:20:43Z</time>
      </trkpt>
      <trkpt lat="44.5041" lon="6.594">
        <ele>2063</ele>
        <time>2021-04-07T07:20:44Z</time>
      </trkpt>
      <trkpt lat="44.5041" lon="6.594">
        <ele>2063</ele>
        <time>2021-04-07T07:20:45Z</time>
      </trkpt>
      <trkpt lat="44.5041" lon="6.594">
        <ele>2063</ele>
        <time>2021-04-07T07:20:46Z</time>
      </trkpt>
      <trkpt lat="44.5041" lon="6.594">
        <ele>2063</ele>
        <time>2021-04-07T07:20:47Z</time>
      </trkpt>
      <trkpt lat="44.5041" lon="6.594">
        <ele>2063</ele>
        <time>2021-04-07T07:20:48Z</time>
      </trkpt>
      <trkpt lat="44.5041" lon="6.594">
        <ele>2063</ele>
        <time>2021-04-07T07:20:49Z</time>
      </trkpt>
      <trkpt lat="44.5041" lon="6.594">
        <ele>2063</ele>
        <time>2021-04-07T07:20:50Z</time>
      </trkpt>
      <trkpt lat="44.5041" lon="6.594">
        <ele>2063</ele>
        <time>2021-04-07T07:20:51Z</time>
      </trkpt>
      <trkpt lat="44.5041" lon="6.594">
        <ele>2063</ele>
        <time>2021-04-07T07:20:52Z</time>
      </trkpt>
      <trkpt lat="44.5041" lon="6.594">
        <ele>2063</ele>
        <time>2021-04-07T07:20:53Z</time>
      </trkpt>
      <trkpt lat="44.5041" lon="6.594">
        <ele>2063</ele>
        <time>2021-04-07T07:20:54Z</time>
      </trkpt>
      <trkpt lat="44.5041" lon="6.594">
        <ele>2063</ele>
        <time>2021-04-07T07:20:55Z</time>
      </trkpt>
      <trkpt lat="44.5041" lon="6.594">
        <ele>2063</ele>
        <time>2021-04-07T07:20:56Z</time>
      </trkpt>
      <trkpt lat="44.5041" lon="6.594">
        <ele>2063</ele>
        <time>2021-04-07T07:20:57Z</time>
      </trkpt>
      <trkpt lat="44.50411" lon="6.59402">
        <ele>2063</ele>
        <time>2021-04-07T07:20:58Z</time>
      </trkpt>
      <trkpt lat="44.50411" lon="6.59403">
        <ele>2063</ele>
        <time>2021-04-07T07:20:59Z</time>
      </trkpt>
      <trkpt lat="44.50411" lon="6.59402">
        <ele>2063</ele>
        <time>2021-04-07T07:21:00Z</time>
      </trkpt>
      <trkpt lat="44.50411" lon="6.59402">
        <ele>2063</ele>
        <time>2021-04-07T07:21:01Z</time>
      </trkpt>
      <trkpt lat="44.5041" lon="6.59401">
        <ele>2062</ele>
        <time>2021-04-07T07:21:02Z</time>
      </trkpt>
      <trkpt lat="44.5041" lon="6.594">
        <ele>2062</ele>
        <time>2021-04-07T07:21:03Z</time>
      </trkpt>
      <trkpt lat="44.5041" lon="6.59399">
        <ele>2062</ele>
        <time>2021-04-07T07:21:04Z</time>
      </trkpt>
      <trkpt lat="44.5041" lon="6.59399">
        <ele>2062</ele>
        <time>2021-04-07T07:21:05Z</time>
      </trkpt>
      <trkpt lat="44.50409" lon="6.59398">
        <ele>2062</ele>
        <time>2021-04-07T07:21:06Z</time>
      </trkpt>
      <trkpt lat="44.50408" lon="6.59398">
        <ele>2061</ele>
        <time>2021-04-07T07:21:07Z</time>
      </trkpt>
      <trkpt lat="44.50408" lon="6.59397">
        <ele>2061</ele>
        <time>2021-04-07T07:21:08Z</time>
      </trkpt>
      <trkpt lat="44.50408" lon="6.59397">
        <ele>2061</ele>
        <time>2021-04-07T07:21:09Z</time>
      </trkpt>
      <trkpt lat="44.50407" lon="6.59396">
        <ele>2061</ele>
        <time>2021-04-07T07:21:10Z</time>
      </trkpt>
      <trkpt lat="44.50407" lon="6.59395">
        <ele>2061</ele>
        <time>2021-04-07T07:21:11Z</time>
      </trkpt>
      <trkpt lat="44.50407" lon="6.59395">
        <ele>2061</ele>
        <time>2021-04-07T07:21:12Z</time>
      </trkpt>
      <trkpt lat="44.50407" lon="6.59395">
        <ele>2061</ele>
        <time>2021-04-07T07:21:13Z</time>
      </trkpt>
      <trkpt lat="44.50407" lon="6.59395">
        <ele>2061</ele>
        <time>2021-04-07T07:21:14Z</time>
      </trkpt>
      <trkpt lat="44.50407" lon="6.59395">
        <ele>2061</ele>
        <time>2021-04-07T07:21:15Z</time>
      </trkpt>
      <trkpt lat="44.50406" lon="6.59395">
        <ele>2061</ele>
        <time>2021-04-07T07:21:16Z</time>
      </trkpt>
      <trkpt lat="44.50406" lon="6.59394">
        <ele>2061</ele>
        <time>2021-04-07T07:21:17Z</time>
      </trkpt>
      <trkpt lat="44.50406" lon="6.59394">
        <ele>2061</ele>
        <time>2021-04-07T07:21:18Z</time>
      </trkpt>
      <trkpt lat="44.50406" lon="6.59394">
        <ele>2061</ele>
        <time>2021-04-07T07:21:19Z</time>
      </trkpt>
      <trkpt lat="44.50406" lon="6.59394">
        <ele>2061</ele>
        <time>2021-04-07T07:21:20Z</time>
      </trkpt>
      <trkpt lat="44.50406" lon="6.59394">
        <ele>2061</ele>
        <time>2021-04-07T07:21:21Z</time>
      </trkpt>
      <trkpt lat="44.50406" lon="6.59394">
        <ele>2061</ele>
        <time>2021-04-07T07:21:22Z</time>
      </trkpt>
      <trkpt lat="44.50406" lon="6.59394">
        <ele>2061</ele>
        <time>2021-04-07T07:21:23Z</time>
      </trkpt>
      <trkpt lat="44.50406" lon="6.59391">
        <ele>2061</ele>
        <time>2021-04-07T07:21:24Z</time>
      </trkpt>
      <trkpt lat="44.50405" lon="6.59391">
        <ele>2064</ele>
        <time>2021-04-07T07:21:25Z</time>
      </trkpt>
      <trkpt lat="44.50405" lon="6.5939">
        <ele>2064</ele>
        <time>2021-04-07T07:21:26Z</time>
      </trkpt>
      <trkpt lat="44.50404" lon="6.5939">
        <ele>2065</ele>
        <time>2021-04-07T07:21:27Z</time>
      </trkpt>
      <trkpt lat="44.50404" lon="6.5939">
        <ele>2065</ele>
        <time>2021-04-07T07:21:28Z</time>
      </trkpt>
      <trkpt lat="44.50404" lon="6.59391">
        <ele>2065</ele>
        <time>2021-04-07T07:21:29Z</time>
      </trkpt>
      <trkpt lat="44.50404" lon="6.59392">
        <ele>2065</ele>
        <time>2021-04-07T07:21:30Z</time>
      </trkpt>
      <trkpt lat="44.50404" lon="6.59392">
        <ele>2065</ele>
        <time>2021-04-07T07:21:31Z</time>
      </trkpt>
      <trkpt lat="44.50404" lon="6.59392">
        <ele>2065</ele>
        <time>2021-04-07T07:21:32Z</time>
      </trkpt>
      <trkpt lat="44.50404" lon="6.59391">
        <ele>2065</ele>
        <time>2021-04-07T07:21:33Z</time>
      </trkpt>
      <trkpt lat="44.50404" lon="6.5939">
        <ele>2065</ele>
        <time>2021-04-07T07:21:34Z</time>
      </trkpt>
      <trkpt lat="44.50404" lon="6.5939">
        <ele>2065</ele>
        <time>2021-04-07T07:21:35Z</time>
      </trkpt>
      <trkpt lat="44.50404" lon="6.5939">
        <ele>2065</ele>
        <time>2021-04-07T07:21:36Z</time>
      </trkpt>
      <trkpt lat="44.50404" lon="6.5939">
        <ele>2065</ele>
        <time>2021-04-07T07:21:37Z</time>
      </trkpt>
      <trkpt lat="44.50404" lon="6.5939">
        <ele>2065</ele>
        <time>2021-04-07T07:21:38Z</time>
      </trkpt>
      <trkpt lat="44.50404" lon="6.5939">
        <ele>2065</ele>
        <time>2021-04-07T07:21:39Z</time>
      </trkpt>
      <trkpt lat="44.50404" lon="6.5939">
        <ele>2065</ele>
        <time>2021-04-07T07:21:40Z</time>
      </trkpt>
      <trkpt lat="44.50404" lon="6.5939">
        <ele>2065</ele>
        <time>2021-04-07T07:21:41Z</time>
      </trkpt>
      <trkpt lat="44.50404" lon="6.5939">
        <ele>2065</ele>
        <time>2021-04-07T07:21:42Z</time>
      </trkpt>
      <trkpt lat="44.50404" lon="6.5939">
        <ele>2065</ele>
        <time>2021-04-07T07:21:43Z</time>
      </trkpt>
      <trkpt lat="44.50404" lon="6.5939">
        <ele>2065</ele>
        <time>2021-04-07T07:21:44Z</time>
      </trkpt>
      <trkpt lat="44.50404" lon="6.5939">
        <ele>2065</ele>
        <time>2021-04-07T07:21:45Z</time>
      </trkpt>
      <trkpt lat="44.50404" lon="6.5939">
        <ele>2065</ele>
        <time>2021-04-07T07:21:46Z</time>
      </trkpt>
      <trkpt lat="44.50404" lon="6.5939">
        <ele>2065</ele>
        <time>2021-04-07T07:21:47Z</time>
      </trkpt>
      <trkpt lat="44.50404" lon="6.5939">
        <ele>2065</ele>
        <time>2021-04-07T07:21:48Z</time>
      </trkpt>
      <trkpt lat="44.50404" lon="6.5939">
        <ele>2065</ele>
        <time>2021-04-07T07:21:49Z</time>
      </trkpt>
      <trkpt lat="44.50404" lon="6.5939">
        <ele>2065</ele>
        <time>2021-04-07T07:21:50Z</time>
      </trkpt>
      <trkpt lat="44.50404" lon="6.5939">
        <ele>2065</ele>
        <time>2021-04-07T07:21:51Z</time>
      </trkpt>
      <trkpt lat="44.50404" lon="6.5939">
        <ele>2065</ele>
        <time>2021-04-07T07:21:52Z</time>
      </trkpt>
      <trkpt lat="44.50404" lon="6.5939">
        <ele>2065</ele>
        <time>2021-04-07T07:21:53Z</time>
      </trkpt>
      <trkpt lat="44.50404" lon="6.5939">
        <ele>2065</ele>
        <time>2021-04-07T07:21:54Z</time>
      </trkpt>
      <trkpt lat="44.50404" lon="6.5939">
        <ele>2065</ele>
        <time>2021-04-07T07:21:55Z</time>
      </trkpt>
      <trkpt lat="44.50404" lon="6.5939">
        <ele>2065</ele>
        <time>2021-04-07T07:21:56Z</time>
      </trkpt>
      <trkpt lat="44.50404" lon="6.5939">
        <ele>2065</ele>
        <time>2021-04-07T07:21:57Z</time>
      </trkpt>
      <trkpt lat="44.50404" lon="6.5939">
        <ele>2065</ele>
        <time>2021-04-07T07:21:58Z</time>
      </trkpt>
      <trkpt lat="44.50404" lon="6.5939">
        <ele>2065</ele>
        <time>2021-04-07T07:21:59Z</time>
      </trkpt>
      <trkpt lat="44.50404" lon="6.59393">
        <ele>2065</ele>
        <time>2021-04-07T07:22:00Z</time>
      </trkpt>
      <trkpt lat="44.50403" lon="6.59392">
        <ele>2065</ele>
        <time>2021-04-07T07:22:01Z</time>
      </trkpt>
      <trkpt lat="44.50403" lon="6.59392">
        <ele>2065</ele>
        <time>2021-04-07T07:22:02Z</time>
      </trkpt>
      <trkpt lat="44.50405" lon="6.59391">
        <ele>2065</ele>
        <time>2021-04-07T07:22:03Z</time>
      </trkpt>
      <trkpt lat="44.50405" lon="6.5939">
        <ele>2065</ele>
        <time>2021-04-07T07:22:04Z</time>
      </trkpt>
      <trkpt lat="44.50405" lon="6.5939">
        <ele>2065</ele>
        <time>2021-04-07T07:22:05Z</time>
      </trkpt>
      <trkpt lat="44.50405" lon="6.59388">
        <ele>2065</ele>
        <time>2021-04-07T07:22:06Z</time>
      </trkpt>
      <trkpt lat="44.50406" lon="6.59387">
        <ele>2065</ele>
        <time>2021-04-07T07:22:07Z</time>
      </trkpt>
      <trkpt lat="44.50407" lon="6.59386">
        <ele>2065</ele>
        <time>2021-04-07T07:22:08Z</time>
      </trkpt>
      <trkpt lat="44.50407" lon="6.59384">
        <ele>2064</ele>
        <time>2021-04-07T07:22:09Z</time>
      </trkpt>
      <trkpt lat="44.50408" lon="6.59382">
        <ele>2064</ele>
        <time>2021-04-07T07:22:10Z</time>
      </trkpt>
      <trkpt lat="44.50409" lon="6.59381">
        <ele>2063</ele>
        <time>2021-04-07T07:22:11Z</time>
      </trkpt>
      <trkpt lat="44.5041" lon="6.59379">
        <ele>2062</ele>
        <time>2021-04-07T07:22:12Z</time>
      </trkpt>
      <trkpt lat="44.5041" lon="6.59377">
        <ele>2062</ele>
        <time>2021-04-07T07:22:13Z</time>
      </trkpt>
      <trkpt lat="44.50411" lon="6.59375">
        <ele>2061</ele>
        <time>2021-04-07T07:22:14Z</time>
      </trkpt>
      <trkpt lat="44.50413" lon="6.59374">
        <ele>2061</ele>
        <time>2021-04-07T07:22:15Z</time>
      </trkpt>
      <trkpt lat="44.50414" lon="6.59373">
        <ele>2061</ele>
        <time>2021-04-07T07:22:16Z</time>
      </trkpt>
      <trkpt lat="44.50415" lon="6.59372">
        <ele>2061</ele>
        <time>2021-04-07T07:22:17Z</time>
      </trkpt>
      <trkpt lat="44.50416" lon="6.59371">
        <ele>2061</ele>
        <time>2021-04-07T07:22:18Z</time>
      </trkpt>
      <trkpt lat="44.50418" lon="6.5937">
        <ele>2061</ele>
        <time>2021-04-07T07:22:19Z</time>
      </trkpt>
      <trkpt lat="44.50419" lon="6.59368">
        <ele>2060</ele>
        <time>2021-04-07T07:22:20Z</time>
      </trkpt>
      <trkpt lat="44.50421" lon="6.59368">
        <ele>2060</ele>
        <time>2021-04-07T07:22:21Z</time>
      </trkpt>
      <trkpt lat="44.50423" lon="6.59367">
        <ele>2060</ele>
        <time>2021-04-07T07:22:22Z</time>
      </trkpt>
      <trkpt lat="44.50425" lon="6.59365">
        <ele>2061</ele>
        <time>2021-04-07T07:22:23Z</time>
      </trkpt>
      <trkpt lat="44.50426" lon="6.59364">
        <ele>2061</ele>
        <time>2021-04-07T07:22:24Z</time>
      </trkpt>
      <trkpt lat="44.50427" lon="6.59363">
        <ele>2061</ele>
        <time>2021-04-07T07:22:25Z</time>
      </trkpt>
      <trkpt lat="44.50429" lon="6.59361">
        <ele>2061</ele>
        <time>2021-04-07T07:22:26Z</time>
      </trkpt>
      <trkpt lat="44.50431" lon="6.5936">
        <ele>2062</ele>
        <time>2021-04-07T07:22:27Z</time>
      </trkpt>
      <trkpt lat="44.50433" lon="6.59359">
        <ele>2062</ele>
        <time>2021-04-07T07:22:28Z</time>
      </trkpt>
      <trkpt lat="44.50434" lon="6.59358">
        <ele>2062</ele>
        <time>2021-04-07T07:22:29Z</time>
      </trkpt>
      <trkpt lat="44.50435" lon="6.59357">
        <ele>2062</ele>
        <time>2021-04-07T07:22:30Z</time>
      </trkpt>
      <trkpt lat="44.50435" lon="6.59356">
        <ele>2062</ele>
        <time>2021-04-07T07:22:31Z</time>
      </trkpt>
      <trkpt lat="44.50436" lon="6.59356">
        <ele>2062</ele>
        <time>2021-04-07T07:22:32Z</time>
      </trkpt>
      <trkpt lat="44.50437" lon="6.59356">
        <ele>2062</ele>
        <time>2021-04-07T07:22:33Z</time>
      </trkpt>
      <trkpt lat="44.50438" lon="6.59356">
        <ele>2063</ele>
        <time>2021-04-07T07:22:34Z</time>
      </trkpt>
      <trkpt lat="44.5044" lon="6.59356">
        <ele>2063</ele>
        <time>2021-04-07T07:22:35Z</time>
      </trkpt>
      <trkpt lat="44.5044" lon="6.59356">
        <ele>2063</ele>
        <time>2021-04-07T07:22:36Z</time>
      </trkpt>
      <trkpt lat="44.50441" lon="6.59356">
        <ele>2063</ele>
        <time>2021-04-07T07:22:37Z</time>
      </trkpt>
      <trkpt lat="44.50441" lon="6.59356">
        <ele>2063</ele>
        <time>2021-04-07T07:22:38Z</time>
      </trkpt>
      <trkpt lat="44.50442" lon="6.59356">
        <ele>2063</ele>
        <time>2021-04-07T07:22:39Z</time>
      </trkpt>
      <trkpt lat="44.50443" lon="6.59357">
        <ele>2063</ele>
        <time>2021-04-07T07:22:40Z</time>
      </trkpt>
      <trkpt lat="44.50443" lon="6.59357">
        <ele>2063</ele>
        <time>2021-04-07T07:22:41Z</time>
      </trkpt>
      <trkpt lat="44.50445" lon="6.59358">
        <ele>2063</ele>
        <time>2021-04-07T07:22:42Z</time>
      </trkpt>
      <trkpt lat="44.50446" lon="6.59359">
        <ele>2062</ele>
        <time>2021-04-07T07:22:43Z</time>
      </trkpt>
      <trkpt lat="44.50446" lon="6.59359">
        <ele>2062</ele>
        <time>2021-04-07T07:22:44Z</time>
      </trkpt>
      <trkpt lat="44.50447" lon="6.59359">
        <ele>2062</ele>
        <time>2021-04-07T07:22:45Z</time>
      </trkpt>
      <trkpt lat="44.50448" lon="6.5936">
        <ele>2062</ele>
        <time>2021-04-07T07:22:46Z</time>
      </trkpt>
      <trkpt lat="44.50448" lon="6.5936">
        <ele>2062</ele>
        <time>2021-04-07T07:22:47Z</time>
      </trkpt>
      <trkpt lat="44.50448" lon="6.59359">
        <ele>2063</ele>
        <time>2021-04-07T07:22:48Z</time>
      </trkpt>
      <trkpt lat="44.50448" lon="6.59359">
        <ele>2063</ele>
        <time>2021-04-07T07:22:49Z</time>
      </trkpt>
      <trkpt lat="44.50448" lon="6.59358">
        <ele>2063</ele>
        <time>2021-04-07T07:22:50Z</time>
      </trkpt>
      <trkpt lat="44.50448" lon="6.59358">
        <ele>2063</ele>
        <time>2021-04-07T07:22:51Z</time>
      </trkpt>
      <trkpt lat="44.50449" lon="6.59358">
        <ele>2063</ele>
        <time>2021-04-07T07:22:52Z</time>
      </trkpt>
      <trkpt lat="44.50449" lon="6.59357">
        <ele>2063</ele>
        <time>2021-04-07T07:22:53Z</time>
      </trkpt>
      <trkpt lat="44.50449" lon="6.59356">
        <ele>2063</ele>
        <time>2021-04-07T07:22:54Z</time>
      </trkpt>
      <trkpt lat="44.50448" lon="6.59355">
        <ele>2063</ele>
        <time>2021-04-07T07:22:55Z</time>
      </trkpt>
      <trkpt lat="44.50447" lon="6.59354">
        <ele>2063</ele>
        <time>2021-04-07T07:22:56Z</time>
      </trkpt>
      <trkpt lat="44.50446" lon="6.59353">
        <ele>2063</ele>
        <time>2021-04-07T07:22:57Z</time>
      </trkpt>
      <trkpt lat="44.50446" lon="6.59353">
        <ele>2063</ele>
        <time>2021-04-07T07:22:58Z</time>
      </trkpt>
      <trkpt lat="44.50445" lon="6.59352">
        <ele>2063</ele>
        <time>2021-04-07T07:22:59Z</time>
      </trkpt>
      <trkpt lat="44.50445" lon="6.59352">
        <ele>2063</ele>
        <time>2021-04-07T07:23:00Z</time>
      </trkpt>
      <trkpt lat="44.50444" lon="6.59351">
        <ele>2063</ele>
        <time>2021-04-07T07:23:01Z</time>
      </trkpt>
      <trkpt lat="44.50443" lon="6.5935">
        <ele>2063</ele>
        <time>2021-04-07T07:23:02Z</time>
      </trkpt>
      <trkpt lat="44.50442" lon="6.5935">
        <ele>2063</ele>
        <time>2021-04-07T07:23:03Z</time>
      </trkpt>
      <trkpt lat="44.50442" lon="6.5935">
        <ele>2063</ele>
        <time>2021-04-07T07:23:04Z</time>
      </trkpt>
      <trkpt lat="44.50442" lon="6.5935">
        <ele>2063</ele>
        <time>2021-04-07T07:23:05Z</time>
      </trkpt>
      <trkpt lat="44.50441" lon="6.5935">
        <ele>2063</ele>
        <time>2021-04-07T07:23:06Z</time>
      </trkpt>
      <trkpt lat="44.50441" lon="6.5935">
        <ele>2063</ele>
        <time>2021-04-07T07:23:07Z</time>
      </trkpt>
      <trkpt lat="44.50441" lon="6.5935">
        <ele>2063</ele>
        <time>2021-04-07T07:23:08Z</time>
      </trkpt>
      <trkpt lat="44.50441" lon="6.5935">
        <ele>2062</ele>
        <time>2021-04-07T07:23:09Z</time>
      </trkpt>
      <trkpt lat="44.50441" lon="6.5935">
        <ele>2062</ele>
        <time>2021-04-07T07:23:10Z</time>
      </trkpt>
      <trkpt lat="44.50441" lon="6.5935">
        <ele>2062</ele>
        <time>2021-04-07T07:23:11Z</time>
      </trkpt>
      <trkpt lat="44.50441" lon="6.5935">
        <ele>2062</ele>
        <time>2021-04-07T07:23:12Z</time>
      </trkpt>
      <trkpt lat="44.50441" lon="6.5935">
        <ele>2062</ele>
        <time>2021-04-07T07:23:13Z</time>
      </trkpt>
      <trkpt lat="44.50441" lon="6.5935">
        <ele>2062</ele>
        <time>2021-04-07T07:23:14Z</time>
      </trkpt>
      <trkpt lat="44.50441" lon="6.5935">
        <ele>2062</ele>
        <time>2021-04-07T07:23:15Z</time>
      </trkpt>
      <trkpt lat="44.50441" lon="6.5935">
        <ele>2062</ele>
        <time>2021-04-07T07:23:16Z</time>
      </trkpt>
      <trkpt lat="44.50441" lon="6.5935">
        <ele>2062</ele>
        <time>2021-04-07T07:23:17Z</time>
      </trkpt>
      <trkpt lat="44.50441" lon="6.5935">
        <ele>2062</ele>
        <time>2021-04-07T07:23:18Z</time>
      </trkpt>
      <trkpt lat="44.50441" lon="6.5935">
        <ele>2062</ele>
        <time>2021-04-07T07:23:19Z</time>
      </trkpt>
      <trkpt lat="44.50441" lon="6.5935">
        <ele>2062</ele>
        <time>2021-04-07T07:23:20Z</time>
      </trkpt>
      <trkpt lat="44.50441" lon="6.5935">
        <ele>2062</ele>
        <time>2021-04-07T07:23:21Z</time>
      </trkpt>
      <trkpt lat="44.50441" lon="6.5935">
        <ele>2062</ele>
        <time>2021-04-07T07:23:22Z</time>
      </trkpt>
      <trkpt lat="44.5044" lon="6.5935">
        <ele>2062</ele>
        <time>2021-04-07T07:23:23Z</time>
      </trkpt>
      <trkpt lat="44.50439" lon="6.5935">
        <ele>2062</ele>
        <time>2021-04-07T07:23:24Z</time>
      </trkpt>
      <trkpt lat="44.50439" lon="6.59351">
        <ele>2062</ele>
        <time>2021-04-07T07:23:25Z</time>
      </trkpt>
      <trkpt lat="44.50439" lon="6.59352">
        <ele>2062</ele>
        <time>2021-04-07T07:23:26Z</time>
      </trkpt>
      <trkpt lat="44.50439" lon="6.59352">
        <ele>2062</ele>
        <time>2021-04-07T07:23:27Z</time>
      </trkpt>
      <trkpt lat="44.50439" lon="6.59352">
        <ele>2062</ele>
        <time>2021-04-07T07:23:28Z</time>
      </trkpt>
      <trkpt lat="44.50437" lon="6.59352">
        <ele>2062</ele>
        <time>2021-04-07T07:23:29Z</time>
      </trkpt>
      <trkpt lat="44.50437" lon="6.59352">
        <ele>2061</ele>
        <time>2021-04-07T07:23:30Z</time>
      </trkpt>
      <trkpt lat="44.50436" lon="6.59352">
        <ele>2061</ele>
        <time>2021-04-07T07:23:31Z</time>
      </trkpt>
      <trkpt lat="44.50434" lon="6.59352">
        <ele>2061</ele>
        <time>2021-04-07T07:23:32Z</time>
      </trkpt>
      <trkpt lat="44.50433" lon="6.59351">
        <ele>2060</ele>
        <time>2021-04-07T07:23:33Z</time>
      </trkpt>
      <trkpt lat="44.50432" lon="6.59351">
        <ele>2059</ele>
        <time>2021-04-07T07:23:34Z</time>
      </trkpt>
      <trkpt lat="44.5043" lon="6.59352">
        <ele>2059</ele>
        <time>2021-04-07T07:23:35Z</time>
      </trkpt>
      <trkpt lat="44.5043" lon="6.59352">
        <ele>2059</ele>
        <time>2021-04-07T07:23:36Z</time>
      </trkpt>
      <trkpt lat="44.50428" lon="6.59351">
        <ele>2058</ele>
        <time>2021-04-07T07:23:37Z</time>
      </trkpt>
      <trkpt lat="44.50427" lon="6.59352">
        <ele>2057</ele>
        <time>2021-04-07T07:23:38Z</time>
      </trkpt>
      <trkpt lat="44.50425" lon="6.59353">
        <ele>2057</ele>
        <time>2021-04-07T07:23:39Z</time>
      </trkpt>
      <trkpt lat="44.50424" lon="6.59353">
        <ele>2056</ele>
        <time>2021-04-07T07:23:40Z</time>
      </trkpt>
      <trkpt lat="44.50423" lon="6.59353">
        <ele>2055</ele>
        <time>2021-04-07T07:23:41Z</time>
      </trkpt>
      <trkpt lat="44.50422" lon="6.59353">
        <ele>2055</ele>
        <time>2021-04-07T07:23:42Z</time>
      </trkpt>
      <trkpt lat="44.50421" lon="6.59353">
        <ele>2055</ele>
        <time>2021-04-07T07:23:43Z</time>
      </trkpt>
      <trkpt lat="44.5042" lon="6.59353">
        <ele>2055</ele>
        <time>2021-04-07T07:23:44Z</time>
      </trkpt>
      <trkpt lat="44.50419" lon="6.59353">
        <ele>2055</ele>
        <time>2021-04-07T07:23:45Z</time>
      </trkpt>
      <trkpt lat="44.50418" lon="6.59354">
        <ele>2055</ele>
        <time>2021-04-07T07:23:46Z</time>
      </trkpt>
      <trkpt lat="44.50418" lon="6.59354">
        <ele>2055</ele>
        <time>2021-04-07T07:23:47Z</time>
      </trkpt>
      <trkpt lat="44.50417" lon="6.59355">
        <ele>2055</ele>
        <time>2021-04-07T07:23:48Z</time>
      </trkpt>
      <trkpt lat="44.50417" lon="6.59355">
        <ele>2055</ele>
        <time>2021-04-07T07:23:49Z</time>
      </trkpt>
      <trkpt lat="44.50416" lon="6.59356">
        <ele>2055</ele>
        <time>2021-04-07T07:23:50Z</time>
      </trkpt>
      <trkpt lat="44.50415" lon="6.59356">
        <ele>2055</ele>
        <time>2021-04-07T07:23:51Z</time>
      </trkpt>
      <trkpt lat="44.50415" lon="6.59356">
        <ele>2055</ele>
        <time>2021-04-07T07:23:52Z</time>
      </trkpt>
      <trkpt lat="44.50414" lon="6.59357">
        <ele>2055</ele>
        <time>2021-04-07T07:23:53Z</time>
      </trkpt>
      <trkpt lat="44.50414" lon="6.59357">
        <ele>2055</ele>
        <time>2021-04-07T07:23:54Z</time>
      </trkpt>
      <trkpt lat="44.50413" lon="6.59357">
        <ele>2055</ele>
        <time>2021-04-07T07:23:55Z</time>
      </trkpt>
      <trkpt lat="44.50412" lon="6.59357">
        <ele>2055</ele>
        <time>2021-04-07T07:23:56Z</time>
      </trkpt>
      <trkpt lat="44.50411" lon="6.59357">
        <ele>2055</ele>
        <time>2021-04-07T07:23:57Z</time>
      </trkpt>
      <trkpt lat="44.5041" lon="6.59358">
        <ele>2055</ele>
        <time>2021-04-07T07:23:58Z</time>
      </trkpt>
      <trkpt lat="44.5041" lon="6.59358">
        <ele>2055</ele>
        <time>2021-04-07T07:23:59Z</time>
      </trkpt>
      <trkpt lat="44.50409" lon="6.59358">
        <ele>2055</ele>
        <time>2021-04-07T07:24:00Z</time>
      </trkpt>
      <trkpt lat="44.50408" lon="6.59358">
        <ele>2055</ele>
        <time>2021-04-07T07:24:01Z</time>
      </trkpt>
      <trkpt lat="44.50407" lon="6.59358">
        <ele>2055</ele>
        <time>2021-04-07T07:24:02Z</time>
      </trkpt>
      <trkpt lat="44.50406" lon="6.59358">
        <ele>2055</ele>
        <time>2021-04-07T07:24:03Z</time>
      </trkpt>
      <trkpt lat="44.50405" lon="6.59358">
        <ele>2056</ele>
        <time>2021-04-07T07:24:04Z</time>
      </trkpt>
      <trkpt lat="44.50404" lon="6.59357">
        <ele>2056</ele>
        <time>2021-04-07T07:24:05Z</time>
      </trkpt>
      <trkpt lat="44.50404" lon="6.59356">
        <ele>2056</ele>
        <time>2021-04-07T07:24:06Z</time>
      </trkpt>
      <trkpt lat="44.50403" lon="6.59356">
        <ele>2056</ele>
        <time>2021-04-07T07:24:07Z</time>
      </trkpt>
      <trkpt lat="44.50403" lon="6.59356">
        <ele>2056</ele>
        <time>2021-04-07T07:24:08Z</time>
      </trkpt>
      <trkpt lat="44.50402" lon="6.59356">
        <ele>2056</ele>
        <time>2021-04-07T07:24:09Z</time>
      </trkpt>
      <trkpt lat="44.50401" lon="6.59356">
        <ele>2056</ele>
        <time>2021-04-07T07:24:10Z</time>
      </trkpt>
      <trkpt lat="44.504" lon="6.59356">
        <ele>2057</ele>
        <time>2021-04-07T07:24:11Z</time>
      </trkpt>
      <trkpt lat="44.50399" lon="6.59356">
        <ele>2057</ele>
        <time>2021-04-07T07:24:12Z</time>
      </trkpt>
      <trkpt lat="44.50399" lon="6.59355">
        <ele>2058</ele>
        <time>2021-04-07T07:24:13Z</time>
      </trkpt>
      <trkpt lat="44.50399" lon="6.59355">
        <ele>2058</ele>
        <time>2021-04-07T07:24:14Z</time>
      </trkpt>
      <trkpt lat="44.50398" lon="6.59355">
        <ele>2060</ele>
        <time>2021-04-07T07:24:15Z</time>
      </trkpt>
      <trkpt lat="44.50397" lon="6.59355">
        <ele>2061</ele>
        <time>2021-04-07T07:24:16Z</time>
      </trkpt>
      <trkpt lat="44.50396" lon="6.59355">
        <ele>2061</ele>
        <time>2021-04-07T07:24:17Z</time>
      </trkpt>
      <trkpt lat="44.50394" lon="6.59353">
        <ele>2061</ele>
        <time>2021-04-07T07:24:18Z</time>
      </trkpt>
      <trkpt lat="44.50394" lon="6.59353">
        <ele>2060</ele>
        <time>2021-04-07T07:24:19Z</time>
      </trkpt>
      <trkpt lat="44.50392" lon="6.59353">
        <ele>2060</ele>
        <time>2021-04-07T07:24:20Z</time>
      </trkpt>
      <trkpt lat="44.50392" lon="6.59352">
        <ele>2060</ele>
        <time>2021-04-07T07:24:21Z</time>
      </trkpt>
      <trkpt lat="44.50391" lon="6.59351">
        <ele>2061</ele>
        <time>2021-04-07T07:24:22Z</time>
      </trkpt>
      <trkpt lat="44.50391" lon="6.59351">
        <ele>2061</ele>
        <time>2021-04-07T07:24:23Z</time>
      </trkpt>
      <trkpt lat="44.5039" lon="6.59351">
        <ele>2061</ele>
        <time>2021-04-07T07:24:24Z</time>
      </trkpt>
      <trkpt lat="44.5039" lon="6.59351">
        <ele>2061</ele>
        <time>2021-04-07T07:24:25Z</time>
      </trkpt>
      <trkpt lat="44.50389" lon="6.59351">
        <ele>2061</ele>
        <time>2021-04-07T07:24:26Z</time>
      </trkpt>
      <trkpt lat="44.50389" lon="6.59351">
        <ele>2061</ele>
        <time>2021-04-07T07:24:27Z</time>
      </trkpt>
      <trkpt lat="44.50388" lon="6.59351">
        <ele>2062</ele>
        <time>2021-04-07T07:24:28Z</time>
      </trkpt>
      <trkpt lat="44.50388" lon="6.5935">
        <ele>2063</ele>
        <time>2021-04-07T07:24:29Z</time>
      </trkpt>
      <trkpt lat="44.50387" lon="6.5935">
        <ele>2063</ele>
        <time>2021-04-07T07:24:30Z</time>
      </trkpt>
      <trkpt lat="44.50386" lon="6.5935">
        <ele>2063</ele>
        <time>2021-04-07T07:24:31Z</time>
      </trkpt>
      <trkpt lat="44.50385" lon="6.59351">
        <ele>2063</ele>
        <time>2021-04-07T07:24:32Z</time>
      </trkpt>
      <trkpt lat="44.50385" lon="6.59351">
        <ele>2063</ele>
        <time>2021-04-07T07:24:33Z</time>
      </trkpt>
      <trkpt lat="44.50385" lon="6.5935">
        <ele>2063</ele>
        <time>2021-04-07T07:24:34Z</time>
      </trkpt>
      <trkpt lat="44.50384" lon="6.5935">
        <ele>2063</ele>
        <time>2021-04-07T07:24:35Z</time>
      </trkpt>
      <trkpt lat="44.50384" lon="6.59351">
        <ele>2063</ele>
        <time>2021-04-07T07:24:36Z</time>
      </trkpt>
      <trkpt lat="44.50383" lon="6.5935">
        <ele>2063</ele>
        <time>2021-04-07T07:24:37Z</time>
      </trkpt>
      <trkpt lat="44.50382" lon="6.5935">
        <ele>2063</ele>
        <time>2021-04-07T07:24:38Z</time>
      </trkpt>
      <trkpt lat="44.50381" lon="6.5935">
        <ele>2063</ele>
        <time>2021-04-07T07:24:39Z</time>
      </trkpt>
      <trkpt lat="44.5038" lon="6.59349">
        <ele>2064</ele>
        <time>2021-04-07T07:24:40Z</time>
      </trkpt>
      <trkpt lat="44.5038" lon="6.59348">
        <ele>2064</ele>
        <time>2021-04-07T07:24:41Z</time>
      </trkpt>
      <trkpt lat="44.50379" lon="6.59348">
        <ele>2064</ele>
        <time>2021-04-07T07:24:42Z</time>
      </trkpt>
      <trkpt lat="44.50378" lon="6.59348">
        <ele>2064</ele>
        <time>2021-04-07T07:24:43Z</time>
      </trkpt>
      <trkpt lat="44.50377" lon="6.59347">
        <ele>2064</ele>
        <time>2021-04-07T07:24:44Z</time>
      </trkpt>
      <trkpt lat="44.50376" lon="6.59347">
        <ele>2064</ele>
        <time>2021-04-07T07:24:45Z</time>
      </trkpt>
      <trkpt lat="44.50376" lon="6.59346">
        <ele>2064</ele>
        <time>2021-04-07T07:24:46Z</time>
      </trkpt>
      <trkpt lat="44.50375" lon="6.59346">
        <ele>2064</ele>
        <time>2021-04-07T07:24:47Z</time>
      </trkpt>
      <trkpt lat="44.50374" lon="6.59345">
        <ele>2064</ele>
        <time>2021-04-07T07:24:48Z</time>
      </trkpt>
      <trkpt lat="44.50373" lon="6.59346">
        <ele>2064</ele>
        <time>2021-04-07T07:24:49Z</time>
      </trkpt>
      <trkpt lat="44.50373" lon="6.59345">
        <ele>2064</ele>
        <time>2021-04-07T07:24:50Z</time>
      </trkpt>
      <trkpt lat="44.50372" lon="6.59345">
        <ele>2064</ele>
        <time>2021-04-07T07:24:51Z</time>
      </trkpt>
      <trkpt lat="44.50371" lon="6.59344">
        <ele>2064</ele>
        <time>2021-04-07T07:24:52Z</time>
      </trkpt>
      <trkpt lat="44.5037" lon="6.59343">
        <ele>2064</ele>
        <time>2021-04-07T07:24:53Z</time>
      </trkpt>
      <trkpt lat="44.5037" lon="6.59343">
        <ele>2064</ele>
        <time>2021-04-07T07:24:54Z</time>
      </trkpt>
      <trkpt lat="44.50369" lon="6.59342">
        <ele>2064</ele>
        <time>2021-04-07T07:24:55Z</time>
      </trkpt>
      <trkpt lat="44.50368" lon="6.59342">
        <ele>2064</ele>
        <time>2021-04-07T07:24:56Z</time>
      </trkpt>
      <trkpt lat="44.50368" lon="6.59341">
        <ele>2065</ele>
        <time>2021-04-07T07:24:57Z</time>
      </trkpt>
      <trkpt lat="44.50366" lon="6.5934">
        <ele>2065</ele>
        <time>2021-04-07T07:24:58Z</time>
      </trkpt>
      <trkpt lat="44.50366" lon="6.5934">
        <ele>2065</ele>
        <time>2021-04-07T07:24:59Z</time>
      </trkpt>
      <trkpt lat="44.50365" lon="6.5934">
        <ele>2065</ele>
        <time>2021-04-07T07:25:00Z</time>
      </trkpt>
      <trkpt lat="44.50365" lon="6.5934">
        <ele>2065</ele>
        <time>2021-04-07T07:25:01Z</time>
      </trkpt>
      <trkpt lat="44.50364" lon="6.5934">
        <ele>2065</ele>
        <time>2021-04-07T07:25:02Z</time>
      </trkpt>
      <trkpt lat="44.50364" lon="6.59339">
        <ele>2065</ele>
        <time>2021-04-07T07:25:03Z</time>
      </trkpt>
      <trkpt lat="44.50363" lon="6.59339">
        <ele>2065</ele>
        <time>2021-04-07T07:25:04Z</time>
      </trkpt>
      <trkpt lat="44.50362" lon="6.59339">
        <ele>2065</ele>
        <time>2021-04-07T07:25:05Z</time>
      </trkpt>
      <trkpt lat="44.50362" lon="6.59339">
        <ele>2065</ele>
        <time>2021-04-07T07:25:06Z</time>
      </trkpt>
      <trkpt lat="44.50361" lon="6.59338">
        <ele>2065</ele>
        <time>2021-04-07T07:25:07Z</time>
      </trkpt>
      <trkpt lat="44.5036" lon="6.59338">
        <ele>2065</ele>
        <time>2021-04-07T07:25:08Z</time>
      </trkpt>
      <trkpt lat="44.50359" lon="6.59338">
        <ele>2065</ele>
        <time>2021-04-07T07:25:09Z</time>
      </trkpt>
      <trkpt lat="44.50358" lon="6.59338">
        <ele>2065</ele>
        <time>2021-04-07T07:25:10Z</time>
      </trkpt>
      <trkpt lat="44.50357" lon="6.59338">
        <ele>2066</ele>
        <time>2021-04-07T07:25:11Z</time>
      </trkpt>
      <trkpt lat="44.50357" lon="6.59338">
        <ele>2066</ele>
        <time>2021-04-07T07:25:12Z</time>
      </trkpt>
      <trkpt lat="44.50356" lon="6.59338">
        <ele>2066</ele>
        <time>2021-04-07T07:25:13Z</time>
      </trkpt>
      <trkpt lat="44.50355" lon="6.59338">
        <ele>2066</ele>
        <time>2021-04-07T07:25:14Z</time>
      </trkpt>
      <trkpt lat="44.50355" lon="6.59338">
        <ele>2066</ele>
        <time>2021-04-07T07:25:15Z</time>
      </trkpt>
      <trkpt lat="44.50354" lon="6.59339">
        <ele>2066</ele>
        <time>2021-04-07T07:25:16Z</time>
      </trkpt>
      <trkpt lat="44.50354" lon="6.59339">
        <ele>2066</ele>
        <time>2021-04-07T07:25:17Z</time>
      </trkpt>
      <trkpt lat="44.50353" lon="6.59339">
        <ele>2066</ele>
        <time>2021-04-07T07:25:18Z</time>
      </trkpt>
      <trkpt lat="44.50353" lon="6.59339">
        <ele>2066</ele>
        <time>2021-04-07T07:25:19Z</time>
      </trkpt>
      <trkpt lat="44.50352" lon="6.59339">
        <ele>2066</ele>
        <time>2021-04-07T07:25:20Z</time>
      </trkpt>
      <trkpt lat="44.50351" lon="6.59339">
        <ele>2066</ele>
        <time>2021-04-07T07:25:21Z</time>
      </trkpt>
      <trkpt lat="44.50351" lon="6.59339">
        <ele>2066</ele>
        <time>2021-04-07T07:25:22Z</time>
      </trkpt>
      <trkpt lat="44.5035" lon="6.59339">
        <ele>2067</ele>
        <time>2021-04-07T07:25:23Z</time>
      </trkpt>
      <trkpt lat="44.5035" lon="6.59339">
        <ele>2067</ele>
        <time>2021-04-07T07:25:24Z</time>
      </trkpt>
      <trkpt lat="44.5035" lon="6.5934">
        <ele>2067</ele>
        <time>2021-04-07T07:25:25Z</time>
      </trkpt>
      <trkpt lat="44.5035" lon="6.59341">
        <ele>2067</ele>
        <time>2021-04-07T07:25:26Z</time>
      </trkpt>
      <trkpt lat="44.5035" lon="6.59341">
        <ele>2067</ele>
        <time>2021-04-07T07:25:27Z</time>
      </trkpt>
      <trkpt lat="44.50349" lon="6.59341">
        <ele>2067</ele>
        <time>2021-04-07T07:25:28Z</time>
      </trkpt>
      <trkpt lat="44.50348" lon="6.59342">
        <ele>2067</ele>
        <time>2021-04-07T07:25:29Z</time>
      </trkpt>
      <trkpt lat="44.50348" lon="6.59342">
        <ele>2067</ele>
        <time>2021-04-07T07:25:30Z</time>
      </trkpt>
      <trkpt lat="44.50348" lon="6.59342">
        <ele>2067</ele>
        <time>2021-04-07T07:25:31Z</time>
      </trkpt>
      <trkpt lat="44.50348" lon="6.59342">
        <ele>2067</ele>
        <time>2021-04-07T07:25:32Z</time>
      </trkpt>
      <trkpt lat="44.50347" lon="6.59342">
        <ele>2067</ele>
        <time>2021-04-07T07:25:33Z</time>
      </trkpt>
      <trkpt lat="44.50347" lon="6.59342">
        <ele>2067</ele>
        <time>2021-04-07T07:25:34Z</time>
      </trkpt>
      <trkpt lat="44.50347" lon="6.59342">
        <ele>2067</ele>
        <time>2021-04-07T07:25:35Z</time>
      </trkpt>
      <trkpt lat="44.50347" lon="6.59341">
        <ele>2067</ele>
        <time>2021-04-07T07:25:36Z</time>
      </trkpt>
      <trkpt lat="44.50346" lon="6.59341">
        <ele>2067</ele>
        <time>2021-04-07T07:25:37Z</time>
      </trkpt>
      <trkpt lat="44.50346" lon="6.59342">
        <ele>2067</ele>
        <time>2021-04-07T07:25:38Z</time>
      </trkpt>
      <trkpt lat="44.50346" lon="6.59342">
        <ele>2067</ele>
        <time>2021-04-07T07:25:39Z</time>
      </trkpt>
      <trkpt lat="44.50346" lon="6.59343">
        <ele>2068</ele>
        <time>2021-04-07T07:25:40Z</time>
      </trkpt>
      <trkpt lat="44.50345" lon="6.59343">
        <ele>2068</ele>
        <time>2021-04-07T07:25:41Z</time>
      </trkpt>
      <trkpt lat="44.50345" lon="6.59345">
        <ele>2068</ele>
        <time>2021-04-07T07:25:42Z</time>
      </trkpt>
      <trkpt lat="44.50345" lon="6.59346">
        <ele>2068</ele>
        <time>2021-04-07T07:25:43Z</time>
      </trkpt>
      <trkpt lat="44.50344" lon="6.59346">
        <ele>2068</ele>
        <time>2021-04-07T07:25:44Z</time>
      </trkpt>
      <trkpt lat="44.50343" lon="6.59347">
        <ele>2069</ele>
        <time>2021-04-07T07:25:45Z</time>
      </trkpt>
      <trkpt lat="44.50342" lon="6.59348">
        <ele>2069</ele>
        <time>2021-04-07T07:25:46Z</time>
      </trkpt>
      <trkpt lat="44.50341" lon="6.59348">
        <ele>2069</ele>
        <time>2021-04-07T07:25:47Z</time>
      </trkpt>
      <trkpt lat="44.50341" lon="6.59349">
        <ele>2069</ele>
        <time>2021-04-07T07:25:48Z</time>
      </trkpt>
      <trkpt lat="44.5034" lon="6.59349">
        <ele>2070</ele>
        <time>2021-04-07T07:25:49Z</time>
      </trkpt>
      <trkpt lat="44.50339" lon="6.5935">
        <ele>2070</ele>
        <time>2021-04-07T07:25:50Z</time>
      </trkpt>
      <trkpt lat="44.50339" lon="6.5935">
        <ele>2070</ele>
        <time>2021-04-07T07:25:51Z</time>
      </trkpt>
      <trkpt lat="44.50338" lon="6.59351">
        <ele>2071</ele>
        <time>2021-04-07T07:25:52Z</time>
      </trkpt>
      <trkpt lat="44.50338" lon="6.59351">
        <ele>2071</ele>
        <time>2021-04-07T07:25:53Z</time>
      </trkpt>
      <trkpt lat="44.50337" lon="6.59351">
        <ele>2071</ele>
        <time>2021-04-07T07:25:54Z</time>
      </trkpt>
      <trkpt lat="44.50337" lon="6.59352">
        <ele>2072</ele>
        <time>2021-04-07T07:25:55Z</time>
      </trkpt>
      <trkpt lat="44.50336" lon="6.59352">
        <ele>2072</ele>
        <time>2021-04-07T07:25:56Z</time>
      </trkpt>
      <trkpt lat="44.50336" lon="6.59352">
        <ele>2073</ele>
        <time>2021-04-07T07:25:57Z</time>
      </trkpt>
      <trkpt lat="44.50337" lon="6.59352">
        <ele>2073</ele>
        <time>2021-04-07T07:25:58Z</time>
      </trkpt>
      <trkpt lat="44.50336" lon="6.59352">
        <ele>2073</ele>
        <time>2021-04-07T07:25:59Z</time>
      </trkpt>
      <trkpt lat="44.50336" lon="6.59352">
        <ele>2073</ele>
        <time>2021-04-07T07:26:00Z</time>
      </trkpt>
      <trkpt lat="44.50335" lon="6.59352">
        <ele>2073</ele>
        <time>2021-04-07T07:26:01Z</time>
      </trkpt>
      <trkpt lat="44.50335" lon="6.59352">
        <ele>2074</ele>
        <time>2021-04-07T07:26:02Z</time>
      </trkpt>
      <trkpt lat="44.50335" lon="6.59351">
        <ele>2074</ele>
        <time>2021-04-07T07:26:03Z</time>
      </trkpt>
      <trkpt lat="44.50335" lon="6.5935">
        <ele>2074</ele>
        <time>2021-04-07T07:26:04Z</time>
      </trkpt>
      <trkpt lat="44.50334" lon="6.5935">
        <ele>2074</ele>
        <time>2021-04-07T07:26:05Z</time>
      </trkpt>
      <trkpt lat="44.50334" lon="6.59349">
        <ele>2075</ele>
        <time>2021-04-07T07:26:06Z</time>
      </trkpt>
      <trkpt lat="44.50334" lon="6.59348">
        <ele>2076</ele>
        <time>2021-04-07T07:26:07Z</time>
      </trkpt>
      <trkpt lat="44.50334" lon="6.59347">
        <ele>2076</ele>
        <time>2021-04-07T07:26:08Z</time>
      </trkpt>
      <trkpt lat="44.50334" lon="6.59346">
        <ele>2076</ele>
        <time>2021-04-07T07:26:09Z</time>
      </trkpt>
      <trkpt lat="44.50333" lon="6.59346">
        <ele>2076</ele>
        <time>2021-04-07T07:26:10Z</time>
      </trkpt>
      <trkpt lat="44.50333" lon="6.59345">
        <ele>2076</ele>
        <time>2021-04-07T07:26:11Z</time>
      </trkpt>
      <trkpt lat="44.50333" lon="6.59345">
        <ele>2077</ele>
        <time>2021-04-07T07:26:12Z</time>
      </trkpt>
      <trkpt lat="44.50333" lon="6.59344">
        <ele>2078</ele>
        <time>2021-04-07T07:26:13Z</time>
      </trkpt>
      <trkpt lat="44.50333" lon="6.59343">
        <ele>2078</ele>
        <time>2021-04-07T07:26:14Z</time>
      </trkpt>
      <trkpt lat="44.50333" lon="6.59342">
        <ele>2078</ele>
        <time>2021-04-07T07:26:15Z</time>
      </trkpt>
      <trkpt lat="44.50333" lon="6.59341">
        <ele>2078</ele>
        <time>2021-04-07T07:26:16Z</time>
      </trkpt>
      <trkpt lat="44.50333" lon="6.59341">
        <ele>2079</ele>
        <time>2021-04-07T07:26:17Z</time>
      </trkpt>
      <trkpt lat="44.50332" lon="6.5934">
        <ele>2079</ele>
        <time>2021-04-07T07:26:18Z</time>
      </trkpt>
      <trkpt lat="44.50333" lon="6.59339">
        <ele>2079</ele>
        <time>2021-04-07T07:26:19Z</time>
      </trkpt>
      <trkpt lat="44.50332" lon="6.59339">
        <ele>2080</ele>
        <time>2021-04-07T07:26:20Z</time>
      </trkpt>
      <trkpt lat="44.50332" lon="6.59338">
        <ele>2080</ele>
        <time>2021-04-07T07:26:21Z</time>
      </trkpt>
      <trkpt lat="44.50332" lon="6.59337">
        <ele>2081</ele>
        <time>2021-04-07T07:26:22Z</time>
      </trkpt>
      <trkpt lat="44.50332" lon="6.59336">
        <ele>2081</ele>
        <time>2021-04-07T07:26:23Z</time>
      </trkpt>
      <trkpt lat="44.50331" lon="6.59336">
        <ele>2081</ele>
        <time>2021-04-07T07:26:24Z</time>
      </trkpt>
      <trkpt lat="44.50331" lon="6.59335">
        <ele>2081</ele>
        <time>2021-04-07T07:26:25Z</time>
      </trkpt>
      <trkpt lat="44.50331" lon="6.59334">
        <ele>2082</ele>
        <time>2021-04-07T07:26:26Z</time>
      </trkpt>
      <trkpt lat="44.50331" lon="6.59334">
        <ele>2082</ele>
        <time>2021-04-07T07:26:27Z</time>
      </trkpt>
      <trkpt lat="44.50331" lon="6.59334">
        <ele>2083</ele>
        <time>2021-04-07T07:26:28Z</time>
      </trkpt>
      <trkpt lat="44.5033" lon="6.59333">
        <ele>2083</ele>
        <time>2021-04-07T07:26:29Z</time>
      </trkpt>
      <trkpt lat="44.5033" lon="6.59333">
        <ele>2083</ele>
        <time>2021-04-07T07:26:30Z</time>
      </trkpt>
      <trkpt lat="44.50329" lon="6.59333">
        <ele>2083</ele>
        <time>2021-04-07T07:26:31Z</time>
      </trkpt>
      <trkpt lat="44.50329" lon="6.59333">
        <ele>2083</ele>
        <time>2021-04-07T07:26:32Z</time>
      </trkpt>
      <trkpt lat="44.50328" lon="6.59334">
        <ele>2084</ele>
        <time>2021-04-07T07:26:33Z</time>
      </trkpt>
      <trkpt lat="44.50328" lon="6.59334">
        <ele>2084</ele>
        <time>2021-04-07T07:26:34Z</time>
      </trkpt>
      <trkpt lat="44.50328" lon="6.59334">
        <ele>2085</ele>
        <time>2021-04-07T07:26:35Z</time>
      </trkpt>
      <trkpt lat="44.50327" lon="6.59335">
        <ele>2085</ele>
        <time>2021-04-07T07:26:36Z</time>
      </trkpt>
      <trkpt lat="44.50326" lon="6.59335">
        <ele>2085</ele>
        <time>2021-04-07T07:26:37Z</time>
      </trkpt>
      <trkpt lat="44.50325" lon="6.59336">
        <ele>2085</ele>
        <time>2021-04-07T07:26:38Z</time>
      </trkpt>
      <trkpt lat="44.50325" lon="6.59336">
        <ele>2086</ele>
        <time>2021-04-07T07:26:39Z</time>
      </trkpt>
      <trkpt lat="44.50324" lon="6.59336">
        <ele>2086</ele>
        <time>2021-04-07T07:26:40Z</time>
      </trkpt>
      <trkpt lat="44.50324" lon="6.59336">
        <ele>2086</ele>
        <time>2021-04-07T07:26:41Z</time>
      </trkpt>
      <trkpt lat="44.50323" lon="6.59337">
        <ele>2087</ele>
        <time>2021-04-07T07:26:42Z</time>
      </trkpt>
      <trkpt lat="44.50323" lon="6.59337">
        <ele>2087</ele>
        <time>2021-04-07T07:26:43Z</time>
      </trkpt>
      <trkpt lat="44.50322" lon="6.59338">
        <ele>2087</ele>
        <time>2021-04-07T07:26:44Z</time>
      </trkpt>
      <trkpt lat="44.50322" lon="6.59338">
        <ele>2087</ele>
        <time>2021-04-07T07:26:45Z</time>
      </trkpt>
      <trkpt lat="44.50321" lon="6.59338">
        <ele>2087</ele>
        <time>2021-04-07T07:26:46Z</time>
      </trkpt>
      <trkpt lat="44.50321" lon="6.59338">
        <ele>2088</ele>
        <time>2021-04-07T07:26:47Z</time>
      </trkpt>
      <trkpt lat="44.5032" lon="6.59338">
        <ele>2088</ele>
        <time>2021-04-07T07:26:48Z</time>
      </trkpt>
      <trkpt lat="44.5032" lon="6.59338">
        <ele>2088</ele>
        <time>2021-04-07T07:26:49Z</time>
      </trkpt>
      <trkpt lat="44.5032" lon="6.59337">
        <ele>2088</ele>
        <time>2021-04-07T07:26:50Z</time>
      </trkpt>
      <trkpt lat="44.5032" lon="6.59337">
        <ele>2089</ele>
        <time>2021-04-07T07:26:51Z</time>
      </trkpt>
      <trkpt lat="44.5032" lon="6.59337">
        <ele>2089</ele>
        <time>2021-04-07T07:26:52Z</time>
      </trkpt>
      <trkpt lat="44.50319" lon="6.59337">
        <ele>2089</ele>
        <time>2021-04-07T07:26:53Z</time>
      </trkpt>
      <trkpt lat="44.50319" lon="6.59336">
        <ele>2089</ele>
        <time>2021-04-07T07:26:54Z</time>
      </trkpt>
      <trkpt lat="44.50319" lon="6.59335">
        <ele>2089</ele>
        <time>2021-04-07T07:26:55Z</time>
      </trkpt>
      <trkpt lat="44.50319" lon="6.59334">
        <ele>2089</ele>
        <time>2021-04-07T07:26:56Z</time>
      </trkpt>
      <trkpt lat="44.50319" lon="6.59333">
        <ele>2089</ele>
        <time>2021-04-07T07:26:57Z</time>
      </trkpt>
      <trkpt lat="44.50319" lon="6.59333">
        <ele>2089</ele>
        <time>2021-04-07T07:26:58Z</time>
      </trkpt>
      <trkpt lat="44.50319" lon="6.59333">
        <ele>2089</ele>
        <time>2021-04-07T07:26:59Z</time>
      </trkpt>
      <trkpt lat="44.50319" lon="6.59333">
        <ele>2089</ele>
        <time>2021-04-07T07:27:00Z</time>
      </trkpt>
      <trkpt lat="44.50319" lon="6.59333">
        <ele>2089</ele>
        <time>2021-04-07T07:27:01Z</time>
      </trkpt>
      <trkpt lat="44.50319" lon="6.59333">
        <ele>2089</ele>
        <time>2021-04-07T07:27:02Z</time>
      </trkpt>
      <trkpt lat="44.50319" lon="6.59333">
        <ele>2089</ele>
        <time>2021-04-07T07:27:03Z</time>
      </trkpt>
      <trkpt lat="44.50319" lon="6.59333">
        <ele>2089</ele>
        <time>2021-04-07T07:27:04Z</time>
      </trkpt>
      <trkpt lat="44.50317" lon="6.5933">
        <ele>2089</ele>
        <time>2021-04-07T07:27:05Z</time>
      </trkpt>
      <trkpt lat="44.50317" lon="6.59329">
        <ele>2089</ele>
        <time>2021-04-07T07:27:06Z</time>
      </trkpt>
      <trkpt lat="44.50316" lon="6.59328">
        <ele>2089</ele>
        <time>2021-04-07T07:27:07Z</time>
      </trkpt>
      <trkpt lat="44.50316" lon="6.59327">
        <ele>2089</ele>
        <time>2021-04-07T07:27:08Z</time>
      </trkpt>
      <trkpt lat="44.50316" lon="6.59327">
        <ele>2089</ele>
        <time>2021-04-07T07:27:09Z</time>
      </trkpt>
      <trkpt lat="44.50316" lon="6.59326">
        <ele>2089</ele>
        <time>2021-04-07T07:27:10Z</time>
      </trkpt>
      <trkpt lat="44.50316" lon="6.59325">
        <ele>2089</ele>
        <time>2021-04-07T07:27:11Z</time>
      </trkpt>
      <trkpt lat="44.50316" lon="6.59324">
        <ele>2089</ele>
        <time>2021-04-07T07:27:12Z</time>
      </trkpt>
      <trkpt lat="44.50316" lon="6.59324">
        <ele>2089</ele>
        <time>2021-04-07T07:27:13Z</time>
      </trkpt>
      <trkpt lat="44.50316" lon="6.59323">
        <ele>2089</ele>
        <time>2021-04-07T07:27:14Z</time>
      </trkpt>
      <trkpt lat="44.50316" lon="6.59322">
        <ele>2089</ele>
        <time>2021-04-07T07:27:15Z</time>
      </trkpt>
      <trkpt lat="44.50316" lon="6.59321">
        <ele>2089</ele>
        <time>2021-04-07T07:27:16Z</time>
      </trkpt>
      <trkpt lat="44.50316" lon="6.59321">
        <ele>2089</ele>
        <time>2021-04-07T07:27:17Z</time>
      </trkpt>
      <trkpt lat="44.50316" lon="6.5932">
        <ele>2089</ele>
        <time>2021-04-07T07:27:18Z</time>
      </trkpt>
      <trkpt lat="44.50316" lon="6.59319">
        <ele>2090</ele>
        <time>2021-04-07T07:27:19Z</time>
      </trkpt>
      <trkpt lat="44.50316" lon="6.59319">
        <ele>2090</ele>
        <time>2021-04-07T07:27:20Z</time>
      </trkpt>
      <trkpt lat="44.50316" lon="6.59319">
        <ele>2090</ele>
        <time>2021-04-07T07:27:21Z</time>
      </trkpt>
      <trkpt lat="44.50316" lon="6.59318">
        <ele>2090</ele>
        <time>2021-04-07T07:27:22Z</time>
      </trkpt>
      <trkpt lat="44.50316" lon="6.59317">
        <ele>2090</ele>
        <time>2021-04-07T07:27:23Z</time>
      </trkpt>
      <trkpt lat="44.50316" lon="6.59317">
        <ele>2091</ele>
        <time>2021-04-07T07:27:24Z</time>
      </trkpt>
      <trkpt lat="44.50316" lon="6.59316">
        <ele>2091</ele>
        <time>2021-04-07T07:27:25Z</time>
      </trkpt>
      <trkpt lat="44.50316" lon="6.59316">
        <ele>2092</ele>
        <time>2021-04-07T07:27:26Z</time>
      </trkpt>
      <trkpt lat="44.50316" lon="6.59315">
        <ele>2092</ele>
        <time>2021-04-07T07:27:27Z</time>
      </trkpt>
      <trkpt lat="44.50316" lon="6.59314">
        <ele>2092</ele>
        <time>2021-04-07T07:27:28Z</time>
      </trkpt>
      <trkpt lat="44.50316" lon="6.59313">
        <ele>2092</ele>
        <time>2021-04-07T07:27:29Z</time>
      </trkpt>
      <trkpt lat="44.50316" lon="6.59313">
        <ele>2092</ele>
        <time>2021-04-07T07:27:30Z</time>
      </trkpt>
      <trkpt lat="44.50316" lon="6.59312">
        <ele>2092</ele>
        <time>2021-04-07T07:27:31Z</time>
      </trkpt>
      <trkpt lat="44.50316" lon="6.59311">
        <ele>2092</ele>
        <time>2021-04-07T07:27:32Z</time>
      </trkpt>
      <trkpt lat="44.50315" lon="6.5931">
        <ele>2092</ele>
        <time>2021-04-07T07:27:33Z</time>
      </trkpt>
      <trkpt lat="44.50315" lon="6.59309">
        <ele>2092</ele>
        <time>2021-04-07T07:27:34Z</time>
      </trkpt>
      <trkpt lat="44.50315" lon="6.59308">
        <ele>2092</ele>
        <time>2021-04-07T07:27:35Z</time>
      </trkpt>
      <trkpt lat="44.50315" lon="6.59307">
        <ele>2093</ele>
        <time>2021-04-07T07:27:36Z</time>
      </trkpt>
      <trkpt lat="44.50315" lon="6.59306">
        <ele>2093</ele>
        <time>2021-04-07T07:27:37Z</time>
      </trkpt>
      <trkpt lat="44.50315" lon="6.59305">
        <ele>2093</ele>
        <time>2021-04-07T07:27:38Z</time>
      </trkpt>
      <trkpt lat="44.50316" lon="6.59304">
        <ele>2093</ele>
        <time>2021-04-07T07:27:39Z</time>
      </trkpt>
      <trkpt lat="44.50316" lon="6.59303">
        <ele>2094</ele>
        <time>2021-04-07T07:27:40Z</time>
      </trkpt>
      <trkpt lat="44.50315" lon="6.59302">
        <ele>2094</ele>
        <time>2021-04-07T07:27:41Z</time>
      </trkpt>
      <trkpt lat="44.50315" lon="6.59302">
        <ele>2094</ele>
        <time>2021-04-07T07:27:42Z</time>
      </trkpt>
      <trkpt lat="44.50315" lon="6.59301">
        <ele>2095</ele>
        <time>2021-04-07T07:27:43Z</time>
      </trkpt>
      <trkpt lat="44.50315" lon="6.593">
        <ele>2095</ele>
        <time>2021-04-07T07:27:44Z</time>
      </trkpt>
      <trkpt lat="44.50315" lon="6.593">
        <ele>2095</ele>
        <time>2021-04-07T07:27:45Z</time>
      </trkpt>
      <trkpt lat="44.50315" lon="6.59299">
        <ele>2096</ele>
        <time>2021-04-07T07:27:46Z</time>
      </trkpt>
      <trkpt lat="44.50315" lon="6.59298">
        <ele>2096</ele>
        <time>2021-04-07T07:27:47Z</time>
      </trkpt>
      <trkpt lat="44.50315" lon="6.59297">
        <ele>2096</ele>
        <time>2021-04-07T07:27:48Z</time>
      </trkpt>
      <trkpt lat="44.50315" lon="6.59296">
        <ele>2098</ele>
        <time>2021-04-07T07:27:49Z</time>
      </trkpt>
      <trkpt lat="44.50315" lon="6.59295">
        <ele>2098</ele>
        <time>2021-04-07T07:27:50Z</time>
      </trkpt>
      <trkpt lat="44.50315" lon="6.59294">
        <ele>2098</ele>
        <time>2021-04-07T07:27:51Z</time>
      </trkpt>
      <trkpt lat="44.50315" lon="6.59294">
        <ele>2099</ele>
        <time>2021-04-07T07:27:52Z</time>
      </trkpt>
      <trkpt lat="44.50315" lon="6.59294">
        <ele>2099</ele>
        <time>2021-04-07T07:27:53Z</time>
      </trkpt>
      <trkpt lat="44.50314" lon="6.59294">
        <ele>2099</ele>
        <time>2021-04-07T07:27:54Z</time>
      </trkpt>
      <trkpt lat="44.50314" lon="6.59294">
        <ele>2099</ele>
        <time>2021-04-07T07:27:55Z</time>
      </trkpt>
      <trkpt lat="44.50313" lon="6.59294">
        <ele>2099</ele>
        <time>2021-04-07T07:27:56Z</time>
      </trkpt>
      <trkpt lat="44.50313" lon="6.59294">
        <ele>2099</ele>
        <time>2021-04-07T07:27:57Z</time>
      </trkpt>
      <trkpt lat="44.50313" lon="6.59294">
        <ele>2099</ele>
        <time>2021-04-07T07:27:58Z</time>
      </trkpt>
      <trkpt lat="44.50313" lon="6.59294">
        <ele>2099</ele>
        <time>2021-04-07T07:27:59Z</time>
      </trkpt>
      <trkpt lat="44.50313" lon="6.59294">
        <ele>2100</ele>
        <time>2021-04-07T07:28:00Z</time>
      </trkpt>
      <trkpt lat="44.50313" lon="6.59294">
        <ele>2100</ele>
        <time>2021-04-07T07:28:01Z</time>
      </trkpt>
      <trkpt lat="44.50313" lon="6.59294">
        <ele>2100</ele>
        <time>2021-04-07T07:28:02Z</time>
      </trkpt>
      <trkpt lat="44.50313" lon="6.59294">
        <ele>2100</ele>
        <time>2021-04-07T07:28:03Z</time>
      </trkpt>
      <trkpt lat="44.50313" lon="6.59294">
        <ele>2100</ele>
        <time>2021-04-07T07:28:04Z</time>
      </trkpt>
      <trkpt lat="44.50313" lon="6.59294">
        <ele>2100</ele>
        <time>2021-04-07T07:28:05Z</time>
      </trkpt>
      <trkpt lat="44.50312" lon="6.59296">
        <ele>2100</ele>
        <time>2021-04-07T07:28:06Z</time>
      </trkpt>
      <trkpt lat="44.50312" lon="6.59296">
        <ele>2100</ele>
        <time>2021-04-07T07:28:07Z</time>
      </trkpt>
      <trkpt lat="44.50311" lon="6.59297">
        <ele>2100</ele>
        <time>2021-04-07T07:28:08Z</time>
      </trkpt>
      <trkpt lat="44.50311" lon="6.59297">
        <ele>2100</ele>
        <time>2021-04-07T07:28:09Z</time>
      </trkpt>
      <trkpt lat="44.5031" lon="6.59298">
        <ele>2101</ele>
        <time>2021-04-07T07:28:10Z</time>
      </trkpt>
      <trkpt lat="44.5031" lon="6.59298">
        <ele>2101</ele>
        <time>2021-04-07T07:28:11Z</time>
      </trkpt>
      <trkpt lat="44.50309" lon="6.59299">
        <ele>2101</ele>
        <time>2021-04-07T07:28:12Z</time>
      </trkpt>
      <trkpt lat="44.50309" lon="6.59299">
        <ele>2101</ele>
        <time>2021-04-07T07:28:13Z</time>
      </trkpt>
      <trkpt lat="44.50308" lon="6.593">
        <ele>2101</ele>
        <time>2021-04-07T07:28:14Z</time>
      </trkpt>
      <trkpt lat="44.50308" lon="6.59301">
        <ele>2102</ele>
        <time>2021-04-07T07:28:15Z</time>
      </trkpt>
      <trkpt lat="44.50307" lon="6.59301">
        <ele>2102</ele>
        <time>2021-04-07T07:28:16Z</time>
      </trkpt>
      <trkpt lat="44.50307" lon="6.59302">
        <ele>2102</ele>
        <time>2021-04-07T07:28:17Z</time>
      </trkpt>
      <trkpt lat="44.50306" lon="6.59303">
        <ele>2102</ele>
        <time>2021-04-07T07:28:18Z</time>
      </trkpt>
      <trkpt lat="44.50305" lon="6.59303">
        <ele>2102</ele>
        <time>2021-04-07T07:28:19Z</time>
      </trkpt>
      <trkpt lat="44.50305" lon="6.59303">
        <ele>2103</ele>
        <time>2021-04-07T07:28:20Z</time>
      </trkpt>
      <trkpt lat="44.50305" lon="6.59303">
        <ele>2103</ele>
        <time>2021-04-07T07:28:21Z</time>
      </trkpt>
      <trkpt lat="44.50304" lon="6.59304">
        <ele>2103</ele>
        <time>2021-04-07T07:28:22Z</time>
      </trkpt>
      <trkpt lat="44.50304" lon="6.59304">
        <ele>2103</ele>
        <time>2021-04-07T07:28:23Z</time>
      </trkpt>
      <trkpt lat="44.50303" lon="6.59304">
        <ele>2103</ele>
        <time>2021-04-07T07:28:24Z</time>
      </trkpt>
      <trkpt lat="44.50302" lon="6.59305">
        <ele>2104</ele>
        <time>2021-04-07T07:28:25Z</time>
      </trkpt>
      <trkpt lat="44.50302" lon="6.59305">
        <ele>2104</ele>
        <time>2021-04-07T07:28:26Z</time>
      </trkpt>
      <trkpt lat="44.50301" lon="6.59305">
        <ele>2104</ele>
        <time>2021-04-07T07:28:27Z</time>
      </trkpt>
      <trkpt lat="44.50299" lon="6.59306">
        <ele>2104</ele>
        <time>2021-04-07T07:28:28Z</time>
      </trkpt>
      <trkpt lat="44.50299" lon="6.59307">
        <ele>2104</ele>
        <time>2021-04-07T07:28:29Z</time>
      </trkpt>
      <trkpt lat="44.50298" lon="6.59307">
        <ele>2105</ele>
        <time>2021-04-07T07:28:30Z</time>
      </trkpt>
      <trkpt lat="44.50298" lon="6.59308">
        <ele>2105</ele>
        <time>2021-04-07T07:28:31Z</time>
      </trkpt>
      <trkpt lat="44.50297" lon="6.59308">
        <ele>2105</ele>
        <time>2021-04-07T07:28:32Z</time>
      </trkpt>
      <trkpt lat="44.50297" lon="6.59308">
        <ele>2105</ele>
        <time>2021-04-07T07:28:33Z</time>
      </trkpt>
      <trkpt lat="44.50296" lon="6.59309">
        <ele>2105</ele>
        <time>2021-04-07T07:28:34Z</time>
      </trkpt>
      <trkpt lat="44.50296" lon="6.59309">
        <ele>2105</ele>
        <time>2021-04-07T07:28:35Z</time>
      </trkpt>
      <trkpt lat="44.50296" lon="6.5931">
        <ele>2106</ele>
        <time>2021-04-07T07:28:36Z</time>
      </trkpt>
      <trkpt lat="44.50295" lon="6.5931">
        <ele>2106</ele>
        <time>2021-04-07T07:28:37Z</time>
      </trkpt>
      <trkpt lat="44.50295" lon="6.59311">
        <ele>2106</ele>
        <time>2021-04-07T07:28:38Z</time>
      </trkpt>
      <trkpt lat="44.50294" lon="6.59311">
        <ele>2106</ele>
        <time>2021-04-07T07:28:39Z</time>
      </trkpt>
      <trkpt lat="44.50294" lon="6.59311">
        <ele>2106</ele>
        <time>2021-04-07T07:28:40Z</time>
      </trkpt>
      <trkpt lat="44.50294" lon="6.59311">
        <ele>2106</ele>
        <time>2021-04-07T07:28:41Z</time>
      </trkpt>
      <trkpt lat="44.50294" lon="6.59312">
        <ele>2106</ele>
        <time>2021-04-07T07:28:42Z</time>
      </trkpt>
      <trkpt lat="44.50294" lon="6.59311">
        <ele>2106</ele>
        <time>2021-04-07T07:28:43Z</time>
      </trkpt>
      <trkpt lat="44.50293" lon="6.59311">
        <ele>2106</ele>
        <time>2021-04-07T07:28:44Z</time>
      </trkpt>
      <trkpt lat="44.50293" lon="6.59311">
        <ele>2106</ele>
        <time>2021-04-07T07:28:45Z</time>
      </trkpt>
      <trkpt lat="44.50293" lon="6.5931">
        <ele>2106</ele>
        <time>2021-04-07T07:28:46Z</time>
      </trkpt>
      <trkpt lat="44.50293" lon="6.59311">
        <ele>2106</ele>
        <time>2021-04-07T07:28:47Z</time>
      </trkpt>
      <trkpt lat="44.50293" lon="6.59309">
        <ele>2106</ele>
        <time>2021-04-07T07:28:48Z</time>
      </trkpt>
      <trkpt lat="44.50292" lon="6.59308">
        <ele>2107</ele>
        <time>2021-04-07T07:28:49Z</time>
      </trkpt>
      <trkpt lat="44.50292" lon="6.59307">
        <ele>2107</ele>
        <time>2021-04-07T07:28:50Z</time>
      </trkpt>
      <trkpt lat="44.50292" lon="6.59307">
        <ele>2107</ele>
        <time>2021-04-07T07:28:51Z</time>
      </trkpt>
      <trkpt lat="44.50292" lon="6.59306">
        <ele>2108</ele>
        <time>2021-04-07T07:28:52Z</time>
      </trkpt>
      <trkpt lat="44.50292" lon="6.59306">
        <ele>2108</ele>
        <time>2021-04-07T07:28:53Z</time>
      </trkpt>
      <trkpt lat="44.50292" lon="6.59305">
        <ele>2108</ele>
        <time>2021-04-07T07:28:54Z</time>
      </trkpt>
      <trkpt lat="44.50292" lon="6.59305">
        <ele>2108</ele>
        <time>2021-04-07T07:28:55Z</time>
      </trkpt>
      <trkpt lat="44.50292" lon="6.59305">
        <ele>2108</ele>
        <time>2021-04-07T07:28:56Z</time>
      </trkpt>
      <trkpt lat="44.50292" lon="6.59304">
        <ele>2108</ele>
        <time>2021-04-07T07:28:57Z</time>
      </trkpt>
      <trkpt lat="44.50291" lon="6.59303">
        <ele>2108</ele>
        <time>2021-04-07T07:28:58Z</time>
      </trkpt>
      <trkpt lat="44.50291" lon="6.59303">
        <ele>2108</ele>
        <time>2021-04-07T07:28:59Z</time>
      </trkpt>
      <trkpt lat="44.50291" lon="6.59302">
        <ele>2108</ele>
        <time>2021-04-07T07:29:00Z</time>
      </trkpt>
      <trkpt lat="44.50291" lon="6.59302">
        <ele>2108</ele>
        <time>2021-04-07T07:29:01Z</time>
      </trkpt>
      <trkpt lat="44.5029" lon="6.593">
        <ele>2108</ele>
        <time>2021-04-07T07:29:02Z</time>
      </trkpt>
      <trkpt lat="44.5029" lon="6.59299">
        <ele>2108</ele>
        <time>2021-04-07T07:29:03Z</time>
      </trkpt>
      <trkpt lat="44.5029" lon="6.59297">
        <ele>2107</ele>
        <time>2021-04-07T07:29:04Z</time>
      </trkpt>
      <trkpt lat="44.5029" lon="6.59296">
        <ele>2107</ele>
        <time>2021-04-07T07:29:05Z</time>
      </trkpt>
      <trkpt lat="44.5029" lon="6.59294">
        <ele>2107</ele>
        <time>2021-04-07T07:29:06Z</time>
      </trkpt>
      <trkpt lat="44.5029" lon="6.59293">
        <ele>2107</ele>
        <time>2021-04-07T07:29:07Z</time>
      </trkpt>
      <trkpt lat="44.5029" lon="6.59292">
        <ele>2107</ele>
        <time>2021-04-07T07:29:08Z</time>
      </trkpt>
      <trkpt lat="44.5029" lon="6.59291">
        <ele>2107</ele>
        <time>2021-04-07T07:29:09Z</time>
      </trkpt>
      <trkpt lat="44.50289" lon="6.59291">
        <ele>2107</ele>
        <time>2021-04-07T07:29:10Z</time>
      </trkpt>
      <trkpt lat="44.50289" lon="6.5929">
        <ele>2107</ele>
        <time>2021-04-07T07:29:11Z</time>
      </trkpt>
      <trkpt lat="44.50288" lon="6.5929">
        <ele>2107</ele>
        <time>2021-04-07T07:29:12Z</time>
      </trkpt>
      <trkpt lat="44.50289" lon="6.59289">
        <ele>2107</ele>
        <time>2021-04-07T07:29:13Z</time>
      </trkpt>
      <trkpt lat="44.50288" lon="6.59288">
        <ele>2107</ele>
        <time>2021-04-07T07:29:14Z</time>
      </trkpt>
      <trkpt lat="44.50288" lon="6.59287">
        <ele>2106</ele>
        <time>2021-04-07T07:29:15Z</time>
      </trkpt>
      <trkpt lat="44.50288" lon="6.59287">
        <ele>2106</ele>
        <time>2021-04-07T07:29:16Z</time>
      </trkpt>
      <trkpt lat="44.50288" lon="6.59286">
        <ele>2106</ele>
        <time>2021-04-07T07:29:17Z</time>
      </trkpt>
      <trkpt lat="44.50288" lon="6.59285">
        <ele>2106</ele>
        <time>2021-04-07T07:29:18Z</time>
      </trkpt>
      <trkpt lat="44.50288" lon="6.59285">
        <ele>2106</ele>
        <time>2021-04-07T07:29:19Z</time>
      </trkpt>
      <trkpt lat="44.50287" lon="6.59285">
        <ele>2106</ele>
        <time>2021-04-07T07:29:20Z</time>
      </trkpt>
      <trkpt lat="44.50287" lon="6.59284">
        <ele>2106</ele>
        <time>2021-04-07T07:29:21Z</time>
      </trkpt>
      <trkpt lat="44.50287" lon="6.59284">
        <ele>2106</ele>
        <time>2021-04-07T07:29:22Z</time>
      </trkpt>
      <trkpt lat="44.50287" lon="6.59284">
        <ele>2106</ele>
        <time>2021-04-07T07:29:23Z</time>
      </trkpt>
      <trkpt lat="44.50286" lon="6.59283">
        <ele>2106</ele>
        <time>2021-04-07T07:29:24Z</time>
      </trkpt>
      <trkpt lat="44.50286" lon="6.59282">
        <ele>2106</ele>
        <time>2021-04-07T07:29:25Z</time>
      </trkpt>
      <trkpt lat="44.50286" lon="6.59282">
        <ele>2106</ele>
        <time>2021-04-07T07:29:26Z</time>
      </trkpt>
      <trkpt lat="44.50286" lon="6.59281">
        <ele>2106</ele>
        <time>2021-04-07T07:29:27Z</time>
      </trkpt>
      <trkpt lat="44.50287" lon="6.59279">
        <ele>2106</ele>
        <time>2021-04-07T07:29:28Z</time>
      </trkpt>
      <trkpt lat="44.50286" lon="6.59278">
        <ele>2106</ele>
        <time>2021-04-07T07:29:29Z</time>
      </trkpt>
      <trkpt lat="44.50287" lon="6.59278">
        <ele>2106</ele>
        <time>2021-04-07T07:29:30Z</time>
      </trkpt>
      <trkpt lat="44.50287" lon="6.59277">
        <ele>2106</ele>
        <time>2021-04-07T07:29:31Z</time>
      </trkpt>
      <trkpt lat="44.50286" lon="6.59277">
        <ele>2106</ele>
        <time>2021-04-07T07:29:32Z</time>
      </trkpt>
      <trkpt lat="44.50286" lon="6.59277">
        <ele>2106</ele>
        <time>2021-04-07T07:29:33Z</time>
      </trkpt>
      <trkpt lat="44.50286" lon="6.59277">
        <ele>2106</ele>
        <time>2021-04-07T07:29:34Z</time>
      </trkpt>
      <trkpt lat="44.50285" lon="6.59277">
        <ele>2106</ele>
        <time>2021-04-07T07:29:35Z</time>
      </trkpt>
      <trkpt lat="44.50284" lon="6.59277">
        <ele>2106</ele>
        <time>2021-04-07T07:29:36Z</time>
      </trkpt>
      <trkpt lat="44.50284" lon="6.59278">
        <ele>2106</ele>
        <time>2021-04-07T07:29:37Z</time>
      </trkpt>
      <trkpt lat="44.50283" lon="6.59277">
        <ele>2106</ele>
        <time>2021-04-07T07:29:38Z</time>
      </trkpt>
      <trkpt lat="44.50283" lon="6.59277">
        <ele>2106</ele>
        <time>2021-04-07T07:29:39Z</time>
      </trkpt>
      <trkpt lat="44.50282" lon="6.59277">
        <ele>2106</ele>
        <time>2021-04-07T07:29:40Z</time>
      </trkpt>
      <trkpt lat="44.50282" lon="6.59278">
        <ele>2106</ele>
        <time>2021-04-07T07:29:41Z</time>
      </trkpt>
      <trkpt lat="44.50281" lon="6.59277">
        <ele>2106</ele>
        <time>2021-04-07T07:29:42Z</time>
      </trkpt>
      <trkpt lat="44.5028" lon="6.59277">
        <ele>2106</ele>
        <time>2021-04-07T07:29:43Z</time>
      </trkpt>
      <trkpt lat="44.5028" lon="6.59278">
        <ele>2107</ele>
        <time>2021-04-07T07:29:44Z</time>
      </trkpt>
      <trkpt lat="44.5028" lon="6.59278">
        <ele>2107</ele>
        <time>2021-04-07T07:29:45Z</time>
      </trkpt>
      <trkpt lat="44.50279" lon="6.59277">
        <ele>2107</ele>
        <time>2021-04-07T07:29:46Z</time>
      </trkpt>
      <trkpt lat="44.50279" lon="6.59277">
        <ele>2107</ele>
        <time>2021-04-07T07:29:47Z</time>
      </trkpt>
      <trkpt lat="44.50278" lon="6.59276">
        <ele>2107</ele>
        <time>2021-04-07T07:29:48Z</time>
      </trkpt>
      <trkpt lat="44.50278" lon="6.59276">
        <ele>2108</ele>
        <time>2021-04-07T07:29:49Z</time>
      </trkpt>
      <trkpt lat="44.50277" lon="6.59276">
        <ele>2109</ele>
        <time>2021-04-07T07:29:50Z</time>
      </trkpt>
      <trkpt lat="44.50277" lon="6.59275">
        <ele>2109</ele>
        <time>2021-04-07T07:29:51Z</time>
      </trkpt>
      <trkpt lat="44.50276" lon="6.59275">
        <ele>2109</ele>
        <time>2021-04-07T07:29:52Z</time>
      </trkpt>
      <trkpt lat="44.50276" lon="6.59275">
        <ele>2109</ele>
        <time>2021-04-07T07:29:53Z</time>
      </trkpt>
      <trkpt lat="44.50275" lon="6.59276">
        <ele>2110</ele>
        <time>2021-04-07T07:29:54Z</time>
      </trkpt>
      <trkpt lat="44.50275" lon="6.59277">
        <ele>2110</ele>
        <time>2021-04-07T07:29:55Z</time>
      </trkpt>
      <trkpt lat="44.50274" lon="6.59277">
        <ele>2110</ele>
        <time>2021-04-07T07:29:56Z</time>
      </trkpt>
      <trkpt lat="44.50274" lon="6.59278">
        <ele>2111</ele>
        <time>2021-04-07T07:29:57Z</time>
      </trkpt>
      <trkpt lat="44.50273" lon="6.59278">
        <ele>2111</ele>
        <time>2021-04-07T07:29:58Z</time>
      </trkpt>
      <trkpt lat="44.50273" lon="6.59279">
        <ele>2111</ele>
        <time>2021-04-07T07:29:59Z</time>
      </trkpt>
      <trkpt lat="44.50272" lon="6.59279">
        <ele>2112</ele>
        <time>2021-04-07T07:30:00Z</time>
      </trkpt>
      <trkpt lat="44.50272" lon="6.59279">
        <ele>2112</ele>
        <time>2021-04-07T07:30:01Z</time>
      </trkpt>
      <trkpt lat="44.50271" lon="6.59279">
        <ele>2112</ele>
        <time>2021-04-07T07:30:02Z</time>
      </trkpt>
      <trkpt lat="44.5027" lon="6.59279">
        <ele>2112</ele>
        <time>2021-04-07T07:30:03Z</time>
      </trkpt>
      <trkpt lat="44.50269" lon="6.59279">
        <ele>2113</ele>
        <time>2021-04-07T07:30:04Z</time>
      </trkpt>
      <trkpt lat="44.50269" lon="6.59279">
        <ele>2113</ele>
        <time>2021-04-07T07:30:05Z</time>
      </trkpt>
      <trkpt lat="44.50268" lon="6.59279">
        <ele>2113</ele>
        <time>2021-04-07T07:30:06Z</time>
      </trkpt>
      <trkpt lat="44.50268" lon="6.5928">
        <ele>2113</ele>
        <time>2021-04-07T07:30:07Z</time>
      </trkpt>
      <trkpt lat="44.50267" lon="6.5928">
        <ele>2113</ele>
        <time>2021-04-07T07:30:08Z</time>
      </trkpt>
      <trkpt lat="44.50266" lon="6.5928">
        <ele>2114</ele>
        <time>2021-04-07T07:30:09Z</time>
      </trkpt>
      <trkpt lat="44.50266" lon="6.5928">
        <ele>2114</ele>
        <time>2021-04-07T07:30:10Z</time>
      </trkpt>
      <trkpt lat="44.50266" lon="6.59281">
        <ele>2114</ele>
        <time>2021-04-07T07:30:11Z</time>
      </trkpt>
      <trkpt lat="44.50265" lon="6.59281">
        <ele>2115</ele>
        <time>2021-04-07T07:30:12Z</time>
      </trkpt>
      <trkpt lat="44.50265" lon="6.59281">
        <ele>2115</ele>
        <time>2021-04-07T07:30:13Z</time>
      </trkpt>
      <trkpt lat="44.50264" lon="6.59281">
        <ele>2115</ele>
        <time>2021-04-07T07:30:14Z</time>
      </trkpt>
      <trkpt lat="44.50264" lon="6.59281">
        <ele>2115</ele>
        <time>2021-04-07T07:30:15Z</time>
      </trkpt>
      <trkpt lat="44.50264" lon="6.59282">
        <ele>2115</ele>
        <time>2021-04-07T07:30:16Z</time>
      </trkpt>
      <trkpt lat="44.50264" lon="6.59282">
        <ele>2115</ele>
        <time>2021-04-07T07:30:17Z</time>
      </trkpt>
      <trkpt lat="44.50264" lon="6.59283">
        <ele>2116</ele>
        <time>2021-04-07T07:30:18Z</time>
      </trkpt>
      <trkpt lat="44.50263" lon="6.59284">
        <ele>2117</ele>
        <time>2021-04-07T07:30:19Z</time>
      </trkpt>
      <trkpt lat="44.50263" lon="6.59284">
        <ele>2117</ele>
        <time>2021-04-07T07:30:20Z</time>
      </trkpt>
      <trkpt lat="44.50263" lon="6.59285">
        <ele>2117</ele>
        <time>2021-04-07T07:30:21Z</time>
      </trkpt>
      <trkpt lat="44.50262" lon="6.59285">
        <ele>2117</ele>
        <time>2021-04-07T07:30:22Z</time>
      </trkpt>
      <trkpt lat="44.50262" lon="6.59286">
        <ele>2118</ele>
        <time>2021-04-07T07:30:23Z</time>
      </trkpt>
      <trkpt lat="44.50262" lon="6.59286">
        <ele>2118</ele>
        <time>2021-04-07T07:30:24Z</time>
      </trkpt>
      <trkpt lat="44.50262" lon="6.59287">
        <ele>2118</ele>
        <time>2021-04-07T07:30:25Z</time>
      </trkpt>
      <trkpt lat="44.50262" lon="6.59287">
        <ele>2119</ele>
        <time>2021-04-07T07:30:26Z</time>
      </trkpt>
      <trkpt lat="44.50261" lon="6.59287">
        <ele>2119</ele>
        <time>2021-04-07T07:30:27Z</time>
      </trkpt>
      <trkpt lat="44.5026" lon="6.59287">
        <ele>2119</ele>
        <time>2021-04-07T07:30:28Z</time>
      </trkpt>
      <trkpt lat="44.5026" lon="6.59288">
        <ele>2119</ele>
        <time>2021-04-07T07:30:29Z</time>
      </trkpt>
      <trkpt lat="44.50259" lon="6.59287">
        <ele>2119</ele>
        <time>2021-04-07T07:30:30Z</time>
      </trkpt>
      <trkpt lat="44.50259" lon="6.59287">
        <ele>2119</ele>
        <time>2021-04-07T07:30:31Z</time>
      </trkpt>
      <trkpt lat="44.50258" lon="6.59288">
        <ele>2120</ele>
        <time>2021-04-07T07:30:32Z</time>
      </trkpt>
      <trkpt lat="44.50257" lon="6.59288">
        <ele>2120</ele>
        <time>2021-04-07T07:30:33Z</time>
      </trkpt>
      <trkpt lat="44.50257" lon="6.59288">
        <ele>2120</ele>
        <time>2021-04-07T07:30:34Z</time>
      </trkpt>
      <trkpt lat="44.50257" lon="6.59288">
        <ele>2121</ele>
        <time>2021-04-07T07:30:35Z</time>
      </trkpt>
      <trkpt lat="44.50256" lon="6.59289">
        <ele>2121</ele>
        <time>2021-04-07T07:30:36Z</time>
      </trkpt>
      <trkpt lat="44.50256" lon="6.59289">
        <ele>2121</ele>
        <time>2021-04-07T07:30:37Z</time>
      </trkpt>
      <trkpt lat="44.50255" lon="6.59289">
        <ele>2121</ele>
        <time>2021-04-07T07:30:38Z</time>
      </trkpt>
      <trkpt lat="44.50254" lon="6.59289">
        <ele>2121</ele>
        <time>2021-04-07T07:30:39Z</time>
      </trkpt>
      <trkpt lat="44.50254" lon="6.59289">
        <ele>2122</ele>
        <time>2021-04-07T07:30:40Z</time>
      </trkpt>
      <trkpt lat="44.50254" lon="6.5929">
        <ele>2122</ele>
        <time>2021-04-07T07:30:41Z</time>
      </trkpt>
      <trkpt lat="44.50254" lon="6.5929">
        <ele>2122</ele>
        <time>2021-04-07T07:30:42Z</time>
      </trkpt>
      <trkpt lat="44.50254" lon="6.5929">
        <ele>2122</ele>
        <time>2021-04-07T07:30:43Z</time>
      </trkpt>
      <trkpt lat="44.50253" lon="6.5929">
        <ele>2122</ele>
        <time>2021-04-07T07:30:44Z</time>
      </trkpt>
      <trkpt lat="44.50252" lon="6.5929">
        <ele>2122</ele>
        <time>2021-04-07T07:30:45Z</time>
      </trkpt>
      <trkpt lat="44.50252" lon="6.59291">
        <ele>2122</ele>
        <time>2021-04-07T07:30:46Z</time>
      </trkpt>
      <trkpt lat="44.50252" lon="6.59291">
        <ele>2122</ele>
        <time>2021-04-07T07:30:47Z</time>
      </trkpt>
      <trkpt lat="44.50251" lon="6.59291">
        <ele>2123</ele>
        <time>2021-04-07T07:30:48Z</time>
      </trkpt>
      <trkpt lat="44.5025" lon="6.59291">
        <ele>2123</ele>
        <time>2021-04-07T07:30:49Z</time>
      </trkpt>
      <trkpt lat="44.5025" lon="6.59291">
        <ele>2123</ele>
        <time>2021-04-07T07:30:50Z</time>
      </trkpt>
      <trkpt lat="44.50249" lon="6.59291">
        <ele>2123</ele>
        <time>2021-04-07T07:30:51Z</time>
      </trkpt>
      <trkpt lat="44.50248" lon="6.59291">
        <ele>2124</ele>
        <time>2021-04-07T07:30:52Z</time>
      </trkpt>
      <trkpt lat="44.50248" lon="6.59291">
        <ele>2124</ele>
        <time>2021-04-07T07:30:53Z</time>
      </trkpt>
      <trkpt lat="44.50248" lon="6.59291">
        <ele>2124</ele>
        <time>2021-04-07T07:30:54Z</time>
      </trkpt>
      <trkpt lat="44.50248" lon="6.59291">
        <ele>2124</ele>
        <time>2021-04-07T07:30:55Z</time>
      </trkpt>
      <trkpt lat="44.50248" lon="6.59291">
        <ele>2124</ele>
        <time>2021-04-07T07:30:56Z</time>
      </trkpt>
      <trkpt lat="44.50248" lon="6.59291">
        <ele>2124</ele>
        <time>2021-04-07T07:30:57Z</time>
      </trkpt>
      <trkpt lat="44.50248" lon="6.59291">
        <ele>2124</ele>
        <time>2021-04-07T07:30:58Z</time>
      </trkpt>
      <trkpt lat="44.50247" lon="6.59296">
        <ele>2124</ele>
        <time>2021-04-07T07:30:59Z</time>
      </trkpt>
      <trkpt lat="44.50246" lon="6.59297">
        <ele>2124</ele>
        <time>2021-04-07T07:31:00Z</time>
      </trkpt>
      <trkpt lat="44.50245" lon="6.59297">
        <ele>2124</ele>
        <time>2021-04-07T07:31:01Z</time>
      </trkpt>
      <trkpt lat="44.50245" lon="6.59298">
        <ele>2125</ele>
        <time>2021-04-07T07:31:02Z</time>
      </trkpt>
      <trkpt lat="44.50244" lon="6.59298">
        <ele>2125</ele>
        <time>2021-04-07T07:31:03Z</time>
      </trkpt>
      <trkpt lat="44.50244" lon="6.59298">
        <ele>2125</ele>
        <time>2021-04-07T07:31:04Z</time>
      </trkpt>
      <trkpt lat="44.50244" lon="6.59298">
        <ele>2125</ele>
        <time>2021-04-07T07:31:05Z</time>
      </trkpt>
      <trkpt lat="44.50244" lon="6.59297">
        <ele>2125</ele>
        <time>2021-04-07T07:31:06Z</time>
      </trkpt>
      <trkpt lat="44.50244" lon="6.59297">
        <ele>2125</ele>
        <time>2021-04-07T07:31:07Z</time>
      </trkpt>
      <trkpt lat="44.50244" lon="6.59297">
        <ele>2125</ele>
        <time>2021-04-07T07:31:08Z</time>
      </trkpt>
      <trkpt lat="44.50244" lon="6.59296">
        <ele>2125</ele>
        <time>2021-04-07T07:31:09Z</time>
      </trkpt>
      <trkpt lat="44.50244" lon="6.59296">
        <ele>2126</ele>
        <time>2021-04-07T07:31:10Z</time>
      </trkpt>
      <trkpt lat="44.50244" lon="6.59296">
        <ele>2126</ele>
        <time>2021-04-07T07:31:11Z</time>
      </trkpt>
      <trkpt lat="44.50244" lon="6.59296">
        <ele>2126</ele>
        <time>2021-04-07T07:31:12Z</time>
      </trkpt>
      <trkpt lat="44.50245" lon="6.59295">
        <ele>2126</ele>
        <time>2021-04-07T07:31:13Z</time>
      </trkpt>
      <trkpt lat="44.50245" lon="6.59296">
        <ele>2126</ele>
        <time>2021-04-07T07:31:14Z</time>
      </trkpt>
      <trkpt lat="44.50245" lon="6.59296">
        <ele>2126</ele>
        <time>2021-04-07T07:31:15Z</time>
      </trkpt>
      <trkpt lat="44.50245" lon="6.59296">
        <ele>2126</ele>
        <time>2021-04-07T07:31:16Z</time>
      </trkpt>
      <trkpt lat="44.50244" lon="6.59296">
        <ele>2126</ele>
        <time>2021-04-07T07:31:17Z</time>
      </trkpt>
      <trkpt lat="44.50244" lon="6.59296">
        <ele>2126</ele>
        <time>2021-04-07T07:31:18Z</time>
      </trkpt>
      <trkpt lat="44.50244" lon="6.59296">
        <ele>2126</ele>
        <time>2021-04-07T07:31:19Z</time>
      </trkpt>
      <trkpt lat="44.50244" lon="6.59296">
        <ele>2126</ele>
        <time>2021-04-07T07:31:20Z</time>
      </trkpt>
      <trkpt lat="44.50244" lon="6.59296">
        <ele>2126</ele>
        <time>2021-04-07T07:31:21Z</time>
      </trkpt>
      <trkpt lat="44.50244" lon="6.59296">
        <ele>2126</ele>
        <time>2021-04-07T07:31:22Z</time>
      </trkpt>
      <trkpt lat="44.50244" lon="6.59296">
        <ele>2126</ele>
        <time>2021-04-07T07:31:23Z</time>
      </trkpt>
      <trkpt lat="44.50244" lon="6.59296">
        <ele>2126</ele>
        <time>2021-04-07T07:31:24Z</time>
      </trkpt>
      <trkpt lat="44.50244" lon="6.59296">
        <ele>2126</ele>
        <time>2021-04-07T07:31:25Z</time>
      </trkpt>
      <trkpt lat="44.50244" lon="6.59296">
        <ele>2126</ele>
        <time>2021-04-07T07:31:26Z</time>
      </trkpt>
      <trkpt lat="44.50244" lon="6.59296">
        <ele>2126</ele>
        <time>2021-04-07T07:31:27Z</time>
      </trkpt>
      <trkpt lat="44.50244" lon="6.59296">
        <ele>2126</ele>
        <time>2021-04-07T07:31:28Z</time>
      </trkpt>
      <trkpt lat="44.50244" lon="6.59296">
        <ele>2126</ele>
        <time>2021-04-07T07:31:29Z</time>
      </trkpt>
      <trkpt lat="44.50244" lon="6.59296">
        <ele>2126</ele>
        <time>2021-04-07T07:31:30Z</time>
      </trkpt>
      <trkpt lat="44.50244" lon="6.59296">
        <ele>2126</ele>
        <time>2021-04-07T07:31:31Z</time>
      </trkpt>
      <trkpt lat="44.50244" lon="6.59296">
        <ele>2126</ele>
        <time>2021-04-07T07:31:32Z</time>
      </trkpt>
      <trkpt lat="44.50244" lon="6.59296">
        <ele>2126</ele>
        <time>2021-04-07T07:31:33Z</time>
      </trkpt>
      <trkpt lat="44.50244" lon="6.59296">
        <ele>2126</ele>
        <time>2021-04-07T07:31:34Z</time>
      </trkpt>
      <trkpt lat="44.50244" lon="6.59296">
        <ele>2126</ele>
        <time>2021-04-07T07:31:35Z</time>
      </trkpt>
      <trkpt lat="44.50243" lon="6.59295">
        <ele>2126</ele>
        <time>2021-04-07T07:31:36Z</time>
      </trkpt>
      <trkpt lat="44.50243" lon="6.59294">
        <ele>2126</ele>
        <time>2021-04-07T07:31:37Z</time>
      </trkpt>
      <trkpt lat="44.50242" lon="6.59293">
        <ele>2126</ele>
        <time>2021-04-07T07:31:38Z</time>
      </trkpt>
      <trkpt lat="44.50242" lon="6.59292">
        <ele>2126</ele>
        <time>2021-04-07T07:31:39Z</time>
      </trkpt>
      <trkpt lat="44.50242" lon="6.59291">
        <ele>2126</ele>
        <time>2021-04-07T07:31:40Z</time>
      </trkpt>
      <trkpt lat="44.50242" lon="6.59291">
        <ele>2126</ele>
        <time>2021-04-07T07:31:41Z</time>
      </trkpt>
      <trkpt lat="44.50242" lon="6.5929">
        <ele>2126</ele>
        <time>2021-04-07T07:31:42Z</time>
      </trkpt>
      <trkpt lat="44.50242" lon="6.59289">
        <ele>2126</ele>
        <time>2021-04-07T07:31:43Z</time>
      </trkpt>
      <trkpt lat="44.50242" lon="6.59288">
        <ele>2126</ele>
        <time>2021-04-07T07:31:44Z</time>
      </trkpt>
      <trkpt lat="44.50242" lon="6.59288">
        <ele>2126</ele>
        <time>2021-04-07T07:31:45Z</time>
      </trkpt>
      <trkpt lat="44.50242" lon="6.59287">
        <ele>2126</ele>
        <time>2021-04-07T07:31:46Z</time>
      </trkpt>
      <trkpt lat="44.50242" lon="6.59286">
        <ele>2126</ele>
        <time>2021-04-07T07:31:47Z</time>
      </trkpt>
      <trkpt lat="44.50241" lon="6.59285">
        <ele>2126</ele>
        <time>2021-04-07T07:31:48Z</time>
      </trkpt>
      <trkpt lat="44.50241" lon="6.59284">
        <ele>2127</ele>
        <time>2021-04-07T07:31:49Z</time>
      </trkpt>
      <trkpt lat="44.50241" lon="6.59283">
        <ele>2127</ele>
        <time>2021-04-07T07:31:50Z</time>
      </trkpt>
      <trkpt lat="44.50241" lon="6.59282">
        <ele>2127</ele>
        <time>2021-04-07T07:31:51Z</time>
      </trkpt>
      <trkpt lat="44.50242" lon="6.59281">
        <ele>2127</ele>
        <time>2021-04-07T07:31:52Z</time>
      </trkpt>
      <trkpt lat="44.50241" lon="6.5928">
        <ele>2128</ele>
        <time>2021-04-07T07:31:53Z</time>
      </trkpt>
      <trkpt lat="44.50242" lon="6.59279">
        <ele>2128</ele>
        <time>2021-04-07T07:31:54Z</time>
      </trkpt>
      <trkpt lat="44.50242" lon="6.59278">
        <ele>2128</ele>
        <time>2021-04-07T07:31:55Z</time>
      </trkpt>
      <trkpt lat="44.50241" lon="6.59277">
        <ele>2128</ele>
        <time>2021-04-07T07:31:56Z</time>
      </trkpt>
      <trkpt lat="44.50241" lon="6.59277">
        <ele>2128</ele>
        <time>2021-04-07T07:31:57Z</time>
      </trkpt>
      <trkpt lat="44.50241" lon="6.59276">
        <ele>2129</ele>
        <time>2021-04-07T07:31:58Z</time>
      </trkpt>
      <trkpt lat="44.50241" lon="6.59276">
        <ele>2129</ele>
        <time>2021-04-07T07:31:59Z</time>
      </trkpt>
      <trkpt lat="44.50241" lon="6.59275">
        <ele>2130</ele>
        <time>2021-04-07T07:32:00Z</time>
      </trkpt>
      <trkpt lat="44.50241" lon="6.59275">
        <ele>2130</ele>
        <time>2021-04-07T07:32:01Z</time>
      </trkpt>
      <trkpt lat="44.50241" lon="6.59274">
        <ele>2130</ele>
        <time>2021-04-07T07:32:02Z</time>
      </trkpt>
      <trkpt lat="44.50241" lon="6.59273">
        <ele>2130</ele>
        <time>2021-04-07T07:32:03Z</time>
      </trkpt>
      <trkpt lat="44.5024" lon="6.59273">
        <ele>2130</ele>
        <time>2021-04-07T07:32:04Z</time>
      </trkpt>
      <trkpt lat="44.5024" lon="6.59272">
        <ele>2131</ele>
        <time>2021-04-07T07:32:05Z</time>
      </trkpt>
      <trkpt lat="44.5024" lon="6.59271">
        <ele>2131</ele>
        <time>2021-04-07T07:32:06Z</time>
      </trkpt>
      <trkpt lat="44.50239" lon="6.5927">
        <ele>2131</ele>
        <time>2021-04-07T07:32:07Z</time>
      </trkpt>
      <trkpt lat="44.50239" lon="6.59269">
        <ele>2131</ele>
        <time>2021-04-07T07:32:08Z</time>
      </trkpt>
      <trkpt lat="44.50238" lon="6.59269">
        <ele>2131</ele>
        <time>2021-04-07T07:32:09Z</time>
      </trkpt>
      <trkpt lat="44.50238" lon="6.59269">
        <ele>2132</ele>
        <time>2021-04-07T07:32:10Z</time>
      </trkpt>
      <trkpt lat="44.50237" lon="6.59268">
        <ele>2132</ele>
        <time>2021-04-07T07:32:11Z</time>
      </trkpt>
      <trkpt lat="44.50236" lon="6.59268">
        <ele>2132</ele>
        <time>2021-04-07T07:32:12Z</time>
      </trkpt>
      <trkpt lat="44.50236" lon="6.59268">
        <ele>2132</ele>
        <time>2021-04-07T07:32:13Z</time>
      </trkpt>
      <trkpt lat="44.50235" lon="6.59268">
        <ele>2132</ele>
        <time>2021-04-07T07:32:14Z</time>
      </trkpt>
      <trkpt lat="44.50235" lon="6.59268">
        <ele>2132</ele>
        <time>2021-04-07T07:32:15Z</time>
      </trkpt>
      <trkpt lat="44.50234" lon="6.59268">
        <ele>2132</ele>
        <time>2021-04-07T07:32:16Z</time>
      </trkpt>
      <trkpt lat="44.50234" lon="6.59268">
        <ele>2132</ele>
        <time>2021-04-07T07:32:17Z</time>
      </trkpt>
      <trkpt lat="44.50233" lon="6.59268">
        <ele>2132</ele>
        <time>2021-04-07T07:32:18Z</time>
      </trkpt>
      <trkpt lat="44.50235" lon="6.5927">
        <ele>2133</ele>
        <time>2021-04-07T07:32:19Z</time>
      </trkpt>
      <trkpt lat="44.50234" lon="6.5927">
        <ele>2133</ele>
        <time>2021-04-07T07:32:20Z</time>
      </trkpt>
      <trkpt lat="44.50234" lon="6.5927">
        <ele>2134</ele>
        <time>2021-04-07T07:32:21Z</time>
      </trkpt>
      <trkpt lat="44.50234" lon="6.5927">
        <ele>2134</ele>
        <time>2021-04-07T07:32:22Z</time>
      </trkpt>
      <trkpt lat="44.50234" lon="6.5927">
        <ele>2134</ele>
        <time>2021-04-07T07:32:23Z</time>
      </trkpt>
      <trkpt lat="44.50234" lon="6.5927">
        <ele>2134</ele>
        <time>2021-04-07T07:32:24Z</time>
      </trkpt>
      <trkpt lat="44.50234" lon="6.5927">
        <ele>2134</ele>
        <time>2021-04-07T07:32:25Z</time>
      </trkpt>
      <trkpt lat="44.50234" lon="6.5927">
        <ele>2134</ele>
        <time>2021-04-07T07:32:26Z</time>
      </trkpt>
      <trkpt lat="44.50234" lon="6.5927">
        <ele>2134</ele>
        <time>2021-04-07T07:32:27Z</time>
      </trkpt>
      <trkpt lat="44.50234" lon="6.5927">
        <ele>2134</ele>
        <time>2021-04-07T07:32:28Z</time>
      </trkpt>
      <trkpt lat="44.50234" lon="6.5927">
        <ele>2134</ele>
        <time>2021-04-07T07:32:29Z</time>
      </trkpt>
      <trkpt lat="44.50234" lon="6.5927">
        <ele>2134</ele>
        <time>2021-04-07T07:32:30Z</time>
      </trkpt>
      <trkpt lat="44.50234" lon="6.5927">
        <ele>2134</ele>
        <time>2021-04-07T07:32:31Z</time>
      </trkpt>
      <trkpt lat="44.50234" lon="6.5927">
        <ele>2134</ele>
        <time>2021-04-07T07:32:32Z</time>
      </trkpt>
      <trkpt lat="44.50234" lon="6.5927">
        <ele>2134</ele>
        <time>2021-04-07T07:32:33Z</time>
      </trkpt>
      <trkpt lat="44.50234" lon="6.5927">
        <ele>2134</ele>
        <time>2021-04-07T07:32:34Z</time>
      </trkpt>
      <trkpt lat="44.50234" lon="6.5927">
        <ele>2134</ele>
        <time>2021-04-07T07:32:35Z</time>
      </trkpt>
      <trkpt lat="44.50234" lon="6.5927">
        <ele>2134</ele>
        <time>2021-04-07T07:32:36Z</time>
      </trkpt>
      <trkpt lat="44.50234" lon="6.5927">
        <ele>2134</ele>
        <time>2021-04-07T07:32:37Z</time>
      </trkpt>
      <trkpt lat="44.50234" lon="6.5927">
        <ele>2134</ele>
        <time>2021-04-07T07:32:38Z</time>
      </trkpt>
      <trkpt lat="44.50234" lon="6.5927">
        <ele>2134</ele>
        <time>2021-04-07T07:32:39Z</time>
      </trkpt>
      <trkpt lat="44.50234" lon="6.5927">
        <ele>2134</ele>
        <time>2021-04-07T07:32:40Z</time>
      </trkpt>
      <trkpt lat="44.50234" lon="6.5927">
        <ele>2134</ele>
        <time>2021-04-07T07:32:41Z</time>
      </trkpt>
      <trkpt lat="44.50234" lon="6.5927">
        <ele>2134</ele>
        <time>2021-04-07T07:32:42Z</time>
      </trkpt>
      <trkpt lat="44.50234" lon="6.5927">
        <ele>2134</ele>
        <time>2021-04-07T07:32:43Z</time>
      </trkpt>
      <trkpt lat="44.50234" lon="6.5927">
        <ele>2134</ele>
        <time>2021-04-07T07:32:44Z</time>
      </trkpt>
      <trkpt lat="44.50234" lon="6.5927">
        <ele>2134</ele>
        <time>2021-04-07T07:32:45Z</time>
      </trkpt>
      <trkpt lat="44.50234" lon="6.5927">
        <ele>2134</ele>
        <time>2021-04-07T07:32:46Z</time>
      </trkpt>
      <trkpt lat="44.50234" lon="6.5927">
        <ele>2134</ele>
        <time>2021-04-07T07:32:47Z</time>
      </trkpt>
      <trkpt lat="44.50234" lon="6.5927">
        <ele>2134</ele>
        <time>2021-04-07T07:32:48Z</time>
      </trkpt>
      <trkpt lat="44.50234" lon="6.5927">
        <ele>2134</ele>
        <time>2021-04-07T07:32:49Z</time>
      </trkpt>
      <trkpt lat="44.50234" lon="6.5927">
        <ele>2134</ele>
        <time>2021-04-07T07:32:50Z</time>
      </trkpt>
      <trkpt lat="44.50234" lon="6.5927">
        <ele>2134</ele>
        <time>2021-04-07T07:32:51Z</time>
      </trkpt>
      <trkpt lat="44.50234" lon="6.5927">
        <ele>2134</ele>
        <time>2021-04-07T07:32:52Z</time>
      </trkpt>
      <trkpt lat="44.50234" lon="6.5927">
        <ele>2134</ele>
        <time>2021-04-07T07:32:53Z</time>
      </trkpt>
      <trkpt lat="44.50234" lon="6.5927">
        <ele>2134</ele>
        <time>2021-04-07T07:32:54Z</time>
      </trkpt>
      <trkpt lat="44.50234" lon="6.5927">
        <ele>2134</ele>
        <time>2021-04-07T07:32:55Z</time>
      </trkpt>
      <trkpt lat="44.50234" lon="6.5927">
        <ele>2134</ele>
        <time>2021-04-07T07:32:56Z</time>
      </trkpt>
      <trkpt lat="44.50234" lon="6.5927">
        <ele>2134</ele>
        <time>2021-04-07T07:32:57Z</time>
      </trkpt>
      <trkpt lat="44.50234" lon="6.5927">
        <ele>2134</ele>
        <time>2021-04-07T07:32:58Z</time>
      </trkpt>
      <trkpt lat="44.50234" lon="6.5927">
        <ele>2134</ele>
        <time>2021-04-07T07:32:59Z</time>
      </trkpt>
      <trkpt lat="44.50234" lon="6.5927">
        <ele>2134</ele>
        <time>2021-04-07T07:33:00Z</time>
      </trkpt>
      <trkpt lat="44.50233" lon="6.59272">
        <ele>2136</ele>
        <time>2021-04-07T07:33:01Z</time>
      </trkpt>
      <trkpt lat="44.50233" lon="6.59272">
        <ele>2137</ele>
        <time>2021-04-07T07:33:02Z</time>
      </trkpt>
      <trkpt lat="44.50234" lon="6.59272">
        <ele>2137</ele>
        <time>2021-04-07T07:33:03Z</time>
      </trkpt>
      <trkpt lat="44.50234" lon="6.59271">
        <ele>2138</ele>
        <time>2021-04-07T07:33:04Z</time>
      </trkpt>
      <trkpt lat="44.50234" lon="6.59271">
        <ele>2138</ele>
        <time>2021-04-07T07:33:05Z</time>
      </trkpt>
      <trkpt lat="44.50234" lon="6.59271">
        <ele>2138</ele>
        <time>2021-04-07T07:33:06Z</time>
      </trkpt>
      <trkpt lat="44.50234" lon="6.59271">
        <ele>2138</ele>
        <time>2021-04-07T07:33:07Z</time>
      </trkpt>
      <trkpt lat="44.50234" lon="6.59271">
        <ele>2138</ele>
        <time>2021-04-07T07:33:08Z</time>
      </trkpt>
      <trkpt lat="44.50234" lon="6.59271">
        <ele>2138</ele>
        <time>2021-04-07T07:33:09Z</time>
      </trkpt>
      <trkpt lat="44.50234" lon="6.59271">
        <ele>2138</ele>
        <time>2021-04-07T07:33:10Z</time>
      </trkpt>
      <trkpt lat="44.50234" lon="6.59271">
        <ele>2138</ele>
        <time>2021-04-07T07:33:11Z</time>
      </trkpt>
      <trkpt lat="44.50234" lon="6.59271">
        <ele>2138</ele>
        <time>2021-04-07T07:33:12Z</time>
      </trkpt>
      <trkpt lat="44.50233" lon="6.59273">
        <ele>2138</ele>
        <time>2021-04-07T07:33:13Z</time>
      </trkpt>
      <trkpt lat="44.50232" lon="6.59274">
        <ele>2138</ele>
        <time>2021-04-07T07:33:14Z</time>
      </trkpt>
      <trkpt lat="44.50232" lon="6.59274">
        <ele>2138</ele>
        <time>2021-04-07T07:33:15Z</time>
      </trkpt>
      <trkpt lat="44.50231" lon="6.59275">
        <ele>2138</ele>
        <time>2021-04-07T07:33:16Z</time>
      </trkpt>
      <trkpt lat="44.5023" lon="6.59275">
        <ele>2138</ele>
        <time>2021-04-07T07:33:17Z</time>
      </trkpt>
      <trkpt lat="44.50229" lon="6.59276">
        <ele>2138</ele>
        <time>2021-04-07T07:33:18Z</time>
      </trkpt>
      <trkpt lat="44.50229" lon="6.59277">
        <ele>2138</ele>
        <time>2021-04-07T07:33:19Z</time>
      </trkpt>
      <trkpt lat="44.50228" lon="6.59277">
        <ele>2139</ele>
        <time>2021-04-07T07:33:20Z</time>
      </trkpt>
      <trkpt lat="44.50228" lon="6.59278">
        <ele>2139</ele>
        <time>2021-04-07T07:33:21Z</time>
      </trkpt>
      <trkpt lat="44.50227" lon="6.59278">
        <ele>2139</ele>
        <time>2021-04-07T07:33:22Z</time>
      </trkpt>
      <trkpt lat="44.50227" lon="6.59278">
        <ele>2140</ele>
        <time>2021-04-07T07:33:23Z</time>
      </trkpt>
      <trkpt lat="44.50227" lon="6.59279">
        <ele>2140</ele>
        <time>2021-04-07T07:33:24Z</time>
      </trkpt>
      <trkpt lat="44.50226" lon="6.59278">
        <ele>2140</ele>
        <time>2021-04-07T07:33:25Z</time>
      </trkpt>
      <trkpt lat="44.50226" lon="6.59279">
        <ele>2140</ele>
        <time>2021-04-07T07:33:26Z</time>
      </trkpt>
      <trkpt lat="44.50225" lon="6.59279">
        <ele>2140</ele>
        <time>2021-04-07T07:33:27Z</time>
      </trkpt>
      <trkpt lat="44.50224" lon="6.5928">
        <ele>2140</ele>
        <time>2021-04-07T07:33:28Z</time>
      </trkpt>
      <trkpt lat="44.50224" lon="6.5928">
        <ele>2141</ele>
        <time>2021-04-07T07:33:29Z</time>
      </trkpt>
      <trkpt lat="44.50224" lon="6.5928">
        <ele>2141</ele>
        <time>2021-04-07T07:33:30Z</time>
      </trkpt>
      <trkpt lat="44.50223" lon="6.59281">
        <ele>2141</ele>
        <time>2021-04-07T07:33:31Z</time>
      </trkpt>
      <trkpt lat="44.50223" lon="6.59282">
        <ele>2141</ele>
        <time>2021-04-07T07:33:32Z</time>
      </trkpt>
      <trkpt lat="44.50223" lon="6.59283">
        <ele>2141</ele>
        <time>2021-04-07T07:33:33Z</time>
      </trkpt>
      <trkpt lat="44.50222" lon="6.59284">
        <ele>2141</ele>
        <time>2021-04-07T07:33:34Z</time>
      </trkpt>
      <trkpt lat="44.50222" lon="6.59285">
        <ele>2141</ele>
        <time>2021-04-07T07:33:35Z</time>
      </trkpt>
      <trkpt lat="44.50222" lon="6.59285">
        <ele>2141</ele>
        <time>2021-04-07T07:33:36Z</time>
      </trkpt>
      <trkpt lat="44.50221" lon="6.59285">
        <ele>2141</ele>
        <time>2021-04-07T07:33:37Z</time>
      </trkpt>
      <trkpt lat="44.50221" lon="6.59285">
        <ele>2141</ele>
        <time>2021-04-07T07:33:38Z</time>
      </trkpt>
      <trkpt lat="44.50221" lon="6.59284">
        <ele>2141</ele>
        <time>2021-04-07T07:33:39Z</time>
      </trkpt>
      <trkpt lat="44.50221" lon="6.59284">
        <ele>2141</ele>
        <time>2021-04-07T07:33:40Z</time>
      </trkpt>
      <trkpt lat="44.50221" lon="6.59284">
        <ele>2141</ele>
        <time>2021-04-07T07:33:41Z</time>
      </trkpt>
      <trkpt lat="44.5022" lon="6.59283">
        <ele>2141</ele>
        <time>2021-04-07T07:33:42Z</time>
      </trkpt>
      <trkpt lat="44.50221" lon="6.59284">
        <ele>2141</ele>
        <time>2021-04-07T07:33:43Z</time>
      </trkpt>
      <trkpt lat="44.50221" lon="6.59283">
        <ele>2142</ele>
        <time>2021-04-07T07:33:44Z</time>
      </trkpt>
      <trkpt lat="44.50221" lon="6.59282">
        <ele>2142</ele>
        <time>2021-04-07T07:33:45Z</time>
      </trkpt>
      <trkpt lat="44.50221" lon="6.59282">
        <ele>2142</ele>
        <time>2021-04-07T07:33:46Z</time>
      </trkpt>
      <trkpt lat="44.50221" lon="6.59282">
        <ele>2142</ele>
        <time>2021-04-07T07:33:47Z</time>
      </trkpt>
      <trkpt lat="44.5022" lon="6.59282">
        <ele>2142</ele>
        <time>2021-04-07T07:33:48Z</time>
      </trkpt>
      <trkpt lat="44.5022" lon="6.59281">
        <ele>2142</ele>
        <time>2021-04-07T07:33:49Z</time>
      </trkpt>
      <trkpt lat="44.50221" lon="6.59281">
        <ele>2142</ele>
        <time>2021-04-07T07:33:50Z</time>
      </trkpt>
      <trkpt lat="44.50221" lon="6.5928">
        <ele>2144</ele>
        <time>2021-04-07T07:33:51Z</time>
      </trkpt>
      <trkpt lat="44.50221" lon="6.59279">
        <ele>2144</ele>
        <time>2021-04-07T07:33:52Z</time>
      </trkpt>
      <trkpt lat="44.5022" lon="6.59279">
        <ele>2144</ele>
        <time>2021-04-07T07:33:53Z</time>
      </trkpt>
      <trkpt lat="44.5022" lon="6.59278">
        <ele>2144</ele>
        <time>2021-04-07T07:33:54Z</time>
      </trkpt>
      <trkpt lat="44.5022" lon="6.59277">
        <ele>2145</ele>
        <time>2021-04-07T07:33:55Z</time>
      </trkpt>
      <trkpt lat="44.5022" lon="6.59276">
        <ele>2145</ele>
        <time>2021-04-07T07:33:56Z</time>
      </trkpt>
      <trkpt lat="44.5022" lon="6.59276">
        <ele>2145</ele>
        <time>2021-04-07T07:33:57Z</time>
      </trkpt>
      <trkpt lat="44.50219" lon="6.59275">
        <ele>2145</ele>
        <time>2021-04-07T07:33:58Z</time>
      </trkpt>
      <trkpt lat="44.50219" lon="6.59274">
        <ele>2145</ele>
        <time>2021-04-07T07:33:59Z</time>
      </trkpt>
      <trkpt lat="44.50219" lon="6.59274">
        <ele>2145</ele>
        <time>2021-04-07T07:34:00Z</time>
      </trkpt>
      <trkpt lat="44.50219" lon="6.59273">
        <ele>2145</ele>
        <time>2021-04-07T07:34:01Z</time>
      </trkpt>
      <trkpt lat="44.50219" lon="6.59273">
        <ele>2145</ele>
        <time>2021-04-07T07:34:02Z</time>
      </trkpt>
      <trkpt lat="44.50219" lon="6.59272">
        <ele>2145</ele>
        <time>2021-04-07T07:34:03Z</time>
      </trkpt>
      <trkpt lat="44.50219" lon="6.59272">
        <ele>2145</ele>
        <time>2021-04-07T07:34:04Z</time>
      </trkpt>
      <trkpt lat="44.50218" lon="6.59271">
        <ele>2145</ele>
        <time>2021-04-07T07:34:05Z</time>
      </trkpt>
      <trkpt lat="44.50218" lon="6.5927">
        <ele>2146</ele>
        <time>2021-04-07T07:34:06Z</time>
      </trkpt>
      <trkpt lat="44.50218" lon="6.59269">
        <ele>2146</ele>
        <time>2021-04-07T07:34:07Z</time>
      </trkpt>
      <trkpt lat="44.50219" lon="6.59269">
        <ele>2146</ele>
        <time>2021-04-07T07:34:08Z</time>
      </trkpt>
      <trkpt lat="44.50219" lon="6.59269">
        <ele>2147</ele>
        <time>2021-04-07T07:34:09Z</time>
      </trkpt>
      <trkpt lat="44.50218" lon="6.59268">
        <ele>2147</ele>
        <time>2021-04-07T07:34:10Z</time>
      </trkpt>
      <trkpt lat="44.50219" lon="6.59267">
        <ele>2147</ele>
        <time>2021-04-07T07:34:11Z</time>
      </trkpt>
      <trkpt lat="44.50219" lon="6.59267">
        <ele>2147</ele>
        <time>2021-04-07T07:34:12Z</time>
      </trkpt>
      <trkpt lat="44.50218" lon="6.59266">
        <ele>2147</ele>
        <time>2021-04-07T07:34:13Z</time>
      </trkpt>
      <trkpt lat="44.50219" lon="6.59266">
        <ele>2147</ele>
        <time>2021-04-07T07:34:14Z</time>
      </trkpt>
      <trkpt lat="44.50219" lon="6.59265">
        <ele>2147</ele>
        <time>2021-04-07T07:34:15Z</time>
      </trkpt>
      <trkpt lat="44.50219" lon="6.59264">
        <ele>2147</ele>
        <time>2021-04-07T07:34:16Z</time>
      </trkpt>
      <trkpt lat="44.50219" lon="6.59263">
        <ele>2147</ele>
        <time>2021-04-07T07:34:17Z</time>
      </trkpt>
      <trkpt lat="44.50219" lon="6.59262">
        <ele>2147</ele>
        <time>2021-04-07T07:34:18Z</time>
      </trkpt>
      <trkpt lat="44.50219" lon="6.59261">
        <ele>2147</ele>
        <time>2021-04-07T07:34:19Z</time>
      </trkpt>
      <trkpt lat="44.50218" lon="6.59261">
        <ele>2147</ele>
        <time>2021-04-07T07:34:20Z</time>
      </trkpt>
      <trkpt lat="44.50218" lon="6.5926">
        <ele>2147</ele>
        <time>2021-04-07T07:34:21Z</time>
      </trkpt>
      <trkpt lat="44.50217" lon="6.59261">
        <ele>2147</ele>
        <time>2021-04-07T07:34:22Z</time>
      </trkpt>
      <trkpt lat="44.50216" lon="6.59261">
        <ele>2147</ele>
        <time>2021-04-07T07:34:23Z</time>
      </trkpt>
      <trkpt lat="44.50215" lon="6.59261">
        <ele>2147</ele>
        <time>2021-04-07T07:34:24Z</time>
      </trkpt>
      <trkpt lat="44.50215" lon="6.59262">
        <ele>2147</ele>
        <time>2021-04-07T07:34:25Z</time>
      </trkpt>
      <trkpt lat="44.50215" lon="6.59262">
        <ele>2147</ele>
        <time>2021-04-07T07:34:26Z</time>
      </trkpt>
      <trkpt lat="44.50214" lon="6.59263">
        <ele>2147</ele>
        <time>2021-04-07T07:34:27Z</time>
      </trkpt>
      <trkpt lat="44.50214" lon="6.59263">
        <ele>2147</ele>
        <time>2021-04-07T07:34:28Z</time>
      </trkpt>
      <trkpt lat="44.50213" lon="6.59263">
        <ele>2147</ele>
        <time>2021-04-07T07:34:29Z</time>
      </trkpt>
      <trkpt lat="44.50213" lon="6.59263">
        <ele>2147</ele>
        <time>2021-04-07T07:34:30Z</time>
      </trkpt>
      <trkpt lat="44.50212" lon="6.59261">
        <ele>2147</ele>
        <time>2021-04-07T07:34:31Z</time>
      </trkpt>
      <trkpt lat="44.50212" lon="6.59261">
        <ele>2147</ele>
        <time>2021-04-07T07:34:32Z</time>
      </trkpt>
      <trkpt lat="44.50211" lon="6.59261">
        <ele>2147</ele>
        <time>2021-04-07T07:34:33Z</time>
      </trkpt>
      <trkpt lat="44.50211" lon="6.59261">
        <ele>2147</ele>
        <time>2021-04-07T07:34:34Z</time>
      </trkpt>
      <trkpt lat="44.5021" lon="6.59261">
        <ele>2147</ele>
        <time>2021-04-07T07:34:35Z</time>
      </trkpt>
      <trkpt lat="44.5021" lon="6.59262">
        <ele>2147</ele>
        <time>2021-04-07T07:34:36Z</time>
      </trkpt>
      <trkpt lat="44.50209" lon="6.59262">
        <ele>2147</ele>
        <time>2021-04-07T07:34:37Z</time>
      </trkpt>
      <trkpt lat="44.50209" lon="6.59263">
        <ele>2147</ele>
        <time>2021-04-07T07:34:38Z</time>
      </trkpt>
      <trkpt lat="44.50209" lon="6.59263">
        <ele>2147</ele>
        <time>2021-04-07T07:34:39Z</time>
      </trkpt>
      <trkpt lat="44.50209" lon="6.59263">
        <ele>2147</ele>
        <time>2021-04-07T07:34:40Z</time>
      </trkpt>
      <trkpt lat="44.50209" lon="6.59263">
        <ele>2147</ele>
        <time>2021-04-07T07:34:41Z</time>
      </trkpt>
      <trkpt lat="44.50208" lon="6.59264">
        <ele>2147</ele>
        <time>2021-04-07T07:34:42Z</time>
      </trkpt>
      <trkpt lat="44.50208" lon="6.59264">
        <ele>2147</ele>
        <time>2021-04-07T07:34:43Z</time>
      </trkpt>
      <trkpt lat="44.50208" lon="6.59265">
        <ele>2147</ele>
        <time>2021-04-07T07:34:44Z</time>
      </trkpt>
      <trkpt lat="44.50208" lon="6.59266">
        <ele>2147</ele>
        <time>2021-04-07T07:34:45Z</time>
      </trkpt>
      <trkpt lat="44.50208" lon="6.59266">
        <ele>2147</ele>
        <time>2021-04-07T07:34:46Z</time>
      </trkpt>
      <trkpt lat="44.50208" lon="6.59268">
        <ele>2147</ele>
        <time>2021-04-07T07:34:47Z</time>
      </trkpt>
      <trkpt lat="44.50208" lon="6.59269">
        <ele>2147</ele>
        <time>2021-04-07T07:34:48Z</time>
      </trkpt>
      <trkpt lat="44.50207" lon="6.59269">
        <ele>2147</ele>
        <time>2021-04-07T07:34:49Z</time>
      </trkpt>
      <trkpt lat="44.50207" lon="6.59269">
        <ele>2147</ele>
        <time>2021-04-07T07:34:50Z</time>
      </trkpt>
      <trkpt lat="44.50206" lon="6.5927">
        <ele>2147</ele>
        <time>2021-04-07T07:34:51Z</time>
      </trkpt>
      <trkpt lat="44.50206" lon="6.5927">
        <ele>2147</ele>
        <time>2021-04-07T07:34:52Z</time>
      </trkpt>
      <trkpt lat="44.50206" lon="6.5927">
        <ele>2147</ele>
        <time>2021-04-07T07:34:53Z</time>
      </trkpt>
      <trkpt lat="44.50206" lon="6.59271">
        <ele>2148</ele>
        <time>2021-04-07T07:34:54Z</time>
      </trkpt>
      <trkpt lat="44.50205" lon="6.59271">
        <ele>2148</ele>
        <time>2021-04-07T07:34:55Z</time>
      </trkpt>
      <trkpt lat="44.50205" lon="6.59272">
        <ele>2148</ele>
        <time>2021-04-07T07:34:56Z</time>
      </trkpt>
      <trkpt lat="44.50204" lon="6.59273">
        <ele>2148</ele>
        <time>2021-04-07T07:34:57Z</time>
      </trkpt>
      <trkpt lat="44.50204" lon="6.59273">
        <ele>2148</ele>
        <time>2021-04-07T07:34:58Z</time>
      </trkpt>
      <trkpt lat="44.50204" lon="6.59274">
        <ele>2148</ele>
        <time>2021-04-07T07:34:59Z</time>
      </trkpt>
      <trkpt lat="44.50204" lon="6.59274">
        <ele>2148</ele>
        <time>2021-04-07T07:35:00Z</time>
      </trkpt>
      <trkpt lat="44.50203" lon="6.59275">
        <ele>2148</ele>
        <time>2021-04-07T07:35:01Z</time>
      </trkpt>
      <trkpt lat="44.50203" lon="6.59275">
        <ele>2148</ele>
        <time>2021-04-07T07:35:02Z</time>
      </trkpt>
      <trkpt lat="44.50203" lon="6.59276">
        <ele>2149</ele>
        <time>2021-04-07T07:35:03Z</time>
      </trkpt>
      <trkpt lat="44.50202" lon="6.59277">
        <ele>2149</ele>
        <time>2021-04-07T07:35:04Z</time>
      </trkpt>
      <trkpt lat="44.50202" lon="6.59277">
        <ele>2149</ele>
        <time>2021-04-07T07:35:05Z</time>
      </trkpt>
      <trkpt lat="44.50201" lon="6.59277">
        <ele>2149</ele>
        <time>2021-04-07T07:35:06Z</time>
      </trkpt>
      <trkpt lat="44.502" lon="6.59276">
        <ele>2149</ele>
        <time>2021-04-07T07:35:07Z</time>
      </trkpt>
      <trkpt lat="44.502" lon="6.59276">
        <ele>2149</ele>
        <time>2021-04-07T07:35:08Z</time>
      </trkpt>
      <trkpt lat="44.50199" lon="6.59275">
        <ele>2149</ele>
        <time>2021-04-07T07:35:09Z</time>
      </trkpt>
      <trkpt lat="44.50198" lon="6.59274">
        <ele>2149</ele>
        <time>2021-04-07T07:35:10Z</time>
      </trkpt>
      <trkpt lat="44.50198" lon="6.59274">
        <ele>2149</ele>
        <time>2021-04-07T07:35:11Z</time>
      </trkpt>
      <trkpt lat="44.50197" lon="6.59273">
        <ele>2150</ele>
        <time>2021-04-07T07:35:12Z</time>
      </trkpt>
      <trkpt lat="44.50197" lon="6.59272">
        <ele>2150</ele>
        <time>2021-04-07T07:35:13Z</time>
      </trkpt>
      <trkpt lat="44.50197" lon="6.59272">
        <ele>2150</ele>
        <time>2021-04-07T07:35:14Z</time>
      </trkpt>
      <trkpt lat="44.50198" lon="6.59271">
        <ele>2150</ele>
        <time>2021-04-07T07:35:15Z</time>
      </trkpt>
      <trkpt lat="44.50198" lon="6.59271">
        <ele>2150</ele>
        <time>2021-04-07T07:35:16Z</time>
      </trkpt>
      <trkpt lat="44.50198" lon="6.59271">
        <ele>2150</ele>
        <time>2021-04-07T07:35:17Z</time>
      </trkpt>
      <trkpt lat="44.50198" lon="6.5927">
        <ele>2150</ele>
        <time>2021-04-07T07:35:18Z</time>
      </trkpt>
      <trkpt lat="44.50198" lon="6.5927">
        <ele>2151</ele>
        <time>2021-04-07T07:35:19Z</time>
      </trkpt>
      <trkpt lat="44.50197" lon="6.5927">
        <ele>2151</ele>
        <time>2021-04-07T07:35:20Z</time>
      </trkpt>
      <trkpt lat="44.50197" lon="6.5927">
        <ele>2151</ele>
        <time>2021-04-07T07:35:21Z</time>
      </trkpt>
      <trkpt lat="44.50197" lon="6.59269">
        <ele>2151</ele>
        <time>2021-04-07T07:35:22Z</time>
      </trkpt>
      <trkpt lat="44.50197" lon="6.59269">
        <ele>2151</ele>
        <time>2021-04-07T07:35:23Z</time>
      </trkpt>
      <trkpt lat="44.50197" lon="6.59269">
        <ele>2151</ele>
        <time>2021-04-07T07:35:24Z</time>
      </trkpt>
      <trkpt lat="44.50197" lon="6.59269">
        <ele>2151</ele>
        <time>2021-04-07T07:35:25Z</time>
      </trkpt>
      <trkpt lat="44.50197" lon="6.59269">
        <ele>2151</ele>
        <time>2021-04-07T07:35:26Z</time>
      </trkpt>
      <trkpt lat="44.50197" lon="6.59269">
        <ele>2151</ele>
        <time>2021-04-07T07:35:27Z</time>
      </trkpt>
      <trkpt lat="44.50197" lon="6.59269">
        <ele>2151</ele>
        <time>2021-04-07T07:35:28Z</time>
      </trkpt>
      <trkpt lat="44.50197" lon="6.59269">
        <ele>2151</ele>
        <time>2021-04-07T07:35:29Z</time>
      </trkpt>
      <trkpt lat="44.50197" lon="6.59269">
        <ele>2151</ele>
        <time>2021-04-07T07:35:30Z</time>
      </trkpt>
      <trkpt lat="44.50197" lon="6.59269">
        <ele>2151</ele>
        <time>2021-04-07T07:35:31Z</time>
      </trkpt>
      <trkpt lat="44.50197" lon="6.59269">
        <ele>2151</ele>
        <time>2021-04-07T07:35:32Z</time>
      </trkpt>
      <trkpt lat="44.50197" lon="6.59269">
        <ele>2151</ele>
        <time>2021-04-07T07:35:33Z</time>
      </trkpt>
      <trkpt lat="44.50197" lon="6.59269">
        <ele>2151</ele>
        <time>2021-04-07T07:35:34Z</time>
      </trkpt>
      <trkpt lat="44.50197" lon="6.59269">
        <ele>2151</ele>
        <time>2021-04-07T07:35:35Z</time>
      </trkpt>
      <trkpt lat="44.50197" lon="6.59269">
        <ele>2151</ele>
        <time>2021-04-07T07:35:36Z</time>
      </trkpt>
      <trkpt lat="44.50197" lon="6.59269">
        <ele>2151</ele>
        <time>2021-04-07T07:35:37Z</time>
      </trkpt>
      <trkpt lat="44.50197" lon="6.59269">
        <ele>2151</ele>
        <time>2021-04-07T07:35:38Z</time>
      </trkpt>
      <trkpt lat="44.50197" lon="6.59269">
        <ele>2151</ele>
        <time>2021-04-07T07:35:39Z</time>
      </trkpt>
      <trkpt lat="44.50197" lon="6.59269">
        <ele>2151</ele>
        <time>2021-04-07T07:35:40Z</time>
      </trkpt>
      <trkpt lat="44.50197" lon="6.59269">
        <ele>2151</ele>
        <time>2021-04-07T07:35:41Z</time>
      </trkpt>
      <trkpt lat="44.50197" lon="6.59269">
        <ele>2151</ele>
        <time>2021-04-07T07:35:42Z</time>
      </trkpt>
      <trkpt lat="44.50197" lon="6.59269">
        <ele>2151</ele>
        <time>2021-04-07T07:35:43Z</time>
      </trkpt>
      <trkpt lat="44.50197" lon="6.59269">
        <ele>2151</ele>
        <time>2021-04-07T07:35:44Z</time>
      </trkpt>
      <trkpt lat="44.50197" lon="6.59269">
        <ele>2151</ele>
        <time>2021-04-07T07:35:45Z</time>
      </trkpt>
      <trkpt lat="44.50197" lon="6.59269">
        <ele>2151</ele>
        <time>2021-04-07T07:35:46Z</time>
      </trkpt>
      <trkpt lat="44.50197" lon="6.59269">
        <ele>2151</ele>
        <time>2021-04-07T07:35:47Z</time>
      </trkpt>
      <trkpt lat="44.50197" lon="6.59269">
        <ele>2151</ele>
        <time>2021-04-07T07:35:48Z</time>
      </trkpt>
      <trkpt lat="44.50197" lon="6.59269">
        <ele>2151</ele>
        <time>2021-04-07T07:35:49Z</time>
      </trkpt>
      <trkpt lat="44.50197" lon="6.59269">
        <ele>2151</ele>
        <time>2021-04-07T07:35:50Z</time>
      </trkpt>
      <trkpt lat="44.50197" lon="6.59269">
        <ele>2151</ele>
        <time>2021-04-07T07:35:51Z</time>
      </trkpt>
      <trkpt lat="44.50197" lon="6.59269">
        <ele>2151</ele>
        <time>2021-04-07T07:35:52Z</time>
      </trkpt>
      <trkpt lat="44.50197" lon="6.59269">
        <ele>2151</ele>
        <time>2021-04-07T07:35:53Z</time>
      </trkpt>
      <trkpt lat="44.50197" lon="6.59269">
        <ele>2151</ele>
        <time>2021-04-07T07:35:54Z</time>
      </trkpt>
      <trkpt lat="44.50197" lon="6.59269">
        <ele>2151</ele>
        <time>2021-04-07T07:35:55Z</time>
      </trkpt>
      <trkpt lat="44.50197" lon="6.59269">
        <ele>2151</ele>
        <time>2021-04-07T07:35:56Z</time>
      </trkpt>
      <trkpt lat="44.50197" lon="6.59269">
        <ele>2151</ele>
        <time>2021-04-07T07:35:57Z</time>
      </trkpt>
      <trkpt lat="44.50197" lon="6.59269">
        <ele>2151</ele>
        <time>2021-04-07T07:35:58Z</time>
      </trkpt>
      <trkpt lat="44.50197" lon="6.59269">
        <ele>2151</ele>
        <time>2021-04-07T07:35:59Z</time>
      </trkpt>
      <trkpt lat="44.50197" lon="6.59269">
        <ele>2151</ele>
        <time>2021-04-07T07:36:00Z</time>
      </trkpt>
      <trkpt lat="44.50197" lon="6.59269">
        <ele>2151</ele>
        <time>2021-04-07T07:36:01Z</time>
      </trkpt>
      <trkpt lat="44.50197" lon="6.59269">
        <ele>2151</ele>
        <time>2021-04-07T07:36:02Z</time>
      </trkpt>
      <trkpt lat="44.50197" lon="6.59269">
        <ele>2151</ele>
        <time>2021-04-07T07:36:03Z</time>
      </trkpt>
      <trkpt lat="44.50197" lon="6.59269">
        <ele>2151</ele>
        <time>2021-04-07T07:36:04Z</time>
      </trkpt>
      <trkpt lat="44.50197" lon="6.59269">
        <ele>2151</ele>
        <time>2021-04-07T07:36:05Z</time>
      </trkpt>
      <trkpt lat="44.50197" lon="6.59269">
        <ele>2151</ele>
        <time>2021-04-07T07:36:06Z</time>
      </trkpt>
      <trkpt lat="44.50193" lon="6.59263">
        <ele>2153</ele>
        <time>2021-04-07T07:36:07Z</time>
      </trkpt>
      <trkpt lat="44.50193" lon="6.59262">
        <ele>2153</ele>
        <time>2021-04-07T07:36:08Z</time>
      </trkpt>
      <trkpt lat="44.50193" lon="6.5926">
        <ele>2153</ele>
        <time>2021-04-07T07:36:09Z</time>
      </trkpt>
      <trkpt lat="44.50193" lon="6.5926">
        <ele>2154</ele>
        <time>2021-04-07T07:36:10Z</time>
      </trkpt>
      <trkpt lat="44.50193" lon="6.59259">
        <ele>2154</ele>
        <time>2021-04-07T07:36:11Z</time>
      </trkpt>
      <trkpt lat="44.50193" lon="6.59258">
        <ele>2154</ele>
        <time>2021-04-07T07:36:12Z</time>
      </trkpt>
      <trkpt lat="44.50193" lon="6.59258">
        <ele>2154</ele>
        <time>2021-04-07T07:36:13Z</time>
      </trkpt>
      <trkpt lat="44.50192" lon="6.59258">
        <ele>2154</ele>
        <time>2021-04-07T07:36:14Z</time>
      </trkpt>
      <trkpt lat="44.50192" lon="6.59258">
        <ele>2154</ele>
        <time>2021-04-07T07:36:15Z</time>
      </trkpt>
      <trkpt lat="44.50192" lon="6.59259">
        <ele>2154</ele>
        <time>2021-04-07T07:36:16Z</time>
      </trkpt>
      <trkpt lat="44.50191" lon="6.59259">
        <ele>2154</ele>
        <time>2021-04-07T07:36:17Z</time>
      </trkpt>
      <trkpt lat="44.50191" lon="6.59259">
        <ele>2155</ele>
        <time>2021-04-07T07:36:18Z</time>
      </trkpt>
      <trkpt lat="44.50191" lon="6.5926">
        <ele>2155</ele>
        <time>2021-04-07T07:36:19Z</time>
      </trkpt>
      <trkpt lat="44.50191" lon="6.5926">
        <ele>2155</ele>
        <time>2021-04-07T07:36:20Z</time>
      </trkpt>
      <trkpt lat="44.5019" lon="6.59261">
        <ele>2155</ele>
        <time>2021-04-07T07:36:21Z</time>
      </trkpt>
      <trkpt lat="44.5019" lon="6.59261">
        <ele>2155</ele>
        <time>2021-04-07T07:36:22Z</time>
      </trkpt>
      <trkpt lat="44.50189" lon="6.59262">
        <ele>2155</ele>
        <time>2021-04-07T07:36:23Z</time>
      </trkpt>
      <trkpt lat="44.50188" lon="6.59262">
        <ele>2155</ele>
        <time>2021-04-07T07:36:24Z</time>
      </trkpt>
      <trkpt lat="44.50187" lon="6.59262">
        <ele>2155</ele>
        <time>2021-04-07T07:36:25Z</time>
      </trkpt>
      <trkpt lat="44.50186" lon="6.59262">
        <ele>2156</ele>
        <time>2021-04-07T07:36:26Z</time>
      </trkpt>
      <trkpt lat="44.50185" lon="6.59262">
        <ele>2156</ele>
        <time>2021-04-07T07:36:27Z</time>
      </trkpt>
      <trkpt lat="44.50185" lon="6.59262">
        <ele>2156</ele>
        <time>2021-04-07T07:36:28Z</time>
      </trkpt>
      <trkpt lat="44.50184" lon="6.59262">
        <ele>2156</ele>
        <time>2021-04-07T07:36:29Z</time>
      </trkpt>
      <trkpt lat="44.50183" lon="6.59263">
        <ele>2156</ele>
        <time>2021-04-07T07:36:30Z</time>
      </trkpt>
      <trkpt lat="44.50182" lon="6.59263">
        <ele>2157</ele>
        <time>2021-04-07T07:36:31Z</time>
      </trkpt>
      <trkpt lat="44.50181" lon="6.59264">
        <ele>2157</ele>
        <time>2021-04-07T07:36:32Z</time>
      </trkpt>
      <trkpt lat="44.50181" lon="6.59264">
        <ele>2157</ele>
        <time>2021-04-07T07:36:33Z</time>
      </trkpt>
      <trkpt lat="44.50181" lon="6.59265">
        <ele>2157</ele>
        <time>2021-04-07T07:36:34Z</time>
      </trkpt>
      <trkpt lat="44.50181" lon="6.59265">
        <ele>2157</ele>
        <time>2021-04-07T07:36:35Z</time>
      </trkpt>
      <trkpt lat="44.5018" lon="6.59266">
        <ele>2158</ele>
        <time>2021-04-07T07:36:36Z</time>
      </trkpt>
      <trkpt lat="44.50179" lon="6.59266">
        <ele>2158</ele>
        <time>2021-04-07T07:36:37Z</time>
      </trkpt>
      <trkpt lat="44.50179" lon="6.59268">
        <ele>2158</ele>
        <time>2021-04-07T07:36:38Z</time>
      </trkpt>
      <trkpt lat="44.50178" lon="6.59268">
        <ele>2158</ele>
        <time>2021-04-07T07:36:39Z</time>
      </trkpt>
      <trkpt lat="44.50178" lon="6.59268">
        <ele>2159</ele>
        <time>2021-04-07T07:36:40Z</time>
      </trkpt>
      <trkpt lat="44.50178" lon="6.59269">
        <ele>2159</ele>
        <time>2021-04-07T07:36:41Z</time>
      </trkpt>
      <trkpt lat="44.50178" lon="6.5927">
        <ele>2159</ele>
        <time>2021-04-07T07:36:42Z</time>
      </trkpt>
      <trkpt lat="44.50179" lon="6.59271">
        <ele>2159</ele>
        <time>2021-04-07T07:36:43Z</time>
      </trkpt>
      <trkpt lat="44.50178" lon="6.59272">
        <ele>2159</ele>
        <time>2021-04-07T07:36:44Z</time>
      </trkpt>
      <trkpt lat="44.50179" lon="6.59272">
        <ele>2159</ele>
        <time>2021-04-07T07:36:45Z</time>
      </trkpt>
      <trkpt lat="44.50178" lon="6.59272">
        <ele>2159</ele>
        <time>2021-04-07T07:36:46Z</time>
      </trkpt>
      <trkpt lat="44.50178" lon="6.59273">
        <ele>2159</ele>
        <time>2021-04-07T07:36:47Z</time>
      </trkpt>
      <trkpt lat="44.50178" lon="6.59274">
        <ele>2159</ele>
        <time>2021-04-07T07:36:48Z</time>
      </trkpt>
      <trkpt lat="44.50178" lon="6.59274">
        <ele>2159</ele>
        <time>2021-04-07T07:36:49Z</time>
      </trkpt>
      <trkpt lat="44.50178" lon="6.59275">
        <ele>2159</ele>
        <time>2021-04-07T07:36:50Z</time>
      </trkpt>
      <trkpt lat="44.50177" lon="6.59276">
        <ele>2159</ele>
        <time>2021-04-07T07:36:51Z</time>
      </trkpt>
      <trkpt lat="44.50177" lon="6.59277">
        <ele>2159</ele>
        <time>2021-04-07T07:36:52Z</time>
      </trkpt>
      <trkpt lat="44.50176" lon="6.59277">
        <ele>2159</ele>
        <time>2021-04-07T07:36:53Z</time>
      </trkpt>
      <trkpt lat="44.50176" lon="6.59278">
        <ele>2159</ele>
        <time>2021-04-07T07:36:54Z</time>
      </trkpt>
      <trkpt lat="44.50176" lon="6.59279">
        <ele>2159</ele>
        <time>2021-04-07T07:36:55Z</time>
      </trkpt>
      <trkpt lat="44.50176" lon="6.5928">
        <ele>2159</ele>
        <time>2021-04-07T07:36:56Z</time>
      </trkpt>
      <trkpt lat="44.50176" lon="6.59281">
        <ele>2160</ele>
        <time>2021-04-07T07:36:57Z</time>
      </trkpt>
      <trkpt lat="44.50175" lon="6.59283">
        <ele>2160</ele>
        <time>2021-04-07T07:36:58Z</time>
      </trkpt>
      <trkpt lat="44.50175" lon="6.59284">
        <ele>2160</ele>
        <time>2021-04-07T07:36:59Z</time>
      </trkpt>
      <trkpt lat="44.50174" lon="6.59285">
        <ele>2160</ele>
        <time>2021-04-07T07:37:00Z</time>
      </trkpt>
      <trkpt lat="44.50174" lon="6.59286">
        <ele>2160</ele>
        <time>2021-04-07T07:37:01Z</time>
      </trkpt>
      <trkpt lat="44.50174" lon="6.59287">
        <ele>2160</ele>
        <time>2021-04-07T07:37:02Z</time>
      </trkpt>
      <trkpt lat="44.50173" lon="6.59287">
        <ele>2161</ele>
        <time>2021-04-07T07:37:03Z</time>
      </trkpt>
      <trkpt lat="44.50173" lon="6.59287">
        <ele>2161</ele>
        <time>2021-04-07T07:37:04Z</time>
      </trkpt>
      <trkpt lat="44.50173" lon="6.59287">
        <ele>2161</ele>
        <time>2021-04-07T07:37:05Z</time>
      </trkpt>
      <trkpt lat="44.50173" lon="6.59288">
        <ele>2161</ele>
        <time>2021-04-07T07:37:06Z</time>
      </trkpt>
      <trkpt lat="44.50173" lon="6.59289">
        <ele>2161</ele>
        <time>2021-04-07T07:37:07Z</time>
      </trkpt>
      <trkpt lat="44.50173" lon="6.59289">
        <ele>2162</ele>
        <time>2021-04-07T07:37:08Z</time>
      </trkpt>
      <trkpt lat="44.50174" lon="6.5929">
        <ele>2162</ele>
        <time>2021-04-07T07:37:09Z</time>
      </trkpt>
      <trkpt lat="44.50174" lon="6.59291">
        <ele>2162</ele>
        <time>2021-04-07T07:37:10Z</time>
      </trkpt>
      <trkpt lat="44.50173" lon="6.59291">
        <ele>2162</ele>
        <time>2021-04-07T07:37:11Z</time>
      </trkpt>
      <trkpt lat="44.50173" lon="6.59292">
        <ele>2162</ele>
        <time>2021-04-07T07:37:12Z</time>
      </trkpt>
      <trkpt lat="44.50173" lon="6.59292">
        <ele>2163</ele>
        <time>2021-04-07T07:37:13Z</time>
      </trkpt>
      <trkpt lat="44.50172" lon="6.59293">
        <ele>2163</ele>
        <time>2021-04-07T07:37:14Z</time>
      </trkpt>
      <trkpt lat="44.50172" lon="6.59294">
        <ele>2163</ele>
        <time>2021-04-07T07:37:15Z</time>
      </trkpt>
      <trkpt lat="44.50172" lon="6.59295">
        <ele>2163</ele>
        <time>2021-04-07T07:37:16Z</time>
      </trkpt>
      <trkpt lat="44.50171" lon="6.59296">
        <ele>2163</ele>
        <time>2021-04-07T07:37:17Z</time>
      </trkpt>
      <trkpt lat="44.50171" lon="6.59296">
        <ele>2164</ele>
        <time>2021-04-07T07:37:18Z</time>
      </trkpt>
      <trkpt lat="44.5017" lon="6.59297">
        <ele>2164</ele>
        <time>2021-04-07T07:37:19Z</time>
      </trkpt>
      <trkpt lat="44.5017" lon="6.59298">
        <ele>2164</ele>
        <time>2021-04-07T07:37:20Z</time>
      </trkpt>
      <trkpt lat="44.5017" lon="6.59299">
        <ele>2164</ele>
        <time>2021-04-07T07:37:21Z</time>
      </trkpt>
      <trkpt lat="44.5017" lon="6.593">
        <ele>2164</ele>
        <time>2021-04-07T07:37:22Z</time>
      </trkpt>
      <trkpt lat="44.50169" lon="6.59301">
        <ele>2165</ele>
        <time>2021-04-07T07:37:23Z</time>
      </trkpt>
      <trkpt lat="44.50169" lon="6.59301">
        <ele>2165</ele>
        <time>2021-04-07T07:37:24Z</time>
      </trkpt>
      <trkpt lat="44.50169" lon="6.59301">
        <ele>2165</ele>
        <time>2021-04-07T07:37:25Z</time>
      </trkpt>
      <trkpt lat="44.50169" lon="6.59302">
        <ele>2165</ele>
        <time>2021-04-07T07:37:26Z</time>
      </trkpt>
      <trkpt lat="44.50169" lon="6.59303">
        <ele>2165</ele>
        <time>2021-04-07T07:37:27Z</time>
      </trkpt>
      <trkpt lat="44.50169" lon="6.59303">
        <ele>2165</ele>
        <time>2021-04-07T07:37:28Z</time>
      </trkpt>
      <trkpt lat="44.50169" lon="6.59304">
        <ele>2165</ele>
        <time>2021-04-07T07:37:29Z</time>
      </trkpt>
      <trkpt lat="44.50169" lon="6.59305">
        <ele>2165</ele>
        <time>2021-04-07T07:37:30Z</time>
      </trkpt>
      <trkpt lat="44.50169" lon="6.59306">
        <ele>2165</ele>
        <time>2021-04-07T07:37:31Z</time>
      </trkpt>
      <trkpt lat="44.50169" lon="6.59306">
        <ele>2165</ele>
        <time>2021-04-07T07:37:32Z</time>
      </trkpt>
      <trkpt lat="44.50169" lon="6.59306">
        <ele>2165</ele>
        <time>2021-04-07T07:37:33Z</time>
      </trkpt>
      <trkpt lat="44.50169" lon="6.59307">
        <ele>2165</ele>
        <time>2021-04-07T07:37:34Z</time>
      </trkpt>
      <trkpt lat="44.50169" lon="6.59307">
        <ele>2165</ele>
        <time>2021-04-07T07:37:35Z</time>
      </trkpt>
      <trkpt lat="44.50169" lon="6.59307">
        <ele>2165</ele>
        <time>2021-04-07T07:37:36Z</time>
      </trkpt>
      <trkpt lat="44.50169" lon="6.59307">
        <ele>2165</ele>
        <time>2021-04-07T07:37:37Z</time>
      </trkpt>
      <trkpt lat="44.50169" lon="6.59307">
        <ele>2165</ele>
        <time>2021-04-07T07:37:38Z</time>
      </trkpt>
      <trkpt lat="44.50169" lon="6.59307">
        <ele>2165</ele>
        <time>2021-04-07T07:37:39Z</time>
      </trkpt>
      <trkpt lat="44.50169" lon="6.59307">
        <ele>2165</ele>
        <time>2021-04-07T07:37:40Z</time>
      </trkpt>
      <trkpt lat="44.50169" lon="6.59307">
        <ele>2165</ele>
        <time>2021-04-07T07:37:41Z</time>
      </trkpt>
      <trkpt lat="44.50169" lon="6.59307">
        <ele>2165</ele>
        <time>2021-04-07T07:37:42Z</time>
      </trkpt>
      <trkpt lat="44.50168" lon="6.59306">
        <ele>2165</ele>
        <time>2021-04-07T07:37:43Z</time>
      </trkpt>
      <trkpt lat="44.50167" lon="6.59306">
        <ele>2165</ele>
        <time>2021-04-07T07:37:44Z</time>
      </trkpt>
      <trkpt lat="44.50167" lon="6.59306">
        <ele>2165</ele>
        <time>2021-04-07T07:37:45Z</time>
      </trkpt>
      <trkpt lat="44.50167" lon="6.59306">
        <ele>2165</ele>
        <time>2021-04-07T07:37:46Z</time>
      </trkpt>
      <trkpt lat="44.50167" lon="6.59306">
        <ele>2165</ele>
        <time>2021-04-07T07:37:47Z</time>
      </trkpt>
      <trkpt lat="44.50166" lon="6.59305">
        <ele>2165</ele>
        <time>2021-04-07T07:37:48Z</time>
      </trkpt>
      <trkpt lat="44.50166" lon="6.59304">
        <ele>2166</ele>
        <time>2021-04-07T07:37:49Z</time>
      </trkpt>
      <trkpt lat="44.50165" lon="6.59304">
        <ele>2166</ele>
        <time>2021-04-07T07:37:50Z</time>
      </trkpt>
      <trkpt lat="44.50165" lon="6.59303">
        <ele>2166</ele>
        <time>2021-04-07T07:37:51Z</time>
      </trkpt>
      <trkpt lat="44.50165" lon="6.59302">
        <ele>2167</ele>
        <time>2021-04-07T07:37:52Z</time>
      </trkpt>
      <trkpt lat="44.50164" lon="6.593">
        <ele>2167</ele>
        <time>2021-04-07T07:37:53Z</time>
      </trkpt>
      <trkpt lat="44.50164" lon="6.59299">
        <ele>2167</ele>
        <time>2021-04-07T07:37:54Z</time>
      </trkpt>
      <trkpt lat="44.50164" lon="6.59299">
        <ele>2167</ele>
        <time>2021-04-07T07:37:55Z</time>
      </trkpt>
      <trkpt lat="44.50164" lon="6.59299">
        <ele>2167</ele>
        <time>2021-04-07T07:37:56Z</time>
      </trkpt>
      <trkpt lat="44.50163" lon="6.59298">
        <ele>2167</ele>
        <time>2021-04-07T07:37:57Z</time>
      </trkpt>
      <trkpt lat="44.50163" lon="6.59297">
        <ele>2167</ele>
        <time>2021-04-07T07:37:58Z</time>
      </trkpt>
      <trkpt lat="44.50163" lon="6.59297">
        <ele>2167</ele>
        <time>2021-04-07T07:37:59Z</time>
      </trkpt>
      <trkpt lat="44.50162" lon="6.59296">
        <ele>2167</ele>
        <time>2021-04-07T07:38:00Z</time>
      </trkpt>
      <trkpt lat="44.50162" lon="6.59295">
        <ele>2167</ele>
        <time>2021-04-07T07:38:01Z</time>
      </trkpt>
      <trkpt lat="44.50162" lon="6.59295">
        <ele>2167</ele>
        <time>2021-04-07T07:38:02Z</time>
      </trkpt>
      <trkpt lat="44.50161" lon="6.59294">
        <ele>2167</ele>
        <time>2021-04-07T07:38:03Z</time>
      </trkpt>
      <trkpt lat="44.50161" lon="6.59294">
        <ele>2167</ele>
        <time>2021-04-07T07:38:04Z</time>
      </trkpt>
      <trkpt lat="44.50161" lon="6.59293">
        <ele>2167</ele>
        <time>2021-04-07T07:38:05Z</time>
      </trkpt>
      <trkpt lat="44.5016" lon="6.59293">
        <ele>2167</ele>
        <time>2021-04-07T07:38:06Z</time>
      </trkpt>
      <trkpt lat="44.5016" lon="6.59292">
        <ele>2167</ele>
        <time>2021-04-07T07:38:07Z</time>
      </trkpt>
      <trkpt lat="44.50159" lon="6.59292">
        <ele>2167</ele>
        <time>2021-04-07T07:38:08Z</time>
      </trkpt>
      <trkpt lat="44.50159" lon="6.59291">
        <ele>2167</ele>
        <time>2021-04-07T07:38:09Z</time>
      </trkpt>
      <trkpt lat="44.50159" lon="6.5929">
        <ele>2167</ele>
        <time>2021-04-07T07:38:10Z</time>
      </trkpt>
      <trkpt lat="44.50159" lon="6.59289">
        <ele>2168</ele>
        <time>2021-04-07T07:38:11Z</time>
      </trkpt>
      <trkpt lat="44.50159" lon="6.59288">
        <ele>2168</ele>
        <time>2021-04-07T07:38:12Z</time>
      </trkpt>
      <trkpt lat="44.50158" lon="6.59287">
        <ele>2168</ele>
        <time>2021-04-07T07:38:13Z</time>
      </trkpt>
      <trkpt lat="44.50159" lon="6.59287">
        <ele>2168</ele>
        <time>2021-04-07T07:38:14Z</time>
      </trkpt>
      <trkpt lat="44.50158" lon="6.59285">
        <ele>2168</ele>
        <time>2021-04-07T07:38:15Z</time>
      </trkpt>
      <trkpt lat="44.50158" lon="6.59284">
        <ele>2168</ele>
        <time>2021-04-07T07:38:16Z</time>
      </trkpt>
      <trkpt lat="44.50158" lon="6.59283">
        <ele>2168</ele>
        <time>2021-04-07T07:38:17Z</time>
      </trkpt>
      <trkpt lat="44.50157" lon="6.59283">
        <ele>2169</ele>
        <time>2021-04-07T07:38:18Z</time>
      </trkpt>
      <trkpt lat="44.50158" lon="6.59283">
        <ele>2169</ele>
        <time>2021-04-07T07:38:19Z</time>
      </trkpt>
      <trkpt lat="44.50158" lon="6.59283">
        <ele>2169</ele>
        <time>2021-04-07T07:38:20Z</time>
      </trkpt>
      <trkpt lat="44.50158" lon="6.59283">
        <ele>2169</ele>
        <time>2021-04-07T07:38:21Z</time>
      </trkpt>
      <trkpt lat="44.50158" lon="6.59283">
        <ele>2169</ele>
        <time>2021-04-07T07:38:22Z</time>
      </trkpt>
      <trkpt lat="44.50157" lon="6.59284">
        <ele>2169</ele>
        <time>2021-04-07T07:38:23Z</time>
      </trkpt>
      <trkpt lat="44.50156" lon="6.59283">
        <ele>2169</ele>
        <time>2021-04-07T07:38:24Z</time>
      </trkpt>
      <trkpt lat="44.50156" lon="6.59284">
        <ele>2169</ele>
        <time>2021-04-07T07:38:25Z</time>
      </trkpt>
      <trkpt lat="44.50156" lon="6.59283">
        <ele>2169</ele>
        <time>2021-04-07T07:38:26Z</time>
      </trkpt>
      <trkpt lat="44.50155" lon="6.59284">
        <ele>2170</ele>
        <time>2021-04-07T07:38:27Z</time>
      </trkpt>
      <trkpt lat="44.50155" lon="6.59285">
        <ele>2170</ele>
        <time>2021-04-07T07:38:28Z</time>
      </trkpt>
      <trkpt lat="44.50155" lon="6.59285">
        <ele>2170</ele>
        <time>2021-04-07T07:38:29Z</time>
      </trkpt>
      <trkpt lat="44.50155" lon="6.59286">
        <ele>2170</ele>
        <time>2021-04-07T07:38:30Z</time>
      </trkpt>
      <trkpt lat="44.50154" lon="6.59287">
        <ele>2171</ele>
        <time>2021-04-07T07:38:31Z</time>
      </trkpt>
      <trkpt lat="44.50154" lon="6.59287">
        <ele>2171</ele>
        <time>2021-04-07T07:38:32Z</time>
      </trkpt>
      <trkpt lat="44.50153" lon="6.59288">
        <ele>2171</ele>
        <time>2021-04-07T07:38:33Z</time>
      </trkpt>
      <trkpt lat="44.50153" lon="6.59288">
        <ele>2171</ele>
        <time>2021-04-07T07:38:34Z</time>
      </trkpt>
      <trkpt lat="44.50153" lon="6.59289">
        <ele>2171</ele>
        <time>2021-04-07T07:38:35Z</time>
      </trkpt>
      <trkpt lat="44.50153" lon="6.59289">
        <ele>2171</ele>
        <time>2021-04-07T07:38:36Z</time>
      </trkpt>
      <trkpt lat="44.50153" lon="6.5929">
        <ele>2171</ele>
        <time>2021-04-07T07:38:37Z</time>
      </trkpt>
      <trkpt lat="44.50153" lon="6.5929">
        <ele>2171</ele>
        <time>2021-04-07T07:38:38Z</time>
      </trkpt>
      <trkpt lat="44.50153" lon="6.59291">
        <ele>2171</ele>
        <time>2021-04-07T07:38:39Z</time>
      </trkpt>
      <trkpt lat="44.50153" lon="6.59292">
        <ele>2171</ele>
        <time>2021-04-07T07:38:40Z</time>
      </trkpt>
      <trkpt lat="44.50153" lon="6.59293">
        <ele>2172</ele>
        <time>2021-04-07T07:38:41Z</time>
      </trkpt>
      <trkpt lat="44.50153" lon="6.59293">
        <ele>2172</ele>
        <time>2021-04-07T07:38:42Z</time>
      </trkpt>
      <trkpt lat="44.50153" lon="6.59294">
        <ele>2172</ele>
        <time>2021-04-07T07:38:43Z</time>
      </trkpt>
      <trkpt lat="44.50152" lon="6.59294">
        <ele>2172</ele>
        <time>2021-04-07T07:38:44Z</time>
      </trkpt>
      <trkpt lat="44.50152" lon="6.59295">
        <ele>2172</ele>
        <time>2021-04-07T07:38:45Z</time>
      </trkpt>
      <trkpt lat="44.50152" lon="6.59296">
        <ele>2172</ele>
        <time>2021-04-07T07:38:46Z</time>
      </trkpt>
      <trkpt lat="44.50151" lon="6.59296">
        <ele>2172</ele>
        <time>2021-04-07T07:38:47Z</time>
      </trkpt>
      <trkpt lat="44.50151" lon="6.59297">
        <ele>2172</ele>
        <time>2021-04-07T07:38:48Z</time>
      </trkpt>
      <trkpt lat="44.50151" lon="6.59297">
        <ele>2173</ele>
        <time>2021-04-07T07:38:49Z</time>
      </trkpt>
      <trkpt lat="44.5015" lon="6.59298">
        <ele>2173</ele>
        <time>2021-04-07T07:38:50Z</time>
      </trkpt>
      <trkpt lat="44.5015" lon="6.59299">
        <ele>2173</ele>
        <time>2021-04-07T07:38:51Z</time>
      </trkpt>
      <trkpt lat="44.5015" lon="6.59299">
        <ele>2173</ele>
        <time>2021-04-07T07:38:52Z</time>
      </trkpt>
      <trkpt lat="44.50149" lon="6.593">
        <ele>2173</ele>
        <time>2021-04-07T07:38:53Z</time>
      </trkpt>
      <trkpt lat="44.50149" lon="6.59301">
        <ele>2173</ele>
        <time>2021-04-07T07:38:54Z</time>
      </trkpt>
      <trkpt lat="44.50149" lon="6.59302">
        <ele>2173</ele>
        <time>2021-04-07T07:38:55Z</time>
      </trkpt>
      <trkpt lat="44.50148" lon="6.59303">
        <ele>2174</ele>
        <time>2021-04-07T07:38:56Z</time>
      </trkpt>
      <trkpt lat="44.50149" lon="6.59304">
        <ele>2174</ele>
        <time>2021-04-07T07:38:57Z</time>
      </trkpt>
      <trkpt lat="44.50149" lon="6.59305">
        <ele>2174</ele>
        <time>2021-04-07T07:38:58Z</time>
      </trkpt>
      <trkpt lat="44.50148" lon="6.59306">
        <ele>2174</ele>
        <time>2021-04-07T07:38:59Z</time>
      </trkpt>
      <trkpt lat="44.50149" lon="6.59306">
        <ele>2174</ele>
        <time>2021-04-07T07:39:00Z</time>
      </trkpt>
      <trkpt lat="44.50149" lon="6.59307">
        <ele>2174</ele>
        <time>2021-04-07T07:39:01Z</time>
      </trkpt>
      <trkpt lat="44.50149" lon="6.59308">
        <ele>2174</ele>
        <time>2021-04-07T07:39:02Z</time>
      </trkpt>
      <trkpt lat="44.50148" lon="6.59309">
        <ele>2174</ele>
        <time>2021-04-07T07:39:03Z</time>
      </trkpt>
      <trkpt lat="44.50148" lon="6.59309">
        <ele>2175</ele>
        <time>2021-04-07T07:39:04Z</time>
      </trkpt>
      <trkpt lat="44.50148" lon="6.59309">
        <ele>2175</ele>
        <time>2021-04-07T07:39:05Z</time>
      </trkpt>
      <trkpt lat="44.50148" lon="6.5931">
        <ele>2175</ele>
        <time>2021-04-07T07:39:06Z</time>
      </trkpt>
      <trkpt lat="44.50148" lon="6.5931">
        <ele>2175</ele>
        <time>2021-04-07T07:39:07Z</time>
      </trkpt>
      <trkpt lat="44.50148" lon="6.59311">
        <ele>2175</ele>
        <time>2021-04-07T07:39:08Z</time>
      </trkpt>
      <trkpt lat="44.50148" lon="6.59311">
        <ele>2175</ele>
        <time>2021-04-07T07:39:09Z</time>
      </trkpt>
      <trkpt lat="44.50147" lon="6.59311">
        <ele>2175</ele>
        <time>2021-04-07T07:39:10Z</time>
      </trkpt>
      <trkpt lat="44.50147" lon="6.5931">
        <ele>2175</ele>
        <time>2021-04-07T07:39:11Z</time>
      </trkpt>
      <trkpt lat="44.50147" lon="6.5931">
        <ele>2175</ele>
        <time>2021-04-07T07:39:12Z</time>
      </trkpt>
      <trkpt lat="44.50147" lon="6.5931">
        <ele>2175</ele>
        <time>2021-04-07T07:39:13Z</time>
      </trkpt>
      <trkpt lat="44.50145" lon="6.59308">
        <ele>2175</ele>
        <time>2021-04-07T07:39:14Z</time>
      </trkpt>
      <trkpt lat="44.50145" lon="6.59308">
        <ele>2176</ele>
        <time>2021-04-07T07:39:15Z</time>
      </trkpt>
      <trkpt lat="44.50144" lon="6.59307">
        <ele>2176</ele>
        <time>2021-04-07T07:39:16Z</time>
      </trkpt>
      <trkpt lat="44.50144" lon="6.59306">
        <ele>2176</ele>
        <time>2021-04-07T07:39:17Z</time>
      </trkpt>
      <trkpt lat="44.50144" lon="6.59305">
        <ele>2176</ele>
        <time>2021-04-07T07:39:18Z</time>
      </trkpt>
      <trkpt lat="44.50143" lon="6.59304">
        <ele>2176</ele>
        <time>2021-04-07T07:39:19Z</time>
      </trkpt>
      <trkpt lat="44.50143" lon="6.59303">
        <ele>2176</ele>
        <time>2021-04-07T07:39:20Z</time>
      </trkpt>
      <trkpt lat="44.50143" lon="6.59303">
        <ele>2176</ele>
        <time>2021-04-07T07:39:21Z</time>
      </trkpt>
      <trkpt lat="44.50143" lon="6.59302">
        <ele>2176</ele>
        <time>2021-04-07T07:39:22Z</time>
      </trkpt>
      <trkpt lat="44.50143" lon="6.59301">
        <ele>2176</ele>
        <time>2021-04-07T07:39:23Z</time>
      </trkpt>
      <trkpt lat="44.50142" lon="6.593">
        <ele>2176</ele>
        <time>2021-04-07T07:39:24Z</time>
      </trkpt>
      <trkpt lat="44.50142" lon="6.59299">
        <ele>2176</ele>
        <time>2021-04-07T07:39:25Z</time>
      </trkpt>
      <trkpt lat="44.50142" lon="6.59298">
        <ele>2176</ele>
        <time>2021-04-07T07:39:26Z</time>
      </trkpt>
      <trkpt lat="44.50142" lon="6.59297">
        <ele>2177</ele>
        <time>2021-04-07T07:39:27Z</time>
      </trkpt>
      <trkpt lat="44.50141" lon="6.59297">
        <ele>2177</ele>
        <time>2021-04-07T07:39:28Z</time>
      </trkpt>
      <trkpt lat="44.50141" lon="6.59296">
        <ele>2177</ele>
        <time>2021-04-07T07:39:29Z</time>
      </trkpt>
      <trkpt lat="44.50141" lon="6.59296">
        <ele>2177</ele>
        <time>2021-04-07T07:39:30Z</time>
      </trkpt>
      <trkpt lat="44.5014" lon="6.59295">
        <ele>2177</ele>
        <time>2021-04-07T07:39:31Z</time>
      </trkpt>
      <trkpt lat="44.5014" lon="6.59295">
        <ele>2177</ele>
        <time>2021-04-07T07:39:32Z</time>
      </trkpt>
      <trkpt lat="44.50139" lon="6.59294">
        <ele>2177</ele>
        <time>2021-04-07T07:39:33Z</time>
      </trkpt>
      <trkpt lat="44.50139" lon="6.59293">
        <ele>2177</ele>
        <time>2021-04-07T07:39:34Z</time>
      </trkpt>
      <trkpt lat="44.50138" lon="6.59293">
        <ele>2177</ele>
        <time>2021-04-07T07:39:35Z</time>
      </trkpt>
      <trkpt lat="44.50137" lon="6.59292">
        <ele>2178</ele>
        <time>2021-04-07T07:39:36Z</time>
      </trkpt>
      <trkpt lat="44.50136" lon="6.59292">
        <ele>2178</ele>
        <time>2021-04-07T07:39:37Z</time>
      </trkpt>
      <trkpt lat="44.50136" lon="6.59291">
        <ele>2178</ele>
        <time>2021-04-07T07:39:38Z</time>
      </trkpt>
      <trkpt lat="44.50136" lon="6.5929">
        <ele>2178</ele>
        <time>2021-04-07T07:39:39Z</time>
      </trkpt>
      <trkpt lat="44.50136" lon="6.5929">
        <ele>2178</ele>
        <time>2021-04-07T07:39:40Z</time>
      </trkpt>
      <trkpt lat="44.50135" lon="6.59289">
        <ele>2179</ele>
        <time>2021-04-07T07:39:41Z</time>
      </trkpt>
      <trkpt lat="44.50135" lon="6.59288">
        <ele>2179</ele>
        <time>2021-04-07T07:39:42Z</time>
      </trkpt>
      <trkpt lat="44.50135" lon="6.59287">
        <ele>2179</ele>
        <time>2021-04-07T07:39:43Z</time>
      </trkpt>
      <trkpt lat="44.50135" lon="6.59287">
        <ele>2179</ele>
        <time>2021-04-07T07:39:44Z</time>
      </trkpt>
      <trkpt lat="44.50134" lon="6.59287">
        <ele>2179</ele>
        <time>2021-04-07T07:39:45Z</time>
      </trkpt>
      <trkpt lat="44.50134" lon="6.59286">
        <ele>2180</ele>
        <time>2021-04-07T07:39:46Z</time>
      </trkpt>
      <trkpt lat="44.50134" lon="6.59286">
        <ele>2180</ele>
        <time>2021-04-07T07:39:47Z</time>
      </trkpt>
      <trkpt lat="44.50134" lon="6.59285">
        <ele>2181</ele>
        <time>2021-04-07T07:39:48Z</time>
      </trkpt>
      <trkpt lat="44.50134" lon="6.59285">
        <ele>2181</ele>
        <time>2021-04-07T07:39:49Z</time>
      </trkpt>
      <trkpt lat="44.50133" lon="6.59284">
        <ele>2181</ele>
        <time>2021-04-07T07:39:50Z</time>
      </trkpt>
      <trkpt lat="44.50133" lon="6.59284">
        <ele>2181</ele>
        <time>2021-04-07T07:39:51Z</time>
      </trkpt>
      <trkpt lat="44.50133" lon="6.59284">
        <ele>2181</ele>
        <time>2021-04-07T07:39:52Z</time>
      </trkpt>
      <trkpt lat="44.50132" lon="6.59284">
        <ele>2181</ele>
        <time>2021-04-07T07:39:53Z</time>
      </trkpt>
      <trkpt lat="44.50132" lon="6.59283">
        <ele>2181</ele>
        <time>2021-04-07T07:39:54Z</time>
      </trkpt>
      <trkpt lat="44.50132" lon="6.59283">
        <ele>2181</ele>
        <time>2021-04-07T07:39:55Z</time>
      </trkpt>
      <trkpt lat="44.50132" lon="6.59283">
        <ele>2181</ele>
        <time>2021-04-07T07:39:56Z</time>
      </trkpt>
      <trkpt lat="44.50132" lon="6.59283">
        <ele>2181</ele>
        <time>2021-04-07T07:39:57Z</time>
      </trkpt>
      <trkpt lat="44.50131" lon="6.59281">
        <ele>2182</ele>
        <time>2021-04-07T07:39:58Z</time>
      </trkpt>
      <trkpt lat="44.5013" lon="6.5928">
        <ele>2182</ele>
        <time>2021-04-07T07:39:59Z</time>
      </trkpt>
      <trkpt lat="44.5013" lon="6.59279">
        <ele>2182</ele>
        <time>2021-04-07T07:40:00Z</time>
      </trkpt>
      <trkpt lat="44.5013" lon="6.59279">
        <ele>2182</ele>
        <time>2021-04-07T07:40:01Z</time>
      </trkpt>
      <trkpt lat="44.50129" lon="6.59278">
        <ele>2182</ele>
        <time>2021-04-07T07:40:02Z</time>
      </trkpt>
      <trkpt lat="44.50129" lon="6.59278">
        <ele>2183</ele>
        <time>2021-04-07T07:40:03Z</time>
      </trkpt>
      <trkpt lat="44.50129" lon="6.59277">
        <ele>2183</ele>
        <time>2021-04-07T07:40:04Z</time>
      </trkpt>
      <trkpt lat="44.50129" lon="6.59277">
        <ele>2183</ele>
        <time>2021-04-07T07:40:05Z</time>
      </trkpt>
      <trkpt lat="44.50129" lon="6.59276">
        <ele>2183</ele>
        <time>2021-04-07T07:40:06Z</time>
      </trkpt>
      <trkpt lat="44.50129" lon="6.59275">
        <ele>2183</ele>
        <time>2021-04-07T07:40:07Z</time>
      </trkpt>
      <trkpt lat="44.50129" lon="6.59275">
        <ele>2183</ele>
        <time>2021-04-07T07:40:08Z</time>
      </trkpt>
      <trkpt lat="44.50128" lon="6.59274">
        <ele>2183</ele>
        <time>2021-04-07T07:40:09Z</time>
      </trkpt>
      <trkpt lat="44.50129" lon="6.59274">
        <ele>2184</ele>
        <time>2021-04-07T07:40:10Z</time>
      </trkpt>
      <trkpt lat="44.50129" lon="6.59273">
        <ele>2184</ele>
        <time>2021-04-07T07:40:11Z</time>
      </trkpt>
      <trkpt lat="44.50128" lon="6.59273">
        <ele>2184</ele>
        <time>2021-04-07T07:40:12Z</time>
      </trkpt>
      <trkpt lat="44.50128" lon="6.59273">
        <ele>2184</ele>
        <time>2021-04-07T07:40:13Z</time>
      </trkpt>
      <trkpt lat="44.50128" lon="6.59273">
        <ele>2184</ele>
        <time>2021-04-07T07:40:14Z</time>
      </trkpt>
      <trkpt lat="44.50128" lon="6.59273">
        <ele>2184</ele>
        <time>2021-04-07T07:40:15Z</time>
      </trkpt>
      <trkpt lat="44.50128" lon="6.59273">
        <ele>2184</ele>
        <time>2021-04-07T07:40:16Z</time>
      </trkpt>
      <trkpt lat="44.50128" lon="6.59273">
        <ele>2184</ele>
        <time>2021-04-07T07:40:17Z</time>
      </trkpt>
      <trkpt lat="44.50128" lon="6.59273">
        <ele>2184</ele>
        <time>2021-04-07T07:40:18Z</time>
      </trkpt>
      <trkpt lat="44.50128" lon="6.59273">
        <ele>2184</ele>
        <time>2021-04-07T07:40:19Z</time>
      </trkpt>
      <trkpt lat="44.50128" lon="6.59273">
        <ele>2184</ele>
        <time>2021-04-07T07:40:20Z</time>
      </trkpt>
      <trkpt lat="44.50128" lon="6.59273">
        <ele>2184</ele>
        <time>2021-04-07T07:40:21Z</time>
      </trkpt>
      <trkpt lat="44.50128" lon="6.59273">
        <ele>2184</ele>
        <time>2021-04-07T07:40:22Z</time>
      </trkpt>
      <trkpt lat="44.50128" lon="6.59273">
        <ele>2184</ele>
        <time>2021-04-07T07:40:23Z</time>
      </trkpt>
      <trkpt lat="44.50128" lon="6.59273">
        <ele>2184</ele>
        <time>2021-04-07T07:40:24Z</time>
      </trkpt>
      <trkpt lat="44.50128" lon="6.59273">
        <ele>2184</ele>
        <time>2021-04-07T07:40:25Z</time>
      </trkpt>
      <trkpt lat="44.50128" lon="6.59273">
        <ele>2184</ele>
        <time>2021-04-07T07:40:26Z</time>
      </trkpt>
      <trkpt lat="44.50128" lon="6.59273">
        <ele>2184</ele>
        <time>2021-04-07T07:40:27Z</time>
      </trkpt>
      <trkpt lat="44.50128" lon="6.59273">
        <ele>2184</ele>
        <time>2021-04-07T07:40:28Z</time>
      </trkpt>
      <trkpt lat="44.50128" lon="6.59273">
        <ele>2184</ele>
        <time>2021-04-07T07:40:29Z</time>
      </trkpt>
      <trkpt lat="44.50128" lon="6.59273">
        <ele>2184</ele>
        <time>2021-04-07T07:40:30Z</time>
      </trkpt>
      <trkpt lat="44.50128" lon="6.59273">
        <ele>2184</ele>
        <time>2021-04-07T07:40:31Z</time>
      </trkpt>
      <trkpt lat="44.50128" lon="6.59273">
        <ele>2184</ele>
        <time>2021-04-07T07:40:32Z</time>
      </trkpt>
      <trkpt lat="44.50128" lon="6.59273">
        <ele>2184</ele>
        <time>2021-04-07T07:40:33Z</time>
      </trkpt>
      <trkpt lat="44.50128" lon="6.59273">
        <ele>2184</ele>
        <time>2021-04-07T07:40:34Z</time>
      </trkpt>
      <trkpt lat="44.50128" lon="6.59273">
        <ele>2184</ele>
        <time>2021-04-07T07:40:35Z</time>
      </trkpt>
      <trkpt lat="44.50128" lon="6.59273">
        <ele>2184</ele>
        <time>2021-04-07T07:40:36Z</time>
      </trkpt>
      <trkpt lat="44.50128" lon="6.59273">
        <ele>2184</ele>
        <time>2021-04-07T07:40:37Z</time>
      </trkpt>
      <trkpt lat="44.50128" lon="6.59273">
        <ele>2184</ele>
        <time>2021-04-07T07:40:38Z</time>
      </trkpt>
      <trkpt lat="44.50128" lon="6.59273">
        <ele>2184</ele>
        <time>2021-04-07T07:40:39Z</time>
      </trkpt>
      <trkpt lat="44.50128" lon="6.59273">
        <ele>2184</ele>
        <time>2021-04-07T07:40:40Z</time>
      </trkpt>
      <trkpt lat="44.50128" lon="6.59273">
        <ele>2184</ele>
        <time>2021-04-07T07:40:41Z</time>
      </trkpt>
      <trkpt lat="44.50128" lon="6.59273">
        <ele>2184</ele>
        <time>2021-04-07T07:40:42Z</time>
      </trkpt>
      <trkpt lat="44.50127" lon="6.59273">
        <ele>2184</ele>
        <time>2021-04-07T07:40:43Z</time>
      </trkpt>
      <trkpt lat="44.50127" lon="6.59273">
        <ele>2184</ele>
        <time>2021-04-07T07:40:44Z</time>
      </trkpt>
      <trkpt lat="44.50127" lon="6.59274">
        <ele>2184</ele>
        <time>2021-04-07T07:40:45Z</time>
      </trkpt>
      <trkpt lat="44.50127" lon="6.59274">
        <ele>2184</ele>
        <time>2021-04-07T07:40:46Z</time>
      </trkpt>
      <trkpt lat="44.50128" lon="6.59274">
        <ele>2184</ele>
        <time>2021-04-07T07:40:47Z</time>
      </trkpt>
      <trkpt lat="44.50128" lon="6.59274">
        <ele>2184</ele>
        <time>2021-04-07T07:40:48Z</time>
      </trkpt>
      <trkpt lat="44.50127" lon="6.59275">
        <ele>2184</ele>
        <time>2021-04-07T07:40:49Z</time>
      </trkpt>
      <trkpt lat="44.50127" lon="6.59275">
        <ele>2185</ele>
        <time>2021-04-07T07:40:50Z</time>
      </trkpt>
      <trkpt lat="44.50127" lon="6.59276">
        <ele>2185</ele>
        <time>2021-04-07T07:40:51Z</time>
      </trkpt>
      <trkpt lat="44.50126" lon="6.59276">
        <ele>2185</ele>
        <time>2021-04-07T07:40:52Z</time>
      </trkpt>
      <trkpt lat="44.50126" lon="6.59277">
        <ele>2185</ele>
        <time>2021-04-07T07:40:53Z</time>
      </trkpt>
      <trkpt lat="44.50125" lon="6.59278">
        <ele>2185</ele>
        <time>2021-04-07T07:40:54Z</time>
      </trkpt>
      <trkpt lat="44.50125" lon="6.59278">
        <ele>2185</ele>
        <time>2021-04-07T07:40:55Z</time>
      </trkpt>
      <trkpt lat="44.50125" lon="6.59279">
        <ele>2185</ele>
        <time>2021-04-07T07:40:56Z</time>
      </trkpt>
      <trkpt lat="44.50124" lon="6.59279">
        <ele>2184</ele>
        <time>2021-04-07T07:40:57Z</time>
      </trkpt>
      <trkpt lat="44.50123" lon="6.5928">
        <ele>2184</ele>
        <time>2021-04-07T07:40:58Z</time>
      </trkpt>
      <trkpt lat="44.50123" lon="6.5928">
        <ele>2184</ele>
        <time>2021-04-07T07:40:59Z</time>
      </trkpt>
      <trkpt lat="44.50122" lon="6.59281">
        <ele>2184</ele>
        <time>2021-04-07T07:41:00Z</time>
      </trkpt>
      <trkpt lat="44.50122" lon="6.59282">
        <ele>2184</ele>
        <time>2021-04-07T07:41:01Z</time>
      </trkpt>
      <trkpt lat="44.50122" lon="6.59282">
        <ele>2184</ele>
        <time>2021-04-07T07:41:02Z</time>
      </trkpt>
      <trkpt lat="44.50122" lon="6.59282">
        <ele>2184</ele>
        <time>2021-04-07T07:41:03Z</time>
      </trkpt>
      <trkpt lat="44.50121" lon="6.59283">
        <ele>2184</ele>
        <time>2021-04-07T07:41:04Z</time>
      </trkpt>
      <trkpt lat="44.50121" lon="6.59284">
        <ele>2184</ele>
        <time>2021-04-07T07:41:05Z</time>
      </trkpt>
      <trkpt lat="44.50121" lon="6.59284">
        <ele>2184</ele>
        <time>2021-04-07T07:41:06Z</time>
      </trkpt>
      <trkpt lat="44.50121" lon="6.59285">
        <ele>2184</ele>
        <time>2021-04-07T07:41:07Z</time>
      </trkpt>
      <trkpt lat="44.50121" lon="6.59286">
        <ele>2183</ele>
        <time>2021-04-07T07:41:08Z</time>
      </trkpt>
      <trkpt lat="44.50121" lon="6.59287">
        <ele>2183</ele>
        <time>2021-04-07T07:41:09Z</time>
      </trkpt>
      <trkpt lat="44.50121" lon="6.59287">
        <ele>2183</ele>
        <time>2021-04-07T07:41:10Z</time>
      </trkpt>
      <trkpt lat="44.50121" lon="6.59288">
        <ele>2183</ele>
        <time>2021-04-07T07:41:11Z</time>
      </trkpt>
      <trkpt lat="44.50121" lon="6.5929">
        <ele>2183</ele>
        <time>2021-04-07T07:41:12Z</time>
      </trkpt>
      <trkpt lat="44.50121" lon="6.59292">
        <ele>2184</ele>
        <time>2021-04-07T07:41:13Z</time>
      </trkpt>
      <trkpt lat="44.50121" lon="6.59293">
        <ele>2184</ele>
        <time>2021-04-07T07:41:14Z</time>
      </trkpt>
      <trkpt lat="44.50121" lon="6.59294">
        <ele>2184</ele>
        <time>2021-04-07T07:41:15Z</time>
      </trkpt>
      <trkpt lat="44.5012" lon="6.59295">
        <ele>2184</ele>
        <time>2021-04-07T07:41:16Z</time>
      </trkpt>
      <trkpt lat="44.5012" lon="6.59296">
        <ele>2184</ele>
        <time>2021-04-07T07:41:17Z</time>
      </trkpt>
      <trkpt lat="44.5012" lon="6.59297">
        <ele>2184</ele>
        <time>2021-04-07T07:41:18Z</time>
      </trkpt>
      <trkpt lat="44.5012" lon="6.59297">
        <ele>2184</ele>
        <time>2021-04-07T07:41:19Z</time>
      </trkpt>
      <trkpt lat="44.5012" lon="6.59298">
        <ele>2184</ele>
        <time>2021-04-07T07:41:20Z</time>
      </trkpt>
      <trkpt lat="44.50119" lon="6.59299">
        <ele>2184</ele>
        <time>2021-04-07T07:41:21Z</time>
      </trkpt>
      <trkpt lat="44.50119" lon="6.59299">
        <ele>2185</ele>
        <time>2021-04-07T07:41:22Z</time>
      </trkpt>
      <trkpt lat="44.50119" lon="6.593">
        <ele>2185</ele>
        <time>2021-04-07T07:41:23Z</time>
      </trkpt>
      <trkpt lat="44.50119" lon="6.59301">
        <ele>2185</ele>
        <time>2021-04-07T07:41:24Z</time>
      </trkpt>
      <trkpt lat="44.50119" lon="6.59302">
        <ele>2185</ele>
        <time>2021-04-07T07:41:25Z</time>
      </trkpt>
      <trkpt lat="44.50118" lon="6.59303">
        <ele>2186</ele>
        <time>2021-04-07T07:41:26Z</time>
      </trkpt>
      <trkpt lat="44.50119" lon="6.59304">
        <ele>2186</ele>
        <time>2021-04-07T07:41:27Z</time>
      </trkpt>
      <trkpt lat="44.50118" lon="6.59306">
        <ele>2186</ele>
        <time>2021-04-07T07:41:28Z</time>
      </trkpt>
      <trkpt lat="44.50118" lon="6.59308">
        <ele>2186</ele>
        <time>2021-04-07T07:41:29Z</time>
      </trkpt>
      <trkpt lat="44.50118" lon="6.59309">
        <ele>2187</ele>
        <time>2021-04-07T07:41:30Z</time>
      </trkpt>
      <trkpt lat="44.50118" lon="6.59311">
        <ele>2187</ele>
        <time>2021-04-07T07:41:31Z</time>
      </trkpt>
      <trkpt lat="44.50118" lon="6.59311">
        <ele>2188</ele>
        <time>2021-04-07T07:41:32Z</time>
      </trkpt>
      <trkpt lat="44.50118" lon="6.59312">
        <ele>2188</ele>
        <time>2021-04-07T07:41:33Z</time>
      </trkpt>
      <trkpt lat="44.50118" lon="6.59312">
        <ele>2188</ele>
        <time>2021-04-07T07:41:34Z</time>
      </trkpt>
      <trkpt lat="44.50118" lon="6.59313">
        <ele>2189</ele>
        <time>2021-04-07T07:41:35Z</time>
      </trkpt>
      <trkpt lat="44.50118" lon="6.59314">
        <ele>2189</ele>
        <time>2021-04-07T07:41:36Z</time>
      </trkpt>
      <trkpt lat="44.50118" lon="6.59314">
        <ele>2189</ele>
        <time>2021-04-07T07:41:37Z</time>
      </trkpt>
      <trkpt lat="44.50118" lon="6.59315">
        <ele>2189</ele>
        <time>2021-04-07T07:41:38Z</time>
      </trkpt>
      <trkpt lat="44.50118" lon="6.59317">
        <ele>2189</ele>
        <time>2021-04-07T07:41:39Z</time>
      </trkpt>
      <trkpt lat="44.50118" lon="6.59318">
        <ele>2189</ele>
        <time>2021-04-07T07:41:40Z</time>
      </trkpt>
      <trkpt lat="44.50118" lon="6.59319">
        <ele>2189</ele>
        <time>2021-04-07T07:41:41Z</time>
      </trkpt>
      <trkpt lat="44.50119" lon="6.5932">
        <ele>2189</ele>
        <time>2021-04-07T07:41:42Z</time>
      </trkpt>
      <trkpt lat="44.50119" lon="6.5932">
        <ele>2189</ele>
        <time>2021-04-07T07:41:43Z</time>
      </trkpt>
      <trkpt lat="44.50119" lon="6.59321">
        <ele>2189</ele>
        <time>2021-04-07T07:41:44Z</time>
      </trkpt>
      <trkpt lat="44.50118" lon="6.59322">
        <ele>2189</ele>
        <time>2021-04-07T07:41:45Z</time>
      </trkpt>
      <trkpt lat="44.50118" lon="6.59323">
        <ele>2189</ele>
        <time>2021-04-07T07:41:46Z</time>
      </trkpt>
      <trkpt lat="44.50118" lon="6.59324">
        <ele>2189</ele>
        <time>2021-04-07T07:41:47Z</time>
      </trkpt>
      <trkpt lat="44.50118" lon="6.59325">
        <ele>2189</ele>
        <time>2021-04-07T07:41:48Z</time>
      </trkpt>
      <trkpt lat="44.50117" lon="6.59325">
        <ele>2189</ele>
        <time>2021-04-07T07:41:49Z</time>
      </trkpt>
      <trkpt lat="44.50117" lon="6.59326">
        <ele>2189</ele>
        <time>2021-04-07T07:41:50Z</time>
      </trkpt>
      <trkpt lat="44.50117" lon="6.59326">
        <ele>2189</ele>
        <time>2021-04-07T07:41:51Z</time>
      </trkpt>
      <trkpt lat="44.50117" lon="6.59326">
        <ele>2189</ele>
        <time>2021-04-07T07:41:52Z</time>
      </trkpt>
      <trkpt lat="44.50117" lon="6.59327">
        <ele>2189</ele>
        <time>2021-04-07T07:41:53Z</time>
      </trkpt>
      <trkpt lat="44.50117" lon="6.59327">
        <ele>2190</ele>
        <time>2021-04-07T07:41:54Z</time>
      </trkpt>
      <trkpt lat="44.50117" lon="6.59328">
        <ele>2190</ele>
        <time>2021-04-07T07:41:55Z</time>
      </trkpt>
      <trkpt lat="44.50116" lon="6.5933">
        <ele>2190</ele>
        <time>2021-04-07T07:41:56Z</time>
      </trkpt>
      <trkpt lat="44.50116" lon="6.5933">
        <ele>2190</ele>
        <time>2021-04-07T07:41:57Z</time>
      </trkpt>
      <trkpt lat="44.50115" lon="6.59331">
        <ele>2190</ele>
        <time>2021-04-07T07:41:58Z</time>
      </trkpt>
      <trkpt lat="44.50115" lon="6.59333">
        <ele>2190</ele>
        <time>2021-04-07T07:41:59Z</time>
      </trkpt>
      <trkpt lat="44.50115" lon="6.59333">
        <ele>2191</ele>
        <time>2021-04-07T07:42:00Z</time>
      </trkpt>
      <trkpt lat="44.50115" lon="6.59333">
        <ele>2191</ele>
        <time>2021-04-07T07:42:01Z</time>
      </trkpt>
      <trkpt lat="44.50114" lon="6.59334">
        <ele>2191</ele>
        <time>2021-04-07T07:42:02Z</time>
      </trkpt>
      <trkpt lat="44.50115" lon="6.59334">
        <ele>2191</ele>
        <time>2021-04-07T07:42:03Z</time>
      </trkpt>
      <trkpt lat="44.50115" lon="6.59333">
        <ele>2191</ele>
        <time>2021-04-07T07:42:04Z</time>
      </trkpt>
      <trkpt lat="44.50114" lon="6.59333">
        <ele>2191</ele>
        <time>2021-04-07T07:42:05Z</time>
      </trkpt>
      <trkpt lat="44.50115" lon="6.59333">
        <ele>2191</ele>
        <time>2021-04-07T07:42:06Z</time>
      </trkpt>
      <trkpt lat="44.50115" lon="6.59333">
        <ele>2191</ele>
        <time>2021-04-07T07:42:07Z</time>
      </trkpt>
      <trkpt lat="44.50114" lon="6.59333">
        <ele>2191</ele>
        <time>2021-04-07T07:42:08Z</time>
      </trkpt>
      <trkpt lat="44.50114" lon="6.59332">
        <ele>2191</ele>
        <time>2021-04-07T07:42:09Z</time>
      </trkpt>
      <trkpt lat="44.50113" lon="6.59332">
        <ele>2191</ele>
        <time>2021-04-07T07:42:10Z</time>
      </trkpt>
      <trkpt lat="44.50113" lon="6.59331">
        <ele>2191</ele>
        <time>2021-04-07T07:42:11Z</time>
      </trkpt>
      <trkpt lat="44.50112" lon="6.5933">
        <ele>2192</ele>
        <time>2021-04-07T07:42:12Z</time>
      </trkpt>
      <trkpt lat="44.50112" lon="6.59329">
        <ele>2192</ele>
        <time>2021-04-07T07:42:13Z</time>
      </trkpt>
      <trkpt lat="44.50111" lon="6.59328">
        <ele>2192</ele>
        <time>2021-04-07T07:42:14Z</time>
      </trkpt>
      <trkpt lat="44.50111" lon="6.59327">
        <ele>2192</ele>
        <time>2021-04-07T07:42:15Z</time>
      </trkpt>
      <trkpt lat="44.50111" lon="6.59327">
        <ele>2192</ele>
        <time>2021-04-07T07:42:16Z</time>
      </trkpt>
      <trkpt lat="44.5011" lon="6.59326">
        <ele>2192</ele>
        <time>2021-04-07T07:42:17Z</time>
      </trkpt>
      <trkpt lat="44.50109" lon="6.59326">
        <ele>2192</ele>
        <time>2021-04-07T07:42:18Z</time>
      </trkpt>
      <trkpt lat="44.50109" lon="6.59325">
        <ele>2192</ele>
        <time>2021-04-07T07:42:19Z</time>
      </trkpt>
      <trkpt lat="44.50109" lon="6.59324">
        <ele>2192</ele>
        <time>2021-04-07T07:42:20Z</time>
      </trkpt>
      <trkpt lat="44.50109" lon="6.59322">
        <ele>2193</ele>
        <time>2021-04-07T07:42:21Z</time>
      </trkpt>
      <trkpt lat="44.50109" lon="6.5932">
        <ele>2194</ele>
        <time>2021-04-07T07:42:22Z</time>
      </trkpt>
      <trkpt lat="44.50109" lon="6.5932">
        <ele>2194</ele>
        <time>2021-04-07T07:42:23Z</time>
      </trkpt>
      <trkpt lat="44.50108" lon="6.59319">
        <ele>2195</ele>
        <time>2021-04-07T07:42:24Z</time>
      </trkpt>
      <trkpt lat="44.50108" lon="6.59318">
        <ele>2195</ele>
        <time>2021-04-07T07:42:25Z</time>
      </trkpt>
      <trkpt lat="44.50108" lon="6.59319">
        <ele>2195</ele>
        <time>2021-04-07T07:42:26Z</time>
      </trkpt>
      <trkpt lat="44.50108" lon="6.59319">
        <ele>2196</ele>
        <time>2021-04-07T07:42:27Z</time>
      </trkpt>
      <trkpt lat="44.50107" lon="6.59319">
        <ele>2196</ele>
        <time>2021-04-07T07:42:28Z</time>
      </trkpt>
      <trkpt lat="44.50107" lon="6.59318">
        <ele>2196</ele>
        <time>2021-04-07T07:42:29Z</time>
      </trkpt>
      <trkpt lat="44.50106" lon="6.59318">
        <ele>2196</ele>
        <time>2021-04-07T07:42:30Z</time>
      </trkpt>
      <trkpt lat="44.50106" lon="6.59318">
        <ele>2196</ele>
        <time>2021-04-07T07:42:31Z</time>
      </trkpt>
      <trkpt lat="44.50105" lon="6.59318">
        <ele>2196</ele>
        <time>2021-04-07T07:42:32Z</time>
      </trkpt>
      <trkpt lat="44.50105" lon="6.59317">
        <ele>2197</ele>
        <time>2021-04-07T07:42:33Z</time>
      </trkpt>
      <trkpt lat="44.50105" lon="6.59317">
        <ele>2197</ele>
        <time>2021-04-07T07:42:34Z</time>
      </trkpt>
      <trkpt lat="44.50104" lon="6.59317">
        <ele>2197</ele>
        <time>2021-04-07T07:42:35Z</time>
      </trkpt>
      <trkpt lat="44.50103" lon="6.59317">
        <ele>2197</ele>
        <time>2021-04-07T07:42:36Z</time>
      </trkpt>
      <trkpt lat="44.50103" lon="6.59316">
        <ele>2197</ele>
        <time>2021-04-07T07:42:37Z</time>
      </trkpt>
      <trkpt lat="44.50102" lon="6.59315">
        <ele>2197</ele>
        <time>2021-04-07T07:42:38Z</time>
      </trkpt>
      <trkpt lat="44.50102" lon="6.59315">
        <ele>2197</ele>
        <time>2021-04-07T07:42:39Z</time>
      </trkpt>
      <trkpt lat="44.50101" lon="6.59314">
        <ele>2197</ele>
        <time>2021-04-07T07:42:40Z</time>
      </trkpt>
      <trkpt lat="44.50101" lon="6.59314">
        <ele>2197</ele>
        <time>2021-04-07T07:42:41Z</time>
      </trkpt>
      <trkpt lat="44.50101" lon="6.59313">
        <ele>2197</ele>
        <time>2021-04-07T07:42:42Z</time>
      </trkpt>
      <trkpt lat="44.501" lon="6.59312">
        <ele>2197</ele>
        <time>2021-04-07T07:42:43Z</time>
      </trkpt>
      <trkpt lat="44.501" lon="6.59311">
        <ele>2197</ele>
        <time>2021-04-07T07:42:44Z</time>
      </trkpt>
      <trkpt lat="44.50099" lon="6.5931">
        <ele>2197</ele>
        <time>2021-04-07T07:42:45Z</time>
      </trkpt>
      <trkpt lat="44.50099" lon="6.5931">
        <ele>2197</ele>
        <time>2021-04-07T07:42:46Z</time>
      </trkpt>
      <trkpt lat="44.50098" lon="6.59308">
        <ele>2198</ele>
        <time>2021-04-07T07:42:47Z</time>
      </trkpt>
      <trkpt lat="44.50098" lon="6.59307">
        <ele>2198</ele>
        <time>2021-04-07T07:42:48Z</time>
      </trkpt>
      <trkpt lat="44.50098" lon="6.59305">
        <ele>2198</ele>
        <time>2021-04-07T07:42:49Z</time>
      </trkpt>
      <trkpt lat="44.50097" lon="6.59304">
        <ele>2199</ele>
        <time>2021-04-07T07:42:50Z</time>
      </trkpt>
      <trkpt lat="44.50096" lon="6.59302">
        <ele>2199</ele>
        <time>2021-04-07T07:42:51Z</time>
      </trkpt>
      <trkpt lat="44.50096" lon="6.59302">
        <ele>2200</ele>
        <time>2021-04-07T07:42:52Z</time>
      </trkpt>
      <trkpt lat="44.50096" lon="6.59302">
        <ele>2200</ele>
        <time>2021-04-07T07:42:53Z</time>
      </trkpt>
      <trkpt lat="44.50096" lon="6.59302">
        <ele>2200</ele>
        <time>2021-04-07T07:42:54Z</time>
      </trkpt>
      <trkpt lat="44.50095" lon="6.59301">
        <ele>2200</ele>
        <time>2021-04-07T07:42:55Z</time>
      </trkpt>
      <trkpt lat="44.50095" lon="6.593">
        <ele>2201</ele>
        <time>2021-04-07T07:42:56Z</time>
      </trkpt>
      <trkpt lat="44.50095" lon="6.593">
        <ele>2201</ele>
        <time>2021-04-07T07:42:57Z</time>
      </trkpt>
      <trkpt lat="44.50094" lon="6.59299">
        <ele>2201</ele>
        <time>2021-04-07T07:42:58Z</time>
      </trkpt>
      <trkpt lat="44.50094" lon="6.59298">
        <ele>2201</ele>
        <time>2021-04-07T07:42:59Z</time>
      </trkpt>
      <trkpt lat="44.50093" lon="6.59297">
        <ele>2201</ele>
        <time>2021-04-07T07:43:00Z</time>
      </trkpt>
      <trkpt lat="44.50093" lon="6.59295">
        <ele>2202</ele>
        <time>2021-04-07T07:43:01Z</time>
      </trkpt>
      <trkpt lat="44.50093" lon="6.59294">
        <ele>2202</ele>
        <time>2021-04-07T07:43:02Z</time>
      </trkpt>
      <trkpt lat="44.50092" lon="6.59293">
        <ele>2202</ele>
        <time>2021-04-07T07:43:03Z</time>
      </trkpt>
      <trkpt lat="44.50092" lon="6.59292">
        <ele>2202</ele>
        <time>2021-04-07T07:43:04Z</time>
      </trkpt>
      <trkpt lat="44.50092" lon="6.59292">
        <ele>2203</ele>
        <time>2021-04-07T07:43:05Z</time>
      </trkpt>
      <trkpt lat="44.50092" lon="6.59291">
        <ele>2203</ele>
        <time>2021-04-07T07:43:06Z</time>
      </trkpt>
      <trkpt lat="44.50091" lon="6.5929">
        <ele>2203</ele>
        <time>2021-04-07T07:43:07Z</time>
      </trkpt>
      <trkpt lat="44.50091" lon="6.5929">
        <ele>2203</ele>
        <time>2021-04-07T07:43:08Z</time>
      </trkpt>
      <trkpt lat="44.5009" lon="6.59289">
        <ele>2203</ele>
        <time>2021-04-07T07:43:09Z</time>
      </trkpt>
      <trkpt lat="44.5009" lon="6.59288">
        <ele>2202</ele>
        <time>2021-04-07T07:43:10Z</time>
      </trkpt>
      <trkpt lat="44.5009" lon="6.59287">
        <ele>2203</ele>
        <time>2021-04-07T07:43:11Z</time>
      </trkpt>
      <trkpt lat="44.5009" lon="6.59285">
        <ele>2203</ele>
        <time>2021-04-07T07:43:12Z</time>
      </trkpt>
      <trkpt lat="44.5009" lon="6.59285">
        <ele>2204</ele>
        <time>2021-04-07T07:43:13Z</time>
      </trkpt>
      <trkpt lat="44.50089" lon="6.59285">
        <ele>2204</ele>
        <time>2021-04-07T07:43:14Z</time>
      </trkpt>
      <trkpt lat="44.50089" lon="6.59284">
        <ele>2205</ele>
        <time>2021-04-07T07:43:15Z</time>
      </trkpt>
      <trkpt lat="44.50089" lon="6.59283">
        <ele>2206</ele>
        <time>2021-04-07T07:43:16Z</time>
      </trkpt>
      <trkpt lat="44.50089" lon="6.59282">
        <ele>2206</ele>
        <time>2021-04-07T07:43:17Z</time>
      </trkpt>
      <trkpt lat="44.50089" lon="6.59281">
        <ele>2206</ele>
        <time>2021-04-07T07:43:18Z</time>
      </trkpt>
      <trkpt lat="44.50088" lon="6.59279">
        <ele>2206</ele>
        <time>2021-04-07T07:43:19Z</time>
      </trkpt>
      <trkpt lat="44.50088" lon="6.59278">
        <ele>2206</ele>
        <time>2021-04-07T07:43:20Z</time>
      </trkpt>
      <trkpt lat="44.50088" lon="6.59277">
        <ele>2207</ele>
        <time>2021-04-07T07:43:21Z</time>
      </trkpt>
      <trkpt lat="44.50087" lon="6.59276">
        <ele>2207</ele>
        <time>2021-04-07T07:43:22Z</time>
      </trkpt>
      <trkpt lat="44.50087" lon="6.59275">
        <ele>2207</ele>
        <time>2021-04-07T07:43:23Z</time>
      </trkpt>
      <trkpt lat="44.50087" lon="6.59274">
        <ele>2207</ele>
        <time>2021-04-07T07:43:24Z</time>
      </trkpt>
      <trkpt lat="44.50087" lon="6.59273">
        <ele>2207</ele>
        <time>2021-04-07T07:43:25Z</time>
      </trkpt>
      <trkpt lat="44.50087" lon="6.59273">
        <ele>2207</ele>
        <time>2021-04-07T07:43:26Z</time>
      </trkpt>
      <trkpt lat="44.50087" lon="6.59273">
        <ele>2207</ele>
        <time>2021-04-07T07:43:27Z</time>
      </trkpt>
      <trkpt lat="44.50087" lon="6.59273">
        <ele>2207</ele>
        <time>2021-04-07T07:43:28Z</time>
      </trkpt>
      <trkpt lat="44.50088" lon="6.59273">
        <ele>2207</ele>
        <time>2021-04-07T07:43:29Z</time>
      </trkpt>
      <trkpt lat="44.50088" lon="6.59273">
        <ele>2208</ele>
        <time>2021-04-07T07:43:30Z</time>
      </trkpt>
      <trkpt lat="44.50088" lon="6.59272">
        <ele>2208</ele>
        <time>2021-04-07T07:43:31Z</time>
      </trkpt>
      <trkpt lat="44.50088" lon="6.59273">
        <ele>2208</ele>
        <time>2021-04-07T07:43:32Z</time>
      </trkpt>
      <trkpt lat="44.50088" lon="6.59273">
        <ele>2208</ele>
        <time>2021-04-07T07:43:33Z</time>
      </trkpt>
      <trkpt lat="44.50087" lon="6.59274">
        <ele>2208</ele>
        <time>2021-04-07T07:43:34Z</time>
      </trkpt>
      <trkpt lat="44.50087" lon="6.59274">
        <ele>2208</ele>
        <time>2021-04-07T07:43:35Z</time>
      </trkpt>
      <trkpt lat="44.50087" lon="6.59274">
        <ele>2208</ele>
        <time>2021-04-07T07:43:36Z</time>
      </trkpt>
      <trkpt lat="44.50087" lon="6.59274">
        <ele>2208</ele>
        <time>2021-04-07T07:43:37Z</time>
      </trkpt>
      <trkpt lat="44.50087" lon="6.59274">
        <ele>2208</ele>
        <time>2021-04-07T07:43:38Z</time>
      </trkpt>
      <trkpt lat="44.50087" lon="6.59274">
        <ele>2208</ele>
        <time>2021-04-07T07:43:39Z</time>
      </trkpt>
      <trkpt lat="44.50087" lon="6.59274">
        <ele>2208</ele>
        <time>2021-04-07T07:43:40Z</time>
      </trkpt>
      <trkpt lat="44.50087" lon="6.59274">
        <ele>2208</ele>
        <time>2021-04-07T07:43:41Z</time>
      </trkpt>
      <trkpt lat="44.50087" lon="6.59276">
        <ele>2208</ele>
        <time>2021-04-07T07:43:42Z</time>
      </trkpt>
      <trkpt lat="44.50086" lon="6.59276">
        <ele>2208</ele>
        <time>2021-04-07T07:43:43Z</time>
      </trkpt>
      <trkpt lat="44.50086" lon="6.59277">
        <ele>2208</ele>
        <time>2021-04-07T07:43:44Z</time>
      </trkpt>
      <trkpt lat="44.50086" lon="6.59277">
        <ele>2208</ele>
        <time>2021-04-07T07:43:45Z</time>
      </trkpt>
      <trkpt lat="44.50085" lon="6.59278">
        <ele>2209</ele>
        <time>2021-04-07T07:43:46Z</time>
      </trkpt>
      <trkpt lat="44.50085" lon="6.59279">
        <ele>2209</ele>
        <time>2021-04-07T07:43:47Z</time>
      </trkpt>
      <trkpt lat="44.50084" lon="6.5928">
        <ele>2209</ele>
        <time>2021-04-07T07:43:48Z</time>
      </trkpt>
      <trkpt lat="44.50084" lon="6.59281">
        <ele>2209</ele>
        <time>2021-04-07T07:43:49Z</time>
      </trkpt>
      <trkpt lat="44.50083" lon="6.59282">
        <ele>2209</ele>
        <time>2021-04-07T07:43:50Z</time>
      </trkpt>
      <trkpt lat="44.50083" lon="6.59283">
        <ele>2209</ele>
        <time>2021-04-07T07:43:51Z</time>
      </trkpt>
      <trkpt lat="44.50083" lon="6.59284">
        <ele>2209</ele>
        <time>2021-04-07T07:43:52Z</time>
      </trkpt>
      <trkpt lat="44.50082" lon="6.59285">
        <ele>2209</ele>
        <time>2021-04-07T07:43:53Z</time>
      </trkpt>
      <trkpt lat="44.50082" lon="6.59285">
        <ele>2210</ele>
        <time>2021-04-07T07:43:54Z</time>
      </trkpt>
      <trkpt lat="44.50081" lon="6.59286">
        <ele>2210</ele>
        <time>2021-04-07T07:43:55Z</time>
      </trkpt>
      <trkpt lat="44.50081" lon="6.59287">
        <ele>2210</ele>
        <time>2021-04-07T07:43:56Z</time>
      </trkpt>
      <trkpt lat="44.50081" lon="6.59287">
        <ele>2210</ele>
        <time>2021-04-07T07:43:57Z</time>
      </trkpt>
      <trkpt lat="44.50081" lon="6.59288">
        <ele>2210</ele>
        <time>2021-04-07T07:43:58Z</time>
      </trkpt>
      <trkpt lat="44.50082" lon="6.59289">
        <ele>2210</ele>
        <time>2021-04-07T07:43:59Z</time>
      </trkpt>
      <trkpt lat="44.50081" lon="6.5929">
        <ele>2210</ele>
        <time>2021-04-07T07:44:00Z</time>
      </trkpt>
      <trkpt lat="44.50081" lon="6.5929">
        <ele>2211</ele>
        <time>2021-04-07T07:44:01Z</time>
      </trkpt>
      <trkpt lat="44.50081" lon="6.59291">
        <ele>2211</ele>
        <time>2021-04-07T07:44:02Z</time>
      </trkpt>
      <trkpt lat="44.50081" lon="6.59292">
        <ele>2211</ele>
        <time>2021-04-07T07:44:03Z</time>
      </trkpt>
      <trkpt lat="44.50081" lon="6.59293">
        <ele>2211</ele>
        <time>2021-04-07T07:44:04Z</time>
      </trkpt>
      <trkpt lat="44.5008" lon="6.59294">
        <ele>2212</ele>
        <time>2021-04-07T07:44:05Z</time>
      </trkpt>
      <trkpt lat="44.5008" lon="6.59295">
        <ele>2212</ele>
        <time>2021-04-07T07:44:06Z</time>
      </trkpt>
      <trkpt lat="44.5008" lon="6.59296">
        <ele>2212</ele>
        <time>2021-04-07T07:44:07Z</time>
      </trkpt>
      <trkpt lat="44.50079" lon="6.59297">
        <ele>2212</ele>
        <time>2021-04-07T07:44:08Z</time>
      </trkpt>
      <trkpt lat="44.50079" lon="6.59297">
        <ele>2212</ele>
        <time>2021-04-07T07:44:09Z</time>
      </trkpt>
      <trkpt lat="44.50079" lon="6.59298">
        <ele>2213</ele>
        <time>2021-04-07T07:44:10Z</time>
      </trkpt>
      <trkpt lat="44.50079" lon="6.59299">
        <ele>2213</ele>
        <time>2021-04-07T07:44:11Z</time>
      </trkpt>
      <trkpt lat="44.5008" lon="6.593">
        <ele>2213</ele>
        <time>2021-04-07T07:44:12Z</time>
      </trkpt>
      <trkpt lat="44.5008" lon="6.593">
        <ele>2213</ele>
        <time>2021-04-07T07:44:13Z</time>
      </trkpt>
      <trkpt lat="44.5008" lon="6.593">
        <ele>2213</ele>
        <time>2021-04-07T07:44:14Z</time>
      </trkpt>
      <trkpt lat="44.5008" lon="6.593">
        <ele>2213</ele>
        <time>2021-04-07T07:44:15Z</time>
      </trkpt>
      <trkpt lat="44.50079" lon="6.59301">
        <ele>2214</ele>
        <time>2021-04-07T07:44:16Z</time>
      </trkpt>
      <trkpt lat="44.50079" lon="6.593">
        <ele>2214</ele>
        <time>2021-04-07T07:44:17Z</time>
      </trkpt>
      <trkpt lat="44.50078" lon="6.593">
        <ele>2214</ele>
        <time>2021-04-07T07:44:18Z</time>
      </trkpt>
      <trkpt lat="44.50078" lon="6.59299">
        <ele>2214</ele>
        <time>2021-04-07T07:44:19Z</time>
      </trkpt>
      <trkpt lat="44.50077" lon="6.59298">
        <ele>2214</ele>
        <time>2021-04-07T07:44:20Z</time>
      </trkpt>
      <trkpt lat="44.50077" lon="6.59298">
        <ele>2214</ele>
        <time>2021-04-07T07:44:21Z</time>
      </trkpt>
      <trkpt lat="44.50076" lon="6.59298">
        <ele>2215</ele>
        <time>2021-04-07T07:44:22Z</time>
      </trkpt>
      <trkpt lat="44.50076" lon="6.59297">
        <ele>2216</ele>
        <time>2021-04-07T07:44:23Z</time>
      </trkpt>
      <trkpt lat="44.50075" lon="6.59296">
        <ele>2216</ele>
        <time>2021-04-07T07:44:24Z</time>
      </trkpt>
      <trkpt lat="44.50075" lon="6.59295">
        <ele>2216</ele>
        <time>2021-04-07T07:44:25Z</time>
      </trkpt>
      <trkpt lat="44.50075" lon="6.59294">
        <ele>2216</ele>
        <time>2021-04-07T07:44:26Z</time>
      </trkpt>
      <trkpt lat="44.50074" lon="6.59294">
        <ele>2217</ele>
        <time>2021-04-07T07:44:27Z</time>
      </trkpt>
      <trkpt lat="44.50074" lon="6.59294">
        <ele>2217</ele>
        <time>2021-04-07T07:44:28Z</time>
      </trkpt>
      <trkpt lat="44.50074" lon="6.59293">
        <ele>2217</ele>
        <time>2021-04-07T07:44:29Z</time>
      </trkpt>
      <trkpt lat="44.50073" lon="6.59292">
        <ele>2217</ele>
        <time>2021-04-07T07:44:30Z</time>
      </trkpt>
      <trkpt lat="44.50073" lon="6.59291">
        <ele>2217</ele>
        <time>2021-04-07T07:44:31Z</time>
      </trkpt>
      <trkpt lat="44.50072" lon="6.5929">
        <ele>2218</ele>
        <time>2021-04-07T07:44:32Z</time>
      </trkpt>
      <trkpt lat="44.50072" lon="6.59289">
        <ele>2218</ele>
        <time>2021-04-07T07:44:33Z</time>
      </trkpt>
      <trkpt lat="44.50071" lon="6.59288">
        <ele>2218</ele>
        <time>2021-04-07T07:44:34Z</time>
      </trkpt>
      <trkpt lat="44.50071" lon="6.59288">
        <ele>2218</ele>
        <time>2021-04-07T07:44:35Z</time>
      </trkpt>
      <trkpt lat="44.50071" lon="6.59287">
        <ele>2218</ele>
        <time>2021-04-07T07:44:36Z</time>
      </trkpt>
      <trkpt lat="44.50071" lon="6.59287">
        <ele>2218</ele>
        <time>2021-04-07T07:44:37Z</time>
      </trkpt>
      <trkpt lat="44.5007" lon="6.59287">
        <ele>2218</ele>
        <time>2021-04-07T07:44:38Z</time>
      </trkpt>
      <trkpt lat="44.5007" lon="6.59287">
        <ele>2218</ele>
        <time>2021-04-07T07:44:39Z</time>
      </trkpt>
      <trkpt lat="44.50069" lon="6.59287">
        <ele>2218</ele>
        <time>2021-04-07T07:44:40Z</time>
      </trkpt>
      <trkpt lat="44.50069" lon="6.59286">
        <ele>2218</ele>
        <time>2021-04-07T07:44:41Z</time>
      </trkpt>
      <trkpt lat="44.50069" lon="6.59285">
        <ele>2218</ele>
        <time>2021-04-07T07:44:42Z</time>
      </trkpt>
      <trkpt lat="44.50068" lon="6.59284">
        <ele>2218</ele>
        <time>2021-04-07T07:44:43Z</time>
      </trkpt>
      <trkpt lat="44.50068" lon="6.59283">
        <ele>2218</ele>
        <time>2021-04-07T07:44:44Z</time>
      </trkpt>
      <trkpt lat="44.50067" lon="6.59282">
        <ele>2218</ele>
        <time>2021-04-07T07:44:45Z</time>
      </trkpt>
      <trkpt lat="44.50067" lon="6.59281">
        <ele>2218</ele>
        <time>2021-04-07T07:44:46Z</time>
      </trkpt>
      <trkpt lat="44.50067" lon="6.5928">
        <ele>2218</ele>
        <time>2021-04-07T07:44:47Z</time>
      </trkpt>
      <trkpt lat="44.50066" lon="6.5928">
        <ele>2218</ele>
        <time>2021-04-07T07:44:48Z</time>
      </trkpt>
      <trkpt lat="44.50066" lon="6.59279">
        <ele>2218</ele>
        <time>2021-04-07T07:44:49Z</time>
      </trkpt>
      <trkpt lat="44.50066" lon="6.59278">
        <ele>2218</ele>
        <time>2021-04-07T07:44:50Z</time>
      </trkpt>
      <trkpt lat="44.50065" lon="6.59278">
        <ele>2218</ele>
        <time>2021-04-07T07:44:51Z</time>
      </trkpt>
      <trkpt lat="44.50065" lon="6.59277">
        <ele>2218</ele>
        <time>2021-04-07T07:44:52Z</time>
      </trkpt>
      <trkpt lat="44.50064" lon="6.59276">
        <ele>2217</ele>
        <time>2021-04-07T07:44:53Z</time>
      </trkpt>
      <trkpt lat="44.50064" lon="6.59275">
        <ele>2217</ele>
        <time>2021-04-07T07:44:54Z</time>
      </trkpt>
      <trkpt lat="44.50063" lon="6.59275">
        <ele>2217</ele>
        <time>2021-04-07T07:44:55Z</time>
      </trkpt>
      <trkpt lat="44.50063" lon="6.59274">
        <ele>2217</ele>
        <time>2021-04-07T07:44:56Z</time>
      </trkpt>
      <trkpt lat="44.50063" lon="6.59273">
        <ele>2217</ele>
        <time>2021-04-07T07:44:57Z</time>
      </trkpt>
      <trkpt lat="44.50063" lon="6.59273">
        <ele>2217</ele>
        <time>2021-04-07T07:44:58Z</time>
      </trkpt>
      <trkpt lat="44.50063" lon="6.59272">
        <ele>2217</ele>
        <time>2021-04-07T07:44:59Z</time>
      </trkpt>
      <trkpt lat="44.50063" lon="6.59272">
        <ele>2217</ele>
        <time>2021-04-07T07:45:00Z</time>
      </trkpt>
      <trkpt lat="44.50063" lon="6.59271">
        <ele>2217</ele>
        <time>2021-04-07T07:45:01Z</time>
      </trkpt>
      <trkpt lat="44.50063" lon="6.5927">
        <ele>2217</ele>
        <time>2021-04-07T07:45:02Z</time>
      </trkpt>
      <trkpt lat="44.50063" lon="6.5927">
        <ele>2217</ele>
        <time>2021-04-07T07:45:03Z</time>
      </trkpt>
      <trkpt lat="44.50063" lon="6.59269">
        <ele>2217</ele>
        <time>2021-04-07T07:45:04Z</time>
      </trkpt>
      <trkpt lat="44.50063" lon="6.59269">
        <ele>2217</ele>
        <time>2021-04-07T07:45:05Z</time>
      </trkpt>
      <trkpt lat="44.50063" lon="6.59269">
        <ele>2218</ele>
        <time>2021-04-07T07:45:06Z</time>
      </trkpt>
      <trkpt lat="44.50063" lon="6.59268">
        <ele>2218</ele>
        <time>2021-04-07T07:45:07Z</time>
      </trkpt>
      <trkpt lat="44.50063" lon="6.59268">
        <ele>2218</ele>
        <time>2021-04-07T07:45:08Z</time>
      </trkpt>
      <trkpt lat="44.50063" lon="6.59268">
        <ele>2218</ele>
        <time>2021-04-07T07:45:09Z</time>
      </trkpt>
      <trkpt lat="44.50063" lon="6.59268">
        <ele>2218</ele>
        <time>2021-04-07T07:45:10Z</time>
      </trkpt>
      <trkpt lat="44.50063" lon="6.59269">
        <ele>2218</ele>
        <time>2021-04-07T07:45:11Z</time>
      </trkpt>
      <trkpt lat="44.50063" lon="6.59269">
        <ele>2218</ele>
        <time>2021-04-07T07:45:12Z</time>
      </trkpt>
      <trkpt lat="44.50063" lon="6.5927">
        <ele>2218</ele>
        <time>2021-04-07T07:45:13Z</time>
      </trkpt>
      <trkpt lat="44.50063" lon="6.5927">
        <ele>2218</ele>
        <time>2021-04-07T07:45:14Z</time>
      </trkpt>
      <trkpt lat="44.50063" lon="6.5927">
        <ele>2218</ele>
        <time>2021-04-07T07:45:15Z</time>
      </trkpt>
      <trkpt lat="44.50062" lon="6.59271">
        <ele>2218</ele>
        <time>2021-04-07T07:45:16Z</time>
      </trkpt>
      <trkpt lat="44.50062" lon="6.59271">
        <ele>2219</ele>
        <time>2021-04-07T07:45:17Z</time>
      </trkpt>
      <trkpt lat="44.50062" lon="6.59271">
        <ele>2219</ele>
        <time>2021-04-07T07:45:18Z</time>
      </trkpt>
      <trkpt lat="44.50061" lon="6.5927">
        <ele>2219</ele>
        <time>2021-04-07T07:45:19Z</time>
      </trkpt>
      <trkpt lat="44.50061" lon="6.5927">
        <ele>2219</ele>
        <time>2021-04-07T07:45:20Z</time>
      </trkpt>
      <trkpt lat="44.50061" lon="6.59271">
        <ele>2219</ele>
        <time>2021-04-07T07:45:21Z</time>
      </trkpt>
      <trkpt lat="44.5006" lon="6.59271">
        <ele>2220</ele>
        <time>2021-04-07T07:45:22Z</time>
      </trkpt>
      <trkpt lat="44.5006" lon="6.59272">
        <ele>2220</ele>
        <time>2021-04-07T07:45:23Z</time>
      </trkpt>
      <trkpt lat="44.5006" lon="6.59272">
        <ele>2220</ele>
        <time>2021-04-07T07:45:24Z</time>
      </trkpt>
      <trkpt lat="44.50059" lon="6.59272">
        <ele>2220</ele>
        <time>2021-04-07T07:45:25Z</time>
      </trkpt>
      <trkpt lat="44.50059" lon="6.59272">
        <ele>2221</ele>
        <time>2021-04-07T07:45:26Z</time>
      </trkpt>
      <trkpt lat="44.50059" lon="6.59273">
        <ele>2221</ele>
        <time>2021-04-07T07:45:27Z</time>
      </trkpt>
      <trkpt lat="44.50058" lon="6.59273">
        <ele>2221</ele>
        <time>2021-04-07T07:45:28Z</time>
      </trkpt>
      <trkpt lat="44.50058" lon="6.59273">
        <ele>2221</ele>
        <time>2021-04-07T07:45:29Z</time>
      </trkpt>
      <trkpt lat="44.50058" lon="6.59273">
        <ele>2221</ele>
        <time>2021-04-07T07:45:30Z</time>
      </trkpt>
      <trkpt lat="44.50057" lon="6.59273">
        <ele>2221</ele>
        <time>2021-04-07T07:45:31Z</time>
      </trkpt>
      <trkpt lat="44.50057" lon="6.59274">
        <ele>2221</ele>
        <time>2021-04-07T07:45:32Z</time>
      </trkpt>
      <trkpt lat="44.50056" lon="6.59275">
        <ele>2222</ele>
        <time>2021-04-07T07:45:33Z</time>
      </trkpt>
      <trkpt lat="44.50056" lon="6.59275">
        <ele>2222</ele>
        <time>2021-04-07T07:45:34Z</time>
      </trkpt>
      <trkpt lat="44.50055" lon="6.59276">
        <ele>2222</ele>
        <time>2021-04-07T07:45:35Z</time>
      </trkpt>
      <trkpt lat="44.50055" lon="6.59278">
        <ele>2222</ele>
        <time>2021-04-07T07:45:36Z</time>
      </trkpt>
      <trkpt lat="44.50054" lon="6.59278">
        <ele>2222</ele>
        <time>2021-04-07T07:45:37Z</time>
      </trkpt>
      <trkpt lat="44.50053" lon="6.59278">
        <ele>2222</ele>
        <time>2021-04-07T07:45:38Z</time>
      </trkpt>
      <trkpt lat="44.50052" lon="6.59278">
        <ele>2222</ele>
        <time>2021-04-07T07:45:39Z</time>
      </trkpt>
      <trkpt lat="44.50051" lon="6.59278">
        <ele>2223</ele>
        <time>2021-04-07T07:45:40Z</time>
      </trkpt>
      <trkpt lat="44.50051" lon="6.59277">
        <ele>2223</ele>
        <time>2021-04-07T07:45:41Z</time>
      </trkpt>
      <trkpt lat="44.5005" lon="6.59277">
        <ele>2223</ele>
        <time>2021-04-07T07:45:42Z</time>
      </trkpt>
      <trkpt lat="44.5005" lon="6.59276">
        <ele>2223</ele>
        <time>2021-04-07T07:45:43Z</time>
      </trkpt>
      <trkpt lat="44.50049" lon="6.59275">
        <ele>2223</ele>
        <time>2021-04-07T07:45:44Z</time>
      </trkpt>
      <trkpt lat="44.50049" lon="6.59274">
        <ele>2223</ele>
        <time>2021-04-07T07:45:45Z</time>
      </trkpt>
      <trkpt lat="44.50049" lon="6.59273">
        <ele>2224</ele>
        <time>2021-04-07T07:45:46Z</time>
      </trkpt>
      <trkpt lat="44.50049" lon="6.59272">
        <ele>2224</ele>
        <time>2021-04-07T07:45:47Z</time>
      </trkpt>
      <trkpt lat="44.50048" lon="6.59271">
        <ele>2224</ele>
        <time>2021-04-07T07:45:48Z</time>
      </trkpt>
      <trkpt lat="44.50048" lon="6.5927">
        <ele>2224</ele>
        <time>2021-04-07T07:45:49Z</time>
      </trkpt>
      <trkpt lat="44.50047" lon="6.59269">
        <ele>2224</ele>
        <time>2021-04-07T07:45:50Z</time>
      </trkpt>
      <trkpt lat="44.50047" lon="6.59268">
        <ele>2224</ele>
        <time>2021-04-07T07:45:51Z</time>
      </trkpt>
      <trkpt lat="44.50047" lon="6.59267">
        <ele>2225</ele>
        <time>2021-04-07T07:45:52Z</time>
      </trkpt>
      <trkpt lat="44.50047" lon="6.59266">
        <ele>2225</ele>
        <time>2021-04-07T07:45:53Z</time>
      </trkpt>
      <trkpt lat="44.50047" lon="6.59266">
        <ele>2225</ele>
        <time>2021-04-07T07:45:54Z</time>
      </trkpt>
      <trkpt lat="44.50046" lon="6.59266">
        <ele>2225</ele>
        <time>2021-04-07T07:45:55Z</time>
      </trkpt>
      <trkpt lat="44.50046" lon="6.59265">
        <ele>2225</ele>
        <time>2021-04-07T07:45:56Z</time>
      </trkpt>
      <trkpt lat="44.50046" lon="6.59265">
        <ele>2225</ele>
        <time>2021-04-07T07:45:57Z</time>
      </trkpt>
      <trkpt lat="44.50046" lon="6.59265">
        <ele>2225</ele>
        <time>2021-04-07T07:45:58Z</time>
      </trkpt>
      <trkpt lat="44.50046" lon="6.59264">
        <ele>2226</ele>
        <time>2021-04-07T07:45:59Z</time>
      </trkpt>
      <trkpt lat="44.50046" lon="6.59263">
        <ele>2226</ele>
        <time>2021-04-07T07:46:00Z</time>
      </trkpt>
      <trkpt lat="44.50045" lon="6.59263">
        <ele>2226</ele>
        <time>2021-04-07T07:46:01Z</time>
      </trkpt>
      <trkpt lat="44.50045" lon="6.59262">
        <ele>2226</ele>
        <time>2021-04-07T07:46:02Z</time>
      </trkpt>
      <trkpt lat="44.50045" lon="6.59261">
        <ele>2226</ele>
        <time>2021-04-07T07:46:03Z</time>
      </trkpt>
      <trkpt lat="44.50045" lon="6.5926">
        <ele>2227</ele>
        <time>2021-04-07T07:46:04Z</time>
      </trkpt>
      <trkpt lat="44.50045" lon="6.5926">
        <ele>2227</ele>
        <time>2021-04-07T07:46:05Z</time>
      </trkpt>
      <trkpt lat="44.50044" lon="6.59259">
        <ele>2227</ele>
        <time>2021-04-07T07:46:06Z</time>
      </trkpt>
      <trkpt lat="44.50044" lon="6.59258">
        <ele>2228</ele>
        <time>2021-04-07T07:46:07Z</time>
      </trkpt>
      <trkpt lat="44.50044" lon="6.59257">
        <ele>2228</ele>
        <time>2021-04-07T07:46:08Z</time>
      </trkpt>
      <trkpt lat="44.50044" lon="6.59257">
        <ele>2228</ele>
        <time>2021-04-07T07:46:09Z</time>
      </trkpt>
      <trkpt lat="44.50043" lon="6.59256">
        <ele>2228</ele>
        <time>2021-04-07T07:46:10Z</time>
      </trkpt>
      <trkpt lat="44.50043" lon="6.59254">
        <ele>2229</ele>
        <time>2021-04-07T07:46:11Z</time>
      </trkpt>
      <trkpt lat="44.50043" lon="6.59254">
        <ele>2229</ele>
        <time>2021-04-07T07:46:12Z</time>
      </trkpt>
      <trkpt lat="44.50043" lon="6.59253">
        <ele>2229</ele>
        <time>2021-04-07T07:46:13Z</time>
      </trkpt>
      <trkpt lat="44.50043" lon="6.59253">
        <ele>2229</ele>
        <time>2021-04-07T07:46:14Z</time>
      </trkpt>
      <trkpt lat="44.50043" lon="6.59252">
        <ele>2229</ele>
        <time>2021-04-07T07:46:15Z</time>
      </trkpt>
      <trkpt lat="44.50043" lon="6.59251">
        <ele>2230</ele>
        <time>2021-04-07T07:46:16Z</time>
      </trkpt>
      <trkpt lat="44.50043" lon="6.5925">
        <ele>2230</ele>
        <time>2021-04-07T07:46:17Z</time>
      </trkpt>
      <trkpt lat="44.50042" lon="6.5925">
        <ele>2230</ele>
        <time>2021-04-07T07:46:18Z</time>
      </trkpt>
      <trkpt lat="44.50042" lon="6.5925">
        <ele>2231</ele>
        <time>2021-04-07T07:46:19Z</time>
      </trkpt>
      <trkpt lat="44.50042" lon="6.59249">
        <ele>2231</ele>
        <time>2021-04-07T07:46:20Z</time>
      </trkpt>
      <trkpt lat="44.50042" lon="6.59249">
        <ele>2231</ele>
        <time>2021-04-07T07:46:21Z</time>
      </trkpt>
      <trkpt lat="44.50041" lon="6.59248">
        <ele>2231</ele>
        <time>2021-04-07T07:46:22Z</time>
      </trkpt>
      <trkpt lat="44.50041" lon="6.59248">
        <ele>2232</ele>
        <time>2021-04-07T07:46:23Z</time>
      </trkpt>
      <trkpt lat="44.50041" lon="6.59246">
        <ele>2232</ele>
        <time>2021-04-07T07:46:24Z</time>
      </trkpt>
      <trkpt lat="44.50041" lon="6.59245">
        <ele>2232</ele>
        <time>2021-04-07T07:46:25Z</time>
      </trkpt>
      <trkpt lat="44.5004" lon="6.59244">
        <ele>2233</ele>
        <time>2021-04-07T07:46:26Z</time>
      </trkpt>
      <trkpt lat="44.5004" lon="6.59244">
        <ele>2233</ele>
        <time>2021-04-07T07:46:27Z</time>
      </trkpt>
      <trkpt lat="44.5004" lon="6.59243">
        <ele>2233</ele>
        <time>2021-04-07T07:46:28Z</time>
      </trkpt>
      <trkpt lat="44.5004" lon="6.59242">
        <ele>2233</ele>
        <time>2021-04-07T07:46:29Z</time>
      </trkpt>
      <trkpt lat="44.5004" lon="6.59241">
        <ele>2233</ele>
        <time>2021-04-07T07:46:30Z</time>
      </trkpt>
      <trkpt lat="44.5004" lon="6.59241">
        <ele>2234</ele>
        <time>2021-04-07T07:46:31Z</time>
      </trkpt>
      <trkpt lat="44.50039" lon="6.5924">
        <ele>2234</ele>
        <time>2021-04-07T07:46:32Z</time>
      </trkpt>
      <trkpt lat="44.50039" lon="6.59239">
        <ele>2234</ele>
        <time>2021-04-07T07:46:33Z</time>
      </trkpt>
      <trkpt lat="44.50039" lon="6.59238">
        <ele>2235</ele>
        <time>2021-04-07T07:46:34Z</time>
      </trkpt>
      <trkpt lat="44.50039" lon="6.59237">
        <ele>2235</ele>
        <time>2021-04-07T07:46:35Z</time>
      </trkpt>
      <trkpt lat="44.50039" lon="6.59237">
        <ele>2235</ele>
        <time>2021-04-07T07:46:36Z</time>
      </trkpt>
      <trkpt lat="44.50039" lon="6.59237">
        <ele>2235</ele>
        <time>2021-04-07T07:46:37Z</time>
      </trkpt>
      <trkpt lat="44.50039" lon="6.59237">
        <ele>2235</ele>
        <time>2021-04-07T07:46:38Z</time>
      </trkpt>
      <trkpt lat="44.50039" lon="6.59236">
        <ele>2235</ele>
        <time>2021-04-07T07:46:39Z</time>
      </trkpt>
      <trkpt lat="44.50039" lon="6.59236">
        <ele>2235</ele>
        <time>2021-04-07T07:46:40Z</time>
      </trkpt>
      <trkpt lat="44.50038" lon="6.59235">
        <ele>2235</ele>
        <time>2021-04-07T07:46:41Z</time>
      </trkpt>
      <trkpt lat="44.50038" lon="6.59234">
        <ele>2236</ele>
        <time>2021-04-07T07:46:42Z</time>
      </trkpt>
      <trkpt lat="44.50038" lon="6.59233">
        <ele>2236</ele>
        <time>2021-04-07T07:46:43Z</time>
      </trkpt>
      <trkpt lat="44.50039" lon="6.59232">
        <ele>2236</ele>
        <time>2021-04-07T07:46:44Z</time>
      </trkpt>
      <trkpt lat="44.50039" lon="6.59232">
        <ele>2236</ele>
        <time>2021-04-07T07:46:45Z</time>
      </trkpt>
      <trkpt lat="44.50038" lon="6.59231">
        <ele>2236</ele>
        <time>2021-04-07T07:46:46Z</time>
      </trkpt>
      <trkpt lat="44.50039" lon="6.5923">
        <ele>2236</ele>
        <time>2021-04-07T07:46:47Z</time>
      </trkpt>
      <trkpt lat="44.50039" lon="6.5923">
        <ele>2236</ele>
        <time>2021-04-07T07:46:48Z</time>
      </trkpt>
      <trkpt lat="44.50038" lon="6.5923">
        <ele>2237</ele>
        <time>2021-04-07T07:46:49Z</time>
      </trkpt>
      <trkpt lat="44.50038" lon="6.5923">
        <ele>2237</ele>
        <time>2021-04-07T07:46:50Z</time>
      </trkpt>
      <trkpt lat="44.50038" lon="6.5923">
        <ele>2237</ele>
        <time>2021-04-07T07:46:51Z</time>
      </trkpt>
      <trkpt lat="44.50038" lon="6.59229">
        <ele>2237</ele>
        <time>2021-04-07T07:46:52Z</time>
      </trkpt>
      <trkpt lat="44.50038" lon="6.59229">
        <ele>2237</ele>
        <time>2021-04-07T07:46:53Z</time>
      </trkpt>
      <trkpt lat="44.50038" lon="6.59229">
        <ele>2237</ele>
        <time>2021-04-07T07:46:54Z</time>
      </trkpt>
      <trkpt lat="44.50038" lon="6.59229">
        <ele>2237</ele>
        <time>2021-04-07T07:46:55Z</time>
      </trkpt>
      <trkpt lat="44.50038" lon="6.59229">
        <ele>2237</ele>
        <time>2021-04-07T07:46:56Z</time>
      </trkpt>
      <trkpt lat="44.50038" lon="6.59229">
        <ele>2237</ele>
        <time>2021-04-07T07:46:57Z</time>
      </trkpt>
      <trkpt lat="44.50038" lon="6.59229">
        <ele>2237</ele>
        <time>2021-04-07T07:46:58Z</time>
      </trkpt>
      <trkpt lat="44.50038" lon="6.59229">
        <ele>2237</ele>
        <time>2021-04-07T07:46:59Z</time>
      </trkpt>
      <trkpt lat="44.50038" lon="6.59229">
        <ele>2237</ele>
        <time>2021-04-07T07:47:00Z</time>
      </trkpt>
      <trkpt lat="44.50038" lon="6.59229">
        <ele>2237</ele>
        <time>2021-04-07T07:47:01Z</time>
      </trkpt>
      <trkpt lat="44.50038" lon="6.59229">
        <ele>2237</ele>
        <time>2021-04-07T07:47:02Z</time>
      </trkpt>
      <trkpt lat="44.50038" lon="6.59229">
        <ele>2237</ele>
        <time>2021-04-07T07:47:03Z</time>
      </trkpt>
      <trkpt lat="44.50038" lon="6.59229">
        <ele>2237</ele>
        <time>2021-04-07T07:47:04Z</time>
      </trkpt>
      <trkpt lat="44.50038" lon="6.59229">
        <ele>2237</ele>
        <time>2021-04-07T07:47:05Z</time>
      </trkpt>
      <trkpt lat="44.50038" lon="6.59229">
        <ele>2237</ele>
        <time>2021-04-07T07:47:06Z</time>
      </trkpt>
      <trkpt lat="44.50038" lon="6.59229">
        <ele>2237</ele>
        <time>2021-04-07T07:47:07Z</time>
      </trkpt>
      <trkpt lat="44.50038" lon="6.59229">
        <ele>2237</ele>
        <time>2021-04-07T07:47:08Z</time>
      </trkpt>
      <trkpt lat="44.50038" lon="6.59229">
        <ele>2237</ele>
        <time>2021-04-07T07:47:09Z</time>
      </trkpt>
      <trkpt lat="44.50038" lon="6.59229">
        <ele>2237</ele>
        <time>2021-04-07T07:47:10Z</time>
      </trkpt>
      <trkpt lat="44.50038" lon="6.59229">
        <ele>2237</ele>
        <time>2021-04-07T07:47:11Z</time>
      </trkpt>
      <trkpt lat="44.50038" lon="6.59229">
        <ele>2237</ele>
        <time>2021-04-07T07:47:12Z</time>
      </trkpt>
      <trkpt lat="44.50038" lon="6.59229">
        <ele>2237</ele>
        <time>2021-04-07T07:47:13Z</time>
      </trkpt>
      <trkpt lat="44.50038" lon="6.59229">
        <ele>2237</ele>
        <time>2021-04-07T07:47:14Z</time>
      </trkpt>
      <trkpt lat="44.50038" lon="6.59229">
        <ele>2237</ele>
        <time>2021-04-07T07:47:15Z</time>
      </trkpt>
      <trkpt lat="44.50038" lon="6.59229">
        <ele>2237</ele>
        <time>2021-04-07T07:47:16Z</time>
      </trkpt>
      <trkpt lat="44.50038" lon="6.59229">
        <ele>2237</ele>
        <time>2021-04-07T07:47:17Z</time>
      </trkpt>
      <trkpt lat="44.50038" lon="6.59229">
        <ele>2237</ele>
        <time>2021-04-07T07:47:18Z</time>
      </trkpt>
      <trkpt lat="44.50038" lon="6.59229">
        <ele>2237</ele>
        <time>2021-04-07T07:47:19Z</time>
      </trkpt>
      <trkpt lat="44.50038" lon="6.59229">
        <ele>2237</ele>
        <time>2021-04-07T07:47:20Z</time>
      </trkpt>
      <trkpt lat="44.50038" lon="6.59229">
        <ele>2237</ele>
        <time>2021-04-07T07:47:21Z</time>
      </trkpt>
      <trkpt lat="44.50038" lon="6.59229">
        <ele>2237</ele>
        <time>2021-04-07T07:47:22Z</time>
      </trkpt>
      <trkpt lat="44.50038" lon="6.59229">
        <ele>2237</ele>
        <time>2021-04-07T07:47:23Z</time>
      </trkpt>
      <trkpt lat="44.50038" lon="6.59229">
        <ele>2237</ele>
        <time>2021-04-07T07:47:24Z</time>
      </trkpt>
      <trkpt lat="44.50038" lon="6.59229">
        <ele>2237</ele>
        <time>2021-04-07T07:47:25Z</time>
      </trkpt>
      <trkpt lat="44.50038" lon="6.59229">
        <ele>2237</ele>
        <time>2021-04-07T07:47:26Z</time>
      </trkpt>
      <trkpt lat="44.50038" lon="6.59229">
        <ele>2237</ele>
        <time>2021-04-07T07:47:27Z</time>
      </trkpt>
      <trkpt lat="44.50038" lon="6.59229">
        <ele>2237</ele>
        <time>2021-04-07T07:47:28Z</time>
      </trkpt>
      <trkpt lat="44.50038" lon="6.59229">
        <ele>2237</ele>
        <time>2021-04-07T07:47:29Z</time>
      </trkpt>
      <trkpt lat="44.50038" lon="6.59229">
        <ele>2237</ele>
        <time>2021-04-07T07:47:30Z</time>
      </trkpt>
      <trkpt lat="44.50038" lon="6.59229">
        <ele>2237</ele>
        <time>2021-04-07T07:47:31Z</time>
      </trkpt>
      <trkpt lat="44.50038" lon="6.59229">
        <ele>2237</ele>
        <time>2021-04-07T07:47:32Z</time>
      </trkpt>
      <trkpt lat="44.50038" lon="6.59229">
        <ele>2237</ele>
        <time>2021-04-07T07:47:33Z</time>
      </trkpt>
      <trkpt lat="44.50038" lon="6.59229">
        <ele>2237</ele>
        <time>2021-04-07T07:47:34Z</time>
      </trkpt>
      <trkpt lat="44.50038" lon="6.59229">
        <ele>2237</ele>
        <time>2021-04-07T07:47:35Z</time>
      </trkpt>
      <trkpt lat="44.50038" lon="6.59229">
        <ele>2237</ele>
        <time>2021-04-07T07:47:36Z</time>
      </trkpt>
      <trkpt lat="44.50038" lon="6.59229">
        <ele>2237</ele>
        <time>2021-04-07T07:47:37Z</time>
      </trkpt>
      <trkpt lat="44.50038" lon="6.59229">
        <ele>2237</ele>
        <time>2021-04-07T07:47:38Z</time>
      </trkpt>
      <trkpt lat="44.50038" lon="6.59229">
        <ele>2237</ele>
        <time>2021-04-07T07:47:39Z</time>
      </trkpt>
      <trkpt lat="44.50038" lon="6.59229">
        <ele>2237</ele>
        <time>2021-04-07T07:47:40Z</time>
      </trkpt>
      <trkpt lat="44.50038" lon="6.59229">
        <ele>2237</ele>
        <time>2021-04-07T07:47:41Z</time>
      </trkpt>
      <trkpt lat="44.50038" lon="6.59229">
        <ele>2237</ele>
        <time>2021-04-07T07:47:42Z</time>
      </trkpt>
      <trkpt lat="44.50038" lon="6.59229">
        <ele>2237</ele>
        <time>2021-04-07T07:47:43Z</time>
      </trkpt>
      <trkpt lat="44.50038" lon="6.59229">
        <ele>2237</ele>
        <time>2021-04-07T07:47:44Z</time>
      </trkpt>
      <trkpt lat="44.50038" lon="6.59229">
        <ele>2237</ele>
        <time>2021-04-07T07:47:45Z</time>
      </trkpt>
      <trkpt lat="44.50038" lon="6.59229">
        <ele>2237</ele>
        <time>2021-04-07T07:47:46Z</time>
      </trkpt>
      <trkpt lat="44.50038" lon="6.59229">
        <ele>2237</ele>
        <time>2021-04-07T07:47:47Z</time>
      </trkpt>
      <trkpt lat="44.50038" lon="6.59229">
        <ele>2237</ele>
        <time>2021-04-07T07:47:48Z</time>
      </trkpt>
      <trkpt lat="44.50038" lon="6.59229">
        <ele>2237</ele>
        <time>2021-04-07T07:47:49Z</time>
      </trkpt>
      <trkpt lat="44.50038" lon="6.59229">
        <ele>2237</ele>
        <time>2021-04-07T07:47:50Z</time>
      </trkpt>
      <trkpt lat="44.50038" lon="6.59229">
        <ele>2237</ele>
        <time>2021-04-07T07:47:51Z</time>
      </trkpt>
      <trkpt lat="44.50038" lon="6.59229">
        <ele>2237</ele>
        <time>2021-04-07T07:47:52Z</time>
      </trkpt>
      <trkpt lat="44.50038" lon="6.59229">
        <ele>2237</ele>
        <time>2021-04-07T07:47:53Z</time>
      </trkpt>
      <trkpt lat="44.50038" lon="6.59229">
        <ele>2237</ele>
        <time>2021-04-07T07:47:54Z</time>
      </trkpt>
      <trkpt lat="44.50038" lon="6.59229">
        <ele>2237</ele>
        <time>2021-04-07T07:47:55Z</time>
      </trkpt>
      <trkpt lat="44.50038" lon="6.59229">
        <ele>2237</ele>
        <time>2021-04-07T07:47:56Z</time>
      </trkpt>
      <trkpt lat="44.50038" lon="6.59229">
        <ele>2237</ele>
        <time>2021-04-07T07:47:57Z</time>
      </trkpt>
      <trkpt lat="44.50038" lon="6.59229">
        <ele>2237</ele>
        <time>2021-04-07T07:47:58Z</time>
      </trkpt>
      <trkpt lat="44.50038" lon="6.59229">
        <ele>2237</ele>
        <time>2021-04-07T07:47:59Z</time>
      </trkpt>
      <trkpt lat="44.50038" lon="6.59229">
        <ele>2237</ele>
        <time>2021-04-07T07:48:00Z</time>
      </trkpt>
      <trkpt lat="44.50038" lon="6.59229">
        <ele>2237</ele>
        <time>2021-04-07T07:48:01Z</time>
      </trkpt>
      <trkpt lat="44.50038" lon="6.59229">
        <ele>2237</ele>
        <time>2021-04-07T07:48:02Z</time>
      </trkpt>
      <trkpt lat="44.50038" lon="6.59229">
        <ele>2237</ele>
        <time>2021-04-07T07:48:03Z</time>
      </trkpt>
      <trkpt lat="44.50038" lon="6.59229">
        <ele>2237</ele>
        <time>2021-04-07T07:48:04Z</time>
      </trkpt>
      <trkpt lat="44.50038" lon="6.59229">
        <ele>2237</ele>
        <time>2021-04-07T07:48:05Z</time>
      </trkpt>
      <trkpt lat="44.50038" lon="6.59229">
        <ele>2237</ele>
        <time>2021-04-07T07:48:06Z</time>
      </trkpt>
      <trkpt lat="44.50038" lon="6.59229">
        <ele>2237</ele>
        <time>2021-04-07T07:48:07Z</time>
      </trkpt>
      <trkpt lat="44.50038" lon="6.59229">
        <ele>2237</ele>
        <time>2021-04-07T07:48:08Z</time>
      </trkpt>
      <trkpt lat="44.50038" lon="6.59229">
        <ele>2237</ele>
        <time>2021-04-07T07:48:09Z</time>
      </trkpt>
      <trkpt lat="44.50038" lon="6.59229">
        <ele>2237</ele>
        <time>2021-04-07T07:48:10Z</time>
      </trkpt>
      <trkpt lat="44.50038" lon="6.59229">
        <ele>2237</ele>
        <time>2021-04-07T07:48:11Z</time>
      </trkpt>
      <trkpt lat="44.50038" lon="6.59229">
        <ele>2237</ele>
        <time>2021-04-07T07:48:12Z</time>
      </trkpt>
      <trkpt lat="44.50038" lon="6.59229">
        <ele>2237</ele>
        <time>2021-04-07T07:48:13Z</time>
      </trkpt>
      <trkpt lat="44.50038" lon="6.59229">
        <ele>2237</ele>
        <time>2021-04-07T07:48:14Z</time>
      </trkpt>
      <trkpt lat="44.50038" lon="6.59229">
        <ele>2237</ele>
        <time>2021-04-07T07:48:15Z</time>
      </trkpt>
      <trkpt lat="44.50038" lon="6.59229">
        <ele>2237</ele>
        <time>2021-04-07T07:48:16Z</time>
      </trkpt>
      <trkpt lat="44.50038" lon="6.59229">
        <ele>2237</ele>
        <time>2021-04-07T07:48:17Z</time>
      </trkpt>
      <trkpt lat="44.50038" lon="6.59229">
        <ele>2237</ele>
        <time>2021-04-07T07:48:18Z</time>
      </trkpt>
      <trkpt lat="44.50038" lon="6.59229">
        <ele>2237</ele>
        <time>2021-04-07T07:48:19Z</time>
      </trkpt>
      <trkpt lat="44.50038" lon="6.59229">
        <ele>2237</ele>
        <time>2021-04-07T07:48:20Z</time>
      </trkpt>
      <trkpt lat="44.50038" lon="6.59229">
        <ele>2237</ele>
        <time>2021-04-07T07:48:21Z</time>
      </trkpt>
      <trkpt lat="44.50038" lon="6.59229">
        <ele>2237</ele>
        <time>2021-04-07T07:48:22Z</time>
      </trkpt>
      <trkpt lat="44.50038" lon="6.59229">
        <ele>2237</ele>
        <time>2021-04-07T07:48:23Z</time>
      </trkpt>
      <trkpt lat="44.50038" lon="6.59229">
        <ele>2237</ele>
        <time>2021-04-07T07:48:24Z</time>
      </trkpt>
      <trkpt lat="44.50038" lon="6.59229">
        <ele>2237</ele>
        <time>2021-04-07T07:48:25Z</time>
      </trkpt>
      <trkpt lat="44.50038" lon="6.59229">
        <ele>2237</ele>
        <time>2021-04-07T07:48:26Z</time>
      </trkpt>
      <trkpt lat="44.50038" lon="6.59229">
        <ele>2237</ele>
        <time>2021-04-07T07:48:27Z</time>
      </trkpt>
      <trkpt lat="44.50038" lon="6.59229">
        <ele>2237</ele>
        <time>2021-04-07T07:48:28Z</time>
      </trkpt>
      <trkpt lat="44.50038" lon="6.59229">
        <ele>2237</ele>
        <time>2021-04-07T07:48:29Z</time>
      </trkpt>
      <trkpt lat="44.50038" lon="6.59229">
        <ele>2237</ele>
        <time>2021-04-07T07:48:30Z</time>
      </trkpt>
      <trkpt lat="44.50038" lon="6.59229">
        <ele>2237</ele>
        <time>2021-04-07T07:48:31Z</time>
      </trkpt>
      <trkpt lat="44.50038" lon="6.59229">
        <ele>2237</ele>
        <time>2021-04-07T07:48:32Z</time>
      </trkpt>
      <trkpt lat="44.50038" lon="6.59229">
        <ele>2237</ele>
        <time>2021-04-07T07:48:33Z</time>
      </trkpt>
      <trkpt lat="44.50038" lon="6.59229">
        <ele>2237</ele>
        <time>2021-04-07T07:48:34Z</time>
      </trkpt>
      <trkpt lat="44.50038" lon="6.59229">
        <ele>2237</ele>
        <time>2021-04-07T07:48:35Z</time>
      </trkpt>
      <trkpt lat="44.50038" lon="6.59229">
        <ele>2237</ele>
        <time>2021-04-07T07:48:36Z</time>
      </trkpt>
      <trkpt lat="44.50038" lon="6.59229">
        <ele>2237</ele>
        <time>2021-04-07T07:48:37Z</time>
      </trkpt>
      <trkpt lat="44.50038" lon="6.59229">
        <ele>2237</ele>
        <time>2021-04-07T07:48:38Z</time>
      </trkpt>
      <trkpt lat="44.50038" lon="6.59229">
        <ele>2237</ele>
        <time>2021-04-07T07:48:39Z</time>
      </trkpt>
      <trkpt lat="44.50038" lon="6.59229">
        <ele>2237</ele>
        <time>2021-04-07T07:48:40Z</time>
      </trkpt>
      <trkpt lat="44.50038" lon="6.59229">
        <ele>2237</ele>
        <time>2021-04-07T07:48:41Z</time>
      </trkpt>
      <trkpt lat="44.50038" lon="6.59229">
        <ele>2237</ele>
        <time>2021-04-07T07:48:42Z</time>
      </trkpt>
      <trkpt lat="44.50038" lon="6.59229">
        <ele>2237</ele>
        <time>2021-04-07T07:48:43Z</time>
      </trkpt>
      <trkpt lat="44.50038" lon="6.59229">
        <ele>2237</ele>
        <time>2021-04-07T07:48:44Z</time>
      </trkpt>
      <trkpt lat="44.50038" lon="6.59229">
        <ele>2237</ele>
        <time>2021-04-07T07:48:45Z</time>
      </trkpt>
      <trkpt lat="44.50038" lon="6.59229">
        <ele>2237</ele>
        <time>2021-04-07T07:48:46Z</time>
      </trkpt>
      <trkpt lat="44.50038" lon="6.59229">
        <ele>2237</ele>
        <time>2021-04-07T07:48:47Z</time>
      </trkpt>
      <trkpt lat="44.50038" lon="6.59229">
        <ele>2237</ele>
        <time>2021-04-07T07:48:48Z</time>
      </trkpt>
      <trkpt lat="44.50038" lon="6.59229">
        <ele>2237</ele>
        <time>2021-04-07T07:48:49Z</time>
      </trkpt>
      <trkpt lat="44.50038" lon="6.59229">
        <ele>2237</ele>
        <time>2021-04-07T07:48:50Z</time>
      </trkpt>
      <trkpt lat="44.50038" lon="6.59229">
        <ele>2237</ele>
        <time>2021-04-07T07:48:51Z</time>
      </trkpt>
      <trkpt lat="44.50038" lon="6.59229">
        <ele>2237</ele>
        <time>2021-04-07T07:48:52Z</time>
      </trkpt>
      <trkpt lat="44.50038" lon="6.59229">
        <ele>2237</ele>
        <time>2021-04-07T07:48:53Z</time>
      </trkpt>
      <trkpt lat="44.50038" lon="6.59229">
        <ele>2237</ele>
        <time>2021-04-07T07:48:54Z</time>
      </trkpt>
      <trkpt lat="44.50038" lon="6.59229">
        <ele>2237</ele>
        <time>2021-04-07T07:48:55Z</time>
      </trkpt>
      <trkpt lat="44.50038" lon="6.59229">
        <ele>2237</ele>
        <time>2021-04-07T07:48:56Z</time>
      </trkpt>
      <trkpt lat="44.50038" lon="6.59229">
        <ele>2237</ele>
        <time>2021-04-07T07:48:57Z</time>
      </trkpt>
      <trkpt lat="44.50038" lon="6.59229">
        <ele>2237</ele>
        <time>2021-04-07T07:48:58Z</time>
      </trkpt>
      <trkpt lat="44.50038" lon="6.59229">
        <ele>2237</ele>
        <time>2021-04-07T07:48:59Z</time>
      </trkpt>
      <trkpt lat="44.50038" lon="6.59229">
        <ele>2237</ele>
        <time>2021-04-07T07:49:00Z</time>
      </trkpt>
      <trkpt lat="44.50038" lon="6.59229">
        <ele>2237</ele>
        <time>2021-04-07T07:49:01Z</time>
      </trkpt>
      <trkpt lat="44.50038" lon="6.59229">
        <ele>2237</ele>
        <time>2021-04-07T07:49:02Z</time>
      </trkpt>
      <trkpt lat="44.50038" lon="6.59229">
        <ele>2237</ele>
        <time>2021-04-07T07:49:03Z</time>
      </trkpt>
      <trkpt lat="44.50038" lon="6.59229">
        <ele>2237</ele>
        <time>2021-04-07T07:49:04Z</time>
      </trkpt>
      <trkpt lat="44.50038" lon="6.59229">
        <ele>2237</ele>
        <time>2021-04-07T07:49:05Z</time>
      </trkpt>
      <trkpt lat="44.50038" lon="6.59229">
        <ele>2237</ele>
        <time>2021-04-07T07:49:06Z</time>
      </trkpt>
      <trkpt lat="44.50039" lon="6.59231">
        <ele>2241</ele>
        <time>2021-04-07T07:49:07Z</time>
      </trkpt>
      <trkpt lat="44.50039" lon="6.5923">
        <ele>2242</ele>
        <time>2021-04-07T07:49:08Z</time>
      </trkpt>
      <trkpt lat="44.50039" lon="6.5923">
        <ele>2242</ele>
        <time>2021-04-07T07:49:09Z</time>
      </trkpt>
      <trkpt lat="44.50039" lon="6.5923">
        <ele>2243</ele>
        <time>2021-04-07T07:49:10Z</time>
      </trkpt>
      <trkpt lat="44.50039" lon="6.5923">
        <ele>2243</ele>
        <time>2021-04-07T07:49:11Z</time>
      </trkpt>
      <trkpt lat="44.50039" lon="6.5923">
        <ele>2243</ele>
        <time>2021-04-07T07:49:12Z</time>
      </trkpt>
      <trkpt lat="44.50039" lon="6.5923">
        <ele>2243</ele>
        <time>2021-04-07T07:49:13Z</time>
      </trkpt>
      <trkpt lat="44.50039" lon="6.5923">
        <ele>2243</ele>
        <time>2021-04-07T07:49:14Z</time>
      </trkpt>
      <trkpt lat="44.50039" lon="6.5923">
        <ele>2243</ele>
        <time>2021-04-07T07:49:15Z</time>
      </trkpt>
      <trkpt lat="44.50039" lon="6.5923">
        <ele>2244</ele>
        <time>2021-04-07T07:49:16Z</time>
      </trkpt>
      <trkpt lat="44.50039" lon="6.5923">
        <ele>2244</ele>
        <time>2021-04-07T07:49:17Z</time>
      </trkpt>
      <trkpt lat="44.50039" lon="6.5923">
        <ele>2244</ele>
        <time>2021-04-07T07:49:18Z</time>
      </trkpt>
      <trkpt lat="44.50039" lon="6.5923">
        <ele>2244</ele>
        <time>2021-04-07T07:49:19Z</time>
      </trkpt>
      <trkpt lat="44.50039" lon="6.5923">
        <ele>2244</ele>
        <time>2021-04-07T07:49:20Z</time>
      </trkpt>
      <trkpt lat="44.50039" lon="6.5923">
        <ele>2244</ele>
        <time>2021-04-07T07:49:21Z</time>
      </trkpt>
      <trkpt lat="44.50039" lon="6.5923">
        <ele>2244</ele>
        <time>2021-04-07T07:49:22Z</time>
      </trkpt>
      <trkpt lat="44.50039" lon="6.5923">
        <ele>2244</ele>
        <time>2021-04-07T07:49:23Z</time>
      </trkpt>
      <trkpt lat="44.50039" lon="6.5923">
        <ele>2244</ele>
        <time>2021-04-07T07:49:24Z</time>
      </trkpt>
      <trkpt lat="44.50039" lon="6.5923">
        <ele>2244</ele>
        <time>2021-04-07T07:49:25Z</time>
      </trkpt>
      <trkpt lat="44.50039" lon="6.5923">
        <ele>2244</ele>
        <time>2021-04-07T07:49:26Z</time>
      </trkpt>
      <trkpt lat="44.50039" lon="6.5923">
        <ele>2244</ele>
        <time>2021-04-07T07:49:27Z</time>
      </trkpt>
      <trkpt lat="44.50039" lon="6.5923">
        <ele>2244</ele>
        <time>2021-04-07T07:49:28Z</time>
      </trkpt>
      <trkpt lat="44.50039" lon="6.5923">
        <ele>2244</ele>
        <time>2021-04-07T07:49:29Z</time>
      </trkpt>
      <trkpt lat="44.50039" lon="6.5923">
        <ele>2244</ele>
        <time>2021-04-07T07:49:30Z</time>
      </trkpt>
      <trkpt lat="44.50039" lon="6.5923">
        <ele>2244</ele>
        <time>2021-04-07T07:49:31Z</time>
      </trkpt>
      <trkpt lat="44.50039" lon="6.5923">
        <ele>2244</ele>
        <time>2021-04-07T07:49:32Z</time>
      </trkpt>
      <trkpt lat="44.50039" lon="6.5923">
        <ele>2244</ele>
        <time>2021-04-07T07:49:33Z</time>
      </trkpt>
      <trkpt lat="44.50039" lon="6.5923">
        <ele>2244</ele>
        <time>2021-04-07T07:49:34Z</time>
      </trkpt>
      <trkpt lat="44.50039" lon="6.5923">
        <ele>2244</ele>
        <time>2021-04-07T07:49:35Z</time>
      </trkpt>
      <trkpt lat="44.50039" lon="6.5923">
        <ele>2244</ele>
        <time>2021-04-07T07:49:36Z</time>
      </trkpt>
      <trkpt lat="44.50039" lon="6.5923">
        <ele>2244</ele>
        <time>2021-04-07T07:49:37Z</time>
      </trkpt>
      <trkpt lat="44.50038" lon="6.59229">
        <ele>2244</ele>
        <time>2021-04-07T07:49:38Z</time>
      </trkpt>
      <trkpt lat="44.50038" lon="6.59229">
        <ele>2244</ele>
        <time>2021-04-07T07:49:39Z</time>
      </trkpt>
      <trkpt lat="44.50038" lon="6.59229">
        <ele>2244</ele>
        <time>2021-04-07T07:49:40Z</time>
      </trkpt>
      <trkpt lat="44.50039" lon="6.59229">
        <ele>2244</ele>
        <time>2021-04-07T07:49:41Z</time>
      </trkpt>
      <trkpt lat="44.50039" lon="6.59229">
        <ele>2244</ele>
        <time>2021-04-07T07:49:42Z</time>
      </trkpt>
      <trkpt lat="44.50039" lon="6.59229">
        <ele>2244</ele>
        <time>2021-04-07T07:49:43Z</time>
      </trkpt>
      <trkpt lat="44.50039" lon="6.59229">
        <ele>2244</ele>
        <time>2021-04-07T07:49:44Z</time>
      </trkpt>
      <trkpt lat="44.50039" lon="6.59229">
        <ele>2244</ele>
        <time>2021-04-07T07:49:45Z</time>
      </trkpt>
      <trkpt lat="44.50039" lon="6.59229">
        <ele>2244</ele>
        <time>2021-04-07T07:49:46Z</time>
      </trkpt>
      <trkpt lat="44.50039" lon="6.59229">
        <ele>2245</ele>
        <time>2021-04-07T07:49:47Z</time>
      </trkpt>
      <trkpt lat="44.50039" lon="6.59229">
        <ele>2245</ele>
        <time>2021-04-07T07:49:48Z</time>
      </trkpt>
      <trkpt lat="44.50039" lon="6.59229">
        <ele>2245</ele>
        <time>2021-04-07T07:49:49Z</time>
      </trkpt>
      <trkpt lat="44.50039" lon="6.59229">
        <ele>2245</ele>
        <time>2021-04-07T07:49:50Z</time>
      </trkpt>
      <trkpt lat="44.50039" lon="6.59229">
        <ele>2245</ele>
        <time>2021-04-07T07:49:51Z</time>
      </trkpt>
      <trkpt lat="44.50039" lon="6.59229">
        <ele>2245</ele>
        <time>2021-04-07T07:49:52Z</time>
      </trkpt>
      <trkpt lat="44.50039" lon="6.59229">
        <ele>2245</ele>
        <time>2021-04-07T07:49:53Z</time>
      </trkpt>
      <trkpt lat="44.50039" lon="6.59229">
        <ele>2245</ele>
        <time>2021-04-07T07:49:54Z</time>
      </trkpt>
      <trkpt lat="44.50039" lon="6.59229">
        <ele>2245</ele>
        <time>2021-04-07T07:49:55Z</time>
      </trkpt>
      <trkpt lat="44.50039" lon="6.59229">
        <ele>2245</ele>
        <time>2021-04-07T07:49:56Z</time>
      </trkpt>
      <trkpt lat="44.50039" lon="6.59229">
        <ele>2245</ele>
        <time>2021-04-07T07:49:57Z</time>
      </trkpt>
      <trkpt lat="44.50039" lon="6.59229">
        <ele>2245</ele>
        <time>2021-04-07T07:49:58Z</time>
      </trkpt>
      <trkpt lat="44.50039" lon="6.59229">
        <ele>2245</ele>
        <time>2021-04-07T07:49:59Z</time>
      </trkpt>
      <trkpt lat="44.50039" lon="6.59229">
        <ele>2245</ele>
        <time>2021-04-07T07:50:00Z</time>
      </trkpt>
      <trkpt lat="44.50039" lon="6.59229">
        <ele>2245</ele>
        <time>2021-04-07T07:50:01Z</time>
      </trkpt>
      <trkpt lat="44.50039" lon="6.59229">
        <ele>2245</ele>
        <time>2021-04-07T07:50:02Z</time>
      </trkpt>
      <trkpt lat="44.50039" lon="6.59229">
        <ele>2245</ele>
        <time>2021-04-07T07:50:03Z</time>
      </trkpt>
      <trkpt lat="44.50039" lon="6.59229">
        <ele>2245</ele>
        <time>2021-04-07T07:50:04Z</time>
      </trkpt>
      <trkpt lat="44.50039" lon="6.59229">
        <ele>2245</ele>
        <time>2021-04-07T07:50:05Z</time>
      </trkpt>
      <trkpt lat="44.50039" lon="6.59229">
        <ele>2245</ele>
        <time>2021-04-07T07:50:06Z</time>
      </trkpt>
      <trkpt lat="44.50039" lon="6.59229">
        <ele>2245</ele>
        <time>2021-04-07T07:50:07Z</time>
      </trkpt>
      <trkpt lat="44.50039" lon="6.59229">
        <ele>2245</ele>
        <time>2021-04-07T07:50:08Z</time>
      </trkpt>
      <trkpt lat="44.50039" lon="6.59229">
        <ele>2245</ele>
        <time>2021-04-07T07:50:09Z</time>
      </trkpt>
      <trkpt lat="44.50039" lon="6.59229">
        <ele>2245</ele>
        <time>2021-04-07T07:50:10Z</time>
      </trkpt>
      <trkpt lat="44.50039" lon="6.59229">
        <ele>2245</ele>
        <time>2021-04-07T07:50:11Z</time>
      </trkpt>
      <trkpt lat="44.50039" lon="6.59229">
        <ele>2245</ele>
        <time>2021-04-07T07:50:12Z</time>
      </trkpt>
      <trkpt lat="44.50039" lon="6.59229">
        <ele>2245</ele>
        <time>2021-04-07T07:50:13Z</time>
      </trkpt>
      <trkpt lat="44.50039" lon="6.59229">
        <ele>2245</ele>
        <time>2021-04-07T07:50:14Z</time>
      </trkpt>
      <trkpt lat="44.50039" lon="6.59229">
        <ele>2245</ele>
        <time>2021-04-07T07:50:15Z</time>
      </trkpt>
      <trkpt lat="44.50039" lon="6.59229">
        <ele>2245</ele>
        <time>2021-04-07T07:50:16Z</time>
      </trkpt>
      <trkpt lat="44.50039" lon="6.59229">
        <ele>2245</ele>
        <time>2021-04-07T07:50:17Z</time>
      </trkpt>
      <trkpt lat="44.50039" lon="6.59229">
        <ele>2245</ele>
        <time>2021-04-07T07:50:18Z</time>
      </trkpt>
      <trkpt lat="44.50039" lon="6.59229">
        <ele>2245</ele>
        <time>2021-04-07T07:50:19Z</time>
      </trkpt>
      <trkpt lat="44.50039" lon="6.59229">
        <ele>2245</ele>
        <time>2021-04-07T07:50:20Z</time>
      </trkpt>
      <trkpt lat="44.50039" lon="6.59229">
        <ele>2245</ele>
        <time>2021-04-07T07:50:21Z</time>
      </trkpt>
      <trkpt lat="44.50039" lon="6.59229">
        <ele>2245</ele>
        <time>2021-04-07T07:50:22Z</time>
      </trkpt>
      <trkpt lat="44.50039" lon="6.59229">
        <ele>2245</ele>
        <time>2021-04-07T07:50:23Z</time>
      </trkpt>
      <trkpt lat="44.50039" lon="6.59229">
        <ele>2245</ele>
        <time>2021-04-07T07:50:24Z</time>
      </trkpt>
      <trkpt lat="44.50039" lon="6.59229">
        <ele>2245</ele>
        <time>2021-04-07T07:50:25Z</time>
      </trkpt>
      <trkpt lat="44.50039" lon="6.59229">
        <ele>2245</ele>
        <time>2021-04-07T07:50:26Z</time>
      </trkpt>
      <trkpt lat="44.50039" lon="6.59229">
        <ele>2245</ele>
        <time>2021-04-07T07:50:27Z</time>
      </trkpt>
      <trkpt lat="44.50039" lon="6.59229">
        <ele>2245</ele>
        <time>2021-04-07T07:50:28Z</time>
      </trkpt>
      <trkpt lat="44.50039" lon="6.59229">
        <ele>2245</ele>
        <time>2021-04-07T07:50:29Z</time>
      </trkpt>
      <trkpt lat="44.50039" lon="6.59229">
        <ele>2245</ele>
        <time>2021-04-07T07:50:30Z</time>
      </trkpt>
      <trkpt lat="44.50039" lon="6.59229">
        <ele>2245</ele>
        <time>2021-04-07T07:50:31Z</time>
      </trkpt>
      <trkpt lat="44.50039" lon="6.59229">
        <ele>2245</ele>
        <time>2021-04-07T07:50:32Z</time>
      </trkpt>
      <trkpt lat="44.50039" lon="6.59229">
        <ele>2245</ele>
        <time>2021-04-07T07:50:33Z</time>
      </trkpt>
      <trkpt lat="44.50039" lon="6.59229">
        <ele>2245</ele>
        <time>2021-04-07T07:50:34Z</time>
      </trkpt>
      <trkpt lat="44.50039" lon="6.59229">
        <ele>2245</ele>
        <time>2021-04-07T07:50:35Z</time>
      </trkpt>
      <trkpt lat="44.50039" lon="6.59229">
        <ele>2245</ele>
        <time>2021-04-07T07:50:36Z</time>
      </trkpt>
      <trkpt lat="44.50039" lon="6.59229">
        <ele>2245</ele>
        <time>2021-04-07T07:50:37Z</time>
      </trkpt>
      <trkpt lat="44.50039" lon="6.59229">
        <ele>2245</ele>
        <time>2021-04-07T07:50:38Z</time>
      </trkpt>
      <trkpt lat="44.50039" lon="6.59229">
        <ele>2245</ele>
        <time>2021-04-07T07:50:39Z</time>
      </trkpt>
      <trkpt lat="44.50039" lon="6.59229">
        <ele>2245</ele>
        <time>2021-04-07T07:50:40Z</time>
      </trkpt>
      <trkpt lat="44.50039" lon="6.59229">
        <ele>2245</ele>
        <time>2021-04-07T07:50:41Z</time>
      </trkpt>
      <trkpt lat="44.50039" lon="6.59229">
        <ele>2245</ele>
        <time>2021-04-07T07:50:42Z</time>
      </trkpt>
      <trkpt lat="44.50039" lon="6.59229">
        <ele>2245</ele>
        <time>2021-04-07T07:50:43Z</time>
      </trkpt>
      <trkpt lat="44.50039" lon="6.59229">
        <ele>2245</ele>
        <time>2021-04-07T07:50:44Z</time>
      </trkpt>
      <trkpt lat="44.5004" lon="6.59232">
        <ele>2245</ele>
        <time>2021-04-07T07:50:45Z</time>
      </trkpt>
      <trkpt lat="44.5004" lon="6.59233">
        <ele>2245</ele>
        <time>2021-04-07T07:50:46Z</time>
      </trkpt>
      <trkpt lat="44.5004" lon="6.59233">
        <ele>2245</ele>
        <time>2021-04-07T07:50:47Z</time>
      </trkpt>
      <trkpt lat="44.5004" lon="6.59233">
        <ele>2245</ele>
        <time>2021-04-07T07:50:48Z</time>
      </trkpt>
      <trkpt lat="44.5004" lon="6.59233">
        <ele>2245</ele>
        <time>2021-04-07T07:50:49Z</time>
      </trkpt>
      <trkpt lat="44.5004" lon="6.59233">
        <ele>2245</ele>
        <time>2021-04-07T07:50:50Z</time>
      </trkpt>
      <trkpt lat="44.5004" lon="6.59233">
        <ele>2245</ele>
        <time>2021-04-07T07:50:51Z</time>
      </trkpt>
      <trkpt lat="44.5004" lon="6.59233">
        <ele>2245</ele>
        <time>2021-04-07T07:50:52Z</time>
      </trkpt>
      <trkpt lat="44.5004" lon="6.59233">
        <ele>2245</ele>
        <time>2021-04-07T07:50:53Z</time>
      </trkpt>
      <trkpt lat="44.5004" lon="6.59233">
        <ele>2245</ele>
        <time>2021-04-07T07:50:54Z</time>
      </trkpt>
      <trkpt lat="44.5004" lon="6.59233">
        <ele>2245</ele>
        <time>2021-04-07T07:50:55Z</time>
      </trkpt>
      <trkpt lat="44.5004" lon="6.59233">
        <ele>2245</ele>
        <time>2021-04-07T07:50:56Z</time>
      </trkpt>
      <trkpt lat="44.5004" lon="6.59233">
        <ele>2245</ele>
        <time>2021-04-07T07:50:57Z</time>
      </trkpt>
      <trkpt lat="44.5004" lon="6.59233">
        <ele>2245</ele>
        <time>2021-04-07T07:50:58Z</time>
      </trkpt>
      <trkpt lat="44.5004" lon="6.59233">
        <ele>2245</ele>
        <time>2021-04-07T07:50:59Z</time>
      </trkpt>
      <trkpt lat="44.5004" lon="6.59233">
        <ele>2245</ele>
        <time>2021-04-07T07:51:00Z</time>
      </trkpt>
      <trkpt lat="44.5004" lon="6.59233">
        <ele>2245</ele>
        <time>2021-04-07T07:51:01Z</time>
      </trkpt>
      <trkpt lat="44.5004" lon="6.59233">
        <ele>2245</ele>
        <time>2021-04-07T07:51:02Z</time>
      </trkpt>
      <trkpt lat="44.5004" lon="6.59233">
        <ele>2245</ele>
        <time>2021-04-07T07:51:03Z</time>
      </trkpt>
      <trkpt lat="44.5004" lon="6.59233">
        <ele>2245</ele>
        <time>2021-04-07T07:51:04Z</time>
      </trkpt>
      <trkpt lat="44.5004" lon="6.59233">
        <ele>2245</ele>
        <time>2021-04-07T07:51:05Z</time>
      </trkpt>
      <trkpt lat="44.5004" lon="6.59233">
        <ele>2245</ele>
        <time>2021-04-07T07:51:06Z</time>
      </trkpt>
      <trkpt lat="44.5004" lon="6.59233">
        <ele>2245</ele>
        <time>2021-04-07T07:51:07Z</time>
      </trkpt>
      <trkpt lat="44.5004" lon="6.59233">
        <ele>2245</ele>
        <time>2021-04-07T07:51:08Z</time>
      </trkpt>
      <trkpt lat="44.5004" lon="6.59233">
        <ele>2245</ele>
        <time>2021-04-07T07:51:09Z</time>
      </trkpt>
      <trkpt lat="44.5004" lon="6.59233">
        <ele>2245</ele>
        <time>2021-04-07T07:51:10Z</time>
      </trkpt>
      <trkpt lat="44.5004" lon="6.59233">
        <ele>2245</ele>
        <time>2021-04-07T07:51:11Z</time>
      </trkpt>
      <trkpt lat="44.5004" lon="6.59233">
        <ele>2245</ele>
        <time>2021-04-07T07:51:12Z</time>
      </trkpt>
      <trkpt lat="44.5004" lon="6.59233">
        <ele>2245</ele>
        <time>2021-04-07T07:51:13Z</time>
      </trkpt>
      <trkpt lat="44.5004" lon="6.59233">
        <ele>2245</ele>
        <time>2021-04-07T07:51:14Z</time>
      </trkpt>
      <trkpt lat="44.5004" lon="6.59233">
        <ele>2245</ele>
        <time>2021-04-07T07:51:15Z</time>
      </trkpt>
      <trkpt lat="44.5004" lon="6.59233">
        <ele>2245</ele>
        <time>2021-04-07T07:51:16Z</time>
      </trkpt>
      <trkpt lat="44.5004" lon="6.59233">
        <ele>2245</ele>
        <time>2021-04-07T07:51:17Z</time>
      </trkpt>
      <trkpt lat="44.5004" lon="6.59233">
        <ele>2245</ele>
        <time>2021-04-07T07:51:18Z</time>
      </trkpt>
      <trkpt lat="44.5004" lon="6.59233">
        <ele>2245</ele>
        <time>2021-04-07T07:51:19Z</time>
      </trkpt>
      <trkpt lat="44.5004" lon="6.59233">
        <ele>2245</ele>
        <time>2021-04-07T07:51:20Z</time>
      </trkpt>
      <trkpt lat="44.5004" lon="6.59233">
        <ele>2245</ele>
        <time>2021-04-07T07:51:21Z</time>
      </trkpt>
      <trkpt lat="44.5004" lon="6.59233">
        <ele>2245</ele>
        <time>2021-04-07T07:51:22Z</time>
      </trkpt>
      <trkpt lat="44.5004" lon="6.59233">
        <ele>2245</ele>
        <time>2021-04-07T07:51:23Z</time>
      </trkpt>
      <trkpt lat="44.5004" lon="6.59233">
        <ele>2245</ele>
        <time>2021-04-07T07:51:24Z</time>
      </trkpt>
      <trkpt lat="44.5004" lon="6.59233">
        <ele>2245</ele>
        <time>2021-04-07T07:51:25Z</time>
      </trkpt>
      <trkpt lat="44.5004" lon="6.59233">
        <ele>2245</ele>
        <time>2021-04-07T07:51:26Z</time>
      </trkpt>
      <trkpt lat="44.5004" lon="6.59233">
        <ele>2245</ele>
        <time>2021-04-07T07:51:27Z</time>
      </trkpt>
      <trkpt lat="44.5004" lon="6.59233">
        <ele>2245</ele>
        <time>2021-04-07T07:51:28Z</time>
      </trkpt>
      <trkpt lat="44.5004" lon="6.59233">
        <ele>2245</ele>
        <time>2021-04-07T07:51:29Z</time>
      </trkpt>
      <trkpt lat="44.5004" lon="6.59233">
        <ele>2245</ele>
        <time>2021-04-07T07:51:30Z</time>
      </trkpt>
      <trkpt lat="44.5004" lon="6.59233">
        <ele>2245</ele>
        <time>2021-04-07T07:51:31Z</time>
      </trkpt>
      <trkpt lat="44.5004" lon="6.59233">
        <ele>2245</ele>
        <time>2021-04-07T07:51:32Z</time>
      </trkpt>
      <trkpt lat="44.5004" lon="6.59233">
        <ele>2245</ele>
        <time>2021-04-07T07:51:33Z</time>
      </trkpt>
      <trkpt lat="44.5004" lon="6.59233">
        <ele>2245</ele>
        <time>2021-04-07T07:51:34Z</time>
      </trkpt>
      <trkpt lat="44.5004" lon="6.59233">
        <ele>2245</ele>
        <time>2021-04-07T07:51:35Z</time>
      </trkpt>
      <trkpt lat="44.5004" lon="6.59233">
        <ele>2245</ele>
        <time>2021-04-07T07:51:36Z</time>
      </trkpt>
      <trkpt lat="44.5004" lon="6.59233">
        <ele>2245</ele>
        <time>2021-04-07T07:51:37Z</time>
      </trkpt>
      <trkpt lat="44.5004" lon="6.59233">
        <ele>2245</ele>
        <time>2021-04-07T07:51:38Z</time>
      </trkpt>
      <trkpt lat="44.5004" lon="6.59233">
        <ele>2245</ele>
        <time>2021-04-07T07:51:39Z</time>
      </trkpt>
      <trkpt lat="44.5004" lon="6.59233">
        <ele>2245</ele>
        <time>2021-04-07T07:51:40Z</time>
      </trkpt>
      <trkpt lat="44.5004" lon="6.59233">
        <ele>2245</ele>
        <time>2021-04-07T07:51:41Z</time>
      </trkpt>
      <trkpt lat="44.5004" lon="6.59233">
        <ele>2245</ele>
        <time>2021-04-07T07:51:42Z</time>
      </trkpt>
      <trkpt lat="44.5004" lon="6.59233">
        <ele>2245</ele>
        <time>2021-04-07T07:51:43Z</time>
      </trkpt>
      <trkpt lat="44.5004" lon="6.59233">
        <ele>2245</ele>
        <time>2021-04-07T07:51:44Z</time>
      </trkpt>
      <trkpt lat="44.5004" lon="6.59233">
        <ele>2245</ele>
        <time>2021-04-07T07:51:45Z</time>
      </trkpt>
      <trkpt lat="44.5004" lon="6.59233">
        <ele>2245</ele>
        <time>2021-04-07T07:51:46Z</time>
      </trkpt>
      <trkpt lat="44.5004" lon="6.59233">
        <ele>2245</ele>
        <time>2021-04-07T07:51:47Z</time>
      </trkpt>
      <trkpt lat="44.5004" lon="6.59233">
        <ele>2245</ele>
        <time>2021-04-07T07:51:48Z</time>
      </trkpt>
      <trkpt lat="44.5004" lon="6.59233">
        <ele>2245</ele>
        <time>2021-04-07T07:51:49Z</time>
      </trkpt>
      <trkpt lat="44.5004" lon="6.59233">
        <ele>2245</ele>
        <time>2021-04-07T07:51:50Z</time>
      </trkpt>
      <trkpt lat="44.5004" lon="6.59233">
        <ele>2245</ele>
        <time>2021-04-07T07:51:51Z</time>
      </trkpt>
      <trkpt lat="44.5004" lon="6.59233">
        <ele>2245</ele>
        <time>2021-04-07T07:51:52Z</time>
      </trkpt>
      <trkpt lat="44.5004" lon="6.59233">
        <ele>2245</ele>
        <time>2021-04-07T07:51:53Z</time>
      </trkpt>
      <trkpt lat="44.5004" lon="6.59233">
        <ele>2245</ele>
        <time>2021-04-07T07:51:54Z</time>
      </trkpt>
      <trkpt lat="44.5004" lon="6.59233">
        <ele>2245</ele>
        <time>2021-04-07T07:51:55Z</time>
      </trkpt>
      <trkpt lat="44.5004" lon="6.59232">
        <ele>2245</ele>
        <time>2021-04-07T07:51:56Z</time>
      </trkpt>
      <trkpt lat="44.5004" lon="6.59232">
        <ele>2245</ele>
        <time>2021-04-07T07:51:57Z</time>
      </trkpt>
      <trkpt lat="44.5004" lon="6.59232">
        <ele>2245</ele>
        <time>2021-04-07T07:51:58Z</time>
      </trkpt>
      <trkpt lat="44.5004" lon="6.59233">
        <ele>2245</ele>
        <time>2021-04-07T07:51:59Z</time>
      </trkpt>
      <trkpt lat="44.5004" lon="6.59233">
        <ele>2245</ele>
        <time>2021-04-07T07:52:00Z</time>
      </trkpt>
      <trkpt lat="44.5004" lon="6.59233">
        <ele>2245</ele>
        <time>2021-04-07T07:52:01Z</time>
      </trkpt>
      <trkpt lat="44.5004" lon="6.59233">
        <ele>2245</ele>
        <time>2021-04-07T07:52:02Z</time>
      </trkpt>
      <trkpt lat="44.5004" lon="6.59233">
        <ele>2245</ele>
        <time>2021-04-07T07:52:03Z</time>
      </trkpt>
      <trkpt lat="44.5004" lon="6.59233">
        <ele>2245</ele>
        <time>2021-04-07T07:52:04Z</time>
      </trkpt>
      <trkpt lat="44.5004" lon="6.59233">
        <ele>2245</ele>
        <time>2021-04-07T07:52:05Z</time>
      </trkpt>
      <trkpt lat="44.5004" lon="6.59233">
        <ele>2245</ele>
        <time>2021-04-07T07:52:06Z</time>
      </trkpt>
      <trkpt lat="44.5004" lon="6.59233">
        <ele>2245</ele>
        <time>2021-04-07T07:52:07Z</time>
      </trkpt>
      <trkpt lat="44.5004" lon="6.59233">
        <ele>2245</ele>
        <time>2021-04-07T07:52:08Z</time>
      </trkpt>
      <trkpt lat="44.5004" lon="6.59233">
        <ele>2245</ele>
        <time>2021-04-07T07:52:09Z</time>
      </trkpt>
      <trkpt lat="44.5004" lon="6.59233">
        <ele>2245</ele>
        <time>2021-04-07T07:52:10Z</time>
      </trkpt>
      <trkpt lat="44.5004" lon="6.59233">
        <ele>2245</ele>
        <time>2021-04-07T07:52:11Z</time>
      </trkpt>
      <trkpt lat="44.5004" lon="6.59233">
        <ele>2245</ele>
        <time>2021-04-07T07:52:12Z</time>
      </trkpt>
      <trkpt lat="44.5004" lon="6.59233">
        <ele>2245</ele>
        <time>2021-04-07T07:52:13Z</time>
      </trkpt>
      <trkpt lat="44.5004" lon="6.59233">
        <ele>2245</ele>
        <time>2021-04-07T07:52:14Z</time>
      </trkpt>
      <trkpt lat="44.5004" lon="6.59233">
        <ele>2245</ele>
        <time>2021-04-07T07:52:15Z</time>
      </trkpt>
      <trkpt lat="44.5004" lon="6.59233">
        <ele>2245</ele>
        <time>2021-04-07T07:52:16Z</time>
      </trkpt>
      <trkpt lat="44.5004" lon="6.59233">
        <ele>2245</ele>
        <time>2021-04-07T07:52:17Z</time>
      </trkpt>
      <trkpt lat="44.5004" lon="6.59233">
        <ele>2245</ele>
        <time>2021-04-07T07:52:18Z</time>
      </trkpt>
      <trkpt lat="44.5004" lon="6.59233">
        <ele>2245</ele>
        <time>2021-04-07T07:52:19Z</time>
      </trkpt>
      <trkpt lat="44.5004" lon="6.59233">
        <ele>2245</ele>
        <time>2021-04-07T07:52:20Z</time>
      </trkpt>
      <trkpt lat="44.50039" lon="6.59232">
        <ele>2245</ele>
        <time>2021-04-07T07:52:21Z</time>
      </trkpt>
      <trkpt lat="44.50038" lon="6.59232">
        <ele>2245</ele>
        <time>2021-04-07T07:52:22Z</time>
      </trkpt>
      <trkpt lat="44.50038" lon="6.59231">
        <ele>2245</ele>
        <time>2021-04-07T07:52:23Z</time>
      </trkpt>
      <trkpt lat="44.50037" lon="6.59231">
        <ele>2245</ele>
        <time>2021-04-07T07:52:24Z</time>
      </trkpt>
      <trkpt lat="44.50036" lon="6.5923">
        <ele>2245</ele>
        <time>2021-04-07T07:52:25Z</time>
      </trkpt>
      <trkpt lat="44.50036" lon="6.5923">
        <ele>2245</ele>
        <time>2021-04-07T07:52:26Z</time>
      </trkpt>
      <trkpt lat="44.50035" lon="6.5923">
        <ele>2245</ele>
        <time>2021-04-07T07:52:27Z</time>
      </trkpt>
      <trkpt lat="44.50034" lon="6.5923">
        <ele>2245</ele>
        <time>2021-04-07T07:52:28Z</time>
      </trkpt>
      <trkpt lat="44.50033" lon="6.59229">
        <ele>2245</ele>
        <time>2021-04-07T07:52:29Z</time>
      </trkpt>
      <trkpt lat="44.50032" lon="6.59229">
        <ele>2246</ele>
        <time>2021-04-07T07:52:30Z</time>
      </trkpt>
      <trkpt lat="44.50031" lon="6.59229">
        <ele>2246</ele>
        <time>2021-04-07T07:52:31Z</time>
      </trkpt>
      <trkpt lat="44.5003" lon="6.59228">
        <ele>2246</ele>
        <time>2021-04-07T07:52:32Z</time>
      </trkpt>
      <trkpt lat="44.5003" lon="6.59226">
        <ele>2246</ele>
        <time>2021-04-07T07:52:33Z</time>
      </trkpt>
      <trkpt lat="44.50029" lon="6.59225">
        <ele>2246</ele>
        <time>2021-04-07T07:52:34Z</time>
      </trkpt>
      <trkpt lat="44.50028" lon="6.59224">
        <ele>2246</ele>
        <time>2021-04-07T07:52:35Z</time>
      </trkpt>
      <trkpt lat="44.50027" lon="6.59223">
        <ele>2246</ele>
        <time>2021-04-07T07:52:36Z</time>
      </trkpt>
      <trkpt lat="44.50027" lon="6.59222">
        <ele>2246</ele>
        <time>2021-04-07T07:52:37Z</time>
      </trkpt>
      <trkpt lat="44.50027" lon="6.59221">
        <ele>2247</ele>
        <time>2021-04-07T07:52:38Z</time>
      </trkpt>
      <trkpt lat="44.50026" lon="6.5922">
        <ele>2247</ele>
        <time>2021-04-07T07:52:39Z</time>
      </trkpt>
      <trkpt lat="44.50026" lon="6.59219">
        <ele>2247</ele>
        <time>2021-04-07T07:52:40Z</time>
      </trkpt>
      <trkpt lat="44.50025" lon="6.59218">
        <ele>2247</ele>
        <time>2021-04-07T07:52:41Z</time>
      </trkpt>
      <trkpt lat="44.50024" lon="6.59218">
        <ele>2247</ele>
        <time>2021-04-07T07:52:42Z</time>
      </trkpt>
      <trkpt lat="44.50024" lon="6.59217">
        <ele>2247</ele>
        <time>2021-04-07T07:52:43Z</time>
      </trkpt>
      <trkpt lat="44.50024" lon="6.59216">
        <ele>2247</ele>
        <time>2021-04-07T07:52:44Z</time>
      </trkpt>
      <trkpt lat="44.50024" lon="6.59215">
        <ele>2247</ele>
        <time>2021-04-07T07:52:45Z</time>
      </trkpt>
      <trkpt lat="44.50023" lon="6.59214">
        <ele>2248</ele>
        <time>2021-04-07T07:52:46Z</time>
      </trkpt>
      <trkpt lat="44.50023" lon="6.59213">
        <ele>2248</ele>
        <time>2021-04-07T07:52:47Z</time>
      </trkpt>
      <trkpt lat="44.50022" lon="6.59212">
        <ele>2248</ele>
        <time>2021-04-07T07:52:48Z</time>
      </trkpt>
      <trkpt lat="44.50021" lon="6.59212">
        <ele>2247</ele>
        <time>2021-04-07T07:52:49Z</time>
      </trkpt>
      <trkpt lat="44.50021" lon="6.59211">
        <ele>2247</ele>
        <time>2021-04-07T07:52:50Z</time>
      </trkpt>
      <trkpt lat="44.5002" lon="6.5921">
        <ele>2247</ele>
        <time>2021-04-07T07:52:51Z</time>
      </trkpt>
      <trkpt lat="44.5002" lon="6.59208">
        <ele>2247</ele>
        <time>2021-04-07T07:52:52Z</time>
      </trkpt>
      <trkpt lat="44.50019" lon="6.59207">
        <ele>2247</ele>
        <time>2021-04-07T07:52:53Z</time>
      </trkpt>
      <trkpt lat="44.50019" lon="6.59207">
        <ele>2247</ele>
        <time>2021-04-07T07:52:54Z</time>
      </trkpt>
      <trkpt lat="44.50018" lon="6.59206">
        <ele>2247</ele>
        <time>2021-04-07T07:52:55Z</time>
      </trkpt>
      <trkpt lat="44.50017" lon="6.59205">
        <ele>2247</ele>
        <time>2021-04-07T07:52:56Z</time>
      </trkpt>
      <trkpt lat="44.50016" lon="6.59204">
        <ele>2247</ele>
        <time>2021-04-07T07:52:57Z</time>
      </trkpt>
      <trkpt lat="44.50015" lon="6.59204">
        <ele>2248</ele>
        <time>2021-04-07T07:52:58Z</time>
      </trkpt>
      <trkpt lat="44.50015" lon="6.59203">
        <ele>2248</ele>
        <time>2021-04-07T07:52:59Z</time>
      </trkpt>
      <trkpt lat="44.50014" lon="6.59202">
        <ele>2247</ele>
        <time>2021-04-07T07:53:00Z</time>
      </trkpt>
      <trkpt lat="44.50013" lon="6.59202">
        <ele>2247</ele>
        <time>2021-04-07T07:53:01Z</time>
      </trkpt>
      <trkpt lat="44.50013" lon="6.59202">
        <ele>2247</ele>
        <time>2021-04-07T07:53:02Z</time>
      </trkpt>
      <trkpt lat="44.50012" lon="6.59201">
        <ele>2247</ele>
        <time>2021-04-07T07:53:03Z</time>
      </trkpt>
      <trkpt lat="44.50012" lon="6.59201">
        <ele>2247</ele>
        <time>2021-04-07T07:53:04Z</time>
      </trkpt>
      <trkpt lat="44.50011" lon="6.592">
        <ele>2247</ele>
        <time>2021-04-07T07:53:05Z</time>
      </trkpt>
      <trkpt lat="44.5001" lon="6.592">
        <ele>2247</ele>
        <time>2021-04-07T07:53:06Z</time>
      </trkpt>
      <trkpt lat="44.5001" lon="6.592">
        <ele>2247</ele>
        <time>2021-04-07T07:53:07Z</time>
      </trkpt>
      <trkpt lat="44.50009" lon="6.592">
        <ele>2247</ele>
        <time>2021-04-07T07:53:08Z</time>
      </trkpt>
      <trkpt lat="44.50008" lon="6.592">
        <ele>2247</ele>
        <time>2021-04-07T07:53:09Z</time>
      </trkpt>
      <trkpt lat="44.50007" lon="6.592">
        <ele>2247</ele>
        <time>2021-04-07T07:53:10Z</time>
      </trkpt>
      <trkpt lat="44.50006" lon="6.592">
        <ele>2247</ele>
        <time>2021-04-07T07:53:11Z</time>
      </trkpt>
      <trkpt lat="44.50006" lon="6.592">
        <ele>2247</ele>
        <time>2021-04-07T07:53:12Z</time>
      </trkpt>
      <trkpt lat="44.50005" lon="6.592">
        <ele>2247</ele>
        <time>2021-04-07T07:53:13Z</time>
      </trkpt>
      <trkpt lat="44.50004" lon="6.592">
        <ele>2248</ele>
        <time>2021-04-07T07:53:14Z</time>
      </trkpt>
      <trkpt lat="44.50004" lon="6.592">
        <ele>2248</ele>
        <time>2021-04-07T07:53:15Z</time>
      </trkpt>
      <trkpt lat="44.50003" lon="6.592">
        <ele>2248</ele>
        <time>2021-04-07T07:53:16Z</time>
      </trkpt>
      <trkpt lat="44.50002" lon="6.59199">
        <ele>2248</ele>
        <time>2021-04-07T07:53:17Z</time>
      </trkpt>
      <trkpt lat="44.50001" lon="6.59199">
        <ele>2248</ele>
        <time>2021-04-07T07:53:18Z</time>
      </trkpt>
      <trkpt lat="44.50001" lon="6.59199">
        <ele>2248</ele>
        <time>2021-04-07T07:53:19Z</time>
      </trkpt>
      <trkpt lat="44.5" lon="6.59198">
        <ele>2248</ele>
        <time>2021-04-07T07:53:20Z</time>
      </trkpt>
      <trkpt lat="44.5" lon="6.59198">
        <ele>2248</ele>
        <time>2021-04-07T07:53:21Z</time>
      </trkpt>
      <trkpt lat="44.49999" lon="6.59198">
        <ele>2248</ele>
        <time>2021-04-07T07:53:22Z</time>
      </trkpt>
      <trkpt lat="44.49999" lon="6.59197">
        <ele>2248</ele>
        <time>2021-04-07T07:53:23Z</time>
      </trkpt>
      <trkpt lat="44.49998" lon="6.59197">
        <ele>2248</ele>
        <time>2021-04-07T07:53:24Z</time>
      </trkpt>
      <trkpt lat="44.49998" lon="6.59197">
        <ele>2248</ele>
        <time>2021-04-07T07:53:25Z</time>
      </trkpt>
      <trkpt lat="44.49997" lon="6.59197">
        <ele>2248</ele>
        <time>2021-04-07T07:53:26Z</time>
      </trkpt>
      <trkpt lat="44.49997" lon="6.59196">
        <ele>2248</ele>
        <time>2021-04-07T07:53:27Z</time>
      </trkpt>
      <trkpt lat="44.49996" lon="6.59195">
        <ele>2248</ele>
        <time>2021-04-07T07:53:28Z</time>
      </trkpt>
      <trkpt lat="44.49995" lon="6.59194">
        <ele>2248</ele>
        <time>2021-04-07T07:53:29Z</time>
      </trkpt>
      <trkpt lat="44.49995" lon="6.59193">
        <ele>2248</ele>
        <time>2021-04-07T07:53:30Z</time>
      </trkpt>
      <trkpt lat="44.49994" lon="6.59193">
        <ele>2248</ele>
        <time>2021-04-07T07:53:31Z</time>
      </trkpt>
      <trkpt lat="44.49993" lon="6.59193">
        <ele>2248</ele>
        <time>2021-04-07T07:53:32Z</time>
      </trkpt>
      <trkpt lat="44.49993" lon="6.59193">
        <ele>2248</ele>
        <time>2021-04-07T07:53:33Z</time>
      </trkpt>
      <trkpt lat="44.49991" lon="6.59193">
        <ele>2248</ele>
        <time>2021-04-07T07:53:34Z</time>
      </trkpt>
      <trkpt lat="44.49991" lon="6.59193">
        <ele>2248</ele>
        <time>2021-04-07T07:53:35Z</time>
      </trkpt>
      <trkpt lat="44.4999" lon="6.59193">
        <ele>2248</ele>
        <time>2021-04-07T07:53:36Z</time>
      </trkpt>
      <trkpt lat="44.49989" lon="6.59192">
        <ele>2248</ele>
        <time>2021-04-07T07:53:37Z</time>
      </trkpt>
      <trkpt lat="44.49988" lon="6.59192">
        <ele>2248</ele>
        <time>2021-04-07T07:53:38Z</time>
      </trkpt>
      <trkpt lat="44.49987" lon="6.59192">
        <ele>2249</ele>
        <time>2021-04-07T07:53:39Z</time>
      </trkpt>
      <trkpt lat="44.49987" lon="6.59191">
        <ele>2249</ele>
        <time>2021-04-07T07:53:40Z</time>
      </trkpt>
      <trkpt lat="44.49986" lon="6.59191">
        <ele>2249</ele>
        <time>2021-04-07T07:53:41Z</time>
      </trkpt>
      <trkpt lat="44.49985" lon="6.59191">
        <ele>2249</ele>
        <time>2021-04-07T07:53:42Z</time>
      </trkpt>
      <trkpt lat="44.49985" lon="6.59191">
        <ele>2249</ele>
        <time>2021-04-07T07:53:43Z</time>
      </trkpt>
      <trkpt lat="44.49984" lon="6.5919">
        <ele>2249</ele>
        <time>2021-04-07T07:53:44Z</time>
      </trkpt>
      <trkpt lat="44.49983" lon="6.5919">
        <ele>2249</ele>
        <time>2021-04-07T07:53:45Z</time>
      </trkpt>
      <trkpt lat="44.49982" lon="6.59189">
        <ele>2249</ele>
        <time>2021-04-07T07:53:46Z</time>
      </trkpt>
      <trkpt lat="44.49981" lon="6.59189">
        <ele>2250</ele>
        <time>2021-04-07T07:53:47Z</time>
      </trkpt>
      <trkpt lat="44.4998" lon="6.59189">
        <ele>2250</ele>
        <time>2021-04-07T07:53:48Z</time>
      </trkpt>
      <trkpt lat="44.49979" lon="6.59189">
        <ele>2250</ele>
        <time>2021-04-07T07:53:49Z</time>
      </trkpt>
      <trkpt lat="44.49978" lon="6.59189">
        <ele>2250</ele>
        <time>2021-04-07T07:53:50Z</time>
      </trkpt>
      <trkpt lat="44.49978" lon="6.59189">
        <ele>2251</ele>
        <time>2021-04-07T07:53:51Z</time>
      </trkpt>
      <trkpt lat="44.49977" lon="6.59189">
        <ele>2251</ele>
        <time>2021-04-07T07:53:52Z</time>
      </trkpt>
      <trkpt lat="44.49976" lon="6.59189">
        <ele>2251</ele>
        <time>2021-04-07T07:53:53Z</time>
      </trkpt>
      <trkpt lat="44.49976" lon="6.59189">
        <ele>2252</ele>
        <time>2021-04-07T07:53:54Z</time>
      </trkpt>
      <trkpt lat="44.49975" lon="6.59189">
        <ele>2252</ele>
        <time>2021-04-07T07:53:55Z</time>
      </trkpt>
      <trkpt lat="44.49974" lon="6.59189">
        <ele>2252</ele>
        <time>2021-04-07T07:53:56Z</time>
      </trkpt>
      <trkpt lat="44.49973" lon="6.59189">
        <ele>2253</ele>
        <time>2021-04-07T07:53:57Z</time>
      </trkpt>
      <trkpt lat="44.49973" lon="6.5919">
        <ele>2253</ele>
        <time>2021-04-07T07:53:58Z</time>
      </trkpt>
      <trkpt lat="44.49973" lon="6.5919">
        <ele>2253</ele>
        <time>2021-04-07T07:53:59Z</time>
      </trkpt>
      <trkpt lat="44.49972" lon="6.5919">
        <ele>2253</ele>
        <time>2021-04-07T07:54:00Z</time>
      </trkpt>
      <trkpt lat="44.49971" lon="6.59191">
        <ele>2254</ele>
        <time>2021-04-07T07:54:01Z</time>
      </trkpt>
      <trkpt lat="44.4997" lon="6.59191">
        <ele>2254</ele>
        <time>2021-04-07T07:54:02Z</time>
      </trkpt>
      <trkpt lat="44.4997" lon="6.59192">
        <ele>2254</ele>
        <time>2021-04-07T07:54:03Z</time>
      </trkpt>
      <trkpt lat="44.49969" lon="6.59191">
        <ele>2254</ele>
        <time>2021-04-07T07:54:04Z</time>
      </trkpt>
      <trkpt lat="44.49969" lon="6.59192">
        <ele>2254</ele>
        <time>2021-04-07T07:54:05Z</time>
      </trkpt>
      <trkpt lat="44.49968" lon="6.59192">
        <ele>2254</ele>
        <time>2021-04-07T07:54:06Z</time>
      </trkpt>
      <trkpt lat="44.49967" lon="6.59192">
        <ele>2254</ele>
        <time>2021-04-07T07:54:07Z</time>
      </trkpt>
      <trkpt lat="44.49967" lon="6.59192">
        <ele>2255</ele>
        <time>2021-04-07T07:54:08Z</time>
      </trkpt>
      <trkpt lat="44.49966" lon="6.59191">
        <ele>2255</ele>
        <time>2021-04-07T07:54:09Z</time>
      </trkpt>
      <trkpt lat="44.49965" lon="6.59192">
        <ele>2255</ele>
        <time>2021-04-07T07:54:10Z</time>
      </trkpt>
      <trkpt lat="44.49964" lon="6.59192">
        <ele>2255</ele>
        <time>2021-04-07T07:54:11Z</time>
      </trkpt>
      <trkpt lat="44.49964" lon="6.59192">
        <ele>2255</ele>
        <time>2021-04-07T07:54:12Z</time>
      </trkpt>
      <trkpt lat="44.49963" lon="6.59192">
        <ele>2255</ele>
        <time>2021-04-07T07:54:13Z</time>
      </trkpt>
      <trkpt lat="44.49962" lon="6.59192">
        <ele>2255</ele>
        <time>2021-04-07T07:54:14Z</time>
      </trkpt>
      <trkpt lat="44.49962" lon="6.59192">
        <ele>2255</ele>
        <time>2021-04-07T07:54:15Z</time>
      </trkpt>
      <trkpt lat="44.49961" lon="6.59193">
        <ele>2255</ele>
        <time>2021-04-07T07:54:16Z</time>
      </trkpt>
      <trkpt lat="44.49961" lon="6.59193">
        <ele>2256</ele>
        <time>2021-04-07T07:54:17Z</time>
      </trkpt>
      <trkpt lat="44.4996" lon="6.59193">
        <ele>2256</ele>
        <time>2021-04-07T07:54:18Z</time>
      </trkpt>
      <trkpt lat="44.49959" lon="6.59193">
        <ele>2256</ele>
        <time>2021-04-07T07:54:19Z</time>
      </trkpt>
      <trkpt lat="44.49959" lon="6.59193">
        <ele>2256</ele>
        <time>2021-04-07T07:54:20Z</time>
      </trkpt>
      <trkpt lat="44.49958" lon="6.59193">
        <ele>2256</ele>
        <time>2021-04-07T07:54:21Z</time>
      </trkpt>
      <trkpt lat="44.49958" lon="6.59194">
        <ele>2256</ele>
        <time>2021-04-07T07:54:22Z</time>
      </trkpt>
      <trkpt lat="44.49957" lon="6.59194">
        <ele>2256</ele>
        <time>2021-04-07T07:54:23Z</time>
      </trkpt>
      <trkpt lat="44.49957" lon="6.59194">
        <ele>2256</ele>
        <time>2021-04-07T07:54:24Z</time>
      </trkpt>
      <trkpt lat="44.49956" lon="6.59195">
        <ele>2256</ele>
        <time>2021-04-07T07:54:25Z</time>
      </trkpt>
      <trkpt lat="44.49956" lon="6.59195">
        <ele>2257</ele>
        <time>2021-04-07T07:54:26Z</time>
      </trkpt>
      <trkpt lat="44.49955" lon="6.59195">
        <ele>2257</ele>
        <time>2021-04-07T07:54:27Z</time>
      </trkpt>
      <trkpt lat="44.49955" lon="6.59195">
        <ele>2257</ele>
        <time>2021-04-07T07:54:28Z</time>
      </trkpt>
      <trkpt lat="44.49954" lon="6.59196">
        <ele>2257</ele>
        <time>2021-04-07T07:54:29Z</time>
      </trkpt>
      <trkpt lat="44.49953" lon="6.59196">
        <ele>2257</ele>
        <time>2021-04-07T07:54:30Z</time>
      </trkpt>
      <trkpt lat="44.49952" lon="6.59196">
        <ele>2257</ele>
        <time>2021-04-07T07:54:31Z</time>
      </trkpt>
      <trkpt lat="44.49952" lon="6.59196">
        <ele>2257</ele>
        <time>2021-04-07T07:54:32Z</time>
      </trkpt>
      <trkpt lat="44.49952" lon="6.59197">
        <ele>2257</ele>
        <time>2021-04-07T07:54:33Z</time>
      </trkpt>
      <trkpt lat="44.49952" lon="6.59197">
        <ele>2258</ele>
        <time>2021-04-07T07:54:34Z</time>
      </trkpt>
      <trkpt lat="44.49951" lon="6.59197">
        <ele>2258</ele>
        <time>2021-04-07T07:54:35Z</time>
      </trkpt>
      <trkpt lat="44.49951" lon="6.59198">
        <ele>2258</ele>
        <time>2021-04-07T07:54:36Z</time>
      </trkpt>
      <trkpt lat="44.49951" lon="6.59198">
        <ele>2258</ele>
        <time>2021-04-07T07:54:37Z</time>
      </trkpt>
      <trkpt lat="44.4995" lon="6.59199">
        <ele>2258</ele>
        <time>2021-04-07T07:54:38Z</time>
      </trkpt>
      <trkpt lat="44.49949" lon="6.59199">
        <ele>2259</ele>
        <time>2021-04-07T07:54:39Z</time>
      </trkpt>
      <trkpt lat="44.49949" lon="6.59199">
        <ele>2259</ele>
        <time>2021-04-07T07:54:40Z</time>
      </trkpt>
      <trkpt lat="44.49948" lon="6.592">
        <ele>2259</ele>
        <time>2021-04-07T07:54:41Z</time>
      </trkpt>
      <trkpt lat="44.49948" lon="6.592">
        <ele>2259</ele>
        <time>2021-04-07T07:54:42Z</time>
      </trkpt>
      <trkpt lat="44.49948" lon="6.592">
        <ele>2259</ele>
        <time>2021-04-07T07:54:43Z</time>
      </trkpt>
      <trkpt lat="44.49947" lon="6.592">
        <ele>2260</ele>
        <time>2021-04-07T07:54:44Z</time>
      </trkpt>
      <trkpt lat="44.49946" lon="6.592">
        <ele>2260</ele>
        <time>2021-04-07T07:54:45Z</time>
      </trkpt>
      <trkpt lat="44.49946" lon="6.592">
        <ele>2260</ele>
        <time>2021-04-07T07:54:46Z</time>
      </trkpt>
      <trkpt lat="44.49945" lon="6.592">
        <ele>2260</ele>
        <time>2021-04-07T07:54:47Z</time>
      </trkpt>
      <trkpt lat="44.49944" lon="6.592">
        <ele>2261</ele>
        <time>2021-04-07T07:54:48Z</time>
      </trkpt>
      <trkpt lat="44.49943" lon="6.592">
        <ele>2261</ele>
        <time>2021-04-07T07:54:49Z</time>
      </trkpt>
      <trkpt lat="44.49943" lon="6.59201">
        <ele>2261</ele>
        <time>2021-04-07T07:54:50Z</time>
      </trkpt>
      <trkpt lat="44.49942" lon="6.59201">
        <ele>2261</ele>
        <time>2021-04-07T07:54:51Z</time>
      </trkpt>
      <trkpt lat="44.49941" lon="6.592">
        <ele>2262</ele>
        <time>2021-04-07T07:54:52Z</time>
      </trkpt>
      <trkpt lat="44.4994" lon="6.592">
        <ele>2262</ele>
        <time>2021-04-07T07:54:53Z</time>
      </trkpt>
      <trkpt lat="44.4994" lon="6.592">
        <ele>2262</ele>
        <time>2021-04-07T07:54:54Z</time>
      </trkpt>
      <trkpt lat="44.4994" lon="6.592">
        <ele>2262</ele>
        <time>2021-04-07T07:54:55Z</time>
      </trkpt>
      <trkpt lat="44.49939" lon="6.59199">
        <ele>2262</ele>
        <time>2021-04-07T07:54:56Z</time>
      </trkpt>
      <trkpt lat="44.49938" lon="6.59199">
        <ele>2262</ele>
        <time>2021-04-07T07:54:57Z</time>
      </trkpt>
      <trkpt lat="44.49938" lon="6.59199">
        <ele>2262</ele>
        <time>2021-04-07T07:54:58Z</time>
      </trkpt>
      <trkpt lat="44.49937" lon="6.592">
        <ele>2262</ele>
        <time>2021-04-07T07:54:59Z</time>
      </trkpt>
      <trkpt lat="44.49937" lon="6.592">
        <ele>2262</ele>
        <time>2021-04-07T07:55:00Z</time>
      </trkpt>
      <trkpt lat="44.49936" lon="6.592">
        <ele>2262</ele>
        <time>2021-04-07T07:55:01Z</time>
      </trkpt>
      <trkpt lat="44.49936" lon="6.592">
        <ele>2263</ele>
        <time>2021-04-07T07:55:02Z</time>
      </trkpt>
      <trkpt lat="44.49935" lon="6.59201">
        <ele>2263</ele>
        <time>2021-04-07T07:55:03Z</time>
      </trkpt>
      <trkpt lat="44.49935" lon="6.59202">
        <ele>2263</ele>
        <time>2021-04-07T07:55:04Z</time>
      </trkpt>
      <trkpt lat="44.49935" lon="6.59204">
        <ele>2263</ele>
        <time>2021-04-07T07:55:05Z</time>
      </trkpt>
      <trkpt lat="44.49934" lon="6.59204">
        <ele>2263</ele>
        <time>2021-04-07T07:55:06Z</time>
      </trkpt>
      <trkpt lat="44.49934" lon="6.59205">
        <ele>2263</ele>
        <time>2021-04-07T07:55:07Z</time>
      </trkpt>
      <trkpt lat="44.49934" lon="6.59206">
        <ele>2263</ele>
        <time>2021-04-07T07:55:08Z</time>
      </trkpt>
      <trkpt lat="44.49934" lon="6.59207">
        <ele>2263</ele>
        <time>2021-04-07T07:55:09Z</time>
      </trkpt>
      <trkpt lat="44.49934" lon="6.59208">
        <ele>2264</ele>
        <time>2021-04-07T07:55:10Z</time>
      </trkpt>
      <trkpt lat="44.49934" lon="6.59208">
        <ele>2264</ele>
        <time>2021-04-07T07:55:11Z</time>
      </trkpt>
      <trkpt lat="44.49934" lon="6.59209">
        <ele>2264</ele>
        <time>2021-04-07T07:55:12Z</time>
      </trkpt>
      <trkpt lat="44.49934" lon="6.5921">
        <ele>2264</ele>
        <time>2021-04-07T07:55:13Z</time>
      </trkpt>
      <trkpt lat="44.49934" lon="6.59211">
        <ele>2264</ele>
        <time>2021-04-07T07:55:14Z</time>
      </trkpt>
      <trkpt lat="44.49934" lon="6.59211">
        <ele>2264</ele>
        <time>2021-04-07T07:55:15Z</time>
      </trkpt>
      <trkpt lat="44.49934" lon="6.59212">
        <ele>2265</ele>
        <time>2021-04-07T07:55:16Z</time>
      </trkpt>
      <trkpt lat="44.49934" lon="6.59214">
        <ele>2266</ele>
        <time>2021-04-07T07:55:17Z</time>
      </trkpt>
      <trkpt lat="44.49933" lon="6.59215">
        <ele>2267</ele>
        <time>2021-04-07T07:55:18Z</time>
      </trkpt>
      <trkpt lat="44.49933" lon="6.59216">
        <ele>2267</ele>
        <time>2021-04-07T07:55:19Z</time>
      </trkpt>
      <trkpt lat="44.49933" lon="6.59217">
        <ele>2267</ele>
        <time>2021-04-07T07:55:20Z</time>
      </trkpt>
      <trkpt lat="44.49934" lon="6.59217">
        <ele>2267</ele>
        <time>2021-04-07T07:55:21Z</time>
      </trkpt>
      <trkpt lat="44.49933" lon="6.59218">
        <ele>2268</ele>
        <time>2021-04-07T07:55:22Z</time>
      </trkpt>
      <trkpt lat="44.49933" lon="6.59219">
        <ele>2268</ele>
        <time>2021-04-07T07:55:23Z</time>
      </trkpt>
      <trkpt lat="44.49933" lon="6.59219">
        <ele>2268</ele>
        <time>2021-04-07T07:55:24Z</time>
      </trkpt>
      <trkpt lat="44.49932" lon="6.5922">
        <ele>2268</ele>
        <time>2021-04-07T07:55:25Z</time>
      </trkpt>
      <trkpt lat="44.49932" lon="6.5922">
        <ele>2268</ele>
        <time>2021-04-07T07:55:26Z</time>
      </trkpt>
      <trkpt lat="44.49932" lon="6.59221">
        <ele>2268</ele>
        <time>2021-04-07T07:55:27Z</time>
      </trkpt>
      <trkpt lat="44.49932" lon="6.59222">
        <ele>2269</ele>
        <time>2021-04-07T07:55:28Z</time>
      </trkpt>
      <trkpt lat="44.49932" lon="6.59222">
        <ele>2269</ele>
        <time>2021-04-07T07:55:29Z</time>
      </trkpt>
      <trkpt lat="44.49931" lon="6.59223">
        <ele>2269</ele>
        <time>2021-04-07T07:55:30Z</time>
      </trkpt>
      <trkpt lat="44.49931" lon="6.59222">
        <ele>2269</ele>
        <time>2021-04-07T07:55:31Z</time>
      </trkpt>
      <trkpt lat="44.4993" lon="6.59222">
        <ele>2269</ele>
        <time>2021-04-07T07:55:32Z</time>
      </trkpt>
      <trkpt lat="44.4993" lon="6.59221">
        <ele>2269</ele>
        <time>2021-04-07T07:55:33Z</time>
      </trkpt>
      <trkpt lat="44.49929" lon="6.59221">
        <ele>2270</ele>
        <time>2021-04-07T07:55:34Z</time>
      </trkpt>
      <trkpt lat="44.49929" lon="6.59221">
        <ele>2270</ele>
        <time>2021-04-07T07:55:35Z</time>
      </trkpt>
      <trkpt lat="44.49928" lon="6.59221">
        <ele>2270</ele>
        <time>2021-04-07T07:55:36Z</time>
      </trkpt>
      <trkpt lat="44.49928" lon="6.5922">
        <ele>2270</ele>
        <time>2021-04-07T07:55:37Z</time>
      </trkpt>
      <trkpt lat="44.49927" lon="6.5922">
        <ele>2271</ele>
        <time>2021-04-07T07:55:38Z</time>
      </trkpt>
      <trkpt lat="44.49927" lon="6.5922">
        <ele>2271</ele>
        <time>2021-04-07T07:55:39Z</time>
      </trkpt>
      <trkpt lat="44.49926" lon="6.5922">
        <ele>2271</ele>
        <time>2021-04-07T07:55:40Z</time>
      </trkpt>
      <trkpt lat="44.49925" lon="6.59219">
        <ele>2272</ele>
        <time>2021-04-07T07:55:41Z</time>
      </trkpt>
      <trkpt lat="44.49925" lon="6.59219">
        <ele>2272</ele>
        <time>2021-04-07T07:55:42Z</time>
      </trkpt>
      <trkpt lat="44.49924" lon="6.59218">
        <ele>2272</ele>
        <time>2021-04-07T07:55:43Z</time>
      </trkpt>
      <trkpt lat="44.49924" lon="6.59217">
        <ele>2272</ele>
        <time>2021-04-07T07:55:44Z</time>
      </trkpt>
      <trkpt lat="44.49923" lon="6.59217">
        <ele>2272</ele>
        <time>2021-04-07T07:55:45Z</time>
      </trkpt>
      <trkpt lat="44.49922" lon="6.59217">
        <ele>2273</ele>
        <time>2021-04-07T07:55:46Z</time>
      </trkpt>
      <trkpt lat="44.49921" lon="6.59216">
        <ele>2273</ele>
        <time>2021-04-07T07:55:47Z</time>
      </trkpt>
      <trkpt lat="44.4992" lon="6.59216">
        <ele>2273</ele>
        <time>2021-04-07T07:55:48Z</time>
      </trkpt>
      <trkpt lat="44.49919" lon="6.59215">
        <ele>2273</ele>
        <time>2021-04-07T07:55:49Z</time>
      </trkpt>
      <trkpt lat="44.49918" lon="6.59215">
        <ele>2273</ele>
        <time>2021-04-07T07:55:50Z</time>
      </trkpt>
      <trkpt lat="44.49918" lon="6.59215">
        <ele>2274</ele>
        <time>2021-04-07T07:55:51Z</time>
      </trkpt>
      <trkpt lat="44.49917" lon="6.59215">
        <ele>2274</ele>
        <time>2021-04-07T07:55:52Z</time>
      </trkpt>
      <trkpt lat="44.49916" lon="6.59214">
        <ele>2274</ele>
        <time>2021-04-07T07:55:53Z</time>
      </trkpt>
      <trkpt lat="44.49915" lon="6.59214">
        <ele>2274</ele>
        <time>2021-04-07T07:55:54Z</time>
      </trkpt>
      <trkpt lat="44.49915" lon="6.59213">
        <ele>2274</ele>
        <time>2021-04-07T07:55:55Z</time>
      </trkpt>
      <trkpt lat="44.49914" lon="6.59213">
        <ele>2274</ele>
        <time>2021-04-07T07:55:56Z</time>
      </trkpt>
      <trkpt lat="44.49913" lon="6.59212">
        <ele>2274</ele>
        <time>2021-04-07T07:55:57Z</time>
      </trkpt>
      <trkpt lat="44.49912" lon="6.59211">
        <ele>2274</ele>
        <time>2021-04-07T07:55:58Z</time>
      </trkpt>
      <trkpt lat="44.49912" lon="6.5921">
        <ele>2275</ele>
        <time>2021-04-07T07:55:59Z</time>
      </trkpt>
      <trkpt lat="44.49911" lon="6.5921">
        <ele>2275</ele>
        <time>2021-04-07T07:56:00Z</time>
      </trkpt>
      <trkpt lat="44.49911" lon="6.59209">
        <ele>2275</ele>
        <time>2021-04-07T07:56:01Z</time>
      </trkpt>
      <trkpt lat="44.4991" lon="6.59208">
        <ele>2275</ele>
        <time>2021-04-07T07:56:02Z</time>
      </trkpt>
      <trkpt lat="44.4991" lon="6.59208">
        <ele>2275</ele>
        <time>2021-04-07T07:56:03Z</time>
      </trkpt>
      <trkpt lat="44.49909" lon="6.59207">
        <ele>2275</ele>
        <time>2021-04-07T07:56:04Z</time>
      </trkpt>
      <trkpt lat="44.49909" lon="6.59206">
        <ele>2275</ele>
        <time>2021-04-07T07:56:05Z</time>
      </trkpt>
      <trkpt lat="44.49908" lon="6.59205">
        <ele>2276</ele>
        <time>2021-04-07T07:56:06Z</time>
      </trkpt>
      <trkpt lat="44.49908" lon="6.59204">
        <ele>2276</ele>
        <time>2021-04-07T07:56:07Z</time>
      </trkpt>
      <trkpt lat="44.49907" lon="6.59203">
        <ele>2276</ele>
        <time>2021-04-07T07:56:08Z</time>
      </trkpt>
      <trkpt lat="44.49907" lon="6.59202">
        <ele>2276</ele>
        <time>2021-04-07T07:56:09Z</time>
      </trkpt>
      <trkpt lat="44.49907" lon="6.59201">
        <ele>2277</ele>
        <time>2021-04-07T07:56:10Z</time>
      </trkpt>
      <trkpt lat="44.49907" lon="6.59201">
        <ele>2277</ele>
        <time>2021-04-07T07:56:11Z</time>
      </trkpt>
      <trkpt lat="44.49907" lon="6.592">
        <ele>2277</ele>
        <time>2021-04-07T07:56:12Z</time>
      </trkpt>
      <trkpt lat="44.49906" lon="6.59199">
        <ele>2277</ele>
        <time>2021-04-07T07:56:13Z</time>
      </trkpt>
      <trkpt lat="44.49906" lon="6.59199">
        <ele>2277</ele>
        <time>2021-04-07T07:56:14Z</time>
      </trkpt>
      <trkpt lat="44.49905" lon="6.59198">
        <ele>2278</ele>
        <time>2021-04-07T07:56:15Z</time>
      </trkpt>
      <trkpt lat="44.49904" lon="6.59198">
        <ele>2278</ele>
        <time>2021-04-07T07:56:16Z</time>
      </trkpt>
      <trkpt lat="44.49904" lon="6.59198">
        <ele>2279</ele>
        <time>2021-04-07T07:56:17Z</time>
      </trkpt>
      <trkpt lat="44.49903" lon="6.59197">
        <ele>2279</ele>
        <time>2021-04-07T07:56:18Z</time>
      </trkpt>
      <trkpt lat="44.49903" lon="6.59197">
        <ele>2279</ele>
        <time>2021-04-07T07:56:19Z</time>
      </trkpt>
      <trkpt lat="44.49902" lon="6.59197">
        <ele>2279</ele>
        <time>2021-04-07T07:56:20Z</time>
      </trkpt>
      <trkpt lat="44.49901" lon="6.59196">
        <ele>2280</ele>
        <time>2021-04-07T07:56:21Z</time>
      </trkpt>
      <trkpt lat="44.499" lon="6.59196">
        <ele>2280</ele>
        <time>2021-04-07T07:56:22Z</time>
      </trkpt>
      <trkpt lat="44.499" lon="6.59195">
        <ele>2280</ele>
        <time>2021-04-07T07:56:23Z</time>
      </trkpt>
      <trkpt lat="44.49899" lon="6.59195">
        <ele>2281</ele>
        <time>2021-04-07T07:56:24Z</time>
      </trkpt>
      <trkpt lat="44.49898" lon="6.59195">
        <ele>2281</ele>
        <time>2021-04-07T07:56:25Z</time>
      </trkpt>
      <trkpt lat="44.49898" lon="6.59195">
        <ele>2281</ele>
        <time>2021-04-07T07:56:26Z</time>
      </trkpt>
      <trkpt lat="44.49898" lon="6.59194">
        <ele>2281</ele>
        <time>2021-04-07T07:56:27Z</time>
      </trkpt>
      <trkpt lat="44.49897" lon="6.59194">
        <ele>2281</ele>
        <time>2021-04-07T07:56:28Z</time>
      </trkpt>
      <trkpt lat="44.49897" lon="6.59193">
        <ele>2281</ele>
        <time>2021-04-07T07:56:29Z</time>
      </trkpt>
      <trkpt lat="44.49896" lon="6.59193">
        <ele>2282</ele>
        <time>2021-04-07T07:56:30Z</time>
      </trkpt>
      <trkpt lat="44.49895" lon="6.59192">
        <ele>2282</ele>
        <time>2021-04-07T07:56:31Z</time>
      </trkpt>
      <trkpt lat="44.49895" lon="6.59192">
        <ele>2282</ele>
        <time>2021-04-07T07:56:32Z</time>
      </trkpt>
      <trkpt lat="44.49894" lon="6.59193">
        <ele>2282</ele>
        <time>2021-04-07T07:56:33Z</time>
      </trkpt>
      <trkpt lat="44.49894" lon="6.59193">
        <ele>2282</ele>
        <time>2021-04-07T07:56:34Z</time>
      </trkpt>
      <trkpt lat="44.49893" lon="6.59194">
        <ele>2283</ele>
        <time>2021-04-07T07:56:35Z</time>
      </trkpt>
      <trkpt lat="44.49892" lon="6.59194">
        <ele>2283</ele>
        <time>2021-04-07T07:56:36Z</time>
      </trkpt>
      <trkpt lat="44.49892" lon="6.59194">
        <ele>2283</ele>
        <time>2021-04-07T07:56:37Z</time>
      </trkpt>
      <trkpt lat="44.49892" lon="6.59194">
        <ele>2283</ele>
        <time>2021-04-07T07:56:38Z</time>
      </trkpt>
      <trkpt lat="44.49891" lon="6.59193">
        <ele>2283</ele>
        <time>2021-04-07T07:56:39Z</time>
      </trkpt>
      <trkpt lat="44.49891" lon="6.59193">
        <ele>2283</ele>
        <time>2021-04-07T07:56:40Z</time>
      </trkpt>
      <trkpt lat="44.4989" lon="6.59192">
        <ele>2284</ele>
        <time>2021-04-07T07:56:41Z</time>
      </trkpt>
      <trkpt lat="44.4989" lon="6.59192">
        <ele>2284</ele>
        <time>2021-04-07T07:56:42Z</time>
      </trkpt>
      <trkpt lat="44.49889" lon="6.59191">
        <ele>2284</ele>
        <time>2021-04-07T07:56:43Z</time>
      </trkpt>
      <trkpt lat="44.49889" lon="6.5919">
        <ele>2284</ele>
        <time>2021-04-07T07:56:44Z</time>
      </trkpt>
      <trkpt lat="44.49888" lon="6.59189">
        <ele>2285</ele>
        <time>2021-04-07T07:56:45Z</time>
      </trkpt>
      <trkpt lat="44.49888" lon="6.59189">
        <ele>2285</ele>
        <time>2021-04-07T07:56:46Z</time>
      </trkpt>
      <trkpt lat="44.49887" lon="6.59188">
        <ele>2285</ele>
        <time>2021-04-07T07:56:47Z</time>
      </trkpt>
      <trkpt lat="44.49886" lon="6.59188">
        <ele>2285</ele>
        <time>2021-04-07T07:56:48Z</time>
      </trkpt>
      <trkpt lat="44.49886" lon="6.59187">
        <ele>2286</ele>
        <time>2021-04-07T07:56:49Z</time>
      </trkpt>
      <trkpt lat="44.49885" lon="6.59187">
        <ele>2286</ele>
        <time>2021-04-07T07:56:50Z</time>
      </trkpt>
      <trkpt lat="44.49884" lon="6.59186">
        <ele>2286</ele>
        <time>2021-04-07T07:56:51Z</time>
      </trkpt>
      <trkpt lat="44.49884" lon="6.59186">
        <ele>2286</ele>
        <time>2021-04-07T07:56:52Z</time>
      </trkpt>
      <trkpt lat="44.49883" lon="6.59186">
        <ele>2286</ele>
        <time>2021-04-07T07:56:53Z</time>
      </trkpt>
      <trkpt lat="44.49883" lon="6.59186">
        <ele>2287</ele>
        <time>2021-04-07T07:56:54Z</time>
      </trkpt>
      <trkpt lat="44.49882" lon="6.59185">
        <ele>2287</ele>
        <time>2021-04-07T07:56:55Z</time>
      </trkpt>
      <trkpt lat="44.49882" lon="6.59185">
        <ele>2287</ele>
        <time>2021-04-07T07:56:56Z</time>
      </trkpt>
      <trkpt lat="44.49882" lon="6.59185">
        <ele>2287</ele>
        <time>2021-04-07T07:56:57Z</time>
      </trkpt>
      <trkpt lat="44.49881" lon="6.59185">
        <ele>2288</ele>
        <time>2021-04-07T07:56:58Z</time>
      </trkpt>
      <trkpt lat="44.4988" lon="6.59185">
        <ele>2288</ele>
        <time>2021-04-07T07:56:59Z</time>
      </trkpt>
      <trkpt lat="44.4988" lon="6.59185">
        <ele>2288</ele>
        <time>2021-04-07T07:57:00Z</time>
      </trkpt>
      <trkpt lat="44.49879" lon="6.59184">
        <ele>2289</ele>
        <time>2021-04-07T07:57:01Z</time>
      </trkpt>
      <trkpt lat="44.49879" lon="6.59184">
        <ele>2289</ele>
        <time>2021-04-07T07:57:02Z</time>
      </trkpt>
      <trkpt lat="44.49878" lon="6.59183">
        <ele>2289</ele>
        <time>2021-04-07T07:57:03Z</time>
      </trkpt>
      <trkpt lat="44.49878" lon="6.59184">
        <ele>2289</ele>
        <time>2021-04-07T07:57:04Z</time>
      </trkpt>
      <trkpt lat="44.49877" lon="6.59184">
        <ele>2289</ele>
        <time>2021-04-07T07:57:05Z</time>
      </trkpt>
      <trkpt lat="44.49877" lon="6.59184">
        <ele>2289</ele>
        <time>2021-04-07T07:57:06Z</time>
      </trkpt>
      <trkpt lat="44.49877" lon="6.59184">
        <ele>2289</ele>
        <time>2021-04-07T07:57:07Z</time>
      </trkpt>
      <trkpt lat="44.49876" lon="6.59184">
        <ele>2290</ele>
        <time>2021-04-07T07:57:08Z</time>
      </trkpt>
      <trkpt lat="44.49876" lon="6.59183">
        <ele>2290</ele>
        <time>2021-04-07T07:57:09Z</time>
      </trkpt>
      <trkpt lat="44.49875" lon="6.59183">
        <ele>2290</ele>
        <time>2021-04-07T07:57:10Z</time>
      </trkpt>
      <trkpt lat="44.49875" lon="6.59183">
        <ele>2290</ele>
        <time>2021-04-07T07:57:11Z</time>
      </trkpt>
      <trkpt lat="44.49874" lon="6.59183">
        <ele>2290</ele>
        <time>2021-04-07T07:57:12Z</time>
      </trkpt>
      <trkpt lat="44.49874" lon="6.59182">
        <ele>2291</ele>
        <time>2021-04-07T07:57:13Z</time>
      </trkpt>
      <trkpt lat="44.49873" lon="6.59182">
        <ele>2291</ele>
        <time>2021-04-07T07:57:14Z</time>
      </trkpt>
      <trkpt lat="44.49872" lon="6.59181">
        <ele>2291</ele>
        <time>2021-04-07T07:57:15Z</time>
      </trkpt>
      <trkpt lat="44.49871" lon="6.59181">
        <ele>2291</ele>
        <time>2021-04-07T07:57:16Z</time>
      </trkpt>
      <trkpt lat="44.4987" lon="6.5918">
        <ele>2291</ele>
        <time>2021-04-07T07:57:17Z</time>
      </trkpt>
      <trkpt lat="44.4987" lon="6.59179">
        <ele>2292</ele>
        <time>2021-04-07T07:57:18Z</time>
      </trkpt>
      <trkpt lat="44.49869" lon="6.59179">
        <ele>2292</ele>
        <time>2021-04-07T07:57:19Z</time>
      </trkpt>
      <trkpt lat="44.49868" lon="6.59178">
        <ele>2292</ele>
        <time>2021-04-07T07:57:20Z</time>
      </trkpt>
      <trkpt lat="44.49868" lon="6.59177">
        <ele>2292</ele>
        <time>2021-04-07T07:57:21Z</time>
      </trkpt>
      <trkpt lat="44.49867" lon="6.59177">
        <ele>2292</ele>
        <time>2021-04-07T07:57:22Z</time>
      </trkpt>
      <trkpt lat="44.49866" lon="6.59177">
        <ele>2292</ele>
        <time>2021-04-07T07:57:23Z</time>
      </trkpt>
      <trkpt lat="44.49866" lon="6.59176">
        <ele>2293</ele>
        <time>2021-04-07T07:57:24Z</time>
      </trkpt>
      <trkpt lat="44.49865" lon="6.59176">
        <ele>2293</ele>
        <time>2021-04-07T07:57:25Z</time>
      </trkpt>
      <trkpt lat="44.49865" lon="6.59175">
        <ele>2293</ele>
        <time>2021-04-07T07:57:26Z</time>
      </trkpt>
      <trkpt lat="44.49865" lon="6.59174">
        <ele>2293</ele>
        <time>2021-04-07T07:57:27Z</time>
      </trkpt>
      <trkpt lat="44.49865" lon="6.59174">
        <ele>2293</ele>
        <time>2021-04-07T07:57:28Z</time>
      </trkpt>
      <trkpt lat="44.49865" lon="6.59173">
        <ele>2293</ele>
        <time>2021-04-07T07:57:29Z</time>
      </trkpt>
      <trkpt lat="44.49864" lon="6.59173">
        <ele>2293</ele>
        <time>2021-04-07T07:57:30Z</time>
      </trkpt>
      <trkpt lat="44.49864" lon="6.59173">
        <ele>2293</ele>
        <time>2021-04-07T07:57:31Z</time>
      </trkpt>
      <trkpt lat="44.49863" lon="6.59172">
        <ele>2294</ele>
        <time>2021-04-07T07:57:32Z</time>
      </trkpt>
      <trkpt lat="44.49862" lon="6.59171">
        <ele>2294</ele>
        <time>2021-04-07T07:57:33Z</time>
      </trkpt>
      <trkpt lat="44.49862" lon="6.59171">
        <ele>2294</ele>
        <time>2021-04-07T07:57:34Z</time>
      </trkpt>
      <trkpt lat="44.49861" lon="6.5917">
        <ele>2294</ele>
        <time>2021-04-07T07:57:35Z</time>
      </trkpt>
      <trkpt lat="44.49861" lon="6.5917">
        <ele>2294</ele>
        <time>2021-04-07T07:57:36Z</time>
      </trkpt>
      <trkpt lat="44.4986" lon="6.59169">
        <ele>2294</ele>
        <time>2021-04-07T07:57:37Z</time>
      </trkpt>
      <trkpt lat="44.49859" lon="6.59169">
        <ele>2295</ele>
        <time>2021-04-07T07:57:38Z</time>
      </trkpt>
      <trkpt lat="44.49859" lon="6.59168">
        <ele>2295</ele>
        <time>2021-04-07T07:57:39Z</time>
      </trkpt>
      <trkpt lat="44.49858" lon="6.59167">
        <ele>2295</ele>
        <time>2021-04-07T07:57:40Z</time>
      </trkpt>
      <trkpt lat="44.49857" lon="6.59167">
        <ele>2295</ele>
        <time>2021-04-07T07:57:41Z</time>
      </trkpt>
      <trkpt lat="44.49857" lon="6.59167">
        <ele>2295</ele>
        <time>2021-04-07T07:57:42Z</time>
      </trkpt>
      <trkpt lat="44.49856" lon="6.59167">
        <ele>2295</ele>
        <time>2021-04-07T07:57:43Z</time>
      </trkpt>
      <trkpt lat="44.49855" lon="6.59167">
        <ele>2295</ele>
        <time>2021-04-07T07:57:44Z</time>
      </trkpt>
      <trkpt lat="44.49854" lon="6.59166">
        <ele>2295</ele>
        <time>2021-04-07T07:57:45Z</time>
      </trkpt>
      <trkpt lat="44.49854" lon="6.59166">
        <ele>2296</ele>
        <time>2021-04-07T07:57:46Z</time>
      </trkpt>
      <trkpt lat="44.49853" lon="6.59166">
        <ele>2296</ele>
        <time>2021-04-07T07:57:47Z</time>
      </trkpt>
      <trkpt lat="44.49852" lon="6.59165">
        <ele>2296</ele>
        <time>2021-04-07T07:57:48Z</time>
      </trkpt>
      <trkpt lat="44.49852" lon="6.59165">
        <ele>2296</ele>
        <time>2021-04-07T07:57:49Z</time>
      </trkpt>
      <trkpt lat="44.49851" lon="6.59165">
        <ele>2296</ele>
        <time>2021-04-07T07:57:50Z</time>
      </trkpt>
      <trkpt lat="44.4985" lon="6.59164">
        <ele>2297</ele>
        <time>2021-04-07T07:57:51Z</time>
      </trkpt>
      <trkpt lat="44.49849" lon="6.59164">
        <ele>2297</ele>
        <time>2021-04-07T07:57:52Z</time>
      </trkpt>
      <trkpt lat="44.49848" lon="6.59164">
        <ele>2297</ele>
        <time>2021-04-07T07:57:53Z</time>
      </trkpt>
      <trkpt lat="44.49848" lon="6.59164">
        <ele>2297</ele>
        <time>2021-04-07T07:57:54Z</time>
      </trkpt>
      <trkpt lat="44.49847" lon="6.59164">
        <ele>2298</ele>
        <time>2021-04-07T07:57:55Z</time>
      </trkpt>
      <trkpt lat="44.49847" lon="6.59163">
        <ele>2298</ele>
        <time>2021-04-07T07:57:56Z</time>
      </trkpt>
      <trkpt lat="44.49846" lon="6.59163">
        <ele>2298</ele>
        <time>2021-04-07T07:57:57Z</time>
      </trkpt>
      <trkpt lat="44.49846" lon="6.59162">
        <ele>2298</ele>
        <time>2021-04-07T07:57:58Z</time>
      </trkpt>
      <trkpt lat="44.49845" lon="6.59162">
        <ele>2298</ele>
        <time>2021-04-07T07:57:59Z</time>
      </trkpt>
      <trkpt lat="44.49844" lon="6.59162">
        <ele>2298</ele>
        <time>2021-04-07T07:58:00Z</time>
      </trkpt>
      <trkpt lat="44.49844" lon="6.59161">
        <ele>2299</ele>
        <time>2021-04-07T07:58:01Z</time>
      </trkpt>
      <trkpt lat="44.49843" lon="6.59161">
        <ele>2299</ele>
        <time>2021-04-07T07:58:02Z</time>
      </trkpt>
      <trkpt lat="44.49842" lon="6.5916">
        <ele>2299</ele>
        <time>2021-04-07T07:58:03Z</time>
      </trkpt>
      <trkpt lat="44.49842" lon="6.5916">
        <ele>2299</ele>
        <time>2021-04-07T07:58:04Z</time>
      </trkpt>
      <trkpt lat="44.49841" lon="6.5916">
        <ele>2299</ele>
        <time>2021-04-07T07:58:05Z</time>
      </trkpt>
      <trkpt lat="44.4984" lon="6.5916">
        <ele>2300</ele>
        <time>2021-04-07T07:58:06Z</time>
      </trkpt>
      <trkpt lat="44.49839" lon="6.59159">
        <ele>2300</ele>
        <time>2021-04-07T07:58:07Z</time>
      </trkpt>
      <trkpt lat="44.49839" lon="6.59158">
        <ele>2300</ele>
        <time>2021-04-07T07:58:08Z</time>
      </trkpt>
      <trkpt lat="44.49838" lon="6.59158">
        <ele>2301</ele>
        <time>2021-04-07T07:58:09Z</time>
      </trkpt>
      <trkpt lat="44.49837" lon="6.59157">
        <ele>2301</ele>
        <time>2021-04-07T07:58:10Z</time>
      </trkpt>
      <trkpt lat="44.49837" lon="6.59157">
        <ele>2301</ele>
        <time>2021-04-07T07:58:11Z</time>
      </trkpt>
      <trkpt lat="44.49836" lon="6.59156">
        <ele>2301</ele>
        <time>2021-04-07T07:58:12Z</time>
      </trkpt>
      <trkpt lat="44.49836" lon="6.59155">
        <ele>2302</ele>
        <time>2021-04-07T07:58:13Z</time>
      </trkpt>
      <trkpt lat="44.49835" lon="6.59155">
        <ele>2302</ele>
        <time>2021-04-07T07:58:14Z</time>
      </trkpt>
      <trkpt lat="44.49835" lon="6.59154">
        <ele>2302</ele>
        <time>2021-04-07T07:58:15Z</time>
      </trkpt>
      <trkpt lat="44.49834" lon="6.59154">
        <ele>2302</ele>
        <time>2021-04-07T07:58:16Z</time>
      </trkpt>
      <trkpt lat="44.49834" lon="6.59153">
        <ele>2302</ele>
        <time>2021-04-07T07:58:17Z</time>
      </trkpt>
      <trkpt lat="44.49833" lon="6.59152">
        <ele>2303</ele>
        <time>2021-04-07T07:58:18Z</time>
      </trkpt>
      <trkpt lat="44.49833" lon="6.59152">
        <ele>2303</ele>
        <time>2021-04-07T07:58:19Z</time>
      </trkpt>
      <trkpt lat="44.49832" lon="6.59151">
        <ele>2303</ele>
        <time>2021-04-07T07:58:20Z</time>
      </trkpt>
      <trkpt lat="44.49831" lon="6.59151">
        <ele>2303</ele>
        <time>2021-04-07T07:58:21Z</time>
      </trkpt>
      <trkpt lat="44.49831" lon="6.5915">
        <ele>2304</ele>
        <time>2021-04-07T07:58:22Z</time>
      </trkpt>
      <trkpt lat="44.4983" lon="6.5915">
        <ele>2304</ele>
        <time>2021-04-07T07:58:23Z</time>
      </trkpt>
      <trkpt lat="44.4983" lon="6.59149">
        <ele>2304</ele>
        <time>2021-04-07T07:58:24Z</time>
      </trkpt>
      <trkpt lat="44.49829" lon="6.59149">
        <ele>2304</ele>
        <time>2021-04-07T07:58:25Z</time>
      </trkpt>
      <trkpt lat="44.49829" lon="6.59148">
        <ele>2304</ele>
        <time>2021-04-07T07:58:26Z</time>
      </trkpt>
      <trkpt lat="44.49828" lon="6.59148">
        <ele>2305</ele>
        <time>2021-04-07T07:58:27Z</time>
      </trkpt>
      <trkpt lat="44.49828" lon="6.59147">
        <ele>2305</ele>
        <time>2021-04-07T07:58:28Z</time>
      </trkpt>
      <trkpt lat="44.49827" lon="6.59147">
        <ele>2305</ele>
        <time>2021-04-07T07:58:29Z</time>
      </trkpt>
      <trkpt lat="44.49827" lon="6.59146">
        <ele>2305</ele>
        <time>2021-04-07T07:58:30Z</time>
      </trkpt>
      <trkpt lat="44.49826" lon="6.59146">
        <ele>2306</ele>
        <time>2021-04-07T07:58:31Z</time>
      </trkpt>
      <trkpt lat="44.49825" lon="6.59146">
        <ele>2306</ele>
        <time>2021-04-07T07:58:32Z</time>
      </trkpt>
      <trkpt lat="44.49824" lon="6.59145">
        <ele>2306</ele>
        <time>2021-04-07T07:58:33Z</time>
      </trkpt>
      <trkpt lat="44.49824" lon="6.59145">
        <ele>2306</ele>
        <time>2021-04-07T07:58:34Z</time>
      </trkpt>
      <trkpt lat="44.49823" lon="6.59144">
        <ele>2307</ele>
        <time>2021-04-07T07:58:35Z</time>
      </trkpt>
      <trkpt lat="44.49822" lon="6.59144">
        <ele>2307</ele>
        <time>2021-04-07T07:58:36Z</time>
      </trkpt>
      <trkpt lat="44.49821" lon="6.59144">
        <ele>2307</ele>
        <time>2021-04-07T07:58:37Z</time>
      </trkpt>
      <trkpt lat="44.4982" lon="6.59143">
        <ele>2307</ele>
        <time>2021-04-07T07:58:38Z</time>
      </trkpt>
      <trkpt lat="44.4982" lon="6.59143">
        <ele>2308</ele>
        <time>2021-04-07T07:58:39Z</time>
      </trkpt>
      <trkpt lat="44.4982" lon="6.59142">
        <ele>2308</ele>
        <time>2021-04-07T07:58:40Z</time>
      </trkpt>
      <trkpt lat="44.49819" lon="6.59142">
        <ele>2308</ele>
        <time>2021-04-07T07:58:41Z</time>
      </trkpt>
      <trkpt lat="44.49818" lon="6.59141">
        <ele>2308</ele>
        <time>2021-04-07T07:58:42Z</time>
      </trkpt>
      <trkpt lat="44.49818" lon="6.5914">
        <ele>2308</ele>
        <time>2021-04-07T07:58:43Z</time>
      </trkpt>
      <trkpt lat="44.49817" lon="6.5914">
        <ele>2309</ele>
        <time>2021-04-07T07:58:44Z</time>
      </trkpt>
      <trkpt lat="44.49817" lon="6.59139">
        <ele>2309</ele>
        <time>2021-04-07T07:58:45Z</time>
      </trkpt>
      <trkpt lat="44.49817" lon="6.59138">
        <ele>2309</ele>
        <time>2021-04-07T07:58:46Z</time>
      </trkpt>
      <trkpt lat="44.49816" lon="6.59138">
        <ele>2310</ele>
        <time>2021-04-07T07:58:47Z</time>
      </trkpt>
      <trkpt lat="44.49816" lon="6.59137">
        <ele>2310</ele>
        <time>2021-04-07T07:58:48Z</time>
      </trkpt>
      <trkpt lat="44.49815" lon="6.59137">
        <ele>2310</ele>
        <time>2021-04-07T07:58:49Z</time>
      </trkpt>
      <trkpt lat="44.49815" lon="6.59137">
        <ele>2310</ele>
        <time>2021-04-07T07:58:50Z</time>
      </trkpt>
      <trkpt lat="44.49814" lon="6.59136">
        <ele>2310</ele>
        <time>2021-04-07T07:58:51Z</time>
      </trkpt>
      <trkpt lat="44.49814" lon="6.59136">
        <ele>2310</ele>
        <time>2021-04-07T07:58:52Z</time>
      </trkpt>
      <trkpt lat="44.49813" lon="6.59136">
        <ele>2310</ele>
        <time>2021-04-07T07:58:53Z</time>
      </trkpt>
      <trkpt lat="44.49813" lon="6.59135">
        <ele>2310</ele>
        <time>2021-04-07T07:58:54Z</time>
      </trkpt>
      <trkpt lat="44.49812" lon="6.59134">
        <ele>2311</ele>
        <time>2021-04-07T07:58:55Z</time>
      </trkpt>
      <trkpt lat="44.49812" lon="6.59134">
        <ele>2311</ele>
        <time>2021-04-07T07:58:56Z</time>
      </trkpt>
      <trkpt lat="44.49811" lon="6.59133">
        <ele>2311</ele>
        <time>2021-04-07T07:58:57Z</time>
      </trkpt>
      <trkpt lat="44.49811" lon="6.59132">
        <ele>2311</ele>
        <time>2021-04-07T07:58:58Z</time>
      </trkpt>
      <trkpt lat="44.49811" lon="6.59132">
        <ele>2311</ele>
        <time>2021-04-07T07:58:59Z</time>
      </trkpt>
      <trkpt lat="44.49811" lon="6.59131">
        <ele>2312</ele>
        <time>2021-04-07T07:59:00Z</time>
      </trkpt>
      <trkpt lat="44.4981" lon="6.5913">
        <ele>2312</ele>
        <time>2021-04-07T07:59:01Z</time>
      </trkpt>
      <trkpt lat="44.4981" lon="6.59129">
        <ele>2312</ele>
        <time>2021-04-07T07:59:02Z</time>
      </trkpt>
      <trkpt lat="44.4981" lon="6.59129">
        <ele>2312</ele>
        <time>2021-04-07T07:59:03Z</time>
      </trkpt>
      <trkpt lat="44.49809" lon="6.59128">
        <ele>2312</ele>
        <time>2021-04-07T07:59:04Z</time>
      </trkpt>
      <trkpt lat="44.49809" lon="6.59128">
        <ele>2312</ele>
        <time>2021-04-07T07:59:05Z</time>
      </trkpt>
      <trkpt lat="44.49809" lon="6.59127">
        <ele>2313</ele>
        <time>2021-04-07T07:59:06Z</time>
      </trkpt>
      <trkpt lat="44.49809" lon="6.59126">
        <ele>2313</ele>
        <time>2021-04-07T07:59:07Z</time>
      </trkpt>
      <trkpt lat="44.49809" lon="6.59126">
        <ele>2313</ele>
        <time>2021-04-07T07:59:08Z</time>
      </trkpt>
      <trkpt lat="44.49809" lon="6.59124">
        <ele>2313</ele>
        <time>2021-04-07T07:59:09Z</time>
      </trkpt>
      <trkpt lat="44.49809" lon="6.59123">
        <ele>2313</ele>
        <time>2021-04-07T07:59:10Z</time>
      </trkpt>
      <trkpt lat="44.49809" lon="6.59122">
        <ele>2313</ele>
        <time>2021-04-07T07:59:11Z</time>
      </trkpt>
      <trkpt lat="44.49809" lon="6.59122">
        <ele>2313</ele>
        <time>2021-04-07T07:59:12Z</time>
      </trkpt>
      <trkpt lat="44.49809" lon="6.59121">
        <ele>2314</ele>
        <time>2021-04-07T07:59:13Z</time>
      </trkpt>
      <trkpt lat="44.49808" lon="6.59121">
        <ele>2314</ele>
        <time>2021-04-07T07:59:14Z</time>
      </trkpt>
      <trkpt lat="44.49808" lon="6.59121">
        <ele>2314</ele>
        <time>2021-04-07T07:59:15Z</time>
      </trkpt>
      <trkpt lat="44.49807" lon="6.5912">
        <ele>2314</ele>
        <time>2021-04-07T07:59:16Z</time>
      </trkpt>
      <trkpt lat="44.49807" lon="6.5912">
        <ele>2314</ele>
        <time>2021-04-07T07:59:17Z</time>
      </trkpt>
      <trkpt lat="44.49806" lon="6.5912">
        <ele>2314</ele>
        <time>2021-04-07T07:59:18Z</time>
      </trkpt>
      <trkpt lat="44.49806" lon="6.5912">
        <ele>2314</ele>
        <time>2021-04-07T07:59:19Z</time>
      </trkpt>
      <trkpt lat="44.49805" lon="6.5912">
        <ele>2314</ele>
        <time>2021-04-07T07:59:20Z</time>
      </trkpt>
      <trkpt lat="44.49804" lon="6.59119">
        <ele>2315</ele>
        <time>2021-04-07T07:59:21Z</time>
      </trkpt>
      <trkpt lat="44.49803" lon="6.59119">
        <ele>2315</ele>
        <time>2021-04-07T07:59:22Z</time>
      </trkpt>
      <trkpt lat="44.49803" lon="6.59119">
        <ele>2315</ele>
        <time>2021-04-07T07:59:23Z</time>
      </trkpt>
      <trkpt lat="44.49803" lon="6.59119">
        <ele>2315</ele>
        <time>2021-04-07T07:59:24Z</time>
      </trkpt>
      <trkpt lat="44.49803" lon="6.5912">
        <ele>2315</ele>
        <time>2021-04-07T07:59:25Z</time>
      </trkpt>
      <trkpt lat="44.49803" lon="6.5912">
        <ele>2315</ele>
        <time>2021-04-07T07:59:26Z</time>
      </trkpt>
      <trkpt lat="44.49803" lon="6.5912">
        <ele>2315</ele>
        <time>2021-04-07T07:59:27Z</time>
      </trkpt>
      <trkpt lat="44.49803" lon="6.5912">
        <ele>2315</ele>
        <time>2021-04-07T07:59:28Z</time>
      </trkpt>
      <trkpt lat="44.49803" lon="6.5912">
        <ele>2315</ele>
        <time>2021-04-07T07:59:29Z</time>
      </trkpt>
      <trkpt lat="44.49803" lon="6.5912">
        <ele>2315</ele>
        <time>2021-04-07T07:59:30Z</time>
      </trkpt>
      <trkpt lat="44.49803" lon="6.5912">
        <ele>2315</ele>
        <time>2021-04-07T07:59:31Z</time>
      </trkpt>
      <trkpt lat="44.49803" lon="6.5912">
        <ele>2315</ele>
        <time>2021-04-07T07:59:32Z</time>
      </trkpt>
      <trkpt lat="44.49803" lon="6.5912">
        <ele>2315</ele>
        <time>2021-04-07T07:59:33Z</time>
      </trkpt>
      <trkpt lat="44.49803" lon="6.5912">
        <ele>2315</ele>
        <time>2021-04-07T07:59:34Z</time>
      </trkpt>
      <trkpt lat="44.49803" lon="6.5912">
        <ele>2315</ele>
        <time>2021-04-07T07:59:35Z</time>
      </trkpt>
      <trkpt lat="44.49803" lon="6.5912">
        <ele>2315</ele>
        <time>2021-04-07T07:59:36Z</time>
      </trkpt>
      <trkpt lat="44.49803" lon="6.5912">
        <ele>2315</ele>
        <time>2021-04-07T07:59:37Z</time>
      </trkpt>
      <trkpt lat="44.49803" lon="6.5912">
        <ele>2315</ele>
        <time>2021-04-07T07:59:38Z</time>
      </trkpt>
      <trkpt lat="44.49803" lon="6.5912">
        <ele>2315</ele>
        <time>2021-04-07T07:59:39Z</time>
      </trkpt>
      <trkpt lat="44.49803" lon="6.5912">
        <ele>2315</ele>
        <time>2021-04-07T07:59:40Z</time>
      </trkpt>
      <trkpt lat="44.49803" lon="6.5912">
        <ele>2315</ele>
        <time>2021-04-07T07:59:41Z</time>
      </trkpt>
      <trkpt lat="44.49803" lon="6.5912">
        <ele>2315</ele>
        <time>2021-04-07T07:59:42Z</time>
      </trkpt>
      <trkpt lat="44.49803" lon="6.5912">
        <ele>2315</ele>
        <time>2021-04-07T07:59:43Z</time>
      </trkpt>
      <trkpt lat="44.49803" lon="6.5912">
        <ele>2315</ele>
        <time>2021-04-07T07:59:44Z</time>
      </trkpt>
      <trkpt lat="44.49803" lon="6.5912">
        <ele>2315</ele>
        <time>2021-04-07T07:59:45Z</time>
      </trkpt>
      <trkpt lat="44.49803" lon="6.5912">
        <ele>2315</ele>
        <time>2021-04-07T07:59:46Z</time>
      </trkpt>
      <trkpt lat="44.49803" lon="6.5912">
        <ele>2315</ele>
        <time>2021-04-07T07:59:47Z</time>
      </trkpt>
      <trkpt lat="44.49803" lon="6.5912">
        <ele>2315</ele>
        <time>2021-04-07T07:59:48Z</time>
      </trkpt>
      <trkpt lat="44.49803" lon="6.5912">
        <ele>2315</ele>
        <time>2021-04-07T07:59:49Z</time>
      </trkpt>
      <trkpt lat="44.49803" lon="6.5912">
        <ele>2315</ele>
        <time>2021-04-07T07:59:50Z</time>
      </trkpt>
      <trkpt lat="44.49803" lon="6.5912">
        <ele>2315</ele>
        <time>2021-04-07T07:59:51Z</time>
      </trkpt>
      <trkpt lat="44.49803" lon="6.5912">
        <ele>2315</ele>
        <time>2021-04-07T07:59:52Z</time>
      </trkpt>
      <trkpt lat="44.49803" lon="6.59121">
        <ele>2315</ele>
        <time>2021-04-07T07:59:53Z</time>
      </trkpt>
      <trkpt lat="44.49803" lon="6.59121">
        <ele>2315</ele>
        <time>2021-04-07T07:59:54Z</time>
      </trkpt>
      <trkpt lat="44.49803" lon="6.59121">
        <ele>2315</ele>
        <time>2021-04-07T07:59:55Z</time>
      </trkpt>
      <trkpt lat="44.49802" lon="6.5912">
        <ele>2315</ele>
        <time>2021-04-07T07:59:56Z</time>
      </trkpt>
      <trkpt lat="44.49802" lon="6.5912">
        <ele>2315</ele>
        <time>2021-04-07T07:59:57Z</time>
      </trkpt>
      <trkpt lat="44.49801" lon="6.5912">
        <ele>2315</ele>
        <time>2021-04-07T07:59:58Z</time>
      </trkpt>
      <trkpt lat="44.49801" lon="6.5912">
        <ele>2315</ele>
        <time>2021-04-07T07:59:59Z</time>
      </trkpt>
      <trkpt lat="44.498" lon="6.59119">
        <ele>2315</ele>
        <time>2021-04-07T08:00:00Z</time>
      </trkpt>
      <trkpt lat="44.49799" lon="6.59118">
        <ele>2315</ele>
        <time>2021-04-07T08:00:01Z</time>
      </trkpt>
      <trkpt lat="44.49799" lon="6.59118">
        <ele>2314</ele>
        <time>2021-04-07T08:00:02Z</time>
      </trkpt>
      <trkpt lat="44.49798" lon="6.59118">
        <ele>2314</ele>
        <time>2021-04-07T08:00:03Z</time>
      </trkpt>
      <trkpt lat="44.49797" lon="6.59117">
        <ele>2314</ele>
        <time>2021-04-07T08:00:04Z</time>
      </trkpt>
      <trkpt lat="44.49796" lon="6.59117">
        <ele>2314</ele>
        <time>2021-04-07T08:00:05Z</time>
      </trkpt>
      <trkpt lat="44.49796" lon="6.59116">
        <ele>2314</ele>
        <time>2021-04-07T08:00:06Z</time>
      </trkpt>
      <trkpt lat="44.49795" lon="6.59116">
        <ele>2314</ele>
        <time>2021-04-07T08:00:07Z</time>
      </trkpt>
      <trkpt lat="44.49794" lon="6.59115">
        <ele>2314</ele>
        <time>2021-04-07T08:00:08Z</time>
      </trkpt>
      <trkpt lat="44.49793" lon="6.59114">
        <ele>2313</ele>
        <time>2021-04-07T08:00:09Z</time>
      </trkpt>
      <trkpt lat="44.49792" lon="6.59113">
        <ele>2313</ele>
        <time>2021-04-07T08:00:10Z</time>
      </trkpt>
      <trkpt lat="44.49791" lon="6.59111">
        <ele>2313</ele>
        <time>2021-04-07T08:00:11Z</time>
      </trkpt>
      <trkpt lat="44.49791" lon="6.59109">
        <ele>2313</ele>
        <time>2021-04-07T08:00:12Z</time>
      </trkpt>
      <trkpt lat="44.4979" lon="6.59108">
        <ele>2313</ele>
        <time>2021-04-07T08:00:13Z</time>
      </trkpt>
      <trkpt lat="44.49789" lon="6.59107">
        <ele>2313</ele>
        <time>2021-04-07T08:00:14Z</time>
      </trkpt>
      <trkpt lat="44.49789" lon="6.59106">
        <ele>2313</ele>
        <time>2021-04-07T08:00:15Z</time>
      </trkpt>
      <trkpt lat="44.49788" lon="6.59105">
        <ele>2313</ele>
        <time>2021-04-07T08:00:16Z</time>
      </trkpt>
      <trkpt lat="44.49787" lon="6.59105">
        <ele>2313</ele>
        <time>2021-04-07T08:00:17Z</time>
      </trkpt>
      <trkpt lat="44.49786" lon="6.59105">
        <ele>2314</ele>
        <time>2021-04-07T08:00:18Z</time>
      </trkpt>
      <trkpt lat="44.49786" lon="6.59104">
        <ele>2314</ele>
        <time>2021-04-07T08:00:19Z</time>
      </trkpt>
      <trkpt lat="44.49785" lon="6.59104">
        <ele>2314</ele>
        <time>2021-04-07T08:00:20Z</time>
      </trkpt>
      <trkpt lat="44.49785" lon="6.59104">
        <ele>2314</ele>
        <time>2021-04-07T08:00:21Z</time>
      </trkpt>
      <trkpt lat="44.49783" lon="6.59104">
        <ele>2314</ele>
        <time>2021-04-07T08:00:22Z</time>
      </trkpt>
      <trkpt lat="44.49783" lon="6.59104">
        <ele>2314</ele>
        <time>2021-04-07T08:00:23Z</time>
      </trkpt>
      <trkpt lat="44.49782" lon="6.59103">
        <ele>2314</ele>
        <time>2021-04-07T08:00:24Z</time>
      </trkpt>
      <trkpt lat="44.49781" lon="6.59103">
        <ele>2314</ele>
        <time>2021-04-07T08:00:25Z</time>
      </trkpt>
      <trkpt lat="44.4978" lon="6.59103">
        <ele>2314</ele>
        <time>2021-04-07T08:00:26Z</time>
      </trkpt>
      <trkpt lat="44.49779" lon="6.59103">
        <ele>2314</ele>
        <time>2021-04-07T08:00:27Z</time>
      </trkpt>
      <trkpt lat="44.49778" lon="6.59102">
        <ele>2314</ele>
        <time>2021-04-07T08:00:28Z</time>
      </trkpt>
      <trkpt lat="44.49777" lon="6.59102">
        <ele>2315</ele>
        <time>2021-04-07T08:00:29Z</time>
      </trkpt>
      <trkpt lat="44.49776" lon="6.59102">
        <ele>2315</ele>
        <time>2021-04-07T08:00:30Z</time>
      </trkpt>
      <trkpt lat="44.49775" lon="6.59103">
        <ele>2315</ele>
        <time>2021-04-07T08:00:31Z</time>
      </trkpt>
      <trkpt lat="44.49774" lon="6.59102">
        <ele>2315</ele>
        <time>2021-04-07T08:00:32Z</time>
      </trkpt>
      <trkpt lat="44.49773" lon="6.59101">
        <ele>2315</ele>
        <time>2021-04-07T08:00:33Z</time>
      </trkpt>
      <trkpt lat="44.49772" lon="6.59101">
        <ele>2315</ele>
        <time>2021-04-07T08:00:34Z</time>
      </trkpt>
      <trkpt lat="44.49771" lon="6.591">
        <ele>2315</ele>
        <time>2021-04-07T08:00:35Z</time>
      </trkpt>
      <trkpt lat="44.4977" lon="6.591">
        <ele>2315</ele>
        <time>2021-04-07T08:00:36Z</time>
      </trkpt>
      <trkpt lat="44.49769" lon="6.591">
        <ele>2315</ele>
        <time>2021-04-07T08:00:37Z</time>
      </trkpt>
      <trkpt lat="44.49768" lon="6.591">
        <ele>2315</ele>
        <time>2021-04-07T08:00:38Z</time>
      </trkpt>
      <trkpt lat="44.49768" lon="6.591">
        <ele>2315</ele>
        <time>2021-04-07T08:00:39Z</time>
      </trkpt>
      <trkpt lat="44.49767" lon="6.591">
        <ele>2315</ele>
        <time>2021-04-07T08:00:40Z</time>
      </trkpt>
      <trkpt lat="44.49766" lon="6.591">
        <ele>2315</ele>
        <time>2021-04-07T08:00:41Z</time>
      </trkpt>
      <trkpt lat="44.49765" lon="6.591">
        <ele>2316</ele>
        <time>2021-04-07T08:00:42Z</time>
      </trkpt>
      <trkpt lat="44.49764" lon="6.59099">
        <ele>2316</ele>
        <time>2021-04-07T08:00:43Z</time>
      </trkpt>
      <trkpt lat="44.49763" lon="6.59098">
        <ele>2316</ele>
        <time>2021-04-07T08:00:44Z</time>
      </trkpt>
      <trkpt lat="44.49762" lon="6.59098">
        <ele>2316</ele>
        <time>2021-04-07T08:00:45Z</time>
      </trkpt>
      <trkpt lat="44.49761" lon="6.59097">
        <ele>2316</ele>
        <time>2021-04-07T08:00:46Z</time>
      </trkpt>
      <trkpt lat="44.4976" lon="6.59097">
        <ele>2316</ele>
        <time>2021-04-07T08:00:47Z</time>
      </trkpt>
      <trkpt lat="44.49759" lon="6.59097">
        <ele>2316</ele>
        <time>2021-04-07T08:00:48Z</time>
      </trkpt>
      <trkpt lat="44.49758" lon="6.59096">
        <ele>2316</ele>
        <time>2021-04-07T08:00:49Z</time>
      </trkpt>
      <trkpt lat="44.49758" lon="6.59095">
        <ele>2317</ele>
        <time>2021-04-07T08:00:50Z</time>
      </trkpt>
      <trkpt lat="44.49757" lon="6.59095">
        <ele>2317</ele>
        <time>2021-04-07T08:00:51Z</time>
      </trkpt>
      <trkpt lat="44.49756" lon="6.59095">
        <ele>2317</ele>
        <time>2021-04-07T08:00:52Z</time>
      </trkpt>
      <trkpt lat="44.49756" lon="6.59094">
        <ele>2317</ele>
        <time>2021-04-07T08:00:53Z</time>
      </trkpt>
      <trkpt lat="44.49756" lon="6.59094">
        <ele>2317</ele>
        <time>2021-04-07T08:00:54Z</time>
      </trkpt>
      <trkpt lat="44.49755" lon="6.59093">
        <ele>2317</ele>
        <time>2021-04-07T08:00:55Z</time>
      </trkpt>
      <trkpt lat="44.49754" lon="6.59093">
        <ele>2318</ele>
        <time>2021-04-07T08:00:56Z</time>
      </trkpt>
      <trkpt lat="44.49754" lon="6.59092">
        <ele>2318</ele>
        <time>2021-04-07T08:00:57Z</time>
      </trkpt>
      <trkpt lat="44.49753" lon="6.59092">
        <ele>2318</ele>
        <time>2021-04-07T08:00:58Z</time>
      </trkpt>
      <trkpt lat="44.49752" lon="6.59092">
        <ele>2318</ele>
        <time>2021-04-07T08:00:59Z</time>
      </trkpt>
      <trkpt lat="44.49751" lon="6.59091">
        <ele>2318</ele>
        <time>2021-04-07T08:01:00Z</time>
      </trkpt>
      <trkpt lat="44.49751" lon="6.59091">
        <ele>2318</ele>
        <time>2021-04-07T08:01:01Z</time>
      </trkpt>
      <trkpt lat="44.4975" lon="6.5909">
        <ele>2319</ele>
        <time>2021-04-07T08:01:02Z</time>
      </trkpt>
      <trkpt lat="44.49749" lon="6.5909">
        <ele>2319</ele>
        <time>2021-04-07T08:01:03Z</time>
      </trkpt>
      <trkpt lat="44.49748" lon="6.59089">
        <ele>2319</ele>
        <time>2021-04-07T08:01:04Z</time>
      </trkpt>
      <trkpt lat="44.49748" lon="6.59088">
        <ele>2319</ele>
        <time>2021-04-07T08:01:05Z</time>
      </trkpt>
      <trkpt lat="44.49747" lon="6.59088">
        <ele>2319</ele>
        <time>2021-04-07T08:01:06Z</time>
      </trkpt>
      <trkpt lat="44.49747" lon="6.59087">
        <ele>2319</ele>
        <time>2021-04-07T08:01:07Z</time>
      </trkpt>
      <trkpt lat="44.49746" lon="6.59085">
        <ele>2319</ele>
        <time>2021-04-07T08:01:08Z</time>
      </trkpt>
      <trkpt lat="44.49745" lon="6.59084">
        <ele>2319</ele>
        <time>2021-04-07T08:01:09Z</time>
      </trkpt>
      <trkpt lat="44.49744" lon="6.59084">
        <ele>2319</ele>
        <time>2021-04-07T08:01:10Z</time>
      </trkpt>
      <trkpt lat="44.49744" lon="6.59082">
        <ele>2319</ele>
        <time>2021-04-07T08:01:11Z</time>
      </trkpt>
      <trkpt lat="44.49743" lon="6.59082">
        <ele>2319</ele>
        <time>2021-04-07T08:01:12Z</time>
      </trkpt>
      <trkpt lat="44.49743" lon="6.59081">
        <ele>2319</ele>
        <time>2021-04-07T08:01:13Z</time>
      </trkpt>
      <trkpt lat="44.49742" lon="6.59081">
        <ele>2319</ele>
        <time>2021-04-07T08:01:14Z</time>
      </trkpt>
      <trkpt lat="44.49742" lon="6.59081">
        <ele>2319</ele>
        <time>2021-04-07T08:01:15Z</time>
      </trkpt>
      <trkpt lat="44.49741" lon="6.5908">
        <ele>2319</ele>
        <time>2021-04-07T08:01:16Z</time>
      </trkpt>
      <trkpt lat="44.4974" lon="6.5908">
        <ele>2319</ele>
        <time>2021-04-07T08:01:17Z</time>
      </trkpt>
      <trkpt lat="44.4974" lon="6.59079">
        <ele>2320</ele>
        <time>2021-04-07T08:01:18Z</time>
      </trkpt>
      <trkpt lat="44.49739" lon="6.59079">
        <ele>2320</ele>
        <time>2021-04-07T08:01:19Z</time>
      </trkpt>
      <trkpt lat="44.49738" lon="6.59079">
        <ele>2320</ele>
        <time>2021-04-07T08:01:20Z</time>
      </trkpt>
      <trkpt lat="44.49738" lon="6.59079">
        <ele>2320</ele>
        <time>2021-04-07T08:01:21Z</time>
      </trkpt>
      <trkpt lat="44.49737" lon="6.59079">
        <ele>2320</ele>
        <time>2021-04-07T08:01:22Z</time>
      </trkpt>
      <trkpt lat="44.49737" lon="6.59079">
        <ele>2320</ele>
        <time>2021-04-07T08:01:23Z</time>
      </trkpt>
      <trkpt lat="44.49736" lon="6.59079">
        <ele>2320</ele>
        <time>2021-04-07T08:01:24Z</time>
      </trkpt>
      <trkpt lat="44.49735" lon="6.59079">
        <ele>2320</ele>
        <time>2021-04-07T08:01:25Z</time>
      </trkpt>
      <trkpt lat="44.49734" lon="6.59079">
        <ele>2321</ele>
        <time>2021-04-07T08:01:26Z</time>
      </trkpt>
      <trkpt lat="44.49734" lon="6.59078">
        <ele>2321</ele>
        <time>2021-04-07T08:01:27Z</time>
      </trkpt>
      <trkpt lat="44.49733" lon="6.59078">
        <ele>2321</ele>
        <time>2021-04-07T08:01:28Z</time>
      </trkpt>
      <trkpt lat="44.49732" lon="6.59077">
        <ele>2321</ele>
        <time>2021-04-07T08:01:29Z</time>
      </trkpt>
      <trkpt lat="44.49731" lon="6.59077">
        <ele>2321</ele>
        <time>2021-04-07T08:01:30Z</time>
      </trkpt>
      <trkpt lat="44.49731" lon="6.59076">
        <ele>2321</ele>
        <time>2021-04-07T08:01:31Z</time>
      </trkpt>
      <trkpt lat="44.4973" lon="6.59075">
        <ele>2321</ele>
        <time>2021-04-07T08:01:32Z</time>
      </trkpt>
      <trkpt lat="44.4973" lon="6.59074">
        <ele>2321</ele>
        <time>2021-04-07T08:01:33Z</time>
      </trkpt>
      <trkpt lat="44.49729" lon="6.59074">
        <ele>2321</ele>
        <time>2021-04-07T08:01:34Z</time>
      </trkpt>
      <trkpt lat="44.49728" lon="6.59072">
        <ele>2321</ele>
        <time>2021-04-07T08:01:35Z</time>
      </trkpt>
      <trkpt lat="44.49727" lon="6.59072">
        <ele>2321</ele>
        <time>2021-04-07T08:01:36Z</time>
      </trkpt>
      <trkpt lat="44.49726" lon="6.59071">
        <ele>2322</ele>
        <time>2021-04-07T08:01:37Z</time>
      </trkpt>
      <trkpt lat="44.49726" lon="6.59071">
        <ele>2322</ele>
        <time>2021-04-07T08:01:38Z</time>
      </trkpt>
      <trkpt lat="44.49725" lon="6.59071">
        <ele>2322</ele>
        <time>2021-04-07T08:01:39Z</time>
      </trkpt>
      <trkpt lat="44.49725" lon="6.59071">
        <ele>2322</ele>
        <time>2021-04-07T08:01:40Z</time>
      </trkpt>
      <trkpt lat="44.49725" lon="6.5907">
        <ele>2322</ele>
        <time>2021-04-07T08:01:41Z</time>
      </trkpt>
      <trkpt lat="44.49724" lon="6.5907">
        <ele>2322</ele>
        <time>2021-04-07T08:01:42Z</time>
      </trkpt>
      <trkpt lat="44.49723" lon="6.59069">
        <ele>2322</ele>
        <time>2021-04-07T08:01:43Z</time>
      </trkpt>
      <trkpt lat="44.49722" lon="6.59069">
        <ele>2322</ele>
        <time>2021-04-07T08:01:44Z</time>
      </trkpt>
      <trkpt lat="44.49722" lon="6.59069">
        <ele>2322</ele>
        <time>2021-04-07T08:01:45Z</time>
      </trkpt>
      <trkpt lat="44.49721" lon="6.59068">
        <ele>2322</ele>
        <time>2021-04-07T08:01:46Z</time>
      </trkpt>
      <trkpt lat="44.49721" lon="6.59068">
        <ele>2322</ele>
        <time>2021-04-07T08:01:47Z</time>
      </trkpt>
      <trkpt lat="44.4972" lon="6.59068">
        <ele>2322</ele>
        <time>2021-04-07T08:01:48Z</time>
      </trkpt>
      <trkpt lat="44.49719" lon="6.59067">
        <ele>2322</ele>
        <time>2021-04-07T08:01:49Z</time>
      </trkpt>
      <trkpt lat="44.49718" lon="6.59067">
        <ele>2322</ele>
        <time>2021-04-07T08:01:50Z</time>
      </trkpt>
      <trkpt lat="44.49718" lon="6.59067">
        <ele>2323</ele>
        <time>2021-04-07T08:01:51Z</time>
      </trkpt>
      <trkpt lat="44.49717" lon="6.59067">
        <ele>2323</ele>
        <time>2021-04-07T08:01:52Z</time>
      </trkpt>
      <trkpt lat="44.49716" lon="6.59067">
        <ele>2323</ele>
        <time>2021-04-07T08:01:53Z</time>
      </trkpt>
      <trkpt lat="44.49716" lon="6.59066">
        <ele>2323</ele>
        <time>2021-04-07T08:01:54Z</time>
      </trkpt>
      <trkpt lat="44.49715" lon="6.59067">
        <ele>2323</ele>
        <time>2021-04-07T08:01:55Z</time>
      </trkpt>
      <trkpt lat="44.49715" lon="6.59066">
        <ele>2323</ele>
        <time>2021-04-07T08:01:56Z</time>
      </trkpt>
      <trkpt lat="44.49714" lon="6.59066">
        <ele>2323</ele>
        <time>2021-04-07T08:01:57Z</time>
      </trkpt>
      <trkpt lat="44.49714" lon="6.59065">
        <ele>2323</ele>
        <time>2021-04-07T08:01:58Z</time>
      </trkpt>
      <trkpt lat="44.49714" lon="6.59065">
        <ele>2323</ele>
        <time>2021-04-07T08:01:59Z</time>
      </trkpt>
      <trkpt lat="44.49713" lon="6.59065">
        <ele>2324</ele>
        <time>2021-04-07T08:02:00Z</time>
      </trkpt>
      <trkpt lat="44.49712" lon="6.59064">
        <ele>2324</ele>
        <time>2021-04-07T08:02:01Z</time>
      </trkpt>
      <trkpt lat="44.49711" lon="6.59063">
        <ele>2324</ele>
        <time>2021-04-07T08:02:02Z</time>
      </trkpt>
      <trkpt lat="44.4971" lon="6.59063">
        <ele>2324</ele>
        <time>2021-04-07T08:02:03Z</time>
      </trkpt>
      <trkpt lat="44.4971" lon="6.59062">
        <ele>2325</ele>
        <time>2021-04-07T08:02:04Z</time>
      </trkpt>
      <trkpt lat="44.49709" lon="6.59061">
        <ele>2325</ele>
        <time>2021-04-07T08:02:05Z</time>
      </trkpt>
      <trkpt lat="44.49708" lon="6.5906">
        <ele>2325</ele>
        <time>2021-04-07T08:02:06Z</time>
      </trkpt>
      <trkpt lat="44.49707" lon="6.59061">
        <ele>2325</ele>
        <time>2021-04-07T08:02:07Z</time>
      </trkpt>
      <trkpt lat="44.49707" lon="6.59061">
        <ele>2326</ele>
        <time>2021-04-07T08:02:08Z</time>
      </trkpt>
      <trkpt lat="44.49706" lon="6.59061">
        <ele>2326</ele>
        <time>2021-04-07T08:02:09Z</time>
      </trkpt>
      <trkpt lat="44.49705" lon="6.5906">
        <ele>2326</ele>
        <time>2021-04-07T08:02:10Z</time>
      </trkpt>
      <trkpt lat="44.49704" lon="6.59059">
        <ele>2326</ele>
        <time>2021-04-07T08:02:11Z</time>
      </trkpt>
      <trkpt lat="44.49704" lon="6.59058">
        <ele>2328</ele>
        <time>2021-04-07T08:02:12Z</time>
      </trkpt>
      <trkpt lat="44.49704" lon="6.59058">
        <ele>2328</ele>
        <time>2021-04-07T08:02:13Z</time>
      </trkpt>
      <trkpt lat="44.49703" lon="6.59058">
        <ele>2329</ele>
        <time>2021-04-07T08:02:14Z</time>
      </trkpt>
      <trkpt lat="44.49702" lon="6.59057">
        <ele>2329</ele>
        <time>2021-04-07T08:02:15Z</time>
      </trkpt>
      <trkpt lat="44.49701" lon="6.59057">
        <ele>2330</ele>
        <time>2021-04-07T08:02:16Z</time>
      </trkpt>
      <trkpt lat="44.49701" lon="6.59057">
        <ele>2331</ele>
        <time>2021-04-07T08:02:17Z</time>
      </trkpt>
      <trkpt lat="44.497" lon="6.59057">
        <ele>2332</ele>
        <time>2021-04-07T08:02:18Z</time>
      </trkpt>
      <trkpt lat="44.497" lon="6.59056">
        <ele>2332</ele>
        <time>2021-04-07T08:02:19Z</time>
      </trkpt>
      <trkpt lat="44.49699" lon="6.59056">
        <ele>2332</ele>
        <time>2021-04-07T08:02:20Z</time>
      </trkpt>
      <trkpt lat="44.49698" lon="6.59056">
        <ele>2333</ele>
        <time>2021-04-07T08:02:21Z</time>
      </trkpt>
      <trkpt lat="44.49698" lon="6.59056">
        <ele>2333</ele>
        <time>2021-04-07T08:02:22Z</time>
      </trkpt>
      <trkpt lat="44.49698" lon="6.59055">
        <ele>2333</ele>
        <time>2021-04-07T08:02:23Z</time>
      </trkpt>
      <trkpt lat="44.49697" lon="6.59054">
        <ele>2333</ele>
        <time>2021-04-07T08:02:24Z</time>
      </trkpt>
      <trkpt lat="44.49696" lon="6.59054">
        <ele>2334</ele>
        <time>2021-04-07T08:02:25Z</time>
      </trkpt>
      <trkpt lat="44.49696" lon="6.59054">
        <ele>2334</ele>
        <time>2021-04-07T08:02:26Z</time>
      </trkpt>
      <trkpt lat="44.49695" lon="6.59053">
        <ele>2334</ele>
        <time>2021-04-07T08:02:27Z</time>
      </trkpt>
      <trkpt lat="44.49694" lon="6.59053">
        <ele>2334</ele>
        <time>2021-04-07T08:02:28Z</time>
      </trkpt>
      <trkpt lat="44.49694" lon="6.59053">
        <ele>2334</ele>
        <time>2021-04-07T08:02:29Z</time>
      </trkpt>
      <trkpt lat="44.49693" lon="6.59052">
        <ele>2335</ele>
        <time>2021-04-07T08:02:30Z</time>
      </trkpt>
      <trkpt lat="44.49693" lon="6.59052">
        <ele>2335</ele>
        <time>2021-04-07T08:02:31Z</time>
      </trkpt>
      <trkpt lat="44.49692" lon="6.59051">
        <ele>2335</ele>
        <time>2021-04-07T08:02:32Z</time>
      </trkpt>
      <trkpt lat="44.49692" lon="6.59052">
        <ele>2335</ele>
        <time>2021-04-07T08:02:33Z</time>
      </trkpt>
      <trkpt lat="44.49692" lon="6.59051">
        <ele>2335</ele>
        <time>2021-04-07T08:02:34Z</time>
      </trkpt>
      <trkpt lat="44.49691" lon="6.59051">
        <ele>2335</ele>
        <time>2021-04-07T08:02:35Z</time>
      </trkpt>
      <trkpt lat="44.49691" lon="6.59052">
        <ele>2335</ele>
        <time>2021-04-07T08:02:36Z</time>
      </trkpt>
      <trkpt lat="44.4969" lon="6.59052">
        <ele>2336</ele>
        <time>2021-04-07T08:02:37Z</time>
      </trkpt>
      <trkpt lat="44.49689" lon="6.59051">
        <ele>2336</ele>
        <time>2021-04-07T08:02:38Z</time>
      </trkpt>
      <trkpt lat="44.49689" lon="6.59052">
        <ele>2336</ele>
        <time>2021-04-07T08:02:39Z</time>
      </trkpt>
      <trkpt lat="44.49688" lon="6.59052">
        <ele>2336</ele>
        <time>2021-04-07T08:02:40Z</time>
      </trkpt>
      <trkpt lat="44.49688" lon="6.59051">
        <ele>2336</ele>
        <time>2021-04-07T08:02:41Z</time>
      </trkpt>
      <trkpt lat="44.49688" lon="6.59051">
        <ele>2337</ele>
        <time>2021-04-07T08:02:42Z</time>
      </trkpt>
      <trkpt lat="44.49687" lon="6.59051">
        <ele>2337</ele>
        <time>2021-04-07T08:02:43Z</time>
      </trkpt>
      <trkpt lat="44.49686" lon="6.59051">
        <ele>2337</ele>
        <time>2021-04-07T08:02:44Z</time>
      </trkpt>
      <trkpt lat="44.49686" lon="6.59051">
        <ele>2338</ele>
        <time>2021-04-07T08:02:45Z</time>
      </trkpt>
      <trkpt lat="44.49685" lon="6.59051">
        <ele>2338</ele>
        <time>2021-04-07T08:02:46Z</time>
      </trkpt>
      <trkpt lat="44.49685" lon="6.59051">
        <ele>2338</ele>
        <time>2021-04-07T08:02:47Z</time>
      </trkpt>
      <trkpt lat="44.49684" lon="6.59051">
        <ele>2338</ele>
        <time>2021-04-07T08:02:48Z</time>
      </trkpt>
      <trkpt lat="44.49683" lon="6.59051">
        <ele>2338</ele>
        <time>2021-04-07T08:02:49Z</time>
      </trkpt>
      <trkpt lat="44.49683" lon="6.5905">
        <ele>2338</ele>
        <time>2021-04-07T08:02:50Z</time>
      </trkpt>
      <trkpt lat="44.49682" lon="6.59051">
        <ele>2338</ele>
        <time>2021-04-07T08:02:51Z</time>
      </trkpt>
      <trkpt lat="44.49682" lon="6.5905">
        <ele>2338</ele>
        <time>2021-04-07T08:02:52Z</time>
      </trkpt>
      <trkpt lat="44.49681" lon="6.59051">
        <ele>2338</ele>
        <time>2021-04-07T08:02:53Z</time>
      </trkpt>
      <trkpt lat="44.4968" lon="6.59051">
        <ele>2338</ele>
        <time>2021-04-07T08:02:54Z</time>
      </trkpt>
      <trkpt lat="44.49679" lon="6.59051">
        <ele>2338</ele>
        <time>2021-04-07T08:02:55Z</time>
      </trkpt>
      <trkpt lat="44.49678" lon="6.59051">
        <ele>2338</ele>
        <time>2021-04-07T08:02:56Z</time>
      </trkpt>
      <trkpt lat="44.49678" lon="6.59051">
        <ele>2338</ele>
        <time>2021-04-07T08:02:57Z</time>
      </trkpt>
      <trkpt lat="44.49677" lon="6.59052">
        <ele>2338</ele>
        <time>2021-04-07T08:02:58Z</time>
      </trkpt>
      <trkpt lat="44.49677" lon="6.59052">
        <ele>2338</ele>
        <time>2021-04-07T08:02:59Z</time>
      </trkpt>
      <trkpt lat="44.49677" lon="6.59053">
        <ele>2339</ele>
        <time>2021-04-07T08:03:00Z</time>
      </trkpt>
      <trkpt lat="44.49677" lon="6.59052">
        <ele>2339</ele>
        <time>2021-04-07T08:03:01Z</time>
      </trkpt>
      <trkpt lat="44.49676" lon="6.59052">
        <ele>2339</ele>
        <time>2021-04-07T08:03:02Z</time>
      </trkpt>
      <trkpt lat="44.49676" lon="6.59052">
        <ele>2339</ele>
        <time>2021-04-07T08:03:03Z</time>
      </trkpt>
      <trkpt lat="44.49675" lon="6.59052">
        <ele>2339</ele>
        <time>2021-04-07T08:03:04Z</time>
      </trkpt>
      <trkpt lat="44.49674" lon="6.59052">
        <ele>2339</ele>
        <time>2021-04-07T08:03:05Z</time>
      </trkpt>
      <trkpt lat="44.49674" lon="6.59052">
        <ele>2339</ele>
        <time>2021-04-07T08:03:06Z</time>
      </trkpt>
      <trkpt lat="44.49673" lon="6.59052">
        <ele>2339</ele>
        <time>2021-04-07T08:03:07Z</time>
      </trkpt>
      <trkpt lat="44.49672" lon="6.59051">
        <ele>2339</ele>
        <time>2021-04-07T08:03:08Z</time>
      </trkpt>
      <trkpt lat="44.49671" lon="6.59051">
        <ele>2339</ele>
        <time>2021-04-07T08:03:09Z</time>
      </trkpt>
      <trkpt lat="44.49671" lon="6.59051">
        <ele>2339</ele>
        <time>2021-04-07T08:03:10Z</time>
      </trkpt>
      <trkpt lat="44.4967" lon="6.5905">
        <ele>2339</ele>
        <time>2021-04-07T08:03:11Z</time>
      </trkpt>
      <trkpt lat="44.49669" lon="6.5905">
        <ele>2339</ele>
        <time>2021-04-07T08:03:12Z</time>
      </trkpt>
      <trkpt lat="44.49668" lon="6.5905">
        <ele>2339</ele>
        <time>2021-04-07T08:03:13Z</time>
      </trkpt>
      <trkpt lat="44.49668" lon="6.5905">
        <ele>2339</ele>
        <time>2021-04-07T08:03:14Z</time>
      </trkpt>
      <trkpt lat="44.49668" lon="6.5905">
        <ele>2339</ele>
        <time>2021-04-07T08:03:15Z</time>
      </trkpt>
      <trkpt lat="44.49667" lon="6.5905">
        <ele>2339</ele>
        <time>2021-04-07T08:03:16Z</time>
      </trkpt>
      <trkpt lat="44.49666" lon="6.5905">
        <ele>2339</ele>
        <time>2021-04-07T08:03:17Z</time>
      </trkpt>
      <trkpt lat="44.49666" lon="6.5905">
        <ele>2339</ele>
        <time>2021-04-07T08:03:18Z</time>
      </trkpt>
      <trkpt lat="44.49665" lon="6.5905">
        <ele>2339</ele>
        <time>2021-04-07T08:03:19Z</time>
      </trkpt>
      <trkpt lat="44.49665" lon="6.59049">
        <ele>2340</ele>
        <time>2021-04-07T08:03:20Z</time>
      </trkpt>
      <trkpt lat="44.49664" lon="6.59048">
        <ele>2340</ele>
        <time>2021-04-07T08:03:21Z</time>
      </trkpt>
      <trkpt lat="44.49663" lon="6.59047">
        <ele>2340</ele>
        <time>2021-04-07T08:03:22Z</time>
      </trkpt>
      <trkpt lat="44.49662" lon="6.59047">
        <ele>2340</ele>
        <time>2021-04-07T08:03:23Z</time>
      </trkpt>
      <trkpt lat="44.49662" lon="6.59047">
        <ele>2340</ele>
        <time>2021-04-07T08:03:24Z</time>
      </trkpt>
      <trkpt lat="44.49662" lon="6.59047">
        <ele>2340</ele>
        <time>2021-04-07T08:03:25Z</time>
      </trkpt>
      <trkpt lat="44.49661" lon="6.59048">
        <ele>2340</ele>
        <time>2021-04-07T08:03:26Z</time>
      </trkpt>
      <trkpt lat="44.4966" lon="6.59048">
        <ele>2340</ele>
        <time>2021-04-07T08:03:27Z</time>
      </trkpt>
      <trkpt lat="44.49659" lon="6.59049">
        <ele>2340</ele>
        <time>2021-04-07T08:03:28Z</time>
      </trkpt>
      <trkpt lat="44.49659" lon="6.59049">
        <ele>2340</ele>
        <time>2021-04-07T08:03:29Z</time>
      </trkpt>
      <trkpt lat="44.49659" lon="6.5905">
        <ele>2340</ele>
        <time>2021-04-07T08:03:30Z</time>
      </trkpt>
      <trkpt lat="44.49658" lon="6.59049">
        <ele>2340</ele>
        <time>2021-04-07T08:03:31Z</time>
      </trkpt>
      <trkpt lat="44.49658" lon="6.5905">
        <ele>2340</ele>
        <time>2021-04-07T08:03:32Z</time>
      </trkpt>
      <trkpt lat="44.49657" lon="6.59049">
        <ele>2340</ele>
        <time>2021-04-07T08:03:33Z</time>
      </trkpt>
      <trkpt lat="44.49657" lon="6.59049">
        <ele>2340</ele>
        <time>2021-04-07T08:03:34Z</time>
      </trkpt>
      <trkpt lat="44.49656" lon="6.59048">
        <ele>2340</ele>
        <time>2021-04-07T08:03:35Z</time>
      </trkpt>
      <trkpt lat="44.49655" lon="6.59048">
        <ele>2340</ele>
        <time>2021-04-07T08:03:36Z</time>
      </trkpt>
      <trkpt lat="44.49655" lon="6.59048">
        <ele>2340</ele>
        <time>2021-04-07T08:03:37Z</time>
      </trkpt>
      <trkpt lat="44.49654" lon="6.59048">
        <ele>2340</ele>
        <time>2021-04-07T08:03:38Z</time>
      </trkpt>
      <trkpt lat="44.49653" lon="6.59048">
        <ele>2341</ele>
        <time>2021-04-07T08:03:39Z</time>
      </trkpt>
      <trkpt lat="44.49653" lon="6.59048">
        <ele>2341</ele>
        <time>2021-04-07T08:03:40Z</time>
      </trkpt>
      <trkpt lat="44.49652" lon="6.59048">
        <ele>2341</ele>
        <time>2021-04-07T08:03:41Z</time>
      </trkpt>
      <trkpt lat="44.49651" lon="6.59048">
        <ele>2342</ele>
        <time>2021-04-07T08:03:42Z</time>
      </trkpt>
      <trkpt lat="44.4965" lon="6.59048">
        <ele>2342</ele>
        <time>2021-04-07T08:03:43Z</time>
      </trkpt>
      <trkpt lat="44.49649" lon="6.59048">
        <ele>2342</ele>
        <time>2021-04-07T08:03:44Z</time>
      </trkpt>
      <trkpt lat="44.49648" lon="6.59048">
        <ele>2342</ele>
        <time>2021-04-07T08:03:45Z</time>
      </trkpt>
      <trkpt lat="44.49647" lon="6.59048">
        <ele>2343</ele>
        <time>2021-04-07T08:03:46Z</time>
      </trkpt>
      <trkpt lat="44.49647" lon="6.59048">
        <ele>2343</ele>
        <time>2021-04-07T08:03:47Z</time>
      </trkpt>
      <trkpt lat="44.49646" lon="6.59048">
        <ele>2343</ele>
        <time>2021-04-07T08:03:48Z</time>
      </trkpt>
      <trkpt lat="44.49646" lon="6.59048">
        <ele>2343</ele>
        <time>2021-04-07T08:03:49Z</time>
      </trkpt>
      <trkpt lat="44.49646" lon="6.59048">
        <ele>2343</ele>
        <time>2021-04-07T08:03:50Z</time>
      </trkpt>
      <trkpt lat="44.49645" lon="6.59048">
        <ele>2343</ele>
        <time>2021-04-07T08:03:51Z</time>
      </trkpt>
      <trkpt lat="44.49644" lon="6.59048">
        <ele>2343</ele>
        <time>2021-04-07T08:03:52Z</time>
      </trkpt>
      <trkpt lat="44.49644" lon="6.59048">
        <ele>2343</ele>
        <time>2021-04-07T08:03:53Z</time>
      </trkpt>
      <trkpt lat="44.49643" lon="6.59049">
        <ele>2343</ele>
        <time>2021-04-07T08:03:54Z</time>
      </trkpt>
      <trkpt lat="44.49643" lon="6.59049">
        <ele>2343</ele>
        <time>2021-04-07T08:03:55Z</time>
      </trkpt>
      <trkpt lat="44.49642" lon="6.59049">
        <ele>2343</ele>
        <time>2021-04-07T08:03:56Z</time>
      </trkpt>
      <trkpt lat="44.49641" lon="6.59049">
        <ele>2344</ele>
        <time>2021-04-07T08:03:57Z</time>
      </trkpt>
      <trkpt lat="44.49641" lon="6.59049">
        <ele>2344</ele>
        <time>2021-04-07T08:03:58Z</time>
      </trkpt>
      <trkpt lat="44.4964" lon="6.59049">
        <ele>2344</ele>
        <time>2021-04-07T08:03:59Z</time>
      </trkpt>
      <trkpt lat="44.4964" lon="6.59049">
        <ele>2344</ele>
        <time>2021-04-07T08:04:00Z</time>
      </trkpt>
      <trkpt lat="44.49639" lon="6.59049">
        <ele>2343</ele>
        <time>2021-04-07T08:04:01Z</time>
      </trkpt>
      <trkpt lat="44.49639" lon="6.59049">
        <ele>2343</ele>
        <time>2021-04-07T08:04:02Z</time>
      </trkpt>
      <trkpt lat="44.49638" lon="6.59049">
        <ele>2343</ele>
        <time>2021-04-07T08:04:03Z</time>
      </trkpt>
      <trkpt lat="44.49638" lon="6.59048">
        <ele>2343</ele>
        <time>2021-04-07T08:04:04Z</time>
      </trkpt>
      <trkpt lat="44.49638" lon="6.59048">
        <ele>2343</ele>
        <time>2021-04-07T08:04:05Z</time>
      </trkpt>
      <trkpt lat="44.49638" lon="6.59046">
        <ele>2343</ele>
        <time>2021-04-07T08:04:06Z</time>
      </trkpt>
      <trkpt lat="44.49638" lon="6.59046">
        <ele>2343</ele>
        <time>2021-04-07T08:04:07Z</time>
      </trkpt>
      <trkpt lat="44.49638" lon="6.59045">
        <ele>2343</ele>
        <time>2021-04-07T08:04:08Z</time>
      </trkpt>
      <trkpt lat="44.49638" lon="6.59044">
        <ele>2343</ele>
        <time>2021-04-07T08:04:09Z</time>
      </trkpt>
      <trkpt lat="44.49638" lon="6.59043">
        <ele>2342</ele>
        <time>2021-04-07T08:04:10Z</time>
      </trkpt>
      <trkpt lat="44.49638" lon="6.59042">
        <ele>2342</ele>
        <time>2021-04-07T08:04:11Z</time>
      </trkpt>
      <trkpt lat="44.49638" lon="6.59042">
        <ele>2342</ele>
        <time>2021-04-07T08:04:12Z</time>
      </trkpt>
      <trkpt lat="44.49638" lon="6.59041">
        <ele>2342</ele>
        <time>2021-04-07T08:04:13Z</time>
      </trkpt>
      <trkpt lat="44.49638" lon="6.5904">
        <ele>2342</ele>
        <time>2021-04-07T08:04:14Z</time>
      </trkpt>
      <trkpt lat="44.49638" lon="6.59039">
        <ele>2342</ele>
        <time>2021-04-07T08:04:15Z</time>
      </trkpt>
      <trkpt lat="44.49638" lon="6.59038">
        <ele>2342</ele>
        <time>2021-04-07T08:04:16Z</time>
      </trkpt>
      <trkpt lat="44.49638" lon="6.59038">
        <ele>2342</ele>
        <time>2021-04-07T08:04:17Z</time>
      </trkpt>
      <trkpt lat="44.49638" lon="6.59038">
        <ele>2342</ele>
        <time>2021-04-07T08:04:18Z</time>
      </trkpt>
      <trkpt lat="44.49637" lon="6.59038">
        <ele>2342</ele>
        <time>2021-04-07T08:04:19Z</time>
      </trkpt>
      <trkpt lat="44.49637" lon="6.59039">
        <ele>2342</ele>
        <time>2021-04-07T08:04:20Z</time>
      </trkpt>
      <trkpt lat="44.49635" lon="6.5904">
        <ele>2342</ele>
        <time>2021-04-07T08:04:21Z</time>
      </trkpt>
      <trkpt lat="44.49635" lon="6.5904">
        <ele>2342</ele>
        <time>2021-04-07T08:04:22Z</time>
      </trkpt>
      <trkpt lat="44.49634" lon="6.5904">
        <ele>2342</ele>
        <time>2021-04-07T08:04:23Z</time>
      </trkpt>
      <trkpt lat="44.49634" lon="6.5904">
        <ele>2342</ele>
        <time>2021-04-07T08:04:24Z</time>
      </trkpt>
      <trkpt lat="44.49634" lon="6.59041">
        <ele>2342</ele>
        <time>2021-04-07T08:04:25Z</time>
      </trkpt>
      <trkpt lat="44.49633" lon="6.5904">
        <ele>2342</ele>
        <time>2021-04-07T08:04:26Z</time>
      </trkpt>
      <trkpt lat="44.49633" lon="6.5904">
        <ele>2342</ele>
        <time>2021-04-07T08:04:27Z</time>
      </trkpt>
      <trkpt lat="44.49632" lon="6.5904">
        <ele>2342</ele>
        <time>2021-04-07T08:04:28Z</time>
      </trkpt>
      <trkpt lat="44.49632" lon="6.5904">
        <ele>2342</ele>
        <time>2021-04-07T08:04:29Z</time>
      </trkpt>
      <trkpt lat="44.49631" lon="6.5904">
        <ele>2343</ele>
        <time>2021-04-07T08:04:30Z</time>
      </trkpt>
      <trkpt lat="44.4963" lon="6.59041">
        <ele>2343</ele>
        <time>2021-04-07T08:04:31Z</time>
      </trkpt>
      <trkpt lat="44.4963" lon="6.5904">
        <ele>2343</ele>
        <time>2021-04-07T08:04:32Z</time>
      </trkpt>
      <trkpt lat="44.49629" lon="6.5904">
        <ele>2343</ele>
        <time>2021-04-07T08:04:33Z</time>
      </trkpt>
      <trkpt lat="44.49628" lon="6.59039">
        <ele>2343</ele>
        <time>2021-04-07T08:04:34Z</time>
      </trkpt>
      <trkpt lat="44.49628" lon="6.59039">
        <ele>2343</ele>
        <time>2021-04-07T08:04:35Z</time>
      </trkpt>
      <trkpt lat="44.49627" lon="6.59039">
        <ele>2343</ele>
        <time>2021-04-07T08:04:36Z</time>
      </trkpt>
      <trkpt lat="44.49626" lon="6.59038">
        <ele>2343</ele>
        <time>2021-04-07T08:04:37Z</time>
      </trkpt>
      <trkpt lat="44.49625" lon="6.59038">
        <ele>2344</ele>
        <time>2021-04-07T08:04:38Z</time>
      </trkpt>
      <trkpt lat="44.49625" lon="6.59038">
        <ele>2344</ele>
        <time>2021-04-07T08:04:39Z</time>
      </trkpt>
      <trkpt lat="44.49624" lon="6.59038">
        <ele>2344</ele>
        <time>2021-04-07T08:04:40Z</time>
      </trkpt>
      <trkpt lat="44.49624" lon="6.59038">
        <ele>2345</ele>
        <time>2021-04-07T08:04:41Z</time>
      </trkpt>
      <trkpt lat="44.49624" lon="6.59038">
        <ele>2345</ele>
        <time>2021-04-07T08:04:42Z</time>
      </trkpt>
      <trkpt lat="44.49623" lon="6.59038">
        <ele>2345</ele>
        <time>2021-04-07T08:04:43Z</time>
      </trkpt>
      <trkpt lat="44.49622" lon="6.59039">
        <ele>2345</ele>
        <time>2021-04-07T08:04:44Z</time>
      </trkpt>
      <trkpt lat="44.49622" lon="6.5904">
        <ele>2346</ele>
        <time>2021-04-07T08:04:45Z</time>
      </trkpt>
      <trkpt lat="44.49621" lon="6.59041">
        <ele>2346</ele>
        <time>2021-04-07T08:04:46Z</time>
      </trkpt>
      <trkpt lat="44.49621" lon="6.59041">
        <ele>2346</ele>
        <time>2021-04-07T08:04:47Z</time>
      </trkpt>
      <trkpt lat="44.4962" lon="6.59042">
        <ele>2346</ele>
        <time>2021-04-07T08:04:48Z</time>
      </trkpt>
      <trkpt lat="44.49619" lon="6.59042">
        <ele>2346</ele>
        <time>2021-04-07T08:04:49Z</time>
      </trkpt>
      <trkpt lat="44.49618" lon="6.59043">
        <ele>2347</ele>
        <time>2021-04-07T08:04:50Z</time>
      </trkpt>
      <trkpt lat="44.49617" lon="6.59043">
        <ele>2347</ele>
        <time>2021-04-07T08:04:51Z</time>
      </trkpt>
      <trkpt lat="44.49617" lon="6.59044">
        <ele>2347</ele>
        <time>2021-04-07T08:04:52Z</time>
      </trkpt>
      <trkpt lat="44.49616" lon="6.59044">
        <ele>2347</ele>
        <time>2021-04-07T08:04:53Z</time>
      </trkpt>
      <trkpt lat="44.49616" lon="6.59045">
        <ele>2347</ele>
        <time>2021-04-07T08:04:54Z</time>
      </trkpt>
      <trkpt lat="44.49615" lon="6.59045">
        <ele>2348</ele>
        <time>2021-04-07T08:04:55Z</time>
      </trkpt>
      <trkpt lat="44.49614" lon="6.59045">
        <ele>2348</ele>
        <time>2021-04-07T08:04:56Z</time>
      </trkpt>
      <trkpt lat="44.49614" lon="6.59045">
        <ele>2348</ele>
        <time>2021-04-07T08:04:57Z</time>
      </trkpt>
      <trkpt lat="44.49613" lon="6.59045">
        <ele>2348</ele>
        <time>2021-04-07T08:04:58Z</time>
      </trkpt>
      <trkpt lat="44.49613" lon="6.59045">
        <ele>2348</ele>
        <time>2021-04-07T08:04:59Z</time>
      </trkpt>
      <trkpt lat="44.49612" lon="6.59046">
        <ele>2348</ele>
        <time>2021-04-07T08:05:00Z</time>
      </trkpt>
      <trkpt lat="44.49612" lon="6.59047">
        <ele>2348</ele>
        <time>2021-04-07T08:05:01Z</time>
      </trkpt>
      <trkpt lat="44.49611" lon="6.59047">
        <ele>2349</ele>
        <time>2021-04-07T08:05:02Z</time>
      </trkpt>
      <trkpt lat="44.49611" lon="6.59048">
        <ele>2349</ele>
        <time>2021-04-07T08:05:03Z</time>
      </trkpt>
      <trkpt lat="44.4961" lon="6.59048">
        <ele>2349</ele>
        <time>2021-04-07T08:05:04Z</time>
      </trkpt>
      <trkpt lat="44.49609" lon="6.59049">
        <ele>2349</ele>
        <time>2021-04-07T08:05:05Z</time>
      </trkpt>
      <trkpt lat="44.49609" lon="6.59049">
        <ele>2349</ele>
        <time>2021-04-07T08:05:06Z</time>
      </trkpt>
      <trkpt lat="44.49608" lon="6.5905">
        <ele>2350</ele>
        <time>2021-04-07T08:05:07Z</time>
      </trkpt>
      <trkpt lat="44.49608" lon="6.5905">
        <ele>2350</ele>
        <time>2021-04-07T08:05:08Z</time>
      </trkpt>
      <trkpt lat="44.49608" lon="6.5905">
        <ele>2350</ele>
        <time>2021-04-07T08:05:09Z</time>
      </trkpt>
      <trkpt lat="44.49607" lon="6.59051">
        <ele>2350</ele>
        <time>2021-04-07T08:05:10Z</time>
      </trkpt>
      <trkpt lat="44.49607" lon="6.59051">
        <ele>2351</ele>
        <time>2021-04-07T08:05:11Z</time>
      </trkpt>
      <trkpt lat="44.49607" lon="6.59052">
        <ele>2351</ele>
        <time>2021-04-07T08:05:12Z</time>
      </trkpt>
      <trkpt lat="44.49607" lon="6.59052">
        <ele>2351</ele>
        <time>2021-04-07T08:05:13Z</time>
      </trkpt>
      <trkpt lat="44.49606" lon="6.59052">
        <ele>2351</ele>
        <time>2021-04-07T08:05:14Z</time>
      </trkpt>
      <trkpt lat="44.49605" lon="6.59053">
        <ele>2352</ele>
        <time>2021-04-07T08:05:15Z</time>
      </trkpt>
      <trkpt lat="44.49605" lon="6.59053">
        <ele>2352</ele>
        <time>2021-04-07T08:05:16Z</time>
      </trkpt>
      <trkpt lat="44.49605" lon="6.59054">
        <ele>2352</ele>
        <time>2021-04-07T08:05:17Z</time>
      </trkpt>
      <trkpt lat="44.49604" lon="6.59054">
        <ele>2352</ele>
        <time>2021-04-07T08:05:18Z</time>
      </trkpt>
      <trkpt lat="44.49603" lon="6.59054">
        <ele>2353</ele>
        <time>2021-04-07T08:05:19Z</time>
      </trkpt>
      <trkpt lat="44.49603" lon="6.59054">
        <ele>2353</ele>
        <time>2021-04-07T08:05:20Z</time>
      </trkpt>
      <trkpt lat="44.49602" lon="6.59054">
        <ele>2353</ele>
        <time>2021-04-07T08:05:21Z</time>
      </trkpt>
      <trkpt lat="44.49602" lon="6.59055">
        <ele>2354</ele>
        <time>2021-04-07T08:05:22Z</time>
      </trkpt>
      <trkpt lat="44.49602" lon="6.59055">
        <ele>2354</ele>
        <time>2021-04-07T08:05:23Z</time>
      </trkpt>
      <trkpt lat="44.49601" lon="6.59055">
        <ele>2354</ele>
        <time>2021-04-07T08:05:24Z</time>
      </trkpt>
      <trkpt lat="44.496" lon="6.59056">
        <ele>2354</ele>
        <time>2021-04-07T08:05:25Z</time>
      </trkpt>
      <trkpt lat="44.496" lon="6.59057">
        <ele>2355</ele>
        <time>2021-04-07T08:05:26Z</time>
      </trkpt>
      <trkpt lat="44.49599" lon="6.59057">
        <ele>2355</ele>
        <time>2021-04-07T08:05:27Z</time>
      </trkpt>
      <trkpt lat="44.49599" lon="6.59058">
        <ele>2355</ele>
        <time>2021-04-07T08:05:28Z</time>
      </trkpt>
      <trkpt lat="44.49599" lon="6.59059">
        <ele>2355</ele>
        <time>2021-04-07T08:05:29Z</time>
      </trkpt>
      <trkpt lat="44.49598" lon="6.59059">
        <ele>2355</ele>
        <time>2021-04-07T08:05:30Z</time>
      </trkpt>
      <trkpt lat="44.49598" lon="6.5906">
        <ele>2356</ele>
        <time>2021-04-07T08:05:31Z</time>
      </trkpt>
      <trkpt lat="44.49598" lon="6.59061">
        <ele>2356</ele>
        <time>2021-04-07T08:05:32Z</time>
      </trkpt>
      <trkpt lat="44.49597" lon="6.59061">
        <ele>2356</ele>
        <time>2021-04-07T08:05:33Z</time>
      </trkpt>
      <trkpt lat="44.49597" lon="6.59062">
        <ele>2357</ele>
        <time>2021-04-07T08:05:34Z</time>
      </trkpt>
      <trkpt lat="44.49596" lon="6.59062">
        <ele>2357</ele>
        <time>2021-04-07T08:05:35Z</time>
      </trkpt>
      <trkpt lat="44.49596" lon="6.59061">
        <ele>2357</ele>
        <time>2021-04-07T08:05:36Z</time>
      </trkpt>
      <trkpt lat="44.49596" lon="6.59061">
        <ele>2357</ele>
        <time>2021-04-07T08:05:37Z</time>
      </trkpt>
      <trkpt lat="44.49596" lon="6.59061">
        <ele>2357</ele>
        <time>2021-04-07T08:05:38Z</time>
      </trkpt>
      <trkpt lat="44.49596" lon="6.5906">
        <ele>2357</ele>
        <time>2021-04-07T08:05:39Z</time>
      </trkpt>
      <trkpt lat="44.49596" lon="6.5906">
        <ele>2357</ele>
        <time>2021-04-07T08:05:40Z</time>
      </trkpt>
      <trkpt lat="44.49596" lon="6.5906">
        <ele>2357</ele>
        <time>2021-04-07T08:05:41Z</time>
      </trkpt>
      <trkpt lat="44.49596" lon="6.5906">
        <ele>2358</ele>
        <time>2021-04-07T08:05:42Z</time>
      </trkpt>
      <trkpt lat="44.49596" lon="6.5906">
        <ele>2358</ele>
        <time>2021-04-07T08:05:43Z</time>
      </trkpt>
      <trkpt lat="44.49596" lon="6.5906">
        <ele>2358</ele>
        <time>2021-04-07T08:05:44Z</time>
      </trkpt>
      <trkpt lat="44.49596" lon="6.5906">
        <ele>2358</ele>
        <time>2021-04-07T08:05:45Z</time>
      </trkpt>
      <trkpt lat="44.49596" lon="6.5906">
        <ele>2358</ele>
        <time>2021-04-07T08:05:46Z</time>
      </trkpt>
      <trkpt lat="44.49596" lon="6.5906">
        <ele>2358</ele>
        <time>2021-04-07T08:05:47Z</time>
      </trkpt>
      <trkpt lat="44.49596" lon="6.5906">
        <ele>2358</ele>
        <time>2021-04-07T08:05:48Z</time>
      </trkpt>
      <trkpt lat="44.49596" lon="6.5906">
        <ele>2358</ele>
        <time>2021-04-07T08:05:49Z</time>
      </trkpt>
      <trkpt lat="44.49595" lon="6.5906">
        <ele>2358</ele>
        <time>2021-04-07T08:05:50Z</time>
      </trkpt>
      <trkpt lat="44.49594" lon="6.59059">
        <ele>2358</ele>
        <time>2021-04-07T08:05:51Z</time>
      </trkpt>
      <trkpt lat="44.49594" lon="6.59059">
        <ele>2358</ele>
        <time>2021-04-07T08:05:52Z</time>
      </trkpt>
      <trkpt lat="44.49593" lon="6.59059">
        <ele>2358</ele>
        <time>2021-04-07T08:05:53Z</time>
      </trkpt>
      <trkpt lat="44.49593" lon="6.59059">
        <ele>2358</ele>
        <time>2021-04-07T08:05:54Z</time>
      </trkpt>
      <trkpt lat="44.49593" lon="6.59059">
        <ele>2359</ele>
        <time>2021-04-07T08:05:55Z</time>
      </trkpt>
      <trkpt lat="44.49593" lon="6.59059">
        <ele>2359</ele>
        <time>2021-04-07T08:05:56Z</time>
      </trkpt>
      <trkpt lat="44.49593" lon="6.59059">
        <ele>2359</ele>
        <time>2021-04-07T08:05:57Z</time>
      </trkpt>
      <trkpt lat="44.49593" lon="6.59059">
        <ele>2359</ele>
        <time>2021-04-07T08:05:58Z</time>
      </trkpt>
      <trkpt lat="44.49593" lon="6.59059">
        <ele>2359</ele>
        <time>2021-04-07T08:05:59Z</time>
      </trkpt>
      <trkpt lat="44.49593" lon="6.59059">
        <ele>2359</ele>
        <time>2021-04-07T08:06:00Z</time>
      </trkpt>
      <trkpt lat="44.49593" lon="6.59059">
        <ele>2359</ele>
        <time>2021-04-07T08:06:01Z</time>
      </trkpt>
      <trkpt lat="44.49593" lon="6.59059">
        <ele>2359</ele>
        <time>2021-04-07T08:06:02Z</time>
      </trkpt>
      <trkpt lat="44.49593" lon="6.59059">
        <ele>2359</ele>
        <time>2021-04-07T08:06:03Z</time>
      </trkpt>
      <trkpt lat="44.49593" lon="6.59059">
        <ele>2359</ele>
        <time>2021-04-07T08:06:04Z</time>
      </trkpt>
      <trkpt lat="44.49593" lon="6.59059">
        <ele>2359</ele>
        <time>2021-04-07T08:06:05Z</time>
      </trkpt>
      <trkpt lat="44.49593" lon="6.59059">
        <ele>2359</ele>
        <time>2021-04-07T08:06:06Z</time>
      </trkpt>
      <trkpt lat="44.49593" lon="6.59059">
        <ele>2359</ele>
        <time>2021-04-07T08:06:07Z</time>
      </trkpt>
      <trkpt lat="44.49593" lon="6.59059">
        <ele>2359</ele>
        <time>2021-04-07T08:06:08Z</time>
      </trkpt>
      <trkpt lat="44.49593" lon="6.59059">
        <ele>2359</ele>
        <time>2021-04-07T08:06:09Z</time>
      </trkpt>
      <trkpt lat="44.49593" lon="6.59059">
        <ele>2359</ele>
        <time>2021-04-07T08:06:10Z</time>
      </trkpt>
      <trkpt lat="44.49593" lon="6.59059">
        <ele>2359</ele>
        <time>2021-04-07T08:06:11Z</time>
      </trkpt>
      <trkpt lat="44.49593" lon="6.59059">
        <ele>2359</ele>
        <time>2021-04-07T08:06:12Z</time>
      </trkpt>
      <trkpt lat="44.49593" lon="6.59059">
        <ele>2359</ele>
        <time>2021-04-07T08:06:13Z</time>
      </trkpt>
      <trkpt lat="44.49593" lon="6.59059">
        <ele>2359</ele>
        <time>2021-04-07T08:06:14Z</time>
      </trkpt>
      <trkpt lat="44.49593" lon="6.59059">
        <ele>2359</ele>
        <time>2021-04-07T08:06:15Z</time>
      </trkpt>
      <trkpt lat="44.49593" lon="6.59059">
        <ele>2359</ele>
        <time>2021-04-07T08:06:16Z</time>
      </trkpt>
      <trkpt lat="44.49593" lon="6.59059">
        <ele>2359</ele>
        <time>2021-04-07T08:06:17Z</time>
      </trkpt>
      <trkpt lat="44.49593" lon="6.59059">
        <ele>2359</ele>
        <time>2021-04-07T08:06:18Z</time>
      </trkpt>
      <trkpt lat="44.49593" lon="6.59059">
        <ele>2359</ele>
        <time>2021-04-07T08:06:19Z</time>
      </trkpt>
      <trkpt lat="44.49593" lon="6.59059">
        <ele>2359</ele>
        <time>2021-04-07T08:06:20Z</time>
      </trkpt>
      <trkpt lat="44.49593" lon="6.59059">
        <ele>2359</ele>
        <time>2021-04-07T08:06:21Z</time>
      </trkpt>
      <trkpt lat="44.49593" lon="6.59059">
        <ele>2359</ele>
        <time>2021-04-07T08:06:22Z</time>
      </trkpt>
      <trkpt lat="44.49593" lon="6.59059">
        <ele>2359</ele>
        <time>2021-04-07T08:06:23Z</time>
      </trkpt>
      <trkpt lat="44.49593" lon="6.59059">
        <ele>2359</ele>
        <time>2021-04-07T08:06:24Z</time>
      </trkpt>
      <trkpt lat="44.49593" lon="6.59059">
        <ele>2359</ele>
        <time>2021-04-07T08:06:25Z</time>
      </trkpt>
      <trkpt lat="44.49593" lon="6.59059">
        <ele>2359</ele>
        <time>2021-04-07T08:06:26Z</time>
      </trkpt>
      <trkpt lat="44.49593" lon="6.59059">
        <ele>2359</ele>
        <time>2021-04-07T08:06:27Z</time>
      </trkpt>
      <trkpt lat="44.49593" lon="6.59059">
        <ele>2359</ele>
        <time>2021-04-07T08:06:28Z</time>
      </trkpt>
      <trkpt lat="44.49593" lon="6.59059">
        <ele>2359</ele>
        <time>2021-04-07T08:06:29Z</time>
      </trkpt>
      <trkpt lat="44.49593" lon="6.59059">
        <ele>2359</ele>
        <time>2021-04-07T08:06:30Z</time>
      </trkpt>
      <trkpt lat="44.49593" lon="6.59059">
        <ele>2359</ele>
        <time>2021-04-07T08:06:31Z</time>
      </trkpt>
      <trkpt lat="44.49593" lon="6.59059">
        <ele>2359</ele>
        <time>2021-04-07T08:06:32Z</time>
      </trkpt>
      <trkpt lat="44.49593" lon="6.59059">
        <ele>2359</ele>
        <time>2021-04-07T08:06:33Z</time>
      </trkpt>
      <trkpt lat="44.49593" lon="6.59059">
        <ele>2359</ele>
        <time>2021-04-07T08:06:34Z</time>
      </trkpt>
      <trkpt lat="44.49593" lon="6.59059">
        <ele>2359</ele>
        <time>2021-04-07T08:06:35Z</time>
      </trkpt>
      <trkpt lat="44.49593" lon="6.59059">
        <ele>2359</ele>
        <time>2021-04-07T08:06:36Z</time>
      </trkpt>
      <trkpt lat="44.49593" lon="6.59059">
        <ele>2359</ele>
        <time>2021-04-07T08:06:37Z</time>
      </trkpt>
      <trkpt lat="44.49593" lon="6.59059">
        <ele>2359</ele>
        <time>2021-04-07T08:06:38Z</time>
      </trkpt>
      <trkpt lat="44.49592" lon="6.59063">
        <ele>2359</ele>
        <time>2021-04-07T08:06:39Z</time>
      </trkpt>
      <trkpt lat="44.49592" lon="6.59063">
        <ele>2359</ele>
        <time>2021-04-07T08:06:40Z</time>
      </trkpt>
      <trkpt lat="44.49591" lon="6.59063">
        <ele>2360</ele>
        <time>2021-04-07T08:06:41Z</time>
      </trkpt>
      <trkpt lat="44.4959" lon="6.59063">
        <ele>2360</ele>
        <time>2021-04-07T08:06:42Z</time>
      </trkpt>
      <trkpt lat="44.4959" lon="6.59063">
        <ele>2360</ele>
        <time>2021-04-07T08:06:43Z</time>
      </trkpt>
      <trkpt lat="44.4959" lon="6.59063">
        <ele>2360</ele>
        <time>2021-04-07T08:06:44Z</time>
      </trkpt>
      <trkpt lat="44.4959" lon="6.59063">
        <ele>2360</ele>
        <time>2021-04-07T08:06:45Z</time>
      </trkpt>
      <trkpt lat="44.4959" lon="6.59063">
        <ele>2360</ele>
        <time>2021-04-07T08:06:46Z</time>
      </trkpt>
      <trkpt lat="44.4959" lon="6.59063">
        <ele>2360</ele>
        <time>2021-04-07T08:06:47Z</time>
      </trkpt>
      <trkpt lat="44.4959" lon="6.59063">
        <ele>2360</ele>
        <time>2021-04-07T08:06:48Z</time>
      </trkpt>
      <trkpt lat="44.4959" lon="6.59063">
        <ele>2360</ele>
        <time>2021-04-07T08:06:49Z</time>
      </trkpt>
      <trkpt lat="44.49589" lon="6.59062">
        <ele>2360</ele>
        <time>2021-04-07T08:06:50Z</time>
      </trkpt>
      <trkpt lat="44.49588" lon="6.59061">
        <ele>2360</ele>
        <time>2021-04-07T08:06:51Z</time>
      </trkpt>
      <trkpt lat="44.49587" lon="6.59061">
        <ele>2360</ele>
        <time>2021-04-07T08:06:52Z</time>
      </trkpt>
      <trkpt lat="44.49587" lon="6.5906">
        <ele>2360</ele>
        <time>2021-04-07T08:06:53Z</time>
      </trkpt>
      <trkpt lat="44.49587" lon="6.5906">
        <ele>2360</ele>
        <time>2021-04-07T08:06:54Z</time>
      </trkpt>
      <trkpt lat="44.49587" lon="6.5906">
        <ele>2360</ele>
        <time>2021-04-07T08:06:55Z</time>
      </trkpt>
      <trkpt lat="44.49587" lon="6.59059">
        <ele>2360</ele>
        <time>2021-04-07T08:06:56Z</time>
      </trkpt>
      <trkpt lat="44.49587" lon="6.59059">
        <ele>2361</ele>
        <time>2021-04-07T08:06:57Z</time>
      </trkpt>
      <trkpt lat="44.49587" lon="6.59059">
        <ele>2361</ele>
        <time>2021-04-07T08:06:58Z</time>
      </trkpt>
      <trkpt lat="44.49588" lon="6.59059">
        <ele>2361</ele>
        <time>2021-04-07T08:06:59Z</time>
      </trkpt>
      <trkpt lat="44.49588" lon="6.5906">
        <ele>2361</ele>
        <time>2021-04-07T08:07:00Z</time>
      </trkpt>
      <trkpt lat="44.49587" lon="6.5906">
        <ele>2361</ele>
        <time>2021-04-07T08:07:01Z</time>
      </trkpt>
      <trkpt lat="44.49588" lon="6.5906">
        <ele>2361</ele>
        <time>2021-04-07T08:07:02Z</time>
      </trkpt>
      <trkpt lat="44.49587" lon="6.5906">
        <ele>2361</ele>
        <time>2021-04-07T08:07:03Z</time>
      </trkpt>
      <trkpt lat="44.49588" lon="6.59059">
        <ele>2361</ele>
        <time>2021-04-07T08:07:04Z</time>
      </trkpt>
      <trkpt lat="44.49588" lon="6.5906">
        <ele>2362</ele>
        <time>2021-04-07T08:07:05Z</time>
      </trkpt>
      <trkpt lat="44.49588" lon="6.5906">
        <ele>2362</ele>
        <time>2021-04-07T08:07:06Z</time>
      </trkpt>
      <trkpt lat="44.49588" lon="6.5906">
        <ele>2362</ele>
        <time>2021-04-07T08:07:07Z</time>
      </trkpt>
      <trkpt lat="44.49587" lon="6.5906">
        <ele>2362</ele>
        <time>2021-04-07T08:07:08Z</time>
      </trkpt>
      <trkpt lat="44.49588" lon="6.5906">
        <ele>2362</ele>
        <time>2021-04-07T08:07:09Z</time>
      </trkpt>
      <trkpt lat="44.49588" lon="6.5906">
        <ele>2362</ele>
        <time>2021-04-07T08:07:10Z</time>
      </trkpt>
      <trkpt lat="44.49588" lon="6.5906">
        <ele>2362</ele>
        <time>2021-04-07T08:07:11Z</time>
      </trkpt>
      <trkpt lat="44.49589" lon="6.5906">
        <ele>2362</ele>
        <time>2021-04-07T08:07:12Z</time>
      </trkpt>
      <trkpt lat="44.49589" lon="6.5906">
        <ele>2363</ele>
        <time>2021-04-07T08:07:13Z</time>
      </trkpt>
      <trkpt lat="44.49589" lon="6.5906">
        <ele>2363</ele>
        <time>2021-04-07T08:07:14Z</time>
      </trkpt>
      <trkpt lat="44.49589" lon="6.5906">
        <ele>2363</ele>
        <time>2021-04-07T08:07:15Z</time>
      </trkpt>
      <trkpt lat="44.49589" lon="6.5906">
        <ele>2363</ele>
        <time>2021-04-07T08:07:16Z</time>
      </trkpt>
      <trkpt lat="44.49589" lon="6.5906">
        <ele>2363</ele>
        <time>2021-04-07T08:07:17Z</time>
      </trkpt>
      <trkpt lat="44.49589" lon="6.5906">
        <ele>2363</ele>
        <time>2021-04-07T08:07:18Z</time>
      </trkpt>
      <trkpt lat="44.49589" lon="6.5906">
        <ele>2363</ele>
        <time>2021-04-07T08:07:19Z</time>
      </trkpt>
      <trkpt lat="44.49589" lon="6.5906">
        <ele>2363</ele>
        <time>2021-04-07T08:07:20Z</time>
      </trkpt>
      <trkpt lat="44.49589" lon="6.5906">
        <ele>2363</ele>
        <time>2021-04-07T08:07:21Z</time>
      </trkpt>
      <trkpt lat="44.49589" lon="6.5906">
        <ele>2363</ele>
        <time>2021-04-07T08:07:22Z</time>
      </trkpt>
      <trkpt lat="44.49589" lon="6.5906">
        <ele>2363</ele>
        <time>2021-04-07T08:07:23Z</time>
      </trkpt>
      <trkpt lat="44.49589" lon="6.5906">
        <ele>2363</ele>
        <time>2021-04-07T08:07:24Z</time>
      </trkpt>
      <trkpt lat="44.49589" lon="6.5906">
        <ele>2363</ele>
        <time>2021-04-07T08:07:25Z</time>
      </trkpt>
      <trkpt lat="44.49589" lon="6.5906">
        <ele>2363</ele>
        <time>2021-04-07T08:07:26Z</time>
      </trkpt>
      <trkpt lat="44.49589" lon="6.5906">
        <ele>2363</ele>
        <time>2021-04-07T08:07:27Z</time>
      </trkpt>
      <trkpt lat="44.49589" lon="6.5906">
        <ele>2363</ele>
        <time>2021-04-07T08:07:28Z</time>
      </trkpt>
      <trkpt lat="44.49589" lon="6.5906">
        <ele>2364</ele>
        <time>2021-04-07T08:07:29Z</time>
      </trkpt>
      <trkpt lat="44.49589" lon="6.5906">
        <ele>2364</ele>
        <time>2021-04-07T08:07:30Z</time>
      </trkpt>
      <trkpt lat="44.49589" lon="6.5906">
        <ele>2364</ele>
        <time>2021-04-07T08:07:31Z</time>
      </trkpt>
      <trkpt lat="44.49589" lon="6.5906">
        <ele>2364</ele>
        <time>2021-04-07T08:07:32Z</time>
      </trkpt>
      <trkpt lat="44.49589" lon="6.5906">
        <ele>2364</ele>
        <time>2021-04-07T08:07:33Z</time>
      </trkpt>
      <trkpt lat="44.49589" lon="6.5906">
        <ele>2364</ele>
        <time>2021-04-07T08:07:34Z</time>
      </trkpt>
      <trkpt lat="44.49589" lon="6.5906">
        <ele>2364</ele>
        <time>2021-04-07T08:07:35Z</time>
      </trkpt>
      <trkpt lat="44.49589" lon="6.5906">
        <ele>2364</ele>
        <time>2021-04-07T08:07:36Z</time>
      </trkpt>
      <trkpt lat="44.49589" lon="6.5906">
        <ele>2364</ele>
        <time>2021-04-07T08:07:37Z</time>
      </trkpt>
      <trkpt lat="44.49589" lon="6.5906">
        <ele>2364</ele>
        <time>2021-04-07T08:07:38Z</time>
      </trkpt>
      <trkpt lat="44.49589" lon="6.5906">
        <ele>2364</ele>
        <time>2021-04-07T08:07:39Z</time>
      </trkpt>
      <trkpt lat="44.49589" lon="6.5906">
        <ele>2364</ele>
        <time>2021-04-07T08:07:40Z</time>
      </trkpt>
      <trkpt lat="44.49589" lon="6.5906">
        <ele>2364</ele>
        <time>2021-04-07T08:07:41Z</time>
      </trkpt>
      <trkpt lat="44.49589" lon="6.5906">
        <ele>2364</ele>
        <time>2021-04-07T08:07:42Z</time>
      </trkpt>
      <trkpt lat="44.49589" lon="6.5906">
        <ele>2364</ele>
        <time>2021-04-07T08:07:43Z</time>
      </trkpt>
      <trkpt lat="44.49589" lon="6.5906">
        <ele>2364</ele>
        <time>2021-04-07T08:07:44Z</time>
      </trkpt>
      <trkpt lat="44.49589" lon="6.5906">
        <ele>2364</ele>
        <time>2021-04-07T08:07:45Z</time>
      </trkpt>
      <trkpt lat="44.49589" lon="6.5906">
        <ele>2364</ele>
        <time>2021-04-07T08:07:46Z</time>
      </trkpt>
      <trkpt lat="44.49589" lon="6.5906">
        <ele>2364</ele>
        <time>2021-04-07T08:07:47Z</time>
      </trkpt>
      <trkpt lat="44.49589" lon="6.5906">
        <ele>2364</ele>
        <time>2021-04-07T08:07:48Z</time>
      </trkpt>
      <trkpt lat="44.49589" lon="6.5906">
        <ele>2364</ele>
        <time>2021-04-07T08:07:49Z</time>
      </trkpt>
      <trkpt lat="44.49589" lon="6.5906">
        <ele>2364</ele>
        <time>2021-04-07T08:07:50Z</time>
      </trkpt>
      <trkpt lat="44.49589" lon="6.5906">
        <ele>2364</ele>
        <time>2021-04-07T08:07:51Z</time>
      </trkpt>
      <trkpt lat="44.49589" lon="6.5906">
        <ele>2364</ele>
        <time>2021-04-07T08:07:52Z</time>
      </trkpt>
      <trkpt lat="44.49589" lon="6.5906">
        <ele>2364</ele>
        <time>2021-04-07T08:07:53Z</time>
      </trkpt>
      <trkpt lat="44.49589" lon="6.5906">
        <ele>2364</ele>
        <time>2021-04-07T08:07:54Z</time>
      </trkpt>
      <trkpt lat="44.49589" lon="6.5906">
        <ele>2364</ele>
        <time>2021-04-07T08:07:55Z</time>
      </trkpt>
      <trkpt lat="44.49589" lon="6.5906">
        <ele>2364</ele>
        <time>2021-04-07T08:07:56Z</time>
      </trkpt>
      <trkpt lat="44.49589" lon="6.5906">
        <ele>2364</ele>
        <time>2021-04-07T08:07:57Z</time>
      </trkpt>
      <trkpt lat="44.49589" lon="6.5906">
        <ele>2364</ele>
        <time>2021-04-07T08:07:58Z</time>
      </trkpt>
      <trkpt lat="44.49589" lon="6.5906">
        <ele>2364</ele>
        <time>2021-04-07T08:07:59Z</time>
      </trkpt>
      <trkpt lat="44.49589" lon="6.5906">
        <ele>2364</ele>
        <time>2021-04-07T08:08:00Z</time>
      </trkpt>
      <trkpt lat="44.49589" lon="6.5906">
        <ele>2364</ele>
        <time>2021-04-07T08:08:01Z</time>
      </trkpt>
      <trkpt lat="44.49589" lon="6.5906">
        <ele>2364</ele>
        <time>2021-04-07T08:08:02Z</time>
      </trkpt>
      <trkpt lat="44.49589" lon="6.5906">
        <ele>2364</ele>
        <time>2021-04-07T08:08:03Z</time>
      </trkpt>
      <trkpt lat="44.49589" lon="6.5906">
        <ele>2364</ele>
        <time>2021-04-07T08:08:04Z</time>
      </trkpt>
      <trkpt lat="44.49589" lon="6.5906">
        <ele>2364</ele>
        <time>2021-04-07T08:08:05Z</time>
      </trkpt>
      <trkpt lat="44.49589" lon="6.5906">
        <ele>2364</ele>
        <time>2021-04-07T08:08:06Z</time>
      </trkpt>
      <trkpt lat="44.49589" lon="6.5906">
        <ele>2364</ele>
        <time>2021-04-07T08:08:07Z</time>
      </trkpt>
      <trkpt lat="44.49589" lon="6.5906">
        <ele>2364</ele>
        <time>2021-04-07T08:08:08Z</time>
      </trkpt>
      <trkpt lat="44.49589" lon="6.5906">
        <ele>2364</ele>
        <time>2021-04-07T08:08:09Z</time>
      </trkpt>
      <trkpt lat="44.49589" lon="6.5906">
        <ele>2364</ele>
        <time>2021-04-07T08:08:10Z</time>
      </trkpt>
      <trkpt lat="44.49589" lon="6.5906">
        <ele>2364</ele>
        <time>2021-04-07T08:08:11Z</time>
      </trkpt>
      <trkpt lat="44.49589" lon="6.5906">
        <ele>2364</ele>
        <time>2021-04-07T08:08:12Z</time>
      </trkpt>
      <trkpt lat="44.49589" lon="6.5906">
        <ele>2364</ele>
        <time>2021-04-07T08:08:13Z</time>
      </trkpt>
      <trkpt lat="44.49589" lon="6.5906">
        <ele>2364</ele>
        <time>2021-04-07T08:08:14Z</time>
      </trkpt>
      <trkpt lat="44.49589" lon="6.5906">
        <ele>2364</ele>
        <time>2021-04-07T08:08:15Z</time>
      </trkpt>
      <trkpt lat="44.49589" lon="6.5906">
        <ele>2364</ele>
        <time>2021-04-07T08:08:16Z</time>
      </trkpt>
      <trkpt lat="44.49589" lon="6.5906">
        <ele>2364</ele>
        <time>2021-04-07T08:08:17Z</time>
      </trkpt>
      <trkpt lat="44.49589" lon="6.5906">
        <ele>2364</ele>
        <time>2021-04-07T08:08:18Z</time>
      </trkpt>
      <trkpt lat="44.49589" lon="6.5906">
        <ele>2364</ele>
        <time>2021-04-07T08:08:19Z</time>
      </trkpt>
      <trkpt lat="44.49589" lon="6.5906">
        <ele>2364</ele>
        <time>2021-04-07T08:08:20Z</time>
      </trkpt>
      <trkpt lat="44.49589" lon="6.5906">
        <ele>2364</ele>
        <time>2021-04-07T08:08:21Z</time>
      </trkpt>
      <trkpt lat="44.49589" lon="6.5906">
        <ele>2364</ele>
        <time>2021-04-07T08:08:22Z</time>
      </trkpt>
      <trkpt lat="44.49589" lon="6.5906">
        <ele>2364</ele>
        <time>2021-04-07T08:08:23Z</time>
      </trkpt>
      <trkpt lat="44.49589" lon="6.5906">
        <ele>2364</ele>
        <time>2021-04-07T08:08:24Z</time>
      </trkpt>
      <trkpt lat="44.49589" lon="6.5906">
        <ele>2364</ele>
        <time>2021-04-07T08:08:25Z</time>
      </trkpt>
      <trkpt lat="44.49587" lon="6.59057">
        <ele>2365</ele>
        <time>2021-04-07T08:08:26Z</time>
      </trkpt>
      <trkpt lat="44.49586" lon="6.59056">
        <ele>2365</ele>
        <time>2021-04-07T08:08:27Z</time>
      </trkpt>
      <trkpt lat="44.49586" lon="6.59054">
        <ele>2365</ele>
        <time>2021-04-07T08:08:28Z</time>
      </trkpt>
      <trkpt lat="44.49585" lon="6.59054">
        <ele>2365</ele>
        <time>2021-04-07T08:08:29Z</time>
      </trkpt>
      <trkpt lat="44.49585" lon="6.59054">
        <ele>2366</ele>
        <time>2021-04-07T08:08:30Z</time>
      </trkpt>
      <trkpt lat="44.49584" lon="6.59053">
        <ele>2366</ele>
        <time>2021-04-07T08:08:31Z</time>
      </trkpt>
      <trkpt lat="44.49584" lon="6.59052">
        <ele>2366</ele>
        <time>2021-04-07T08:08:32Z</time>
      </trkpt>
      <trkpt lat="44.49583" lon="6.59051">
        <ele>2366</ele>
        <time>2021-04-07T08:08:33Z</time>
      </trkpt>
      <trkpt lat="44.49582" lon="6.59051">
        <ele>2366</ele>
        <time>2021-04-07T08:08:34Z</time>
      </trkpt>
      <trkpt lat="44.49582" lon="6.59051">
        <ele>2366</ele>
        <time>2021-04-07T08:08:35Z</time>
      </trkpt>
      <trkpt lat="44.49581" lon="6.5905">
        <ele>2366</ele>
        <time>2021-04-07T08:08:36Z</time>
      </trkpt>
      <trkpt lat="44.49581" lon="6.5905">
        <ele>2366</ele>
        <time>2021-04-07T08:08:37Z</time>
      </trkpt>
      <trkpt lat="44.4958" lon="6.59049">
        <ele>2366</ele>
        <time>2021-04-07T08:08:38Z</time>
      </trkpt>
      <trkpt lat="44.4958" lon="6.5905">
        <ele>2366</ele>
        <time>2021-04-07T08:08:39Z</time>
      </trkpt>
      <trkpt lat="44.49579" lon="6.5905">
        <ele>2366</ele>
        <time>2021-04-07T08:08:40Z</time>
      </trkpt>
      <trkpt lat="44.49578" lon="6.59049">
        <ele>2367</ele>
        <time>2021-04-07T08:08:41Z</time>
      </trkpt>
      <trkpt lat="44.49578" lon="6.59049">
        <ele>2367</ele>
        <time>2021-04-07T08:08:42Z</time>
      </trkpt>
      <trkpt lat="44.49577" lon="6.5905">
        <ele>2367</ele>
        <time>2021-04-07T08:08:43Z</time>
      </trkpt>
      <trkpt lat="44.49577" lon="6.5905">
        <ele>2367</ele>
        <time>2021-04-07T08:08:44Z</time>
      </trkpt>
      <trkpt lat="44.49575" lon="6.5905">
        <ele>2367</ele>
        <time>2021-04-07T08:08:45Z</time>
      </trkpt>
      <trkpt lat="44.49575" lon="6.5905">
        <ele>2367</ele>
        <time>2021-04-07T08:08:46Z</time>
      </trkpt>
      <trkpt lat="44.49574" lon="6.5905">
        <ele>2368</ele>
        <time>2021-04-07T08:08:47Z</time>
      </trkpt>
      <trkpt lat="44.49573" lon="6.5905">
        <ele>2368</ele>
        <time>2021-04-07T08:08:48Z</time>
      </trkpt>
      <trkpt lat="44.49572" lon="6.59051">
        <ele>2368</ele>
        <time>2021-04-07T08:08:49Z</time>
      </trkpt>
      <trkpt lat="44.49572" lon="6.59051">
        <ele>2368</ele>
        <time>2021-04-07T08:08:50Z</time>
      </trkpt>
      <trkpt lat="44.49571" lon="6.59051">
        <ele>2368</ele>
        <time>2021-04-07T08:08:51Z</time>
      </trkpt>
      <trkpt lat="44.49571" lon="6.59051">
        <ele>2369</ele>
        <time>2021-04-07T08:08:52Z</time>
      </trkpt>
      <trkpt lat="44.4957" lon="6.59052">
        <ele>2369</ele>
        <time>2021-04-07T08:08:53Z</time>
      </trkpt>
      <trkpt lat="44.49569" lon="6.59052">
        <ele>2369</ele>
        <time>2021-04-07T08:08:54Z</time>
      </trkpt>
      <trkpt lat="44.49569" lon="6.59052">
        <ele>2369</ele>
        <time>2021-04-07T08:08:55Z</time>
      </trkpt>
      <trkpt lat="44.49568" lon="6.59052">
        <ele>2369</ele>
        <time>2021-04-07T08:08:56Z</time>
      </trkpt>
      <trkpt lat="44.49568" lon="6.59052">
        <ele>2369</ele>
        <time>2021-04-07T08:08:57Z</time>
      </trkpt>
      <trkpt lat="44.49567" lon="6.59052">
        <ele>2369</ele>
        <time>2021-04-07T08:08:58Z</time>
      </trkpt>
      <trkpt lat="44.49566" lon="6.59052">
        <ele>2369</ele>
        <time>2021-04-07T08:08:59Z</time>
      </trkpt>
      <trkpt lat="44.49566" lon="6.59053">
        <ele>2369</ele>
        <time>2021-04-07T08:09:00Z</time>
      </trkpt>
      <trkpt lat="44.49565" lon="6.59053">
        <ele>2369</ele>
        <time>2021-04-07T08:09:01Z</time>
      </trkpt>
      <trkpt lat="44.49564" lon="6.59053">
        <ele>2369</ele>
        <time>2021-04-07T08:09:02Z</time>
      </trkpt>
      <trkpt lat="44.49563" lon="6.59053">
        <ele>2369</ele>
        <time>2021-04-07T08:09:03Z</time>
      </trkpt>
      <trkpt lat="44.49563" lon="6.59052">
        <ele>2369</ele>
        <time>2021-04-07T08:09:04Z</time>
      </trkpt>
      <trkpt lat="44.49562" lon="6.59052">
        <ele>2369</ele>
        <time>2021-04-07T08:09:05Z</time>
      </trkpt>
      <trkpt lat="44.49562" lon="6.59053">
        <ele>2369</ele>
        <time>2021-04-07T08:09:06Z</time>
      </trkpt>
      <trkpt lat="44.49561" lon="6.59053">
        <ele>2369</ele>
        <time>2021-04-07T08:09:07Z</time>
      </trkpt>
      <trkpt lat="44.49561" lon="6.59053">
        <ele>2369</ele>
        <time>2021-04-07T08:09:08Z</time>
      </trkpt>
      <trkpt lat="44.4956" lon="6.59053">
        <ele>2369</ele>
        <time>2021-04-07T08:09:09Z</time>
      </trkpt>
      <trkpt lat="44.4956" lon="6.59052">
        <ele>2369</ele>
        <time>2021-04-07T08:09:10Z</time>
      </trkpt>
      <trkpt lat="44.49559" lon="6.59052">
        <ele>2369</ele>
        <time>2021-04-07T08:09:11Z</time>
      </trkpt>
      <trkpt lat="44.49559" lon="6.59051">
        <ele>2369</ele>
        <time>2021-04-07T08:09:12Z</time>
      </trkpt>
      <trkpt lat="44.49558" lon="6.5905">
        <ele>2369</ele>
        <time>2021-04-07T08:09:13Z</time>
      </trkpt>
      <trkpt lat="44.49558" lon="6.59049">
        <ele>2369</ele>
        <time>2021-04-07T08:09:14Z</time>
      </trkpt>
      <trkpt lat="44.49557" lon="6.59048">
        <ele>2369</ele>
        <time>2021-04-07T08:09:15Z</time>
      </trkpt>
      <trkpt lat="44.49557" lon="6.59048">
        <ele>2369</ele>
        <time>2021-04-07T08:09:16Z</time>
      </trkpt>
      <trkpt lat="44.49557" lon="6.59048">
        <ele>2369</ele>
        <time>2021-04-07T08:09:17Z</time>
      </trkpt>
      <trkpt lat="44.49557" lon="6.59047">
        <ele>2369</ele>
        <time>2021-04-07T08:09:18Z</time>
      </trkpt>
      <trkpt lat="44.49557" lon="6.59047">
        <ele>2369</ele>
        <time>2021-04-07T08:09:19Z</time>
      </trkpt>
      <trkpt lat="44.49558" lon="6.59047">
        <ele>2369</ele>
        <time>2021-04-07T08:09:20Z</time>
      </trkpt>
      <trkpt lat="44.49558" lon="6.59047">
        <ele>2369</ele>
        <time>2021-04-07T08:09:21Z</time>
      </trkpt>
      <trkpt lat="44.49558" lon="6.59047">
        <ele>2369</ele>
        <time>2021-04-07T08:09:22Z</time>
      </trkpt>
      <trkpt lat="44.49558" lon="6.59047">
        <ele>2369</ele>
        <time>2021-04-07T08:09:23Z</time>
      </trkpt>
      <trkpt lat="44.49558" lon="6.59047">
        <ele>2369</ele>
        <time>2021-04-07T08:09:24Z</time>
      </trkpt>
      <trkpt lat="44.49558" lon="6.59047">
        <ele>2369</ele>
        <time>2021-04-07T08:09:25Z</time>
      </trkpt>
      <trkpt lat="44.49558" lon="6.59047">
        <ele>2369</ele>
        <time>2021-04-07T08:09:26Z</time>
      </trkpt>
      <trkpt lat="44.49558" lon="6.59047">
        <ele>2369</ele>
        <time>2021-04-07T08:09:27Z</time>
      </trkpt>
      <trkpt lat="44.49558" lon="6.59047">
        <ele>2369</ele>
        <time>2021-04-07T08:09:28Z</time>
      </trkpt>
      <trkpt lat="44.49558" lon="6.59047">
        <ele>2369</ele>
        <time>2021-04-07T08:09:29Z</time>
      </trkpt>
      <trkpt lat="44.49557" lon="6.59044">
        <ele>2369</ele>
        <time>2021-04-07T08:09:30Z</time>
      </trkpt>
      <trkpt lat="44.49556" lon="6.59044">
        <ele>2370</ele>
        <time>2021-04-07T08:09:31Z</time>
      </trkpt>
      <trkpt lat="44.49555" lon="6.59044">
        <ele>2371</ele>
        <time>2021-04-07T08:09:32Z</time>
      </trkpt>
      <trkpt lat="44.49554" lon="6.59044">
        <ele>2371</ele>
        <time>2021-04-07T08:09:33Z</time>
      </trkpt>
      <trkpt lat="44.49553" lon="6.59044">
        <ele>2371</ele>
        <time>2021-04-07T08:09:34Z</time>
      </trkpt>
      <trkpt lat="44.49552" lon="6.59044">
        <ele>2371</ele>
        <time>2021-04-07T08:09:35Z</time>
      </trkpt>
      <trkpt lat="44.49551" lon="6.59043">
        <ele>2371</ele>
        <time>2021-04-07T08:09:36Z</time>
      </trkpt>
      <trkpt lat="44.4955" lon="6.59044">
        <ele>2371</ele>
        <time>2021-04-07T08:09:37Z</time>
      </trkpt>
      <trkpt lat="44.49549" lon="6.59044">
        <ele>2372</ele>
        <time>2021-04-07T08:09:38Z</time>
      </trkpt>
      <trkpt lat="44.49548" lon="6.59044">
        <ele>2372</ele>
        <time>2021-04-07T08:09:39Z</time>
      </trkpt>
      <trkpt lat="44.49548" lon="6.59045">
        <ele>2372</ele>
        <time>2021-04-07T08:09:40Z</time>
      </trkpt>
      <trkpt lat="44.49548" lon="6.59045">
        <ele>2372</ele>
        <time>2021-04-07T08:09:41Z</time>
      </trkpt>
      <trkpt lat="44.49547" lon="6.59045">
        <ele>2372</ele>
        <time>2021-04-07T08:09:42Z</time>
      </trkpt>
      <trkpt lat="44.49546" lon="6.59045">
        <ele>2372</ele>
        <time>2021-04-07T08:09:43Z</time>
      </trkpt>
      <trkpt lat="44.49545" lon="6.59045">
        <ele>2373</ele>
        <time>2021-04-07T08:09:44Z</time>
      </trkpt>
      <trkpt lat="44.49544" lon="6.59045">
        <ele>2373</ele>
        <time>2021-04-07T08:09:45Z</time>
      </trkpt>
      <trkpt lat="44.49544" lon="6.59045">
        <ele>2373</ele>
        <time>2021-04-07T08:09:46Z</time>
      </trkpt>
      <trkpt lat="44.49543" lon="6.59045">
        <ele>2373</ele>
        <time>2021-04-07T08:09:47Z</time>
      </trkpt>
      <trkpt lat="44.49542" lon="6.59045">
        <ele>2374</ele>
        <time>2021-04-07T08:09:48Z</time>
      </trkpt>
      <trkpt lat="44.49542" lon="6.59045">
        <ele>2374</ele>
        <time>2021-04-07T08:09:49Z</time>
      </trkpt>
      <trkpt lat="44.49541" lon="6.59045">
        <ele>2374</ele>
        <time>2021-04-07T08:09:50Z</time>
      </trkpt>
      <trkpt lat="44.4954" lon="6.59044">
        <ele>2375</ele>
        <time>2021-04-07T08:09:51Z</time>
      </trkpt>
      <trkpt lat="44.49539" lon="6.59044">
        <ele>2375</ele>
        <time>2021-04-07T08:09:52Z</time>
      </trkpt>
      <trkpt lat="44.49539" lon="6.59044">
        <ele>2375</ele>
        <time>2021-04-07T08:09:53Z</time>
      </trkpt>
      <trkpt lat="44.49538" lon="6.59044">
        <ele>2375</ele>
        <time>2021-04-07T08:09:54Z</time>
      </trkpt>
      <trkpt lat="44.49538" lon="6.59044">
        <ele>2376</ele>
        <time>2021-04-07T08:09:55Z</time>
      </trkpt>
      <trkpt lat="44.49536" lon="6.59045">
        <ele>2376</ele>
        <time>2021-04-07T08:09:56Z</time>
      </trkpt>
      <trkpt lat="44.49536" lon="6.59045">
        <ele>2377</ele>
        <time>2021-04-07T08:09:57Z</time>
      </trkpt>
      <trkpt lat="44.49536" lon="6.59045">
        <ele>2377</ele>
        <time>2021-04-07T08:09:58Z</time>
      </trkpt>
      <trkpt lat="44.49535" lon="6.59045">
        <ele>2377</ele>
        <time>2021-04-07T08:09:59Z</time>
      </trkpt>
      <trkpt lat="44.49534" lon="6.59045">
        <ele>2378</ele>
        <time>2021-04-07T08:10:00Z</time>
      </trkpt>
      <trkpt lat="44.49533" lon="6.59045">
        <ele>2378</ele>
        <time>2021-04-07T08:10:01Z</time>
      </trkpt>
      <trkpt lat="44.49533" lon="6.59045">
        <ele>2378</ele>
        <time>2021-04-07T08:10:02Z</time>
      </trkpt>
      <trkpt lat="44.49532" lon="6.59044">
        <ele>2378</ele>
        <time>2021-04-07T08:10:03Z</time>
      </trkpt>
      <trkpt lat="44.49531" lon="6.59044">
        <ele>2378</ele>
        <time>2021-04-07T08:10:04Z</time>
      </trkpt>
      <trkpt lat="44.49531" lon="6.59044">
        <ele>2379</ele>
        <time>2021-04-07T08:10:05Z</time>
      </trkpt>
      <trkpt lat="44.4953" lon="6.59044">
        <ele>2379</ele>
        <time>2021-04-07T08:10:06Z</time>
      </trkpt>
      <trkpt lat="44.49529" lon="6.59044">
        <ele>2379</ele>
        <time>2021-04-07T08:10:07Z</time>
      </trkpt>
      <trkpt lat="44.49528" lon="6.59044">
        <ele>2379</ele>
        <time>2021-04-07T08:10:08Z</time>
      </trkpt>
      <trkpt lat="44.49528" lon="6.59045">
        <ele>2379</ele>
        <time>2021-04-07T08:10:09Z</time>
      </trkpt>
      <trkpt lat="44.49527" lon="6.59045">
        <ele>2380</ele>
        <time>2021-04-07T08:10:10Z</time>
      </trkpt>
      <trkpt lat="44.49527" lon="6.59045">
        <ele>2380</ele>
        <time>2021-04-07T08:10:11Z</time>
      </trkpt>
      <trkpt lat="44.49526" lon="6.59045">
        <ele>2380</ele>
        <time>2021-04-07T08:10:12Z</time>
      </trkpt>
      <trkpt lat="44.49526" lon="6.59045">
        <ele>2381</ele>
        <time>2021-04-07T08:10:13Z</time>
      </trkpt>
      <trkpt lat="44.49525" lon="6.59045">
        <ele>2381</ele>
        <time>2021-04-07T08:10:14Z</time>
      </trkpt>
      <trkpt lat="44.49525" lon="6.59045">
        <ele>2381</ele>
        <time>2021-04-07T08:10:15Z</time>
      </trkpt>
      <trkpt lat="44.49524" lon="6.59045">
        <ele>2381</ele>
        <time>2021-04-07T08:10:16Z</time>
      </trkpt>
      <trkpt lat="44.49523" lon="6.59045">
        <ele>2382</ele>
        <time>2021-04-07T08:10:17Z</time>
      </trkpt>
      <trkpt lat="44.49522" lon="6.59046">
        <ele>2382</ele>
        <time>2021-04-07T08:10:18Z</time>
      </trkpt>
      <trkpt lat="44.49521" lon="6.59046">
        <ele>2382</ele>
        <time>2021-04-07T08:10:19Z</time>
      </trkpt>
      <trkpt lat="44.4952" lon="6.59046">
        <ele>2382</ele>
        <time>2021-04-07T08:10:20Z</time>
      </trkpt>
      <trkpt lat="44.49519" lon="6.59047">
        <ele>2382</ele>
        <time>2021-04-07T08:10:21Z</time>
      </trkpt>
      <trkpt lat="44.49518" lon="6.59047">
        <ele>2382</ele>
        <time>2021-04-07T08:10:22Z</time>
      </trkpt>
      <trkpt lat="44.49517" lon="6.59048">
        <ele>2383</ele>
        <time>2021-04-07T08:10:23Z</time>
      </trkpt>
      <trkpt lat="44.49517" lon="6.59048">
        <ele>2383</ele>
        <time>2021-04-07T08:10:24Z</time>
      </trkpt>
      <trkpt lat="44.49517" lon="6.59048">
        <ele>2383</ele>
        <time>2021-04-07T08:10:25Z</time>
      </trkpt>
      <trkpt lat="44.49516" lon="6.59048">
        <ele>2383</ele>
        <time>2021-04-07T08:10:26Z</time>
      </trkpt>
      <trkpt lat="44.49516" lon="6.59048">
        <ele>2383</ele>
        <time>2021-04-07T08:10:27Z</time>
      </trkpt>
      <trkpt lat="44.49515" lon="6.59049">
        <ele>2383</ele>
        <time>2021-04-07T08:10:28Z</time>
      </trkpt>
      <trkpt lat="44.49515" lon="6.59049">
        <ele>2384</ele>
        <time>2021-04-07T08:10:29Z</time>
      </trkpt>
      <trkpt lat="44.49514" lon="6.59048">
        <ele>2384</ele>
        <time>2021-04-07T08:10:30Z</time>
      </trkpt>
      <trkpt lat="44.49514" lon="6.59048">
        <ele>2384</ele>
        <time>2021-04-07T08:10:31Z</time>
      </trkpt>
      <trkpt lat="44.49514" lon="6.59049">
        <ele>2384</ele>
        <time>2021-04-07T08:10:32Z</time>
      </trkpt>
      <trkpt lat="44.49513" lon="6.59048">
        <ele>2384</ele>
        <time>2021-04-07T08:10:33Z</time>
      </trkpt>
      <trkpt lat="44.49513" lon="6.59048">
        <ele>2384</ele>
        <time>2021-04-07T08:10:34Z</time>
      </trkpt>
      <trkpt lat="44.49512" lon="6.59048">
        <ele>2384</ele>
        <time>2021-04-07T08:10:35Z</time>
      </trkpt>
      <trkpt lat="44.49512" lon="6.59048">
        <ele>2384</ele>
        <time>2021-04-07T08:10:36Z</time>
      </trkpt>
      <trkpt lat="44.49511" lon="6.59047">
        <ele>2384</ele>
        <time>2021-04-07T08:10:37Z</time>
      </trkpt>
      <trkpt lat="44.4951" lon="6.59046">
        <ele>2384</ele>
        <time>2021-04-07T08:10:38Z</time>
      </trkpt>
      <trkpt lat="44.4951" lon="6.59046">
        <ele>2385</ele>
        <time>2021-04-07T08:10:39Z</time>
      </trkpt>
      <trkpt lat="44.4951" lon="6.59045">
        <ele>2385</ele>
        <time>2021-04-07T08:10:40Z</time>
      </trkpt>
      <trkpt lat="44.49509" lon="6.59044">
        <ele>2385</ele>
        <time>2021-04-07T08:10:41Z</time>
      </trkpt>
      <trkpt lat="44.49509" lon="6.59043">
        <ele>2385</ele>
        <time>2021-04-07T08:10:42Z</time>
      </trkpt>
      <trkpt lat="44.49508" lon="6.59042">
        <ele>2386</ele>
        <time>2021-04-07T08:10:43Z</time>
      </trkpt>
      <trkpt lat="44.49508" lon="6.5904">
        <ele>2386</ele>
        <time>2021-04-07T08:10:44Z</time>
      </trkpt>
      <trkpt lat="44.49507" lon="6.5904">
        <ele>2387</ele>
        <time>2021-04-07T08:10:45Z</time>
      </trkpt>
      <trkpt lat="44.49507" lon="6.59041">
        <ele>2387</ele>
        <time>2021-04-07T08:10:46Z</time>
      </trkpt>
      <trkpt lat="44.49506" lon="6.59042">
        <ele>2387</ele>
        <time>2021-04-07T08:10:47Z</time>
      </trkpt>
      <trkpt lat="44.49506" lon="6.59041">
        <ele>2387</ele>
        <time>2021-04-07T08:10:48Z</time>
      </trkpt>
      <trkpt lat="44.49506" lon="6.59042">
        <ele>2388</ele>
        <time>2021-04-07T08:10:49Z</time>
      </trkpt>
      <trkpt lat="44.49505" lon="6.59042">
        <ele>2388</ele>
        <time>2021-04-07T08:10:50Z</time>
      </trkpt>
      <trkpt lat="44.49505" lon="6.59042">
        <ele>2388</ele>
        <time>2021-04-07T08:10:51Z</time>
      </trkpt>
      <trkpt lat="44.49504" lon="6.59043">
        <ele>2389</ele>
        <time>2021-04-07T08:10:52Z</time>
      </trkpt>
      <trkpt lat="44.49503" lon="6.59043">
        <ele>2390</ele>
        <time>2021-04-07T08:10:53Z</time>
      </trkpt>
      <trkpt lat="44.49503" lon="6.59043">
        <ele>2390</ele>
        <time>2021-04-07T08:10:54Z</time>
      </trkpt>
      <trkpt lat="44.49502" lon="6.59043">
        <ele>2390</ele>
        <time>2021-04-07T08:10:55Z</time>
      </trkpt>
      <trkpt lat="44.49502" lon="6.59043">
        <ele>2390</ele>
        <time>2021-04-07T08:10:56Z</time>
      </trkpt>
      <trkpt lat="44.49501" lon="6.59043">
        <ele>2390</ele>
        <time>2021-04-07T08:10:57Z</time>
      </trkpt>
      <trkpt lat="44.49501" lon="6.59043">
        <ele>2391</ele>
        <time>2021-04-07T08:10:58Z</time>
      </trkpt>
      <trkpt lat="44.495" lon="6.59043">
        <ele>2391</ele>
        <time>2021-04-07T08:10:59Z</time>
      </trkpt>
      <trkpt lat="44.49499" lon="6.59043">
        <ele>2391</ele>
        <time>2021-04-07T08:11:00Z</time>
      </trkpt>
      <trkpt lat="44.49499" lon="6.59043">
        <ele>2391</ele>
        <time>2021-04-07T08:11:01Z</time>
      </trkpt>
      <trkpt lat="44.49498" lon="6.59043">
        <ele>2391</ele>
        <time>2021-04-07T08:11:02Z</time>
      </trkpt>
      <trkpt lat="44.49497" lon="6.59043">
        <ele>2391</ele>
        <time>2021-04-07T08:11:03Z</time>
      </trkpt>
      <trkpt lat="44.49496" lon="6.59043">
        <ele>2391</ele>
        <time>2021-04-07T08:11:04Z</time>
      </trkpt>
      <trkpt lat="44.49496" lon="6.59042">
        <ele>2391</ele>
        <time>2021-04-07T08:11:05Z</time>
      </trkpt>
      <trkpt lat="44.49496" lon="6.59041">
        <ele>2391</ele>
        <time>2021-04-07T08:11:06Z</time>
      </trkpt>
      <trkpt lat="44.49495" lon="6.5904">
        <ele>2391</ele>
        <time>2021-04-07T08:11:07Z</time>
      </trkpt>
      <trkpt lat="44.49495" lon="6.5904">
        <ele>2392</ele>
        <time>2021-04-07T08:11:08Z</time>
      </trkpt>
      <trkpt lat="44.49495" lon="6.59039">
        <ele>2392</ele>
        <time>2021-04-07T08:11:09Z</time>
      </trkpt>
      <trkpt lat="44.49494" lon="6.59038">
        <ele>2392</ele>
        <time>2021-04-07T08:11:10Z</time>
      </trkpt>
      <trkpt lat="44.49494" lon="6.59038">
        <ele>2392</ele>
        <time>2021-04-07T08:11:11Z</time>
      </trkpt>
      <trkpt lat="44.49494" lon="6.59037">
        <ele>2392</ele>
        <time>2021-04-07T08:11:12Z</time>
      </trkpt>
      <trkpt lat="44.49493" lon="6.59037">
        <ele>2392</ele>
        <time>2021-04-07T08:11:13Z</time>
      </trkpt>
      <trkpt lat="44.49493" lon="6.59036">
        <ele>2392</ele>
        <time>2021-04-07T08:11:14Z</time>
      </trkpt>
      <trkpt lat="44.49493" lon="6.59036">
        <ele>2392</ele>
        <time>2021-04-07T08:11:15Z</time>
      </trkpt>
      <trkpt lat="44.49492" lon="6.59036">
        <ele>2392</ele>
        <time>2021-04-07T08:11:16Z</time>
      </trkpt>
      <trkpt lat="44.49492" lon="6.59035">
        <ele>2392</ele>
        <time>2021-04-07T08:11:17Z</time>
      </trkpt>
      <trkpt lat="44.49492" lon="6.59035">
        <ele>2392</ele>
        <time>2021-04-07T08:11:18Z</time>
      </trkpt>
      <trkpt lat="44.49492" lon="6.59034">
        <ele>2392</ele>
        <time>2021-04-07T08:11:19Z</time>
      </trkpt>
      <trkpt lat="44.49492" lon="6.59034">
        <ele>2393</ele>
        <time>2021-04-07T08:11:20Z</time>
      </trkpt>
      <trkpt lat="44.49491" lon="6.59034">
        <ele>2393</ele>
        <time>2021-04-07T08:11:21Z</time>
      </trkpt>
      <trkpt lat="44.49491" lon="6.59033">
        <ele>2393</ele>
        <time>2021-04-07T08:11:22Z</time>
      </trkpt>
      <trkpt lat="44.49491" lon="6.59033">
        <ele>2393</ele>
        <time>2021-04-07T08:11:23Z</time>
      </trkpt>
      <trkpt lat="44.49491" lon="6.59033">
        <ele>2393</ele>
        <time>2021-04-07T08:11:24Z</time>
      </trkpt>
      <trkpt lat="44.49491" lon="6.59032">
        <ele>2393</ele>
        <time>2021-04-07T08:11:25Z</time>
      </trkpt>
      <trkpt lat="44.49491" lon="6.59031">
        <ele>2393</ele>
        <time>2021-04-07T08:11:26Z</time>
      </trkpt>
      <trkpt lat="44.49491" lon="6.5903">
        <ele>2393</ele>
        <time>2021-04-07T08:11:27Z</time>
      </trkpt>
      <trkpt lat="44.4949" lon="6.5903">
        <ele>2393</ele>
        <time>2021-04-07T08:11:28Z</time>
      </trkpt>
      <trkpt lat="44.49489" lon="6.5903">
        <ele>2393</ele>
        <time>2021-04-07T08:11:29Z</time>
      </trkpt>
      <trkpt lat="44.49488" lon="6.5903">
        <ele>2393</ele>
        <time>2021-04-07T08:11:30Z</time>
      </trkpt>
      <trkpt lat="44.49488" lon="6.59031">
        <ele>2394</ele>
        <time>2021-04-07T08:11:31Z</time>
      </trkpt>
      <trkpt lat="44.49487" lon="6.59031">
        <ele>2394</ele>
        <time>2021-04-07T08:11:32Z</time>
      </trkpt>
      <trkpt lat="44.49487" lon="6.59032">
        <ele>2394</ele>
        <time>2021-04-07T08:11:33Z</time>
      </trkpt>
      <trkpt lat="44.49486" lon="6.59032">
        <ele>2394</ele>
        <time>2021-04-07T08:11:34Z</time>
      </trkpt>
      <trkpt lat="44.49486" lon="6.59033">
        <ele>2394</ele>
        <time>2021-04-07T08:11:35Z</time>
      </trkpt>
      <trkpt lat="44.49485" lon="6.59033">
        <ele>2394</ele>
        <time>2021-04-07T08:11:36Z</time>
      </trkpt>
      <trkpt lat="44.49485" lon="6.59033">
        <ele>2395</ele>
        <time>2021-04-07T08:11:37Z</time>
      </trkpt>
      <trkpt lat="44.49484" lon="6.59033">
        <ele>2395</ele>
        <time>2021-04-07T08:11:38Z</time>
      </trkpt>
      <trkpt lat="44.49484" lon="6.59034">
        <ele>2395</ele>
        <time>2021-04-07T08:11:39Z</time>
      </trkpt>
      <trkpt lat="44.49483" lon="6.59033">
        <ele>2395</ele>
        <time>2021-04-07T08:11:40Z</time>
      </trkpt>
      <trkpt lat="44.49482" lon="6.59034">
        <ele>2395</ele>
        <time>2021-04-07T08:11:41Z</time>
      </trkpt>
      <trkpt lat="44.49482" lon="6.59033">
        <ele>2395</ele>
        <time>2021-04-07T08:11:42Z</time>
      </trkpt>
      <trkpt lat="44.49481" lon="6.59034">
        <ele>2395</ele>
        <time>2021-04-07T08:11:43Z</time>
      </trkpt>
      <trkpt lat="44.49481" lon="6.59034">
        <ele>2395</ele>
        <time>2021-04-07T08:11:44Z</time>
      </trkpt>
      <trkpt lat="44.4948" lon="6.59035">
        <ele>2395</ele>
        <time>2021-04-07T08:11:45Z</time>
      </trkpt>
      <trkpt lat="44.4948" lon="6.59036">
        <ele>2395</ele>
        <time>2021-04-07T08:11:46Z</time>
      </trkpt>
      <trkpt lat="44.49479" lon="6.59036">
        <ele>2395</ele>
        <time>2021-04-07T08:11:47Z</time>
      </trkpt>
      <trkpt lat="44.49479" lon="6.59036">
        <ele>2395</ele>
        <time>2021-04-07T08:11:48Z</time>
      </trkpt>
      <trkpt lat="44.49478" lon="6.59037">
        <ele>2395</ele>
        <time>2021-04-07T08:11:49Z</time>
      </trkpt>
      <trkpt lat="44.49478" lon="6.59038">
        <ele>2395</ele>
        <time>2021-04-07T08:11:50Z</time>
      </trkpt>
      <trkpt lat="44.49478" lon="6.59039">
        <ele>2395</ele>
        <time>2021-04-07T08:11:51Z</time>
      </trkpt>
      <trkpt lat="44.49477" lon="6.59039">
        <ele>2395</ele>
        <time>2021-04-07T08:11:52Z</time>
      </trkpt>
      <trkpt lat="44.49477" lon="6.5904">
        <ele>2395</ele>
        <time>2021-04-07T08:11:53Z</time>
      </trkpt>
      <trkpt lat="44.49477" lon="6.59041">
        <ele>2395</ele>
        <time>2021-04-07T08:11:54Z</time>
      </trkpt>
      <trkpt lat="44.49477" lon="6.59041">
        <ele>2395</ele>
        <time>2021-04-07T08:11:55Z</time>
      </trkpt>
      <trkpt lat="44.49476" lon="6.59042">
        <ele>2395</ele>
        <time>2021-04-07T08:11:56Z</time>
      </trkpt>
      <trkpt lat="44.49476" lon="6.59043">
        <ele>2395</ele>
        <time>2021-04-07T08:11:57Z</time>
      </trkpt>
      <trkpt lat="44.49476" lon="6.59044">
        <ele>2395</ele>
        <time>2021-04-07T08:11:58Z</time>
      </trkpt>
      <trkpt lat="44.49476" lon="6.59044">
        <ele>2395</ele>
        <time>2021-04-07T08:11:59Z</time>
      </trkpt>
      <trkpt lat="44.49476" lon="6.59045">
        <ele>2395</ele>
        <time>2021-04-07T08:12:00Z</time>
      </trkpt>
      <trkpt lat="44.49476" lon="6.59045">
        <ele>2395</ele>
        <time>2021-04-07T08:12:01Z</time>
      </trkpt>
      <trkpt lat="44.49475" lon="6.59046">
        <ele>2395</ele>
        <time>2021-04-07T08:12:02Z</time>
      </trkpt>
      <trkpt lat="44.49475" lon="6.59047">
        <ele>2395</ele>
        <time>2021-04-07T08:12:03Z</time>
      </trkpt>
      <trkpt lat="44.49474" lon="6.59048">
        <ele>2396</ele>
        <time>2021-04-07T08:12:04Z</time>
      </trkpt>
      <trkpt lat="44.49474" lon="6.59049">
        <ele>2396</ele>
        <time>2021-04-07T08:12:05Z</time>
      </trkpt>
      <trkpt lat="44.49474" lon="6.5905">
        <ele>2396</ele>
        <time>2021-04-07T08:12:06Z</time>
      </trkpt>
      <trkpt lat="44.49474" lon="6.59051">
        <ele>2396</ele>
        <time>2021-04-07T08:12:07Z</time>
      </trkpt>
      <trkpt lat="44.49473" lon="6.59052">
        <ele>2396</ele>
        <time>2021-04-07T08:12:08Z</time>
      </trkpt>
      <trkpt lat="44.49473" lon="6.59053">
        <ele>2396</ele>
        <time>2021-04-07T08:12:09Z</time>
      </trkpt>
      <trkpt lat="44.49473" lon="6.59054">
        <ele>2396</ele>
        <time>2021-04-07T08:12:10Z</time>
      </trkpt>
      <trkpt lat="44.49472" lon="6.59054">
        <ele>2396</ele>
        <time>2021-04-07T08:12:11Z</time>
      </trkpt>
      <trkpt lat="44.49472" lon="6.59055">
        <ele>2396</ele>
        <time>2021-04-07T08:12:12Z</time>
      </trkpt>
      <trkpt lat="44.49472" lon="6.59056">
        <ele>2397</ele>
        <time>2021-04-07T08:12:13Z</time>
      </trkpt>
      <trkpt lat="44.49471" lon="6.59056">
        <ele>2397</ele>
        <time>2021-04-07T08:12:14Z</time>
      </trkpt>
      <trkpt lat="44.49471" lon="6.59057">
        <ele>2397</ele>
        <time>2021-04-07T08:12:15Z</time>
      </trkpt>
      <trkpt lat="44.49471" lon="6.59058">
        <ele>2397</ele>
        <time>2021-04-07T08:12:16Z</time>
      </trkpt>
      <trkpt lat="44.4947" lon="6.59059">
        <ele>2397</ele>
        <time>2021-04-07T08:12:17Z</time>
      </trkpt>
      <trkpt lat="44.4947" lon="6.59059">
        <ele>2397</ele>
        <time>2021-04-07T08:12:18Z</time>
      </trkpt>
      <trkpt lat="44.49469" lon="6.5906">
        <ele>2398</ele>
        <time>2021-04-07T08:12:19Z</time>
      </trkpt>
      <trkpt lat="44.49468" lon="6.59061">
        <ele>2398</ele>
        <time>2021-04-07T08:12:20Z</time>
      </trkpt>
      <trkpt lat="44.49467" lon="6.59061">
        <ele>2398</ele>
        <time>2021-04-07T08:12:21Z</time>
      </trkpt>
      <trkpt lat="44.49467" lon="6.59062">
        <ele>2398</ele>
        <time>2021-04-07T08:12:22Z</time>
      </trkpt>
      <trkpt lat="44.49466" lon="6.59062">
        <ele>2398</ele>
        <time>2021-04-07T08:12:23Z</time>
      </trkpt>
      <trkpt lat="44.49466" lon="6.59063">
        <ele>2399</ele>
        <time>2021-04-07T08:12:24Z</time>
      </trkpt>
      <trkpt lat="44.49465" lon="6.59063">
        <ele>2399</ele>
        <time>2021-04-07T08:12:25Z</time>
      </trkpt>
      <trkpt lat="44.49465" lon="6.59063">
        <ele>2399</ele>
        <time>2021-04-07T08:12:26Z</time>
      </trkpt>
      <trkpt lat="44.49464" lon="6.59064">
        <ele>2399</ele>
        <time>2021-04-07T08:12:27Z</time>
      </trkpt>
      <trkpt lat="44.49465" lon="6.59064">
        <ele>2399</ele>
        <time>2021-04-07T08:12:28Z</time>
      </trkpt>
      <trkpt lat="44.49464" lon="6.59064">
        <ele>2399</ele>
        <time>2021-04-07T08:12:29Z</time>
      </trkpt>
      <trkpt lat="44.49464" lon="6.59065">
        <ele>2399</ele>
        <time>2021-04-07T08:12:30Z</time>
      </trkpt>
      <trkpt lat="44.49464" lon="6.59065">
        <ele>2399</ele>
        <time>2021-04-07T08:12:31Z</time>
      </trkpt>
      <trkpt lat="44.49464" lon="6.59065">
        <ele>2400</ele>
        <time>2021-04-07T08:12:32Z</time>
      </trkpt>
      <trkpt lat="44.49463" lon="6.59066">
        <ele>2400</ele>
        <time>2021-04-07T08:12:33Z</time>
      </trkpt>
      <trkpt lat="44.49462" lon="6.59067">
        <ele>2400</ele>
        <time>2021-04-07T08:12:34Z</time>
      </trkpt>
      <trkpt lat="44.49461" lon="6.59068">
        <ele>2400</ele>
        <time>2021-04-07T08:12:35Z</time>
      </trkpt>
      <trkpt lat="44.49461" lon="6.59068">
        <ele>2400</ele>
        <time>2021-04-07T08:12:36Z</time>
      </trkpt>
      <trkpt lat="44.4946" lon="6.59069">
        <ele>2401</ele>
        <time>2021-04-07T08:12:37Z</time>
      </trkpt>
      <trkpt lat="44.4946" lon="6.59069">
        <ele>2401</ele>
        <time>2021-04-07T08:12:38Z</time>
      </trkpt>
      <trkpt lat="44.4946" lon="6.5907">
        <ele>2401</ele>
        <time>2021-04-07T08:12:39Z</time>
      </trkpt>
      <trkpt lat="44.49459" lon="6.5907">
        <ele>2401</ele>
        <time>2021-04-07T08:12:40Z</time>
      </trkpt>
      <trkpt lat="44.49459" lon="6.59071">
        <ele>2401</ele>
        <time>2021-04-07T08:12:41Z</time>
      </trkpt>
      <trkpt lat="44.49458" lon="6.59072">
        <ele>2402</ele>
        <time>2021-04-07T08:12:42Z</time>
      </trkpt>
      <trkpt lat="44.49458" lon="6.59072">
        <ele>2402</ele>
        <time>2021-04-07T08:12:43Z</time>
      </trkpt>
      <trkpt lat="44.49458" lon="6.59073">
        <ele>2402</ele>
        <time>2021-04-07T08:12:44Z</time>
      </trkpt>
      <trkpt lat="44.49458" lon="6.59074">
        <ele>2402</ele>
        <time>2021-04-07T08:12:45Z</time>
      </trkpt>
      <trkpt lat="44.49457" lon="6.59074">
        <ele>2402</ele>
        <time>2021-04-07T08:12:46Z</time>
      </trkpt>
      <trkpt lat="44.49457" lon="6.59074">
        <ele>2402</ele>
        <time>2021-04-07T08:12:47Z</time>
      </trkpt>
      <trkpt lat="44.49456" lon="6.59075">
        <ele>2402</ele>
        <time>2021-04-07T08:12:48Z</time>
      </trkpt>
      <trkpt lat="44.49456" lon="6.59075">
        <ele>2403</ele>
        <time>2021-04-07T08:12:49Z</time>
      </trkpt>
      <trkpt lat="44.49456" lon="6.59075">
        <ele>2403</ele>
        <time>2021-04-07T08:12:50Z</time>
      </trkpt>
      <trkpt lat="44.49455" lon="6.59076">
        <ele>2403</ele>
        <time>2021-04-07T08:12:51Z</time>
      </trkpt>
      <trkpt lat="44.49455" lon="6.59076">
        <ele>2403</ele>
        <time>2021-04-07T08:12:52Z</time>
      </trkpt>
      <trkpt lat="44.49455" lon="6.59076">
        <ele>2403</ele>
        <time>2021-04-07T08:12:53Z</time>
      </trkpt>
      <trkpt lat="44.49455" lon="6.59077">
        <ele>2403</ele>
        <time>2021-04-07T08:12:54Z</time>
      </trkpt>
      <trkpt lat="44.49454" lon="6.59077">
        <ele>2403</ele>
        <time>2021-04-07T08:12:55Z</time>
      </trkpt>
      <trkpt lat="44.49453" lon="6.59078">
        <ele>2404</ele>
        <time>2021-04-07T08:12:56Z</time>
      </trkpt>
      <trkpt lat="44.49453" lon="6.59078">
        <ele>2404</ele>
        <time>2021-04-07T08:12:57Z</time>
      </trkpt>
      <trkpt lat="44.49452" lon="6.59079">
        <ele>2404</ele>
        <time>2021-04-07T08:12:58Z</time>
      </trkpt>
      <trkpt lat="44.49451" lon="6.5908">
        <ele>2404</ele>
        <time>2021-04-07T08:12:59Z</time>
      </trkpt>
      <trkpt lat="44.49451" lon="6.59081">
        <ele>2404</ele>
        <time>2021-04-07T08:13:00Z</time>
      </trkpt>
      <trkpt lat="44.49451" lon="6.59081">
        <ele>2404</ele>
        <time>2021-04-07T08:13:01Z</time>
      </trkpt>
      <trkpt lat="44.49451" lon="6.59082">
        <ele>2404</ele>
        <time>2021-04-07T08:13:02Z</time>
      </trkpt>
      <trkpt lat="44.4945" lon="6.59083">
        <ele>2404</ele>
        <time>2021-04-07T08:13:03Z</time>
      </trkpt>
      <trkpt lat="44.4945" lon="6.59084">
        <ele>2404</ele>
        <time>2021-04-07T08:13:04Z</time>
      </trkpt>
      <trkpt lat="44.49449" lon="6.59084">
        <ele>2405</ele>
        <time>2021-04-07T08:13:05Z</time>
      </trkpt>
      <trkpt lat="44.49448" lon="6.59085">
        <ele>2405</ele>
        <time>2021-04-07T08:13:06Z</time>
      </trkpt>
      <trkpt lat="44.49448" lon="6.59085">
        <ele>2405</ele>
        <time>2021-04-07T08:13:07Z</time>
      </trkpt>
      <trkpt lat="44.49447" lon="6.59086">
        <ele>2405</ele>
        <time>2021-04-07T08:13:08Z</time>
      </trkpt>
      <trkpt lat="44.49447" lon="6.59087">
        <ele>2406</ele>
        <time>2021-04-07T08:13:09Z</time>
      </trkpt>
      <trkpt lat="44.49446" lon="6.59088">
        <ele>2406</ele>
        <time>2021-04-07T08:13:10Z</time>
      </trkpt>
      <trkpt lat="44.49446" lon="6.59088">
        <ele>2406</ele>
        <time>2021-04-07T08:13:11Z</time>
      </trkpt>
      <trkpt lat="44.49445" lon="6.59089">
        <ele>2406</ele>
        <time>2021-04-07T08:13:12Z</time>
      </trkpt>
      <trkpt lat="44.49445" lon="6.5909">
        <ele>2407</ele>
        <time>2021-04-07T08:13:13Z</time>
      </trkpt>
      <trkpt lat="44.49444" lon="6.5909">
        <ele>2407</ele>
        <time>2021-04-07T08:13:14Z</time>
      </trkpt>
      <trkpt lat="44.49444" lon="6.59091">
        <ele>2407</ele>
        <time>2021-04-07T08:13:15Z</time>
      </trkpt>
      <trkpt lat="44.49444" lon="6.59091">
        <ele>2407</ele>
        <time>2021-04-07T08:13:16Z</time>
      </trkpt>
      <trkpt lat="44.49444" lon="6.59092">
        <ele>2407</ele>
        <time>2021-04-07T08:13:17Z</time>
      </trkpt>
      <trkpt lat="44.49443" lon="6.59093">
        <ele>2408</ele>
        <time>2021-04-07T08:13:18Z</time>
      </trkpt>
      <trkpt lat="44.49442" lon="6.59094">
        <ele>2408</ele>
        <time>2021-04-07T08:13:19Z</time>
      </trkpt>
      <trkpt lat="44.49442" lon="6.59094">
        <ele>2408</ele>
        <time>2021-04-07T08:13:20Z</time>
      </trkpt>
      <trkpt lat="44.49442" lon="6.59095">
        <ele>2408</ele>
        <time>2021-04-07T08:13:21Z</time>
      </trkpt>
      <trkpt lat="44.49441" lon="6.59096">
        <ele>2408</ele>
        <time>2021-04-07T08:13:22Z</time>
      </trkpt>
      <trkpt lat="44.49441" lon="6.59097">
        <ele>2408</ele>
        <time>2021-04-07T08:13:23Z</time>
      </trkpt>
      <trkpt lat="44.4944" lon="6.59098">
        <ele>2409</ele>
        <time>2021-04-07T08:13:24Z</time>
      </trkpt>
      <trkpt lat="44.4944" lon="6.59099">
        <ele>2409</ele>
        <time>2021-04-07T08:13:25Z</time>
      </trkpt>
      <trkpt lat="44.49439" lon="6.591">
        <ele>2409</ele>
        <time>2021-04-07T08:13:26Z</time>
      </trkpt>
      <trkpt lat="44.49438" lon="6.591">
        <ele>2409</ele>
        <time>2021-04-07T08:13:27Z</time>
      </trkpt>
      <trkpt lat="44.49438" lon="6.59101">
        <ele>2410</ele>
        <time>2021-04-07T08:13:28Z</time>
      </trkpt>
      <trkpt lat="44.49438" lon="6.59102">
        <ele>2410</ele>
        <time>2021-04-07T08:13:29Z</time>
      </trkpt>
      <trkpt lat="44.49437" lon="6.59103">
        <ele>2410</ele>
        <time>2021-04-07T08:13:30Z</time>
      </trkpt>
      <trkpt lat="44.49437" lon="6.59104">
        <ele>2410</ele>
        <time>2021-04-07T08:13:31Z</time>
      </trkpt>
      <trkpt lat="44.49437" lon="6.59104">
        <ele>2410</ele>
        <time>2021-04-07T08:13:32Z</time>
      </trkpt>
      <trkpt lat="44.49436" lon="6.59105">
        <ele>2411</ele>
        <time>2021-04-07T08:13:33Z</time>
      </trkpt>
      <trkpt lat="44.49436" lon="6.59106">
        <ele>2411</ele>
        <time>2021-04-07T08:13:34Z</time>
      </trkpt>
      <trkpt lat="44.49436" lon="6.59106">
        <ele>2411</ele>
        <time>2021-04-07T08:13:35Z</time>
      </trkpt>
      <trkpt lat="44.49436" lon="6.59107">
        <ele>2411</ele>
        <time>2021-04-07T08:13:36Z</time>
      </trkpt>
      <trkpt lat="44.49435" lon="6.59107">
        <ele>2411</ele>
        <time>2021-04-07T08:13:37Z</time>
      </trkpt>
      <trkpt lat="44.49435" lon="6.59108">
        <ele>2412</ele>
        <time>2021-04-07T08:13:38Z</time>
      </trkpt>
      <trkpt lat="44.49434" lon="6.59109">
        <ele>2412</ele>
        <time>2021-04-07T08:13:39Z</time>
      </trkpt>
      <trkpt lat="44.49434" lon="6.5911">
        <ele>2412</ele>
        <time>2021-04-07T08:13:40Z</time>
      </trkpt>
      <trkpt lat="44.49434" lon="6.59111">
        <ele>2413</ele>
        <time>2021-04-07T08:13:41Z</time>
      </trkpt>
      <trkpt lat="44.49433" lon="6.59112">
        <ele>2413</ele>
        <time>2021-04-07T08:13:42Z</time>
      </trkpt>
      <trkpt lat="44.49433" lon="6.59112">
        <ele>2413</ele>
        <time>2021-04-07T08:13:43Z</time>
      </trkpt>
      <trkpt lat="44.49432" lon="6.59113">
        <ele>2413</ele>
        <time>2021-04-07T08:13:44Z</time>
      </trkpt>
      <trkpt lat="44.49432" lon="6.59113">
        <ele>2414</ele>
        <time>2021-04-07T08:13:45Z</time>
      </trkpt>
      <trkpt lat="44.49431" lon="6.59114">
        <ele>2414</ele>
        <time>2021-04-07T08:13:46Z</time>
      </trkpt>
      <trkpt lat="44.4943" lon="6.59115">
        <ele>2414</ele>
        <time>2021-04-07T08:13:47Z</time>
      </trkpt>
      <trkpt lat="44.4943" lon="6.59116">
        <ele>2415</ele>
        <time>2021-04-07T08:13:48Z</time>
      </trkpt>
      <trkpt lat="44.49429" lon="6.59116">
        <ele>2415</ele>
        <time>2021-04-07T08:13:49Z</time>
      </trkpt>
      <trkpt lat="44.49429" lon="6.59117">
        <ele>2415</ele>
        <time>2021-04-07T08:13:50Z</time>
      </trkpt>
      <trkpt lat="44.49429" lon="6.59118">
        <ele>2415</ele>
        <time>2021-04-07T08:13:51Z</time>
      </trkpt>
      <trkpt lat="44.49428" lon="6.59118">
        <ele>2416</ele>
        <time>2021-04-07T08:13:52Z</time>
      </trkpt>
      <trkpt lat="44.49428" lon="6.59119">
        <ele>2416</ele>
        <time>2021-04-07T08:13:53Z</time>
      </trkpt>
      <trkpt lat="44.49428" lon="6.5912">
        <ele>2416</ele>
        <time>2021-04-07T08:13:54Z</time>
      </trkpt>
      <trkpt lat="44.49427" lon="6.59121">
        <ele>2416</ele>
        <time>2021-04-07T08:13:55Z</time>
      </trkpt>
      <trkpt lat="44.49427" lon="6.59122">
        <ele>2416</ele>
        <time>2021-04-07T08:13:56Z</time>
      </trkpt>
      <trkpt lat="44.49427" lon="6.59122">
        <ele>2417</ele>
        <time>2021-04-07T08:13:57Z</time>
      </trkpt>
      <trkpt lat="44.49426" lon="6.59123">
        <ele>2417</ele>
        <time>2021-04-07T08:13:58Z</time>
      </trkpt>
      <trkpt lat="44.49426" lon="6.59125">
        <ele>2417</ele>
        <time>2021-04-07T08:13:59Z</time>
      </trkpt>
      <trkpt lat="44.49426" lon="6.59126">
        <ele>2417</ele>
        <time>2021-04-07T08:14:00Z</time>
      </trkpt>
      <trkpt lat="44.49426" lon="6.59127">
        <ele>2417</ele>
        <time>2021-04-07T08:14:01Z</time>
      </trkpt>
      <trkpt lat="44.49427" lon="6.59129">
        <ele>2418</ele>
        <time>2021-04-07T08:14:02Z</time>
      </trkpt>
      <trkpt lat="44.49427" lon="6.5913">
        <ele>2418</ele>
        <time>2021-04-07T08:14:03Z</time>
      </trkpt>
      <trkpt lat="44.49427" lon="6.59131">
        <ele>2418</ele>
        <time>2021-04-07T08:14:04Z</time>
      </trkpt>
      <trkpt lat="44.49427" lon="6.59132">
        <ele>2418</ele>
        <time>2021-04-07T08:14:05Z</time>
      </trkpt>
      <trkpt lat="44.49427" lon="6.59133">
        <ele>2419</ele>
        <time>2021-04-07T08:14:06Z</time>
      </trkpt>
      <trkpt lat="44.49426" lon="6.59134">
        <ele>2419</ele>
        <time>2021-04-07T08:14:07Z</time>
      </trkpt>
      <trkpt lat="44.49426" lon="6.59134">
        <ele>2419</ele>
        <time>2021-04-07T08:14:08Z</time>
      </trkpt>
      <trkpt lat="44.49426" lon="6.59134">
        <ele>2419</ele>
        <time>2021-04-07T08:14:09Z</time>
      </trkpt>
      <trkpt lat="44.49426" lon="6.59134">
        <ele>2420</ele>
        <time>2021-04-07T08:14:10Z</time>
      </trkpt>
      <trkpt lat="44.49426" lon="6.59134">
        <ele>2420</ele>
        <time>2021-04-07T08:14:11Z</time>
      </trkpt>
      <trkpt lat="44.49426" lon="6.59134">
        <ele>2420</ele>
        <time>2021-04-07T08:14:12Z</time>
      </trkpt>
      <trkpt lat="44.49426" lon="6.59134">
        <ele>2420</ele>
        <time>2021-04-07T08:14:13Z</time>
      </trkpt>
      <trkpt lat="44.49426" lon="6.59134">
        <ele>2420</ele>
        <time>2021-04-07T08:14:14Z</time>
      </trkpt>
      <trkpt lat="44.49425" lon="6.59133">
        <ele>2420</ele>
        <time>2021-04-07T08:14:15Z</time>
      </trkpt>
      <trkpt lat="44.49425" lon="6.59133">
        <ele>2420</ele>
        <time>2021-04-07T08:14:16Z</time>
      </trkpt>
      <trkpt lat="44.49425" lon="6.59133">
        <ele>2420</ele>
        <time>2021-04-07T08:14:17Z</time>
      </trkpt>
      <trkpt lat="44.49425" lon="6.59133">
        <ele>2420</ele>
        <time>2021-04-07T08:14:18Z</time>
      </trkpt>
      <trkpt lat="44.49425" lon="6.59133">
        <ele>2420</ele>
        <time>2021-04-07T08:14:19Z</time>
      </trkpt>
      <trkpt lat="44.49423" lon="6.59131">
        <ele>2420</ele>
        <time>2021-04-07T08:14:20Z</time>
      </trkpt>
      <trkpt lat="44.49423" lon="6.5913">
        <ele>2420</ele>
        <time>2021-04-07T08:14:21Z</time>
      </trkpt>
      <trkpt lat="44.49423" lon="6.5913">
        <ele>2420</ele>
        <time>2021-04-07T08:14:22Z</time>
      </trkpt>
      <trkpt lat="44.49422" lon="6.5913">
        <ele>2420</ele>
        <time>2021-04-07T08:14:23Z</time>
      </trkpt>
      <trkpt lat="44.49421" lon="6.5913">
        <ele>2420</ele>
        <time>2021-04-07T08:14:24Z</time>
      </trkpt>
      <trkpt lat="44.49421" lon="6.59129">
        <ele>2421</ele>
        <time>2021-04-07T08:14:25Z</time>
      </trkpt>
      <trkpt lat="44.4942" lon="6.59128">
        <ele>2421</ele>
        <time>2021-04-07T08:14:26Z</time>
      </trkpt>
      <trkpt lat="44.4942" lon="6.59127">
        <ele>2421</ele>
        <time>2021-04-07T08:14:27Z</time>
      </trkpt>
      <trkpt lat="44.49419" lon="6.59126">
        <ele>2421</ele>
        <time>2021-04-07T08:14:28Z</time>
      </trkpt>
      <trkpt lat="44.49419" lon="6.59125">
        <ele>2421</ele>
        <time>2021-04-07T08:14:29Z</time>
      </trkpt>
      <trkpt lat="44.49419" lon="6.59124">
        <ele>2421</ele>
        <time>2021-04-07T08:14:30Z</time>
      </trkpt>
      <trkpt lat="44.49418" lon="6.59123">
        <ele>2422</ele>
        <time>2021-04-07T08:14:31Z</time>
      </trkpt>
      <trkpt lat="44.49418" lon="6.59122">
        <ele>2422</ele>
        <time>2021-04-07T08:14:32Z</time>
      </trkpt>
      <trkpt lat="44.49417" lon="6.59122">
        <ele>2422</ele>
        <time>2021-04-07T08:14:33Z</time>
      </trkpt>
      <trkpt lat="44.49417" lon="6.59121">
        <ele>2422</ele>
        <time>2021-04-07T08:14:34Z</time>
      </trkpt>
      <trkpt lat="44.49417" lon="6.5912">
        <ele>2422</ele>
        <time>2021-04-07T08:14:35Z</time>
      </trkpt>
      <trkpt lat="44.49417" lon="6.59119">
        <ele>2422</ele>
        <time>2021-04-07T08:14:36Z</time>
      </trkpt>
      <trkpt lat="44.49417" lon="6.59118">
        <ele>2422</ele>
        <time>2021-04-07T08:14:37Z</time>
      </trkpt>
      <trkpt lat="44.49417" lon="6.59118">
        <ele>2422</ele>
        <time>2021-04-07T08:14:38Z</time>
      </trkpt>
      <trkpt lat="44.49417" lon="6.59117">
        <ele>2422</ele>
        <time>2021-04-07T08:14:39Z</time>
      </trkpt>
      <trkpt lat="44.49417" lon="6.59117">
        <ele>2422</ele>
        <time>2021-04-07T08:14:40Z</time>
      </trkpt>
      <trkpt lat="44.49416" lon="6.59116">
        <ele>2423</ele>
        <time>2021-04-07T08:14:41Z</time>
      </trkpt>
      <trkpt lat="44.49416" lon="6.59116">
        <ele>2423</ele>
        <time>2021-04-07T08:14:42Z</time>
      </trkpt>
      <trkpt lat="44.49416" lon="6.59115">
        <ele>2423</ele>
        <time>2021-04-07T08:14:43Z</time>
      </trkpt>
      <trkpt lat="44.49416" lon="6.59115">
        <ele>2423</ele>
        <time>2021-04-07T08:14:44Z</time>
      </trkpt>
      <trkpt lat="44.49415" lon="6.59114">
        <ele>2423</ele>
        <time>2021-04-07T08:14:45Z</time>
      </trkpt>
      <trkpt lat="44.49415" lon="6.59113">
        <ele>2423</ele>
        <time>2021-04-07T08:14:46Z</time>
      </trkpt>
      <trkpt lat="44.49415" lon="6.59112">
        <ele>2423</ele>
        <time>2021-04-07T08:14:47Z</time>
      </trkpt>
      <trkpt lat="44.49414" lon="6.59111">
        <ele>2423</ele>
        <time>2021-04-07T08:14:48Z</time>
      </trkpt>
      <trkpt lat="44.49414" lon="6.5911">
        <ele>2423</ele>
        <time>2021-04-07T08:14:49Z</time>
      </trkpt>
      <trkpt lat="44.49414" lon="6.59109">
        <ele>2423</ele>
        <time>2021-04-07T08:14:50Z</time>
      </trkpt>
      <trkpt lat="44.49414" lon="6.59108">
        <ele>2424</ele>
        <time>2021-04-07T08:14:51Z</time>
      </trkpt>
      <trkpt lat="44.49413" lon="6.59108">
        <ele>2424</ele>
        <time>2021-04-07T08:14:52Z</time>
      </trkpt>
      <trkpt lat="44.49413" lon="6.59107">
        <ele>2424</ele>
        <time>2021-04-07T08:14:53Z</time>
      </trkpt>
      <trkpt lat="44.49413" lon="6.59107">
        <ele>2424</ele>
        <time>2021-04-07T08:14:54Z</time>
      </trkpt>
      <trkpt lat="44.49413" lon="6.59106">
        <ele>2424</ele>
        <time>2021-04-07T08:14:55Z</time>
      </trkpt>
      <trkpt lat="44.49412" lon="6.59105">
        <ele>2424</ele>
        <time>2021-04-07T08:14:56Z</time>
      </trkpt>
      <trkpt lat="44.49412" lon="6.59104">
        <ele>2424</ele>
        <time>2021-04-07T08:14:57Z</time>
      </trkpt>
      <trkpt lat="44.49412" lon="6.59103">
        <ele>2424</ele>
        <time>2021-04-07T08:14:58Z</time>
      </trkpt>
      <trkpt lat="44.49411" lon="6.59102">
        <ele>2424</ele>
        <time>2021-04-07T08:14:59Z</time>
      </trkpt>
      <trkpt lat="44.49411" lon="6.59102">
        <ele>2424</ele>
        <time>2021-04-07T08:15:00Z</time>
      </trkpt>
      <trkpt lat="44.49411" lon="6.59101">
        <ele>2424</ele>
        <time>2021-04-07T08:15:01Z</time>
      </trkpt>
      <trkpt lat="44.49411" lon="6.591">
        <ele>2424</ele>
        <time>2021-04-07T08:15:02Z</time>
      </trkpt>
      <trkpt lat="44.4941" lon="6.591">
        <ele>2424</ele>
        <time>2021-04-07T08:15:03Z</time>
      </trkpt>
      <trkpt lat="44.4941" lon="6.59099">
        <ele>2425</ele>
        <time>2021-04-07T08:15:04Z</time>
      </trkpt>
      <trkpt lat="44.4941" lon="6.59099">
        <ele>2425</ele>
        <time>2021-04-07T08:15:05Z</time>
      </trkpt>
      <trkpt lat="44.49409" lon="6.59097">
        <ele>2425</ele>
        <time>2021-04-07T08:15:06Z</time>
      </trkpt>
      <trkpt lat="44.49409" lon="6.59096">
        <ele>2425</ele>
        <time>2021-04-07T08:15:07Z</time>
      </trkpt>
      <trkpt lat="44.49408" lon="6.59095">
        <ele>2425</ele>
        <time>2021-04-07T08:15:08Z</time>
      </trkpt>
      <trkpt lat="44.49408" lon="6.59094">
        <ele>2425</ele>
        <time>2021-04-07T08:15:09Z</time>
      </trkpt>
      <trkpt lat="44.49408" lon="6.59093">
        <ele>2425</ele>
        <time>2021-04-07T08:15:10Z</time>
      </trkpt>
      <trkpt lat="44.49408" lon="6.59092">
        <ele>2426</ele>
        <time>2021-04-07T08:15:11Z</time>
      </trkpt>
      <trkpt lat="44.49407" lon="6.59092">
        <ele>2426</ele>
        <time>2021-04-07T08:15:12Z</time>
      </trkpt>
      <trkpt lat="44.49407" lon="6.59091">
        <ele>2426</ele>
        <time>2021-04-07T08:15:13Z</time>
      </trkpt>
      <trkpt lat="44.49407" lon="6.5909">
        <ele>2426</ele>
        <time>2021-04-07T08:15:14Z</time>
      </trkpt>
      <trkpt lat="44.49407" lon="6.5909">
        <ele>2426</ele>
        <time>2021-04-07T08:15:15Z</time>
      </trkpt>
      <trkpt lat="44.49406" lon="6.59089">
        <ele>2426</ele>
        <time>2021-04-07T08:15:16Z</time>
      </trkpt>
      <trkpt lat="44.49406" lon="6.59088">
        <ele>2426</ele>
        <time>2021-04-07T08:15:17Z</time>
      </trkpt>
      <trkpt lat="44.49406" lon="6.59088">
        <ele>2427</ele>
        <time>2021-04-07T08:15:18Z</time>
      </trkpt>
      <trkpt lat="44.49406" lon="6.59087">
        <ele>2427</ele>
        <time>2021-04-07T08:15:19Z</time>
      </trkpt>
      <trkpt lat="44.49405" lon="6.59086">
        <ele>2427</ele>
        <time>2021-04-07T08:15:20Z</time>
      </trkpt>
      <trkpt lat="44.49405" lon="6.59085">
        <ele>2427</ele>
        <time>2021-04-07T08:15:21Z</time>
      </trkpt>
      <trkpt lat="44.49404" lon="6.59084">
        <ele>2427</ele>
        <time>2021-04-07T08:15:22Z</time>
      </trkpt>
      <trkpt lat="44.49404" lon="6.59083">
        <ele>2427</ele>
        <time>2021-04-07T08:15:23Z</time>
      </trkpt>
      <trkpt lat="44.49403" lon="6.59082">
        <ele>2427</ele>
        <time>2021-04-07T08:15:24Z</time>
      </trkpt>
      <trkpt lat="44.49403" lon="6.59081">
        <ele>2427</ele>
        <time>2021-04-07T08:15:25Z</time>
      </trkpt>
      <trkpt lat="44.49402" lon="6.59081">
        <ele>2427</ele>
        <time>2021-04-07T08:15:26Z</time>
      </trkpt>
      <trkpt lat="44.49402" lon="6.5908">
        <ele>2428</ele>
        <time>2021-04-07T08:15:27Z</time>
      </trkpt>
      <trkpt lat="44.49402" lon="6.5908">
        <ele>2428</ele>
        <time>2021-04-07T08:15:28Z</time>
      </trkpt>
      <trkpt lat="44.49402" lon="6.59079">
        <ele>2428</ele>
        <time>2021-04-07T08:15:29Z</time>
      </trkpt>
      <trkpt lat="44.49401" lon="6.59079">
        <ele>2428</ele>
        <time>2021-04-07T08:15:30Z</time>
      </trkpt>
      <trkpt lat="44.49401" lon="6.59079">
        <ele>2428</ele>
        <time>2021-04-07T08:15:31Z</time>
      </trkpt>
      <trkpt lat="44.49401" lon="6.59078">
        <ele>2429</ele>
        <time>2021-04-07T08:15:32Z</time>
      </trkpt>
      <trkpt lat="44.49401" lon="6.59078">
        <ele>2429</ele>
        <time>2021-04-07T08:15:33Z</time>
      </trkpt>
      <trkpt lat="44.49401" lon="6.59077">
        <ele>2429</ele>
        <time>2021-04-07T08:15:34Z</time>
      </trkpt>
      <trkpt lat="44.494" lon="6.59077">
        <ele>2429</ele>
        <time>2021-04-07T08:15:35Z</time>
      </trkpt>
      <trkpt lat="44.49401" lon="6.59076">
        <ele>2429</ele>
        <time>2021-04-07T08:15:36Z</time>
      </trkpt>
      <trkpt lat="44.494" lon="6.59075">
        <ele>2429</ele>
        <time>2021-04-07T08:15:37Z</time>
      </trkpt>
      <trkpt lat="44.494" lon="6.59074">
        <ele>2429</ele>
        <time>2021-04-07T08:15:38Z</time>
      </trkpt>
      <trkpt lat="44.494" lon="6.59072">
        <ele>2429</ele>
        <time>2021-04-07T08:15:39Z</time>
      </trkpt>
      <trkpt lat="44.49399" lon="6.59072">
        <ele>2429</ele>
        <time>2021-04-07T08:15:40Z</time>
      </trkpt>
      <trkpt lat="44.49399" lon="6.59071">
        <ele>2429</ele>
        <time>2021-04-07T08:15:41Z</time>
      </trkpt>
      <trkpt lat="44.49399" lon="6.5907">
        <ele>2429</ele>
        <time>2021-04-07T08:15:42Z</time>
      </trkpt>
      <trkpt lat="44.49399" lon="6.59069">
        <ele>2429</ele>
        <time>2021-04-07T08:15:43Z</time>
      </trkpt>
      <trkpt lat="44.49398" lon="6.59068">
        <ele>2430</ele>
        <time>2021-04-07T08:15:44Z</time>
      </trkpt>
      <trkpt lat="44.49398" lon="6.59068">
        <ele>2430</ele>
        <time>2021-04-07T08:15:45Z</time>
      </trkpt>
      <trkpt lat="44.49398" lon="6.59067">
        <ele>2430</ele>
        <time>2021-04-07T08:15:46Z</time>
      </trkpt>
      <trkpt lat="44.49397" lon="6.59065">
        <ele>2430</ele>
        <time>2021-04-07T08:15:47Z</time>
      </trkpt>
      <trkpt lat="44.49396" lon="6.59065">
        <ele>2430</ele>
        <time>2021-04-07T08:15:48Z</time>
      </trkpt>
      <trkpt lat="44.49396" lon="6.59064">
        <ele>2429</ele>
        <time>2021-04-07T08:15:49Z</time>
      </trkpt>
      <trkpt lat="44.49396" lon="6.59063">
        <ele>2429</ele>
        <time>2021-04-07T08:15:50Z</time>
      </trkpt>
      <trkpt lat="44.49396" lon="6.59062">
        <ele>2429</ele>
        <time>2021-04-07T08:15:51Z</time>
      </trkpt>
      <trkpt lat="44.49395" lon="6.59061">
        <ele>2429</ele>
        <time>2021-04-07T08:15:52Z</time>
      </trkpt>
      <trkpt lat="44.49395" lon="6.5906">
        <ele>2429</ele>
        <time>2021-04-07T08:15:53Z</time>
      </trkpt>
      <trkpt lat="44.49394" lon="6.59059">
        <ele>2429</ele>
        <time>2021-04-07T08:15:54Z</time>
      </trkpt>
      <trkpt lat="44.49393" lon="6.59058">
        <ele>2429</ele>
        <time>2021-04-07T08:15:55Z</time>
      </trkpt>
      <trkpt lat="44.49393" lon="6.59057">
        <ele>2429</ele>
        <time>2021-04-07T08:15:56Z</time>
      </trkpt>
      <trkpt lat="44.49393" lon="6.59055">
        <ele>2429</ele>
        <time>2021-04-07T08:15:57Z</time>
      </trkpt>
      <trkpt lat="44.49392" lon="6.59054">
        <ele>2430</ele>
        <time>2021-04-07T08:15:58Z</time>
      </trkpt>
      <trkpt lat="44.49392" lon="6.59053">
        <ele>2430</ele>
        <time>2021-04-07T08:15:59Z</time>
      </trkpt>
      <trkpt lat="44.49392" lon="6.59051">
        <ele>2430</ele>
        <time>2021-04-07T08:16:00Z</time>
      </trkpt>
      <trkpt lat="44.49393" lon="6.5905">
        <ele>2430</ele>
        <time>2021-04-07T08:16:01Z</time>
      </trkpt>
      <trkpt lat="44.49393" lon="6.5905">
        <ele>2430</ele>
        <time>2021-04-07T08:16:02Z</time>
      </trkpt>
      <trkpt lat="44.49393" lon="6.59049">
        <ele>2430</ele>
        <time>2021-04-07T08:16:03Z</time>
      </trkpt>
      <trkpt lat="44.49392" lon="6.59048">
        <ele>2430</ele>
        <time>2021-04-07T08:16:04Z</time>
      </trkpt>
      <trkpt lat="44.49392" lon="6.59047">
        <ele>2430</ele>
        <time>2021-04-07T08:16:05Z</time>
      </trkpt>
      <trkpt lat="44.49392" lon="6.59045">
        <ele>2431</ele>
        <time>2021-04-07T08:16:06Z</time>
      </trkpt>
      <trkpt lat="44.49392" lon="6.59044">
        <ele>2431</ele>
        <time>2021-04-07T08:16:07Z</time>
      </trkpt>
      <trkpt lat="44.49391" lon="6.59044">
        <ele>2431</ele>
        <time>2021-04-07T08:16:08Z</time>
      </trkpt>
      <trkpt lat="44.49391" lon="6.59043">
        <ele>2431</ele>
        <time>2021-04-07T08:16:09Z</time>
      </trkpt>
      <trkpt lat="44.49391" lon="6.59042">
        <ele>2431</ele>
        <time>2021-04-07T08:16:10Z</time>
      </trkpt>
      <trkpt lat="44.49391" lon="6.59042">
        <ele>2432</ele>
        <time>2021-04-07T08:16:11Z</time>
      </trkpt>
      <trkpt lat="44.4939" lon="6.59041">
        <ele>2432</ele>
        <time>2021-04-07T08:16:12Z</time>
      </trkpt>
      <trkpt lat="44.4939" lon="6.5904">
        <ele>2432</ele>
        <time>2021-04-07T08:16:13Z</time>
      </trkpt>
      <trkpt lat="44.4939" lon="6.5904">
        <ele>2432</ele>
        <time>2021-04-07T08:16:14Z</time>
      </trkpt>
      <trkpt lat="44.4939" lon="6.59039">
        <ele>2433</ele>
        <time>2021-04-07T08:16:15Z</time>
      </trkpt>
      <trkpt lat="44.4939" lon="6.59038">
        <ele>2433</ele>
        <time>2021-04-07T08:16:16Z</time>
      </trkpt>
      <trkpt lat="44.4939" lon="6.59037">
        <ele>2433</ele>
        <time>2021-04-07T08:16:17Z</time>
      </trkpt>
      <trkpt lat="44.49389" lon="6.59036">
        <ele>2434</ele>
        <time>2021-04-07T08:16:18Z</time>
      </trkpt>
      <trkpt lat="44.49389" lon="6.59035">
        <ele>2434</ele>
        <time>2021-04-07T08:16:19Z</time>
      </trkpt>
      <trkpt lat="44.49388" lon="6.59034">
        <ele>2434</ele>
        <time>2021-04-07T08:16:20Z</time>
      </trkpt>
      <trkpt lat="44.49389" lon="6.59033">
        <ele>2434</ele>
        <time>2021-04-07T08:16:21Z</time>
      </trkpt>
      <trkpt lat="44.49389" lon="6.59032">
        <ele>2434</ele>
        <time>2021-04-07T08:16:22Z</time>
      </trkpt>
      <trkpt lat="44.49388" lon="6.59031">
        <ele>2435</ele>
        <time>2021-04-07T08:16:23Z</time>
      </trkpt>
      <trkpt lat="44.49388" lon="6.5903">
        <ele>2435</ele>
        <time>2021-04-07T08:16:24Z</time>
      </trkpt>
      <trkpt lat="44.49388" lon="6.59029">
        <ele>2435</ele>
        <time>2021-04-07T08:16:25Z</time>
      </trkpt>
      <trkpt lat="44.49388" lon="6.59028">
        <ele>2435</ele>
        <time>2021-04-07T08:16:26Z</time>
      </trkpt>
      <trkpt lat="44.49388" lon="6.59028">
        <ele>2435</ele>
        <time>2021-04-07T08:16:27Z</time>
      </trkpt>
      <trkpt lat="44.49387" lon="6.59026">
        <ele>2435</ele>
        <time>2021-04-07T08:16:28Z</time>
      </trkpt>
      <trkpt lat="44.49387" lon="6.59025">
        <ele>2435</ele>
        <time>2021-04-07T08:16:29Z</time>
      </trkpt>
      <trkpt lat="44.49387" lon="6.59024">
        <ele>2435</ele>
        <time>2021-04-07T08:16:30Z</time>
      </trkpt>
      <trkpt lat="44.49387" lon="6.59023">
        <ele>2436</ele>
        <time>2021-04-07T08:16:31Z</time>
      </trkpt>
      <trkpt lat="44.49387" lon="6.59022">
        <ele>2436</ele>
        <time>2021-04-07T08:16:32Z</time>
      </trkpt>
      <trkpt lat="44.49387" lon="6.59021">
        <ele>2436</ele>
        <time>2021-04-07T08:16:33Z</time>
      </trkpt>
      <trkpt lat="44.49387" lon="6.5902">
        <ele>2436</ele>
        <time>2021-04-07T08:16:34Z</time>
      </trkpt>
      <trkpt lat="44.49386" lon="6.59019">
        <ele>2437</ele>
        <time>2021-04-07T08:16:35Z</time>
      </trkpt>
      <trkpt lat="44.49386" lon="6.59018">
        <ele>2437</ele>
        <time>2021-04-07T08:16:36Z</time>
      </trkpt>
      <trkpt lat="44.49386" lon="6.59017">
        <ele>2437</ele>
        <time>2021-04-07T08:16:37Z</time>
      </trkpt>
      <trkpt lat="44.49386" lon="6.59016">
        <ele>2437</ele>
        <time>2021-04-07T08:16:38Z</time>
      </trkpt>
      <trkpt lat="44.49385" lon="6.59016">
        <ele>2438</ele>
        <time>2021-04-07T08:16:39Z</time>
      </trkpt>
      <trkpt lat="44.49385" lon="6.59015">
        <ele>2438</ele>
        <time>2021-04-07T08:16:40Z</time>
      </trkpt>
      <trkpt lat="44.49384" lon="6.59014">
        <ele>2438</ele>
        <time>2021-04-07T08:16:41Z</time>
      </trkpt>
      <trkpt lat="44.49384" lon="6.59014">
        <ele>2439</ele>
        <time>2021-04-07T08:16:42Z</time>
      </trkpt>
      <trkpt lat="44.49384" lon="6.59013">
        <ele>2439</ele>
        <time>2021-04-07T08:16:43Z</time>
      </trkpt>
      <trkpt lat="44.49383" lon="6.59013">
        <ele>2439</ele>
        <time>2021-04-07T08:16:44Z</time>
      </trkpt>
      <trkpt lat="44.49383" lon="6.59012">
        <ele>2438</ele>
        <time>2021-04-07T08:16:45Z</time>
      </trkpt>
      <trkpt lat="44.49382" lon="6.5901">
        <ele>2438</ele>
        <time>2021-04-07T08:16:46Z</time>
      </trkpt>
      <trkpt lat="44.49381" lon="6.59009">
        <ele>2438</ele>
        <time>2021-04-07T08:16:47Z</time>
      </trkpt>
      <trkpt lat="44.49381" lon="6.59008">
        <ele>2438</ele>
        <time>2021-04-07T08:16:48Z</time>
      </trkpt>
      <trkpt lat="44.49381" lon="6.59008">
        <ele>2438</ele>
        <time>2021-04-07T08:16:49Z</time>
      </trkpt>
      <trkpt lat="44.49381" lon="6.59007">
        <ele>2438</ele>
        <time>2021-04-07T08:16:50Z</time>
      </trkpt>
      <trkpt lat="44.49381" lon="6.59006">
        <ele>2438</ele>
        <time>2021-04-07T08:16:51Z</time>
      </trkpt>
      <trkpt lat="44.49381" lon="6.59005">
        <ele>2438</ele>
        <time>2021-04-07T08:16:52Z</time>
      </trkpt>
      <trkpt lat="44.49381" lon="6.59004">
        <ele>2438</ele>
        <time>2021-04-07T08:16:53Z</time>
      </trkpt>
      <trkpt lat="44.4938" lon="6.59004">
        <ele>2437</ele>
        <time>2021-04-07T08:16:54Z</time>
      </trkpt>
      <trkpt lat="44.4938" lon="6.59003">
        <ele>2437</ele>
        <time>2021-04-07T08:16:55Z</time>
      </trkpt>
      <trkpt lat="44.4938" lon="6.59002">
        <ele>2437</ele>
        <time>2021-04-07T08:16:56Z</time>
      </trkpt>
      <trkpt lat="44.4938" lon="6.59001">
        <ele>2437</ele>
        <time>2021-04-07T08:16:57Z</time>
      </trkpt>
      <trkpt lat="44.4938" lon="6.59">
        <ele>2437</ele>
        <time>2021-04-07T08:16:58Z</time>
      </trkpt>
      <trkpt lat="44.49379" lon="6.58999">
        <ele>2437</ele>
        <time>2021-04-07T08:16:59Z</time>
      </trkpt>
      <trkpt lat="44.49379" lon="6.58997">
        <ele>2437</ele>
        <time>2021-04-07T08:17:00Z</time>
      </trkpt>
      <trkpt lat="44.49379" lon="6.58996">
        <ele>2436</ele>
        <time>2021-04-07T08:17:01Z</time>
      </trkpt>
      <trkpt lat="44.49379" lon="6.58996">
        <ele>2436</ele>
        <time>2021-04-07T08:17:02Z</time>
      </trkpt>
      <trkpt lat="44.49378" lon="6.58995">
        <ele>2436</ele>
        <time>2021-04-07T08:17:03Z</time>
      </trkpt>
      <trkpt lat="44.49379" lon="6.58994">
        <ele>2436</ele>
        <time>2021-04-07T08:17:04Z</time>
      </trkpt>
      <trkpt lat="44.49378" lon="6.58992">
        <ele>2436</ele>
        <time>2021-04-07T08:17:05Z</time>
      </trkpt>
      <trkpt lat="44.49378" lon="6.58991">
        <ele>2436</ele>
        <time>2021-04-07T08:17:06Z</time>
      </trkpt>
      <trkpt lat="44.49378" lon="6.5899">
        <ele>2436</ele>
        <time>2021-04-07T08:17:07Z</time>
      </trkpt>
      <trkpt lat="44.49378" lon="6.58989">
        <ele>2435</ele>
        <time>2021-04-07T08:17:08Z</time>
      </trkpt>
      <trkpt lat="44.49378" lon="6.58988">
        <ele>2435</ele>
        <time>2021-04-07T08:17:09Z</time>
      </trkpt>
      <trkpt lat="44.49378" lon="6.58987">
        <ele>2435</ele>
        <time>2021-04-07T08:17:10Z</time>
      </trkpt>
      <trkpt lat="44.49378" lon="6.58987">
        <ele>2435</ele>
        <time>2021-04-07T08:17:11Z</time>
      </trkpt>
      <trkpt lat="44.49378" lon="6.58986">
        <ele>2435</ele>
        <time>2021-04-07T08:17:12Z</time>
      </trkpt>
      <trkpt lat="44.49378" lon="6.58985">
        <ele>2435</ele>
        <time>2021-04-07T08:17:13Z</time>
      </trkpt>
      <trkpt lat="44.49378" lon="6.58985">
        <ele>2435</ele>
        <time>2021-04-07T08:17:14Z</time>
      </trkpt>
      <trkpt lat="44.49379" lon="6.58984">
        <ele>2435</ele>
        <time>2021-04-07T08:17:15Z</time>
      </trkpt>
      <trkpt lat="44.49379" lon="6.58983">
        <ele>2435</ele>
        <time>2021-04-07T08:17:16Z</time>
      </trkpt>
      <trkpt lat="44.49379" lon="6.58983">
        <ele>2435</ele>
        <time>2021-04-07T08:17:17Z</time>
      </trkpt>
      <trkpt lat="44.49379" lon="6.58982">
        <ele>2435</ele>
        <time>2021-04-07T08:17:18Z</time>
      </trkpt>
      <trkpt lat="44.49379" lon="6.5898">
        <ele>2435</ele>
        <time>2021-04-07T08:17:19Z</time>
      </trkpt>
      <trkpt lat="44.4938" lon="6.58979">
        <ele>2436</ele>
        <time>2021-04-07T08:17:20Z</time>
      </trkpt>
      <trkpt lat="44.4938" lon="6.58979">
        <ele>2436</ele>
        <time>2021-04-07T08:17:21Z</time>
      </trkpt>
      <trkpt lat="44.4938" lon="6.58977">
        <ele>2436</ele>
        <time>2021-04-07T08:17:22Z</time>
      </trkpt>
      <trkpt lat="44.49381" lon="6.58975">
        <ele>2436</ele>
        <time>2021-04-07T08:17:23Z</time>
      </trkpt>
      <trkpt lat="44.49381" lon="6.58974">
        <ele>2436</ele>
        <time>2021-04-07T08:17:24Z</time>
      </trkpt>
      <trkpt lat="44.49382" lon="6.58973">
        <ele>2436</ele>
        <time>2021-04-07T08:17:25Z</time>
      </trkpt>
      <trkpt lat="44.49382" lon="6.58973">
        <ele>2437</ele>
        <time>2021-04-07T08:17:26Z</time>
      </trkpt>
      <trkpt lat="44.49382" lon="6.58972">
        <ele>2437</ele>
        <time>2021-04-07T08:17:27Z</time>
      </trkpt>
      <trkpt lat="44.49382" lon="6.58972">
        <ele>2437</ele>
        <time>2021-04-07T08:17:28Z</time>
      </trkpt>
      <trkpt lat="44.49382" lon="6.58972">
        <ele>2437</ele>
        <time>2021-04-07T08:17:29Z</time>
      </trkpt>
      <trkpt lat="44.49382" lon="6.58972">
        <ele>2438</ele>
        <time>2021-04-07T08:17:30Z</time>
      </trkpt>
      <trkpt lat="44.49382" lon="6.58972">
        <ele>2438</ele>
        <time>2021-04-07T08:17:31Z</time>
      </trkpt>
      <trkpt lat="44.49381" lon="6.58973">
        <ele>2438</ele>
        <time>2021-04-07T08:17:32Z</time>
      </trkpt>
      <trkpt lat="44.49381" lon="6.58973">
        <ele>2438</ele>
        <time>2021-04-07T08:17:33Z</time>
      </trkpt>
      <trkpt lat="44.49381" lon="6.58973">
        <ele>2438</ele>
        <time>2021-04-07T08:17:34Z</time>
      </trkpt>
      <trkpt lat="44.49381" lon="6.58973">
        <ele>2439</ele>
        <time>2021-04-07T08:17:35Z</time>
      </trkpt>
      <trkpt lat="44.49381" lon="6.58973">
        <ele>2439</ele>
        <time>2021-04-07T08:17:36Z</time>
      </trkpt>
      <trkpt lat="44.49381" lon="6.58973">
        <ele>2439</ele>
        <time>2021-04-07T08:17:37Z</time>
      </trkpt>
      <trkpt lat="44.49381" lon="6.58973">
        <ele>2439</ele>
        <time>2021-04-07T08:17:38Z</time>
      </trkpt>
      <trkpt lat="44.49381" lon="6.58973">
        <ele>2439</ele>
        <time>2021-04-07T08:17:39Z</time>
      </trkpt>
      <trkpt lat="44.49381" lon="6.58973">
        <ele>2440</ele>
        <time>2021-04-07T08:17:40Z</time>
      </trkpt>
      <trkpt lat="44.49381" lon="6.58973">
        <ele>2440</ele>
        <time>2021-04-07T08:17:41Z</time>
      </trkpt>
      <trkpt lat="44.49381" lon="6.58973">
        <ele>2440</ele>
        <time>2021-04-07T08:17:42Z</time>
      </trkpt>
      <trkpt lat="44.49381" lon="6.58973">
        <ele>2440</ele>
        <time>2021-04-07T08:17:43Z</time>
      </trkpt>
      <trkpt lat="44.49381" lon="6.58973">
        <ele>2440</ele>
        <time>2021-04-07T08:17:44Z</time>
      </trkpt>
      <trkpt lat="44.49381" lon="6.58973">
        <ele>2440</ele>
        <time>2021-04-07T08:17:45Z</time>
      </trkpt>
      <trkpt lat="44.49381" lon="6.58973">
        <ele>2440</ele>
        <time>2021-04-07T08:17:46Z</time>
      </trkpt>
      <trkpt lat="44.49381" lon="6.58973">
        <ele>2440</ele>
        <time>2021-04-07T08:17:47Z</time>
      </trkpt>
      <trkpt lat="44.49381" lon="6.58973">
        <ele>2440</ele>
        <time>2021-04-07T08:17:48Z</time>
      </trkpt>
      <trkpt lat="44.49381" lon="6.58973">
        <ele>2441</ele>
        <time>2021-04-07T08:17:49Z</time>
      </trkpt>
      <trkpt lat="44.49381" lon="6.58973">
        <ele>2441</ele>
        <time>2021-04-07T08:17:50Z</time>
      </trkpt>
      <trkpt lat="44.49381" lon="6.58973">
        <ele>2441</ele>
        <time>2021-04-07T08:17:51Z</time>
      </trkpt>
      <trkpt lat="44.49381" lon="6.58973">
        <ele>2441</ele>
        <time>2021-04-07T08:17:52Z</time>
      </trkpt>
      <trkpt lat="44.49381" lon="6.58973">
        <ele>2441</ele>
        <time>2021-04-07T08:17:53Z</time>
      </trkpt>
      <trkpt lat="44.49381" lon="6.58973">
        <ele>2441</ele>
        <time>2021-04-07T08:17:54Z</time>
      </trkpt>
      <trkpt lat="44.49381" lon="6.58973">
        <ele>2441</ele>
        <time>2021-04-07T08:17:55Z</time>
      </trkpt>
      <trkpt lat="44.49381" lon="6.58973">
        <ele>2441</ele>
        <time>2021-04-07T08:17:56Z</time>
      </trkpt>
      <trkpt lat="44.49381" lon="6.58973">
        <ele>2441</ele>
        <time>2021-04-07T08:17:57Z</time>
      </trkpt>
      <trkpt lat="44.49381" lon="6.58973">
        <ele>2441</ele>
        <time>2021-04-07T08:17:58Z</time>
      </trkpt>
      <trkpt lat="44.49381" lon="6.58973">
        <ele>2441</ele>
        <time>2021-04-07T08:17:59Z</time>
      </trkpt>
      <trkpt lat="44.49381" lon="6.58973">
        <ele>2441</ele>
        <time>2021-04-07T08:18:00Z</time>
      </trkpt>
      <trkpt lat="44.49381" lon="6.58973">
        <ele>2441</ele>
        <time>2021-04-07T08:18:01Z</time>
      </trkpt>
      <trkpt lat="44.49381" lon="6.58973">
        <ele>2441</ele>
        <time>2021-04-07T08:18:02Z</time>
      </trkpt>
      <trkpt lat="44.49381" lon="6.58973">
        <ele>2441</ele>
        <time>2021-04-07T08:18:03Z</time>
      </trkpt>
      <trkpt lat="44.49381" lon="6.58973">
        <ele>2441</ele>
        <time>2021-04-07T08:18:04Z</time>
      </trkpt>
      <trkpt lat="44.49381" lon="6.58973">
        <ele>2441</ele>
        <time>2021-04-07T08:18:05Z</time>
      </trkpt>
      <trkpt lat="44.49381" lon="6.58973">
        <ele>2441</ele>
        <time>2021-04-07T08:18:06Z</time>
      </trkpt>
      <trkpt lat="44.49381" lon="6.58973">
        <ele>2441</ele>
        <time>2021-04-07T08:18:07Z</time>
      </trkpt>
      <trkpt lat="44.49381" lon="6.58973">
        <ele>2441</ele>
        <time>2021-04-07T08:18:08Z</time>
      </trkpt>
      <trkpt lat="44.4938" lon="6.58971">
        <ele>2443</ele>
        <time>2021-04-07T08:18:09Z</time>
      </trkpt>
      <trkpt lat="44.4938" lon="6.58971">
        <ele>2443</ele>
        <time>2021-04-07T08:18:10Z</time>
      </trkpt>
      <trkpt lat="44.4938" lon="6.5897">
        <ele>2444</ele>
        <time>2021-04-07T08:18:11Z</time>
      </trkpt>
      <trkpt lat="44.4938" lon="6.58971">
        <ele>2444</ele>
        <time>2021-04-07T08:18:12Z</time>
      </trkpt>
      <trkpt lat="44.4938" lon="6.58971">
        <ele>2444</ele>
        <time>2021-04-07T08:18:13Z</time>
      </trkpt>
      <trkpt lat="44.4938" lon="6.58971">
        <ele>2444</ele>
        <time>2021-04-07T08:18:14Z</time>
      </trkpt>
      <trkpt lat="44.4938" lon="6.58971">
        <ele>2444</ele>
        <time>2021-04-07T08:18:15Z</time>
      </trkpt>
      <trkpt lat="44.4938" lon="6.58971">
        <ele>2444</ele>
        <time>2021-04-07T08:18:16Z</time>
      </trkpt>
      <trkpt lat="44.4938" lon="6.58971">
        <ele>2444</ele>
        <time>2021-04-07T08:18:17Z</time>
      </trkpt>
      <trkpt lat="44.4938" lon="6.58971">
        <ele>2445</ele>
        <time>2021-04-07T08:18:18Z</time>
      </trkpt>
      <trkpt lat="44.4938" lon="6.58971">
        <ele>2445</ele>
        <time>2021-04-07T08:18:19Z</time>
      </trkpt>
      <trkpt lat="44.4938" lon="6.58971">
        <ele>2445</ele>
        <time>2021-04-07T08:18:20Z</time>
      </trkpt>
      <trkpt lat="44.4938" lon="6.58971">
        <ele>2445</ele>
        <time>2021-04-07T08:18:21Z</time>
      </trkpt>
      <trkpt lat="44.4938" lon="6.58971">
        <ele>2445</ele>
        <time>2021-04-07T08:18:22Z</time>
      </trkpt>
      <trkpt lat="44.4938" lon="6.58971">
        <ele>2445</ele>
        <time>2021-04-07T08:18:23Z</time>
      </trkpt>
      <trkpt lat="44.4938" lon="6.58971">
        <ele>2445</ele>
        <time>2021-04-07T08:18:24Z</time>
      </trkpt>
      <trkpt lat="44.4938" lon="6.58971">
        <ele>2445</ele>
        <time>2021-04-07T08:18:25Z</time>
      </trkpt>
      <trkpt lat="44.49381" lon="6.58971">
        <ele>2445</ele>
        <time>2021-04-07T08:18:26Z</time>
      </trkpt>
      <trkpt lat="44.49381" lon="6.5897">
        <ele>2445</ele>
        <time>2021-04-07T08:18:27Z</time>
      </trkpt>
      <trkpt lat="44.49381" lon="6.5897">
        <ele>2445</ele>
        <time>2021-04-07T08:18:28Z</time>
      </trkpt>
      <trkpt lat="44.49381" lon="6.5897">
        <ele>2445</ele>
        <time>2021-04-07T08:18:29Z</time>
      </trkpt>
      <trkpt lat="44.49381" lon="6.5897">
        <ele>2445</ele>
        <time>2021-04-07T08:18:30Z</time>
      </trkpt>
      <trkpt lat="44.49381" lon="6.5897">
        <ele>2445</ele>
        <time>2021-04-07T08:18:31Z</time>
      </trkpt>
      <trkpt lat="44.49381" lon="6.5897">
        <ele>2445</ele>
        <time>2021-04-07T08:18:32Z</time>
      </trkpt>
      <trkpt lat="44.49381" lon="6.5897">
        <ele>2445</ele>
        <time>2021-04-07T08:18:33Z</time>
      </trkpt>
      <trkpt lat="44.49381" lon="6.5897">
        <ele>2446</ele>
        <time>2021-04-07T08:18:34Z</time>
      </trkpt>
      <trkpt lat="44.49381" lon="6.5897">
        <ele>2446</ele>
        <time>2021-04-07T08:18:35Z</time>
      </trkpt>
      <trkpt lat="44.49381" lon="6.5897">
        <ele>2446</ele>
        <time>2021-04-07T08:18:36Z</time>
      </trkpt>
      <trkpt lat="44.49381" lon="6.5897">
        <ele>2446</ele>
        <time>2021-04-07T08:18:37Z</time>
      </trkpt>
      <trkpt lat="44.49381" lon="6.5897">
        <ele>2446</ele>
        <time>2021-04-07T08:18:38Z</time>
      </trkpt>
      <trkpt lat="44.49381" lon="6.5897">
        <ele>2446</ele>
        <time>2021-04-07T08:18:39Z</time>
      </trkpt>
      <trkpt lat="44.49381" lon="6.5897">
        <ele>2446</ele>
        <time>2021-04-07T08:18:40Z</time>
      </trkpt>
      <trkpt lat="44.49381" lon="6.5897">
        <ele>2446</ele>
        <time>2021-04-07T08:18:41Z</time>
      </trkpt>
      <trkpt lat="44.49381" lon="6.5897">
        <ele>2446</ele>
        <time>2021-04-07T08:18:42Z</time>
      </trkpt>
      <trkpt lat="44.49381" lon="6.5897">
        <ele>2446</ele>
        <time>2021-04-07T08:18:43Z</time>
      </trkpt>
      <trkpt lat="44.49381" lon="6.5897">
        <ele>2446</ele>
        <time>2021-04-07T08:18:44Z</time>
      </trkpt>
      <trkpt lat="44.49381" lon="6.5897">
        <ele>2446</ele>
        <time>2021-04-07T08:18:45Z</time>
      </trkpt>
      <trkpt lat="44.49381" lon="6.5897">
        <ele>2446</ele>
        <time>2021-04-07T08:18:46Z</time>
      </trkpt>
      <trkpt lat="44.49384" lon="6.58974">
        <ele>2448</ele>
        <time>2021-04-07T08:18:47Z</time>
      </trkpt>
      <trkpt lat="44.49383" lon="6.58974">
        <ele>2449</ele>
        <time>2021-04-07T08:18:48Z</time>
      </trkpt>
      <trkpt lat="44.49383" lon="6.58975">
        <ele>2449</ele>
        <time>2021-04-07T08:18:49Z</time>
      </trkpt>
      <trkpt lat="44.49383" lon="6.58975">
        <ele>2449</ele>
        <time>2021-04-07T08:18:50Z</time>
      </trkpt>
      <trkpt lat="44.49383" lon="6.58975">
        <ele>2449</ele>
        <time>2021-04-07T08:18:51Z</time>
      </trkpt>
      <trkpt lat="44.49383" lon="6.58975">
        <ele>2449</ele>
        <time>2021-04-07T08:18:52Z</time>
      </trkpt>
      <trkpt lat="44.49383" lon="6.58975">
        <ele>2449</ele>
        <time>2021-04-07T08:18:53Z</time>
      </trkpt>
      <trkpt lat="44.49383" lon="6.58975">
        <ele>2449</ele>
        <time>2021-04-07T08:18:54Z</time>
      </trkpt>
      <trkpt lat="44.49383" lon="6.58975">
        <ele>2449</ele>
        <time>2021-04-07T08:18:55Z</time>
      </trkpt>
      <trkpt lat="44.49383" lon="6.58975">
        <ele>2449</ele>
        <time>2021-04-07T08:18:56Z</time>
      </trkpt>
      <trkpt lat="44.49383" lon="6.58974">
        <ele>2449</ele>
        <time>2021-04-07T08:18:57Z</time>
      </trkpt>
      <trkpt lat="44.49383" lon="6.58974">
        <ele>2449</ele>
        <time>2021-04-07T08:18:58Z</time>
      </trkpt>
      <trkpt lat="44.49383" lon="6.58973">
        <ele>2450</ele>
        <time>2021-04-07T08:18:59Z</time>
      </trkpt>
      <trkpt lat="44.49383" lon="6.58973">
        <ele>2450</ele>
        <time>2021-04-07T08:19:00Z</time>
      </trkpt>
      <trkpt lat="44.49382" lon="6.58973">
        <ele>2450</ele>
        <time>2021-04-07T08:19:01Z</time>
      </trkpt>
      <trkpt lat="44.49382" lon="6.58973">
        <ele>2450</ele>
        <time>2021-04-07T08:19:02Z</time>
      </trkpt>
      <trkpt lat="44.49382" lon="6.58973">
        <ele>2450</ele>
        <time>2021-04-07T08:19:03Z</time>
      </trkpt>
      <trkpt lat="44.49382" lon="6.58973">
        <ele>2450</ele>
        <time>2021-04-07T08:19:04Z</time>
      </trkpt>
      <trkpt lat="44.49382" lon="6.58973">
        <ele>2450</ele>
        <time>2021-04-07T08:19:05Z</time>
      </trkpt>
      <trkpt lat="44.49382" lon="6.58973">
        <ele>2450</ele>
        <time>2021-04-07T08:19:06Z</time>
      </trkpt>
      <trkpt lat="44.49382" lon="6.58973">
        <ele>2450</ele>
        <time>2021-04-07T08:19:07Z</time>
      </trkpt>
      <trkpt lat="44.49382" lon="6.58973">
        <ele>2450</ele>
        <time>2021-04-07T08:19:08Z</time>
      </trkpt>
      <trkpt lat="44.49382" lon="6.58973">
        <ele>2450</ele>
        <time>2021-04-07T08:19:09Z</time>
      </trkpt>
      <trkpt lat="44.49382" lon="6.58973">
        <ele>2450</ele>
        <time>2021-04-07T08:19:10Z</time>
      </trkpt>
      <trkpt lat="44.49382" lon="6.58973">
        <ele>2450</ele>
        <time>2021-04-07T08:19:11Z</time>
      </trkpt>
      <trkpt lat="44.49382" lon="6.58973">
        <ele>2450</ele>
        <time>2021-04-07T08:19:12Z</time>
      </trkpt>
      <trkpt lat="44.49382" lon="6.58973">
        <ele>2450</ele>
        <time>2021-04-07T08:19:13Z</time>
      </trkpt>
      <trkpt lat="44.49382" lon="6.58973">
        <ele>2450</ele>
        <time>2021-04-07T08:19:14Z</time>
      </trkpt>
      <trkpt lat="44.49382" lon="6.58973">
        <ele>2450</ele>
        <time>2021-04-07T08:19:15Z</time>
      </trkpt>
      <trkpt lat="44.49384" lon="6.58974">
        <ele>2450</ele>
        <time>2021-04-07T08:19:16Z</time>
      </trkpt>
      <trkpt lat="44.49384" lon="6.58975">
        <ele>2450</ele>
        <time>2021-04-07T08:19:17Z</time>
      </trkpt>
      <trkpt lat="44.49384" lon="6.58975">
        <ele>2450</ele>
        <time>2021-04-07T08:19:18Z</time>
      </trkpt>
      <trkpt lat="44.49384" lon="6.58976">
        <ele>2450</ele>
        <time>2021-04-07T08:19:19Z</time>
      </trkpt>
      <trkpt lat="44.49384" lon="6.58976">
        <ele>2450</ele>
        <time>2021-04-07T08:19:20Z</time>
      </trkpt>
      <trkpt lat="44.49384" lon="6.58976">
        <ele>2450</ele>
        <time>2021-04-07T08:19:21Z</time>
      </trkpt>
      <trkpt lat="44.49384" lon="6.58976">
        <ele>2450</ele>
        <time>2021-04-07T08:19:22Z</time>
      </trkpt>
      <trkpt lat="44.49384" lon="6.58976">
        <ele>2450</ele>
        <time>2021-04-07T08:19:23Z</time>
      </trkpt>
      <trkpt lat="44.49384" lon="6.58976">
        <ele>2450</ele>
        <time>2021-04-07T08:19:24Z</time>
      </trkpt>
      <trkpt lat="44.49384" lon="6.58976">
        <ele>2450</ele>
        <time>2021-04-07T08:19:25Z</time>
      </trkpt>
      <trkpt lat="44.49384" lon="6.58976">
        <ele>2450</ele>
        <time>2021-04-07T08:19:26Z</time>
      </trkpt>
      <trkpt lat="44.49384" lon="6.58976">
        <ele>2450</ele>
        <time>2021-04-07T08:19:27Z</time>
      </trkpt>
      <trkpt lat="44.49384" lon="6.58976">
        <ele>2450</ele>
        <time>2021-04-07T08:19:28Z</time>
      </trkpt>
      <trkpt lat="44.49384" lon="6.58976">
        <ele>2450</ele>
        <time>2021-04-07T08:19:29Z</time>
      </trkpt>
      <trkpt lat="44.49384" lon="6.58976">
        <ele>2450</ele>
        <time>2021-04-07T08:19:30Z</time>
      </trkpt>
      <trkpt lat="44.49384" lon="6.58976">
        <ele>2450</ele>
        <time>2021-04-07T08:19:31Z</time>
      </trkpt>
      <trkpt lat="44.49384" lon="6.58976">
        <ele>2451</ele>
        <time>2021-04-07T08:19:32Z</time>
      </trkpt>
      <trkpt lat="44.49384" lon="6.58976">
        <ele>2451</ele>
        <time>2021-04-07T08:19:33Z</time>
      </trkpt>
      <trkpt lat="44.49384" lon="6.58976">
        <ele>2451</ele>
        <time>2021-04-07T08:19:34Z</time>
      </trkpt>
      <trkpt lat="44.49384" lon="6.58976">
        <ele>2451</ele>
        <time>2021-04-07T08:19:35Z</time>
      </trkpt>
      <trkpt lat="44.49384" lon="6.58976">
        <ele>2451</ele>
        <time>2021-04-07T08:19:36Z</time>
      </trkpt>
      <trkpt lat="44.49384" lon="6.58976">
        <ele>2451</ele>
        <time>2021-04-07T08:19:37Z</time>
      </trkpt>
      <trkpt lat="44.49384" lon="6.58976">
        <ele>2451</ele>
        <time>2021-04-07T08:19:38Z</time>
      </trkpt>
      <trkpt lat="44.49384" lon="6.58976">
        <ele>2451</ele>
        <time>2021-04-07T08:19:39Z</time>
      </trkpt>
      <trkpt lat="44.49384" lon="6.58976">
        <ele>2451</ele>
        <time>2021-04-07T08:19:40Z</time>
      </trkpt>
      <trkpt lat="44.49384" lon="6.58976">
        <ele>2451</ele>
        <time>2021-04-07T08:19:41Z</time>
      </trkpt>
      <trkpt lat="44.49384" lon="6.58976">
        <ele>2451</ele>
        <time>2021-04-07T08:19:42Z</time>
      </trkpt>
      <trkpt lat="44.49384" lon="6.58976">
        <ele>2451</ele>
        <time>2021-04-07T08:19:43Z</time>
      </trkpt>
      <trkpt lat="44.49384" lon="6.58976">
        <ele>2451</ele>
        <time>2021-04-07T08:19:44Z</time>
      </trkpt>
      <trkpt lat="44.49384" lon="6.58976">
        <ele>2451</ele>
        <time>2021-04-07T08:19:45Z</time>
      </trkpt>
      <trkpt lat="44.49384" lon="6.58976">
        <ele>2451</ele>
        <time>2021-04-07T08:19:46Z</time>
      </trkpt>
      <trkpt lat="44.49384" lon="6.58976">
        <ele>2451</ele>
        <time>2021-04-07T08:19:47Z</time>
      </trkpt>
      <trkpt lat="44.49384" lon="6.58976">
        <ele>2451</ele>
        <time>2021-04-07T08:19:48Z</time>
      </trkpt>
      <trkpt lat="44.49384" lon="6.58976">
        <ele>2451</ele>
        <time>2021-04-07T08:19:49Z</time>
      </trkpt>
      <trkpt lat="44.49384" lon="6.58976">
        <ele>2451</ele>
        <time>2021-04-07T08:19:50Z</time>
      </trkpt>
      <trkpt lat="44.49384" lon="6.58976">
        <ele>2451</ele>
        <time>2021-04-07T08:19:51Z</time>
      </trkpt>
      <trkpt lat="44.49384" lon="6.58976">
        <ele>2451</ele>
        <time>2021-04-07T08:19:52Z</time>
      </trkpt>
      <trkpt lat="44.49384" lon="6.58976">
        <ele>2451</ele>
        <time>2021-04-07T08:19:53Z</time>
      </trkpt>
      <trkpt lat="44.49384" lon="6.58976">
        <ele>2451</ele>
        <time>2021-04-07T08:19:54Z</time>
      </trkpt>
      <trkpt lat="44.49384" lon="6.58976">
        <ele>2451</ele>
        <time>2021-04-07T08:19:55Z</time>
      </trkpt>
      <trkpt lat="44.49384" lon="6.58976">
        <ele>2451</ele>
        <time>2021-04-07T08:19:56Z</time>
      </trkpt>
      <trkpt lat="44.49384" lon="6.58976">
        <ele>2451</ele>
        <time>2021-04-07T08:19:57Z</time>
      </trkpt>
      <trkpt lat="44.49384" lon="6.58976">
        <ele>2451</ele>
        <time>2021-04-07T08:19:58Z</time>
      </trkpt>
      <trkpt lat="44.49384" lon="6.58976">
        <ele>2451</ele>
        <time>2021-04-07T08:19:59Z</time>
      </trkpt>
      <trkpt lat="44.49384" lon="6.58976">
        <ele>2451</ele>
        <time>2021-04-07T08:20:00Z</time>
      </trkpt>
      <trkpt lat="44.49384" lon="6.58976">
        <ele>2451</ele>
        <time>2021-04-07T08:20:01Z</time>
      </trkpt>
      <trkpt lat="44.49384" lon="6.58976">
        <ele>2451</ele>
        <time>2021-04-07T08:20:02Z</time>
      </trkpt>
      <trkpt lat="44.49384" lon="6.58976">
        <ele>2451</ele>
        <time>2021-04-07T08:20:03Z</time>
      </trkpt>
      <trkpt lat="44.49384" lon="6.58976">
        <ele>2451</ele>
        <time>2021-04-07T08:20:04Z</time>
      </trkpt>
      <trkpt lat="44.49384" lon="6.58976">
        <ele>2451</ele>
        <time>2021-04-07T08:20:05Z</time>
      </trkpt>
      <trkpt lat="44.49384" lon="6.58976">
        <ele>2451</ele>
        <time>2021-04-07T08:20:06Z</time>
      </trkpt>
      <trkpt lat="44.49384" lon="6.58976">
        <ele>2451</ele>
        <time>2021-04-07T08:20:07Z</time>
      </trkpt>
      <trkpt lat="44.49384" lon="6.58976">
        <ele>2451</ele>
        <time>2021-04-07T08:20:08Z</time>
      </trkpt>
      <trkpt lat="44.49384" lon="6.58976">
        <ele>2451</ele>
        <time>2021-04-07T08:20:09Z</time>
      </trkpt>
      <trkpt lat="44.49384" lon="6.58976">
        <ele>2451</ele>
        <time>2021-04-07T08:20:10Z</time>
      </trkpt>
      <trkpt lat="44.49384" lon="6.58976">
        <ele>2451</ele>
        <time>2021-04-07T08:20:11Z</time>
      </trkpt>
      <trkpt lat="44.49384" lon="6.58976">
        <ele>2451</ele>
        <time>2021-04-07T08:20:12Z</time>
      </trkpt>
      <trkpt lat="44.49384" lon="6.58976">
        <ele>2451</ele>
        <time>2021-04-07T08:20:13Z</time>
      </trkpt>
      <trkpt lat="44.49384" lon="6.58976">
        <ele>2451</ele>
        <time>2021-04-07T08:20:14Z</time>
      </trkpt>
      <trkpt lat="44.49384" lon="6.58976">
        <ele>2451</ele>
        <time>2021-04-07T08:20:15Z</time>
      </trkpt>
      <trkpt lat="44.49384" lon="6.58976">
        <ele>2451</ele>
        <time>2021-04-07T08:20:16Z</time>
      </trkpt>
      <trkpt lat="44.49384" lon="6.58976">
        <ele>2451</ele>
        <time>2021-04-07T08:20:17Z</time>
      </trkpt>
      <trkpt lat="44.49384" lon="6.58976">
        <ele>2451</ele>
        <time>2021-04-07T08:20:18Z</time>
      </trkpt>
      <trkpt lat="44.49384" lon="6.58976">
        <ele>2451</ele>
        <time>2021-04-07T08:20:19Z</time>
      </trkpt>
      <trkpt lat="44.49384" lon="6.58976">
        <ele>2451</ele>
        <time>2021-04-07T08:20:20Z</time>
      </trkpt>
      <trkpt lat="44.49384" lon="6.58976">
        <ele>2451</ele>
        <time>2021-04-07T08:20:21Z</time>
      </trkpt>
      <trkpt lat="44.49384" lon="6.58976">
        <ele>2451</ele>
        <time>2021-04-07T08:20:22Z</time>
      </trkpt>
      <trkpt lat="44.49384" lon="6.58976">
        <ele>2451</ele>
        <time>2021-04-07T08:20:23Z</time>
      </trkpt>
      <trkpt lat="44.49384" lon="6.58976">
        <ele>2451</ele>
        <time>2021-04-07T08:20:24Z</time>
      </trkpt>
      <trkpt lat="44.49384" lon="6.58976">
        <ele>2451</ele>
        <time>2021-04-07T08:20:25Z</time>
      </trkpt>
      <trkpt lat="44.49384" lon="6.58976">
        <ele>2451</ele>
        <time>2021-04-07T08:20:26Z</time>
      </trkpt>
      <trkpt lat="44.49384" lon="6.58976">
        <ele>2451</ele>
        <time>2021-04-07T08:20:27Z</time>
      </trkpt>
      <trkpt lat="44.49384" lon="6.58976">
        <ele>2451</ele>
        <time>2021-04-07T08:20:28Z</time>
      </trkpt>
      <trkpt lat="44.49384" lon="6.58976">
        <ele>2451</ele>
        <time>2021-04-07T08:20:29Z</time>
      </trkpt>
      <trkpt lat="44.49384" lon="6.58976">
        <ele>2451</ele>
        <time>2021-04-07T08:20:30Z</time>
      </trkpt>
      <trkpt lat="44.49384" lon="6.58976">
        <ele>2451</ele>
        <time>2021-04-07T08:20:31Z</time>
      </trkpt>
      <trkpt lat="44.49384" lon="6.58976">
        <ele>2451</ele>
        <time>2021-04-07T08:20:32Z</time>
      </trkpt>
      <trkpt lat="44.49384" lon="6.58976">
        <ele>2451</ele>
        <time>2021-04-07T08:20:33Z</time>
      </trkpt>
      <trkpt lat="44.49383" lon="6.5897">
        <ele>2452</ele>
        <time>2021-04-07T08:20:34Z</time>
      </trkpt>
      <trkpt lat="44.49383" lon="6.58969">
        <ele>2453</ele>
        <time>2021-04-07T08:20:35Z</time>
      </trkpt>
      <trkpt lat="44.49383" lon="6.58968">
        <ele>2453</ele>
        <time>2021-04-07T08:20:36Z</time>
      </trkpt>
      <trkpt lat="44.49382" lon="6.58968">
        <ele>2453</ele>
        <time>2021-04-07T08:20:37Z</time>
      </trkpt>
      <trkpt lat="44.49382" lon="6.58968">
        <ele>2453</ele>
        <time>2021-04-07T08:20:38Z</time>
      </trkpt>
      <trkpt lat="44.49382" lon="6.58968">
        <ele>2453</ele>
        <time>2021-04-07T08:20:39Z</time>
      </trkpt>
      <trkpt lat="44.49383" lon="6.58968">
        <ele>2453</ele>
        <time>2021-04-07T08:20:40Z</time>
      </trkpt>
      <trkpt lat="44.49383" lon="6.58968">
        <ele>2453</ele>
        <time>2021-04-07T08:20:41Z</time>
      </trkpt>
      <trkpt lat="44.49383" lon="6.58968">
        <ele>2453</ele>
        <time>2021-04-07T08:20:42Z</time>
      </trkpt>
      <trkpt lat="44.49383" lon="6.58968">
        <ele>2453</ele>
        <time>2021-04-07T08:20:43Z</time>
      </trkpt>
      <trkpt lat="44.49384" lon="6.58969">
        <ele>2453</ele>
        <time>2021-04-07T08:20:44Z</time>
      </trkpt>
      <trkpt lat="44.49384" lon="6.58968">
        <ele>2453</ele>
        <time>2021-04-07T08:20:45Z</time>
      </trkpt>
      <trkpt lat="44.49384" lon="6.58968">
        <ele>2454</ele>
        <time>2021-04-07T08:20:46Z</time>
      </trkpt>
      <trkpt lat="44.49384" lon="6.58968">
        <ele>2454</ele>
        <time>2021-04-07T08:20:47Z</time>
      </trkpt>
      <trkpt lat="44.49384" lon="6.58968">
        <ele>2454</ele>
        <time>2021-04-07T08:20:48Z</time>
      </trkpt>
      <trkpt lat="44.49384" lon="6.58968">
        <ele>2454</ele>
        <time>2021-04-07T08:20:49Z</time>
      </trkpt>
      <trkpt lat="44.49384" lon="6.58968">
        <ele>2454</ele>
        <time>2021-04-07T08:20:50Z</time>
      </trkpt>
      <trkpt lat="44.49384" lon="6.58968">
        <ele>2454</ele>
        <time>2021-04-07T08:20:51Z</time>
      </trkpt>
      <trkpt lat="44.49384" lon="6.58968">
        <ele>2454</ele>
        <time>2021-04-07T08:20:52Z</time>
      </trkpt>
      <trkpt lat="44.49384" lon="6.58968">
        <ele>2454</ele>
        <time>2021-04-07T08:20:53Z</time>
      </trkpt>
      <trkpt lat="44.49384" lon="6.58968">
        <ele>2454</ele>
        <time>2021-04-07T08:20:54Z</time>
      </trkpt>
      <trkpt lat="44.49384" lon="6.58968">
        <ele>2454</ele>
        <time>2021-04-07T08:20:55Z</time>
      </trkpt>
      <trkpt lat="44.49384" lon="6.58968">
        <ele>2454</ele>
        <time>2021-04-07T08:20:56Z</time>
      </trkpt>
      <trkpt lat="44.49384" lon="6.58968">
        <ele>2454</ele>
        <time>2021-04-07T08:20:57Z</time>
      </trkpt>
      <trkpt lat="44.49384" lon="6.58968">
        <ele>2454</ele>
        <time>2021-04-07T08:20:58Z</time>
      </trkpt>
      <trkpt lat="44.49384" lon="6.58968">
        <ele>2454</ele>
        <time>2021-04-07T08:20:59Z</time>
      </trkpt>
      <trkpt lat="44.49384" lon="6.58968">
        <ele>2454</ele>
        <time>2021-04-07T08:21:00Z</time>
      </trkpt>
      <trkpt lat="44.49384" lon="6.58968">
        <ele>2454</ele>
        <time>2021-04-07T08:21:01Z</time>
      </trkpt>
      <trkpt lat="44.49384" lon="6.58968">
        <ele>2454</ele>
        <time>2021-04-07T08:21:02Z</time>
      </trkpt>
      <trkpt lat="44.49384" lon="6.58968">
        <ele>2454</ele>
        <time>2021-04-07T08:21:03Z</time>
      </trkpt>
      <trkpt lat="44.49384" lon="6.58968">
        <ele>2454</ele>
        <time>2021-04-07T08:21:04Z</time>
      </trkpt>
      <trkpt lat="44.49384" lon="6.58968">
        <ele>2454</ele>
        <time>2021-04-07T08:21:05Z</time>
      </trkpt>
      <trkpt lat="44.49384" lon="6.58968">
        <ele>2454</ele>
        <time>2021-04-07T08:21:06Z</time>
      </trkpt>
      <trkpt lat="44.49384" lon="6.58968">
        <ele>2454</ele>
        <time>2021-04-07T08:21:07Z</time>
      </trkpt>
      <trkpt lat="44.49384" lon="6.58968">
        <ele>2454</ele>
        <time>2021-04-07T08:21:08Z</time>
      </trkpt>
      <trkpt lat="44.49384" lon="6.58968">
        <ele>2454</ele>
        <time>2021-04-07T08:21:09Z</time>
      </trkpt>
      <trkpt lat="44.49384" lon="6.58968">
        <ele>2454</ele>
        <time>2021-04-07T08:21:10Z</time>
      </trkpt>
      <trkpt lat="44.49384" lon="6.58968">
        <ele>2454</ele>
        <time>2021-04-07T08:21:11Z</time>
      </trkpt>
      <trkpt lat="44.49384" lon="6.58968">
        <ele>2454</ele>
        <time>2021-04-07T08:21:12Z</time>
      </trkpt>
      <trkpt lat="44.49384" lon="6.58968">
        <ele>2454</ele>
        <time>2021-04-07T08:21:13Z</time>
      </trkpt>
      <trkpt lat="44.49384" lon="6.58968">
        <ele>2454</ele>
        <time>2021-04-07T08:21:14Z</time>
      </trkpt>
      <trkpt lat="44.49384" lon="6.58971">
        <ele>2454</ele>
        <time>2021-04-07T08:21:15Z</time>
      </trkpt>
      <trkpt lat="44.49385" lon="6.58971">
        <ele>2454</ele>
        <time>2021-04-07T08:21:16Z</time>
      </trkpt>
      <trkpt lat="44.49386" lon="6.58971">
        <ele>2454</ele>
        <time>2021-04-07T08:21:17Z</time>
      </trkpt>
      <trkpt lat="44.49386" lon="6.58971">
        <ele>2454</ele>
        <time>2021-04-07T08:21:18Z</time>
      </trkpt>
      <trkpt lat="44.49385" lon="6.58971">
        <ele>2454</ele>
        <time>2021-04-07T08:21:19Z</time>
      </trkpt>
      <trkpt lat="44.49385" lon="6.5897">
        <ele>2454</ele>
        <time>2021-04-07T08:21:20Z</time>
      </trkpt>
      <trkpt lat="44.49385" lon="6.5897">
        <ele>2454</ele>
        <time>2021-04-07T08:21:21Z</time>
      </trkpt>
      <trkpt lat="44.49384" lon="6.5897">
        <ele>2454</ele>
        <time>2021-04-07T08:21:22Z</time>
      </trkpt>
      <trkpt lat="44.49384" lon="6.5897">
        <ele>2454</ele>
        <time>2021-04-07T08:21:23Z</time>
      </trkpt>
      <trkpt lat="44.49384" lon="6.58969">
        <ele>2454</ele>
        <time>2021-04-07T08:21:24Z</time>
      </trkpt>
      <trkpt lat="44.49384" lon="6.58969">
        <ele>2454</ele>
        <time>2021-04-07T08:21:25Z</time>
      </trkpt>
      <trkpt lat="44.49384" lon="6.58969">
        <ele>2454</ele>
        <time>2021-04-07T08:21:26Z</time>
      </trkpt>
      <trkpt lat="44.49384" lon="6.58969">
        <ele>2454</ele>
        <time>2021-04-07T08:21:27Z</time>
      </trkpt>
      <trkpt lat="44.49384" lon="6.58969">
        <ele>2454</ele>
        <time>2021-04-07T08:21:28Z</time>
      </trkpt>
      <trkpt lat="44.49384" lon="6.58969">
        <ele>2454</ele>
        <time>2021-04-07T08:21:29Z</time>
      </trkpt>
      <trkpt lat="44.49384" lon="6.58969">
        <ele>2454</ele>
        <time>2021-04-07T08:21:30Z</time>
      </trkpt>
      <trkpt lat="44.49384" lon="6.58969">
        <ele>2454</ele>
        <time>2021-04-07T08:21:31Z</time>
      </trkpt>
      <trkpt lat="44.49384" lon="6.58969">
        <ele>2454</ele>
        <time>2021-04-07T08:21:32Z</time>
      </trkpt>
      <trkpt lat="44.49384" lon="6.58969">
        <ele>2454</ele>
        <time>2021-04-07T08:21:33Z</time>
      </trkpt>
      <trkpt lat="44.49384" lon="6.58969">
        <ele>2454</ele>
        <time>2021-04-07T08:21:34Z</time>
      </trkpt>
      <trkpt lat="44.49384" lon="6.58969">
        <ele>2455</ele>
        <time>2021-04-07T08:21:35Z</time>
      </trkpt>
      <trkpt lat="44.49384" lon="6.58969">
        <ele>2455</ele>
        <time>2021-04-07T08:21:36Z</time>
      </trkpt>
      <trkpt lat="44.49384" lon="6.58969">
        <ele>2455</ele>
        <time>2021-04-07T08:21:37Z</time>
      </trkpt>
      <trkpt lat="44.49384" lon="6.58969">
        <ele>2455</ele>
        <time>2021-04-07T08:21:38Z</time>
      </trkpt>
      <trkpt lat="44.49384" lon="6.58969">
        <ele>2455</ele>
        <time>2021-04-07T08:21:39Z</time>
      </trkpt>
      <trkpt lat="44.49384" lon="6.58969">
        <ele>2455</ele>
        <time>2021-04-07T08:21:40Z</time>
      </trkpt>
      <trkpt lat="44.49383" lon="6.58969">
        <ele>2455</ele>
        <time>2021-04-07T08:21:41Z</time>
      </trkpt>
      <trkpt lat="44.49383" lon="6.58969">
        <ele>2455</ele>
        <time>2021-04-07T08:21:42Z</time>
      </trkpt>
      <trkpt lat="44.49383" lon="6.58969">
        <ele>2455</ele>
        <time>2021-04-07T08:21:43Z</time>
      </trkpt>
      <trkpt lat="44.49383" lon="6.58969">
        <ele>2455</ele>
        <time>2021-04-07T08:21:44Z</time>
      </trkpt>
      <trkpt lat="44.49383" lon="6.58969">
        <ele>2455</ele>
        <time>2021-04-07T08:21:45Z</time>
      </trkpt>
      <trkpt lat="44.49383" lon="6.58969">
        <ele>2455</ele>
        <time>2021-04-07T08:21:46Z</time>
      </trkpt>
      <trkpt lat="44.49383" lon="6.58969">
        <ele>2455</ele>
        <time>2021-04-07T08:21:47Z</time>
      </trkpt>
      <trkpt lat="44.49383" lon="6.58969">
        <ele>2455</ele>
        <time>2021-04-07T08:21:48Z</time>
      </trkpt>
      <trkpt lat="44.49383" lon="6.58969">
        <ele>2455</ele>
        <time>2021-04-07T08:21:49Z</time>
      </trkpt>
      <trkpt lat="44.49383" lon="6.58969">
        <ele>2455</ele>
        <time>2021-04-07T08:21:50Z</time>
      </trkpt>
      <trkpt lat="44.49383" lon="6.58969">
        <ele>2455</ele>
        <time>2021-04-07T08:21:51Z</time>
      </trkpt>
      <trkpt lat="44.49383" lon="6.58969">
        <ele>2455</ele>
        <time>2021-04-07T08:21:52Z</time>
      </trkpt>
      <trkpt lat="44.49383" lon="6.58969">
        <ele>2455</ele>
        <time>2021-04-07T08:21:53Z</time>
      </trkpt>
      <trkpt lat="44.49383" lon="6.58969">
        <ele>2455</ele>
        <time>2021-04-07T08:21:54Z</time>
      </trkpt>
      <trkpt lat="44.49383" lon="6.58969">
        <ele>2455</ele>
        <time>2021-04-07T08:21:55Z</time>
      </trkpt>
      <trkpt lat="44.49383" lon="6.58969">
        <ele>2455</ele>
        <time>2021-04-07T08:21:56Z</time>
      </trkpt>
      <trkpt lat="44.49383" lon="6.58969">
        <ele>2455</ele>
        <time>2021-04-07T08:21:57Z</time>
      </trkpt>
      <trkpt lat="44.49383" lon="6.58969">
        <ele>2455</ele>
        <time>2021-04-07T08:21:58Z</time>
      </trkpt>
      <trkpt lat="44.49383" lon="6.58969">
        <ele>2455</ele>
        <time>2021-04-07T08:21:59Z</time>
      </trkpt>
      <trkpt lat="44.49383" lon="6.58969">
        <ele>2455</ele>
        <time>2021-04-07T08:22:00Z</time>
      </trkpt>
      <trkpt lat="44.49383" lon="6.58969">
        <ele>2455</ele>
        <time>2021-04-07T08:22:01Z</time>
      </trkpt>
      <trkpt lat="44.49383" lon="6.58969">
        <ele>2455</ele>
        <time>2021-04-07T08:22:02Z</time>
      </trkpt>
      <trkpt lat="44.49383" lon="6.58969">
        <ele>2455</ele>
        <time>2021-04-07T08:22:03Z</time>
      </trkpt>
      <trkpt lat="44.49383" lon="6.58969">
        <ele>2455</ele>
        <time>2021-04-07T08:22:04Z</time>
      </trkpt>
      <trkpt lat="44.49383" lon="6.58969">
        <ele>2455</ele>
        <time>2021-04-07T08:22:05Z</time>
      </trkpt>
      <trkpt lat="44.49383" lon="6.58969">
        <ele>2455</ele>
        <time>2021-04-07T08:22:06Z</time>
      </trkpt>
      <trkpt lat="44.49383" lon="6.58969">
        <ele>2455</ele>
        <time>2021-04-07T08:22:07Z</time>
      </trkpt>
      <trkpt lat="44.49383" lon="6.58969">
        <ele>2455</ele>
        <time>2021-04-07T08:22:08Z</time>
      </trkpt>
      <trkpt lat="44.49383" lon="6.58969">
        <ele>2455</ele>
        <time>2021-04-07T08:22:09Z</time>
      </trkpt>
      <trkpt lat="44.49383" lon="6.58969">
        <ele>2455</ele>
        <time>2021-04-07T08:22:10Z</time>
      </trkpt>
      <trkpt lat="44.49383" lon="6.58969">
        <ele>2455</ele>
        <time>2021-04-07T08:22:11Z</time>
      </trkpt>
      <trkpt lat="44.49383" lon="6.58969">
        <ele>2455</ele>
        <time>2021-04-07T08:22:12Z</time>
      </trkpt>
      <trkpt lat="44.49383" lon="6.58969">
        <ele>2455</ele>
        <time>2021-04-07T08:22:13Z</time>
      </trkpt>
      <trkpt lat="44.49383" lon="6.58969">
        <ele>2455</ele>
        <time>2021-04-07T08:22:14Z</time>
      </trkpt>
      <trkpt lat="44.49383" lon="6.58969">
        <ele>2455</ele>
        <time>2021-04-07T08:22:15Z</time>
      </trkpt>
      <trkpt lat="44.49383" lon="6.58969">
        <ele>2455</ele>
        <time>2021-04-07T08:22:16Z</time>
      </trkpt>
      <trkpt lat="44.49383" lon="6.58969">
        <ele>2455</ele>
        <time>2021-04-07T08:22:17Z</time>
      </trkpt>
      <trkpt lat="44.49383" lon="6.58969">
        <ele>2455</ele>
        <time>2021-04-07T08:22:18Z</time>
      </trkpt>
      <trkpt lat="44.49383" lon="6.58969">
        <ele>2455</ele>
        <time>2021-04-07T08:22:19Z</time>
      </trkpt>
      <trkpt lat="44.49383" lon="6.58969">
        <ele>2455</ele>
        <time>2021-04-07T08:22:20Z</time>
      </trkpt>
      <trkpt lat="44.49383" lon="6.58969">
        <ele>2455</ele>
        <time>2021-04-07T08:22:21Z</time>
      </trkpt>
      <trkpt lat="44.49383" lon="6.58969">
        <ele>2455</ele>
        <time>2021-04-07T08:22:22Z</time>
      </trkpt>
      <trkpt lat="44.49383" lon="6.58969">
        <ele>2455</ele>
        <time>2021-04-07T08:22:23Z</time>
      </trkpt>
      <trkpt lat="44.49383" lon="6.58969">
        <ele>2455</ele>
        <time>2021-04-07T08:22:24Z</time>
      </trkpt>
      <trkpt lat="44.49383" lon="6.58969">
        <ele>2455</ele>
        <time>2021-04-07T08:22:25Z</time>
      </trkpt>
      <trkpt lat="44.49383" lon="6.58969">
        <ele>2456</ele>
        <time>2021-04-07T08:22:26Z</time>
      </trkpt>
      <trkpt lat="44.49383" lon="6.58969">
        <ele>2456</ele>
        <time>2021-04-07T08:22:27Z</time>
      </trkpt>
      <trkpt lat="44.49383" lon="6.58969">
        <ele>2456</ele>
        <time>2021-04-07T08:22:28Z</time>
      </trkpt>
      <trkpt lat="44.49383" lon="6.58969">
        <ele>2456</ele>
        <time>2021-04-07T08:22:29Z</time>
      </trkpt>
      <trkpt lat="44.49383" lon="6.58969">
        <ele>2456</ele>
        <time>2021-04-07T08:22:30Z</time>
      </trkpt>
      <trkpt lat="44.49384" lon="6.58969">
        <ele>2456</ele>
        <time>2021-04-07T08:22:31Z</time>
      </trkpt>
      <trkpt lat="44.49384" lon="6.58968">
        <ele>2456</ele>
        <time>2021-04-07T08:22:32Z</time>
      </trkpt>
      <trkpt lat="44.49384" lon="6.58968">
        <ele>2456</ele>
        <time>2021-04-07T08:22:33Z</time>
      </trkpt>
      <trkpt lat="44.49384" lon="6.58968">
        <ele>2456</ele>
        <time>2021-04-07T08:22:34Z</time>
      </trkpt>
      <trkpt lat="44.49384" lon="6.58968">
        <ele>2456</ele>
        <time>2021-04-07T08:22:35Z</time>
      </trkpt>
      <trkpt lat="44.49384" lon="6.58968">
        <ele>2456</ele>
        <time>2021-04-07T08:22:36Z</time>
      </trkpt>
      <trkpt lat="44.49384" lon="6.58968">
        <ele>2456</ele>
        <time>2021-04-07T08:22:37Z</time>
      </trkpt>
      <trkpt lat="44.49384" lon="6.58968">
        <ele>2456</ele>
        <time>2021-04-07T08:22:38Z</time>
      </trkpt>
      <trkpt lat="44.49384" lon="6.58968">
        <ele>2456</ele>
        <time>2021-04-07T08:22:39Z</time>
      </trkpt>
      <trkpt lat="44.49384" lon="6.58968">
        <ele>2456</ele>
        <time>2021-04-07T08:22:40Z</time>
      </trkpt>
      <trkpt lat="44.49384" lon="6.58968">
        <ele>2456</ele>
        <time>2021-04-07T08:22:41Z</time>
      </trkpt>
      <trkpt lat="44.49384" lon="6.58968">
        <ele>2456</ele>
        <time>2021-04-07T08:22:42Z</time>
      </trkpt>
      <trkpt lat="44.49384" lon="6.58968">
        <ele>2456</ele>
        <time>2021-04-07T08:22:43Z</time>
      </trkpt>
      <trkpt lat="44.49384" lon="6.58968">
        <ele>2456</ele>
        <time>2021-04-07T08:22:44Z</time>
      </trkpt>
      <trkpt lat="44.49384" lon="6.58968">
        <ele>2456</ele>
        <time>2021-04-07T08:22:45Z</time>
      </trkpt>
      <trkpt lat="44.49384" lon="6.58968">
        <ele>2456</ele>
        <time>2021-04-07T08:22:46Z</time>
      </trkpt>
      <trkpt lat="44.49384" lon="6.58968">
        <ele>2456</ele>
        <time>2021-04-07T08:22:47Z</time>
      </trkpt>
      <trkpt lat="44.49384" lon="6.58968">
        <ele>2456</ele>
        <time>2021-04-07T08:22:48Z</time>
      </trkpt>
      <trkpt lat="44.49384" lon="6.58968">
        <ele>2456</ele>
        <time>2021-04-07T08:22:49Z</time>
      </trkpt>
      <trkpt lat="44.49384" lon="6.58968">
        <ele>2456</ele>
        <time>2021-04-07T08:22:50Z</time>
      </trkpt>
      <trkpt lat="44.49384" lon="6.58968">
        <ele>2456</ele>
        <time>2021-04-07T08:22:51Z</time>
      </trkpt>
      <trkpt lat="44.49384" lon="6.58968">
        <ele>2456</ele>
        <time>2021-04-07T08:22:52Z</time>
      </trkpt>
      <trkpt lat="44.49384" lon="6.58968">
        <ele>2456</ele>
        <time>2021-04-07T08:22:53Z</time>
      </trkpt>
      <trkpt lat="44.49384" lon="6.58968">
        <ele>2456</ele>
        <time>2021-04-07T08:22:54Z</time>
      </trkpt>
      <trkpt lat="44.49384" lon="6.58968">
        <ele>2456</ele>
        <time>2021-04-07T08:22:55Z</time>
      </trkpt>
      <trkpt lat="44.49384" lon="6.58968">
        <ele>2456</ele>
        <time>2021-04-07T08:22:56Z</time>
      </trkpt>
      <trkpt lat="44.49384" lon="6.58968">
        <ele>2456</ele>
        <time>2021-04-07T08:22:57Z</time>
      </trkpt>
      <trkpt lat="44.49384" lon="6.58968">
        <ele>2456</ele>
        <time>2021-04-07T08:22:58Z</time>
      </trkpt>
      <trkpt lat="44.49384" lon="6.58968">
        <ele>2456</ele>
        <time>2021-04-07T08:22:59Z</time>
      </trkpt>
      <trkpt lat="44.49384" lon="6.58968">
        <ele>2456</ele>
        <time>2021-04-07T08:23:00Z</time>
      </trkpt>
      <trkpt lat="44.49384" lon="6.58968">
        <ele>2456</ele>
        <time>2021-04-07T08:23:01Z</time>
      </trkpt>
      <trkpt lat="44.49384" lon="6.58968">
        <ele>2456</ele>
        <time>2021-04-07T08:23:02Z</time>
      </trkpt>
      <trkpt lat="44.49384" lon="6.58968">
        <ele>2456</ele>
        <time>2021-04-07T08:23:03Z</time>
      </trkpt>
      <trkpt lat="44.49384" lon="6.58968">
        <ele>2456</ele>
        <time>2021-04-07T08:23:04Z</time>
      </trkpt>
      <trkpt lat="44.49384" lon="6.58968">
        <ele>2456</ele>
        <time>2021-04-07T08:23:05Z</time>
      </trkpt>
      <trkpt lat="44.49384" lon="6.58968">
        <ele>2456</ele>
        <time>2021-04-07T08:23:06Z</time>
      </trkpt>
      <trkpt lat="44.49384" lon="6.58968">
        <ele>2456</ele>
        <time>2021-04-07T08:23:07Z</time>
      </trkpt>
      <trkpt lat="44.49384" lon="6.58968">
        <ele>2456</ele>
        <time>2021-04-07T08:23:08Z</time>
      </trkpt>
      <trkpt lat="44.49384" lon="6.58968">
        <ele>2456</ele>
        <time>2021-04-07T08:23:09Z</time>
      </trkpt>
      <trkpt lat="44.49384" lon="6.58968">
        <ele>2456</ele>
        <time>2021-04-07T08:23:10Z</time>
      </trkpt>
      <trkpt lat="44.49384" lon="6.58968">
        <ele>2456</ele>
        <time>2021-04-07T08:23:11Z</time>
      </trkpt>
      <trkpt lat="44.49384" lon="6.58968">
        <ele>2456</ele>
        <time>2021-04-07T08:23:12Z</time>
      </trkpt>
      <trkpt lat="44.49384" lon="6.58968">
        <ele>2456</ele>
        <time>2021-04-07T08:23:13Z</time>
      </trkpt>
      <trkpt lat="44.49384" lon="6.58968">
        <ele>2456</ele>
        <time>2021-04-07T08:23:14Z</time>
      </trkpt>
      <trkpt lat="44.49384" lon="6.58968">
        <ele>2456</ele>
        <time>2021-04-07T08:23:15Z</time>
      </trkpt>
      <trkpt lat="44.49384" lon="6.58968">
        <ele>2456</ele>
        <time>2021-04-07T08:23:16Z</time>
      </trkpt>
      <trkpt lat="44.49384" lon="6.58968">
        <ele>2456</ele>
        <time>2021-04-07T08:23:17Z</time>
      </trkpt>
      <trkpt lat="44.49384" lon="6.58968">
        <ele>2456</ele>
        <time>2021-04-07T08:23:18Z</time>
      </trkpt>
      <trkpt lat="44.49384" lon="6.58968">
        <ele>2456</ele>
        <time>2021-04-07T08:23:19Z</time>
      </trkpt>
      <trkpt lat="44.49384" lon="6.58968">
        <ele>2456</ele>
        <time>2021-04-07T08:23:20Z</time>
      </trkpt>
      <trkpt lat="44.49384" lon="6.58968">
        <ele>2456</ele>
        <time>2021-04-07T08:23:21Z</time>
      </trkpt>
      <trkpt lat="44.49384" lon="6.58968">
        <ele>2457</ele>
        <time>2021-04-07T08:23:22Z</time>
      </trkpt>
      <trkpt lat="44.49384" lon="6.58968">
        <ele>2457</ele>
        <time>2021-04-07T08:23:23Z</time>
      </trkpt>
      <trkpt lat="44.49384" lon="6.58968">
        <ele>2457</ele>
        <time>2021-04-07T08:23:24Z</time>
      </trkpt>
      <trkpt lat="44.49384" lon="6.58968">
        <ele>2457</ele>
        <time>2021-04-07T08:23:25Z</time>
      </trkpt>
      <trkpt lat="44.49384" lon="6.58968">
        <ele>2457</ele>
        <time>2021-04-07T08:23:26Z</time>
      </trkpt>
      <trkpt lat="44.49384" lon="6.58968">
        <ele>2457</ele>
        <time>2021-04-07T08:23:27Z</time>
      </trkpt>
      <trkpt lat="44.49384" lon="6.58968">
        <ele>2457</ele>
        <time>2021-04-07T08:23:28Z</time>
      </trkpt>
      <trkpt lat="44.49384" lon="6.58968">
        <ele>2457</ele>
        <time>2021-04-07T08:23:29Z</time>
      </trkpt>
      <trkpt lat="44.49384" lon="6.58968">
        <ele>2457</ele>
        <time>2021-04-07T08:23:30Z</time>
      </trkpt>
      <trkpt lat="44.49384" lon="6.58968">
        <ele>2457</ele>
        <time>2021-04-07T08:23:31Z</time>
      </trkpt>
      <trkpt lat="44.49384" lon="6.58968">
        <ele>2457</ele>
        <time>2021-04-07T08:23:32Z</time>
      </trkpt>
      <trkpt lat="44.49384" lon="6.58968">
        <ele>2457</ele>
        <time>2021-04-07T08:23:33Z</time>
      </trkpt>
      <trkpt lat="44.49384" lon="6.58968">
        <ele>2457</ele>
        <time>2021-04-07T08:23:34Z</time>
      </trkpt>
      <trkpt lat="44.49384" lon="6.58968">
        <ele>2457</ele>
        <time>2021-04-07T08:23:35Z</time>
      </trkpt>
      <trkpt lat="44.49384" lon="6.58968">
        <ele>2457</ele>
        <time>2021-04-07T08:23:36Z</time>
      </trkpt>
      <trkpt lat="44.49384" lon="6.58968">
        <ele>2457</ele>
        <time>2021-04-07T08:23:37Z</time>
      </trkpt>
      <trkpt lat="44.49384" lon="6.58968">
        <ele>2457</ele>
        <time>2021-04-07T08:23:38Z</time>
      </trkpt>
      <trkpt lat="44.49384" lon="6.58968">
        <ele>2458</ele>
        <time>2021-04-07T08:23:39Z</time>
      </trkpt>
      <trkpt lat="44.49384" lon="6.58968">
        <ele>2458</ele>
        <time>2021-04-07T08:23:40Z</time>
      </trkpt>
      <trkpt lat="44.49384" lon="6.58968">
        <ele>2458</ele>
        <time>2021-04-07T08:23:41Z</time>
      </trkpt>
      <trkpt lat="44.49384" lon="6.58968">
        <ele>2458</ele>
        <time>2021-04-07T08:23:42Z</time>
      </trkpt>
      <trkpt lat="44.49384" lon="6.58968">
        <ele>2458</ele>
        <time>2021-04-07T08:23:43Z</time>
      </trkpt>
      <trkpt lat="44.49384" lon="6.58968">
        <ele>2458</ele>
        <time>2021-04-07T08:23:44Z</time>
      </trkpt>
      <trkpt lat="44.49384" lon="6.58968">
        <ele>2458</ele>
        <time>2021-04-07T08:23:45Z</time>
      </trkpt>
      <trkpt lat="44.49385" lon="6.5897">
        <ele>2459</ele>
        <time>2021-04-07T08:23:46Z</time>
      </trkpt>
      <trkpt lat="44.49385" lon="6.5897">
        <ele>2459</ele>
        <time>2021-04-07T08:23:47Z</time>
      </trkpt>
      <trkpt lat="44.49385" lon="6.5897">
        <ele>2459</ele>
        <time>2021-04-07T08:23:48Z</time>
      </trkpt>
      <trkpt lat="44.49385" lon="6.5897">
        <ele>2459</ele>
        <time>2021-04-07T08:23:49Z</time>
      </trkpt>
      <trkpt lat="44.49385" lon="6.5897">
        <ele>2459</ele>
        <time>2021-04-07T08:23:50Z</time>
      </trkpt>
      <trkpt lat="44.49385" lon="6.5897">
        <ele>2459</ele>
        <time>2021-04-07T08:23:51Z</time>
      </trkpt>
      <trkpt lat="44.49385" lon="6.5897">
        <ele>2459</ele>
        <time>2021-04-07T08:23:52Z</time>
      </trkpt>
      <trkpt lat="44.49385" lon="6.5897">
        <ele>2459</ele>
        <time>2021-04-07T08:23:53Z</time>
      </trkpt>
      <trkpt lat="44.49385" lon="6.5897">
        <ele>2459</ele>
        <time>2021-04-07T08:23:54Z</time>
      </trkpt>
      <trkpt lat="44.49385" lon="6.5897">
        <ele>2459</ele>
        <time>2021-04-07T08:23:55Z</time>
      </trkpt>
      <trkpt lat="44.49385" lon="6.5897">
        <ele>2459</ele>
        <time>2021-04-07T08:23:56Z</time>
      </trkpt>
      <trkpt lat="44.49385" lon="6.5897">
        <ele>2459</ele>
        <time>2021-04-07T08:23:57Z</time>
      </trkpt>
      <trkpt lat="44.49385" lon="6.5897">
        <ele>2459</ele>
        <time>2021-04-07T08:23:58Z</time>
      </trkpt>
      <trkpt lat="44.49385" lon="6.5897">
        <ele>2459</ele>
        <time>2021-04-07T08:23:59Z</time>
      </trkpt>
      <trkpt lat="44.49385" lon="6.5897">
        <ele>2459</ele>
        <time>2021-04-07T08:24:00Z</time>
      </trkpt>
      <trkpt lat="44.49385" lon="6.5897">
        <ele>2459</ele>
        <time>2021-04-07T08:24:01Z</time>
      </trkpt>
      <trkpt lat="44.49385" lon="6.5897">
        <ele>2459</ele>
        <time>2021-04-07T08:24:02Z</time>
      </trkpt>
      <trkpt lat="44.49385" lon="6.5897">
        <ele>2459</ele>
        <time>2021-04-07T08:24:03Z</time>
      </trkpt>
      <trkpt lat="44.49385" lon="6.5897">
        <ele>2459</ele>
        <time>2021-04-07T08:24:04Z</time>
      </trkpt>
      <trkpt lat="44.49385" lon="6.5897">
        <ele>2459</ele>
        <time>2021-04-07T08:24:05Z</time>
      </trkpt>
      <trkpt lat="44.49385" lon="6.5897">
        <ele>2459</ele>
        <time>2021-04-07T08:24:06Z</time>
      </trkpt>
      <trkpt lat="44.49385" lon="6.5897">
        <ele>2459</ele>
        <time>2021-04-07T08:24:07Z</time>
      </trkpt>
      <trkpt lat="44.49385" lon="6.5897">
        <ele>2459</ele>
        <time>2021-04-07T08:24:08Z</time>
      </trkpt>
      <trkpt lat="44.49385" lon="6.5897">
        <ele>2459</ele>
        <time>2021-04-07T08:24:09Z</time>
      </trkpt>
      <trkpt lat="44.49385" lon="6.5897">
        <ele>2459</ele>
        <time>2021-04-07T08:24:10Z</time>
      </trkpt>
      <trkpt lat="44.49385" lon="6.5897">
        <ele>2459</ele>
        <time>2021-04-07T08:24:11Z</time>
      </trkpt>
      <trkpt lat="44.49385" lon="6.5897">
        <ele>2459</ele>
        <time>2021-04-07T08:24:12Z</time>
      </trkpt>
      <trkpt lat="44.49385" lon="6.5897">
        <ele>2459</ele>
        <time>2021-04-07T08:24:13Z</time>
      </trkpt>
      <trkpt lat="44.49385" lon="6.5897">
        <ele>2459</ele>
        <time>2021-04-07T08:24:14Z</time>
      </trkpt>
      <trkpt lat="44.49385" lon="6.5897">
        <ele>2459</ele>
        <time>2021-04-07T08:24:15Z</time>
      </trkpt>
      <trkpt lat="44.49385" lon="6.5897">
        <ele>2459</ele>
        <time>2021-04-07T08:24:16Z</time>
      </trkpt>
      <trkpt lat="44.49385" lon="6.5897">
        <ele>2459</ele>
        <time>2021-04-07T08:24:17Z</time>
      </trkpt>
      <trkpt lat="44.49385" lon="6.5897">
        <ele>2459</ele>
        <time>2021-04-07T08:24:18Z</time>
      </trkpt>
      <trkpt lat="44.49385" lon="6.5897">
        <ele>2459</ele>
        <time>2021-04-07T08:24:19Z</time>
      </trkpt>
      <trkpt lat="44.49385" lon="6.5897">
        <ele>2459</ele>
        <time>2021-04-07T08:24:20Z</time>
      </trkpt>
      <trkpt lat="44.49385" lon="6.5897">
        <ele>2459</ele>
        <time>2021-04-07T08:24:21Z</time>
      </trkpt>
      <trkpt lat="44.49385" lon="6.5897">
        <ele>2459</ele>
        <time>2021-04-07T08:24:22Z</time>
      </trkpt>
      <trkpt lat="44.49385" lon="6.5897">
        <ele>2459</ele>
        <time>2021-04-07T08:24:23Z</time>
      </trkpt>
      <trkpt lat="44.49385" lon="6.5897">
        <ele>2459</ele>
        <time>2021-04-07T08:24:24Z</time>
      </trkpt>
      <trkpt lat="44.49385" lon="6.5897">
        <ele>2459</ele>
        <time>2021-04-07T08:24:25Z</time>
      </trkpt>
      <trkpt lat="44.49385" lon="6.5897">
        <ele>2459</ele>
        <time>2021-04-07T08:24:26Z</time>
      </trkpt>
      <trkpt lat="44.49385" lon="6.5897">
        <ele>2459</ele>
        <time>2021-04-07T08:24:27Z</time>
      </trkpt>
      <trkpt lat="44.49385" lon="6.5897">
        <ele>2459</ele>
        <time>2021-04-07T08:24:28Z</time>
      </trkpt>
      <trkpt lat="44.49385" lon="6.5897">
        <ele>2459</ele>
        <time>2021-04-07T08:24:29Z</time>
      </trkpt>
      <trkpt lat="44.49385" lon="6.5897">
        <ele>2459</ele>
        <time>2021-04-07T08:24:30Z</time>
      </trkpt>
      <trkpt lat="44.49385" lon="6.5897">
        <ele>2459</ele>
        <time>2021-04-07T08:24:31Z</time>
      </trkpt>
      <trkpt lat="44.49385" lon="6.5897">
        <ele>2459</ele>
        <time>2021-04-07T08:24:32Z</time>
      </trkpt>
      <trkpt lat="44.49385" lon="6.5897">
        <ele>2459</ele>
        <time>2021-04-07T08:24:33Z</time>
      </trkpt>
      <trkpt lat="44.49385" lon="6.5897">
        <ele>2459</ele>
        <time>2021-04-07T08:24:34Z</time>
      </trkpt>
      <trkpt lat="44.49385" lon="6.5897">
        <ele>2459</ele>
        <time>2021-04-07T08:24:35Z</time>
      </trkpt>
      <trkpt lat="44.49385" lon="6.5897">
        <ele>2459</ele>
        <time>2021-04-07T08:24:36Z</time>
      </trkpt>
      <trkpt lat="44.49385" lon="6.5897">
        <ele>2459</ele>
        <time>2021-04-07T08:24:37Z</time>
      </trkpt>
      <trkpt lat="44.49385" lon="6.5897">
        <ele>2459</ele>
        <time>2021-04-07T08:24:38Z</time>
      </trkpt>
      <trkpt lat="44.49385" lon="6.5897">
        <ele>2459</ele>
        <time>2021-04-07T08:24:39Z</time>
      </trkpt>
      <trkpt lat="44.49385" lon="6.5897">
        <ele>2459</ele>
        <time>2021-04-07T08:24:40Z</time>
      </trkpt>
      <trkpt lat="44.49385" lon="6.5897">
        <ele>2459</ele>
        <time>2021-04-07T08:24:41Z</time>
      </trkpt>
      <trkpt lat="44.49385" lon="6.5897">
        <ele>2459</ele>
        <time>2021-04-07T08:24:42Z</time>
      </trkpt>
      <trkpt lat="44.49384" lon="6.58971">
        <ele>2459</ele>
        <time>2021-04-07T08:24:43Z</time>
      </trkpt>
      <trkpt lat="44.49384" lon="6.5897">
        <ele>2459</ele>
        <time>2021-04-07T08:24:44Z</time>
      </trkpt>
      <trkpt lat="44.49383" lon="6.5897">
        <ele>2459</ele>
        <time>2021-04-07T08:24:45Z</time>
      </trkpt>
      <trkpt lat="44.49383" lon="6.58969">
        <ele>2461</ele>
        <time>2021-04-07T08:24:46Z</time>
      </trkpt>
      <trkpt lat="44.49383" lon="6.58969">
        <ele>2461</ele>
        <time>2021-04-07T08:24:47Z</time>
      </trkpt>
      <trkpt lat="44.49383" lon="6.5897">
        <ele>2462</ele>
        <time>2021-04-07T08:24:48Z</time>
      </trkpt>
      <trkpt lat="44.49383" lon="6.5897">
        <ele>2462</ele>
        <time>2021-04-07T08:24:49Z</time>
      </trkpt>
      <trkpt lat="44.49382" lon="6.58971">
        <ele>2462</ele>
        <time>2021-04-07T08:24:50Z</time>
      </trkpt>
      <trkpt lat="44.49382" lon="6.58972">
        <ele>2462</ele>
        <time>2021-04-07T08:24:51Z</time>
      </trkpt>
      <trkpt lat="44.49382" lon="6.58974">
        <ele>2463</ele>
        <time>2021-04-07T08:24:52Z</time>
      </trkpt>
      <trkpt lat="44.49381" lon="6.58974">
        <ele>2463</ele>
        <time>2021-04-07T08:24:53Z</time>
      </trkpt>
      <trkpt lat="44.4938" lon="6.58975">
        <ele>2463</ele>
        <time>2021-04-07T08:24:54Z</time>
      </trkpt>
      <trkpt lat="44.49379" lon="6.58976">
        <ele>2463</ele>
        <time>2021-04-07T08:24:55Z</time>
      </trkpt>
      <trkpt lat="44.49378" lon="6.58976">
        <ele>2463</ele>
        <time>2021-04-07T08:24:56Z</time>
      </trkpt>
      <trkpt lat="44.49378" lon="6.58977">
        <ele>2463</ele>
        <time>2021-04-07T08:24:57Z</time>
      </trkpt>
      <trkpt lat="44.49377" lon="6.58977">
        <ele>2463</ele>
        <time>2021-04-07T08:24:58Z</time>
      </trkpt>
      <trkpt lat="44.49377" lon="6.58979">
        <ele>2463</ele>
        <time>2021-04-07T08:24:59Z</time>
      </trkpt>
      <trkpt lat="44.49376" lon="6.5898">
        <ele>2464</ele>
        <time>2021-04-07T08:25:00Z</time>
      </trkpt>
      <trkpt lat="44.49376" lon="6.5898">
        <ele>2464</ele>
        <time>2021-04-07T08:25:01Z</time>
      </trkpt>
      <trkpt lat="44.49375" lon="6.58981">
        <ele>2464</ele>
        <time>2021-04-07T08:25:02Z</time>
      </trkpt>
      <trkpt lat="44.49375" lon="6.58982">
        <ele>2464</ele>
        <time>2021-04-07T08:25:03Z</time>
      </trkpt>
      <trkpt lat="44.49375" lon="6.58983">
        <ele>2464</ele>
        <time>2021-04-07T08:25:04Z</time>
      </trkpt>
      <trkpt lat="44.49374" lon="6.58983">
        <ele>2464</ele>
        <time>2021-04-07T08:25:05Z</time>
      </trkpt>
      <trkpt lat="44.49374" lon="6.58983">
        <ele>2464</ele>
        <time>2021-04-07T08:25:06Z</time>
      </trkpt>
      <trkpt lat="44.49373" lon="6.58983">
        <ele>2464</ele>
        <time>2021-04-07T08:25:07Z</time>
      </trkpt>
      <trkpt lat="44.49373" lon="6.58984">
        <ele>2464</ele>
        <time>2021-04-07T08:25:08Z</time>
      </trkpt>
      <trkpt lat="44.49372" lon="6.58985">
        <ele>2464</ele>
        <time>2021-04-07T08:25:09Z</time>
      </trkpt>
      <trkpt lat="44.49371" lon="6.58985">
        <ele>2464</ele>
        <time>2021-04-07T08:25:10Z</time>
      </trkpt>
      <trkpt lat="44.49371" lon="6.58986">
        <ele>2464</ele>
        <time>2021-04-07T08:25:11Z</time>
      </trkpt>
      <trkpt lat="44.4937" lon="6.58986">
        <ele>2464</ele>
        <time>2021-04-07T08:25:12Z</time>
      </trkpt>
      <trkpt lat="44.4937" lon="6.58986">
        <ele>2465</ele>
        <time>2021-04-07T08:25:13Z</time>
      </trkpt>
      <trkpt lat="44.49369" lon="6.58987">
        <ele>2465</ele>
        <time>2021-04-07T08:25:14Z</time>
      </trkpt>
      <trkpt lat="44.49368" lon="6.58987">
        <ele>2465</ele>
        <time>2021-04-07T08:25:15Z</time>
      </trkpt>
      <trkpt lat="44.49367" lon="6.58988">
        <ele>2465</ele>
        <time>2021-04-07T08:25:16Z</time>
      </trkpt>
      <trkpt lat="44.49367" lon="6.58988">
        <ele>2466</ele>
        <time>2021-04-07T08:25:17Z</time>
      </trkpt>
      <trkpt lat="44.49366" lon="6.58988">
        <ele>2466</ele>
        <time>2021-04-07T08:25:18Z</time>
      </trkpt>
      <trkpt lat="44.49366" lon="6.58989">
        <ele>2466</ele>
        <time>2021-04-07T08:25:19Z</time>
      </trkpt>
      <trkpt lat="44.49365" lon="6.5899">
        <ele>2466</ele>
        <time>2021-04-07T08:25:20Z</time>
      </trkpt>
      <trkpt lat="44.49365" lon="6.5899">
        <ele>2466</ele>
        <time>2021-04-07T08:25:21Z</time>
      </trkpt>
      <trkpt lat="44.49365" lon="6.58991">
        <ele>2466</ele>
        <time>2021-04-07T08:25:22Z</time>
      </trkpt>
      <trkpt lat="44.49364" lon="6.58992">
        <ele>2467</ele>
        <time>2021-04-07T08:25:23Z</time>
      </trkpt>
      <trkpt lat="44.49364" lon="6.58992">
        <ele>2467</ele>
        <time>2021-04-07T08:25:24Z</time>
      </trkpt>
      <trkpt lat="44.49364" lon="6.58992">
        <ele>2467</ele>
        <time>2021-04-07T08:25:25Z</time>
      </trkpt>
      <trkpt lat="44.49363" lon="6.58993">
        <ele>2467</ele>
        <time>2021-04-07T08:25:26Z</time>
      </trkpt>
      <trkpt lat="44.49363" lon="6.58993">
        <ele>2467</ele>
        <time>2021-04-07T08:25:27Z</time>
      </trkpt>
      <trkpt lat="44.49362" lon="6.58993">
        <ele>2467</ele>
        <time>2021-04-07T08:25:28Z</time>
      </trkpt>
      <trkpt lat="44.49362" lon="6.58994">
        <ele>2468</ele>
        <time>2021-04-07T08:25:29Z</time>
      </trkpt>
      <trkpt lat="44.49361" lon="6.58995">
        <ele>2468</ele>
        <time>2021-04-07T08:25:30Z</time>
      </trkpt>
      <trkpt lat="44.4936" lon="6.58995">
        <ele>2468</ele>
        <time>2021-04-07T08:25:31Z</time>
      </trkpt>
      <trkpt lat="44.4936" lon="6.58996">
        <ele>2468</ele>
        <time>2021-04-07T08:25:32Z</time>
      </trkpt>
      <trkpt lat="44.49359" lon="6.58997">
        <ele>2469</ele>
        <time>2021-04-07T08:25:33Z</time>
      </trkpt>
      <trkpt lat="44.49358" lon="6.58997">
        <ele>2469</ele>
        <time>2021-04-07T08:25:34Z</time>
      </trkpt>
      <trkpt lat="44.49358" lon="6.58998">
        <ele>2469</ele>
        <time>2021-04-07T08:25:35Z</time>
      </trkpt>
      <trkpt lat="44.49357" lon="6.58998">
        <ele>2469</ele>
        <time>2021-04-07T08:25:36Z</time>
      </trkpt>
      <trkpt lat="44.49357" lon="6.58999">
        <ele>2469</ele>
        <time>2021-04-07T08:25:37Z</time>
      </trkpt>
      <trkpt lat="44.49357" lon="6.58999">
        <ele>2469</ele>
        <time>2021-04-07T08:25:38Z</time>
      </trkpt>
      <trkpt lat="44.49357" lon="6.59">
        <ele>2469</ele>
        <time>2021-04-07T08:25:39Z</time>
      </trkpt>
      <trkpt lat="44.49357" lon="6.59">
        <ele>2469</ele>
        <time>2021-04-07T08:25:40Z</time>
      </trkpt>
      <trkpt lat="44.49356" lon="6.59001">
        <ele>2469</ele>
        <time>2021-04-07T08:25:41Z</time>
      </trkpt>
      <trkpt lat="44.49356" lon="6.59002">
        <ele>2469</ele>
        <time>2021-04-07T08:25:42Z</time>
      </trkpt>
      <trkpt lat="44.49355" lon="6.59003">
        <ele>2470</ele>
        <time>2021-04-07T08:25:43Z</time>
      </trkpt>
      <trkpt lat="44.49354" lon="6.59003">
        <ele>2470</ele>
        <time>2021-04-07T08:25:44Z</time>
      </trkpt>
      <trkpt lat="44.49354" lon="6.59004">
        <ele>2470</ele>
        <time>2021-04-07T08:25:45Z</time>
      </trkpt>
      <trkpt lat="44.49353" lon="6.59005">
        <ele>2470</ele>
        <time>2021-04-07T08:25:46Z</time>
      </trkpt>
      <trkpt lat="44.49352" lon="6.59005">
        <ele>2470</ele>
        <time>2021-04-07T08:25:47Z</time>
      </trkpt>
      <trkpt lat="44.49352" lon="6.59006">
        <ele>2471</ele>
        <time>2021-04-07T08:25:48Z</time>
      </trkpt>
      <trkpt lat="44.49351" lon="6.59006">
        <ele>2471</ele>
        <time>2021-04-07T08:25:49Z</time>
      </trkpt>
      <trkpt lat="44.49351" lon="6.59006">
        <ele>2471</ele>
        <time>2021-04-07T08:25:50Z</time>
      </trkpt>
      <trkpt lat="44.4935" lon="6.59007">
        <ele>2471</ele>
        <time>2021-04-07T08:25:51Z</time>
      </trkpt>
      <trkpt lat="44.4935" lon="6.59007">
        <ele>2472</ele>
        <time>2021-04-07T08:25:52Z</time>
      </trkpt>
      <trkpt lat="44.49349" lon="6.59008">
        <ele>2472</ele>
        <time>2021-04-07T08:25:53Z</time>
      </trkpt>
      <trkpt lat="44.49349" lon="6.59008">
        <ele>2472</ele>
        <time>2021-04-07T08:25:54Z</time>
      </trkpt>
      <trkpt lat="44.49348" lon="6.59009">
        <ele>2472</ele>
        <time>2021-04-07T08:25:55Z</time>
      </trkpt>
      <trkpt lat="44.49348" lon="6.59009">
        <ele>2472</ele>
        <time>2021-04-07T08:25:56Z</time>
      </trkpt>
      <trkpt lat="44.49348" lon="6.59009">
        <ele>2472</ele>
        <time>2021-04-07T08:25:57Z</time>
      </trkpt>
      <trkpt lat="44.49348" lon="6.59009">
        <ele>2472</ele>
        <time>2021-04-07T08:25:58Z</time>
      </trkpt>
      <trkpt lat="44.49348" lon="6.5901">
        <ele>2472</ele>
        <time>2021-04-07T08:25:59Z</time>
      </trkpt>
      <trkpt lat="44.49347" lon="6.5901">
        <ele>2472</ele>
        <time>2021-04-07T08:26:00Z</time>
      </trkpt>
      <trkpt lat="44.49347" lon="6.5901">
        <ele>2472</ele>
        <time>2021-04-07T08:26:01Z</time>
      </trkpt>
      <trkpt lat="44.49347" lon="6.59011">
        <ele>2472</ele>
        <time>2021-04-07T08:26:02Z</time>
      </trkpt>
      <trkpt lat="44.49347" lon="6.59012">
        <ele>2472</ele>
        <time>2021-04-07T08:26:03Z</time>
      </trkpt>
      <trkpt lat="44.49347" lon="6.59013">
        <ele>2472</ele>
        <time>2021-04-07T08:26:04Z</time>
      </trkpt>
      <trkpt lat="44.49346" lon="6.59014">
        <ele>2472</ele>
        <time>2021-04-07T08:26:05Z</time>
      </trkpt>
      <trkpt lat="44.49346" lon="6.59015">
        <ele>2472</ele>
        <time>2021-04-07T08:26:06Z</time>
      </trkpt>
      <trkpt lat="44.49345" lon="6.59015">
        <ele>2472</ele>
        <time>2021-04-07T08:26:07Z</time>
      </trkpt>
      <trkpt lat="44.49345" lon="6.59017">
        <ele>2472</ele>
        <time>2021-04-07T08:26:08Z</time>
      </trkpt>
      <trkpt lat="44.49345" lon="6.59017">
        <ele>2472</ele>
        <time>2021-04-07T08:26:09Z</time>
      </trkpt>
      <trkpt lat="44.49344" lon="6.59018">
        <ele>2472</ele>
        <time>2021-04-07T08:26:10Z</time>
      </trkpt>
      <trkpt lat="44.49344" lon="6.59019">
        <ele>2472</ele>
        <time>2021-04-07T08:26:11Z</time>
      </trkpt>
      <trkpt lat="44.49344" lon="6.59019">
        <ele>2472</ele>
        <time>2021-04-07T08:26:12Z</time>
      </trkpt>
      <trkpt lat="44.49343" lon="6.5902">
        <ele>2472</ele>
        <time>2021-04-07T08:26:13Z</time>
      </trkpt>
      <trkpt lat="44.49343" lon="6.5902">
        <ele>2473</ele>
        <time>2021-04-07T08:26:14Z</time>
      </trkpt>
      <trkpt lat="44.49342" lon="6.59021">
        <ele>2473</ele>
        <time>2021-04-07T08:26:15Z</time>
      </trkpt>
      <trkpt lat="44.49342" lon="6.59022">
        <ele>2473</ele>
        <time>2021-04-07T08:26:16Z</time>
      </trkpt>
      <trkpt lat="44.49342" lon="6.59023">
        <ele>2473</ele>
        <time>2021-04-07T08:26:17Z</time>
      </trkpt>
      <trkpt lat="44.49342" lon="6.59024">
        <ele>2473</ele>
        <time>2021-04-07T08:26:18Z</time>
      </trkpt>
      <trkpt lat="44.49342" lon="6.59024">
        <ele>2473</ele>
        <time>2021-04-07T08:26:19Z</time>
      </trkpt>
      <trkpt lat="44.49342" lon="6.59026">
        <ele>2473</ele>
        <time>2021-04-07T08:26:20Z</time>
      </trkpt>
      <trkpt lat="44.49341" lon="6.59027">
        <ele>2473</ele>
        <time>2021-04-07T08:26:21Z</time>
      </trkpt>
      <trkpt lat="44.49341" lon="6.59028">
        <ele>2473</ele>
        <time>2021-04-07T08:26:22Z</time>
      </trkpt>
      <trkpt lat="44.49341" lon="6.59029">
        <ele>2473</ele>
        <time>2021-04-07T08:26:23Z</time>
      </trkpt>
      <trkpt lat="44.49341" lon="6.5903">
        <ele>2474</ele>
        <time>2021-04-07T08:26:24Z</time>
      </trkpt>
      <trkpt lat="44.4934" lon="6.59031">
        <ele>2474</ele>
        <time>2021-04-07T08:26:25Z</time>
      </trkpt>
      <trkpt lat="44.49341" lon="6.59031">
        <ele>2474</ele>
        <time>2021-04-07T08:26:26Z</time>
      </trkpt>
      <trkpt lat="44.49341" lon="6.59032">
        <ele>2474</ele>
        <time>2021-04-07T08:26:27Z</time>
      </trkpt>
      <trkpt lat="44.4934" lon="6.59032">
        <ele>2474</ele>
        <time>2021-04-07T08:26:28Z</time>
      </trkpt>
      <trkpt lat="44.4934" lon="6.59033">
        <ele>2475</ele>
        <time>2021-04-07T08:26:29Z</time>
      </trkpt>
      <trkpt lat="44.49341" lon="6.59034">
        <ele>2475</ele>
        <time>2021-04-07T08:26:30Z</time>
      </trkpt>
      <trkpt lat="44.49341" lon="6.59036">
        <ele>2475</ele>
        <time>2021-04-07T08:26:31Z</time>
      </trkpt>
      <trkpt lat="44.49341" lon="6.59037">
        <ele>2475</ele>
        <time>2021-04-07T08:26:32Z</time>
      </trkpt>
      <trkpt lat="44.4934" lon="6.59037">
        <ele>2475</ele>
        <time>2021-04-07T08:26:33Z</time>
      </trkpt>
      <trkpt lat="44.4934" lon="6.59038">
        <ele>2476</ele>
        <time>2021-04-07T08:26:34Z</time>
      </trkpt>
      <trkpt lat="44.4934" lon="6.59039">
        <ele>2476</ele>
        <time>2021-04-07T08:26:35Z</time>
      </trkpt>
      <trkpt lat="44.49339" lon="6.5904">
        <ele>2476</ele>
        <time>2021-04-07T08:26:36Z</time>
      </trkpt>
      <trkpt lat="44.4934" lon="6.5904">
        <ele>2477</ele>
        <time>2021-04-07T08:26:37Z</time>
      </trkpt>
      <trkpt lat="44.49339" lon="6.59041">
        <ele>2477</ele>
        <time>2021-04-07T08:26:38Z</time>
      </trkpt>
      <trkpt lat="44.4934" lon="6.59042">
        <ele>2477</ele>
        <time>2021-04-07T08:26:39Z</time>
      </trkpt>
      <trkpt lat="44.49339" lon="6.59042">
        <ele>2477</ele>
        <time>2021-04-07T08:26:40Z</time>
      </trkpt>
      <trkpt lat="44.49339" lon="6.59043">
        <ele>2477</ele>
        <time>2021-04-07T08:26:41Z</time>
      </trkpt>
      <trkpt lat="44.49338" lon="6.59044">
        <ele>2477</ele>
        <time>2021-04-07T08:26:42Z</time>
      </trkpt>
      <trkpt lat="44.49338" lon="6.59045">
        <ele>2477</ele>
        <time>2021-04-07T08:26:43Z</time>
      </trkpt>
      <trkpt lat="44.49337" lon="6.59046">
        <ele>2477</ele>
        <time>2021-04-07T08:26:44Z</time>
      </trkpt>
      <trkpt lat="44.49337" lon="6.59047">
        <ele>2478</ele>
        <time>2021-04-07T08:26:45Z</time>
      </trkpt>
      <trkpt lat="44.49337" lon="6.59048">
        <ele>2478</ele>
        <time>2021-04-07T08:26:46Z</time>
      </trkpt>
      <trkpt lat="44.49337" lon="6.59048">
        <ele>2478</ele>
        <time>2021-04-07T08:26:47Z</time>
      </trkpt>
      <trkpt lat="44.49337" lon="6.59049">
        <ele>2478</ele>
        <time>2021-04-07T08:26:48Z</time>
      </trkpt>
      <trkpt lat="44.49336" lon="6.5905">
        <ele>2478</ele>
        <time>2021-04-07T08:26:49Z</time>
      </trkpt>
      <trkpt lat="44.49336" lon="6.59051">
        <ele>2478</ele>
        <time>2021-04-07T08:26:50Z</time>
      </trkpt>
      <trkpt lat="44.49336" lon="6.59052">
        <ele>2478</ele>
        <time>2021-04-07T08:26:51Z</time>
      </trkpt>
      <trkpt lat="44.49336" lon="6.59053">
        <ele>2478</ele>
        <time>2021-04-07T08:26:52Z</time>
      </trkpt>
      <trkpt lat="44.49335" lon="6.59054">
        <ele>2478</ele>
        <time>2021-04-07T08:26:53Z</time>
      </trkpt>
      <trkpt lat="44.49335" lon="6.59054">
        <ele>2479</ele>
        <time>2021-04-07T08:26:54Z</time>
      </trkpt>
      <trkpt lat="44.49335" lon="6.59055">
        <ele>2479</ele>
        <time>2021-04-07T08:26:55Z</time>
      </trkpt>
      <trkpt lat="44.49335" lon="6.59056">
        <ele>2479</ele>
        <time>2021-04-07T08:26:56Z</time>
      </trkpt>
      <trkpt lat="44.49335" lon="6.59057">
        <ele>2479</ele>
        <time>2021-04-07T08:26:57Z</time>
      </trkpt>
      <trkpt lat="44.49335" lon="6.59057">
        <ele>2479</ele>
        <time>2021-04-07T08:26:58Z</time>
      </trkpt>
      <trkpt lat="44.49335" lon="6.59058">
        <ele>2479</ele>
        <time>2021-04-07T08:26:59Z</time>
      </trkpt>
      <trkpt lat="44.49335" lon="6.59059">
        <ele>2479</ele>
        <time>2021-04-07T08:27:00Z</time>
      </trkpt>
      <trkpt lat="44.49334" lon="6.5906">
        <ele>2480</ele>
        <time>2021-04-07T08:27:01Z</time>
      </trkpt>
      <trkpt lat="44.49334" lon="6.59061">
        <ele>2480</ele>
        <time>2021-04-07T08:27:02Z</time>
      </trkpt>
      <trkpt lat="44.49333" lon="6.59062">
        <ele>2480</ele>
        <time>2021-04-07T08:27:03Z</time>
      </trkpt>
      <trkpt lat="44.49333" lon="6.59063">
        <ele>2480</ele>
        <time>2021-04-07T08:27:04Z</time>
      </trkpt>
      <trkpt lat="44.49333" lon="6.59063">
        <ele>2480</ele>
        <time>2021-04-07T08:27:05Z</time>
      </trkpt>
      <trkpt lat="44.49333" lon="6.59064">
        <ele>2480</ele>
        <time>2021-04-07T08:27:06Z</time>
      </trkpt>
      <trkpt lat="44.49333" lon="6.59065">
        <ele>2480</ele>
        <time>2021-04-07T08:27:07Z</time>
      </trkpt>
      <trkpt lat="44.49332" lon="6.59066">
        <ele>2480</ele>
        <time>2021-04-07T08:27:08Z</time>
      </trkpt>
      <trkpt lat="44.49332" lon="6.59066">
        <ele>2480</ele>
        <time>2021-04-07T08:27:09Z</time>
      </trkpt>
      <trkpt lat="44.49332" lon="6.59067">
        <ele>2480</ele>
        <time>2021-04-07T08:27:10Z</time>
      </trkpt>
      <trkpt lat="44.49332" lon="6.59067">
        <ele>2480</ele>
        <time>2021-04-07T08:27:11Z</time>
      </trkpt>
      <trkpt lat="44.49332" lon="6.59068">
        <ele>2480</ele>
        <time>2021-04-07T08:27:12Z</time>
      </trkpt>
      <trkpt lat="44.49332" lon="6.59068">
        <ele>2480</ele>
        <time>2021-04-07T08:27:13Z</time>
      </trkpt>
      <trkpt lat="44.49332" lon="6.59069">
        <ele>2480</ele>
        <time>2021-04-07T08:27:14Z</time>
      </trkpt>
      <trkpt lat="44.49332" lon="6.5907">
        <ele>2480</ele>
        <time>2021-04-07T08:27:15Z</time>
      </trkpt>
      <trkpt lat="44.49331" lon="6.59071">
        <ele>2480</ele>
        <time>2021-04-07T08:27:16Z</time>
      </trkpt>
      <trkpt lat="44.49331" lon="6.59072">
        <ele>2480</ele>
        <time>2021-04-07T08:27:17Z</time>
      </trkpt>
      <trkpt lat="44.4933" lon="6.59072">
        <ele>2480</ele>
        <time>2021-04-07T08:27:18Z</time>
      </trkpt>
      <trkpt lat="44.4933" lon="6.59074">
        <ele>2480</ele>
        <time>2021-04-07T08:27:19Z</time>
      </trkpt>
      <trkpt lat="44.4933" lon="6.59075">
        <ele>2480</ele>
        <time>2021-04-07T08:27:20Z</time>
      </trkpt>
      <trkpt lat="44.49329" lon="6.59076">
        <ele>2481</ele>
        <time>2021-04-07T08:27:21Z</time>
      </trkpt>
      <trkpt lat="44.49329" lon="6.59077">
        <ele>2481</ele>
        <time>2021-04-07T08:27:22Z</time>
      </trkpt>
      <trkpt lat="44.49328" lon="6.59078">
        <ele>2481</ele>
        <time>2021-04-07T08:27:23Z</time>
      </trkpt>
      <trkpt lat="44.49328" lon="6.59078">
        <ele>2481</ele>
        <time>2021-04-07T08:27:24Z</time>
      </trkpt>
      <trkpt lat="44.49329" lon="6.59079">
        <ele>2481</ele>
        <time>2021-04-07T08:27:25Z</time>
      </trkpt>
      <trkpt lat="44.49328" lon="6.5908">
        <ele>2481</ele>
        <time>2021-04-07T08:27:26Z</time>
      </trkpt>
      <trkpt lat="44.49328" lon="6.5908">
        <ele>2481</ele>
        <time>2021-04-07T08:27:27Z</time>
      </trkpt>
      <trkpt lat="44.49328" lon="6.59081">
        <ele>2481</ele>
        <time>2021-04-07T08:27:28Z</time>
      </trkpt>
      <trkpt lat="44.49327" lon="6.59082">
        <ele>2481</ele>
        <time>2021-04-07T08:27:29Z</time>
      </trkpt>
      <trkpt lat="44.49327" lon="6.59082">
        <ele>2481</ele>
        <time>2021-04-07T08:27:30Z</time>
      </trkpt>
      <trkpt lat="44.49326" lon="6.59083">
        <ele>2482</ele>
        <time>2021-04-07T08:27:31Z</time>
      </trkpt>
      <trkpt lat="44.49326" lon="6.59084">
        <ele>2482</ele>
        <time>2021-04-07T08:27:32Z</time>
      </trkpt>
      <trkpt lat="44.49326" lon="6.59085">
        <ele>2482</ele>
        <time>2021-04-07T08:27:33Z</time>
      </trkpt>
      <trkpt lat="44.49326" lon="6.59085">
        <ele>2482</ele>
        <time>2021-04-07T08:27:34Z</time>
      </trkpt>
      <trkpt lat="44.49326" lon="6.59086">
        <ele>2482</ele>
        <time>2021-04-07T08:27:35Z</time>
      </trkpt>
      <trkpt lat="44.49326" lon="6.59087">
        <ele>2482</ele>
        <time>2021-04-07T08:27:36Z</time>
      </trkpt>
      <trkpt lat="44.49326" lon="6.59088">
        <ele>2483</ele>
        <time>2021-04-07T08:27:37Z</time>
      </trkpt>
      <trkpt lat="44.49325" lon="6.59088">
        <ele>2483</ele>
        <time>2021-04-07T08:27:38Z</time>
      </trkpt>
      <trkpt lat="44.49325" lon="6.59089">
        <ele>2483</ele>
        <time>2021-04-07T08:27:39Z</time>
      </trkpt>
      <trkpt lat="44.49325" lon="6.59089">
        <ele>2483</ele>
        <time>2021-04-07T08:27:40Z</time>
      </trkpt>
      <trkpt lat="44.49325" lon="6.5909">
        <ele>2483</ele>
        <time>2021-04-07T08:27:41Z</time>
      </trkpt>
      <trkpt lat="44.49325" lon="6.59091">
        <ele>2483</ele>
        <time>2021-04-07T08:27:42Z</time>
      </trkpt>
      <trkpt lat="44.49324" lon="6.59092">
        <ele>2483</ele>
        <time>2021-04-07T08:27:43Z</time>
      </trkpt>
      <trkpt lat="44.49324" lon="6.59093">
        <ele>2483</ele>
        <time>2021-04-07T08:27:44Z</time>
      </trkpt>
      <trkpt lat="44.49323" lon="6.59094">
        <ele>2483</ele>
        <time>2021-04-07T08:27:45Z</time>
      </trkpt>
      <trkpt lat="44.49323" lon="6.59095">
        <ele>2483</ele>
        <time>2021-04-07T08:27:46Z</time>
      </trkpt>
      <trkpt lat="44.49322" lon="6.59096">
        <ele>2483</ele>
        <time>2021-04-07T08:27:47Z</time>
      </trkpt>
      <trkpt lat="44.49322" lon="6.59097">
        <ele>2483</ele>
        <time>2021-04-07T08:27:48Z</time>
      </trkpt>
      <trkpt lat="44.49321" lon="6.59098">
        <ele>2483</ele>
        <time>2021-04-07T08:27:49Z</time>
      </trkpt>
      <trkpt lat="44.49321" lon="6.59099">
        <ele>2484</ele>
        <time>2021-04-07T08:27:50Z</time>
      </trkpt>
      <trkpt lat="44.49321" lon="6.59099">
        <ele>2484</ele>
        <time>2021-04-07T08:27:51Z</time>
      </trkpt>
      <trkpt lat="44.49321" lon="6.591">
        <ele>2484</ele>
        <time>2021-04-07T08:27:52Z</time>
      </trkpt>
      <trkpt lat="44.49321" lon="6.59101">
        <ele>2484</ele>
        <time>2021-04-07T08:27:53Z</time>
      </trkpt>
      <trkpt lat="44.49321" lon="6.59102">
        <ele>2484</ele>
        <time>2021-04-07T08:27:54Z</time>
      </trkpt>
      <trkpt lat="44.49321" lon="6.59103">
        <ele>2484</ele>
        <time>2021-04-07T08:27:55Z</time>
      </trkpt>
      <trkpt lat="44.4932" lon="6.59104">
        <ele>2484</ele>
        <time>2021-04-07T08:27:56Z</time>
      </trkpt>
      <trkpt lat="44.4932" lon="6.59105">
        <ele>2485</ele>
        <time>2021-04-07T08:27:57Z</time>
      </trkpt>
      <trkpt lat="44.49319" lon="6.59106">
        <ele>2485</ele>
        <time>2021-04-07T08:27:58Z</time>
      </trkpt>
      <trkpt lat="44.49319" lon="6.59106">
        <ele>2485</ele>
        <time>2021-04-07T08:27:59Z</time>
      </trkpt>
      <trkpt lat="44.49318" lon="6.59107">
        <ele>2485</ele>
        <time>2021-04-07T08:28:00Z</time>
      </trkpt>
      <trkpt lat="44.49318" lon="6.59108">
        <ele>2485</ele>
        <time>2021-04-07T08:28:01Z</time>
      </trkpt>
      <trkpt lat="44.49317" lon="6.59108">
        <ele>2486</ele>
        <time>2021-04-07T08:28:02Z</time>
      </trkpt>
      <trkpt lat="44.49317" lon="6.59109">
        <ele>2486</ele>
        <time>2021-04-07T08:28:03Z</time>
      </trkpt>
      <trkpt lat="44.49316" lon="6.59109">
        <ele>2486</ele>
        <time>2021-04-07T08:28:04Z</time>
      </trkpt>
      <trkpt lat="44.49316" lon="6.59109">
        <ele>2486</ele>
        <time>2021-04-07T08:28:05Z</time>
      </trkpt>
      <trkpt lat="44.49315" lon="6.59109">
        <ele>2486</ele>
        <time>2021-04-07T08:28:06Z</time>
      </trkpt>
      <trkpt lat="44.49315" lon="6.5911">
        <ele>2486</ele>
        <time>2021-04-07T08:28:07Z</time>
      </trkpt>
      <trkpt lat="44.49315" lon="6.5911">
        <ele>2486</ele>
        <time>2021-04-07T08:28:08Z</time>
      </trkpt>
      <trkpt lat="44.49314" lon="6.59111">
        <ele>2486</ele>
        <time>2021-04-07T08:28:09Z</time>
      </trkpt>
      <trkpt lat="44.49314" lon="6.59112">
        <ele>2486</ele>
        <time>2021-04-07T08:28:10Z</time>
      </trkpt>
      <trkpt lat="44.49313" lon="6.59112">
        <ele>2486</ele>
        <time>2021-04-07T08:28:11Z</time>
      </trkpt>
      <trkpt lat="44.49312" lon="6.59113">
        <ele>2486</ele>
        <time>2021-04-07T08:28:12Z</time>
      </trkpt>
      <trkpt lat="44.49312" lon="6.59114">
        <ele>2486</ele>
        <time>2021-04-07T08:28:13Z</time>
      </trkpt>
      <trkpt lat="44.49311" lon="6.59115">
        <ele>2486</ele>
        <time>2021-04-07T08:28:14Z</time>
      </trkpt>
      <trkpt lat="44.49311" lon="6.59115">
        <ele>2486</ele>
        <time>2021-04-07T08:28:15Z</time>
      </trkpt>
      <trkpt lat="44.4931" lon="6.59117">
        <ele>2486</ele>
        <time>2021-04-07T08:28:16Z</time>
      </trkpt>
      <trkpt lat="44.4931" lon="6.59117">
        <ele>2486</ele>
        <time>2021-04-07T08:28:17Z</time>
      </trkpt>
      <trkpt lat="44.49309" lon="6.59118">
        <ele>2486</ele>
        <time>2021-04-07T08:28:18Z</time>
      </trkpt>
      <trkpt lat="44.49309" lon="6.59118">
        <ele>2486</ele>
        <time>2021-04-07T08:28:19Z</time>
      </trkpt>
      <trkpt lat="44.49308" lon="6.59119">
        <ele>2487</ele>
        <time>2021-04-07T08:28:20Z</time>
      </trkpt>
      <trkpt lat="44.49308" lon="6.5912">
        <ele>2487</ele>
        <time>2021-04-07T08:28:21Z</time>
      </trkpt>
      <trkpt lat="44.49308" lon="6.59121">
        <ele>2487</ele>
        <time>2021-04-07T08:28:22Z</time>
      </trkpt>
      <trkpt lat="44.49307" lon="6.59121">
        <ele>2487</ele>
        <time>2021-04-07T08:28:23Z</time>
      </trkpt>
      <trkpt lat="44.49307" lon="6.59122">
        <ele>2487</ele>
        <time>2021-04-07T08:28:24Z</time>
      </trkpt>
      <trkpt lat="44.49307" lon="6.59122">
        <ele>2487</ele>
        <time>2021-04-07T08:28:25Z</time>
      </trkpt>
      <trkpt lat="44.49307" lon="6.59123">
        <ele>2488</ele>
        <time>2021-04-07T08:28:26Z</time>
      </trkpt>
      <trkpt lat="44.49306" lon="6.59124">
        <ele>2488</ele>
        <time>2021-04-07T08:28:27Z</time>
      </trkpt>
      <trkpt lat="44.49306" lon="6.59124">
        <ele>2489</ele>
        <time>2021-04-07T08:28:28Z</time>
      </trkpt>
      <trkpt lat="44.49305" lon="6.59125">
        <ele>2489</ele>
        <time>2021-04-07T08:28:29Z</time>
      </trkpt>
      <trkpt lat="44.49305" lon="6.59125">
        <ele>2489</ele>
        <time>2021-04-07T08:28:30Z</time>
      </trkpt>
      <trkpt lat="44.49305" lon="6.59126">
        <ele>2489</ele>
        <time>2021-04-07T08:28:31Z</time>
      </trkpt>
      <trkpt lat="44.49305" lon="6.59127">
        <ele>2489</ele>
        <time>2021-04-07T08:28:32Z</time>
      </trkpt>
      <trkpt lat="44.49305" lon="6.59128">
        <ele>2490</ele>
        <time>2021-04-07T08:28:33Z</time>
      </trkpt>
      <trkpt lat="44.49305" lon="6.59128">
        <ele>2490</ele>
        <time>2021-04-07T08:28:34Z</time>
      </trkpt>
      <trkpt lat="44.49304" lon="6.5913">
        <ele>2490</ele>
        <time>2021-04-07T08:28:35Z</time>
      </trkpt>
      <trkpt lat="44.49304" lon="6.59131">
        <ele>2490</ele>
        <time>2021-04-07T08:28:36Z</time>
      </trkpt>
      <trkpt lat="44.49303" lon="6.59131">
        <ele>2491</ele>
        <time>2021-04-07T08:28:37Z</time>
      </trkpt>
      <trkpt lat="44.49303" lon="6.59132">
        <ele>2491</ele>
        <time>2021-04-07T08:28:38Z</time>
      </trkpt>
      <trkpt lat="44.49303" lon="6.59133">
        <ele>2491</ele>
        <time>2021-04-07T08:28:39Z</time>
      </trkpt>
      <trkpt lat="44.49302" lon="6.59134">
        <ele>2492</ele>
        <time>2021-04-07T08:28:40Z</time>
      </trkpt>
      <trkpt lat="44.49302" lon="6.59134">
        <ele>2492</ele>
        <time>2021-04-07T08:28:41Z</time>
      </trkpt>
      <trkpt lat="44.49301" lon="6.59135">
        <ele>2493</ele>
        <time>2021-04-07T08:28:42Z</time>
      </trkpt>
      <trkpt lat="44.49301" lon="6.59135">
        <ele>2493</ele>
        <time>2021-04-07T08:28:43Z</time>
      </trkpt>
      <trkpt lat="44.49301" lon="6.59136">
        <ele>2493</ele>
        <time>2021-04-07T08:28:44Z</time>
      </trkpt>
      <trkpt lat="44.49301" lon="6.59136">
        <ele>2493</ele>
        <time>2021-04-07T08:28:45Z</time>
      </trkpt>
      <trkpt lat="44.49301" lon="6.59137">
        <ele>2493</ele>
        <time>2021-04-07T08:28:46Z</time>
      </trkpt>
      <trkpt lat="44.49301" lon="6.59138">
        <ele>2494</ele>
        <time>2021-04-07T08:28:47Z</time>
      </trkpt>
      <trkpt lat="44.49301" lon="6.59138">
        <ele>2494</ele>
        <time>2021-04-07T08:28:48Z</time>
      </trkpt>
      <trkpt lat="44.49301" lon="6.59139">
        <ele>2495</ele>
        <time>2021-04-07T08:28:49Z</time>
      </trkpt>
      <trkpt lat="44.49301" lon="6.5914">
        <ele>2495</ele>
        <time>2021-04-07T08:28:50Z</time>
      </trkpt>
      <trkpt lat="44.493" lon="6.59141">
        <ele>2495</ele>
        <time>2021-04-07T08:28:51Z</time>
      </trkpt>
      <trkpt lat="44.493" lon="6.59142">
        <ele>2495</ele>
        <time>2021-04-07T08:28:52Z</time>
      </trkpt>
      <trkpt lat="44.493" lon="6.59143">
        <ele>2495</ele>
        <time>2021-04-07T08:28:53Z</time>
      </trkpt>
      <trkpt lat="44.493" lon="6.59143">
        <ele>2496</ele>
        <time>2021-04-07T08:28:54Z</time>
      </trkpt>
      <trkpt lat="44.49299" lon="6.59145">
        <ele>2496</ele>
        <time>2021-04-07T08:28:55Z</time>
      </trkpt>
      <trkpt lat="44.49299" lon="6.59145">
        <ele>2496</ele>
        <time>2021-04-07T08:28:56Z</time>
      </trkpt>
      <trkpt lat="44.49298" lon="6.59146">
        <ele>2497</ele>
        <time>2021-04-07T08:28:57Z</time>
      </trkpt>
      <trkpt lat="44.49298" lon="6.59146">
        <ele>2497</ele>
        <time>2021-04-07T08:28:58Z</time>
      </trkpt>
      <trkpt lat="44.49298" lon="6.59147">
        <ele>2497</ele>
        <time>2021-04-07T08:28:59Z</time>
      </trkpt>
      <trkpt lat="44.49297" lon="6.59148">
        <ele>2498</ele>
        <time>2021-04-07T08:29:00Z</time>
      </trkpt>
      <trkpt lat="44.49297" lon="6.59148">
        <ele>2498</ele>
        <time>2021-04-07T08:29:01Z</time>
      </trkpt>
      <trkpt lat="44.49296" lon="6.59149">
        <ele>2498</ele>
        <time>2021-04-07T08:29:02Z</time>
      </trkpt>
      <trkpt lat="44.49296" lon="6.5915">
        <ele>2498</ele>
        <time>2021-04-07T08:29:03Z</time>
      </trkpt>
      <trkpt lat="44.49296" lon="6.5915">
        <ele>2499</ele>
        <time>2021-04-07T08:29:04Z</time>
      </trkpt>
      <trkpt lat="44.49296" lon="6.59151">
        <ele>2499</ele>
        <time>2021-04-07T08:29:05Z</time>
      </trkpt>
      <trkpt lat="44.49296" lon="6.59152">
        <ele>2499</ele>
        <time>2021-04-07T08:29:06Z</time>
      </trkpt>
      <trkpt lat="44.49296" lon="6.59152">
        <ele>2499</ele>
        <time>2021-04-07T08:29:07Z</time>
      </trkpt>
      <trkpt lat="44.49296" lon="6.59153">
        <ele>2499</ele>
        <time>2021-04-07T08:29:08Z</time>
      </trkpt>
      <trkpt lat="44.49295" lon="6.59153">
        <ele>2499</ele>
        <time>2021-04-07T08:29:09Z</time>
      </trkpt>
      <trkpt lat="44.49295" lon="6.59154">
        <ele>2500</ele>
        <time>2021-04-07T08:29:10Z</time>
      </trkpt>
      <trkpt lat="44.49294" lon="6.59155">
        <ele>2500</ele>
        <time>2021-04-07T08:29:11Z</time>
      </trkpt>
      <trkpt lat="44.49294" lon="6.59156">
        <ele>2500</ele>
        <time>2021-04-07T08:29:12Z</time>
      </trkpt>
      <trkpt lat="44.49294" lon="6.59157">
        <ele>2500</ele>
        <time>2021-04-07T08:29:13Z</time>
      </trkpt>
      <trkpt lat="44.49293" lon="6.59158">
        <ele>2500</ele>
        <time>2021-04-07T08:29:14Z</time>
      </trkpt>
      <trkpt lat="44.49293" lon="6.59158">
        <ele>2501</ele>
        <time>2021-04-07T08:29:15Z</time>
      </trkpt>
      <trkpt lat="44.49292" lon="6.59159">
        <ele>2501</ele>
        <time>2021-04-07T08:29:16Z</time>
      </trkpt>
      <trkpt lat="44.49291" lon="6.5916">
        <ele>2501</ele>
        <time>2021-04-07T08:29:17Z</time>
      </trkpt>
      <trkpt lat="44.49291" lon="6.5916">
        <ele>2501</ele>
        <time>2021-04-07T08:29:18Z</time>
      </trkpt>
      <trkpt lat="44.4929" lon="6.5916">
        <ele>2501</ele>
        <time>2021-04-07T08:29:19Z</time>
      </trkpt>
      <trkpt lat="44.4929" lon="6.59161">
        <ele>2502</ele>
        <time>2021-04-07T08:29:20Z</time>
      </trkpt>
      <trkpt lat="44.4929" lon="6.59161">
        <ele>2502</ele>
        <time>2021-04-07T08:29:21Z</time>
      </trkpt>
      <trkpt lat="44.49289" lon="6.59162">
        <ele>2502</ele>
        <time>2021-04-07T08:29:22Z</time>
      </trkpt>
      <trkpt lat="44.49289" lon="6.59162">
        <ele>2502</ele>
        <time>2021-04-07T08:29:23Z</time>
      </trkpt>
      <trkpt lat="44.49288" lon="6.59163">
        <ele>2503</ele>
        <time>2021-04-07T08:29:24Z</time>
      </trkpt>
      <trkpt lat="44.49288" lon="6.59164">
        <ele>2503</ele>
        <time>2021-04-07T08:29:25Z</time>
      </trkpt>
      <trkpt lat="44.49287" lon="6.59165">
        <ele>2503</ele>
        <time>2021-04-07T08:29:26Z</time>
      </trkpt>
      <trkpt lat="44.49287" lon="6.59165">
        <ele>2503</ele>
        <time>2021-04-07T08:29:27Z</time>
      </trkpt>
      <trkpt lat="44.49286" lon="6.59166">
        <ele>2503</ele>
        <time>2021-04-07T08:29:28Z</time>
      </trkpt>
      <trkpt lat="44.49285" lon="6.59167">
        <ele>2504</ele>
        <time>2021-04-07T08:29:29Z</time>
      </trkpt>
      <trkpt lat="44.49285" lon="6.59168">
        <ele>2504</ele>
        <time>2021-04-07T08:29:30Z</time>
      </trkpt>
      <trkpt lat="44.49285" lon="6.59169">
        <ele>2504</ele>
        <time>2021-04-07T08:29:31Z</time>
      </trkpt>
      <trkpt lat="44.49285" lon="6.59169">
        <ele>2504</ele>
        <time>2021-04-07T08:29:32Z</time>
      </trkpt>
      <trkpt lat="44.49285" lon="6.5917">
        <ele>2504</ele>
        <time>2021-04-07T08:29:33Z</time>
      </trkpt>
      <trkpt lat="44.49285" lon="6.59171">
        <ele>2504</ele>
        <time>2021-04-07T08:29:34Z</time>
      </trkpt>
      <trkpt lat="44.49284" lon="6.59172">
        <ele>2505</ele>
        <time>2021-04-07T08:29:35Z</time>
      </trkpt>
      <trkpt lat="44.49284" lon="6.59172">
        <ele>2505</ele>
        <time>2021-04-07T08:29:36Z</time>
      </trkpt>
      <trkpt lat="44.49283" lon="6.59173">
        <ele>2505</ele>
        <time>2021-04-07T08:29:37Z</time>
      </trkpt>
      <trkpt lat="44.49282" lon="6.59174">
        <ele>2505</ele>
        <time>2021-04-07T08:29:38Z</time>
      </trkpt>
      <trkpt lat="44.49282" lon="6.59175">
        <ele>2505</ele>
        <time>2021-04-07T08:29:39Z</time>
      </trkpt>
      <trkpt lat="44.49282" lon="6.59176">
        <ele>2505</ele>
        <time>2021-04-07T08:29:40Z</time>
      </trkpt>
      <trkpt lat="44.49282" lon="6.59176">
        <ele>2506</ele>
        <time>2021-04-07T08:29:41Z</time>
      </trkpt>
      <trkpt lat="44.49282" lon="6.59177">
        <ele>2505</ele>
        <time>2021-04-07T08:29:42Z</time>
      </trkpt>
      <trkpt lat="44.49281" lon="6.59178">
        <ele>2505</ele>
        <time>2021-04-07T08:29:43Z</time>
      </trkpt>
      <trkpt lat="44.49281" lon="6.59179">
        <ele>2505</ele>
        <time>2021-04-07T08:29:44Z</time>
      </trkpt>
      <trkpt lat="44.4928" lon="6.59179">
        <ele>2505</ele>
        <time>2021-04-07T08:29:45Z</time>
      </trkpt>
      <trkpt lat="44.4928" lon="6.59179">
        <ele>2505</ele>
        <time>2021-04-07T08:29:46Z</time>
      </trkpt>
      <trkpt lat="44.4928" lon="6.5918">
        <ele>2505</ele>
        <time>2021-04-07T08:29:47Z</time>
      </trkpt>
      <trkpt lat="44.4928" lon="6.5918">
        <ele>2505</ele>
        <time>2021-04-07T08:29:48Z</time>
      </trkpt>
      <trkpt lat="44.49279" lon="6.5918">
        <ele>2505</ele>
        <time>2021-04-07T08:29:49Z</time>
      </trkpt>
      <trkpt lat="44.49279" lon="6.5918">
        <ele>2505</ele>
        <time>2021-04-07T08:29:50Z</time>
      </trkpt>
      <trkpt lat="44.49279" lon="6.5918">
        <ele>2505</ele>
        <time>2021-04-07T08:29:51Z</time>
      </trkpt>
      <trkpt lat="44.49278" lon="6.5918">
        <ele>2505</ele>
        <time>2021-04-07T08:29:52Z</time>
      </trkpt>
      <trkpt lat="44.49278" lon="6.5918">
        <ele>2505</ele>
        <time>2021-04-07T08:29:53Z</time>
      </trkpt>
      <trkpt lat="44.49277" lon="6.59181">
        <ele>2504</ele>
        <time>2021-04-07T08:29:54Z</time>
      </trkpt>
      <trkpt lat="44.49278" lon="6.59181">
        <ele>2505</ele>
        <time>2021-04-07T08:29:55Z</time>
      </trkpt>
      <trkpt lat="44.49278" lon="6.59182">
        <ele>2505</ele>
        <time>2021-04-07T08:29:56Z</time>
      </trkpt>
      <trkpt lat="44.49278" lon="6.59182">
        <ele>2505</ele>
        <time>2021-04-07T08:29:57Z</time>
      </trkpt>
      <trkpt lat="44.49278" lon="6.59182">
        <ele>2505</ele>
        <time>2021-04-07T08:29:58Z</time>
      </trkpt>
      <trkpt lat="44.49278" lon="6.59182">
        <ele>2505</ele>
        <time>2021-04-07T08:29:59Z</time>
      </trkpt>
      <trkpt lat="44.49278" lon="6.59182">
        <ele>2505</ele>
        <time>2021-04-07T08:30:00Z</time>
      </trkpt>
      <trkpt lat="44.49278" lon="6.59182">
        <ele>2505</ele>
        <time>2021-04-07T08:30:01Z</time>
      </trkpt>
      <trkpt lat="44.49278" lon="6.59182">
        <ele>2505</ele>
        <time>2021-04-07T08:30:02Z</time>
      </trkpt>
      <trkpt lat="44.49278" lon="6.59182">
        <ele>2505</ele>
        <time>2021-04-07T08:30:03Z</time>
      </trkpt>
      <trkpt lat="44.49278" lon="6.59182">
        <ele>2505</ele>
        <time>2021-04-07T08:30:04Z</time>
      </trkpt>
      <trkpt lat="44.49278" lon="6.59182">
        <ele>2505</ele>
        <time>2021-04-07T08:30:05Z</time>
      </trkpt>
      <trkpt lat="44.49278" lon="6.59182">
        <ele>2505</ele>
        <time>2021-04-07T08:30:06Z</time>
      </trkpt>
      <trkpt lat="44.49278" lon="6.59182">
        <ele>2505</ele>
        <time>2021-04-07T08:30:07Z</time>
      </trkpt>
      <trkpt lat="44.49278" lon="6.59182">
        <ele>2505</ele>
        <time>2021-04-07T08:30:08Z</time>
      </trkpt>
      <trkpt lat="44.49278" lon="6.59182">
        <ele>2505</ele>
        <time>2021-04-07T08:30:09Z</time>
      </trkpt>
      <trkpt lat="44.49278" lon="6.59182">
        <ele>2505</ele>
        <time>2021-04-07T08:30:10Z</time>
      </trkpt>
      <trkpt lat="44.49278" lon="6.59182">
        <ele>2505</ele>
        <time>2021-04-07T08:30:11Z</time>
      </trkpt>
      <trkpt lat="44.49278" lon="6.59182">
        <ele>2505</ele>
        <time>2021-04-07T08:30:12Z</time>
      </trkpt>
      <trkpt lat="44.49278" lon="6.59182">
        <ele>2505</ele>
        <time>2021-04-07T08:30:13Z</time>
      </trkpt>
      <trkpt lat="44.49278" lon="6.59182">
        <ele>2505</ele>
        <time>2021-04-07T08:30:14Z</time>
      </trkpt>
      <trkpt lat="44.49278" lon="6.59182">
        <ele>2505</ele>
        <time>2021-04-07T08:30:15Z</time>
      </trkpt>
      <trkpt lat="44.49278" lon="6.59182">
        <ele>2505</ele>
        <time>2021-04-07T08:30:16Z</time>
      </trkpt>
      <trkpt lat="44.49278" lon="6.59182">
        <ele>2505</ele>
        <time>2021-04-07T08:30:17Z</time>
      </trkpt>
      <trkpt lat="44.49278" lon="6.59182">
        <ele>2505</ele>
        <time>2021-04-07T08:30:18Z</time>
      </trkpt>
      <trkpt lat="44.49278" lon="6.59182">
        <ele>2505</ele>
        <time>2021-04-07T08:30:19Z</time>
      </trkpt>
      <trkpt lat="44.49278" lon="6.59182">
        <ele>2505</ele>
        <time>2021-04-07T08:30:20Z</time>
      </trkpt>
      <trkpt lat="44.49278" lon="6.59182">
        <ele>2505</ele>
        <time>2021-04-07T08:30:21Z</time>
      </trkpt>
      <trkpt lat="44.49278" lon="6.59182">
        <ele>2505</ele>
        <time>2021-04-07T08:30:22Z</time>
      </trkpt>
      <trkpt lat="44.49278" lon="6.59182">
        <ele>2505</ele>
        <time>2021-04-07T08:30:23Z</time>
      </trkpt>
      <trkpt lat="44.49278" lon="6.59182">
        <ele>2505</ele>
        <time>2021-04-07T08:30:24Z</time>
      </trkpt>
      <trkpt lat="44.49278" lon="6.59182">
        <ele>2505</ele>
        <time>2021-04-07T08:30:25Z</time>
      </trkpt>
      <trkpt lat="44.49278" lon="6.59182">
        <ele>2505</ele>
        <time>2021-04-07T08:30:26Z</time>
      </trkpt>
      <trkpt lat="44.49278" lon="6.59182">
        <ele>2505</ele>
        <time>2021-04-07T08:30:27Z</time>
      </trkpt>
      <trkpt lat="44.49278" lon="6.59182">
        <ele>2505</ele>
        <time>2021-04-07T08:30:28Z</time>
      </trkpt>
      <trkpt lat="44.49278" lon="6.59182">
        <ele>2505</ele>
        <time>2021-04-07T08:30:29Z</time>
      </trkpt>
      <trkpt lat="44.49278" lon="6.59182">
        <ele>2505</ele>
        <time>2021-04-07T08:30:30Z</time>
      </trkpt>
      <trkpt lat="44.49278" lon="6.59182">
        <ele>2505</ele>
        <time>2021-04-07T08:30:31Z</time>
      </trkpt>
      <trkpt lat="44.49278" lon="6.59182">
        <ele>2505</ele>
        <time>2021-04-07T08:30:32Z</time>
      </trkpt>
      <trkpt lat="44.49278" lon="6.59182">
        <ele>2505</ele>
        <time>2021-04-07T08:30:33Z</time>
      </trkpt>
      <trkpt lat="44.49278" lon="6.59182">
        <ele>2505</ele>
        <time>2021-04-07T08:30:34Z</time>
      </trkpt>
      <trkpt lat="44.49278" lon="6.59182">
        <ele>2505</ele>
        <time>2021-04-07T08:30:35Z</time>
      </trkpt>
      <trkpt lat="44.49278" lon="6.59182">
        <ele>2505</ele>
        <time>2021-04-07T08:30:36Z</time>
      </trkpt>
      <trkpt lat="44.49278" lon="6.59182">
        <ele>2505</ele>
        <time>2021-04-07T08:30:37Z</time>
      </trkpt>
      <trkpt lat="44.49278" lon="6.59182">
        <ele>2505</ele>
        <time>2021-04-07T08:30:38Z</time>
      </trkpt>
      <trkpt lat="44.49278" lon="6.59182">
        <ele>2505</ele>
        <time>2021-04-07T08:30:39Z</time>
      </trkpt>
      <trkpt lat="44.49278" lon="6.59182">
        <ele>2505</ele>
        <time>2021-04-07T08:30:40Z</time>
      </trkpt>
      <trkpt lat="44.49278" lon="6.59182">
        <ele>2505</ele>
        <time>2021-04-07T08:30:41Z</time>
      </trkpt>
      <trkpt lat="44.49278" lon="6.59182">
        <ele>2505</ele>
        <time>2021-04-07T08:30:42Z</time>
      </trkpt>
      <trkpt lat="44.49278" lon="6.59182">
        <ele>2505</ele>
        <time>2021-04-07T08:30:43Z</time>
      </trkpt>
      <trkpt lat="44.49278" lon="6.59182">
        <ele>2505</ele>
        <time>2021-04-07T08:30:44Z</time>
      </trkpt>
      <trkpt lat="44.49278" lon="6.59182">
        <ele>2505</ele>
        <time>2021-04-07T08:30:45Z</time>
      </trkpt>
      <trkpt lat="44.49278" lon="6.59182">
        <ele>2505</ele>
        <time>2021-04-07T08:30:46Z</time>
      </trkpt>
      <trkpt lat="44.49278" lon="6.59182">
        <ele>2505</ele>
        <time>2021-04-07T08:30:47Z</time>
      </trkpt>
      <trkpt lat="44.49278" lon="6.59182">
        <ele>2505</ele>
        <time>2021-04-07T08:30:48Z</time>
      </trkpt>
      <trkpt lat="44.49278" lon="6.59182">
        <ele>2505</ele>
        <time>2021-04-07T08:30:49Z</time>
      </trkpt>
      <trkpt lat="44.49278" lon="6.59182">
        <ele>2505</ele>
        <time>2021-04-07T08:30:50Z</time>
      </trkpt>
      <trkpt lat="44.49278" lon="6.59182">
        <ele>2505</ele>
        <time>2021-04-07T08:30:51Z</time>
      </trkpt>
      <trkpt lat="44.49278" lon="6.59182">
        <ele>2505</ele>
        <time>2021-04-07T08:30:52Z</time>
      </trkpt>
      <trkpt lat="44.49278" lon="6.59182">
        <ele>2505</ele>
        <time>2021-04-07T08:30:53Z</time>
      </trkpt>
      <trkpt lat="44.49278" lon="6.59182">
        <ele>2505</ele>
        <time>2021-04-07T08:30:54Z</time>
      </trkpt>
      <trkpt lat="44.49278" lon="6.59182">
        <ele>2505</ele>
        <time>2021-04-07T08:30:55Z</time>
      </trkpt>
      <trkpt lat="44.49278" lon="6.59182">
        <ele>2505</ele>
        <time>2021-04-07T08:30:56Z</time>
      </trkpt>
      <trkpt lat="44.49278" lon="6.59182">
        <ele>2505</ele>
        <time>2021-04-07T08:30:57Z</time>
      </trkpt>
      <trkpt lat="44.49278" lon="6.59182">
        <ele>2505</ele>
        <time>2021-04-07T08:30:58Z</time>
      </trkpt>
      <trkpt lat="44.49278" lon="6.59182">
        <ele>2505</ele>
        <time>2021-04-07T08:30:59Z</time>
      </trkpt>
      <trkpt lat="44.49278" lon="6.59182">
        <ele>2505</ele>
        <time>2021-04-07T08:31:00Z</time>
      </trkpt>
      <trkpt lat="44.49278" lon="6.59182">
        <ele>2505</ele>
        <time>2021-04-07T08:31:01Z</time>
      </trkpt>
      <trkpt lat="44.49278" lon="6.59182">
        <ele>2505</ele>
        <time>2021-04-07T08:31:02Z</time>
      </trkpt>
      <trkpt lat="44.49278" lon="6.59182">
        <ele>2505</ele>
        <time>2021-04-07T08:31:03Z</time>
      </trkpt>
      <trkpt lat="44.49278" lon="6.59182">
        <ele>2505</ele>
        <time>2021-04-07T08:31:04Z</time>
      </trkpt>
      <trkpt lat="44.49276" lon="6.5918">
        <ele>2505</ele>
        <time>2021-04-07T08:31:05Z</time>
      </trkpt>
      <trkpt lat="44.49276" lon="6.5918">
        <ele>2505</ele>
        <time>2021-04-07T08:31:06Z</time>
      </trkpt>
      <trkpt lat="44.49277" lon="6.5918">
        <ele>2505</ele>
        <time>2021-04-07T08:31:07Z</time>
      </trkpt>
      <trkpt lat="44.49277" lon="6.59179">
        <ele>2505</ele>
        <time>2021-04-07T08:31:08Z</time>
      </trkpt>
      <trkpt lat="44.49277" lon="6.59179">
        <ele>2505</ele>
        <time>2021-04-07T08:31:09Z</time>
      </trkpt>
      <trkpt lat="44.49277" lon="6.59179">
        <ele>2505</ele>
        <time>2021-04-07T08:31:10Z</time>
      </trkpt>
      <trkpt lat="44.49277" lon="6.59179">
        <ele>2505</ele>
        <time>2021-04-07T08:31:11Z</time>
      </trkpt>
      <trkpt lat="44.49277" lon="6.59179">
        <ele>2505</ele>
        <time>2021-04-07T08:31:12Z</time>
      </trkpt>
      <trkpt lat="44.49277" lon="6.59179">
        <ele>2505</ele>
        <time>2021-04-07T08:31:13Z</time>
      </trkpt>
      <trkpt lat="44.49277" lon="6.59179">
        <ele>2505</ele>
        <time>2021-04-07T08:31:14Z</time>
      </trkpt>
      <trkpt lat="44.49277" lon="6.59179">
        <ele>2505</ele>
        <time>2021-04-07T08:31:15Z</time>
      </trkpt>
      <trkpt lat="44.49277" lon="6.59179">
        <ele>2505</ele>
        <time>2021-04-07T08:31:16Z</time>
      </trkpt>
      <trkpt lat="44.49277" lon="6.59179">
        <ele>2505</ele>
        <time>2021-04-07T08:31:17Z</time>
      </trkpt>
      <trkpt lat="44.49277" lon="6.59179">
        <ele>2505</ele>
        <time>2021-04-07T08:31:18Z</time>
      </trkpt>
      <trkpt lat="44.49277" lon="6.59179">
        <ele>2505</ele>
        <time>2021-04-07T08:31:19Z</time>
      </trkpt>
      <trkpt lat="44.49277" lon="6.59179">
        <ele>2505</ele>
        <time>2021-04-07T08:31:20Z</time>
      </trkpt>
      <trkpt lat="44.49277" lon="6.59179">
        <ele>2505</ele>
        <time>2021-04-07T08:31:21Z</time>
      </trkpt>
      <trkpt lat="44.49277" lon="6.59179">
        <ele>2505</ele>
        <time>2021-04-07T08:31:22Z</time>
      </trkpt>
      <trkpt lat="44.49277" lon="6.59179">
        <ele>2505</ele>
        <time>2021-04-07T08:31:23Z</time>
      </trkpt>
      <trkpt lat="44.49277" lon="6.59179">
        <ele>2506</ele>
        <time>2021-04-07T08:31:24Z</time>
      </trkpt>
      <trkpt lat="44.49277" lon="6.59179">
        <ele>2506</ele>
        <time>2021-04-07T08:31:25Z</time>
      </trkpt>
      <trkpt lat="44.49277" lon="6.59179">
        <ele>2506</ele>
        <time>2021-04-07T08:31:26Z</time>
      </trkpt>
      <trkpt lat="44.49277" lon="6.59179">
        <ele>2506</ele>
        <time>2021-04-07T08:31:27Z</time>
      </trkpt>
      <trkpt lat="44.49277" lon="6.59179">
        <ele>2506</ele>
        <time>2021-04-07T08:31:28Z</time>
      </trkpt>
      <trkpt lat="44.49277" lon="6.59179">
        <ele>2506</ele>
        <time>2021-04-07T08:31:29Z</time>
      </trkpt>
      <trkpt lat="44.49276" lon="6.59184">
        <ele>2506</ele>
        <time>2021-04-07T08:31:30Z</time>
      </trkpt>
      <trkpt lat="44.49276" lon="6.59185">
        <ele>2507</ele>
        <time>2021-04-07T08:31:31Z</time>
      </trkpt>
      <trkpt lat="44.49276" lon="6.59185">
        <ele>2508</ele>
        <time>2021-04-07T08:31:32Z</time>
      </trkpt>
      <trkpt lat="44.49275" lon="6.59186">
        <ele>2508</ele>
        <time>2021-04-07T08:31:33Z</time>
      </trkpt>
      <trkpt lat="44.49275" lon="6.59186">
        <ele>2508</ele>
        <time>2021-04-07T08:31:34Z</time>
      </trkpt>
      <trkpt lat="44.49274" lon="6.59187">
        <ele>2508</ele>
        <time>2021-04-07T08:31:35Z</time>
      </trkpt>
      <trkpt lat="44.49273" lon="6.59187">
        <ele>2508</ele>
        <time>2021-04-07T08:31:36Z</time>
      </trkpt>
      <trkpt lat="44.49272" lon="6.59188">
        <ele>2508</ele>
        <time>2021-04-07T08:31:37Z</time>
      </trkpt>
      <trkpt lat="44.49271" lon="6.59188">
        <ele>2508</ele>
        <time>2021-04-07T08:31:38Z</time>
      </trkpt>
      <trkpt lat="44.4927" lon="6.59188">
        <ele>2508</ele>
        <time>2021-04-07T08:31:39Z</time>
      </trkpt>
      <trkpt lat="44.49269" lon="6.59189">
        <ele>2508</ele>
        <time>2021-04-07T08:31:40Z</time>
      </trkpt>
      <trkpt lat="44.49268" lon="6.59189">
        <ele>2508</ele>
        <time>2021-04-07T08:31:41Z</time>
      </trkpt>
      <trkpt lat="44.49267" lon="6.59189">
        <ele>2508</ele>
        <time>2021-04-07T08:31:42Z</time>
      </trkpt>
      <trkpt lat="44.49267" lon="6.5919">
        <ele>2508</ele>
        <time>2021-04-07T08:31:43Z</time>
      </trkpt>
      <trkpt lat="44.49266" lon="6.5919">
        <ele>2509</ele>
        <time>2021-04-07T08:31:44Z</time>
      </trkpt>
      <trkpt lat="44.49265" lon="6.5919">
        <ele>2509</ele>
        <time>2021-04-07T08:31:45Z</time>
      </trkpt>
      <trkpt lat="44.49264" lon="6.59191">
        <ele>2509</ele>
        <time>2021-04-07T08:31:46Z</time>
      </trkpt>
      <trkpt lat="44.49264" lon="6.59191">
        <ele>2509</ele>
        <time>2021-04-07T08:31:47Z</time>
      </trkpt>
      <trkpt lat="44.49263" lon="6.59191">
        <ele>2509</ele>
        <time>2021-04-07T08:31:48Z</time>
      </trkpt>
      <trkpt lat="44.49263" lon="6.59192">
        <ele>2509</ele>
        <time>2021-04-07T08:31:49Z</time>
      </trkpt>
      <trkpt lat="44.49263" lon="6.59193">
        <ele>2509</ele>
        <time>2021-04-07T08:31:50Z</time>
      </trkpt>
      <trkpt lat="44.49262" lon="6.59193">
        <ele>2509</ele>
        <time>2021-04-07T08:31:51Z</time>
      </trkpt>
      <trkpt lat="44.49262" lon="6.59194">
        <ele>2510</ele>
        <time>2021-04-07T08:31:52Z</time>
      </trkpt>
      <trkpt lat="44.49261" lon="6.59194">
        <ele>2510</ele>
        <time>2021-04-07T08:31:53Z</time>
      </trkpt>
      <trkpt lat="44.49261" lon="6.59194">
        <ele>2510</ele>
        <time>2021-04-07T08:31:54Z</time>
      </trkpt>
      <trkpt lat="44.4926" lon="6.59193">
        <ele>2511</ele>
        <time>2021-04-07T08:31:55Z</time>
      </trkpt>
      <trkpt lat="44.49259" lon="6.59192">
        <ele>2511</ele>
        <time>2021-04-07T08:31:56Z</time>
      </trkpt>
      <trkpt lat="44.49258" lon="6.59192">
        <ele>2512</ele>
        <time>2021-04-07T08:31:57Z</time>
      </trkpt>
      <trkpt lat="44.49258" lon="6.59191">
        <ele>2512</ele>
        <time>2021-04-07T08:31:58Z</time>
      </trkpt>
      <trkpt lat="44.49257" lon="6.5919">
        <ele>2513</ele>
        <time>2021-04-07T08:31:59Z</time>
      </trkpt>
      <trkpt lat="44.49257" lon="6.5919">
        <ele>2513</ele>
        <time>2021-04-07T08:32:00Z</time>
      </trkpt>
      <trkpt lat="44.49257" lon="6.59189">
        <ele>2513</ele>
        <time>2021-04-07T08:32:01Z</time>
      </trkpt>
      <trkpt lat="44.49257" lon="6.59189">
        <ele>2513</ele>
        <time>2021-04-07T08:32:02Z</time>
      </trkpt>
      <trkpt lat="44.49257" lon="6.59188">
        <ele>2513</ele>
        <time>2021-04-07T08:32:03Z</time>
      </trkpt>
      <trkpt lat="44.49256" lon="6.59188">
        <ele>2514</ele>
        <time>2021-04-07T08:32:04Z</time>
      </trkpt>
      <trkpt lat="44.49257" lon="6.59188">
        <ele>2514</ele>
        <time>2021-04-07T08:32:05Z</time>
      </trkpt>
      <trkpt lat="44.49256" lon="6.59188">
        <ele>2514</ele>
        <time>2021-04-07T08:32:06Z</time>
      </trkpt>
      <trkpt lat="44.49255" lon="6.59187">
        <ele>2514</ele>
        <time>2021-04-07T08:32:07Z</time>
      </trkpt>
      <trkpt lat="44.49255" lon="6.59187">
        <ele>2514</ele>
        <time>2021-04-07T08:32:08Z</time>
      </trkpt>
      <trkpt lat="44.49255" lon="6.59187">
        <ele>2514</ele>
        <time>2021-04-07T08:32:09Z</time>
      </trkpt>
      <trkpt lat="44.49255" lon="6.59186">
        <ele>2514</ele>
        <time>2021-04-07T08:32:10Z</time>
      </trkpt>
      <trkpt lat="44.49255" lon="6.59186">
        <ele>2514</ele>
        <time>2021-04-07T08:32:11Z</time>
      </trkpt>
      <trkpt lat="44.49255" lon="6.59186">
        <ele>2514</ele>
        <time>2021-04-07T08:32:12Z</time>
      </trkpt>
      <trkpt lat="44.49254" lon="6.59185">
        <ele>2514</ele>
        <time>2021-04-07T08:32:13Z</time>
      </trkpt>
      <trkpt lat="44.49254" lon="6.59184">
        <ele>2514</ele>
        <time>2021-04-07T08:32:14Z</time>
      </trkpt>
      <trkpt lat="44.49254" lon="6.59184">
        <ele>2514</ele>
        <time>2021-04-07T08:32:15Z</time>
      </trkpt>
      <trkpt lat="44.49254" lon="6.59183">
        <ele>2514</ele>
        <time>2021-04-07T08:32:16Z</time>
      </trkpt>
      <trkpt lat="44.49253" lon="6.59182">
        <ele>2515</ele>
        <time>2021-04-07T08:32:17Z</time>
      </trkpt>
      <trkpt lat="44.49253" lon="6.5918">
        <ele>2515</ele>
        <time>2021-04-07T08:32:18Z</time>
      </trkpt>
      <trkpt lat="44.49253" lon="6.5918">
        <ele>2515</ele>
        <time>2021-04-07T08:32:19Z</time>
      </trkpt>
      <trkpt lat="44.49253" lon="6.59179">
        <ele>2515</ele>
        <time>2021-04-07T08:32:20Z</time>
      </trkpt>
      <trkpt lat="44.49252" lon="6.59178">
        <ele>2515</ele>
        <time>2021-04-07T08:32:21Z</time>
      </trkpt>
      <trkpt lat="44.49252" lon="6.59176">
        <ele>2515</ele>
        <time>2021-04-07T08:32:22Z</time>
      </trkpt>
      <trkpt lat="44.49252" lon="6.59175">
        <ele>2515</ele>
        <time>2021-04-07T08:32:23Z</time>
      </trkpt>
      <trkpt lat="44.49252" lon="6.59174">
        <ele>2515</ele>
        <time>2021-04-07T08:32:24Z</time>
      </trkpt>
      <trkpt lat="44.49252" lon="6.59172">
        <ele>2515</ele>
        <time>2021-04-07T08:32:25Z</time>
      </trkpt>
      <trkpt lat="44.49252" lon="6.59171">
        <ele>2515</ele>
        <time>2021-04-07T08:32:26Z</time>
      </trkpt>
      <trkpt lat="44.49252" lon="6.59171">
        <ele>2515</ele>
        <time>2021-04-07T08:32:27Z</time>
      </trkpt>
      <trkpt lat="44.49252" lon="6.59171">
        <ele>2515</ele>
        <time>2021-04-07T08:32:28Z</time>
      </trkpt>
      <trkpt lat="44.49252" lon="6.59171">
        <ele>2515</ele>
        <time>2021-04-07T08:32:29Z</time>
      </trkpt>
      <trkpt lat="44.49252" lon="6.59171">
        <ele>2515</ele>
        <time>2021-04-07T08:32:30Z</time>
      </trkpt>
      <trkpt lat="44.49252" lon="6.5917">
        <ele>2515</ele>
        <time>2021-04-07T08:32:31Z</time>
      </trkpt>
      <trkpt lat="44.49251" lon="6.5917">
        <ele>2515</ele>
        <time>2021-04-07T08:32:32Z</time>
      </trkpt>
      <trkpt lat="44.49251" lon="6.59169">
        <ele>2515</ele>
        <time>2021-04-07T08:32:33Z</time>
      </trkpt>
      <trkpt lat="44.49251" lon="6.59168">
        <ele>2515</ele>
        <time>2021-04-07T08:32:34Z</time>
      </trkpt>
      <trkpt lat="44.49251" lon="6.59167">
        <ele>2516</ele>
        <time>2021-04-07T08:32:35Z</time>
      </trkpt>
      <trkpt lat="44.4925" lon="6.59167">
        <ele>2516</ele>
        <time>2021-04-07T08:32:36Z</time>
      </trkpt>
      <trkpt lat="44.4925" lon="6.59165">
        <ele>2516</ele>
        <time>2021-04-07T08:32:37Z</time>
      </trkpt>
      <trkpt lat="44.49249" lon="6.59165">
        <ele>2516</ele>
        <time>2021-04-07T08:32:38Z</time>
      </trkpt>
      <trkpt lat="44.49249" lon="6.59163">
        <ele>2516</ele>
        <time>2021-04-07T08:32:39Z</time>
      </trkpt>
      <trkpt lat="44.49248" lon="6.59162">
        <ele>2516</ele>
        <time>2021-04-07T08:32:40Z</time>
      </trkpt>
      <trkpt lat="44.49248" lon="6.59161">
        <ele>2516</ele>
        <time>2021-04-07T08:32:41Z</time>
      </trkpt>
      <trkpt lat="44.49248" lon="6.59159">
        <ele>2516</ele>
        <time>2021-04-07T08:32:42Z</time>
      </trkpt>
      <trkpt lat="44.49247" lon="6.59158">
        <ele>2516</ele>
        <time>2021-04-07T08:32:43Z</time>
      </trkpt>
      <trkpt lat="44.49247" lon="6.59157">
        <ele>2516</ele>
        <time>2021-04-07T08:32:44Z</time>
      </trkpt>
      <trkpt lat="44.49247" lon="6.59156">
        <ele>2516</ele>
        <time>2021-04-07T08:32:45Z</time>
      </trkpt>
      <trkpt lat="44.49246" lon="6.59155">
        <ele>2516</ele>
        <time>2021-04-07T08:32:46Z</time>
      </trkpt>
      <trkpt lat="44.49246" lon="6.59154">
        <ele>2517</ele>
        <time>2021-04-07T08:32:47Z</time>
      </trkpt>
      <trkpt lat="44.49246" lon="6.59154">
        <ele>2517</ele>
        <time>2021-04-07T08:32:48Z</time>
      </trkpt>
      <trkpt lat="44.49246" lon="6.59152">
        <ele>2517</ele>
        <time>2021-04-07T08:32:49Z</time>
      </trkpt>
      <trkpt lat="44.49245" lon="6.59152">
        <ele>2517</ele>
        <time>2021-04-07T08:32:50Z</time>
      </trkpt>
      <trkpt lat="44.49245" lon="6.59151">
        <ele>2518</ele>
        <time>2021-04-07T08:32:51Z</time>
      </trkpt>
      <trkpt lat="44.49245" lon="6.59151">
        <ele>2518</ele>
        <time>2021-04-07T08:32:52Z</time>
      </trkpt>
      <trkpt lat="44.49244" lon="6.59151">
        <ele>2518</ele>
        <time>2021-04-07T08:32:53Z</time>
      </trkpt>
      <trkpt lat="44.49244" lon="6.59151">
        <ele>2518</ele>
        <time>2021-04-07T08:32:54Z</time>
      </trkpt>
      <trkpt lat="44.49243" lon="6.5915">
        <ele>2519</ele>
        <time>2021-04-07T08:32:55Z</time>
      </trkpt>
      <trkpt lat="44.49243" lon="6.59149">
        <ele>2519</ele>
        <time>2021-04-07T08:32:56Z</time>
      </trkpt>
      <trkpt lat="44.49243" lon="6.59149">
        <ele>2519</ele>
        <time>2021-04-07T08:32:57Z</time>
      </trkpt>
      <trkpt lat="44.49243" lon="6.5915">
        <ele>2519</ele>
        <time>2021-04-07T08:32:58Z</time>
      </trkpt>
      <trkpt lat="44.49242" lon="6.5915">
        <ele>2519</ele>
        <time>2021-04-07T08:32:59Z</time>
      </trkpt>
      <trkpt lat="44.49242" lon="6.5915">
        <ele>2520</ele>
        <time>2021-04-07T08:33:00Z</time>
      </trkpt>
      <trkpt lat="44.49241" lon="6.5915">
        <ele>2520</ele>
        <time>2021-04-07T08:33:01Z</time>
      </trkpt>
      <trkpt lat="44.49241" lon="6.59149">
        <ele>2520</ele>
        <time>2021-04-07T08:33:02Z</time>
      </trkpt>
      <trkpt lat="44.4924" lon="6.59149">
        <ele>2520</ele>
        <time>2021-04-07T08:33:03Z</time>
      </trkpt>
      <trkpt lat="44.4924" lon="6.59149">
        <ele>2521</ele>
        <time>2021-04-07T08:33:04Z</time>
      </trkpt>
      <trkpt lat="44.4924" lon="6.59149">
        <ele>2521</ele>
        <time>2021-04-07T08:33:05Z</time>
      </trkpt>
      <trkpt lat="44.49239" lon="6.59148">
        <ele>2521</ele>
        <time>2021-04-07T08:33:06Z</time>
      </trkpt>
      <trkpt lat="44.49239" lon="6.59148">
        <ele>2521</ele>
        <time>2021-04-07T08:33:07Z</time>
      </trkpt>
      <trkpt lat="44.49239" lon="6.59148">
        <ele>2521</ele>
        <time>2021-04-07T08:33:08Z</time>
      </trkpt>
      <trkpt lat="44.49238" lon="6.59147">
        <ele>2522</ele>
        <time>2021-04-07T08:33:09Z</time>
      </trkpt>
      <trkpt lat="44.49237" lon="6.59146">
        <ele>2522</ele>
        <time>2021-04-07T08:33:10Z</time>
      </trkpt>
      <trkpt lat="44.49237" lon="6.59146">
        <ele>2523</ele>
        <time>2021-04-07T08:33:11Z</time>
      </trkpt>
      <trkpt lat="44.49237" lon="6.59145">
        <ele>2523</ele>
        <time>2021-04-07T08:33:12Z</time>
      </trkpt>
      <trkpt lat="44.49237" lon="6.59145">
        <ele>2523</ele>
        <time>2021-04-07T08:33:13Z</time>
      </trkpt>
      <trkpt lat="44.49236" lon="6.59144">
        <ele>2523</ele>
        <time>2021-04-07T08:33:14Z</time>
      </trkpt>
      <trkpt lat="44.49236" lon="6.59144">
        <ele>2523</ele>
        <time>2021-04-07T08:33:15Z</time>
      </trkpt>
      <trkpt lat="44.49236" lon="6.59143">
        <ele>2523</ele>
        <time>2021-04-07T08:33:16Z</time>
      </trkpt>
      <trkpt lat="44.49236" lon="6.59143">
        <ele>2523</ele>
        <time>2021-04-07T08:33:17Z</time>
      </trkpt>
      <trkpt lat="44.49235" lon="6.59142">
        <ele>2524</ele>
        <time>2021-04-07T08:33:18Z</time>
      </trkpt>
      <trkpt lat="44.49235" lon="6.59141">
        <ele>2524</ele>
        <time>2021-04-07T08:33:19Z</time>
      </trkpt>
      <trkpt lat="44.49234" lon="6.5914">
        <ele>2524</ele>
        <time>2021-04-07T08:33:20Z</time>
      </trkpt>
      <trkpt lat="44.49234" lon="6.5914">
        <ele>2524</ele>
        <time>2021-04-07T08:33:21Z</time>
      </trkpt>
      <trkpt lat="44.49233" lon="6.59139">
        <ele>2524</ele>
        <time>2021-04-07T08:33:22Z</time>
      </trkpt>
      <trkpt lat="44.49233" lon="6.59139">
        <ele>2524</ele>
        <time>2021-04-07T08:33:23Z</time>
      </trkpt>
      <trkpt lat="44.49233" lon="6.59138">
        <ele>2524</ele>
        <time>2021-04-07T08:33:24Z</time>
      </trkpt>
      <trkpt lat="44.49232" lon="6.59137">
        <ele>2524</ele>
        <time>2021-04-07T08:33:25Z</time>
      </trkpt>
      <trkpt lat="44.49231" lon="6.59137">
        <ele>2524</ele>
        <time>2021-04-07T08:33:26Z</time>
      </trkpt>
      <trkpt lat="44.49231" lon="6.59137">
        <ele>2525</ele>
        <time>2021-04-07T08:33:27Z</time>
      </trkpt>
      <trkpt lat="44.49231" lon="6.59137">
        <ele>2525</ele>
        <time>2021-04-07T08:33:28Z</time>
      </trkpt>
      <trkpt lat="44.4923" lon="6.59136">
        <ele>2525</ele>
        <time>2021-04-07T08:33:29Z</time>
      </trkpt>
      <trkpt lat="44.4923" lon="6.59136">
        <ele>2525</ele>
        <time>2021-04-07T08:33:30Z</time>
      </trkpt>
      <trkpt lat="44.4923" lon="6.59135">
        <ele>2525</ele>
        <time>2021-04-07T08:33:31Z</time>
      </trkpt>
      <trkpt lat="44.49229" lon="6.59134">
        <ele>2525</ele>
        <time>2021-04-07T08:33:32Z</time>
      </trkpt>
      <trkpt lat="44.49228" lon="6.59133">
        <ele>2525</ele>
        <time>2021-04-07T08:33:33Z</time>
      </trkpt>
      <trkpt lat="44.49228" lon="6.59132">
        <ele>2526</ele>
        <time>2021-04-07T08:33:34Z</time>
      </trkpt>
      <trkpt lat="44.49228" lon="6.59132">
        <ele>2526</ele>
        <time>2021-04-07T08:33:35Z</time>
      </trkpt>
      <trkpt lat="44.49228" lon="6.59131">
        <ele>2526</ele>
        <time>2021-04-07T08:33:36Z</time>
      </trkpt>
      <trkpt lat="44.49227" lon="6.5913">
        <ele>2526</ele>
        <time>2021-04-07T08:33:37Z</time>
      </trkpt>
      <trkpt lat="44.49226" lon="6.59129">
        <ele>2526</ele>
        <time>2021-04-07T08:33:38Z</time>
      </trkpt>
      <trkpt lat="44.49226" lon="6.59128">
        <ele>2527</ele>
        <time>2021-04-07T08:33:39Z</time>
      </trkpt>
      <trkpt lat="44.49225" lon="6.59127">
        <ele>2527</ele>
        <time>2021-04-07T08:33:40Z</time>
      </trkpt>
      <trkpt lat="44.49225" lon="6.59127">
        <ele>2527</ele>
        <time>2021-04-07T08:33:41Z</time>
      </trkpt>
      <trkpt lat="44.49225" lon="6.59126">
        <ele>2527</ele>
        <time>2021-04-07T08:33:42Z</time>
      </trkpt>
      <trkpt lat="44.49224" lon="6.59125">
        <ele>2528</ele>
        <time>2021-04-07T08:33:43Z</time>
      </trkpt>
      <trkpt lat="44.49224" lon="6.59124">
        <ele>2528</ele>
        <time>2021-04-07T08:33:44Z</time>
      </trkpt>
      <trkpt lat="44.49224" lon="6.59124">
        <ele>2528</ele>
        <time>2021-04-07T08:33:45Z</time>
      </trkpt>
      <trkpt lat="44.49223" lon="6.59123">
        <ele>2529</ele>
        <time>2021-04-07T08:33:46Z</time>
      </trkpt>
      <trkpt lat="44.49223" lon="6.59123">
        <ele>2529</ele>
        <time>2021-04-07T08:33:47Z</time>
      </trkpt>
      <trkpt lat="44.49222" lon="6.59122">
        <ele>2530</ele>
        <time>2021-04-07T08:33:48Z</time>
      </trkpt>
      <trkpt lat="44.49222" lon="6.59122">
        <ele>2530</ele>
        <time>2021-04-07T08:33:49Z</time>
      </trkpt>
      <trkpt lat="44.49222" lon="6.59121">
        <ele>2531</ele>
        <time>2021-04-07T08:33:50Z</time>
      </trkpt>
      <trkpt lat="44.49222" lon="6.59121">
        <ele>2531</ele>
        <time>2021-04-07T08:33:51Z</time>
      </trkpt>
      <trkpt lat="44.49221" lon="6.59121">
        <ele>2531</ele>
        <time>2021-04-07T08:33:52Z</time>
      </trkpt>
      <trkpt lat="44.4922" lon="6.5912">
        <ele>2531</ele>
        <time>2021-04-07T08:33:53Z</time>
      </trkpt>
      <trkpt lat="44.49219" lon="6.5912">
        <ele>2532</ele>
        <time>2021-04-07T08:33:54Z</time>
      </trkpt>
      <trkpt lat="44.49219" lon="6.59119">
        <ele>2532</ele>
        <time>2021-04-07T08:33:55Z</time>
      </trkpt>
      <trkpt lat="44.49218" lon="6.59119">
        <ele>2533</ele>
        <time>2021-04-07T08:33:56Z</time>
      </trkpt>
      <trkpt lat="44.49218" lon="6.59118">
        <ele>2533</ele>
        <time>2021-04-07T08:33:57Z</time>
      </trkpt>
      <trkpt lat="44.49217" lon="6.59118">
        <ele>2533</ele>
        <time>2021-04-07T08:33:58Z</time>
      </trkpt>
      <trkpt lat="44.49217" lon="6.59118">
        <ele>2534</ele>
        <time>2021-04-07T08:33:59Z</time>
      </trkpt>
      <trkpt lat="44.49217" lon="6.59119">
        <ele>2534</ele>
        <time>2021-04-07T08:34:00Z</time>
      </trkpt>
      <trkpt lat="44.49216" lon="6.59119">
        <ele>2534</ele>
        <time>2021-04-07T08:34:01Z</time>
      </trkpt>
      <trkpt lat="44.49216" lon="6.5912">
        <ele>2534</ele>
        <time>2021-04-07T08:34:02Z</time>
      </trkpt>
      <trkpt lat="44.49216" lon="6.5912">
        <ele>2534</ele>
        <time>2021-04-07T08:34:03Z</time>
      </trkpt>
      <trkpt lat="44.49216" lon="6.5912">
        <ele>2534</ele>
        <time>2021-04-07T08:34:04Z</time>
      </trkpt>
      <trkpt lat="44.49216" lon="6.5912">
        <ele>2534</ele>
        <time>2021-04-07T08:34:05Z</time>
      </trkpt>
      <trkpt lat="44.49216" lon="6.59121">
        <ele>2534</ele>
        <time>2021-04-07T08:34:06Z</time>
      </trkpt>
      <trkpt lat="44.49216" lon="6.59121">
        <ele>2535</ele>
        <time>2021-04-07T08:34:07Z</time>
      </trkpt>
      <trkpt lat="44.49215" lon="6.59121">
        <ele>2535</ele>
        <time>2021-04-07T08:34:08Z</time>
      </trkpt>
      <trkpt lat="44.49215" lon="6.59122">
        <ele>2535</ele>
        <time>2021-04-07T08:34:09Z</time>
      </trkpt>
      <trkpt lat="44.49215" lon="6.59123">
        <ele>2535</ele>
        <time>2021-04-07T08:34:10Z</time>
      </trkpt>
      <trkpt lat="44.49214" lon="6.59124">
        <ele>2535</ele>
        <time>2021-04-07T08:34:11Z</time>
      </trkpt>
      <trkpt lat="44.49214" lon="6.59124">
        <ele>2535</ele>
        <time>2021-04-07T08:34:12Z</time>
      </trkpt>
      <trkpt lat="44.49213" lon="6.59125">
        <ele>2536</ele>
        <time>2021-04-07T08:34:13Z</time>
      </trkpt>
      <trkpt lat="44.49212" lon="6.59125">
        <ele>2536</ele>
        <time>2021-04-07T08:34:14Z</time>
      </trkpt>
      <trkpt lat="44.49211" lon="6.59126">
        <ele>2536</ele>
        <time>2021-04-07T08:34:15Z</time>
      </trkpt>
      <trkpt lat="44.49211" lon="6.59127">
        <ele>2536</ele>
        <time>2021-04-07T08:34:16Z</time>
      </trkpt>
      <trkpt lat="44.4921" lon="6.59127">
        <ele>2537</ele>
        <time>2021-04-07T08:34:17Z</time>
      </trkpt>
      <trkpt lat="44.49209" lon="6.59128">
        <ele>2537</ele>
        <time>2021-04-07T08:34:18Z</time>
      </trkpt>
      <trkpt lat="44.49209" lon="6.59128">
        <ele>2537</ele>
        <time>2021-04-07T08:34:19Z</time>
      </trkpt>
      <trkpt lat="44.49208" lon="6.59129">
        <ele>2537</ele>
        <time>2021-04-07T08:34:20Z</time>
      </trkpt>
      <trkpt lat="44.49208" lon="6.59129">
        <ele>2538</ele>
        <time>2021-04-07T08:34:21Z</time>
      </trkpt>
      <trkpt lat="44.49208" lon="6.5913">
        <ele>2538</ele>
        <time>2021-04-07T08:34:22Z</time>
      </trkpt>
      <trkpt lat="44.49207" lon="6.59131">
        <ele>2538</ele>
        <time>2021-04-07T08:34:23Z</time>
      </trkpt>
      <trkpt lat="44.49207" lon="6.59131">
        <ele>2538</ele>
        <time>2021-04-07T08:34:24Z</time>
      </trkpt>
      <trkpt lat="44.49206" lon="6.59132">
        <ele>2538</ele>
        <time>2021-04-07T08:34:25Z</time>
      </trkpt>
      <trkpt lat="44.49205" lon="6.59133">
        <ele>2539</ele>
        <time>2021-04-07T08:34:26Z</time>
      </trkpt>
      <trkpt lat="44.49205" lon="6.59135">
        <ele>2539</ele>
        <time>2021-04-07T08:34:27Z</time>
      </trkpt>
      <trkpt lat="44.49204" lon="6.59135">
        <ele>2539</ele>
        <time>2021-04-07T08:34:28Z</time>
      </trkpt>
      <trkpt lat="44.49204" lon="6.59136">
        <ele>2539</ele>
        <time>2021-04-07T08:34:29Z</time>
      </trkpt>
      <trkpt lat="44.49203" lon="6.59137">
        <ele>2539</ele>
        <time>2021-04-07T08:34:30Z</time>
      </trkpt>
      <trkpt lat="44.49203" lon="6.59138">
        <ele>2540</ele>
        <time>2021-04-07T08:34:31Z</time>
      </trkpt>
      <trkpt lat="44.49202" lon="6.59138">
        <ele>2540</ele>
        <time>2021-04-07T08:34:32Z</time>
      </trkpt>
      <trkpt lat="44.49202" lon="6.59139">
        <ele>2540</ele>
        <time>2021-04-07T08:34:33Z</time>
      </trkpt>
      <trkpt lat="44.49201" lon="6.59139">
        <ele>2540</ele>
        <time>2021-04-07T08:34:34Z</time>
      </trkpt>
      <trkpt lat="44.49201" lon="6.5914">
        <ele>2540</ele>
        <time>2021-04-07T08:34:35Z</time>
      </trkpt>
      <trkpt lat="44.49201" lon="6.5914">
        <ele>2541</ele>
        <time>2021-04-07T08:34:36Z</time>
      </trkpt>
      <trkpt lat="44.492" lon="6.5914">
        <ele>2541</ele>
        <time>2021-04-07T08:34:37Z</time>
      </trkpt>
      <trkpt lat="44.492" lon="6.5914">
        <ele>2541</ele>
        <time>2021-04-07T08:34:38Z</time>
      </trkpt>
      <trkpt lat="44.492" lon="6.59141">
        <ele>2541</ele>
        <time>2021-04-07T08:34:39Z</time>
      </trkpt>
      <trkpt lat="44.49199" lon="6.59141">
        <ele>2541</ele>
        <time>2021-04-07T08:34:40Z</time>
      </trkpt>
      <trkpt lat="44.49199" lon="6.59142">
        <ele>2541</ele>
        <time>2021-04-07T08:34:41Z</time>
      </trkpt>
      <trkpt lat="44.49198" lon="6.59142">
        <ele>2541</ele>
        <time>2021-04-07T08:34:42Z</time>
      </trkpt>
      <trkpt lat="44.49198" lon="6.59143">
        <ele>2541</ele>
        <time>2021-04-07T08:34:43Z</time>
      </trkpt>
      <trkpt lat="44.49198" lon="6.59143">
        <ele>2542</ele>
        <time>2021-04-07T08:34:44Z</time>
      </trkpt>
      <trkpt lat="44.49198" lon="6.59143">
        <ele>2542</ele>
        <time>2021-04-07T08:34:45Z</time>
      </trkpt>
      <trkpt lat="44.49198" lon="6.59144">
        <ele>2542</ele>
        <time>2021-04-07T08:34:46Z</time>
      </trkpt>
      <trkpt lat="44.49198" lon="6.59144">
        <ele>2542</ele>
        <time>2021-04-07T08:34:47Z</time>
      </trkpt>
      <trkpt lat="44.49198" lon="6.59145">
        <ele>2542</ele>
        <time>2021-04-07T08:34:48Z</time>
      </trkpt>
      <trkpt lat="44.49197" lon="6.59145">
        <ele>2542</ele>
        <time>2021-04-07T08:34:49Z</time>
      </trkpt>
      <trkpt lat="44.49197" lon="6.59146">
        <ele>2542</ele>
        <time>2021-04-07T08:34:50Z</time>
      </trkpt>
      <trkpt lat="44.49197" lon="6.59146">
        <ele>2543</ele>
        <time>2021-04-07T08:34:51Z</time>
      </trkpt>
      <trkpt lat="44.49196" lon="6.59148">
        <ele>2543</ele>
        <time>2021-04-07T08:34:52Z</time>
      </trkpt>
      <trkpt lat="44.49196" lon="6.59148">
        <ele>2543</ele>
        <time>2021-04-07T08:34:53Z</time>
      </trkpt>
      <trkpt lat="44.49195" lon="6.59149">
        <ele>2543</ele>
        <time>2021-04-07T08:34:54Z</time>
      </trkpt>
      <trkpt lat="44.49195" lon="6.59149">
        <ele>2544</ele>
        <time>2021-04-07T08:34:55Z</time>
      </trkpt>
      <trkpt lat="44.49194" lon="6.5915">
        <ele>2544</ele>
        <time>2021-04-07T08:34:56Z</time>
      </trkpt>
      <trkpt lat="44.49194" lon="6.5915">
        <ele>2544</ele>
        <time>2021-04-07T08:34:57Z</time>
      </trkpt>
      <trkpt lat="44.49193" lon="6.59151">
        <ele>2544</ele>
        <time>2021-04-07T08:34:58Z</time>
      </trkpt>
      <trkpt lat="44.49193" lon="6.59151">
        <ele>2545</ele>
        <time>2021-04-07T08:34:59Z</time>
      </trkpt>
      <trkpt lat="44.49193" lon="6.59152">
        <ele>2545</ele>
        <time>2021-04-07T08:35:00Z</time>
      </trkpt>
      <trkpt lat="44.49193" lon="6.59152">
        <ele>2545</ele>
        <time>2021-04-07T08:35:01Z</time>
      </trkpt>
      <trkpt lat="44.49192" lon="6.59153">
        <ele>2545</ele>
        <time>2021-04-07T08:35:02Z</time>
      </trkpt>
      <trkpt lat="44.49192" lon="6.59153">
        <ele>2545</ele>
        <time>2021-04-07T08:35:03Z</time>
      </trkpt>
      <trkpt lat="44.49192" lon="6.59154">
        <ele>2545</ele>
        <time>2021-04-07T08:35:04Z</time>
      </trkpt>
      <trkpt lat="44.49192" lon="6.59154">
        <ele>2545</ele>
        <time>2021-04-07T08:35:05Z</time>
      </trkpt>
      <trkpt lat="44.49191" lon="6.59155">
        <ele>2546</ele>
        <time>2021-04-07T08:35:06Z</time>
      </trkpt>
      <trkpt lat="44.49191" lon="6.59155">
        <ele>2546</ele>
        <time>2021-04-07T08:35:07Z</time>
      </trkpt>
      <trkpt lat="44.4919" lon="6.59156">
        <ele>2546</ele>
        <time>2021-04-07T08:35:08Z</time>
      </trkpt>
      <trkpt lat="44.4919" lon="6.59157">
        <ele>2546</ele>
        <time>2021-04-07T08:35:09Z</time>
      </trkpt>
      <trkpt lat="44.4919" lon="6.59157">
        <ele>2546</ele>
        <time>2021-04-07T08:35:10Z</time>
      </trkpt>
      <trkpt lat="44.49189" lon="6.59157">
        <ele>2546</ele>
        <time>2021-04-07T08:35:11Z</time>
      </trkpt>
      <trkpt lat="44.49189" lon="6.59158">
        <ele>2546</ele>
        <time>2021-04-07T08:35:12Z</time>
      </trkpt>
      <trkpt lat="44.49188" lon="6.59158">
        <ele>2546</ele>
        <time>2021-04-07T08:35:13Z</time>
      </trkpt>
      <trkpt lat="44.49188" lon="6.59158">
        <ele>2546</ele>
        <time>2021-04-07T08:35:14Z</time>
      </trkpt>
      <trkpt lat="44.49187" lon="6.59158">
        <ele>2546</ele>
        <time>2021-04-07T08:35:15Z</time>
      </trkpt>
      <trkpt lat="44.49187" lon="6.59159">
        <ele>2546</ele>
        <time>2021-04-07T08:35:16Z</time>
      </trkpt>
      <trkpt lat="44.49186" lon="6.59159">
        <ele>2546</ele>
        <time>2021-04-07T08:35:17Z</time>
      </trkpt>
      <trkpt lat="44.49186" lon="6.5916">
        <ele>2546</ele>
        <time>2021-04-07T08:35:18Z</time>
      </trkpt>
      <trkpt lat="44.49185" lon="6.5916">
        <ele>2547</ele>
        <time>2021-04-07T08:35:19Z</time>
      </trkpt>
      <trkpt lat="44.49185" lon="6.5916">
        <ele>2547</ele>
        <time>2021-04-07T08:35:20Z</time>
      </trkpt>
      <trkpt lat="44.49185" lon="6.5916">
        <ele>2547</ele>
        <time>2021-04-07T08:35:21Z</time>
      </trkpt>
      <trkpt lat="44.49184" lon="6.59161">
        <ele>2547</ele>
        <time>2021-04-07T08:35:22Z</time>
      </trkpt>
      <trkpt lat="44.49184" lon="6.59161">
        <ele>2547</ele>
        <time>2021-04-07T08:35:23Z</time>
      </trkpt>
      <trkpt lat="44.49183" lon="6.59162">
        <ele>2547</ele>
        <time>2021-04-07T08:35:24Z</time>
      </trkpt>
      <trkpt lat="44.49183" lon="6.59162">
        <ele>2547</ele>
        <time>2021-04-07T08:35:25Z</time>
      </trkpt>
      <trkpt lat="44.49183" lon="6.59163">
        <ele>2547</ele>
        <time>2021-04-07T08:35:26Z</time>
      </trkpt>
      <trkpt lat="44.49182" lon="6.59163">
        <ele>2547</ele>
        <time>2021-04-07T08:35:27Z</time>
      </trkpt>
      <trkpt lat="44.49182" lon="6.59163">
        <ele>2547</ele>
        <time>2021-04-07T08:35:28Z</time>
      </trkpt>
      <trkpt lat="44.49181" lon="6.59163">
        <ele>2548</ele>
        <time>2021-04-07T08:35:29Z</time>
      </trkpt>
      <trkpt lat="44.49181" lon="6.59164">
        <ele>2548</ele>
        <time>2021-04-07T08:35:30Z</time>
      </trkpt>
      <trkpt lat="44.4918" lon="6.59165">
        <ele>2548</ele>
        <time>2021-04-07T08:35:31Z</time>
      </trkpt>
      <trkpt lat="44.49179" lon="6.59165">
        <ele>2548</ele>
        <time>2021-04-07T08:35:32Z</time>
      </trkpt>
      <trkpt lat="44.49179" lon="6.59165">
        <ele>2548</ele>
        <time>2021-04-07T08:35:33Z</time>
      </trkpt>
      <trkpt lat="44.49178" lon="6.59166">
        <ele>2548</ele>
        <time>2021-04-07T08:35:34Z</time>
      </trkpt>
      <trkpt lat="44.49178" lon="6.59166">
        <ele>2548</ele>
        <time>2021-04-07T08:35:35Z</time>
      </trkpt>
      <trkpt lat="44.49177" lon="6.59167">
        <ele>2549</ele>
        <time>2021-04-07T08:35:36Z</time>
      </trkpt>
      <trkpt lat="44.49176" lon="6.59167">
        <ele>2549</ele>
        <time>2021-04-07T08:35:37Z</time>
      </trkpt>
      <trkpt lat="44.49176" lon="6.59167">
        <ele>2549</ele>
        <time>2021-04-07T08:35:38Z</time>
      </trkpt>
      <trkpt lat="44.49175" lon="6.59168">
        <ele>2549</ele>
        <time>2021-04-07T08:35:39Z</time>
      </trkpt>
      <trkpt lat="44.49175" lon="6.59168">
        <ele>2549</ele>
        <time>2021-04-07T08:35:40Z</time>
      </trkpt>
      <trkpt lat="44.49174" lon="6.59168">
        <ele>2549</ele>
        <time>2021-04-07T08:35:41Z</time>
      </trkpt>
      <trkpt lat="44.49173" lon="6.59169">
        <ele>2550</ele>
        <time>2021-04-07T08:35:42Z</time>
      </trkpt>
      <trkpt lat="44.49173" lon="6.59169">
        <ele>2550</ele>
        <time>2021-04-07T08:35:43Z</time>
      </trkpt>
      <trkpt lat="44.49172" lon="6.59169">
        <ele>2550</ele>
        <time>2021-04-07T08:35:44Z</time>
      </trkpt>
      <trkpt lat="44.49172" lon="6.5917">
        <ele>2550</ele>
        <time>2021-04-07T08:35:45Z</time>
      </trkpt>
      <trkpt lat="44.49171" lon="6.5917">
        <ele>2550</ele>
        <time>2021-04-07T08:35:46Z</time>
      </trkpt>
      <trkpt lat="44.49171" lon="6.5917">
        <ele>2550</ele>
        <time>2021-04-07T08:35:47Z</time>
      </trkpt>
      <trkpt lat="44.4917" lon="6.59171">
        <ele>2550</ele>
        <time>2021-04-07T08:35:48Z</time>
      </trkpt>
      <trkpt lat="44.4917" lon="6.59171">
        <ele>2550</ele>
        <time>2021-04-07T08:35:49Z</time>
      </trkpt>
      <trkpt lat="44.4917" lon="6.59171">
        <ele>2550</ele>
        <time>2021-04-07T08:35:50Z</time>
      </trkpt>
      <trkpt lat="44.4917" lon="6.59171">
        <ele>2550</ele>
        <time>2021-04-07T08:35:51Z</time>
      </trkpt>
      <trkpt lat="44.49169" lon="6.59172">
        <ele>2550</ele>
        <time>2021-04-07T08:35:52Z</time>
      </trkpt>
      <trkpt lat="44.49169" lon="6.59172">
        <ele>2550</ele>
        <time>2021-04-07T08:35:53Z</time>
      </trkpt>
      <trkpt lat="44.49169" lon="6.59172">
        <ele>2550</ele>
        <time>2021-04-07T08:35:54Z</time>
      </trkpt>
      <trkpt lat="44.49168" lon="6.59172">
        <ele>2551</ele>
        <time>2021-04-07T08:35:55Z</time>
      </trkpt>
      <trkpt lat="44.49168" lon="6.59172">
        <ele>2551</ele>
        <time>2021-04-07T08:35:56Z</time>
      </trkpt>
      <trkpt lat="44.49167" lon="6.59172">
        <ele>2551</ele>
        <time>2021-04-07T08:35:57Z</time>
      </trkpt>
      <trkpt lat="44.49166" lon="6.59172">
        <ele>2551</ele>
        <time>2021-04-07T08:35:58Z</time>
      </trkpt>
      <trkpt lat="44.49166" lon="6.59172">
        <ele>2551</ele>
        <time>2021-04-07T08:35:59Z</time>
      </trkpt>
      <trkpt lat="44.49165" lon="6.59172">
        <ele>2551</ele>
        <time>2021-04-07T08:36:00Z</time>
      </trkpt>
      <trkpt lat="44.49165" lon="6.59173">
        <ele>2551</ele>
        <time>2021-04-07T08:36:01Z</time>
      </trkpt>
      <trkpt lat="44.49164" lon="6.59173">
        <ele>2552</ele>
        <time>2021-04-07T08:36:02Z</time>
      </trkpt>
      <trkpt lat="44.49163" lon="6.59173">
        <ele>2552</ele>
        <time>2021-04-07T08:36:03Z</time>
      </trkpt>
      <trkpt lat="44.49163" lon="6.59174">
        <ele>2553</ele>
        <time>2021-04-07T08:36:04Z</time>
      </trkpt>
      <trkpt lat="44.49163" lon="6.59174">
        <ele>2553</ele>
        <time>2021-04-07T08:36:05Z</time>
      </trkpt>
      <trkpt lat="44.49162" lon="6.59174">
        <ele>2553</ele>
        <time>2021-04-07T08:36:06Z</time>
      </trkpt>
      <trkpt lat="44.49162" lon="6.59175">
        <ele>2553</ele>
        <time>2021-04-07T08:36:07Z</time>
      </trkpt>
      <trkpt lat="44.49162" lon="6.59175">
        <ele>2553</ele>
        <time>2021-04-07T08:36:08Z</time>
      </trkpt>
      <trkpt lat="44.49161" lon="6.59176">
        <ele>2554</ele>
        <time>2021-04-07T08:36:09Z</time>
      </trkpt>
      <trkpt lat="44.49161" lon="6.59176">
        <ele>2554</ele>
        <time>2021-04-07T08:36:10Z</time>
      </trkpt>
      <trkpt lat="44.4916" lon="6.59176">
        <ele>2554</ele>
        <time>2021-04-07T08:36:11Z</time>
      </trkpt>
      <trkpt lat="44.4916" lon="6.59177">
        <ele>2555</ele>
        <time>2021-04-07T08:36:12Z</time>
      </trkpt>
      <trkpt lat="44.49159" lon="6.59177">
        <ele>2555</ele>
        <time>2021-04-07T08:36:13Z</time>
      </trkpt>
      <trkpt lat="44.49159" lon="6.59177">
        <ele>2555</ele>
        <time>2021-04-07T08:36:14Z</time>
      </trkpt>
      <trkpt lat="44.49158" lon="6.59177">
        <ele>2555</ele>
        <time>2021-04-07T08:36:15Z</time>
      </trkpt>
      <trkpt lat="44.49157" lon="6.59178">
        <ele>2555</ele>
        <time>2021-04-07T08:36:16Z</time>
      </trkpt>
      <trkpt lat="44.49157" lon="6.59178">
        <ele>2556</ele>
        <time>2021-04-07T08:36:17Z</time>
      </trkpt>
      <trkpt lat="44.49156" lon="6.59179">
        <ele>2556</ele>
        <time>2021-04-07T08:36:18Z</time>
      </trkpt>
      <trkpt lat="44.49156" lon="6.59179">
        <ele>2556</ele>
        <time>2021-04-07T08:36:19Z</time>
      </trkpt>
      <trkpt lat="44.49155" lon="6.5918">
        <ele>2556</ele>
        <time>2021-04-07T08:36:20Z</time>
      </trkpt>
      <trkpt lat="44.49155" lon="6.5918">
        <ele>2556</ele>
        <time>2021-04-07T08:36:21Z</time>
      </trkpt>
      <trkpt lat="44.49154" lon="6.5918">
        <ele>2556</ele>
        <time>2021-04-07T08:36:22Z</time>
      </trkpt>
      <trkpt lat="44.49154" lon="6.59181">
        <ele>2556</ele>
        <time>2021-04-07T08:36:23Z</time>
      </trkpt>
      <trkpt lat="44.49154" lon="6.59181">
        <ele>2556</ele>
        <time>2021-04-07T08:36:24Z</time>
      </trkpt>
      <trkpt lat="44.49153" lon="6.59182">
        <ele>2557</ele>
        <time>2021-04-07T08:36:25Z</time>
      </trkpt>
      <trkpt lat="44.49153" lon="6.59182">
        <ele>2557</ele>
        <time>2021-04-07T08:36:26Z</time>
      </trkpt>
      <trkpt lat="44.49152" lon="6.59183">
        <ele>2557</ele>
        <time>2021-04-07T08:36:27Z</time>
      </trkpt>
      <trkpt lat="44.49151" lon="6.59183">
        <ele>2557</ele>
        <time>2021-04-07T08:36:28Z</time>
      </trkpt>
      <trkpt lat="44.49151" lon="6.59184">
        <ele>2558</ele>
        <time>2021-04-07T08:36:29Z</time>
      </trkpt>
      <trkpt lat="44.4915" lon="6.59184">
        <ele>2558</ele>
        <time>2021-04-07T08:36:30Z</time>
      </trkpt>
      <trkpt lat="44.4915" lon="6.59184">
        <ele>2558</ele>
        <time>2021-04-07T08:36:31Z</time>
      </trkpt>
      <trkpt lat="44.4915" lon="6.59185">
        <ele>2558</ele>
        <time>2021-04-07T08:36:32Z</time>
      </trkpt>
      <trkpt lat="44.49149" lon="6.59185">
        <ele>2559</ele>
        <time>2021-04-07T08:36:33Z</time>
      </trkpt>
      <trkpt lat="44.49149" lon="6.59185">
        <ele>2559</ele>
        <time>2021-04-07T08:36:34Z</time>
      </trkpt>
      <trkpt lat="44.49149" lon="6.59186">
        <ele>2559</ele>
        <time>2021-04-07T08:36:35Z</time>
      </trkpt>
      <trkpt lat="44.49148" lon="6.59186">
        <ele>2559</ele>
        <time>2021-04-07T08:36:36Z</time>
      </trkpt>
      <trkpt lat="44.49148" lon="6.59187">
        <ele>2560</ele>
        <time>2021-04-07T08:36:37Z</time>
      </trkpt>
      <trkpt lat="44.49148" lon="6.59187">
        <ele>2560</ele>
        <time>2021-04-07T08:36:38Z</time>
      </trkpt>
      <trkpt lat="44.49147" lon="6.59188">
        <ele>2560</ele>
        <time>2021-04-07T08:36:39Z</time>
      </trkpt>
      <trkpt lat="44.49147" lon="6.59188">
        <ele>2560</ele>
        <time>2021-04-07T08:36:40Z</time>
      </trkpt>
      <trkpt lat="44.49146" lon="6.59189">
        <ele>2560</ele>
        <time>2021-04-07T08:36:41Z</time>
      </trkpt>
      <trkpt lat="44.49146" lon="6.5919">
        <ele>2561</ele>
        <time>2021-04-07T08:36:42Z</time>
      </trkpt>
      <trkpt lat="44.49145" lon="6.5919">
        <ele>2561</ele>
        <time>2021-04-07T08:36:43Z</time>
      </trkpt>
      <trkpt lat="44.49145" lon="6.59191">
        <ele>2561</ele>
        <time>2021-04-07T08:36:44Z</time>
      </trkpt>
      <trkpt lat="44.49144" lon="6.59192">
        <ele>2561</ele>
        <time>2021-04-07T08:36:45Z</time>
      </trkpt>
      <trkpt lat="44.49144" lon="6.59193">
        <ele>2562</ele>
        <time>2021-04-07T08:36:46Z</time>
      </trkpt>
      <trkpt lat="44.49143" lon="6.59193">
        <ele>2562</ele>
        <time>2021-04-07T08:36:47Z</time>
      </trkpt>
      <trkpt lat="44.49143" lon="6.59194">
        <ele>2562</ele>
        <time>2021-04-07T08:36:48Z</time>
      </trkpt>
      <trkpt lat="44.49143" lon="6.59194">
        <ele>2562</ele>
        <time>2021-04-07T08:36:49Z</time>
      </trkpt>
      <trkpt lat="44.49142" lon="6.59194">
        <ele>2562</ele>
        <time>2021-04-07T08:36:50Z</time>
      </trkpt>
      <trkpt lat="44.49142" lon="6.59195">
        <ele>2562</ele>
        <time>2021-04-07T08:36:51Z</time>
      </trkpt>
      <trkpt lat="44.49142" lon="6.59195">
        <ele>2562</ele>
        <time>2021-04-07T08:36:52Z</time>
      </trkpt>
      <trkpt lat="44.49142" lon="6.59196">
        <ele>2562</ele>
        <time>2021-04-07T08:36:53Z</time>
      </trkpt>
      <trkpt lat="44.49141" lon="6.59196">
        <ele>2562</ele>
        <time>2021-04-07T08:36:54Z</time>
      </trkpt>
      <trkpt lat="44.49141" lon="6.59196">
        <ele>2563</ele>
        <time>2021-04-07T08:36:55Z</time>
      </trkpt>
      <trkpt lat="44.4914" lon="6.59196">
        <ele>2563</ele>
        <time>2021-04-07T08:36:56Z</time>
      </trkpt>
      <trkpt lat="44.4914" lon="6.59197">
        <ele>2563</ele>
        <time>2021-04-07T08:36:57Z</time>
      </trkpt>
      <trkpt lat="44.49139" lon="6.59197">
        <ele>2563</ele>
        <time>2021-04-07T08:36:58Z</time>
      </trkpt>
      <trkpt lat="44.49139" lon="6.59197">
        <ele>2563</ele>
        <time>2021-04-07T08:36:59Z</time>
      </trkpt>
      <trkpt lat="44.49138" lon="6.59198">
        <ele>2563</ele>
        <time>2021-04-07T08:37:00Z</time>
      </trkpt>
      <trkpt lat="44.49138" lon="6.59198">
        <ele>2563</ele>
        <time>2021-04-07T08:37:01Z</time>
      </trkpt>
      <trkpt lat="44.49137" lon="6.59198">
        <ele>2563</ele>
        <time>2021-04-07T08:37:02Z</time>
      </trkpt>
      <trkpt lat="44.49137" lon="6.59198">
        <ele>2563</ele>
        <time>2021-04-07T08:37:03Z</time>
      </trkpt>
      <trkpt lat="44.49136" lon="6.59199">
        <ele>2564</ele>
        <time>2021-04-07T08:37:04Z</time>
      </trkpt>
      <trkpt lat="44.49136" lon="6.59199">
        <ele>2564</ele>
        <time>2021-04-07T08:37:05Z</time>
      </trkpt>
      <trkpt lat="44.49135" lon="6.59199">
        <ele>2564</ele>
        <time>2021-04-07T08:37:06Z</time>
      </trkpt>
      <trkpt lat="44.49135" lon="6.59199">
        <ele>2564</ele>
        <time>2021-04-07T08:37:07Z</time>
      </trkpt>
      <trkpt lat="44.49135" lon="6.592">
        <ele>2564</ele>
        <time>2021-04-07T08:37:08Z</time>
      </trkpt>
      <trkpt lat="44.49134" lon="6.59201">
        <ele>2564</ele>
        <time>2021-04-07T08:37:09Z</time>
      </trkpt>
      <trkpt lat="44.49134" lon="6.59201">
        <ele>2565</ele>
        <time>2021-04-07T08:37:10Z</time>
      </trkpt>
      <trkpt lat="44.49134" lon="6.59202">
        <ele>2565</ele>
        <time>2021-04-07T08:37:11Z</time>
      </trkpt>
      <trkpt lat="44.49134" lon="6.59202">
        <ele>2565</ele>
        <time>2021-04-07T08:37:12Z</time>
      </trkpt>
      <trkpt lat="44.49133" lon="6.59202">
        <ele>2565</ele>
        <time>2021-04-07T08:37:13Z</time>
      </trkpt>
      <trkpt lat="44.49133" lon="6.59203">
        <ele>2565</ele>
        <time>2021-04-07T08:37:14Z</time>
      </trkpt>
      <trkpt lat="44.49133" lon="6.59203">
        <ele>2565</ele>
        <time>2021-04-07T08:37:15Z</time>
      </trkpt>
      <trkpt lat="44.49132" lon="6.59204">
        <ele>2565</ele>
        <time>2021-04-07T08:37:16Z</time>
      </trkpt>
      <trkpt lat="44.49132" lon="6.59204">
        <ele>2565</ele>
        <time>2021-04-07T08:37:17Z</time>
      </trkpt>
      <trkpt lat="44.49131" lon="6.59205">
        <ele>2565</ele>
        <time>2021-04-07T08:37:18Z</time>
      </trkpt>
      <trkpt lat="44.49131" lon="6.59205">
        <ele>2565</ele>
        <time>2021-04-07T08:37:19Z</time>
      </trkpt>
      <trkpt lat="44.4913" lon="6.59206">
        <ele>2565</ele>
        <time>2021-04-07T08:37:20Z</time>
      </trkpt>
      <trkpt lat="44.4913" lon="6.59206">
        <ele>2565</ele>
        <time>2021-04-07T08:37:21Z</time>
      </trkpt>
      <trkpt lat="44.4913" lon="6.59206">
        <ele>2565</ele>
        <time>2021-04-07T08:37:22Z</time>
      </trkpt>
      <trkpt lat="44.49129" lon="6.59206">
        <ele>2566</ele>
        <time>2021-04-07T08:37:23Z</time>
      </trkpt>
      <trkpt lat="44.49129" lon="6.59206">
        <ele>2566</ele>
        <time>2021-04-07T08:37:24Z</time>
      </trkpt>
      <trkpt lat="44.49129" lon="6.59206">
        <ele>2566</ele>
        <time>2021-04-07T08:37:25Z</time>
      </trkpt>
      <trkpt lat="44.49129" lon="6.59206">
        <ele>2566</ele>
        <time>2021-04-07T08:37:26Z</time>
      </trkpt>
      <trkpt lat="44.49129" lon="6.59206">
        <ele>2566</ele>
        <time>2021-04-07T08:37:27Z</time>
      </trkpt>
      <trkpt lat="44.49129" lon="6.59206">
        <ele>2566</ele>
        <time>2021-04-07T08:37:28Z</time>
      </trkpt>
      <trkpt lat="44.49129" lon="6.59206">
        <ele>2566</ele>
        <time>2021-04-07T08:37:29Z</time>
      </trkpt>
      <trkpt lat="44.49129" lon="6.59206">
        <ele>2566</ele>
        <time>2021-04-07T08:37:30Z</time>
      </trkpt>
      <trkpt lat="44.49129" lon="6.59206">
        <ele>2566</ele>
        <time>2021-04-07T08:37:31Z</time>
      </trkpt>
      <trkpt lat="44.49126" lon="6.59208">
        <ele>2566</ele>
        <time>2021-04-07T08:37:32Z</time>
      </trkpt>
      <trkpt lat="44.49125" lon="6.59208">
        <ele>2567</ele>
        <time>2021-04-07T08:37:33Z</time>
      </trkpt>
      <trkpt lat="44.49125" lon="6.59208">
        <ele>2567</ele>
        <time>2021-04-07T08:37:34Z</time>
      </trkpt>
      <trkpt lat="44.49125" lon="6.59208">
        <ele>2567</ele>
        <time>2021-04-07T08:37:35Z</time>
      </trkpt>
      <trkpt lat="44.49124" lon="6.59209">
        <ele>2567</ele>
        <time>2021-04-07T08:37:36Z</time>
      </trkpt>
      <trkpt lat="44.49124" lon="6.59209">
        <ele>2567</ele>
        <time>2021-04-07T08:37:37Z</time>
      </trkpt>
      <trkpt lat="44.49124" lon="6.59209">
        <ele>2567</ele>
        <time>2021-04-07T08:37:38Z</time>
      </trkpt>
      <trkpt lat="44.49122" lon="6.59211">
        <ele>2567</ele>
        <time>2021-04-07T08:37:39Z</time>
      </trkpt>
      <trkpt lat="44.49122" lon="6.59211">
        <ele>2567</ele>
        <time>2021-04-07T08:37:40Z</time>
      </trkpt>
      <trkpt lat="44.49121" lon="6.59212">
        <ele>2567</ele>
        <time>2021-04-07T08:37:41Z</time>
      </trkpt>
      <trkpt lat="44.4912" lon="6.59212">
        <ele>2568</ele>
        <time>2021-04-07T08:37:42Z</time>
      </trkpt>
      <trkpt lat="44.49119" lon="6.59213">
        <ele>2568</ele>
        <time>2021-04-07T08:37:43Z</time>
      </trkpt>
      <trkpt lat="44.49119" lon="6.59213">
        <ele>2568</ele>
        <time>2021-04-07T08:37:44Z</time>
      </trkpt>
      <trkpt lat="44.49118" lon="6.59213">
        <ele>2569</ele>
        <time>2021-04-07T08:37:45Z</time>
      </trkpt>
      <trkpt lat="44.49118" lon="6.59213">
        <ele>2569</ele>
        <time>2021-04-07T08:37:46Z</time>
      </trkpt>
      <trkpt lat="44.49117" lon="6.59213">
        <ele>2569</ele>
        <time>2021-04-07T08:37:47Z</time>
      </trkpt>
      <trkpt lat="44.49117" lon="6.59212">
        <ele>2569</ele>
        <time>2021-04-07T08:37:48Z</time>
      </trkpt>
      <trkpt lat="44.49116" lon="6.59212">
        <ele>2570</ele>
        <time>2021-04-07T08:37:49Z</time>
      </trkpt>
      <trkpt lat="44.49116" lon="6.59212">
        <ele>2571</ele>
        <time>2021-04-07T08:37:50Z</time>
      </trkpt>
      <trkpt lat="44.49116" lon="6.59212">
        <ele>2571</ele>
        <time>2021-04-07T08:37:51Z</time>
      </trkpt>
      <trkpt lat="44.49116" lon="6.59212">
        <ele>2571</ele>
        <time>2021-04-07T08:37:52Z</time>
      </trkpt>
      <trkpt lat="44.49116" lon="6.59212">
        <ele>2571</ele>
        <time>2021-04-07T08:37:53Z</time>
      </trkpt>
      <trkpt lat="44.49116" lon="6.59212">
        <ele>2571</ele>
        <time>2021-04-07T08:37:54Z</time>
      </trkpt>
      <trkpt lat="44.49116" lon="6.59213">
        <ele>2571</ele>
        <time>2021-04-07T08:37:55Z</time>
      </trkpt>
      <trkpt lat="44.49116" lon="6.59212">
        <ele>2571</ele>
        <time>2021-04-07T08:37:56Z</time>
      </trkpt>
      <trkpt lat="44.49116" lon="6.59213">
        <ele>2571</ele>
        <time>2021-04-07T08:37:57Z</time>
      </trkpt>
      <trkpt lat="44.49116" lon="6.59213">
        <ele>2571</ele>
        <time>2021-04-07T08:37:58Z</time>
      </trkpt>
      <trkpt lat="44.49116" lon="6.59213">
        <ele>2571</ele>
        <time>2021-04-07T08:37:59Z</time>
      </trkpt>
      <trkpt lat="44.49116" lon="6.59213">
        <ele>2571</ele>
        <time>2021-04-07T08:38:00Z</time>
      </trkpt>
      <trkpt lat="44.49116" lon="6.59213">
        <ele>2571</ele>
        <time>2021-04-07T08:38:01Z</time>
      </trkpt>
      <trkpt lat="44.49116" lon="6.59213">
        <ele>2571</ele>
        <time>2021-04-07T08:38:02Z</time>
      </trkpt>
      <trkpt lat="44.49116" lon="6.59213">
        <ele>2571</ele>
        <time>2021-04-07T08:38:03Z</time>
      </trkpt>
      <trkpt lat="44.49116" lon="6.59213">
        <ele>2571</ele>
        <time>2021-04-07T08:38:04Z</time>
      </trkpt>
      <trkpt lat="44.49116" lon="6.59213">
        <ele>2571</ele>
        <time>2021-04-07T08:38:05Z</time>
      </trkpt>
      <trkpt lat="44.49116" lon="6.59213">
        <ele>2571</ele>
        <time>2021-04-07T08:38:06Z</time>
      </trkpt>
      <trkpt lat="44.49116" lon="6.59213">
        <ele>2571</ele>
        <time>2021-04-07T08:38:07Z</time>
      </trkpt>
      <trkpt lat="44.49116" lon="6.59213">
        <ele>2571</ele>
        <time>2021-04-07T08:38:08Z</time>
      </trkpt>
      <trkpt lat="44.49116" lon="6.59213">
        <ele>2571</ele>
        <time>2021-04-07T08:38:09Z</time>
      </trkpt>
      <trkpt lat="44.49116" lon="6.59213">
        <ele>2571</ele>
        <time>2021-04-07T08:38:11Z</time>
      </trkpt>
      <trkpt lat="44.49116" lon="6.59213">
        <ele>2571</ele>
        <time>2021-04-07T08:38:12Z</time>
      </trkpt>
      <trkpt lat="44.49116" lon="6.59213">
        <ele>2571</ele>
        <time>2021-04-07T08:38:13Z</time>
      </trkpt>
      <trkpt lat="44.49116" lon="6.59213">
        <ele>2571</ele>
        <time>2021-04-07T08:38:14Z</time>
      </trkpt>
      <trkpt lat="44.49116" lon="6.59213">
        <ele>2571</ele>
        <time>2021-04-07T08:38:15Z</time>
      </trkpt>
      <trkpt lat="44.49116" lon="6.59213">
        <ele>2571</ele>
        <time>2021-04-07T08:38:16Z</time>
      </trkpt>
      <trkpt lat="44.49116" lon="6.59213">
        <ele>2571</ele>
        <time>2021-04-07T08:38:17Z</time>
      </trkpt>
      <trkpt lat="44.49116" lon="6.59213">
        <ele>2571</ele>
        <time>2021-04-07T08:38:18Z</time>
      </trkpt>
      <trkpt lat="44.49116" lon="6.59213">
        <ele>2571</ele>
        <time>2021-04-07T08:38:19Z</time>
      </trkpt>
      <trkpt lat="44.49116" lon="6.59213">
        <ele>2571</ele>
        <time>2021-04-07T08:38:20Z</time>
      </trkpt>
      <trkpt lat="44.49116" lon="6.59213">
        <ele>2571</ele>
        <time>2021-04-07T08:38:21Z</time>
      </trkpt>
      <trkpt lat="44.49116" lon="6.59213">
        <ele>2571</ele>
        <time>2021-04-07T08:38:22Z</time>
      </trkpt>
      <trkpt lat="44.49116" lon="6.59214">
        <ele>2571</ele>
        <time>2021-04-07T08:38:23Z</time>
      </trkpt>
      <trkpt lat="44.49116" lon="6.59214">
        <ele>2571</ele>
        <time>2021-04-07T08:38:24Z</time>
      </trkpt>
      <trkpt lat="44.49116" lon="6.59214">
        <ele>2571</ele>
        <time>2021-04-07T08:38:25Z</time>
      </trkpt>
      <trkpt lat="44.49116" lon="6.59214">
        <ele>2571</ele>
        <time>2021-04-07T08:38:26Z</time>
      </trkpt>
      <trkpt lat="44.49116" lon="6.59214">
        <ele>2571</ele>
        <time>2021-04-07T08:38:27Z</time>
      </trkpt>
      <trkpt lat="44.49116" lon="6.59214">
        <ele>2571</ele>
        <time>2021-04-07T08:38:28Z</time>
      </trkpt>
      <trkpt lat="44.49116" lon="6.59214">
        <ele>2571</ele>
        <time>2021-04-07T08:38:29Z</time>
      </trkpt>
      <trkpt lat="44.49116" lon="6.59214">
        <ele>2571</ele>
        <time>2021-04-07T08:38:30Z</time>
      </trkpt>
      <trkpt lat="44.49116" lon="6.59214">
        <ele>2571</ele>
        <time>2021-04-07T08:38:31Z</time>
      </trkpt>
      <trkpt lat="44.49116" lon="6.59214">
        <ele>2571</ele>
        <time>2021-04-07T08:38:32Z</time>
      </trkpt>
      <trkpt lat="44.49116" lon="6.59214">
        <ele>2571</ele>
        <time>2021-04-07T08:38:33Z</time>
      </trkpt>
      <trkpt lat="44.49116" lon="6.59214">
        <ele>2571</ele>
        <time>2021-04-07T08:38:34Z</time>
      </trkpt>
      <trkpt lat="44.49116" lon="6.59214">
        <ele>2571</ele>
        <time>2021-04-07T08:38:35Z</time>
      </trkpt>
      <trkpt lat="44.49116" lon="6.59214">
        <ele>2571</ele>
        <time>2021-04-07T08:38:36Z</time>
      </trkpt>
      <trkpt lat="44.49116" lon="6.59214">
        <ele>2571</ele>
        <time>2021-04-07T08:38:37Z</time>
      </trkpt>
      <trkpt lat="44.49116" lon="6.59214">
        <ele>2571</ele>
        <time>2021-04-07T08:38:38Z</time>
      </trkpt>
      <trkpt lat="44.49116" lon="6.59214">
        <ele>2571</ele>
        <time>2021-04-07T08:38:39Z</time>
      </trkpt>
      <trkpt lat="44.49116" lon="6.59214">
        <ele>2571</ele>
        <time>2021-04-07T08:38:40Z</time>
      </trkpt>
      <trkpt lat="44.49116" lon="6.59214">
        <ele>2571</ele>
        <time>2021-04-07T08:38:41Z</time>
      </trkpt>
      <trkpt lat="44.49116" lon="6.59214">
        <ele>2571</ele>
        <time>2021-04-07T08:38:42Z</time>
      </trkpt>
      <trkpt lat="44.49116" lon="6.59214">
        <ele>2571</ele>
        <time>2021-04-07T08:38:43Z</time>
      </trkpt>
      <trkpt lat="44.49116" lon="6.59214">
        <ele>2571</ele>
        <time>2021-04-07T08:38:44Z</time>
      </trkpt>
      <trkpt lat="44.49116" lon="6.59214">
        <ele>2571</ele>
        <time>2021-04-07T08:38:45Z</time>
      </trkpt>
      <trkpt lat="44.49116" lon="6.59214">
        <ele>2571</ele>
        <time>2021-04-07T08:38:46Z</time>
      </trkpt>
      <trkpt lat="44.49116" lon="6.59214">
        <ele>2571</ele>
        <time>2021-04-07T08:38:47Z</time>
      </trkpt>
      <trkpt lat="44.49116" lon="6.59214">
        <ele>2571</ele>
        <time>2021-04-07T08:38:48Z</time>
      </trkpt>
      <trkpt lat="44.49116" lon="6.59214">
        <ele>2571</ele>
        <time>2021-04-07T08:38:49Z</time>
      </trkpt>
      <trkpt lat="44.49116" lon="6.59214">
        <ele>2571</ele>
        <time>2021-04-07T08:38:50Z</time>
      </trkpt>
      <trkpt lat="44.49116" lon="6.59214">
        <ele>2571</ele>
        <time>2021-04-07T08:38:51Z</time>
      </trkpt>
      <trkpt lat="44.49116" lon="6.59214">
        <ele>2571</ele>
        <time>2021-04-07T08:38:52Z</time>
      </trkpt>
      <trkpt lat="44.49116" lon="6.59214">
        <ele>2571</ele>
        <time>2021-04-07T08:38:53Z</time>
      </trkpt>
      <trkpt lat="44.49116" lon="6.59214">
        <ele>2571</ele>
        <time>2021-04-07T08:38:54Z</time>
      </trkpt>
      <trkpt lat="44.49116" lon="6.59214">
        <ele>2571</ele>
        <time>2021-04-07T08:38:55Z</time>
      </trkpt>
      <trkpt lat="44.49116" lon="6.59214">
        <ele>2571</ele>
        <time>2021-04-07T08:38:56Z</time>
      </trkpt>
      <trkpt lat="44.49116" lon="6.59214">
        <ele>2571</ele>
        <time>2021-04-07T08:38:57Z</time>
      </trkpt>
      <trkpt lat="44.49116" lon="6.59214">
        <ele>2571</ele>
        <time>2021-04-07T08:38:58Z</time>
      </trkpt>
      <trkpt lat="44.49116" lon="6.59214">
        <ele>2571</ele>
        <time>2021-04-07T08:38:59Z</time>
      </trkpt>
      <trkpt lat="44.49116" lon="6.59214">
        <ele>2571</ele>
        <time>2021-04-07T08:39:00Z</time>
      </trkpt>
      <trkpt lat="44.49116" lon="6.59214">
        <ele>2571</ele>
        <time>2021-04-07T08:39:01Z</time>
      </trkpt>
      <trkpt lat="44.49116" lon="6.59214">
        <ele>2571</ele>
        <time>2021-04-07T08:39:02Z</time>
      </trkpt>
      <trkpt lat="44.49116" lon="6.59214">
        <ele>2571</ele>
        <time>2021-04-07T08:39:03Z</time>
      </trkpt>
      <trkpt lat="44.49116" lon="6.59212">
        <ele>2571</ele>
        <time>2021-04-07T08:39:04Z</time>
      </trkpt>
      <trkpt lat="44.49116" lon="6.59212">
        <ele>2571</ele>
        <time>2021-04-07T08:39:05Z</time>
      </trkpt>
      <trkpt lat="44.49116" lon="6.59211">
        <ele>2571</ele>
        <time>2021-04-07T08:39:06Z</time>
      </trkpt>
      <trkpt lat="44.49115" lon="6.5921">
        <ele>2571</ele>
        <time>2021-04-07T08:39:07Z</time>
      </trkpt>
      <trkpt lat="44.49115" lon="6.59209">
        <ele>2571</ele>
        <time>2021-04-07T08:39:08Z</time>
      </trkpt>
      <trkpt lat="44.49115" lon="6.59209">
        <ele>2573</ele>
        <time>2021-04-07T08:39:09Z</time>
      </trkpt>
      <trkpt lat="44.49115" lon="6.59208">
        <ele>2573</ele>
        <time>2021-04-07T08:39:10Z</time>
      </trkpt>
      <trkpt lat="44.49115" lon="6.59207">
        <ele>2574</ele>
        <time>2021-04-07T08:39:11Z</time>
      </trkpt>
      <trkpt lat="44.49115" lon="6.59207">
        <ele>2574</ele>
        <time>2021-04-07T08:39:12Z</time>
      </trkpt>
      <trkpt lat="44.49115" lon="6.59207">
        <ele>2574</ele>
        <time>2021-04-07T08:39:13Z</time>
      </trkpt>
      <trkpt lat="44.49115" lon="6.59206">
        <ele>2574</ele>
        <time>2021-04-07T08:39:14Z</time>
      </trkpt>
      <trkpt lat="44.49115" lon="6.59205">
        <ele>2574</ele>
        <time>2021-04-07T08:39:15Z</time>
      </trkpt>
      <trkpt lat="44.49115" lon="6.59205">
        <ele>2574</ele>
        <time>2021-04-07T08:39:16Z</time>
      </trkpt>
      <trkpt lat="44.49114" lon="6.59205">
        <ele>2575</ele>
        <time>2021-04-07T08:39:17Z</time>
      </trkpt>
      <trkpt lat="44.49114" lon="6.59204">
        <ele>2575</ele>
        <time>2021-04-07T08:39:18Z</time>
      </trkpt>
      <trkpt lat="44.49114" lon="6.59204">
        <ele>2575</ele>
        <time>2021-04-07T08:39:19Z</time>
      </trkpt>
      <trkpt lat="44.49113" lon="6.59203">
        <ele>2575</ele>
        <time>2021-04-07T08:39:20Z</time>
      </trkpt>
      <trkpt lat="44.49113" lon="6.59203">
        <ele>2575</ele>
        <time>2021-04-07T08:39:21Z</time>
      </trkpt>
      <trkpt lat="44.49113" lon="6.59202">
        <ele>2575</ele>
        <time>2021-04-07T08:39:22Z</time>
      </trkpt>
      <trkpt lat="44.49112" lon="6.59202">
        <ele>2575</ele>
        <time>2021-04-07T08:39:23Z</time>
      </trkpt>
      <trkpt lat="44.49112" lon="6.59201">
        <ele>2576</ele>
        <time>2021-04-07T08:39:24Z</time>
      </trkpt>
      <trkpt lat="44.49112" lon="6.59201">
        <ele>2576</ele>
        <time>2021-04-07T08:39:25Z</time>
      </trkpt>
      <trkpt lat="44.49112" lon="6.59201">
        <ele>2576</ele>
        <time>2021-04-07T08:39:26Z</time>
      </trkpt>
      <trkpt lat="44.49112" lon="6.592">
        <ele>2576</ele>
        <time>2021-04-07T08:39:27Z</time>
      </trkpt>
      <trkpt lat="44.49112" lon="6.592">
        <ele>2576</ele>
        <time>2021-04-07T08:39:28Z</time>
      </trkpt>
      <trkpt lat="44.49112" lon="6.592">
        <ele>2576</ele>
        <time>2021-04-07T08:39:29Z</time>
      </trkpt>
      <trkpt lat="44.49112" lon="6.592">
        <ele>2576</ele>
        <time>2021-04-07T08:39:30Z</time>
      </trkpt>
      <trkpt lat="44.49112" lon="6.592">
        <ele>2576</ele>
        <time>2021-04-07T08:39:31Z</time>
      </trkpt>
      <trkpt lat="44.49112" lon="6.592">
        <ele>2576</ele>
        <time>2021-04-07T08:39:32Z</time>
      </trkpt>
      <trkpt lat="44.49112" lon="6.592">
        <ele>2576</ele>
        <time>2021-04-07T08:39:33Z</time>
      </trkpt>
      <trkpt lat="44.49112" lon="6.592">
        <ele>2576</ele>
        <time>2021-04-07T08:39:34Z</time>
      </trkpt>
      <trkpt lat="44.49112" lon="6.592">
        <ele>2576</ele>
        <time>2021-04-07T08:39:35Z</time>
      </trkpt>
      <trkpt lat="44.49112" lon="6.592">
        <ele>2576</ele>
        <time>2021-04-07T08:39:36Z</time>
      </trkpt>
      <trkpt lat="44.4911" lon="6.59195">
        <ele>2576</ele>
        <time>2021-04-07T08:39:37Z</time>
      </trkpt>
      <trkpt lat="44.49109" lon="6.59194">
        <ele>2577</ele>
        <time>2021-04-07T08:39:38Z</time>
      </trkpt>
      <trkpt lat="44.49109" lon="6.59193">
        <ele>2577</ele>
        <time>2021-04-07T08:39:39Z</time>
      </trkpt>
      <trkpt lat="44.49109" lon="6.59193">
        <ele>2577</ele>
        <time>2021-04-07T08:39:40Z</time>
      </trkpt>
      <trkpt lat="44.49108" lon="6.59192">
        <ele>2577</ele>
        <time>2021-04-07T08:39:41Z</time>
      </trkpt>
      <trkpt lat="44.49108" lon="6.59191">
        <ele>2577</ele>
        <time>2021-04-07T08:39:42Z</time>
      </trkpt>
      <trkpt lat="44.49107" lon="6.5919">
        <ele>2577</ele>
        <time>2021-04-07T08:39:43Z</time>
      </trkpt>
      <trkpt lat="44.49107" lon="6.5919">
        <ele>2577</ele>
        <time>2021-04-07T08:39:44Z</time>
      </trkpt>
      <trkpt lat="44.49107" lon="6.59189">
        <ele>2577</ele>
        <time>2021-04-07T08:39:45Z</time>
      </trkpt>
      <trkpt lat="44.49107" lon="6.59189">
        <ele>2577</ele>
        <time>2021-04-07T08:39:46Z</time>
      </trkpt>
      <trkpt lat="44.49106" lon="6.59188">
        <ele>2577</ele>
        <time>2021-04-07T08:39:47Z</time>
      </trkpt>
      <trkpt lat="44.49106" lon="6.59187">
        <ele>2578</ele>
        <time>2021-04-07T08:39:48Z</time>
      </trkpt>
      <trkpt lat="44.49105" lon="6.59187">
        <ele>2578</ele>
        <time>2021-04-07T08:39:49Z</time>
      </trkpt>
      <trkpt lat="44.49105" lon="6.59186">
        <ele>2578</ele>
        <time>2021-04-07T08:39:50Z</time>
      </trkpt>
      <trkpt lat="44.49104" lon="6.59185">
        <ele>2578</ele>
        <time>2021-04-07T08:39:51Z</time>
      </trkpt>
      <trkpt lat="44.49104" lon="6.59184">
        <ele>2578</ele>
        <time>2021-04-07T08:39:52Z</time>
      </trkpt>
      <trkpt lat="44.49104" lon="6.59184">
        <ele>2578</ele>
        <time>2021-04-07T08:39:53Z</time>
      </trkpt>
      <trkpt lat="44.49104" lon="6.59183">
        <ele>2578</ele>
        <time>2021-04-07T08:39:54Z</time>
      </trkpt>
      <trkpt lat="44.49104" lon="6.59182">
        <ele>2579</ele>
        <time>2021-04-07T08:39:55Z</time>
      </trkpt>
      <trkpt lat="44.49104" lon="6.59182">
        <ele>2579</ele>
        <time>2021-04-07T08:39:56Z</time>
      </trkpt>
      <trkpt lat="44.49104" lon="6.59181">
        <ele>2579</ele>
        <time>2021-04-07T08:39:57Z</time>
      </trkpt>
      <trkpt lat="44.49103" lon="6.5918">
        <ele>2579</ele>
        <time>2021-04-07T08:39:58Z</time>
      </trkpt>
      <trkpt lat="44.49103" lon="6.5918">
        <ele>2579</ele>
        <time>2021-04-07T08:39:59Z</time>
      </trkpt>
      <trkpt lat="44.49103" lon="6.5918">
        <ele>2579</ele>
        <time>2021-04-07T08:40:00Z</time>
      </trkpt>
      <trkpt lat="44.49103" lon="6.5918">
        <ele>2579</ele>
        <time>2021-04-07T08:40:01Z</time>
      </trkpt>
      <trkpt lat="44.49103" lon="6.5918">
        <ele>2579</ele>
        <time>2021-04-07T08:40:02Z</time>
      </trkpt>
      <trkpt lat="44.49103" lon="6.5918">
        <ele>2580</ele>
        <time>2021-04-07T08:40:03Z</time>
      </trkpt>
      <trkpt lat="44.49103" lon="6.5918">
        <ele>2580</ele>
        <time>2021-04-07T08:40:04Z</time>
      </trkpt>
      <trkpt lat="44.49103" lon="6.5918">
        <ele>2580</ele>
        <time>2021-04-07T08:40:05Z</time>
      </trkpt>
      <trkpt lat="44.49102" lon="6.5918">
        <ele>2580</ele>
        <time>2021-04-07T08:40:06Z</time>
      </trkpt>
      <trkpt lat="44.49102" lon="6.5918">
        <ele>2580</ele>
        <time>2021-04-07T08:40:07Z</time>
      </trkpt>
      <trkpt lat="44.49102" lon="6.5918">
        <ele>2580</ele>
        <time>2021-04-07T08:40:08Z</time>
      </trkpt>
      <trkpt lat="44.49102" lon="6.5918">
        <ele>2580</ele>
        <time>2021-04-07T08:40:09Z</time>
      </trkpt>
      <trkpt lat="44.49102" lon="6.5918">
        <ele>2580</ele>
        <time>2021-04-07T08:40:10Z</time>
      </trkpt>
      <trkpt lat="44.49102" lon="6.5918">
        <ele>2580</ele>
        <time>2021-04-07T08:40:11Z</time>
      </trkpt>
      <trkpt lat="44.49102" lon="6.5918">
        <ele>2580</ele>
        <time>2021-04-07T08:40:12Z</time>
      </trkpt>
      <trkpt lat="44.49102" lon="6.5918">
        <ele>2580</ele>
        <time>2021-04-07T08:40:13Z</time>
      </trkpt>
      <trkpt lat="44.49102" lon="6.5918">
        <ele>2580</ele>
        <time>2021-04-07T08:40:14Z</time>
      </trkpt>
      <trkpt lat="44.49102" lon="6.5918">
        <ele>2580</ele>
        <time>2021-04-07T08:40:15Z</time>
      </trkpt>
      <trkpt lat="44.49102" lon="6.5918">
        <ele>2580</ele>
        <time>2021-04-07T08:40:16Z</time>
      </trkpt>
      <trkpt lat="44.49102" lon="6.5918">
        <ele>2580</ele>
        <time>2021-04-07T08:40:17Z</time>
      </trkpt>
      <trkpt lat="44.49102" lon="6.5918">
        <ele>2580</ele>
        <time>2021-04-07T08:40:18Z</time>
      </trkpt>
      <trkpt lat="44.49102" lon="6.5918">
        <ele>2580</ele>
        <time>2021-04-07T08:40:19Z</time>
      </trkpt>
      <trkpt lat="44.49102" lon="6.5918">
        <ele>2580</ele>
        <time>2021-04-07T08:40:20Z</time>
      </trkpt>
      <trkpt lat="44.49102" lon="6.5918">
        <ele>2580</ele>
        <time>2021-04-07T08:40:21Z</time>
      </trkpt>
      <trkpt lat="44.49102" lon="6.5918">
        <ele>2580</ele>
        <time>2021-04-07T08:40:22Z</time>
      </trkpt>
      <trkpt lat="44.49102" lon="6.5918">
        <ele>2580</ele>
        <time>2021-04-07T08:40:23Z</time>
      </trkpt>
      <trkpt lat="44.49101" lon="6.59178">
        <ele>2580</ele>
        <time>2021-04-07T08:40:24Z</time>
      </trkpt>
      <trkpt lat="44.49101" lon="6.59177">
        <ele>2580</ele>
        <time>2021-04-07T08:40:25Z</time>
      </trkpt>
      <trkpt lat="44.49101" lon="6.59177">
        <ele>2580</ele>
        <time>2021-04-07T08:40:26Z</time>
      </trkpt>
      <trkpt lat="44.49101" lon="6.59177">
        <ele>2580</ele>
        <time>2021-04-07T08:40:27Z</time>
      </trkpt>
      <trkpt lat="44.49101" lon="6.59176">
        <ele>2580</ele>
        <time>2021-04-07T08:40:28Z</time>
      </trkpt>
      <trkpt lat="44.491" lon="6.59176">
        <ele>2580</ele>
        <time>2021-04-07T08:40:29Z</time>
      </trkpt>
      <trkpt lat="44.491" lon="6.59175">
        <ele>2580</ele>
        <time>2021-04-07T08:40:30Z</time>
      </trkpt>
      <trkpt lat="44.491" lon="6.59175">
        <ele>2581</ele>
        <time>2021-04-07T08:40:31Z</time>
      </trkpt>
      <trkpt lat="44.491" lon="6.59175">
        <ele>2581</ele>
        <time>2021-04-07T08:40:32Z</time>
      </trkpt>
      <trkpt lat="44.49099" lon="6.59174">
        <ele>2581</ele>
        <time>2021-04-07T08:40:33Z</time>
      </trkpt>
      <trkpt lat="44.49099" lon="6.59174">
        <ele>2581</ele>
        <time>2021-04-07T08:40:34Z</time>
      </trkpt>
      <trkpt lat="44.49099" lon="6.59173">
        <ele>2581</ele>
        <time>2021-04-07T08:40:35Z</time>
      </trkpt>
      <trkpt lat="44.49098" lon="6.59173">
        <ele>2581</ele>
        <time>2021-04-07T08:40:36Z</time>
      </trkpt>
      <trkpt lat="44.49098" lon="6.59172">
        <ele>2582</ele>
        <time>2021-04-07T08:40:37Z</time>
      </trkpt>
      <trkpt lat="44.49097" lon="6.59171">
        <ele>2582</ele>
        <time>2021-04-07T08:40:38Z</time>
      </trkpt>
      <trkpt lat="44.49097" lon="6.5917">
        <ele>2582</ele>
        <time>2021-04-07T08:40:39Z</time>
      </trkpt>
      <trkpt lat="44.49096" lon="6.5917">
        <ele>2582</ele>
        <time>2021-04-07T08:40:40Z</time>
      </trkpt>
      <trkpt lat="44.49096" lon="6.59169">
        <ele>2583</ele>
        <time>2021-04-07T08:40:41Z</time>
      </trkpt>
      <trkpt lat="44.49095" lon="6.59169">
        <ele>2583</ele>
        <time>2021-04-07T08:40:42Z</time>
      </trkpt>
      <trkpt lat="44.49094" lon="6.59169">
        <ele>2583</ele>
        <time>2021-04-07T08:40:43Z</time>
      </trkpt>
      <trkpt lat="44.49093" lon="6.59168">
        <ele>2584</ele>
        <time>2021-04-07T08:40:44Z</time>
      </trkpt>
      <trkpt lat="44.49093" lon="6.59168">
        <ele>2584</ele>
        <time>2021-04-07T08:40:45Z</time>
      </trkpt>
      <trkpt lat="44.49092" lon="6.59168">
        <ele>2584</ele>
        <time>2021-04-07T08:40:46Z</time>
      </trkpt>
      <trkpt lat="44.49091" lon="6.59168">
        <ele>2584</ele>
        <time>2021-04-07T08:40:47Z</time>
      </trkpt>
      <trkpt lat="44.49091" lon="6.59168">
        <ele>2584</ele>
        <time>2021-04-07T08:40:48Z</time>
      </trkpt>
      <trkpt lat="44.49091" lon="6.59169">
        <ele>2585</ele>
        <time>2021-04-07T08:40:49Z</time>
      </trkpt>
      <trkpt lat="44.4909" lon="6.59169">
        <ele>2585</ele>
        <time>2021-04-07T08:40:50Z</time>
      </trkpt>
      <trkpt lat="44.4909" lon="6.5917">
        <ele>2585</ele>
        <time>2021-04-07T08:40:51Z</time>
      </trkpt>
      <trkpt lat="44.49089" lon="6.5917">
        <ele>2585</ele>
        <time>2021-04-07T08:40:52Z</time>
      </trkpt>
      <trkpt lat="44.49089" lon="6.5917">
        <ele>2586</ele>
        <time>2021-04-07T08:40:53Z</time>
      </trkpt>
      <trkpt lat="44.49088" lon="6.59171">
        <ele>2586</ele>
        <time>2021-04-07T08:40:54Z</time>
      </trkpt>
      <trkpt lat="44.49088" lon="6.59171">
        <ele>2587</ele>
        <time>2021-04-07T08:40:55Z</time>
      </trkpt>
      <trkpt lat="44.49087" lon="6.59171">
        <ele>2587</ele>
        <time>2021-04-07T08:40:56Z</time>
      </trkpt>
      <trkpt lat="44.49087" lon="6.59171">
        <ele>2587</ele>
        <time>2021-04-07T08:40:57Z</time>
      </trkpt>
      <trkpt lat="44.49086" lon="6.59172">
        <ele>2588</ele>
        <time>2021-04-07T08:40:58Z</time>
      </trkpt>
      <trkpt lat="44.49085" lon="6.59172">
        <ele>2588</ele>
        <time>2021-04-07T08:40:59Z</time>
      </trkpt>
      <trkpt lat="44.49085" lon="6.59173">
        <ele>2589</ele>
        <time>2021-04-07T08:41:00Z</time>
      </trkpt>
      <trkpt lat="44.49084" lon="6.59173">
        <ele>2589</ele>
        <time>2021-04-07T08:41:01Z</time>
      </trkpt>
      <trkpt lat="44.49084" lon="6.59173">
        <ele>2589</ele>
        <time>2021-04-07T08:41:02Z</time>
      </trkpt>
      <trkpt lat="44.49083" lon="6.59174">
        <ele>2589</ele>
        <time>2021-04-07T08:41:03Z</time>
      </trkpt>
      <trkpt lat="44.49083" lon="6.59174">
        <ele>2589</ele>
        <time>2021-04-07T08:41:04Z</time>
      </trkpt>
      <trkpt lat="44.49082" lon="6.59174">
        <ele>2590</ele>
        <time>2021-04-07T08:41:05Z</time>
      </trkpt>
      <trkpt lat="44.49082" lon="6.59175">
        <ele>2590</ele>
        <time>2021-04-07T08:41:06Z</time>
      </trkpt>
      <trkpt lat="44.49081" lon="6.59175">
        <ele>2590</ele>
        <time>2021-04-07T08:41:07Z</time>
      </trkpt>
      <trkpt lat="44.49081" lon="6.59176">
        <ele>2591</ele>
        <time>2021-04-07T08:41:08Z</time>
      </trkpt>
      <trkpt lat="44.49081" lon="6.59176">
        <ele>2591</ele>
        <time>2021-04-07T08:41:09Z</time>
      </trkpt>
      <trkpt lat="44.4908" lon="6.59177">
        <ele>2591</ele>
        <time>2021-04-07T08:41:10Z</time>
      </trkpt>
      <trkpt lat="44.4908" lon="6.59177">
        <ele>2591</ele>
        <time>2021-04-07T08:41:11Z</time>
      </trkpt>
      <trkpt lat="44.49079" lon="6.59178">
        <ele>2591</ele>
        <time>2021-04-07T08:41:12Z</time>
      </trkpt>
      <trkpt lat="44.49079" lon="6.59179">
        <ele>2592</ele>
        <time>2021-04-07T08:41:13Z</time>
      </trkpt>
      <trkpt lat="44.49078" lon="6.59179">
        <ele>2592</ele>
        <time>2021-04-07T08:41:14Z</time>
      </trkpt>
      <trkpt lat="44.49077" lon="6.5918">
        <ele>2592</ele>
        <time>2021-04-07T08:41:15Z</time>
      </trkpt>
      <trkpt lat="44.49077" lon="6.5918">
        <ele>2592</ele>
        <time>2021-04-07T08:41:16Z</time>
      </trkpt>
      <trkpt lat="44.49076" lon="6.5918">
        <ele>2592</ele>
        <time>2021-04-07T08:41:17Z</time>
      </trkpt>
      <trkpt lat="44.49076" lon="6.59181">
        <ele>2592</ele>
        <time>2021-04-07T08:41:18Z</time>
      </trkpt>
      <trkpt lat="44.49075" lon="6.59181">
        <ele>2593</ele>
        <time>2021-04-07T08:41:19Z</time>
      </trkpt>
      <trkpt lat="44.49075" lon="6.59181">
        <ele>2593</ele>
        <time>2021-04-07T08:41:20Z</time>
      </trkpt>
      <trkpt lat="44.49075" lon="6.59181">
        <ele>2593</ele>
        <time>2021-04-07T08:41:21Z</time>
      </trkpt>
      <trkpt lat="44.49074" lon="6.59181">
        <ele>2593</ele>
        <time>2021-04-07T08:41:22Z</time>
      </trkpt>
      <trkpt lat="44.49074" lon="6.59181">
        <ele>2593</ele>
        <time>2021-04-07T08:41:23Z</time>
      </trkpt>
      <trkpt lat="44.49073" lon="6.59182">
        <ele>2594</ele>
        <time>2021-04-07T08:41:24Z</time>
      </trkpt>
      <trkpt lat="44.49073" lon="6.59182">
        <ele>2594</ele>
        <time>2021-04-07T08:41:25Z</time>
      </trkpt>
      <trkpt lat="44.49072" lon="6.59182">
        <ele>2594</ele>
        <time>2021-04-07T08:41:26Z</time>
      </trkpt>
      <trkpt lat="44.49072" lon="6.59182">
        <ele>2594</ele>
        <time>2021-04-07T08:41:27Z</time>
      </trkpt>
      <trkpt lat="44.49072" lon="6.59182">
        <ele>2594</ele>
        <time>2021-04-07T08:41:28Z</time>
      </trkpt>
      <trkpt lat="44.49071" lon="6.59182">
        <ele>2594</ele>
        <time>2021-04-07T08:41:29Z</time>
      </trkpt>
      <trkpt lat="44.49071" lon="6.59182">
        <ele>2595</ele>
        <time>2021-04-07T08:41:30Z</time>
      </trkpt>
      <trkpt lat="44.49071" lon="6.59181">
        <ele>2595</ele>
        <time>2021-04-07T08:41:31Z</time>
      </trkpt>
      <trkpt lat="44.49071" lon="6.5918">
        <ele>2595</ele>
        <time>2021-04-07T08:41:32Z</time>
      </trkpt>
      <trkpt lat="44.4907" lon="6.59181">
        <ele>2595</ele>
        <time>2021-04-07T08:41:33Z</time>
      </trkpt>
      <trkpt lat="44.4907" lon="6.59181">
        <ele>2596</ele>
        <time>2021-04-07T08:41:34Z</time>
      </trkpt>
      <trkpt lat="44.49069" lon="6.59182">
        <ele>2596</ele>
        <time>2021-04-07T08:41:35Z</time>
      </trkpt>
      <trkpt lat="44.49069" lon="6.59182">
        <ele>2596</ele>
        <time>2021-04-07T08:41:36Z</time>
      </trkpt>
      <trkpt lat="44.49069" lon="6.59182">
        <ele>2596</ele>
        <time>2021-04-07T08:41:37Z</time>
      </trkpt>
      <trkpt lat="44.49068" lon="6.59182">
        <ele>2596</ele>
        <time>2021-04-07T08:41:38Z</time>
      </trkpt>
      <trkpt lat="44.49067" lon="6.59182">
        <ele>2597</ele>
        <time>2021-04-07T08:41:39Z</time>
      </trkpt>
      <trkpt lat="44.49067" lon="6.59183">
        <ele>2597</ele>
        <time>2021-04-07T08:41:40Z</time>
      </trkpt>
      <trkpt lat="44.49066" lon="6.59183">
        <ele>2598</ele>
        <time>2021-04-07T08:41:41Z</time>
      </trkpt>
      <trkpt lat="44.49066" lon="6.59183">
        <ele>2598</ele>
        <time>2021-04-07T08:41:42Z</time>
      </trkpt>
      <trkpt lat="44.49065" lon="6.59183">
        <ele>2598</ele>
        <time>2021-04-07T08:41:43Z</time>
      </trkpt>
      <trkpt lat="44.49065" lon="6.59183">
        <ele>2598</ele>
        <time>2021-04-07T08:41:44Z</time>
      </trkpt>
      <trkpt lat="44.49064" lon="6.59183">
        <ele>2599</ele>
        <time>2021-04-07T08:41:45Z</time>
      </trkpt>
      <trkpt lat="44.49064" lon="6.59184">
        <ele>2599</ele>
        <time>2021-04-07T08:41:46Z</time>
      </trkpt>
      <trkpt lat="44.49063" lon="6.59184">
        <ele>2599</ele>
        <time>2021-04-07T08:41:47Z</time>
      </trkpt>
      <trkpt lat="44.49062" lon="6.59184">
        <ele>2599</ele>
        <time>2021-04-07T08:41:48Z</time>
      </trkpt>
      <trkpt lat="44.49062" lon="6.59184">
        <ele>2599</ele>
        <time>2021-04-07T08:41:49Z</time>
      </trkpt>
      <trkpt lat="44.49061" lon="6.59184">
        <ele>2599</ele>
        <time>2021-04-07T08:41:50Z</time>
      </trkpt>
      <trkpt lat="44.49061" lon="6.59184">
        <ele>2600</ele>
        <time>2021-04-07T08:41:51Z</time>
      </trkpt>
      <trkpt lat="44.4906" lon="6.59184">
        <ele>2600</ele>
        <time>2021-04-07T08:41:52Z</time>
      </trkpt>
      <trkpt lat="44.4906" lon="6.59184">
        <ele>2600</ele>
        <time>2021-04-07T08:41:53Z</time>
      </trkpt>
      <trkpt lat="44.49061" lon="6.59184">
        <ele>2600</ele>
        <time>2021-04-07T08:41:54Z</time>
      </trkpt>
      <trkpt lat="44.49061" lon="6.59184">
        <ele>2600</ele>
        <time>2021-04-07T08:41:55Z</time>
      </trkpt>
      <trkpt lat="44.4906" lon="6.59185">
        <ele>2600</ele>
        <time>2021-04-07T08:41:56Z</time>
      </trkpt>
      <trkpt lat="44.4906" lon="6.59185">
        <ele>2600</ele>
        <time>2021-04-07T08:41:57Z</time>
      </trkpt>
      <trkpt lat="44.4906" lon="6.59185">
        <ele>2600</ele>
        <time>2021-04-07T08:41:58Z</time>
      </trkpt>
      <trkpt lat="44.49059" lon="6.59186">
        <ele>2600</ele>
        <time>2021-04-07T08:41:59Z</time>
      </trkpt>
      <trkpt lat="44.49059" lon="6.59186">
        <ele>2600</ele>
        <time>2021-04-07T08:42:00Z</time>
      </trkpt>
      <trkpt lat="44.49058" lon="6.59186">
        <ele>2600</ele>
        <time>2021-04-07T08:42:01Z</time>
      </trkpt>
      <trkpt lat="44.49058" lon="6.59186">
        <ele>2600</ele>
        <time>2021-04-07T08:42:02Z</time>
      </trkpt>
      <trkpt lat="44.49057" lon="6.59186">
        <ele>2601</ele>
        <time>2021-04-07T08:42:03Z</time>
      </trkpt>
      <trkpt lat="44.49057" lon="6.59185">
        <ele>2601</ele>
        <time>2021-04-07T08:42:04Z</time>
      </trkpt>
      <trkpt lat="44.49056" lon="6.59185">
        <ele>2601</ele>
        <time>2021-04-07T08:42:05Z</time>
      </trkpt>
      <trkpt lat="44.49056" lon="6.59184">
        <ele>2601</ele>
        <time>2021-04-07T08:42:06Z</time>
      </trkpt>
      <trkpt lat="44.49056" lon="6.59183">
        <ele>2601</ele>
        <time>2021-04-07T08:42:07Z</time>
      </trkpt>
      <trkpt lat="44.49056" lon="6.59182">
        <ele>2602</ele>
        <time>2021-04-07T08:42:08Z</time>
      </trkpt>
      <trkpt lat="44.49055" lon="6.59182">
        <ele>2602</ele>
        <time>2021-04-07T08:42:09Z</time>
      </trkpt>
      <trkpt lat="44.49055" lon="6.59182">
        <ele>2602</ele>
        <time>2021-04-07T08:42:10Z</time>
      </trkpt>
      <trkpt lat="44.49054" lon="6.59182">
        <ele>2602</ele>
        <time>2021-04-07T08:42:11Z</time>
      </trkpt>
      <trkpt lat="44.49053" lon="6.59182">
        <ele>2603</ele>
        <time>2021-04-07T08:42:12Z</time>
      </trkpt>
      <trkpt lat="44.49053" lon="6.59182">
        <ele>2603</ele>
        <time>2021-04-07T08:42:13Z</time>
      </trkpt>
      <trkpt lat="44.49052" lon="6.59182">
        <ele>2603</ele>
        <time>2021-04-07T08:42:14Z</time>
      </trkpt>
      <trkpt lat="44.49052" lon="6.59182">
        <ele>2603</ele>
        <time>2021-04-07T08:42:15Z</time>
      </trkpt>
      <trkpt lat="44.49051" lon="6.59182">
        <ele>2603</ele>
        <time>2021-04-07T08:42:16Z</time>
      </trkpt>
      <trkpt lat="44.49051" lon="6.59182">
        <ele>2603</ele>
        <time>2021-04-07T08:42:17Z</time>
      </trkpt>
      <trkpt lat="44.49051" lon="6.59181">
        <ele>2603</ele>
        <time>2021-04-07T08:42:18Z</time>
      </trkpt>
      <trkpt lat="44.4905" lon="6.59181">
        <ele>2603</ele>
        <time>2021-04-07T08:42:19Z</time>
      </trkpt>
      <trkpt lat="44.4905" lon="6.5918">
        <ele>2603</ele>
        <time>2021-04-07T08:42:20Z</time>
      </trkpt>
      <trkpt lat="44.49049" lon="6.5918">
        <ele>2604</ele>
        <time>2021-04-07T08:42:21Z</time>
      </trkpt>
      <trkpt lat="44.49049" lon="6.59179">
        <ele>2604</ele>
        <time>2021-04-07T08:42:22Z</time>
      </trkpt>
      <trkpt lat="44.49048" lon="6.59179">
        <ele>2604</ele>
        <time>2021-04-07T08:42:23Z</time>
      </trkpt>
      <trkpt lat="44.49047" lon="6.59178">
        <ele>2604</ele>
        <time>2021-04-07T08:42:24Z</time>
      </trkpt>
      <trkpt lat="44.49047" lon="6.59178">
        <ele>2604</ele>
        <time>2021-04-07T08:42:25Z</time>
      </trkpt>
      <trkpt lat="44.49046" lon="6.59177">
        <ele>2604</ele>
        <time>2021-04-07T08:42:26Z</time>
      </trkpt>
      <trkpt lat="44.49046" lon="6.59177">
        <ele>2604</ele>
        <time>2021-04-07T08:42:27Z</time>
      </trkpt>
      <trkpt lat="44.49046" lon="6.59176">
        <ele>2604</ele>
        <time>2021-04-07T08:42:28Z</time>
      </trkpt>
      <trkpt lat="44.49045" lon="6.59176">
        <ele>2605</ele>
        <time>2021-04-07T08:42:29Z</time>
      </trkpt>
      <trkpt lat="44.49044" lon="6.59175">
        <ele>2605</ele>
        <time>2021-04-07T08:42:30Z</time>
      </trkpt>
      <trkpt lat="44.49044" lon="6.59174">
        <ele>2605</ele>
        <time>2021-04-07T08:42:31Z</time>
      </trkpt>
      <trkpt lat="44.49043" lon="6.59174">
        <ele>2605</ele>
        <time>2021-04-07T08:42:32Z</time>
      </trkpt>
      <trkpt lat="44.49043" lon="6.59174">
        <ele>2605</ele>
        <time>2021-04-07T08:42:33Z</time>
      </trkpt>
      <trkpt lat="44.49043" lon="6.59173">
        <ele>2606</ele>
        <time>2021-04-07T08:42:34Z</time>
      </trkpt>
      <trkpt lat="44.49042" lon="6.59173">
        <ele>2606</ele>
        <time>2021-04-07T08:42:35Z</time>
      </trkpt>
      <trkpt lat="44.49042" lon="6.59172">
        <ele>2606</ele>
        <time>2021-04-07T08:42:36Z</time>
      </trkpt>
      <trkpt lat="44.49041" lon="6.59172">
        <ele>2607</ele>
        <time>2021-04-07T08:42:37Z</time>
      </trkpt>
      <trkpt lat="44.4904" lon="6.59171">
        <ele>2607</ele>
        <time>2021-04-07T08:42:38Z</time>
      </trkpt>
      <trkpt lat="44.4904" lon="6.59171">
        <ele>2607</ele>
        <time>2021-04-07T08:42:39Z</time>
      </trkpt>
      <trkpt lat="44.49039" lon="6.59171">
        <ele>2607</ele>
        <time>2021-04-07T08:42:40Z</time>
      </trkpt>
      <trkpt lat="44.49039" lon="6.59171">
        <ele>2607</ele>
        <time>2021-04-07T08:42:41Z</time>
      </trkpt>
      <trkpt lat="44.49038" lon="6.59171">
        <ele>2607</ele>
        <time>2021-04-07T08:42:42Z</time>
      </trkpt>
      <trkpt lat="44.49038" lon="6.59171">
        <ele>2607</ele>
        <time>2021-04-07T08:42:43Z</time>
      </trkpt>
      <trkpt lat="44.49038" lon="6.5917">
        <ele>2607</ele>
        <time>2021-04-07T08:42:44Z</time>
      </trkpt>
      <trkpt lat="44.49037" lon="6.59169">
        <ele>2607</ele>
        <time>2021-04-07T08:42:45Z</time>
      </trkpt>
      <trkpt lat="44.49037" lon="6.59169">
        <ele>2607</ele>
        <time>2021-04-07T08:42:46Z</time>
      </trkpt>
      <trkpt lat="44.49037" lon="6.59168">
        <ele>2607</ele>
        <time>2021-04-07T08:42:47Z</time>
      </trkpt>
      <trkpt lat="44.49036" lon="6.59168">
        <ele>2607</ele>
        <time>2021-04-07T08:42:48Z</time>
      </trkpt>
      <trkpt lat="44.49036" lon="6.59167">
        <ele>2607</ele>
        <time>2021-04-07T08:42:49Z</time>
      </trkpt>
      <trkpt lat="44.49036" lon="6.59166">
        <ele>2607</ele>
        <time>2021-04-07T08:42:50Z</time>
      </trkpt>
      <trkpt lat="44.49035" lon="6.59165">
        <ele>2607</ele>
        <time>2021-04-07T08:42:51Z</time>
      </trkpt>
      <trkpt lat="44.49035" lon="6.59164">
        <ele>2607</ele>
        <time>2021-04-07T08:42:52Z</time>
      </trkpt>
      <trkpt lat="44.49035" lon="6.59164">
        <ele>2607</ele>
        <time>2021-04-07T08:42:53Z</time>
      </trkpt>
      <trkpt lat="44.49035" lon="6.59163">
        <ele>2607</ele>
        <time>2021-04-07T08:42:54Z</time>
      </trkpt>
      <trkpt lat="44.49034" lon="6.59163">
        <ele>2607</ele>
        <time>2021-04-07T08:42:55Z</time>
      </trkpt>
      <trkpt lat="44.49034" lon="6.59163">
        <ele>2607</ele>
        <time>2021-04-07T08:42:56Z</time>
      </trkpt>
      <trkpt lat="44.49034" lon="6.59162">
        <ele>2607</ele>
        <time>2021-04-07T08:42:57Z</time>
      </trkpt>
      <trkpt lat="44.49034" lon="6.59162">
        <ele>2607</ele>
        <time>2021-04-07T08:42:58Z</time>
      </trkpt>
      <trkpt lat="44.49034" lon="6.59161">
        <ele>2607</ele>
        <time>2021-04-07T08:42:59Z</time>
      </trkpt>
      <trkpt lat="44.49034" lon="6.59161">
        <ele>2607</ele>
        <time>2021-04-07T08:43:00Z</time>
      </trkpt>
      <trkpt lat="44.49034" lon="6.5916">
        <ele>2607</ele>
        <time>2021-04-07T08:43:01Z</time>
      </trkpt>
      <trkpt lat="44.49033" lon="6.59159">
        <ele>2608</ele>
        <time>2021-04-07T08:43:02Z</time>
      </trkpt>
      <trkpt lat="44.49033" lon="6.59158">
        <ele>2608</ele>
        <time>2021-04-07T08:43:03Z</time>
      </trkpt>
      <trkpt lat="44.49033" lon="6.59157">
        <ele>2608</ele>
        <time>2021-04-07T08:43:04Z</time>
      </trkpt>
      <trkpt lat="44.49032" lon="6.59156">
        <ele>2608</ele>
        <time>2021-04-07T08:43:05Z</time>
      </trkpt>
      <trkpt lat="44.49032" lon="6.59155">
        <ele>2608</ele>
        <time>2021-04-07T08:43:06Z</time>
      </trkpt>
      <trkpt lat="44.49032" lon="6.59154">
        <ele>2608</ele>
        <time>2021-04-07T08:43:07Z</time>
      </trkpt>
      <trkpt lat="44.49032" lon="6.59153">
        <ele>2608</ele>
        <time>2021-04-07T08:43:08Z</time>
      </trkpt>
      <trkpt lat="44.49031" lon="6.59153">
        <ele>2608</ele>
        <time>2021-04-07T08:43:09Z</time>
      </trkpt>
      <trkpt lat="44.49031" lon="6.59152">
        <ele>2608</ele>
        <time>2021-04-07T08:43:10Z</time>
      </trkpt>
      <trkpt lat="44.49031" lon="6.59152">
        <ele>2608</ele>
        <time>2021-04-07T08:43:11Z</time>
      </trkpt>
      <trkpt lat="44.4903" lon="6.59151">
        <ele>2608</ele>
        <time>2021-04-07T08:43:12Z</time>
      </trkpt>
      <trkpt lat="44.4903" lon="6.59151">
        <ele>2608</ele>
        <time>2021-04-07T08:43:13Z</time>
      </trkpt>
      <trkpt lat="44.4903" lon="6.5915">
        <ele>2608</ele>
        <time>2021-04-07T08:43:14Z</time>
      </trkpt>
      <trkpt lat="44.4903" lon="6.5915">
        <ele>2608</ele>
        <time>2021-04-07T08:43:15Z</time>
      </trkpt>
      <trkpt lat="44.4903" lon="6.59149">
        <ele>2608</ele>
        <time>2021-04-07T08:43:16Z</time>
      </trkpt>
      <trkpt lat="44.4903" lon="6.59149">
        <ele>2608</ele>
        <time>2021-04-07T08:43:17Z</time>
      </trkpt>
      <trkpt lat="44.49029" lon="6.59149">
        <ele>2608</ele>
        <time>2021-04-07T08:43:18Z</time>
      </trkpt>
      <trkpt lat="44.49029" lon="6.59148">
        <ele>2608</ele>
        <time>2021-04-07T08:43:19Z</time>
      </trkpt>
      <trkpt lat="44.49029" lon="6.59147">
        <ele>2608</ele>
        <time>2021-04-07T08:43:20Z</time>
      </trkpt>
      <trkpt lat="44.49029" lon="6.59146">
        <ele>2608</ele>
        <time>2021-04-07T08:43:21Z</time>
      </trkpt>
      <trkpt lat="44.49029" lon="6.59145">
        <ele>2609</ele>
        <time>2021-04-07T08:43:22Z</time>
      </trkpt>
      <trkpt lat="44.49028" lon="6.59144">
        <ele>2609</ele>
        <time>2021-04-07T08:43:23Z</time>
      </trkpt>
      <trkpt lat="44.49028" lon="6.59143">
        <ele>2609</ele>
        <time>2021-04-07T08:43:24Z</time>
      </trkpt>
      <trkpt lat="44.49028" lon="6.59142">
        <ele>2609</ele>
        <time>2021-04-07T08:43:25Z</time>
      </trkpt>
      <trkpt lat="44.49028" lon="6.59141">
        <ele>2609</ele>
        <time>2021-04-07T08:43:26Z</time>
      </trkpt>
      <trkpt lat="44.49028" lon="6.5914">
        <ele>2609</ele>
        <time>2021-04-07T08:43:27Z</time>
      </trkpt>
      <trkpt lat="44.49028" lon="6.59139">
        <ele>2609</ele>
        <time>2021-04-07T08:43:28Z</time>
      </trkpt>
      <trkpt lat="44.49027" lon="6.59137">
        <ele>2609</ele>
        <time>2021-04-07T08:43:29Z</time>
      </trkpt>
      <trkpt lat="44.49027" lon="6.59137">
        <ele>2609</ele>
        <time>2021-04-07T08:43:30Z</time>
      </trkpt>
      <trkpt lat="44.49027" lon="6.59136">
        <ele>2609</ele>
        <time>2021-04-07T08:43:31Z</time>
      </trkpt>
      <trkpt lat="44.49027" lon="6.59136">
        <ele>2610</ele>
        <time>2021-04-07T08:43:32Z</time>
      </trkpt>
      <trkpt lat="44.49027" lon="6.59135">
        <ele>2610</ele>
        <time>2021-04-07T08:43:33Z</time>
      </trkpt>
      <trkpt lat="44.49026" lon="6.59135">
        <ele>2610</ele>
        <time>2021-04-07T08:43:34Z</time>
      </trkpt>
      <trkpt lat="44.49026" lon="6.59135">
        <ele>2610</ele>
        <time>2021-04-07T08:43:35Z</time>
      </trkpt>
      <trkpt lat="44.49026" lon="6.59135">
        <ele>2610</ele>
        <time>2021-04-07T08:43:36Z</time>
      </trkpt>
      <trkpt lat="44.49025" lon="6.59135">
        <ele>2611</ele>
        <time>2021-04-07T08:43:37Z</time>
      </trkpt>
      <trkpt lat="44.49025" lon="6.59134">
        <ele>2611</ele>
        <time>2021-04-07T08:43:38Z</time>
      </trkpt>
      <trkpt lat="44.49025" lon="6.59134">
        <ele>2611</ele>
        <time>2021-04-07T08:43:39Z</time>
      </trkpt>
      <trkpt lat="44.49024" lon="6.59133">
        <ele>2611</ele>
        <time>2021-04-07T08:43:40Z</time>
      </trkpt>
      <trkpt lat="44.49024" lon="6.59132">
        <ele>2611</ele>
        <time>2021-04-07T08:43:41Z</time>
      </trkpt>
      <trkpt lat="44.49024" lon="6.59132">
        <ele>2612</ele>
        <time>2021-04-07T08:43:42Z</time>
      </trkpt>
      <trkpt lat="44.49024" lon="6.59131">
        <ele>2612</ele>
        <time>2021-04-07T08:43:43Z</time>
      </trkpt>
      <trkpt lat="44.49024" lon="6.5913">
        <ele>2613</ele>
        <time>2021-04-07T08:43:44Z</time>
      </trkpt>
      <trkpt lat="44.49024" lon="6.59129">
        <ele>2613</ele>
        <time>2021-04-07T08:43:45Z</time>
      </trkpt>
      <trkpt lat="44.49024" lon="6.59129">
        <ele>2613</ele>
        <time>2021-04-07T08:43:46Z</time>
      </trkpt>
      <trkpt lat="44.49024" lon="6.59128">
        <ele>2613</ele>
        <time>2021-04-07T08:43:47Z</time>
      </trkpt>
      <trkpt lat="44.49024" lon="6.59128">
        <ele>2613</ele>
        <time>2021-04-07T08:43:48Z</time>
      </trkpt>
      <trkpt lat="44.49024" lon="6.59127">
        <ele>2614</ele>
        <time>2021-04-07T08:43:49Z</time>
      </trkpt>
      <trkpt lat="44.49024" lon="6.59126">
        <ele>2614</ele>
        <time>2021-04-07T08:43:50Z</time>
      </trkpt>
      <trkpt lat="44.49024" lon="6.59125">
        <ele>2614</ele>
        <time>2021-04-07T08:43:51Z</time>
      </trkpt>
      <trkpt lat="44.49023" lon="6.59124">
        <ele>2614</ele>
        <time>2021-04-07T08:43:52Z</time>
      </trkpt>
      <trkpt lat="44.49023" lon="6.59124">
        <ele>2614</ele>
        <time>2021-04-07T08:43:53Z</time>
      </trkpt>
      <trkpt lat="44.49023" lon="6.59123">
        <ele>2615</ele>
        <time>2021-04-07T08:43:54Z</time>
      </trkpt>
      <trkpt lat="44.49023" lon="6.59122">
        <ele>2615</ele>
        <time>2021-04-07T08:43:55Z</time>
      </trkpt>
      <trkpt lat="44.49023" lon="6.59122">
        <ele>2615</ele>
        <time>2021-04-07T08:43:56Z</time>
      </trkpt>
      <trkpt lat="44.49022" lon="6.59121">
        <ele>2615</ele>
        <time>2021-04-07T08:43:57Z</time>
      </trkpt>
      <trkpt lat="44.49022" lon="6.59121">
        <ele>2615</ele>
        <time>2021-04-07T08:43:58Z</time>
      </trkpt>
      <trkpt lat="44.49022" lon="6.5912">
        <ele>2615</ele>
        <time>2021-04-07T08:43:59Z</time>
      </trkpt>
      <trkpt lat="44.49021" lon="6.5912">
        <ele>2615</ele>
        <time>2021-04-07T08:44:00Z</time>
      </trkpt>
      <trkpt lat="44.49021" lon="6.59119">
        <ele>2616</ele>
        <time>2021-04-07T08:44:01Z</time>
      </trkpt>
      <trkpt lat="44.4902" lon="6.59119">
        <ele>2616</ele>
        <time>2021-04-07T08:44:02Z</time>
      </trkpt>
      <trkpt lat="44.49019" lon="6.59119">
        <ele>2616</ele>
        <time>2021-04-07T08:44:03Z</time>
      </trkpt>
      <trkpt lat="44.49019" lon="6.59118">
        <ele>2616</ele>
        <time>2021-04-07T08:44:04Z</time>
      </trkpt>
      <trkpt lat="44.49018" lon="6.59118">
        <ele>2616</ele>
        <time>2021-04-07T08:44:05Z</time>
      </trkpt>
      <trkpt lat="44.49018" lon="6.59118">
        <ele>2617</ele>
        <time>2021-04-07T08:44:06Z</time>
      </trkpt>
      <trkpt lat="44.49017" lon="6.59117">
        <ele>2617</ele>
        <time>2021-04-07T08:44:07Z</time>
      </trkpt>
      <trkpt lat="44.49016" lon="6.59117">
        <ele>2617</ele>
        <time>2021-04-07T08:44:08Z</time>
      </trkpt>
      <trkpt lat="44.49016" lon="6.59117">
        <ele>2617</ele>
        <time>2021-04-07T08:44:09Z</time>
      </trkpt>
      <trkpt lat="44.49015" lon="6.59117">
        <ele>2618</ele>
        <time>2021-04-07T08:44:10Z</time>
      </trkpt>
      <trkpt lat="44.49014" lon="6.59116">
        <ele>2618</ele>
        <time>2021-04-07T08:44:11Z</time>
      </trkpt>
      <trkpt lat="44.49014" lon="6.59116">
        <ele>2618</ele>
        <time>2021-04-07T08:44:12Z</time>
      </trkpt>
      <trkpt lat="44.49013" lon="6.59116">
        <ele>2618</ele>
        <time>2021-04-07T08:44:13Z</time>
      </trkpt>
      <trkpt lat="44.49013" lon="6.59116">
        <ele>2619</ele>
        <time>2021-04-07T08:44:14Z</time>
      </trkpt>
      <trkpt lat="44.49013" lon="6.59116">
        <ele>2619</ele>
        <time>2021-04-07T08:44:15Z</time>
      </trkpt>
      <trkpt lat="44.49013" lon="6.59116">
        <ele>2619</ele>
        <time>2021-04-07T08:44:16Z</time>
      </trkpt>
      <trkpt lat="44.49013" lon="6.59115">
        <ele>2619</ele>
        <time>2021-04-07T08:44:17Z</time>
      </trkpt>
      <trkpt lat="44.49012" lon="6.59114">
        <ele>2620</ele>
        <time>2021-04-07T08:44:18Z</time>
      </trkpt>
      <trkpt lat="44.49012" lon="6.59114">
        <ele>2620</ele>
        <time>2021-04-07T08:44:19Z</time>
      </trkpt>
      <trkpt lat="44.49011" lon="6.59113">
        <ele>2620</ele>
        <time>2021-04-07T08:44:20Z</time>
      </trkpt>
      <trkpt lat="44.49011" lon="6.59113">
        <ele>2621</ele>
        <time>2021-04-07T08:44:21Z</time>
      </trkpt>
      <trkpt lat="44.49011" lon="6.59113">
        <ele>2621</ele>
        <time>2021-04-07T08:44:22Z</time>
      </trkpt>
      <trkpt lat="44.49011" lon="6.59112">
        <ele>2621</ele>
        <time>2021-04-07T08:44:23Z</time>
      </trkpt>
      <trkpt lat="44.4901" lon="6.59111">
        <ele>2622</ele>
        <time>2021-04-07T08:44:24Z</time>
      </trkpt>
      <trkpt lat="44.4901" lon="6.59111">
        <ele>2622</ele>
        <time>2021-04-07T08:44:25Z</time>
      </trkpt>
      <trkpt lat="44.4901" lon="6.59111">
        <ele>2622</ele>
        <time>2021-04-07T08:44:26Z</time>
      </trkpt>
      <trkpt lat="44.4901" lon="6.5911">
        <ele>2622</ele>
        <time>2021-04-07T08:44:27Z</time>
      </trkpt>
      <trkpt lat="44.49009" lon="6.59109">
        <ele>2622</ele>
        <time>2021-04-07T08:44:28Z</time>
      </trkpt>
      <trkpt lat="44.49009" lon="6.59109">
        <ele>2622</ele>
        <time>2021-04-07T08:44:29Z</time>
      </trkpt>
      <trkpt lat="44.49008" lon="6.5911">
        <ele>2622</ele>
        <time>2021-04-07T08:44:30Z</time>
      </trkpt>
      <trkpt lat="44.49008" lon="6.5911">
        <ele>2622</ele>
        <time>2021-04-07T08:44:31Z</time>
      </trkpt>
      <trkpt lat="44.49007" lon="6.5911">
        <ele>2623</ele>
        <time>2021-04-07T08:44:32Z</time>
      </trkpt>
      <trkpt lat="44.49007" lon="6.59111">
        <ele>2623</ele>
        <time>2021-04-07T08:44:33Z</time>
      </trkpt>
      <trkpt lat="44.49006" lon="6.59111">
        <ele>2623</ele>
        <time>2021-04-07T08:44:34Z</time>
      </trkpt>
      <trkpt lat="44.49005" lon="6.59112">
        <ele>2623</ele>
        <time>2021-04-07T08:44:35Z</time>
      </trkpt>
      <trkpt lat="44.49005" lon="6.59112">
        <ele>2623</ele>
        <time>2021-04-07T08:44:36Z</time>
      </trkpt>
      <trkpt lat="44.49004" lon="6.59112">
        <ele>2624</ele>
        <time>2021-04-07T08:44:37Z</time>
      </trkpt>
      <trkpt lat="44.49004" lon="6.59113">
        <ele>2624</ele>
        <time>2021-04-07T08:44:38Z</time>
      </trkpt>
      <trkpt lat="44.49003" lon="6.59113">
        <ele>2624</ele>
        <time>2021-04-07T08:44:39Z</time>
      </trkpt>
      <trkpt lat="44.49002" lon="6.59113">
        <ele>2624</ele>
        <time>2021-04-07T08:44:40Z</time>
      </trkpt>
      <trkpt lat="44.49002" lon="6.59114">
        <ele>2624</ele>
        <time>2021-04-07T08:44:41Z</time>
      </trkpt>
      <trkpt lat="44.49001" lon="6.59114">
        <ele>2625</ele>
        <time>2021-04-07T08:44:42Z</time>
      </trkpt>
      <trkpt lat="44.49001" lon="6.59115">
        <ele>2625</ele>
        <time>2021-04-07T08:44:43Z</time>
      </trkpt>
      <trkpt lat="44.49001" lon="6.59115">
        <ele>2625</ele>
        <time>2021-04-07T08:44:44Z</time>
      </trkpt>
      <trkpt lat="44.49001" lon="6.59115">
        <ele>2625</ele>
        <time>2021-04-07T08:44:45Z</time>
      </trkpt>
      <trkpt lat="44.49001" lon="6.59115">
        <ele>2625</ele>
        <time>2021-04-07T08:44:46Z</time>
      </trkpt>
      <trkpt lat="44.49001" lon="6.59116">
        <ele>2625</ele>
        <time>2021-04-07T08:44:47Z</time>
      </trkpt>
      <trkpt lat="44.49" lon="6.59116">
        <ele>2625</ele>
        <time>2021-04-07T08:44:48Z</time>
      </trkpt>
      <trkpt lat="44.49" lon="6.59116">
        <ele>2625</ele>
        <time>2021-04-07T08:44:49Z</time>
      </trkpt>
      <trkpt lat="44.49" lon="6.59117">
        <ele>2625</ele>
        <time>2021-04-07T08:44:50Z</time>
      </trkpt>
      <trkpt lat="44.49" lon="6.59117">
        <ele>2625</ele>
        <time>2021-04-07T08:44:51Z</time>
      </trkpt>
      <trkpt lat="44.48999" lon="6.59117">
        <ele>2625</ele>
        <time>2021-04-07T08:44:52Z</time>
      </trkpt>
      <trkpt lat="44.48998" lon="6.59118">
        <ele>2626</ele>
        <time>2021-04-07T08:44:53Z</time>
      </trkpt>
      <trkpt lat="44.48998" lon="6.59118">
        <ele>2626</ele>
        <time>2021-04-07T08:44:54Z</time>
      </trkpt>
      <trkpt lat="44.48997" lon="6.59119">
        <ele>2626</ele>
        <time>2021-04-07T08:44:55Z</time>
      </trkpt>
      <trkpt lat="44.48998" lon="6.59119">
        <ele>2626</ele>
        <time>2021-04-07T08:44:56Z</time>
      </trkpt>
      <trkpt lat="44.48998" lon="6.59119">
        <ele>2626</ele>
        <time>2021-04-07T08:44:57Z</time>
      </trkpt>
      <trkpt lat="44.48998" lon="6.59119">
        <ele>2626</ele>
        <time>2021-04-07T08:44:58Z</time>
      </trkpt>
      <trkpt lat="44.48997" lon="6.5912">
        <ele>2626</ele>
        <time>2021-04-07T08:44:59Z</time>
      </trkpt>
      <trkpt lat="44.48997" lon="6.5912">
        <ele>2626</ele>
        <time>2021-04-07T08:45:00Z</time>
      </trkpt>
      <trkpt lat="44.48997" lon="6.5912">
        <ele>2626</ele>
        <time>2021-04-07T08:45:01Z</time>
      </trkpt>
      <trkpt lat="44.48996" lon="6.59121">
        <ele>2626</ele>
        <time>2021-04-07T08:45:02Z</time>
      </trkpt>
      <trkpt lat="44.48996" lon="6.59122">
        <ele>2626</ele>
        <time>2021-04-07T08:45:03Z</time>
      </trkpt>
      <trkpt lat="44.48995" lon="6.59122">
        <ele>2626</ele>
        <time>2021-04-07T08:45:04Z</time>
      </trkpt>
      <trkpt lat="44.48995" lon="6.59123">
        <ele>2626</ele>
        <time>2021-04-07T08:45:05Z</time>
      </trkpt>
      <trkpt lat="44.48995" lon="6.59124">
        <ele>2626</ele>
        <time>2021-04-07T08:45:06Z</time>
      </trkpt>
      <trkpt lat="44.48995" lon="6.59125">
        <ele>2626</ele>
        <time>2021-04-07T08:45:07Z</time>
      </trkpt>
      <trkpt lat="44.48994" lon="6.59126">
        <ele>2627</ele>
        <time>2021-04-07T08:45:08Z</time>
      </trkpt>
      <trkpt lat="44.48994" lon="6.59126">
        <ele>2627</ele>
        <time>2021-04-07T08:45:09Z</time>
      </trkpt>
      <trkpt lat="44.48994" lon="6.59127">
        <ele>2627</ele>
        <time>2021-04-07T08:45:10Z</time>
      </trkpt>
      <trkpt lat="44.48993" lon="6.59127">
        <ele>2627</ele>
        <time>2021-04-07T08:45:11Z</time>
      </trkpt>
      <trkpt lat="44.48993" lon="6.59128">
        <ele>2627</ele>
        <time>2021-04-07T08:45:12Z</time>
      </trkpt>
      <trkpt lat="44.48993" lon="6.59128">
        <ele>2627</ele>
        <time>2021-04-07T08:45:13Z</time>
      </trkpt>
      <trkpt lat="44.48993" lon="6.59128">
        <ele>2627</ele>
        <time>2021-04-07T08:45:14Z</time>
      </trkpt>
      <trkpt lat="44.48993" lon="6.59128">
        <ele>2627</ele>
        <time>2021-04-07T08:45:15Z</time>
      </trkpt>
      <trkpt lat="44.48993" lon="6.59129">
        <ele>2627</ele>
        <time>2021-04-07T08:45:16Z</time>
      </trkpt>
      <trkpt lat="44.48993" lon="6.59129">
        <ele>2628</ele>
        <time>2021-04-07T08:45:17Z</time>
      </trkpt>
      <trkpt lat="44.48993" lon="6.5913">
        <ele>2628</ele>
        <time>2021-04-07T08:45:18Z</time>
      </trkpt>
      <trkpt lat="44.48993" lon="6.5913">
        <ele>2628</ele>
        <time>2021-04-07T08:45:19Z</time>
      </trkpt>
      <trkpt lat="44.48993" lon="6.59131">
        <ele>2629</ele>
        <time>2021-04-07T08:45:20Z</time>
      </trkpt>
      <trkpt lat="44.48992" lon="6.59131">
        <ele>2629</ele>
        <time>2021-04-07T08:45:21Z</time>
      </trkpt>
      <trkpt lat="44.48992" lon="6.59132">
        <ele>2629</ele>
        <time>2021-04-07T08:45:22Z</time>
      </trkpt>
      <trkpt lat="44.48992" lon="6.59132">
        <ele>2629</ele>
        <time>2021-04-07T08:45:23Z</time>
      </trkpt>
      <trkpt lat="44.48992" lon="6.59132">
        <ele>2629</ele>
        <time>2021-04-07T08:45:24Z</time>
      </trkpt>
      <trkpt lat="44.48992" lon="6.59132">
        <ele>2629</ele>
        <time>2021-04-07T08:45:25Z</time>
      </trkpt>
      <trkpt lat="44.48992" lon="6.59132">
        <ele>2629</ele>
        <time>2021-04-07T08:45:26Z</time>
      </trkpt>
      <trkpt lat="44.48992" lon="6.59132">
        <ele>2629</ele>
        <time>2021-04-07T08:45:27Z</time>
      </trkpt>
      <trkpt lat="44.48992" lon="6.59132">
        <ele>2629</ele>
        <time>2021-04-07T08:45:28Z</time>
      </trkpt>
      <trkpt lat="44.48992" lon="6.59132">
        <ele>2629</ele>
        <time>2021-04-07T08:45:29Z</time>
      </trkpt>
      <trkpt lat="44.48992" lon="6.59132">
        <ele>2629</ele>
        <time>2021-04-07T08:45:30Z</time>
      </trkpt>
      <trkpt lat="44.48992" lon="6.59132">
        <ele>2629</ele>
        <time>2021-04-07T08:45:31Z</time>
      </trkpt>
      <trkpt lat="44.48992" lon="6.59132">
        <ele>2629</ele>
        <time>2021-04-07T08:45:32Z</time>
      </trkpt>
      <trkpt lat="44.48992" lon="6.59132">
        <ele>2629</ele>
        <time>2021-04-07T08:45:33Z</time>
      </trkpt>
      <trkpt lat="44.48992" lon="6.59132">
        <ele>2629</ele>
        <time>2021-04-07T08:45:34Z</time>
      </trkpt>
      <trkpt lat="44.48992" lon="6.59132">
        <ele>2629</ele>
        <time>2021-04-07T08:45:35Z</time>
      </trkpt>
      <trkpt lat="44.48992" lon="6.59132">
        <ele>2629</ele>
        <time>2021-04-07T08:45:36Z</time>
      </trkpt>
      <trkpt lat="44.48992" lon="6.59132">
        <ele>2629</ele>
        <time>2021-04-07T08:45:37Z</time>
      </trkpt>
      <trkpt lat="44.48986" lon="6.59139">
        <ele>2631</ele>
        <time>2021-04-07T08:45:38Z</time>
      </trkpt>
      <trkpt lat="44.48986" lon="6.59139">
        <ele>2631</ele>
        <time>2021-04-07T08:45:39Z</time>
      </trkpt>
      <trkpt lat="44.48985" lon="6.59139">
        <ele>2631</ele>
        <time>2021-04-07T08:45:40Z</time>
      </trkpt>
      <trkpt lat="44.48984" lon="6.5914">
        <ele>2631</ele>
        <time>2021-04-07T08:45:41Z</time>
      </trkpt>
      <trkpt lat="44.48984" lon="6.5914">
        <ele>2632</ele>
        <time>2021-04-07T08:45:42Z</time>
      </trkpt>
      <trkpt lat="44.48983" lon="6.59141">
        <ele>2632</ele>
        <time>2021-04-07T08:45:43Z</time>
      </trkpt>
      <trkpt lat="44.48983" lon="6.59142">
        <ele>2632</ele>
        <time>2021-04-07T08:45:44Z</time>
      </trkpt>
      <trkpt lat="44.48982" lon="6.59142">
        <ele>2633</ele>
        <time>2021-04-07T08:45:45Z</time>
      </trkpt>
      <trkpt lat="44.48982" lon="6.59143">
        <ele>2633</ele>
        <time>2021-04-07T08:45:46Z</time>
      </trkpt>
      <trkpt lat="44.48982" lon="6.59144">
        <ele>2633</ele>
        <time>2021-04-07T08:45:47Z</time>
      </trkpt>
      <trkpt lat="44.48981" lon="6.59144">
        <ele>2633</ele>
        <time>2021-04-07T08:45:48Z</time>
      </trkpt>
      <trkpt lat="44.48981" lon="6.59145">
        <ele>2634</ele>
        <time>2021-04-07T08:45:49Z</time>
      </trkpt>
      <trkpt lat="44.4898" lon="6.59145">
        <ele>2634</ele>
        <time>2021-04-07T08:45:50Z</time>
      </trkpt>
      <trkpt lat="44.4898" lon="6.59146">
        <ele>2635</ele>
        <time>2021-04-07T08:45:51Z</time>
      </trkpt>
      <trkpt lat="44.4898" lon="6.59146">
        <ele>2635</ele>
        <time>2021-04-07T08:45:52Z</time>
      </trkpt>
      <trkpt lat="44.48979" lon="6.59147">
        <ele>2635</ele>
        <time>2021-04-07T08:45:53Z</time>
      </trkpt>
      <trkpt lat="44.48979" lon="6.59148">
        <ele>2636</ele>
        <time>2021-04-07T08:45:54Z</time>
      </trkpt>
      <trkpt lat="44.48979" lon="6.59148">
        <ele>2636</ele>
        <time>2021-04-07T08:45:55Z</time>
      </trkpt>
      <trkpt lat="44.48978" lon="6.59149">
        <ele>2636</ele>
        <time>2021-04-07T08:45:56Z</time>
      </trkpt>
      <trkpt lat="44.48978" lon="6.59149">
        <ele>2636</ele>
        <time>2021-04-07T08:45:57Z</time>
      </trkpt>
      <trkpt lat="44.48977" lon="6.5915">
        <ele>2636</ele>
        <time>2021-04-07T08:45:58Z</time>
      </trkpt>
      <trkpt lat="44.48977" lon="6.5915">
        <ele>2636</ele>
        <time>2021-04-07T08:45:59Z</time>
      </trkpt>
      <trkpt lat="44.48977" lon="6.59151">
        <ele>2637</ele>
        <time>2021-04-07T08:46:00Z</time>
      </trkpt>
      <trkpt lat="44.48976" lon="6.59151">
        <ele>2637</ele>
        <time>2021-04-07T08:46:01Z</time>
      </trkpt>
      <trkpt lat="44.48975" lon="6.59152">
        <ele>2637</ele>
        <time>2021-04-07T08:46:02Z</time>
      </trkpt>
      <trkpt lat="44.48975" lon="6.59152">
        <ele>2637</ele>
        <time>2021-04-07T08:46:03Z</time>
      </trkpt>
      <trkpt lat="44.48974" lon="6.59152">
        <ele>2637</ele>
        <time>2021-04-07T08:46:04Z</time>
      </trkpt>
      <trkpt lat="44.48974" lon="6.59153">
        <ele>2638</ele>
        <time>2021-04-07T08:46:05Z</time>
      </trkpt>
      <trkpt lat="44.48973" lon="6.59153">
        <ele>2638</ele>
        <time>2021-04-07T08:46:06Z</time>
      </trkpt>
      <trkpt lat="44.48972" lon="6.59153">
        <ele>2638</ele>
        <time>2021-04-07T08:46:07Z</time>
      </trkpt>
      <trkpt lat="44.48971" lon="6.59154">
        <ele>2638</ele>
        <time>2021-04-07T08:46:08Z</time>
      </trkpt>
      <trkpt lat="44.48971" lon="6.59154">
        <ele>2639</ele>
        <time>2021-04-07T08:46:09Z</time>
      </trkpt>
      <trkpt lat="44.4897" lon="6.59155">
        <ele>2639</ele>
        <time>2021-04-07T08:46:10Z</time>
      </trkpt>
      <trkpt lat="44.4897" lon="6.59155">
        <ele>2639</ele>
        <time>2021-04-07T08:46:11Z</time>
      </trkpt>
      <trkpt lat="44.4897" lon="6.59155">
        <ele>2639</ele>
        <time>2021-04-07T08:46:12Z</time>
      </trkpt>
      <trkpt lat="44.4897" lon="6.59155">
        <ele>2639</ele>
        <time>2021-04-07T08:46:13Z</time>
      </trkpt>
      <trkpt lat="44.48969" lon="6.59156">
        <ele>2640</ele>
        <time>2021-04-07T08:46:14Z</time>
      </trkpt>
      <trkpt lat="44.48969" lon="6.59156">
        <ele>2640</ele>
        <time>2021-04-07T08:46:15Z</time>
      </trkpt>
      <trkpt lat="44.48969" lon="6.59156">
        <ele>2640</ele>
        <time>2021-04-07T08:46:16Z</time>
      </trkpt>
      <trkpt lat="44.48968" lon="6.59157">
        <ele>2640</ele>
        <time>2021-04-07T08:46:17Z</time>
      </trkpt>
      <trkpt lat="44.48968" lon="6.59157">
        <ele>2640</ele>
        <time>2021-04-07T08:46:18Z</time>
      </trkpt>
      <trkpt lat="44.48968" lon="6.59157">
        <ele>2641</ele>
        <time>2021-04-07T08:46:19Z</time>
      </trkpt>
      <trkpt lat="44.48967" lon="6.59158">
        <ele>2641</ele>
        <time>2021-04-07T08:46:20Z</time>
      </trkpt>
      <trkpt lat="44.48966" lon="6.59158">
        <ele>2641</ele>
        <time>2021-04-07T08:46:21Z</time>
      </trkpt>
      <trkpt lat="44.48966" lon="6.59159">
        <ele>2641</ele>
        <time>2021-04-07T08:46:22Z</time>
      </trkpt>
      <trkpt lat="44.48965" lon="6.59159">
        <ele>2641</ele>
        <time>2021-04-07T08:46:23Z</time>
      </trkpt>
      <trkpt lat="44.48965" lon="6.5916">
        <ele>2641</ele>
        <time>2021-04-07T08:46:24Z</time>
      </trkpt>
      <trkpt lat="44.48964" lon="6.5916">
        <ele>2642</ele>
        <time>2021-04-07T08:46:25Z</time>
      </trkpt>
      <trkpt lat="44.48964" lon="6.5916">
        <ele>2642</ele>
        <time>2021-04-07T08:46:26Z</time>
      </trkpt>
      <trkpt lat="44.48963" lon="6.59161">
        <ele>2642</ele>
        <time>2021-04-07T08:46:27Z</time>
      </trkpt>
      <trkpt lat="44.48963" lon="6.59161">
        <ele>2642</ele>
        <time>2021-04-07T08:46:28Z</time>
      </trkpt>
      <trkpt lat="44.48962" lon="6.59161">
        <ele>2642</ele>
        <time>2021-04-07T08:46:29Z</time>
      </trkpt>
      <trkpt lat="44.48962" lon="6.59161">
        <ele>2642</ele>
        <time>2021-04-07T08:46:30Z</time>
      </trkpt>
      <trkpt lat="44.48962" lon="6.59162">
        <ele>2642</ele>
        <time>2021-04-07T08:46:31Z</time>
      </trkpt>
      <trkpt lat="44.48961" lon="6.59162">
        <ele>2642</ele>
        <time>2021-04-07T08:46:32Z</time>
      </trkpt>
      <trkpt lat="44.48961" lon="6.59162">
        <ele>2643</ele>
        <time>2021-04-07T08:46:33Z</time>
      </trkpt>
      <trkpt lat="44.48961" lon="6.59162">
        <ele>2643</ele>
        <time>2021-04-07T08:46:34Z</time>
      </trkpt>
      <trkpt lat="44.4896" lon="6.59162">
        <ele>2643</ele>
        <time>2021-04-07T08:46:35Z</time>
      </trkpt>
      <trkpt lat="44.48959" lon="6.59163">
        <ele>2643</ele>
        <time>2021-04-07T08:46:36Z</time>
      </trkpt>
      <trkpt lat="44.48959" lon="6.59163">
        <ele>2643</ele>
        <time>2021-04-07T08:46:37Z</time>
      </trkpt>
      <trkpt lat="44.48958" lon="6.59163">
        <ele>2643</ele>
        <time>2021-04-07T08:46:38Z</time>
      </trkpt>
      <trkpt lat="44.48957" lon="6.59164">
        <ele>2643</ele>
        <time>2021-04-07T08:46:39Z</time>
      </trkpt>
      <trkpt lat="44.48956" lon="6.59164">
        <ele>2644</ele>
        <time>2021-04-07T08:46:40Z</time>
      </trkpt>
      <trkpt lat="44.48956" lon="6.59164">
        <ele>2644</ele>
        <time>2021-04-07T08:46:41Z</time>
      </trkpt>
      <trkpt lat="44.48955" lon="6.59165">
        <ele>2644</ele>
        <time>2021-04-07T08:46:42Z</time>
      </trkpt>
      <trkpt lat="44.48955" lon="6.59164">
        <ele>2644</ele>
        <time>2021-04-07T08:46:43Z</time>
      </trkpt>
      <trkpt lat="44.48955" lon="6.59164">
        <ele>2644</ele>
        <time>2021-04-07T08:46:44Z</time>
      </trkpt>
      <trkpt lat="44.48955" lon="6.59164">
        <ele>2644</ele>
        <time>2021-04-07T08:46:45Z</time>
      </trkpt>
      <trkpt lat="44.48955" lon="6.59164">
        <ele>2644</ele>
        <time>2021-04-07T08:46:46Z</time>
      </trkpt>
      <trkpt lat="44.48954" lon="6.59164">
        <ele>2645</ele>
        <time>2021-04-07T08:46:47Z</time>
      </trkpt>
      <trkpt lat="44.48954" lon="6.59165">
        <ele>2645</ele>
        <time>2021-04-07T08:46:48Z</time>
      </trkpt>
      <trkpt lat="44.48954" lon="6.59165">
        <ele>2645</ele>
        <time>2021-04-07T08:46:49Z</time>
      </trkpt>
      <trkpt lat="44.48953" lon="6.59165">
        <ele>2645</ele>
        <time>2021-04-07T08:46:50Z</time>
      </trkpt>
      <trkpt lat="44.48953" lon="6.59165">
        <ele>2645</ele>
        <time>2021-04-07T08:46:51Z</time>
      </trkpt>
      <trkpt lat="44.48952" lon="6.59165">
        <ele>2645</ele>
        <time>2021-04-07T08:46:52Z</time>
      </trkpt>
      <trkpt lat="44.48951" lon="6.59166">
        <ele>2646</ele>
        <time>2021-04-07T08:46:53Z</time>
      </trkpt>
      <trkpt lat="44.4895" lon="6.59166">
        <ele>2646</ele>
        <time>2021-04-07T08:46:54Z</time>
      </trkpt>
      <trkpt lat="44.4895" lon="6.59166">
        <ele>2646</ele>
        <time>2021-04-07T08:46:55Z</time>
      </trkpt>
      <trkpt lat="44.48949" lon="6.59166">
        <ele>2646</ele>
        <time>2021-04-07T08:46:56Z</time>
      </trkpt>
      <trkpt lat="44.48949" lon="6.59166">
        <ele>2646</ele>
        <time>2021-04-07T08:46:57Z</time>
      </trkpt>
      <trkpt lat="44.48948" lon="6.59166">
        <ele>2646</ele>
        <time>2021-04-07T08:46:58Z</time>
      </trkpt>
      <trkpt lat="44.48948" lon="6.59166">
        <ele>2646</ele>
        <time>2021-04-07T08:46:59Z</time>
      </trkpt>
      <trkpt lat="44.48947" lon="6.59166">
        <ele>2646</ele>
        <time>2021-04-07T08:47:00Z</time>
      </trkpt>
      <trkpt lat="44.48947" lon="6.59166">
        <ele>2646</ele>
        <time>2021-04-07T08:47:01Z</time>
      </trkpt>
      <trkpt lat="44.48947" lon="6.59166">
        <ele>2646</ele>
        <time>2021-04-07T08:47:02Z</time>
      </trkpt>
      <trkpt lat="44.48946" lon="6.59166">
        <ele>2646</ele>
        <time>2021-04-07T08:47:03Z</time>
      </trkpt>
      <trkpt lat="44.48945" lon="6.59166">
        <ele>2646</ele>
        <time>2021-04-07T08:47:04Z</time>
      </trkpt>
      <trkpt lat="44.48945" lon="6.59166">
        <ele>2647</ele>
        <time>2021-04-07T08:47:05Z</time>
      </trkpt>
      <trkpt lat="44.48944" lon="6.59166">
        <ele>2647</ele>
        <time>2021-04-07T08:47:06Z</time>
      </trkpt>
      <trkpt lat="44.48944" lon="6.59166">
        <ele>2647</ele>
        <time>2021-04-07T08:47:07Z</time>
      </trkpt>
      <trkpt lat="44.48944" lon="6.59166">
        <ele>2647</ele>
        <time>2021-04-07T08:47:08Z</time>
      </trkpt>
      <trkpt lat="44.48943" lon="6.59166">
        <ele>2647</ele>
        <time>2021-04-07T08:47:09Z</time>
      </trkpt>
      <trkpt lat="44.48943" lon="6.59167">
        <ele>2647</ele>
        <time>2021-04-07T08:47:10Z</time>
      </trkpt>
      <trkpt lat="44.48942" lon="6.59167">
        <ele>2647</ele>
        <time>2021-04-07T08:47:11Z</time>
      </trkpt>
      <trkpt lat="44.48942" lon="6.59167">
        <ele>2648</ele>
        <time>2021-04-07T08:47:12Z</time>
      </trkpt>
      <trkpt lat="44.48941" lon="6.59167">
        <ele>2648</ele>
        <time>2021-04-07T08:47:13Z</time>
      </trkpt>
      <trkpt lat="44.48941" lon="6.59167">
        <ele>2648</ele>
        <time>2021-04-07T08:47:14Z</time>
      </trkpt>
      <trkpt lat="44.4894" lon="6.59167">
        <ele>2648</ele>
        <time>2021-04-07T08:47:15Z</time>
      </trkpt>
      <trkpt lat="44.48941" lon="6.59167">
        <ele>2648</ele>
        <time>2021-04-07T08:47:16Z</time>
      </trkpt>
      <trkpt lat="44.4894" lon="6.59167">
        <ele>2648</ele>
        <time>2021-04-07T08:47:17Z</time>
      </trkpt>
      <trkpt lat="44.4894" lon="6.59167">
        <ele>2648</ele>
        <time>2021-04-07T08:47:18Z</time>
      </trkpt>
      <trkpt lat="44.4894" lon="6.59168">
        <ele>2648</ele>
        <time>2021-04-07T08:47:19Z</time>
      </trkpt>
      <trkpt lat="44.48939" lon="6.59167">
        <ele>2648</ele>
        <time>2021-04-07T08:47:20Z</time>
      </trkpt>
      <trkpt lat="44.48939" lon="6.59167">
        <ele>2648</ele>
        <time>2021-04-07T08:47:21Z</time>
      </trkpt>
      <trkpt lat="44.48938" lon="6.59167">
        <ele>2649</ele>
        <time>2021-04-07T08:47:22Z</time>
      </trkpt>
      <trkpt lat="44.48938" lon="6.59167">
        <ele>2649</ele>
        <time>2021-04-07T08:47:23Z</time>
      </trkpt>
      <trkpt lat="44.48938" lon="6.59167">
        <ele>2649</ele>
        <time>2021-04-07T08:47:24Z</time>
      </trkpt>
      <trkpt lat="44.48938" lon="6.59167">
        <ele>2649</ele>
        <time>2021-04-07T08:47:25Z</time>
      </trkpt>
      <trkpt lat="44.48938" lon="6.59167">
        <ele>2649</ele>
        <time>2021-04-07T08:47:26Z</time>
      </trkpt>
      <trkpt lat="44.48938" lon="6.59167">
        <ele>2649</ele>
        <time>2021-04-07T08:47:27Z</time>
      </trkpt>
      <trkpt lat="44.48938" lon="6.59167">
        <ele>2649</ele>
        <time>2021-04-07T08:47:28Z</time>
      </trkpt>
      <trkpt lat="44.48938" lon="6.59167">
        <ele>2649</ele>
        <time>2021-04-07T08:47:29Z</time>
      </trkpt>
      <trkpt lat="44.48937" lon="6.59165">
        <ele>2649</ele>
        <time>2021-04-07T08:47:30Z</time>
      </trkpt>
      <trkpt lat="44.48937" lon="6.59165">
        <ele>2649</ele>
        <time>2021-04-07T08:47:31Z</time>
      </trkpt>
      <trkpt lat="44.48937" lon="6.59164">
        <ele>2649</ele>
        <time>2021-04-07T08:47:32Z</time>
      </trkpt>
      <trkpt lat="44.48937" lon="6.59163">
        <ele>2650</ele>
        <time>2021-04-07T08:47:33Z</time>
      </trkpt>
      <trkpt lat="44.48937" lon="6.59162">
        <ele>2650</ele>
        <time>2021-04-07T08:47:34Z</time>
      </trkpt>
      <trkpt lat="44.48937" lon="6.59162">
        <ele>2650</ele>
        <time>2021-04-07T08:47:35Z</time>
      </trkpt>
      <trkpt lat="44.48937" lon="6.59162">
        <ele>2650</ele>
        <time>2021-04-07T08:47:36Z</time>
      </trkpt>
      <trkpt lat="44.48937" lon="6.59161">
        <ele>2650</ele>
        <time>2021-04-07T08:47:37Z</time>
      </trkpt>
      <trkpt lat="44.48937" lon="6.59161">
        <ele>2650</ele>
        <time>2021-04-07T08:47:38Z</time>
      </trkpt>
      <trkpt lat="44.48937" lon="6.5916">
        <ele>2650</ele>
        <time>2021-04-07T08:47:39Z</time>
      </trkpt>
      <trkpt lat="44.48937" lon="6.5916">
        <ele>2650</ele>
        <time>2021-04-07T08:47:40Z</time>
      </trkpt>
      <trkpt lat="44.48937" lon="6.59159">
        <ele>2650</ele>
        <time>2021-04-07T08:47:41Z</time>
      </trkpt>
      <trkpt lat="44.48937" lon="6.59159">
        <ele>2650</ele>
        <time>2021-04-07T08:47:42Z</time>
      </trkpt>
      <trkpt lat="44.48937" lon="6.59158">
        <ele>2651</ele>
        <time>2021-04-07T08:47:43Z</time>
      </trkpt>
      <trkpt lat="44.48938" lon="6.59158">
        <ele>2651</ele>
        <time>2021-04-07T08:47:44Z</time>
      </trkpt>
      <trkpt lat="44.48938" lon="6.59158">
        <ele>2651</ele>
        <time>2021-04-07T08:47:45Z</time>
      </trkpt>
      <trkpt lat="44.48938" lon="6.59158">
        <ele>2651</ele>
        <time>2021-04-07T08:47:46Z</time>
      </trkpt>
      <trkpt lat="44.48938" lon="6.59158">
        <ele>2651</ele>
        <time>2021-04-07T08:47:47Z</time>
      </trkpt>
      <trkpt lat="44.48938" lon="6.59157">
        <ele>2651</ele>
        <time>2021-04-07T08:47:48Z</time>
      </trkpt>
      <trkpt lat="44.48938" lon="6.59157">
        <ele>2651</ele>
        <time>2021-04-07T08:47:49Z</time>
      </trkpt>
      <trkpt lat="44.48938" lon="6.59157">
        <ele>2651</ele>
        <time>2021-04-07T08:47:50Z</time>
      </trkpt>
      <trkpt lat="44.48938" lon="6.59157">
        <ele>2651</ele>
        <time>2021-04-07T08:47:51Z</time>
      </trkpt>
      <trkpt lat="44.48938" lon="6.59157">
        <ele>2651</ele>
        <time>2021-04-07T08:47:52Z</time>
      </trkpt>
      <trkpt lat="44.48938" lon="6.59157">
        <ele>2651</ele>
        <time>2021-04-07T08:47:53Z</time>
      </trkpt>
      <trkpt lat="44.48938" lon="6.59157">
        <ele>2651</ele>
        <time>2021-04-07T08:47:54Z</time>
      </trkpt>
      <trkpt lat="44.48938" lon="6.59157">
        <ele>2651</ele>
        <time>2021-04-07T08:47:55Z</time>
      </trkpt>
      <trkpt lat="44.48938" lon="6.59157">
        <ele>2651</ele>
        <time>2021-04-07T08:47:56Z</time>
      </trkpt>
      <trkpt lat="44.48938" lon="6.59157">
        <ele>2651</ele>
        <time>2021-04-07T08:47:57Z</time>
      </trkpt>
      <trkpt lat="44.48938" lon="6.59157">
        <ele>2651</ele>
        <time>2021-04-07T08:47:58Z</time>
      </trkpt>
      <trkpt lat="44.48938" lon="6.59157">
        <ele>2651</ele>
        <time>2021-04-07T08:47:59Z</time>
      </trkpt>
      <trkpt lat="44.48938" lon="6.59157">
        <ele>2651</ele>
        <time>2021-04-07T08:48:00Z</time>
      </trkpt>
      <trkpt lat="44.48938" lon="6.59157">
        <ele>2651</ele>
        <time>2021-04-07T08:48:01Z</time>
      </trkpt>
      <trkpt lat="44.48938" lon="6.59157">
        <ele>2651</ele>
        <time>2021-04-07T08:48:02Z</time>
      </trkpt>
      <trkpt lat="44.48939" lon="6.59155">
        <ele>2652</ele>
        <time>2021-04-07T08:48:03Z</time>
      </trkpt>
      <trkpt lat="44.48939" lon="6.59154">
        <ele>2652</ele>
        <time>2021-04-07T08:48:04Z</time>
      </trkpt>
      <trkpt lat="44.48939" lon="6.59153">
        <ele>2652</ele>
        <time>2021-04-07T08:48:05Z</time>
      </trkpt>
      <trkpt lat="44.48939" lon="6.59152">
        <ele>2652</ele>
        <time>2021-04-07T08:48:06Z</time>
      </trkpt>
      <trkpt lat="44.4894" lon="6.59152">
        <ele>2652</ele>
        <time>2021-04-07T08:48:07Z</time>
      </trkpt>
      <trkpt lat="44.4894" lon="6.59151">
        <ele>2652</ele>
        <time>2021-04-07T08:48:08Z</time>
      </trkpt>
      <trkpt lat="44.4894" lon="6.59151">
        <ele>2653</ele>
        <time>2021-04-07T08:48:09Z</time>
      </trkpt>
      <trkpt lat="44.4894" lon="6.59149">
        <ele>2653</ele>
        <time>2021-04-07T08:48:10Z</time>
      </trkpt>
      <trkpt lat="44.4894" lon="6.59149">
        <ele>2653</ele>
        <time>2021-04-07T08:48:11Z</time>
      </trkpt>
      <trkpt lat="44.4894" lon="6.59148">
        <ele>2653</ele>
        <time>2021-04-07T08:48:12Z</time>
      </trkpt>
      <trkpt lat="44.48941" lon="6.59147">
        <ele>2653</ele>
        <time>2021-04-07T08:48:13Z</time>
      </trkpt>
      <trkpt lat="44.48941" lon="6.59146">
        <ele>2654</ele>
        <time>2021-04-07T08:48:14Z</time>
      </trkpt>
      <trkpt lat="44.48941" lon="6.59146">
        <ele>2654</ele>
        <time>2021-04-07T08:48:15Z</time>
      </trkpt>
      <trkpt lat="44.48941" lon="6.59145">
        <ele>2654</ele>
        <time>2021-04-07T08:48:16Z</time>
      </trkpt>
      <trkpt lat="44.48941" lon="6.59145">
        <ele>2654</ele>
        <time>2021-04-07T08:48:17Z</time>
      </trkpt>
      <trkpt lat="44.48941" lon="6.59144">
        <ele>2654</ele>
        <time>2021-04-07T08:48:18Z</time>
      </trkpt>
      <trkpt lat="44.48941" lon="6.59143">
        <ele>2654</ele>
        <time>2021-04-07T08:48:19Z</time>
      </trkpt>
      <trkpt lat="44.48941" lon="6.59143">
        <ele>2654</ele>
        <time>2021-04-07T08:48:20Z</time>
      </trkpt>
      <trkpt lat="44.4894" lon="6.59142">
        <ele>2655</ele>
        <time>2021-04-07T08:48:21Z</time>
      </trkpt>
      <trkpt lat="44.4894" lon="6.59141">
        <ele>2655</ele>
        <time>2021-04-07T08:48:22Z</time>
      </trkpt>
      <trkpt lat="44.4894" lon="6.5914">
        <ele>2655</ele>
        <time>2021-04-07T08:48:23Z</time>
      </trkpt>
      <trkpt lat="44.48941" lon="6.5914">
        <ele>2655</ele>
        <time>2021-04-07T08:48:24Z</time>
      </trkpt>
      <trkpt lat="44.4894" lon="6.59139">
        <ele>2655</ele>
        <time>2021-04-07T08:48:25Z</time>
      </trkpt>
      <trkpt lat="44.4894" lon="6.59138">
        <ele>2655</ele>
        <time>2021-04-07T08:48:26Z</time>
      </trkpt>
      <trkpt lat="44.4894" lon="6.59137">
        <ele>2656</ele>
        <time>2021-04-07T08:48:27Z</time>
      </trkpt>
      <trkpt lat="44.4894" lon="6.59137">
        <ele>2656</ele>
        <time>2021-04-07T08:48:28Z</time>
      </trkpt>
      <trkpt lat="44.4894" lon="6.59136">
        <ele>2656</ele>
        <time>2021-04-07T08:48:29Z</time>
      </trkpt>
      <trkpt lat="44.48939" lon="6.59136">
        <ele>2656</ele>
        <time>2021-04-07T08:48:30Z</time>
      </trkpt>
      <trkpt lat="44.48939" lon="6.59135">
        <ele>2656</ele>
        <time>2021-04-07T08:48:31Z</time>
      </trkpt>
      <trkpt lat="44.48939" lon="6.59135">
        <ele>2656</ele>
        <time>2021-04-07T08:48:32Z</time>
      </trkpt>
      <trkpt lat="44.48939" lon="6.59134">
        <ele>2656</ele>
        <time>2021-04-07T08:48:33Z</time>
      </trkpt>
      <trkpt lat="44.4894" lon="6.59133">
        <ele>2657</ele>
        <time>2021-04-07T08:48:34Z</time>
      </trkpt>
      <trkpt lat="44.4894" lon="6.59132">
        <ele>2657</ele>
        <time>2021-04-07T08:48:35Z</time>
      </trkpt>
      <trkpt lat="44.4894" lon="6.59131">
        <ele>2657</ele>
        <time>2021-04-07T08:48:36Z</time>
      </trkpt>
      <trkpt lat="44.4894" lon="6.5913">
        <ele>2657</ele>
        <time>2021-04-07T08:48:37Z</time>
      </trkpt>
      <trkpt lat="44.4894" lon="6.5913">
        <ele>2657</ele>
        <time>2021-04-07T08:48:38Z</time>
      </trkpt>
      <trkpt lat="44.4894" lon="6.59129">
        <ele>2657</ele>
        <time>2021-04-07T08:48:39Z</time>
      </trkpt>
      <trkpt lat="44.4894" lon="6.59128">
        <ele>2658</ele>
        <time>2021-04-07T08:48:40Z</time>
      </trkpt>
      <trkpt lat="44.48939" lon="6.59128">
        <ele>2658</ele>
        <time>2021-04-07T08:48:41Z</time>
      </trkpt>
      <trkpt lat="44.4894" lon="6.59127">
        <ele>2658</ele>
        <time>2021-04-07T08:48:42Z</time>
      </trkpt>
      <trkpt lat="44.4894" lon="6.59126">
        <ele>2658</ele>
        <time>2021-04-07T08:48:43Z</time>
      </trkpt>
      <trkpt lat="44.4894" lon="6.59126">
        <ele>2658</ele>
        <time>2021-04-07T08:48:44Z</time>
      </trkpt>
      <trkpt lat="44.4894" lon="6.59125">
        <ele>2659</ele>
        <time>2021-04-07T08:48:45Z</time>
      </trkpt>
      <trkpt lat="44.4894" lon="6.59125">
        <ele>2659</ele>
        <time>2021-04-07T08:48:46Z</time>
      </trkpt>
      <trkpt lat="44.4894" lon="6.59125">
        <ele>2659</ele>
        <time>2021-04-07T08:48:47Z</time>
      </trkpt>
      <trkpt lat="44.4894" lon="6.59124">
        <ele>2659</ele>
        <time>2021-04-07T08:48:48Z</time>
      </trkpt>
      <trkpt lat="44.4894" lon="6.59124">
        <ele>2660</ele>
        <time>2021-04-07T08:48:49Z</time>
      </trkpt>
      <trkpt lat="44.4894" lon="6.59124">
        <ele>2660</ele>
        <time>2021-04-07T08:48:50Z</time>
      </trkpt>
      <trkpt lat="44.4894" lon="6.59123">
        <ele>2660</ele>
        <time>2021-04-07T08:48:51Z</time>
      </trkpt>
      <trkpt lat="44.4894" lon="6.59122">
        <ele>2660</ele>
        <time>2021-04-07T08:48:52Z</time>
      </trkpt>
      <trkpt lat="44.4894" lon="6.59122">
        <ele>2660</ele>
        <time>2021-04-07T08:48:53Z</time>
      </trkpt>
      <trkpt lat="44.48939" lon="6.59121">
        <ele>2660</ele>
        <time>2021-04-07T08:48:54Z</time>
      </trkpt>
      <trkpt lat="44.48939" lon="6.5912">
        <ele>2660</ele>
        <time>2021-04-07T08:48:55Z</time>
      </trkpt>
      <trkpt lat="44.48939" lon="6.5912">
        <ele>2661</ele>
        <time>2021-04-07T08:48:56Z</time>
      </trkpt>
      <trkpt lat="44.48939" lon="6.59119">
        <ele>2661</ele>
        <time>2021-04-07T08:48:57Z</time>
      </trkpt>
      <trkpt lat="44.48939" lon="6.59118">
        <ele>2661</ele>
        <time>2021-04-07T08:48:58Z</time>
      </trkpt>
      <trkpt lat="44.4894" lon="6.59117">
        <ele>2661</ele>
        <time>2021-04-07T08:48:59Z</time>
      </trkpt>
      <trkpt lat="44.4894" lon="6.59117">
        <ele>2661</ele>
        <time>2021-04-07T08:49:00Z</time>
      </trkpt>
      <trkpt lat="44.4894" lon="6.59116">
        <ele>2661</ele>
        <time>2021-04-07T08:49:01Z</time>
      </trkpt>
      <trkpt lat="44.4894" lon="6.59115">
        <ele>2662</ele>
        <time>2021-04-07T08:49:02Z</time>
      </trkpt>
      <trkpt lat="44.4894" lon="6.59115">
        <ele>2662</ele>
        <time>2021-04-07T08:49:03Z</time>
      </trkpt>
      <trkpt lat="44.4894" lon="6.59114">
        <ele>2662</ele>
        <time>2021-04-07T08:49:04Z</time>
      </trkpt>
      <trkpt lat="44.4894" lon="6.59113">
        <ele>2662</ele>
        <time>2021-04-07T08:49:05Z</time>
      </trkpt>
      <trkpt lat="44.4894" lon="6.59112">
        <ele>2662</ele>
        <time>2021-04-07T08:49:06Z</time>
      </trkpt>
      <trkpt lat="44.4894" lon="6.59111">
        <ele>2662</ele>
        <time>2021-04-07T08:49:07Z</time>
      </trkpt>
      <trkpt lat="44.4894" lon="6.59111">
        <ele>2663</ele>
        <time>2021-04-07T08:49:08Z</time>
      </trkpt>
      <trkpt lat="44.4894" lon="6.5911">
        <ele>2663</ele>
        <time>2021-04-07T08:49:09Z</time>
      </trkpt>
      <trkpt lat="44.4894" lon="6.59109">
        <ele>2663</ele>
        <time>2021-04-07T08:49:10Z</time>
      </trkpt>
      <trkpt lat="44.48941" lon="6.59108">
        <ele>2663</ele>
        <time>2021-04-07T08:49:11Z</time>
      </trkpt>
      <trkpt lat="44.48941" lon="6.59107">
        <ele>2663</ele>
        <time>2021-04-07T08:49:12Z</time>
      </trkpt>
      <trkpt lat="44.48941" lon="6.59107">
        <ele>2663</ele>
        <time>2021-04-07T08:49:13Z</time>
      </trkpt>
      <trkpt lat="44.48941" lon="6.59106">
        <ele>2663</ele>
        <time>2021-04-07T08:49:14Z</time>
      </trkpt>
      <trkpt lat="44.48941" lon="6.59105">
        <ele>2664</ele>
        <time>2021-04-07T08:49:15Z</time>
      </trkpt>
      <trkpt lat="44.48941" lon="6.59105">
        <ele>2664</ele>
        <time>2021-04-07T08:49:16Z</time>
      </trkpt>
      <trkpt lat="44.48941" lon="6.59105">
        <ele>2664</ele>
        <time>2021-04-07T08:49:17Z</time>
      </trkpt>
      <trkpt lat="44.48941" lon="6.59104">
        <ele>2664</ele>
        <time>2021-04-07T08:49:18Z</time>
      </trkpt>
      <trkpt lat="44.4894" lon="6.59104">
        <ele>2664</ele>
        <time>2021-04-07T08:49:19Z</time>
      </trkpt>
      <trkpt lat="44.4894" lon="6.59104">
        <ele>2664</ele>
        <time>2021-04-07T08:49:20Z</time>
      </trkpt>
      <trkpt lat="44.48939" lon="6.59104">
        <ele>2664</ele>
        <time>2021-04-07T08:49:21Z</time>
      </trkpt>
      <trkpt lat="44.48939" lon="6.59104">
        <ele>2664</ele>
        <time>2021-04-07T08:49:22Z</time>
      </trkpt>
      <trkpt lat="44.48938" lon="6.59104">
        <ele>2665</ele>
        <time>2021-04-07T08:49:23Z</time>
      </trkpt>
      <trkpt lat="44.48938" lon="6.59105">
        <ele>2665</ele>
        <time>2021-04-07T08:49:24Z</time>
      </trkpt>
      <trkpt lat="44.48937" lon="6.59105">
        <ele>2665</ele>
        <time>2021-04-07T08:49:25Z</time>
      </trkpt>
      <trkpt lat="44.48937" lon="6.59106">
        <ele>2665</ele>
        <time>2021-04-07T08:49:26Z</time>
      </trkpt>
      <trkpt lat="44.48936" lon="6.59107">
        <ele>2665</ele>
        <time>2021-04-07T08:49:27Z</time>
      </trkpt>
      <trkpt lat="44.48935" lon="6.59109">
        <ele>2666</ele>
        <time>2021-04-07T08:49:28Z</time>
      </trkpt>
      <trkpt lat="44.48935" lon="6.5911">
        <ele>2666</ele>
        <time>2021-04-07T08:49:29Z</time>
      </trkpt>
      <trkpt lat="44.48935" lon="6.59111">
        <ele>2666</ele>
        <time>2021-04-07T08:49:30Z</time>
      </trkpt>
      <trkpt lat="44.48935" lon="6.59111">
        <ele>2666</ele>
        <time>2021-04-07T08:49:31Z</time>
      </trkpt>
      <trkpt lat="44.48935" lon="6.59112">
        <ele>2667</ele>
        <time>2021-04-07T08:49:32Z</time>
      </trkpt>
      <trkpt lat="44.48935" lon="6.59113">
        <ele>2667</ele>
        <time>2021-04-07T08:49:33Z</time>
      </trkpt>
      <trkpt lat="44.48935" lon="6.59113">
        <ele>2667</ele>
        <time>2021-04-07T08:49:34Z</time>
      </trkpt>
      <trkpt lat="44.48934" lon="6.59114">
        <ele>2667</ele>
        <time>2021-04-07T08:49:35Z</time>
      </trkpt>
      <trkpt lat="44.48934" lon="6.59115">
        <ele>2668</ele>
        <time>2021-04-07T08:49:36Z</time>
      </trkpt>
      <trkpt lat="44.48934" lon="6.59115">
        <ele>2668</ele>
        <time>2021-04-07T08:49:37Z</time>
      </trkpt>
      <trkpt lat="44.48934" lon="6.59115">
        <ele>2668</ele>
        <time>2021-04-07T08:49:38Z</time>
      </trkpt>
      <trkpt lat="44.48933" lon="6.59116">
        <ele>2668</ele>
        <time>2021-04-07T08:49:39Z</time>
      </trkpt>
      <trkpt lat="44.48933" lon="6.59117">
        <ele>2668</ele>
        <time>2021-04-07T08:49:40Z</time>
      </trkpt>
      <trkpt lat="44.48932" lon="6.59117">
        <ele>2668</ele>
        <time>2021-04-07T08:49:41Z</time>
      </trkpt>
      <trkpt lat="44.48932" lon="6.59118">
        <ele>2669</ele>
        <time>2021-04-07T08:49:42Z</time>
      </trkpt>
      <trkpt lat="44.48932" lon="6.59118">
        <ele>2669</ele>
        <time>2021-04-07T08:49:43Z</time>
      </trkpt>
      <trkpt lat="44.48932" lon="6.59119">
        <ele>2669</ele>
        <time>2021-04-07T08:49:44Z</time>
      </trkpt>
      <trkpt lat="44.48932" lon="6.5912">
        <ele>2669</ele>
        <time>2021-04-07T08:49:45Z</time>
      </trkpt>
      <trkpt lat="44.48932" lon="6.5912">
        <ele>2669</ele>
        <time>2021-04-07T08:49:46Z</time>
      </trkpt>
      <trkpt lat="44.48931" lon="6.59121">
        <ele>2669</ele>
        <time>2021-04-07T08:49:47Z</time>
      </trkpt>
      <trkpt lat="44.4893" lon="6.59121">
        <ele>2669</ele>
        <time>2021-04-07T08:49:48Z</time>
      </trkpt>
      <trkpt lat="44.4893" lon="6.59122">
        <ele>2669</ele>
        <time>2021-04-07T08:49:49Z</time>
      </trkpt>
      <trkpt lat="44.48929" lon="6.59122">
        <ele>2669</ele>
        <time>2021-04-07T08:49:50Z</time>
      </trkpt>
      <trkpt lat="44.48928" lon="6.59122">
        <ele>2669</ele>
        <time>2021-04-07T08:49:51Z</time>
      </trkpt>
      <trkpt lat="44.48928" lon="6.59122">
        <ele>2669</ele>
        <time>2021-04-07T08:49:52Z</time>
      </trkpt>
      <trkpt lat="44.48927" lon="6.59121">
        <ele>2669</ele>
        <time>2021-04-07T08:49:53Z</time>
      </trkpt>
      <trkpt lat="44.48927" lon="6.59121">
        <ele>2670</ele>
        <time>2021-04-07T08:49:54Z</time>
      </trkpt>
      <trkpt lat="44.48927" lon="6.59122">
        <ele>2670</ele>
        <time>2021-04-07T08:49:55Z</time>
      </trkpt>
      <trkpt lat="44.48926" lon="6.59122">
        <ele>2670</ele>
        <time>2021-04-07T08:49:56Z</time>
      </trkpt>
      <trkpt lat="44.48926" lon="6.59122">
        <ele>2670</ele>
        <time>2021-04-07T08:49:57Z</time>
      </trkpt>
      <trkpt lat="44.48925" lon="6.59122">
        <ele>2670</ele>
        <time>2021-04-07T08:49:58Z</time>
      </trkpt>
      <trkpt lat="44.48925" lon="6.59122">
        <ele>2671</ele>
        <time>2021-04-07T08:49:59Z</time>
      </trkpt>
      <trkpt lat="44.48924" lon="6.59122">
        <ele>2671</ele>
        <time>2021-04-07T08:50:00Z</time>
      </trkpt>
      <trkpt lat="44.48924" lon="6.59122">
        <ele>2671</ele>
        <time>2021-04-07T08:50:01Z</time>
      </trkpt>
      <trkpt lat="44.48923" lon="6.59123">
        <ele>2671</ele>
        <time>2021-04-07T08:50:02Z</time>
      </trkpt>
      <trkpt lat="44.48923" lon="6.59122">
        <ele>2671</ele>
        <time>2021-04-07T08:50:03Z</time>
      </trkpt>
      <trkpt lat="44.48922" lon="6.59123">
        <ele>2671</ele>
        <time>2021-04-07T08:50:04Z</time>
      </trkpt>
      <trkpt lat="44.48921" lon="6.59123">
        <ele>2671</ele>
        <time>2021-04-07T08:50:05Z</time>
      </trkpt>
      <trkpt lat="44.48921" lon="6.59124">
        <ele>2672</ele>
        <time>2021-04-07T08:50:06Z</time>
      </trkpt>
      <trkpt lat="44.48921" lon="6.59124">
        <ele>2672</ele>
        <time>2021-04-07T08:50:07Z</time>
      </trkpt>
      <trkpt lat="44.48921" lon="6.59125">
        <ele>2672</ele>
        <time>2021-04-07T08:50:08Z</time>
      </trkpt>
      <trkpt lat="44.4892" lon="6.59125">
        <ele>2672</ele>
        <time>2021-04-07T08:50:09Z</time>
      </trkpt>
      <trkpt lat="44.4892" lon="6.59125">
        <ele>2672</ele>
        <time>2021-04-07T08:50:10Z</time>
      </trkpt>
      <trkpt lat="44.48919" lon="6.59126">
        <ele>2672</ele>
        <time>2021-04-07T08:50:11Z</time>
      </trkpt>
      <trkpt lat="44.48919" lon="6.59127">
        <ele>2672</ele>
        <time>2021-04-07T08:50:12Z</time>
      </trkpt>
      <trkpt lat="44.48918" lon="6.59127">
        <ele>2672</ele>
        <time>2021-04-07T08:50:13Z</time>
      </trkpt>
      <trkpt lat="44.48918" lon="6.59127">
        <ele>2672</ele>
        <time>2021-04-07T08:50:14Z</time>
      </trkpt>
      <trkpt lat="44.48917" lon="6.59128">
        <ele>2672</ele>
        <time>2021-04-07T08:50:15Z</time>
      </trkpt>
      <trkpt lat="44.48917" lon="6.59128">
        <ele>2673</ele>
        <time>2021-04-07T08:50:16Z</time>
      </trkpt>
      <trkpt lat="44.48916" lon="6.59128">
        <ele>2673</ele>
        <time>2021-04-07T08:50:17Z</time>
      </trkpt>
      <trkpt lat="44.48916" lon="6.59129">
        <ele>2673</ele>
        <time>2021-04-07T08:50:18Z</time>
      </trkpt>
      <trkpt lat="44.48915" lon="6.59129">
        <ele>2673</ele>
        <time>2021-04-07T08:50:19Z</time>
      </trkpt>
      <trkpt lat="44.48914" lon="6.59129">
        <ele>2673</ele>
        <time>2021-04-07T08:50:20Z</time>
      </trkpt>
      <trkpt lat="44.48914" lon="6.5913">
        <ele>2673</ele>
        <time>2021-04-07T08:50:21Z</time>
      </trkpt>
      <trkpt lat="44.48914" lon="6.5913">
        <ele>2674</ele>
        <time>2021-04-07T08:50:22Z</time>
      </trkpt>
      <trkpt lat="44.48913" lon="6.5913">
        <ele>2674</ele>
        <time>2021-04-07T08:50:23Z</time>
      </trkpt>
      <trkpt lat="44.48913" lon="6.5913">
        <ele>2674</ele>
        <time>2021-04-07T08:50:24Z</time>
      </trkpt>
      <trkpt lat="44.48913" lon="6.5913">
        <ele>2674</ele>
        <time>2021-04-07T08:50:25Z</time>
      </trkpt>
      <trkpt lat="44.48913" lon="6.5913">
        <ele>2674</ele>
        <time>2021-04-07T08:50:26Z</time>
      </trkpt>
      <trkpt lat="44.48912" lon="6.5913">
        <ele>2674</ele>
        <time>2021-04-07T08:50:27Z</time>
      </trkpt>
      <trkpt lat="44.48912" lon="6.5913">
        <ele>2674</ele>
        <time>2021-04-07T08:50:28Z</time>
      </trkpt>
      <trkpt lat="44.48912" lon="6.5913">
        <ele>2674</ele>
        <time>2021-04-07T08:50:29Z</time>
      </trkpt>
      <trkpt lat="44.48912" lon="6.5913">
        <ele>2674</ele>
        <time>2021-04-07T08:50:30Z</time>
      </trkpt>
      <trkpt lat="44.48912" lon="6.5913">
        <ele>2674</ele>
        <time>2021-04-07T08:50:31Z</time>
      </trkpt>
      <trkpt lat="44.48912" lon="6.5913">
        <ele>2674</ele>
        <time>2021-04-07T08:50:32Z</time>
      </trkpt>
      <trkpt lat="44.48913" lon="6.59128">
        <ele>2674</ele>
        <time>2021-04-07T08:50:33Z</time>
      </trkpt>
      <trkpt lat="44.48913" lon="6.59128">
        <ele>2674</ele>
        <time>2021-04-07T08:50:34Z</time>
      </trkpt>
      <trkpt lat="44.48913" lon="6.59128">
        <ele>2674</ele>
        <time>2021-04-07T08:50:35Z</time>
      </trkpt>
      <trkpt lat="44.48913" lon="6.59128">
        <ele>2674</ele>
        <time>2021-04-07T08:50:36Z</time>
      </trkpt>
      <trkpt lat="44.48913" lon="6.59128">
        <ele>2674</ele>
        <time>2021-04-07T08:50:37Z</time>
      </trkpt>
      <trkpt lat="44.48914" lon="6.59127">
        <ele>2674</ele>
        <time>2021-04-07T08:50:38Z</time>
      </trkpt>
      <trkpt lat="44.48914" lon="6.59127">
        <ele>2674</ele>
        <time>2021-04-07T08:50:39Z</time>
      </trkpt>
      <trkpt lat="44.48915" lon="6.59126">
        <ele>2675</ele>
        <time>2021-04-07T08:50:40Z</time>
      </trkpt>
      <trkpt lat="44.48915" lon="6.59126">
        <ele>2675</ele>
        <time>2021-04-07T08:50:41Z</time>
      </trkpt>
      <trkpt lat="44.48916" lon="6.59125">
        <ele>2676</ele>
        <time>2021-04-07T08:50:42Z</time>
      </trkpt>
      <trkpt lat="44.48916" lon="6.59125">
        <ele>2676</ele>
        <time>2021-04-07T08:50:43Z</time>
      </trkpt>
      <trkpt lat="44.48916" lon="6.59124">
        <ele>2676</ele>
        <time>2021-04-07T08:50:44Z</time>
      </trkpt>
      <trkpt lat="44.48917" lon="6.59124">
        <ele>2676</ele>
        <time>2021-04-07T08:50:45Z</time>
      </trkpt>
      <trkpt lat="44.48917" lon="6.59123">
        <ele>2676</ele>
        <time>2021-04-07T08:50:46Z</time>
      </trkpt>
      <trkpt lat="44.48917" lon="6.59122">
        <ele>2676</ele>
        <time>2021-04-07T08:50:47Z</time>
      </trkpt>
      <trkpt lat="44.48917" lon="6.59121">
        <ele>2677</ele>
        <time>2021-04-07T08:50:48Z</time>
      </trkpt>
      <trkpt lat="44.48917" lon="6.5912">
        <ele>2677</ele>
        <time>2021-04-07T08:50:49Z</time>
      </trkpt>
      <trkpt lat="44.48917" lon="6.5912">
        <ele>2677</ele>
        <time>2021-04-07T08:50:50Z</time>
      </trkpt>
      <trkpt lat="44.48917" lon="6.59119">
        <ele>2677</ele>
        <time>2021-04-07T08:50:51Z</time>
      </trkpt>
      <trkpt lat="44.48917" lon="6.59118">
        <ele>2677</ele>
        <time>2021-04-07T08:50:52Z</time>
      </trkpt>
      <trkpt lat="44.48917" lon="6.59118">
        <ele>2677</ele>
        <time>2021-04-07T08:50:53Z</time>
      </trkpt>
      <trkpt lat="44.48917" lon="6.59117">
        <ele>2677</ele>
        <time>2021-04-07T08:50:54Z</time>
      </trkpt>
      <trkpt lat="44.48917" lon="6.59116">
        <ele>2677</ele>
        <time>2021-04-07T08:50:55Z</time>
      </trkpt>
      <trkpt lat="44.48917" lon="6.59115">
        <ele>2678</ele>
        <time>2021-04-07T08:50:56Z</time>
      </trkpt>
      <trkpt lat="44.48918" lon="6.59114">
        <ele>2678</ele>
        <time>2021-04-07T08:50:57Z</time>
      </trkpt>
      <trkpt lat="44.48918" lon="6.59114">
        <ele>2678</ele>
        <time>2021-04-07T08:50:58Z</time>
      </trkpt>
      <trkpt lat="44.48918" lon="6.59113">
        <ele>2678</ele>
        <time>2021-04-07T08:50:59Z</time>
      </trkpt>
      <trkpt lat="44.48918" lon="6.59112">
        <ele>2678</ele>
        <time>2021-04-07T08:51:00Z</time>
      </trkpt>
      <trkpt lat="44.48919" lon="6.59111">
        <ele>2678</ele>
        <time>2021-04-07T08:51:01Z</time>
      </trkpt>
      <trkpt lat="44.48919" lon="6.5911">
        <ele>2679</ele>
        <time>2021-04-07T08:51:02Z</time>
      </trkpt>
      <trkpt lat="44.4892" lon="6.59109">
        <ele>2679</ele>
        <time>2021-04-07T08:51:03Z</time>
      </trkpt>
      <trkpt lat="44.4892" lon="6.59108">
        <ele>2679</ele>
        <time>2021-04-07T08:51:04Z</time>
      </trkpt>
      <trkpt lat="44.4892" lon="6.59106">
        <ele>2679</ele>
        <time>2021-04-07T08:51:05Z</time>
      </trkpt>
      <trkpt lat="44.48921" lon="6.59106">
        <ele>2679</ele>
        <time>2021-04-07T08:51:06Z</time>
      </trkpt>
      <trkpt lat="44.4892" lon="6.59105">
        <ele>2679</ele>
        <time>2021-04-07T08:51:07Z</time>
      </trkpt>
      <trkpt lat="44.48921" lon="6.59105">
        <ele>2679</ele>
        <time>2021-04-07T08:51:08Z</time>
      </trkpt>
      <trkpt lat="44.4892" lon="6.59106">
        <ele>2679</ele>
        <time>2021-04-07T08:51:09Z</time>
      </trkpt>
      <trkpt lat="44.4892" lon="6.59105">
        <ele>2680</ele>
        <time>2021-04-07T08:51:10Z</time>
      </trkpt>
      <trkpt lat="44.4892" lon="6.59105">
        <ele>2680</ele>
        <time>2021-04-07T08:51:11Z</time>
      </trkpt>
      <trkpt lat="44.4892" lon="6.59104">
        <ele>2680</ele>
        <time>2021-04-07T08:51:12Z</time>
      </trkpt>
      <trkpt lat="44.48919" lon="6.59103">
        <ele>2680</ele>
        <time>2021-04-07T08:51:13Z</time>
      </trkpt>
      <trkpt lat="44.4892" lon="6.59102">
        <ele>2680</ele>
        <time>2021-04-07T08:51:14Z</time>
      </trkpt>
      <trkpt lat="44.4892" lon="6.59101">
        <ele>2680</ele>
        <time>2021-04-07T08:51:15Z</time>
      </trkpt>
      <trkpt lat="44.4892" lon="6.59101">
        <ele>2680</ele>
        <time>2021-04-07T08:51:16Z</time>
      </trkpt>
      <trkpt lat="44.4892" lon="6.591">
        <ele>2680</ele>
        <time>2021-04-07T08:51:17Z</time>
      </trkpt>
      <trkpt lat="44.48921" lon="6.591">
        <ele>2681</ele>
        <time>2021-04-07T08:51:18Z</time>
      </trkpt>
      <trkpt lat="44.48921" lon="6.591">
        <ele>2681</ele>
        <time>2021-04-07T08:51:19Z</time>
      </trkpt>
      <trkpt lat="44.48921" lon="6.59099">
        <ele>2681</ele>
        <time>2021-04-07T08:51:20Z</time>
      </trkpt>
      <trkpt lat="44.48921" lon="6.59098">
        <ele>2681</ele>
        <time>2021-04-07T08:51:21Z</time>
      </trkpt>
      <trkpt lat="44.48921" lon="6.59098">
        <ele>2681</ele>
        <time>2021-04-07T08:51:22Z</time>
      </trkpt>
      <trkpt lat="44.48921" lon="6.59097">
        <ele>2681</ele>
        <time>2021-04-07T08:51:23Z</time>
      </trkpt>
      <trkpt lat="44.48921" lon="6.59097">
        <ele>2682</ele>
        <time>2021-04-07T08:51:24Z</time>
      </trkpt>
      <trkpt lat="44.48921" lon="6.59097">
        <ele>2682</ele>
        <time>2021-04-07T08:51:25Z</time>
      </trkpt>
      <trkpt lat="44.48921" lon="6.59097">
        <ele>2682</ele>
        <time>2021-04-07T08:51:26Z</time>
      </trkpt>
      <trkpt lat="44.48921" lon="6.59096">
        <ele>2682</ele>
        <time>2021-04-07T08:51:27Z</time>
      </trkpt>
      <trkpt lat="44.48921" lon="6.59095">
        <ele>2682</ele>
        <time>2021-04-07T08:51:28Z</time>
      </trkpt>
      <trkpt lat="44.48921" lon="6.59095">
        <ele>2682</ele>
        <time>2021-04-07T08:51:29Z</time>
      </trkpt>
      <trkpt lat="44.48921" lon="6.59094">
        <ele>2682</ele>
        <time>2021-04-07T08:51:30Z</time>
      </trkpt>
      <trkpt lat="44.48921" lon="6.59093">
        <ele>2683</ele>
        <time>2021-04-07T08:51:31Z</time>
      </trkpt>
      <trkpt lat="44.48921" lon="6.59092">
        <ele>2683</ele>
        <time>2021-04-07T08:51:32Z</time>
      </trkpt>
      <trkpt lat="44.48921" lon="6.5909">
        <ele>2683</ele>
        <time>2021-04-07T08:51:33Z</time>
      </trkpt>
      <trkpt lat="44.48921" lon="6.5909">
        <ele>2683</ele>
        <time>2021-04-07T08:51:34Z</time>
      </trkpt>
      <trkpt lat="44.48921" lon="6.59089">
        <ele>2683</ele>
        <time>2021-04-07T08:51:35Z</time>
      </trkpt>
      <trkpt lat="44.48921" lon="6.59088">
        <ele>2683</ele>
        <time>2021-04-07T08:51:36Z</time>
      </trkpt>
      <trkpt lat="44.48921" lon="6.59088">
        <ele>2683</ele>
        <time>2021-04-07T08:51:37Z</time>
      </trkpt>
      <trkpt lat="44.48921" lon="6.59087">
        <ele>2683</ele>
        <time>2021-04-07T08:51:38Z</time>
      </trkpt>
      <trkpt lat="44.48921" lon="6.59087">
        <ele>2683</ele>
        <time>2021-04-07T08:51:39Z</time>
      </trkpt>
      <trkpt lat="44.4892" lon="6.59087">
        <ele>2683</ele>
        <time>2021-04-07T08:51:40Z</time>
      </trkpt>
      <trkpt lat="44.48921" lon="6.59086">
        <ele>2683</ele>
        <time>2021-04-07T08:51:41Z</time>
      </trkpt>
      <trkpt lat="44.48921" lon="6.59086">
        <ele>2683</ele>
        <time>2021-04-07T08:51:42Z</time>
      </trkpt>
      <trkpt lat="44.48921" lon="6.59087">
        <ele>2683</ele>
        <time>2021-04-07T08:51:43Z</time>
      </trkpt>
      <trkpt lat="44.48921" lon="6.59087">
        <ele>2683</ele>
        <time>2021-04-07T08:51:44Z</time>
      </trkpt>
      <trkpt lat="44.48921" lon="6.59088">
        <ele>2683</ele>
        <time>2021-04-07T08:51:45Z</time>
      </trkpt>
      <trkpt lat="44.48921" lon="6.59088">
        <ele>2683</ele>
        <time>2021-04-07T08:51:46Z</time>
      </trkpt>
      <trkpt lat="44.48921" lon="6.59089">
        <ele>2683</ele>
        <time>2021-04-07T08:51:47Z</time>
      </trkpt>
      <trkpt lat="44.48921" lon="6.59089">
        <ele>2683</ele>
        <time>2021-04-07T08:51:48Z</time>
      </trkpt>
      <trkpt lat="44.48921" lon="6.5909">
        <ele>2683</ele>
        <time>2021-04-07T08:51:49Z</time>
      </trkpt>
      <trkpt lat="44.4892" lon="6.59091">
        <ele>2683</ele>
        <time>2021-04-07T08:51:50Z</time>
      </trkpt>
      <trkpt lat="44.4892" lon="6.59092">
        <ele>2684</ele>
        <time>2021-04-07T08:51:51Z</time>
      </trkpt>
      <trkpt lat="44.4892" lon="6.59092">
        <ele>2684</ele>
        <time>2021-04-07T08:51:52Z</time>
      </trkpt>
      <trkpt lat="44.48919" lon="6.59093">
        <ele>2684</ele>
        <time>2021-04-07T08:51:53Z</time>
      </trkpt>
      <trkpt lat="44.48919" lon="6.59094">
        <ele>2684</ele>
        <time>2021-04-07T08:51:54Z</time>
      </trkpt>
      <trkpt lat="44.48918" lon="6.59095">
        <ele>2684</ele>
        <time>2021-04-07T08:51:55Z</time>
      </trkpt>
      <trkpt lat="44.48918" lon="6.59095">
        <ele>2684</ele>
        <time>2021-04-07T08:51:56Z</time>
      </trkpt>
      <trkpt lat="44.48917" lon="6.59096">
        <ele>2684</ele>
        <time>2021-04-07T08:51:57Z</time>
      </trkpt>
      <trkpt lat="44.48917" lon="6.59096">
        <ele>2684</ele>
        <time>2021-04-07T08:51:58Z</time>
      </trkpt>
      <trkpt lat="44.48916" lon="6.59097">
        <ele>2684</ele>
        <time>2021-04-07T08:51:59Z</time>
      </trkpt>
      <trkpt lat="44.48915" lon="6.59097">
        <ele>2684</ele>
        <time>2021-04-07T08:52:00Z</time>
      </trkpt>
      <trkpt lat="44.48914" lon="6.59097">
        <ele>2685</ele>
        <time>2021-04-07T08:52:01Z</time>
      </trkpt>
      <trkpt lat="44.48914" lon="6.59097">
        <ele>2685</ele>
        <time>2021-04-07T08:52:02Z</time>
      </trkpt>
      <trkpt lat="44.48913" lon="6.59098">
        <ele>2685</ele>
        <time>2021-04-07T08:52:03Z</time>
      </trkpt>
      <trkpt lat="44.48912" lon="6.59099">
        <ele>2685</ele>
        <time>2021-04-07T08:52:04Z</time>
      </trkpt>
      <trkpt lat="44.48912" lon="6.59099">
        <ele>2685</ele>
        <time>2021-04-07T08:52:05Z</time>
      </trkpt>
      <trkpt lat="44.48911" lon="6.591">
        <ele>2685</ele>
        <time>2021-04-07T08:52:06Z</time>
      </trkpt>
      <trkpt lat="44.48911" lon="6.59101">
        <ele>2686</ele>
        <time>2021-04-07T08:52:07Z</time>
      </trkpt>
      <trkpt lat="44.48911" lon="6.59101">
        <ele>2686</ele>
        <time>2021-04-07T08:52:08Z</time>
      </trkpt>
      <trkpt lat="44.48911" lon="6.59101">
        <ele>2686</ele>
        <time>2021-04-07T08:52:09Z</time>
      </trkpt>
      <trkpt lat="44.4891" lon="6.59101">
        <ele>2686</ele>
        <time>2021-04-07T08:52:10Z</time>
      </trkpt>
      <trkpt lat="44.4891" lon="6.59101">
        <ele>2686</ele>
        <time>2021-04-07T08:52:11Z</time>
      </trkpt>
      <trkpt lat="44.48909" lon="6.59102">
        <ele>2686</ele>
        <time>2021-04-07T08:52:12Z</time>
      </trkpt>
      <trkpt lat="44.48909" lon="6.59102">
        <ele>2686</ele>
        <time>2021-04-07T08:52:13Z</time>
      </trkpt>
      <trkpt lat="44.48908" lon="6.59102">
        <ele>2687</ele>
        <time>2021-04-07T08:52:14Z</time>
      </trkpt>
      <trkpt lat="44.48908" lon="6.59102">
        <ele>2687</ele>
        <time>2021-04-07T08:52:15Z</time>
      </trkpt>
      <trkpt lat="44.48907" lon="6.59102">
        <ele>2687</ele>
        <time>2021-04-07T08:52:16Z</time>
      </trkpt>
      <trkpt lat="44.48906" lon="6.59103">
        <ele>2687</ele>
        <time>2021-04-07T08:52:17Z</time>
      </trkpt>
      <trkpt lat="44.48905" lon="6.59103">
        <ele>2687</ele>
        <time>2021-04-07T08:52:18Z</time>
      </trkpt>
      <trkpt lat="44.48904" lon="6.59103">
        <ele>2687</ele>
        <time>2021-04-07T08:52:19Z</time>
      </trkpt>
      <trkpt lat="44.48904" lon="6.59103">
        <ele>2687</ele>
        <time>2021-04-07T08:52:20Z</time>
      </trkpt>
      <trkpt lat="44.48903" lon="6.59104">
        <ele>2688</ele>
        <time>2021-04-07T08:52:21Z</time>
      </trkpt>
      <trkpt lat="44.48902" lon="6.59104">
        <ele>2688</ele>
        <time>2021-04-07T08:52:22Z</time>
      </trkpt>
      <trkpt lat="44.48903" lon="6.59106">
        <ele>2688</ele>
        <time>2021-04-07T08:52:23Z</time>
      </trkpt>
      <trkpt lat="44.48903" lon="6.59106">
        <ele>2688</ele>
        <time>2021-04-07T08:52:24Z</time>
      </trkpt>
      <trkpt lat="44.48903" lon="6.59106">
        <ele>2689</ele>
        <time>2021-04-07T08:52:25Z</time>
      </trkpt>
      <trkpt lat="44.48902" lon="6.59107">
        <ele>2689</ele>
        <time>2021-04-07T08:52:26Z</time>
      </trkpt>
      <trkpt lat="44.48902" lon="6.59107">
        <ele>2689</ele>
        <time>2021-04-07T08:52:27Z</time>
      </trkpt>
      <trkpt lat="44.48901" lon="6.59108">
        <ele>2690</ele>
        <time>2021-04-07T08:52:28Z</time>
      </trkpt>
      <trkpt lat="44.48901" lon="6.59108">
        <ele>2690</ele>
        <time>2021-04-07T08:52:29Z</time>
      </trkpt>
      <trkpt lat="44.489" lon="6.59108">
        <ele>2690</ele>
        <time>2021-04-07T08:52:30Z</time>
      </trkpt>
      <trkpt lat="44.48899" lon="6.59108">
        <ele>2690</ele>
        <time>2021-04-07T08:52:31Z</time>
      </trkpt>
      <trkpt lat="44.48899" lon="6.59108">
        <ele>2690</ele>
        <time>2021-04-07T08:52:32Z</time>
      </trkpt>
      <trkpt lat="44.48898" lon="6.59108">
        <ele>2690</ele>
        <time>2021-04-07T08:52:33Z</time>
      </trkpt>
      <trkpt lat="44.48898" lon="6.59108">
        <ele>2691</ele>
        <time>2021-04-07T08:52:34Z</time>
      </trkpt>
      <trkpt lat="44.48897" lon="6.59108">
        <ele>2691</ele>
        <time>2021-04-07T08:52:35Z</time>
      </trkpt>
      <trkpt lat="44.48896" lon="6.59108">
        <ele>2691</ele>
        <time>2021-04-07T08:52:36Z</time>
      </trkpt>
      <trkpt lat="44.48896" lon="6.59108">
        <ele>2691</ele>
        <time>2021-04-07T08:52:37Z</time>
      </trkpt>
      <trkpt lat="44.48894" lon="6.59108">
        <ele>2691</ele>
        <time>2021-04-07T08:52:38Z</time>
      </trkpt>
      <trkpt lat="44.48894" lon="6.59109">
        <ele>2691</ele>
        <time>2021-04-07T08:52:39Z</time>
      </trkpt>
      <trkpt lat="44.48893" lon="6.59109">
        <ele>2692</ele>
        <time>2021-04-07T08:52:40Z</time>
      </trkpt>
      <trkpt lat="44.48892" lon="6.59109">
        <ele>2692</ele>
        <time>2021-04-07T08:52:41Z</time>
      </trkpt>
      <trkpt lat="44.48892" lon="6.59109">
        <ele>2692</ele>
        <time>2021-04-07T08:52:42Z</time>
      </trkpt>
      <trkpt lat="44.48891" lon="6.59109">
        <ele>2692</ele>
        <time>2021-04-07T08:52:43Z</time>
      </trkpt>
      <trkpt lat="44.4889" lon="6.59109">
        <ele>2692</ele>
        <time>2021-04-07T08:52:44Z</time>
      </trkpt>
      <trkpt lat="44.4889" lon="6.5911">
        <ele>2692</ele>
        <time>2021-04-07T08:52:45Z</time>
      </trkpt>
      <trkpt lat="44.4889" lon="6.59111">
        <ele>2692</ele>
        <time>2021-04-07T08:52:46Z</time>
      </trkpt>
      <trkpt lat="44.48889" lon="6.5911">
        <ele>2692</ele>
        <time>2021-04-07T08:52:47Z</time>
      </trkpt>
      <trkpt lat="44.48889" lon="6.5911">
        <ele>2692</ele>
        <time>2021-04-07T08:52:48Z</time>
      </trkpt>
      <trkpt lat="44.48889" lon="6.5911">
        <ele>2692</ele>
        <time>2021-04-07T08:52:49Z</time>
      </trkpt>
      <trkpt lat="44.48889" lon="6.59109">
        <ele>2692</ele>
        <time>2021-04-07T08:52:50Z</time>
      </trkpt>
      <trkpt lat="44.4889" lon="6.59109">
        <ele>2692</ele>
        <time>2021-04-07T08:52:51Z</time>
      </trkpt>
      <trkpt lat="44.4889" lon="6.59109">
        <ele>2692</ele>
        <time>2021-04-07T08:52:52Z</time>
      </trkpt>
      <trkpt lat="44.4889" lon="6.59108">
        <ele>2692</ele>
        <time>2021-04-07T08:52:53Z</time>
      </trkpt>
      <trkpt lat="44.4889" lon="6.59108">
        <ele>2692</ele>
        <time>2021-04-07T08:52:54Z</time>
      </trkpt>
      <trkpt lat="44.4889" lon="6.59107">
        <ele>2692</ele>
        <time>2021-04-07T08:52:55Z</time>
      </trkpt>
      <trkpt lat="44.4889" lon="6.59107">
        <ele>2692</ele>
        <time>2021-04-07T08:52:56Z</time>
      </trkpt>
      <trkpt lat="44.48891" lon="6.59106">
        <ele>2692</ele>
        <time>2021-04-07T08:52:57Z</time>
      </trkpt>
      <trkpt lat="44.48891" lon="6.59106">
        <ele>2692</ele>
        <time>2021-04-07T08:52:58Z</time>
      </trkpt>
      <trkpt lat="44.48891" lon="6.59105">
        <ele>2693</ele>
        <time>2021-04-07T08:52:59Z</time>
      </trkpt>
      <trkpt lat="44.48891" lon="6.59105">
        <ele>2693</ele>
        <time>2021-04-07T08:53:00Z</time>
      </trkpt>
      <trkpt lat="44.48892" lon="6.59104">
        <ele>2693</ele>
        <time>2021-04-07T08:53:01Z</time>
      </trkpt>
      <trkpt lat="44.48892" lon="6.59103">
        <ele>2693</ele>
        <time>2021-04-07T08:53:02Z</time>
      </trkpt>
      <trkpt lat="44.48892" lon="6.59103">
        <ele>2693</ele>
        <time>2021-04-07T08:53:03Z</time>
      </trkpt>
      <trkpt lat="44.48892" lon="6.59102">
        <ele>2693</ele>
        <time>2021-04-07T08:53:04Z</time>
      </trkpt>
      <trkpt lat="44.48893" lon="6.59101">
        <ele>2693</ele>
        <time>2021-04-07T08:53:05Z</time>
      </trkpt>
      <trkpt lat="44.48893" lon="6.591">
        <ele>2694</ele>
        <time>2021-04-07T08:53:06Z</time>
      </trkpt>
      <trkpt lat="44.48893" lon="6.591">
        <ele>2694</ele>
        <time>2021-04-07T08:53:07Z</time>
      </trkpt>
      <trkpt lat="44.48894" lon="6.59099">
        <ele>2694</ele>
        <time>2021-04-07T08:53:08Z</time>
      </trkpt>
      <trkpt lat="44.48894" lon="6.59098">
        <ele>2694</ele>
        <time>2021-04-07T08:53:09Z</time>
      </trkpt>
      <trkpt lat="44.48894" lon="6.59097">
        <ele>2694</ele>
        <time>2021-04-07T08:53:10Z</time>
      </trkpt>
      <trkpt lat="44.48894" lon="6.59096">
        <ele>2694</ele>
        <time>2021-04-07T08:53:11Z</time>
      </trkpt>
      <trkpt lat="44.48894" lon="6.59095">
        <ele>2695</ele>
        <time>2021-04-07T08:53:12Z</time>
      </trkpt>
      <trkpt lat="44.48894" lon="6.59094">
        <ele>2695</ele>
        <time>2021-04-07T08:53:13Z</time>
      </trkpt>
      <trkpt lat="44.48894" lon="6.59094">
        <ele>2695</ele>
        <time>2021-04-07T08:53:14Z</time>
      </trkpt>
      <trkpt lat="44.48894" lon="6.59093">
        <ele>2695</ele>
        <time>2021-04-07T08:53:15Z</time>
      </trkpt>
      <trkpt lat="44.48894" lon="6.59092">
        <ele>2695</ele>
        <time>2021-04-07T08:53:16Z</time>
      </trkpt>
      <trkpt lat="44.48894" lon="6.59091">
        <ele>2695</ele>
        <time>2021-04-07T08:53:17Z</time>
      </trkpt>
      <trkpt lat="44.48894" lon="6.59091">
        <ele>2695</ele>
        <time>2021-04-07T08:53:18Z</time>
      </trkpt>
      <trkpt lat="44.48894" lon="6.5909">
        <ele>2695</ele>
        <time>2021-04-07T08:53:19Z</time>
      </trkpt>
      <trkpt lat="44.48894" lon="6.59089">
        <ele>2695</ele>
        <time>2021-04-07T08:53:20Z</time>
      </trkpt>
      <trkpt lat="44.48894" lon="6.59088">
        <ele>2696</ele>
        <time>2021-04-07T08:53:21Z</time>
      </trkpt>
      <trkpt lat="44.48894" lon="6.59088">
        <ele>2696</ele>
        <time>2021-04-07T08:53:22Z</time>
      </trkpt>
      <trkpt lat="44.48894" lon="6.59087">
        <ele>2696</ele>
        <time>2021-04-07T08:53:23Z</time>
      </trkpt>
      <trkpt lat="44.48894" lon="6.59087">
        <ele>2696</ele>
        <time>2021-04-07T08:53:24Z</time>
      </trkpt>
      <trkpt lat="44.48894" lon="6.59086">
        <ele>2696</ele>
        <time>2021-04-07T08:53:25Z</time>
      </trkpt>
      <trkpt lat="44.48894" lon="6.59086">
        <ele>2697</ele>
        <time>2021-04-07T08:53:26Z</time>
      </trkpt>
      <trkpt lat="44.48894" lon="6.59086">
        <ele>2697</ele>
        <time>2021-04-07T08:53:27Z</time>
      </trkpt>
      <trkpt lat="44.48894" lon="6.59086">
        <ele>2697</ele>
        <time>2021-04-07T08:53:28Z</time>
      </trkpt>
      <trkpt lat="44.48894" lon="6.59086">
        <ele>2697</ele>
        <time>2021-04-07T08:53:29Z</time>
      </trkpt>
      <trkpt lat="44.48894" lon="6.59086">
        <ele>2697</ele>
        <time>2021-04-07T08:53:30Z</time>
      </trkpt>
      <trkpt lat="44.48894" lon="6.59086">
        <ele>2697</ele>
        <time>2021-04-07T08:53:31Z</time>
      </trkpt>
      <trkpt lat="44.48894" lon="6.59086">
        <ele>2697</ele>
        <time>2021-04-07T08:53:32Z</time>
      </trkpt>
      <trkpt lat="44.48894" lon="6.59086">
        <ele>2697</ele>
        <time>2021-04-07T08:53:33Z</time>
      </trkpt>
      <trkpt lat="44.48894" lon="6.59086">
        <ele>2697</ele>
        <time>2021-04-07T08:53:34Z</time>
      </trkpt>
      <trkpt lat="44.48894" lon="6.59086">
        <ele>2697</ele>
        <time>2021-04-07T08:53:35Z</time>
      </trkpt>
      <trkpt lat="44.48894" lon="6.59086">
        <ele>2697</ele>
        <time>2021-04-07T08:53:36Z</time>
      </trkpt>
      <trkpt lat="44.48894" lon="6.59086">
        <ele>2697</ele>
        <time>2021-04-07T08:53:37Z</time>
      </trkpt>
      <trkpt lat="44.48894" lon="6.59086">
        <ele>2697</ele>
        <time>2021-04-07T08:53:38Z</time>
      </trkpt>
      <trkpt lat="44.48894" lon="6.59086">
        <ele>2697</ele>
        <time>2021-04-07T08:53:39Z</time>
      </trkpt>
      <trkpt lat="44.48894" lon="6.59086">
        <ele>2697</ele>
        <time>2021-04-07T08:53:40Z</time>
      </trkpt>
      <trkpt lat="44.48894" lon="6.59086">
        <ele>2697</ele>
        <time>2021-04-07T08:53:41Z</time>
      </trkpt>
      <trkpt lat="44.48894" lon="6.59086">
        <ele>2697</ele>
        <time>2021-04-07T08:53:42Z</time>
      </trkpt>
      <trkpt lat="44.48894" lon="6.59086">
        <ele>2697</ele>
        <time>2021-04-07T08:53:43Z</time>
      </trkpt>
      <trkpt lat="44.48894" lon="6.59086">
        <ele>2697</ele>
        <time>2021-04-07T08:53:44Z</time>
      </trkpt>
      <trkpt lat="44.48894" lon="6.59086">
        <ele>2697</ele>
        <time>2021-04-07T08:53:45Z</time>
      </trkpt>
      <trkpt lat="44.48894" lon="6.59086">
        <ele>2697</ele>
        <time>2021-04-07T08:53:46Z</time>
      </trkpt>
      <trkpt lat="44.48894" lon="6.59085">
        <ele>2698</ele>
        <time>2021-04-07T08:53:47Z</time>
      </trkpt>
      <trkpt lat="44.48894" lon="6.59085">
        <ele>2698</ele>
        <time>2021-04-07T08:53:48Z</time>
      </trkpt>
      <trkpt lat="44.48894" lon="6.59085">
        <ele>2698</ele>
        <time>2021-04-07T08:53:49Z</time>
      </trkpt>
      <trkpt lat="44.48894" lon="6.59085">
        <ele>2698</ele>
        <time>2021-04-07T08:53:50Z</time>
      </trkpt>
      <trkpt lat="44.48894" lon="6.59085">
        <ele>2698</ele>
        <time>2021-04-07T08:53:51Z</time>
      </trkpt>
      <trkpt lat="44.48894" lon="6.59085">
        <ele>2698</ele>
        <time>2021-04-07T08:53:52Z</time>
      </trkpt>
      <trkpt lat="44.48894" lon="6.59085">
        <ele>2698</ele>
        <time>2021-04-07T08:53:53Z</time>
      </trkpt>
      <trkpt lat="44.48894" lon="6.59085">
        <ele>2698</ele>
        <time>2021-04-07T08:53:54Z</time>
      </trkpt>
      <trkpt lat="44.48894" lon="6.59085">
        <ele>2698</ele>
        <time>2021-04-07T08:53:55Z</time>
      </trkpt>
      <trkpt lat="44.48894" lon="6.59085">
        <ele>2698</ele>
        <time>2021-04-07T08:53:56Z</time>
      </trkpt>
      <trkpt lat="44.48894" lon="6.59085">
        <ele>2698</ele>
        <time>2021-04-07T08:53:57Z</time>
      </trkpt>
      <trkpt lat="44.48894" lon="6.59085">
        <ele>2698</ele>
        <time>2021-04-07T08:53:58Z</time>
      </trkpt>
      <trkpt lat="44.48894" lon="6.59085">
        <ele>2698</ele>
        <time>2021-04-07T08:53:59Z</time>
      </trkpt>
      <trkpt lat="44.48894" lon="6.59085">
        <ele>2698</ele>
        <time>2021-04-07T08:54:00Z</time>
      </trkpt>
      <trkpt lat="44.48894" lon="6.59085">
        <ele>2698</ele>
        <time>2021-04-07T08:54:01Z</time>
      </trkpt>
      <trkpt lat="44.48894" lon="6.59085">
        <ele>2698</ele>
        <time>2021-04-07T08:54:02Z</time>
      </trkpt>
      <trkpt lat="44.48894" lon="6.59085">
        <ele>2698</ele>
        <time>2021-04-07T08:54:03Z</time>
      </trkpt>
      <trkpt lat="44.48894" lon="6.59085">
        <ele>2698</ele>
        <time>2021-04-07T08:54:04Z</time>
      </trkpt>
      <trkpt lat="44.48894" lon="6.59085">
        <ele>2698</ele>
        <time>2021-04-07T08:54:05Z</time>
      </trkpt>
      <trkpt lat="44.48894" lon="6.59085">
        <ele>2698</ele>
        <time>2021-04-07T08:54:06Z</time>
      </trkpt>
      <trkpt lat="44.48894" lon="6.59085">
        <ele>2698</ele>
        <time>2021-04-07T08:54:07Z</time>
      </trkpt>
      <trkpt lat="44.48894" lon="6.59085">
        <ele>2698</ele>
        <time>2021-04-07T08:54:08Z</time>
      </trkpt>
      <trkpt lat="44.48894" lon="6.59085">
        <ele>2698</ele>
        <time>2021-04-07T08:54:09Z</time>
      </trkpt>
      <trkpt lat="44.48894" lon="6.59085">
        <ele>2698</ele>
        <time>2021-04-07T08:54:10Z</time>
      </trkpt>
      <trkpt lat="44.48894" lon="6.59085">
        <ele>2698</ele>
        <time>2021-04-07T08:54:11Z</time>
      </trkpt>
      <trkpt lat="44.48894" lon="6.59085">
        <ele>2698</ele>
        <time>2021-04-07T08:54:12Z</time>
      </trkpt>
      <trkpt lat="44.48894" lon="6.59085">
        <ele>2698</ele>
        <time>2021-04-07T08:54:13Z</time>
      </trkpt>
      <trkpt lat="44.48894" lon="6.59085">
        <ele>2698</ele>
        <time>2021-04-07T08:54:14Z</time>
      </trkpt>
      <trkpt lat="44.48894" lon="6.59085">
        <ele>2698</ele>
        <time>2021-04-07T08:54:15Z</time>
      </trkpt>
      <trkpt lat="44.48894" lon="6.59085">
        <ele>2698</ele>
        <time>2021-04-07T08:54:16Z</time>
      </trkpt>
      <trkpt lat="44.48894" lon="6.59085">
        <ele>2698</ele>
        <time>2021-04-07T08:54:17Z</time>
      </trkpt>
      <trkpt lat="44.48894" lon="6.59085">
        <ele>2698</ele>
        <time>2021-04-07T08:54:18Z</time>
      </trkpt>
      <trkpt lat="44.48894" lon="6.59085">
        <ele>2698</ele>
        <time>2021-04-07T08:54:19Z</time>
      </trkpt>
      <trkpt lat="44.48894" lon="6.59085">
        <ele>2698</ele>
        <time>2021-04-07T08:54:20Z</time>
      </trkpt>
      <trkpt lat="44.48894" lon="6.59085">
        <ele>2698</ele>
        <time>2021-04-07T08:54:21Z</time>
      </trkpt>
      <trkpt lat="44.48894" lon="6.59085">
        <ele>2698</ele>
        <time>2021-04-07T08:54:22Z</time>
      </trkpt>
      <trkpt lat="44.48894" lon="6.59085">
        <ele>2698</ele>
        <time>2021-04-07T08:54:23Z</time>
      </trkpt>
      <trkpt lat="44.48894" lon="6.59085">
        <ele>2698</ele>
        <time>2021-04-07T08:54:24Z</time>
      </trkpt>
      <trkpt lat="44.48894" lon="6.59085">
        <ele>2698</ele>
        <time>2021-04-07T08:54:25Z</time>
      </trkpt>
      <trkpt lat="44.48894" lon="6.59085">
        <ele>2698</ele>
        <time>2021-04-07T08:54:26Z</time>
      </trkpt>
      <trkpt lat="44.48894" lon="6.59085">
        <ele>2698</ele>
        <time>2021-04-07T08:54:27Z</time>
      </trkpt>
      <trkpt lat="44.48894" lon="6.59085">
        <ele>2698</ele>
        <time>2021-04-07T08:54:28Z</time>
      </trkpt>
      <trkpt lat="44.48894" lon="6.59085">
        <ele>2698</ele>
        <time>2021-04-07T08:54:29Z</time>
      </trkpt>
      <trkpt lat="44.48894" lon="6.59085">
        <ele>2698</ele>
        <time>2021-04-07T08:54:30Z</time>
      </trkpt>
      <trkpt lat="44.48894" lon="6.59085">
        <ele>2699</ele>
        <time>2021-04-07T08:54:31Z</time>
      </trkpt>
      <trkpt lat="44.48894" lon="6.59085">
        <ele>2699</ele>
        <time>2021-04-07T08:54:32Z</time>
      </trkpt>
      <trkpt lat="44.48894" lon="6.59085">
        <ele>2699</ele>
        <time>2021-04-07T08:54:33Z</time>
      </trkpt>
      <trkpt lat="44.48894" lon="6.59085">
        <ele>2699</ele>
        <time>2021-04-07T08:54:34Z</time>
      </trkpt>
      <trkpt lat="44.48894" lon="6.59085">
        <ele>2699</ele>
        <time>2021-04-07T08:54:35Z</time>
      </trkpt>
      <trkpt lat="44.48894" lon="6.59085">
        <ele>2699</ele>
        <time>2021-04-07T08:54:36Z</time>
      </trkpt>
      <trkpt lat="44.48894" lon="6.59085">
        <ele>2699</ele>
        <time>2021-04-07T08:54:37Z</time>
      </trkpt>
      <trkpt lat="44.48894" lon="6.59085">
        <ele>2699</ele>
        <time>2021-04-07T08:54:38Z</time>
      </trkpt>
      <trkpt lat="44.48894" lon="6.59085">
        <ele>2699</ele>
        <time>2021-04-07T08:54:39Z</time>
      </trkpt>
      <trkpt lat="44.48894" lon="6.59085">
        <ele>2699</ele>
        <time>2021-04-07T08:54:40Z</time>
      </trkpt>
      <trkpt lat="44.48894" lon="6.59085">
        <ele>2699</ele>
        <time>2021-04-07T08:54:41Z</time>
      </trkpt>
      <trkpt lat="44.48894" lon="6.59085">
        <ele>2699</ele>
        <time>2021-04-07T08:54:42Z</time>
      </trkpt>
      <trkpt lat="44.48894" lon="6.59085">
        <ele>2699</ele>
        <time>2021-04-07T08:54:43Z</time>
      </trkpt>
      <trkpt lat="44.48894" lon="6.59085">
        <ele>2699</ele>
        <time>2021-04-07T08:54:44Z</time>
      </trkpt>
      <trkpt lat="44.48894" lon="6.59085">
        <ele>2699</ele>
        <time>2021-04-07T08:54:45Z</time>
      </trkpt>
      <trkpt lat="44.48894" lon="6.59085">
        <ele>2699</ele>
        <time>2021-04-07T08:54:46Z</time>
      </trkpt>
      <trkpt lat="44.48894" lon="6.59085">
        <ele>2699</ele>
        <time>2021-04-07T08:54:47Z</time>
      </trkpt>
      <trkpt lat="44.48894" lon="6.59085">
        <ele>2699</ele>
        <time>2021-04-07T08:54:48Z</time>
      </trkpt>
      <trkpt lat="44.48894" lon="6.59085">
        <ele>2699</ele>
        <time>2021-04-07T08:54:49Z</time>
      </trkpt>
      <trkpt lat="44.48894" lon="6.59085">
        <ele>2699</ele>
        <time>2021-04-07T08:54:50Z</time>
      </trkpt>
      <trkpt lat="44.48894" lon="6.59085">
        <ele>2699</ele>
        <time>2021-04-07T08:54:51Z</time>
      </trkpt>
      <trkpt lat="44.48894" lon="6.59085">
        <ele>2699</ele>
        <time>2021-04-07T08:54:52Z</time>
      </trkpt>
      <trkpt lat="44.48894" lon="6.59085">
        <ele>2699</ele>
        <time>2021-04-07T08:54:53Z</time>
      </trkpt>
      <trkpt lat="44.48894" lon="6.59085">
        <ele>2699</ele>
        <time>2021-04-07T08:54:54Z</time>
      </trkpt>
      <trkpt lat="44.48894" lon="6.59085">
        <ele>2699</ele>
        <time>2021-04-07T08:54:55Z</time>
      </trkpt>
      <trkpt lat="44.48894" lon="6.59085">
        <ele>2699</ele>
        <time>2021-04-07T08:54:56Z</time>
      </trkpt>
      <trkpt lat="44.48894" lon="6.59085">
        <ele>2699</ele>
        <time>2021-04-07T08:54:57Z</time>
      </trkpt>
      <trkpt lat="44.48894" lon="6.59085">
        <ele>2699</ele>
        <time>2021-04-07T08:54:58Z</time>
      </trkpt>
      <trkpt lat="44.48894" lon="6.59083">
        <ele>2700</ele>
        <time>2021-04-07T08:54:59Z</time>
      </trkpt>
      <trkpt lat="44.48894" lon="6.59083">
        <ele>2700</ele>
        <time>2021-04-07T08:55:00Z</time>
      </trkpt>
      <trkpt lat="44.48895" lon="6.59083">
        <ele>2700</ele>
        <time>2021-04-07T08:55:01Z</time>
      </trkpt>
      <trkpt lat="44.48895" lon="6.59083">
        <ele>2700</ele>
        <time>2021-04-07T08:55:02Z</time>
      </trkpt>
      <trkpt lat="44.48895" lon="6.59083">
        <ele>2700</ele>
        <time>2021-04-07T08:55:03Z</time>
      </trkpt>
      <trkpt lat="44.48895" lon="6.59083">
        <ele>2700</ele>
        <time>2021-04-07T08:55:04Z</time>
      </trkpt>
      <trkpt lat="44.48895" lon="6.59083">
        <ele>2700</ele>
        <time>2021-04-07T08:55:05Z</time>
      </trkpt>
      <trkpt lat="44.48895" lon="6.59083">
        <ele>2700</ele>
        <time>2021-04-07T08:55:06Z</time>
      </trkpt>
      <trkpt lat="44.48895" lon="6.59083">
        <ele>2700</ele>
        <time>2021-04-07T08:55:07Z</time>
      </trkpt>
      <trkpt lat="44.48895" lon="6.59084">
        <ele>2700</ele>
        <time>2021-04-07T08:55:08Z</time>
      </trkpt>
      <trkpt lat="44.48895" lon="6.59085">
        <ele>2700</ele>
        <time>2021-04-07T08:55:09Z</time>
      </trkpt>
      <trkpt lat="44.48896" lon="6.59085">
        <ele>2700</ele>
        <time>2021-04-07T08:55:10Z</time>
      </trkpt>
      <trkpt lat="44.48896" lon="6.59085">
        <ele>2700</ele>
        <time>2021-04-07T08:55:11Z</time>
      </trkpt>
      <trkpt lat="44.48896" lon="6.59085">
        <ele>2700</ele>
        <time>2021-04-07T08:55:12Z</time>
      </trkpt>
      <trkpt lat="44.48896" lon="6.59085">
        <ele>2700</ele>
        <time>2021-04-07T08:55:13Z</time>
      </trkpt>
      <trkpt lat="44.48896" lon="6.59085">
        <ele>2700</ele>
        <time>2021-04-07T08:55:14Z</time>
      </trkpt>
      <trkpt lat="44.48896" lon="6.59085">
        <ele>2700</ele>
        <time>2021-04-07T08:55:15Z</time>
      </trkpt>
      <trkpt lat="44.48896" lon="6.59085">
        <ele>2700</ele>
        <time>2021-04-07T08:55:16Z</time>
      </trkpt>
      <trkpt lat="44.48896" lon="6.59085">
        <ele>2699</ele>
        <time>2021-04-07T08:55:17Z</time>
      </trkpt>
      <trkpt lat="44.48896" lon="6.59085">
        <ele>2699</ele>
        <time>2021-04-07T08:55:18Z</time>
      </trkpt>
      <trkpt lat="44.48896" lon="6.59085">
        <ele>2699</ele>
        <time>2021-04-07T08:55:19Z</time>
      </trkpt>
      <trkpt lat="44.48896" lon="6.59085">
        <ele>2699</ele>
        <time>2021-04-07T08:55:20Z</time>
      </trkpt>
      <trkpt lat="44.48896" lon="6.59085">
        <ele>2699</ele>
        <time>2021-04-07T08:55:21Z</time>
      </trkpt>
      <trkpt lat="44.48896" lon="6.59086">
        <ele>2699</ele>
        <time>2021-04-07T08:55:22Z</time>
      </trkpt>
      <trkpt lat="44.48896" lon="6.59086">
        <ele>2699</ele>
        <time>2021-04-07T08:55:23Z</time>
      </trkpt>
      <trkpt lat="44.48896" lon="6.59086">
        <ele>2699</ele>
        <time>2021-04-07T08:55:24Z</time>
      </trkpt>
      <trkpt lat="44.48896" lon="6.59086">
        <ele>2699</ele>
        <time>2021-04-07T08:55:25Z</time>
      </trkpt>
      <trkpt lat="44.48896" lon="6.59086">
        <ele>2699</ele>
        <time>2021-04-07T08:55:26Z</time>
      </trkpt>
      <trkpt lat="44.48896" lon="6.59086">
        <ele>2699</ele>
        <time>2021-04-07T08:55:27Z</time>
      </trkpt>
      <trkpt lat="44.48896" lon="6.59086">
        <ele>2699</ele>
        <time>2021-04-07T08:55:28Z</time>
      </trkpt>
      <trkpt lat="44.48896" lon="6.59086">
        <ele>2699</ele>
        <time>2021-04-07T08:55:29Z</time>
      </trkpt>
      <trkpt lat="44.48896" lon="6.59086">
        <ele>2699</ele>
        <time>2021-04-07T08:55:30Z</time>
      </trkpt>
      <trkpt lat="44.48896" lon="6.59086">
        <ele>2699</ele>
        <time>2021-04-07T08:55:31Z</time>
      </trkpt>
      <trkpt lat="44.48896" lon="6.59086">
        <ele>2699</ele>
        <time>2021-04-07T08:55:32Z</time>
      </trkpt>
      <trkpt lat="44.48896" lon="6.59086">
        <ele>2699</ele>
        <time>2021-04-07T08:55:33Z</time>
      </trkpt>
      <trkpt lat="44.48896" lon="6.59086">
        <ele>2699</ele>
        <time>2021-04-07T08:55:34Z</time>
      </trkpt>
      <trkpt lat="44.48896" lon="6.59086">
        <ele>2699</ele>
        <time>2021-04-07T08:55:35Z</time>
      </trkpt>
      <trkpt lat="44.48896" lon="6.59086">
        <ele>2699</ele>
        <time>2021-04-07T08:55:36Z</time>
      </trkpt>
      <trkpt lat="44.48896" lon="6.59086">
        <ele>2699</ele>
        <time>2021-04-07T08:55:37Z</time>
      </trkpt>
      <trkpt lat="44.48896" lon="6.59086">
        <ele>2699</ele>
        <time>2021-04-07T08:55:38Z</time>
      </trkpt>
      <trkpt lat="44.48896" lon="6.59086">
        <ele>2699</ele>
        <time>2021-04-07T08:55:39Z</time>
      </trkpt>
      <trkpt lat="44.48896" lon="6.59086">
        <ele>2699</ele>
        <time>2021-04-07T08:55:40Z</time>
      </trkpt>
      <trkpt lat="44.48896" lon="6.59086">
        <ele>2699</ele>
        <time>2021-04-07T08:55:41Z</time>
      </trkpt>
      <trkpt lat="44.48896" lon="6.59086">
        <ele>2699</ele>
        <time>2021-04-07T08:55:42Z</time>
      </trkpt>
      <trkpt lat="44.48896" lon="6.59086">
        <ele>2699</ele>
        <time>2021-04-07T08:55:43Z</time>
      </trkpt>
      <trkpt lat="44.48896" lon="6.59086">
        <ele>2699</ele>
        <time>2021-04-07T08:55:44Z</time>
      </trkpt>
      <trkpt lat="44.48896" lon="6.59086">
        <ele>2699</ele>
        <time>2021-04-07T08:55:45Z</time>
      </trkpt>
      <trkpt lat="44.48896" lon="6.59086">
        <ele>2699</ele>
        <time>2021-04-07T08:55:46Z</time>
      </trkpt>
      <trkpt lat="44.48896" lon="6.59086">
        <ele>2699</ele>
        <time>2021-04-07T08:55:47Z</time>
      </trkpt>
      <trkpt lat="44.48896" lon="6.59086">
        <ele>2699</ele>
        <time>2021-04-07T08:55:48Z</time>
      </trkpt>
      <trkpt lat="44.48896" lon="6.59086">
        <ele>2699</ele>
        <time>2021-04-07T08:55:49Z</time>
      </trkpt>
      <trkpt lat="44.48896" lon="6.59086">
        <ele>2699</ele>
        <time>2021-04-07T08:55:50Z</time>
      </trkpt>
      <trkpt lat="44.48896" lon="6.59086">
        <ele>2699</ele>
        <time>2021-04-07T08:55:51Z</time>
      </trkpt>
      <trkpt lat="44.48896" lon="6.59086">
        <ele>2699</ele>
        <time>2021-04-07T08:55:52Z</time>
      </trkpt>
      <trkpt lat="44.48896" lon="6.59086">
        <ele>2699</ele>
        <time>2021-04-07T08:55:53Z</time>
      </trkpt>
      <trkpt lat="44.48896" lon="6.59086">
        <ele>2699</ele>
        <time>2021-04-07T08:55:54Z</time>
      </trkpt>
      <trkpt lat="44.48896" lon="6.59086">
        <ele>2699</ele>
        <time>2021-04-07T08:55:55Z</time>
      </trkpt>
      <trkpt lat="44.48896" lon="6.59086">
        <ele>2699</ele>
        <time>2021-04-07T08:55:56Z</time>
      </trkpt>
      <trkpt lat="44.48896" lon="6.59086">
        <ele>2699</ele>
        <time>2021-04-07T08:55:57Z</time>
      </trkpt>
      <trkpt lat="44.48896" lon="6.59086">
        <ele>2699</ele>
        <time>2021-04-07T08:55:58Z</time>
      </trkpt>
      <trkpt lat="44.48896" lon="6.59086">
        <ele>2699</ele>
        <time>2021-04-07T08:55:59Z</time>
      </trkpt>
      <trkpt lat="44.48896" lon="6.59086">
        <ele>2699</ele>
        <time>2021-04-07T08:56:00Z</time>
      </trkpt>
      <trkpt lat="44.48896" lon="6.59086">
        <ele>2699</ele>
        <time>2021-04-07T08:56:01Z</time>
      </trkpt>
      <trkpt lat="44.48896" lon="6.59086">
        <ele>2699</ele>
        <time>2021-04-07T08:56:02Z</time>
      </trkpt>
      <trkpt lat="44.48896" lon="6.59086">
        <ele>2699</ele>
        <time>2021-04-07T08:56:03Z</time>
      </trkpt>
      <trkpt lat="44.48896" lon="6.59086">
        <ele>2699</ele>
        <time>2021-04-07T08:56:04Z</time>
      </trkpt>
      <trkpt lat="44.48896" lon="6.59086">
        <ele>2699</ele>
        <time>2021-04-07T08:56:05Z</time>
      </trkpt>
      <trkpt lat="44.48896" lon="6.59086">
        <ele>2699</ele>
        <time>2021-04-07T08:56:06Z</time>
      </trkpt>
      <trkpt lat="44.48896" lon="6.59086">
        <ele>2699</ele>
        <time>2021-04-07T08:56:07Z</time>
      </trkpt>
      <trkpt lat="44.48896" lon="6.59086">
        <ele>2699</ele>
        <time>2021-04-07T08:56:08Z</time>
      </trkpt>
      <trkpt lat="44.48896" lon="6.59086">
        <ele>2699</ele>
        <time>2021-04-07T08:56:09Z</time>
      </trkpt>
      <trkpt lat="44.48896" lon="6.59086">
        <ele>2699</ele>
        <time>2021-04-07T08:56:10Z</time>
      </trkpt>
      <trkpt lat="44.48896" lon="6.59086">
        <ele>2699</ele>
        <time>2021-04-07T08:56:11Z</time>
      </trkpt>
      <trkpt lat="44.48896" lon="6.59086">
        <ele>2699</ele>
        <time>2021-04-07T08:56:12Z</time>
      </trkpt>
      <trkpt lat="44.48896" lon="6.59086">
        <ele>2699</ele>
        <time>2021-04-07T08:56:13Z</time>
      </trkpt>
      <trkpt lat="44.48896" lon="6.59086">
        <ele>2699</ele>
        <time>2021-04-07T08:56:14Z</time>
      </trkpt>
      <trkpt lat="44.48896" lon="6.59086">
        <ele>2699</ele>
        <time>2021-04-07T08:56:15Z</time>
      </trkpt>
      <trkpt lat="44.48896" lon="6.59086">
        <ele>2699</ele>
        <time>2021-04-07T08:56:16Z</time>
      </trkpt>
      <trkpt lat="44.48896" lon="6.59086">
        <ele>2699</ele>
        <time>2021-04-07T08:56:17Z</time>
      </trkpt>
      <trkpt lat="44.48896" lon="6.59086">
        <ele>2699</ele>
        <time>2021-04-07T08:56:18Z</time>
      </trkpt>
      <trkpt lat="44.48896" lon="6.59086">
        <ele>2699</ele>
        <time>2021-04-07T08:56:19Z</time>
      </trkpt>
      <trkpt lat="44.48896" lon="6.59086">
        <ele>2699</ele>
        <time>2021-04-07T08:56:20Z</time>
      </trkpt>
      <trkpt lat="44.48896" lon="6.59086">
        <ele>2699</ele>
        <time>2021-04-07T08:56:21Z</time>
      </trkpt>
      <trkpt lat="44.48896" lon="6.59086">
        <ele>2699</ele>
        <time>2021-04-07T08:56:22Z</time>
      </trkpt>
      <trkpt lat="44.48896" lon="6.59086">
        <ele>2699</ele>
        <time>2021-04-07T08:56:23Z</time>
      </trkpt>
      <trkpt lat="44.48896" lon="6.59086">
        <ele>2699</ele>
        <time>2021-04-07T08:56:24Z</time>
      </trkpt>
      <trkpt lat="44.48892" lon="6.59083">
        <ele>2699</ele>
        <time>2021-04-07T08:56:25Z</time>
      </trkpt>
      <trkpt lat="44.48892" lon="6.59082">
        <ele>2699</ele>
        <time>2021-04-07T08:56:26Z</time>
      </trkpt>
      <trkpt lat="44.48892" lon="6.59082">
        <ele>2700</ele>
        <time>2021-04-07T08:56:27Z</time>
      </trkpt>
      <trkpt lat="44.48892" lon="6.59082">
        <ele>2700</ele>
        <time>2021-04-07T08:56:28Z</time>
      </trkpt>
      <trkpt lat="44.48892" lon="6.59082">
        <ele>2700</ele>
        <time>2021-04-07T08:56:29Z</time>
      </trkpt>
      <trkpt lat="44.48892" lon="6.59082">
        <ele>2700</ele>
        <time>2021-04-07T08:56:30Z</time>
      </trkpt>
      <trkpt lat="44.48894" lon="6.59082">
        <ele>2700</ele>
        <time>2021-04-07T08:56:31Z</time>
      </trkpt>
      <trkpt lat="44.48894" lon="6.59082">
        <ele>2700</ele>
        <time>2021-04-07T08:56:32Z</time>
      </trkpt>
      <trkpt lat="44.48895" lon="6.59082">
        <ele>2700</ele>
        <time>2021-04-07T08:56:33Z</time>
      </trkpt>
      <trkpt lat="44.48895" lon="6.59082">
        <ele>2700</ele>
        <time>2021-04-07T08:56:34Z</time>
      </trkpt>
      <trkpt lat="44.48895" lon="6.59082">
        <ele>2700</ele>
        <time>2021-04-07T08:56:35Z</time>
      </trkpt>
      <trkpt lat="44.48895" lon="6.59082">
        <ele>2700</ele>
        <time>2021-04-07T08:56:36Z</time>
      </trkpt>
      <trkpt lat="44.48895" lon="6.59082">
        <ele>2700</ele>
        <time>2021-04-07T08:56:37Z</time>
      </trkpt>
      <trkpt lat="44.48895" lon="6.59082">
        <ele>2700</ele>
        <time>2021-04-07T08:56:38Z</time>
      </trkpt>
      <trkpt lat="44.48895" lon="6.59082">
        <ele>2700</ele>
        <time>2021-04-07T08:56:39Z</time>
      </trkpt>
      <trkpt lat="44.48895" lon="6.59082">
        <ele>2700</ele>
        <time>2021-04-07T08:56:40Z</time>
      </trkpt>
      <trkpt lat="44.48895" lon="6.59082">
        <ele>2700</ele>
        <time>2021-04-07T08:56:41Z</time>
      </trkpt>
      <trkpt lat="44.48895" lon="6.59082">
        <ele>2700</ele>
        <time>2021-04-07T08:56:42Z</time>
      </trkpt>
      <trkpt lat="44.48895" lon="6.59082">
        <ele>2700</ele>
        <time>2021-04-07T08:56:43Z</time>
      </trkpt>
      <trkpt lat="44.48895" lon="6.59082">
        <ele>2700</ele>
        <time>2021-04-07T08:56:44Z</time>
      </trkpt>
      <trkpt lat="44.48895" lon="6.59082">
        <ele>2700</ele>
        <time>2021-04-07T08:56:45Z</time>
      </trkpt>
      <trkpt lat="44.48895" lon="6.59082">
        <ele>2700</ele>
        <time>2021-04-07T08:56:46Z</time>
      </trkpt>
      <trkpt lat="44.48895" lon="6.59082">
        <ele>2700</ele>
        <time>2021-04-07T08:56:47Z</time>
      </trkpt>
      <trkpt lat="44.48895" lon="6.59082">
        <ele>2700</ele>
        <time>2021-04-07T08:56:48Z</time>
      </trkpt>
      <trkpt lat="44.48895" lon="6.59082">
        <ele>2700</ele>
        <time>2021-04-07T08:56:49Z</time>
      </trkpt>
      <trkpt lat="44.48895" lon="6.59082">
        <ele>2700</ele>
        <time>2021-04-07T08:56:50Z</time>
      </trkpt>
      <trkpt lat="44.48895" lon="6.59082">
        <ele>2700</ele>
        <time>2021-04-07T08:56:51Z</time>
      </trkpt>
      <trkpt lat="44.48895" lon="6.59082">
        <ele>2700</ele>
        <time>2021-04-07T08:56:52Z</time>
      </trkpt>
      <trkpt lat="44.48895" lon="6.59082">
        <ele>2700</ele>
        <time>2021-04-07T08:56:53Z</time>
      </trkpt>
      <trkpt lat="44.48895" lon="6.59082">
        <ele>2700</ele>
        <time>2021-04-07T08:56:54Z</time>
      </trkpt>
      <trkpt lat="44.48895" lon="6.59082">
        <ele>2700</ele>
        <time>2021-04-07T08:56:55Z</time>
      </trkpt>
      <trkpt lat="44.48895" lon="6.59082">
        <ele>2700</ele>
        <time>2021-04-07T08:56:56Z</time>
      </trkpt>
      <trkpt lat="44.48895" lon="6.59082">
        <ele>2700</ele>
        <time>2021-04-07T08:56:57Z</time>
      </trkpt>
      <trkpt lat="44.48895" lon="6.59082">
        <ele>2700</ele>
        <time>2021-04-07T08:56:58Z</time>
      </trkpt>
      <trkpt lat="44.48895" lon="6.59082">
        <ele>2700</ele>
        <time>2021-04-07T08:56:59Z</time>
      </trkpt>
      <trkpt lat="44.48895" lon="6.59082">
        <ele>2700</ele>
        <time>2021-04-07T08:57:00Z</time>
      </trkpt>
      <trkpt lat="44.48895" lon="6.59082">
        <ele>2700</ele>
        <time>2021-04-07T08:57:01Z</time>
      </trkpt>
      <trkpt lat="44.48895" lon="6.59082">
        <ele>2700</ele>
        <time>2021-04-07T08:57:02Z</time>
      </trkpt>
      <trkpt lat="44.48895" lon="6.59082">
        <ele>2700</ele>
        <time>2021-04-07T08:57:03Z</time>
      </trkpt>
      <trkpt lat="44.48895" lon="6.59082">
        <ele>2700</ele>
        <time>2021-04-07T08:57:04Z</time>
      </trkpt>
      <trkpt lat="44.48895" lon="6.59082">
        <ele>2700</ele>
        <time>2021-04-07T08:57:05Z</time>
      </trkpt>
      <trkpt lat="44.48895" lon="6.59082">
        <ele>2700</ele>
        <time>2021-04-07T08:57:06Z</time>
      </trkpt>
      <trkpt lat="44.48895" lon="6.59082">
        <ele>2700</ele>
        <time>2021-04-07T08:57:07Z</time>
      </trkpt>
      <trkpt lat="44.48895" lon="6.59082">
        <ele>2700</ele>
        <time>2021-04-07T08:57:08Z</time>
      </trkpt>
      <trkpt lat="44.48895" lon="6.59082">
        <ele>2700</ele>
        <time>2021-04-07T08:57:09Z</time>
      </trkpt>
      <trkpt lat="44.48895" lon="6.59082">
        <ele>2700</ele>
        <time>2021-04-07T08:57:10Z</time>
      </trkpt>
      <trkpt lat="44.48895" lon="6.59082">
        <ele>2700</ele>
        <time>2021-04-07T08:57:11Z</time>
      </trkpt>
      <trkpt lat="44.48895" lon="6.59082">
        <ele>2700</ele>
        <time>2021-04-07T08:57:12Z</time>
      </trkpt>
      <trkpt lat="44.48895" lon="6.59082">
        <ele>2700</ele>
        <time>2021-04-07T08:57:13Z</time>
      </trkpt>
      <trkpt lat="44.48895" lon="6.59082">
        <ele>2700</ele>
        <time>2021-04-07T08:57:14Z</time>
      </trkpt>
      <trkpt lat="44.48895" lon="6.59082">
        <ele>2700</ele>
        <time>2021-04-07T08:57:15Z</time>
      </trkpt>
      <trkpt lat="44.48895" lon="6.59082">
        <ele>2700</ele>
        <time>2021-04-07T08:57:16Z</time>
      </trkpt>
      <trkpt lat="44.48895" lon="6.59082">
        <ele>2700</ele>
        <time>2021-04-07T08:57:17Z</time>
      </trkpt>
      <trkpt lat="44.48895" lon="6.59082">
        <ele>2700</ele>
        <time>2021-04-07T08:57:18Z</time>
      </trkpt>
      <trkpt lat="44.48895" lon="6.59082">
        <ele>2700</ele>
        <time>2021-04-07T08:57:19Z</time>
      </trkpt>
      <trkpt lat="44.48895" lon="6.59082">
        <ele>2700</ele>
        <time>2021-04-07T08:57:20Z</time>
      </trkpt>
      <trkpt lat="44.48895" lon="6.59082">
        <ele>2700</ele>
        <time>2021-04-07T08:57:21Z</time>
      </trkpt>
      <trkpt lat="44.48895" lon="6.59082">
        <ele>2700</ele>
        <time>2021-04-07T08:57:22Z</time>
      </trkpt>
      <trkpt lat="44.48895" lon="6.59082">
        <ele>2700</ele>
        <time>2021-04-07T08:57:23Z</time>
      </trkpt>
      <trkpt lat="44.48895" lon="6.59082">
        <ele>2700</ele>
        <time>2021-04-07T08:57:24Z</time>
      </trkpt>
      <trkpt lat="44.48895" lon="6.59082">
        <ele>2700</ele>
        <time>2021-04-07T08:57:25Z</time>
      </trkpt>
      <trkpt lat="44.48895" lon="6.59082">
        <ele>2700</ele>
        <time>2021-04-07T08:57:26Z</time>
      </trkpt>
      <trkpt lat="44.48895" lon="6.59082">
        <ele>2700</ele>
        <time>2021-04-07T08:57:27Z</time>
      </trkpt>
      <trkpt lat="44.48895" lon="6.59082">
        <ele>2700</ele>
        <time>2021-04-07T08:57:28Z</time>
      </trkpt>
      <trkpt lat="44.48895" lon="6.59082">
        <ele>2700</ele>
        <time>2021-04-07T08:57:29Z</time>
      </trkpt>
      <trkpt lat="44.48895" lon="6.59082">
        <ele>2700</ele>
        <time>2021-04-07T08:57:30Z</time>
      </trkpt>
      <trkpt lat="44.48895" lon="6.59082">
        <ele>2700</ele>
        <time>2021-04-07T08:57:31Z</time>
      </trkpt>
      <trkpt lat="44.48895" lon="6.59082">
        <ele>2700</ele>
        <time>2021-04-07T08:57:32Z</time>
      </trkpt>
      <trkpt lat="44.48895" lon="6.59082">
        <ele>2700</ele>
        <time>2021-04-07T08:57:33Z</time>
      </trkpt>
      <trkpt lat="44.48895" lon="6.59082">
        <ele>2700</ele>
        <time>2021-04-07T08:57:34Z</time>
      </trkpt>
      <trkpt lat="44.48895" lon="6.59082">
        <ele>2700</ele>
        <time>2021-04-07T08:57:35Z</time>
      </trkpt>
      <trkpt lat="44.48895" lon="6.59082">
        <ele>2700</ele>
        <time>2021-04-07T08:57:36Z</time>
      </trkpt>
      <trkpt lat="44.48895" lon="6.59082">
        <ele>2700</ele>
        <time>2021-04-07T08:57:37Z</time>
      </trkpt>
      <trkpt lat="44.48895" lon="6.59082">
        <ele>2700</ele>
        <time>2021-04-07T08:57:38Z</time>
      </trkpt>
      <trkpt lat="44.48895" lon="6.59082">
        <ele>2700</ele>
        <time>2021-04-07T08:57:39Z</time>
      </trkpt>
      <trkpt lat="44.48895" lon="6.59082">
        <ele>2700</ele>
        <time>2021-04-07T08:57:40Z</time>
      </trkpt>
      <trkpt lat="44.48895" lon="6.59082">
        <ele>2700</ele>
        <time>2021-04-07T08:57:41Z</time>
      </trkpt>
      <trkpt lat="44.48895" lon="6.59082">
        <ele>2700</ele>
        <time>2021-04-07T08:57:42Z</time>
      </trkpt>
      <trkpt lat="44.48895" lon="6.59082">
        <ele>2700</ele>
        <time>2021-04-07T08:57:43Z</time>
      </trkpt>
      <trkpt lat="44.48896" lon="6.59086">
        <ele>2700</ele>
        <time>2021-04-07T08:57:44Z</time>
      </trkpt>
      <trkpt lat="44.48897" lon="6.59086">
        <ele>2700</ele>
        <time>2021-04-07T08:57:45Z</time>
      </trkpt>
      <trkpt lat="44.48896" lon="6.59086">
        <ele>2700</ele>
        <time>2021-04-07T08:57:46Z</time>
      </trkpt>
      <trkpt lat="44.48897" lon="6.59087">
        <ele>2700</ele>
        <time>2021-04-07T08:57:47Z</time>
      </trkpt>
      <trkpt lat="44.48897" lon="6.59087">
        <ele>2700</ele>
        <time>2021-04-07T08:57:48Z</time>
      </trkpt>
      <trkpt lat="44.48897" lon="6.59087">
        <ele>2700</ele>
        <time>2021-04-07T08:57:49Z</time>
      </trkpt>
      <trkpt lat="44.48897" lon="6.59087">
        <ele>2700</ele>
        <time>2021-04-07T08:57:50Z</time>
      </trkpt>
      <trkpt lat="44.48897" lon="6.59087">
        <ele>2700</ele>
        <time>2021-04-07T08:57:51Z</time>
      </trkpt>
      <trkpt lat="44.48897" lon="6.59087">
        <ele>2700</ele>
        <time>2021-04-07T08:57:52Z</time>
      </trkpt>
      <trkpt lat="44.48896" lon="6.59086">
        <ele>2700</ele>
        <time>2021-04-07T08:57:53Z</time>
      </trkpt>
      <trkpt lat="44.48896" lon="6.59086">
        <ele>2700</ele>
        <time>2021-04-07T08:57:54Z</time>
      </trkpt>
      <trkpt lat="44.48896" lon="6.59085">
        <ele>2700</ele>
        <time>2021-04-07T08:57:55Z</time>
      </trkpt>
      <trkpt lat="44.48896" lon="6.59085">
        <ele>2700</ele>
        <time>2021-04-07T08:57:56Z</time>
      </trkpt>
      <trkpt lat="44.48896" lon="6.59085">
        <ele>2700</ele>
        <time>2021-04-07T08:57:57Z</time>
      </trkpt>
      <trkpt lat="44.48896" lon="6.59085">
        <ele>2700</ele>
        <time>2021-04-07T08:57:58Z</time>
      </trkpt>
      <trkpt lat="44.48896" lon="6.59085">
        <ele>2700</ele>
        <time>2021-04-07T08:57:59Z</time>
      </trkpt>
      <trkpt lat="44.48896" lon="6.59085">
        <ele>2700</ele>
        <time>2021-04-07T08:58:00Z</time>
      </trkpt>
      <trkpt lat="44.48896" lon="6.59085">
        <ele>2700</ele>
        <time>2021-04-07T08:58:01Z</time>
      </trkpt>
      <trkpt lat="44.48896" lon="6.59085">
        <ele>2700</ele>
        <time>2021-04-07T08:58:02Z</time>
      </trkpt>
      <trkpt lat="44.48896" lon="6.59085">
        <ele>2700</ele>
        <time>2021-04-07T08:58:03Z</time>
      </trkpt>
      <trkpt lat="44.48896" lon="6.59085">
        <ele>2700</ele>
        <time>2021-04-07T08:58:04Z</time>
      </trkpt>
      <trkpt lat="44.48896" lon="6.59085">
        <ele>2700</ele>
        <time>2021-04-07T08:58:05Z</time>
      </trkpt>
      <trkpt lat="44.48896" lon="6.59085">
        <ele>2700</ele>
        <time>2021-04-07T08:58:06Z</time>
      </trkpt>
      <trkpt lat="44.48896" lon="6.59085">
        <ele>2700</ele>
        <time>2021-04-07T08:58:07Z</time>
      </trkpt>
      <trkpt lat="44.48896" lon="6.59085">
        <ele>2700</ele>
        <time>2021-04-07T08:58:08Z</time>
      </trkpt>
      <trkpt lat="44.48896" lon="6.59085">
        <ele>2701</ele>
        <time>2021-04-07T08:58:09Z</time>
      </trkpt>
      <trkpt lat="44.48896" lon="6.59085">
        <ele>2701</ele>
        <time>2021-04-07T08:58:10Z</time>
      </trkpt>
      <trkpt lat="44.48896" lon="6.59085">
        <ele>2701</ele>
        <time>2021-04-07T08:58:11Z</time>
      </trkpt>
      <trkpt lat="44.48896" lon="6.59085">
        <ele>2701</ele>
        <time>2021-04-07T08:58:12Z</time>
      </trkpt>
      <trkpt lat="44.48896" lon="6.59085">
        <ele>2701</ele>
        <time>2021-04-07T08:58:13Z</time>
      </trkpt>
      <trkpt lat="44.48896" lon="6.59085">
        <ele>2701</ele>
        <time>2021-04-07T08:58:14Z</time>
      </trkpt>
      <trkpt lat="44.48896" lon="6.59085">
        <ele>2701</ele>
        <time>2021-04-07T08:58:15Z</time>
      </trkpt>
      <trkpt lat="44.48896" lon="6.59085">
        <ele>2701</ele>
        <time>2021-04-07T08:58:16Z</time>
      </trkpt>
      <trkpt lat="44.48896" lon="6.59085">
        <ele>2701</ele>
        <time>2021-04-07T08:58:17Z</time>
      </trkpt>
      <trkpt lat="44.48896" lon="6.59085">
        <ele>2701</ele>
        <time>2021-04-07T08:58:18Z</time>
      </trkpt>
      <trkpt lat="44.48896" lon="6.59085">
        <ele>2701</ele>
        <time>2021-04-07T08:58:19Z</time>
      </trkpt>
      <trkpt lat="44.48897" lon="6.59085">
        <ele>2701</ele>
        <time>2021-04-07T08:58:20Z</time>
      </trkpt>
      <trkpt lat="44.48897" lon="6.59085">
        <ele>2701</ele>
        <time>2021-04-07T08:58:21Z</time>
      </trkpt>
      <trkpt lat="44.48897" lon="6.59085">
        <ele>2701</ele>
        <time>2021-04-07T08:58:22Z</time>
      </trkpt>
      <trkpt lat="44.48897" lon="6.59085">
        <ele>2701</ele>
        <time>2021-04-07T08:58:23Z</time>
      </trkpt>
      <trkpt lat="44.48897" lon="6.59085">
        <ele>2701</ele>
        <time>2021-04-07T08:58:24Z</time>
      </trkpt>
      <trkpt lat="44.48897" lon="6.59085">
        <ele>2701</ele>
        <time>2021-04-07T08:58:25Z</time>
      </trkpt>
      <trkpt lat="44.48897" lon="6.59085">
        <ele>2701</ele>
        <time>2021-04-07T08:58:26Z</time>
      </trkpt>
      <trkpt lat="44.48897" lon="6.59085">
        <ele>2700</ele>
        <time>2021-04-07T08:58:27Z</time>
      </trkpt>
      <trkpt lat="44.48896" lon="6.59085">
        <ele>2700</ele>
        <time>2021-04-07T08:58:28Z</time>
      </trkpt>
      <trkpt lat="44.48896" lon="6.59085">
        <ele>2700</ele>
        <time>2021-04-07T08:58:29Z</time>
      </trkpt>
      <trkpt lat="44.48896" lon="6.59085">
        <ele>2700</ele>
        <time>2021-04-07T08:58:30Z</time>
      </trkpt>
      <trkpt lat="44.48896" lon="6.59086">
        <ele>2700</ele>
        <time>2021-04-07T08:58:31Z</time>
      </trkpt>
      <trkpt lat="44.48896" lon="6.59086">
        <ele>2700</ele>
        <time>2021-04-07T08:58:32Z</time>
      </trkpt>
      <trkpt lat="44.48896" lon="6.59086">
        <ele>2700</ele>
        <time>2021-04-07T08:58:33Z</time>
      </trkpt>
      <trkpt lat="44.48896" lon="6.59086">
        <ele>2700</ele>
        <time>2021-04-07T08:58:34Z</time>
      </trkpt>
      <trkpt lat="44.48896" lon="6.59086">
        <ele>2700</ele>
        <time>2021-04-07T08:58:35Z</time>
      </trkpt>
      <trkpt lat="44.48896" lon="6.59086">
        <ele>2700</ele>
        <time>2021-04-07T08:58:36Z</time>
      </trkpt>
      <trkpt lat="44.48896" lon="6.59086">
        <ele>2700</ele>
        <time>2021-04-07T08:58:37Z</time>
      </trkpt>
      <trkpt lat="44.48896" lon="6.59086">
        <ele>2700</ele>
        <time>2021-04-07T08:58:38Z</time>
      </trkpt>
      <trkpt lat="44.48896" lon="6.59086">
        <ele>2700</ele>
        <time>2021-04-07T08:58:39Z</time>
      </trkpt>
      <trkpt lat="44.48896" lon="6.59086">
        <ele>2700</ele>
        <time>2021-04-07T08:58:40Z</time>
      </trkpt>
      <trkpt lat="44.48896" lon="6.59086">
        <ele>2700</ele>
        <time>2021-04-07T08:58:41Z</time>
      </trkpt>
      <trkpt lat="44.48896" lon="6.59086">
        <ele>2700</ele>
        <time>2021-04-07T08:58:42Z</time>
      </trkpt>
      <trkpt lat="44.48896" lon="6.59086">
        <ele>2700</ele>
        <time>2021-04-07T08:58:43Z</time>
      </trkpt>
      <trkpt lat="44.48896" lon="6.59086">
        <ele>2700</ele>
        <time>2021-04-07T08:58:44Z</time>
      </trkpt>
      <trkpt lat="44.48896" lon="6.59086">
        <ele>2700</ele>
        <time>2021-04-07T08:58:45Z</time>
      </trkpt>
      <trkpt lat="44.48896" lon="6.59086">
        <ele>2700</ele>
        <time>2021-04-07T08:58:46Z</time>
      </trkpt>
      <trkpt lat="44.48896" lon="6.59086">
        <ele>2700</ele>
        <time>2021-04-07T08:58:47Z</time>
      </trkpt>
      <trkpt lat="44.48896" lon="6.59086">
        <ele>2700</ele>
        <time>2021-04-07T08:58:48Z</time>
      </trkpt>
      <trkpt lat="44.48896" lon="6.59086">
        <ele>2700</ele>
        <time>2021-04-07T08:58:49Z</time>
      </trkpt>
      <trkpt lat="44.48896" lon="6.59086">
        <ele>2700</ele>
        <time>2021-04-07T08:58:50Z</time>
      </trkpt>
      <trkpt lat="44.48896" lon="6.59086">
        <ele>2700</ele>
        <time>2021-04-07T08:58:51Z</time>
      </trkpt>
      <trkpt lat="44.48896" lon="6.59086">
        <ele>2700</ele>
        <time>2021-04-07T08:58:52Z</time>
      </trkpt>
      <trkpt lat="44.48896" lon="6.59086">
        <ele>2700</ele>
        <time>2021-04-07T08:58:53Z</time>
      </trkpt>
      <trkpt lat="44.48896" lon="6.59086">
        <ele>2700</ele>
        <time>2021-04-07T08:58:54Z</time>
      </trkpt>
      <trkpt lat="44.48896" lon="6.59086">
        <ele>2700</ele>
        <time>2021-04-07T08:58:55Z</time>
      </trkpt>
      <trkpt lat="44.48896" lon="6.59086">
        <ele>2700</ele>
        <time>2021-04-07T08:58:56Z</time>
      </trkpt>
      <trkpt lat="44.48896" lon="6.59086">
        <ele>2700</ele>
        <time>2021-04-07T08:58:57Z</time>
      </trkpt>
      <trkpt lat="44.48896" lon="6.59086">
        <ele>2700</ele>
        <time>2021-04-07T08:58:58Z</time>
      </trkpt>
      <trkpt lat="44.48896" lon="6.59086">
        <ele>2700</ele>
        <time>2021-04-07T08:58:59Z</time>
      </trkpt>
      <trkpt lat="44.48896" lon="6.59086">
        <ele>2700</ele>
        <time>2021-04-07T08:59:00Z</time>
      </trkpt>
      <trkpt lat="44.48896" lon="6.59086">
        <ele>2700</ele>
        <time>2021-04-07T08:59:01Z</time>
      </trkpt>
      <trkpt lat="44.48896" lon="6.59086">
        <ele>2700</ele>
        <time>2021-04-07T08:59:02Z</time>
      </trkpt>
      <trkpt lat="44.48896" lon="6.59086">
        <ele>2700</ele>
        <time>2021-04-07T08:59:03Z</time>
      </trkpt>
      <trkpt lat="44.48896" lon="6.59086">
        <ele>2700</ele>
        <time>2021-04-07T08:59:04Z</time>
      </trkpt>
      <trkpt lat="44.48896" lon="6.59086">
        <ele>2700</ele>
        <time>2021-04-07T08:59:05Z</time>
      </trkpt>
      <trkpt lat="44.48896" lon="6.59086">
        <ele>2700</ele>
        <time>2021-04-07T08:59:06Z</time>
      </trkpt>
      <trkpt lat="44.48896" lon="6.59086">
        <ele>2700</ele>
        <time>2021-04-07T08:59:07Z</time>
      </trkpt>
      <trkpt lat="44.48896" lon="6.59086">
        <ele>2700</ele>
        <time>2021-04-07T08:59:08Z</time>
      </trkpt>
      <trkpt lat="44.48896" lon="6.59086">
        <ele>2700</ele>
        <time>2021-04-07T08:59:09Z</time>
      </trkpt>
      <trkpt lat="44.48896" lon="6.59086">
        <ele>2700</ele>
        <time>2021-04-07T08:59:10Z</time>
      </trkpt>
      <trkpt lat="44.48896" lon="6.59086">
        <ele>2700</ele>
        <time>2021-04-07T08:59:11Z</time>
      </trkpt>
      <trkpt lat="44.48896" lon="6.59086">
        <ele>2700</ele>
        <time>2021-04-07T08:59:12Z</time>
      </trkpt>
      <trkpt lat="44.48895" lon="6.59085">
        <ele>2700</ele>
        <time>2021-04-07T08:59:13Z</time>
      </trkpt>
      <trkpt lat="44.48894" lon="6.59085">
        <ele>2700</ele>
        <time>2021-04-07T08:59:14Z</time>
      </trkpt>
      <trkpt lat="44.48894" lon="6.59085">
        <ele>2700</ele>
        <time>2021-04-07T08:59:15Z</time>
      </trkpt>
      <trkpt lat="44.48894" lon="6.59085">
        <ele>2700</ele>
        <time>2021-04-07T08:59:16Z</time>
      </trkpt>
      <trkpt lat="44.48894" lon="6.59085">
        <ele>2700</ele>
        <time>2021-04-07T08:59:17Z</time>
      </trkpt>
      <trkpt lat="44.48894" lon="6.59085">
        <ele>2700</ele>
        <time>2021-04-07T08:59:18Z</time>
      </trkpt>
      <trkpt lat="44.48894" lon="6.59085">
        <ele>2700</ele>
        <time>2021-04-07T08:59:19Z</time>
      </trkpt>
      <trkpt lat="44.48894" lon="6.59085">
        <ele>2700</ele>
        <time>2021-04-07T08:59:20Z</time>
      </trkpt>
      <trkpt lat="44.48894" lon="6.59085">
        <ele>2700</ele>
        <time>2021-04-07T08:59:21Z</time>
      </trkpt>
      <trkpt lat="44.48894" lon="6.59085">
        <ele>2700</ele>
        <time>2021-04-07T08:59:22Z</time>
      </trkpt>
      <trkpt lat="44.48894" lon="6.59085">
        <ele>2700</ele>
        <time>2021-04-07T08:59:23Z</time>
      </trkpt>
      <trkpt lat="44.48894" lon="6.59085">
        <ele>2700</ele>
        <time>2021-04-07T08:59:24Z</time>
      </trkpt>
      <trkpt lat="44.48894" lon="6.59085">
        <ele>2700</ele>
        <time>2021-04-07T08:59:25Z</time>
      </trkpt>
      <trkpt lat="44.48894" lon="6.59085">
        <ele>2700</ele>
        <time>2021-04-07T08:59:26Z</time>
      </trkpt>
      <trkpt lat="44.48894" lon="6.59085">
        <ele>2700</ele>
        <time>2021-04-07T08:59:27Z</time>
      </trkpt>
      <trkpt lat="44.48894" lon="6.59085">
        <ele>2700</ele>
        <time>2021-04-07T08:59:28Z</time>
      </trkpt>
      <trkpt lat="44.48894" lon="6.59085">
        <ele>2700</ele>
        <time>2021-04-07T08:59:29Z</time>
      </trkpt>
      <trkpt lat="44.48895" lon="6.59085">
        <ele>2700</ele>
        <time>2021-04-07T08:59:30Z</time>
      </trkpt>
      <trkpt lat="44.48895" lon="6.59085">
        <ele>2700</ele>
        <time>2021-04-07T08:59:31Z</time>
      </trkpt>
      <trkpt lat="44.48895" lon="6.59085">
        <ele>2700</ele>
        <time>2021-04-07T08:59:32Z</time>
      </trkpt>
      <trkpt lat="44.48895" lon="6.59086">
        <ele>2700</ele>
        <time>2021-04-07T08:59:33Z</time>
      </trkpt>
      <trkpt lat="44.48895" lon="6.59086">
        <ele>2700</ele>
        <time>2021-04-07T08:59:34Z</time>
      </trkpt>
      <trkpt lat="44.48895" lon="6.59086">
        <ele>2700</ele>
        <time>2021-04-07T08:59:35Z</time>
      </trkpt>
      <trkpt lat="44.48896" lon="6.59086">
        <ele>2700</ele>
        <time>2021-04-07T08:59:36Z</time>
      </trkpt>
      <trkpt lat="44.48896" lon="6.59086">
        <ele>2700</ele>
        <time>2021-04-07T08:59:37Z</time>
      </trkpt>
      <trkpt lat="44.48896" lon="6.59085">
        <ele>2700</ele>
        <time>2021-04-07T08:59:38Z</time>
      </trkpt>
      <trkpt lat="44.48896" lon="6.59086">
        <ele>2700</ele>
        <time>2021-04-07T08:59:39Z</time>
      </trkpt>
      <trkpt lat="44.48896" lon="6.59086">
        <ele>2700</ele>
        <time>2021-04-07T08:59:40Z</time>
      </trkpt>
      <trkpt lat="44.48896" lon="6.59086">
        <ele>2700</ele>
        <time>2021-04-07T08:59:41Z</time>
      </trkpt>
      <trkpt lat="44.48896" lon="6.59086">
        <ele>2700</ele>
        <time>2021-04-07T08:59:42Z</time>
      </trkpt>
      <trkpt lat="44.48896" lon="6.59086">
        <ele>2700</ele>
        <time>2021-04-07T08:59:43Z</time>
      </trkpt>
      <trkpt lat="44.48896" lon="6.59086">
        <ele>2700</ele>
        <time>2021-04-07T08:59:44Z</time>
      </trkpt>
      <trkpt lat="44.48896" lon="6.59086">
        <ele>2700</ele>
        <time>2021-04-07T08:59:45Z</time>
      </trkpt>
      <trkpt lat="44.48896" lon="6.59086">
        <ele>2700</ele>
        <time>2021-04-07T08:59:46Z</time>
      </trkpt>
      <trkpt lat="44.48896" lon="6.59086">
        <ele>2700</ele>
        <time>2021-04-07T08:59:47Z</time>
      </trkpt>
      <trkpt lat="44.48896" lon="6.59086">
        <ele>2700</ele>
        <time>2021-04-07T08:59:48Z</time>
      </trkpt>
      <trkpt lat="44.48896" lon="6.59086">
        <ele>2700</ele>
        <time>2021-04-07T08:59:49Z</time>
      </trkpt>
      <trkpt lat="44.48896" lon="6.59086">
        <ele>2700</ele>
        <time>2021-04-07T08:59:50Z</time>
      </trkpt>
      <trkpt lat="44.48896" lon="6.59086">
        <ele>2700</ele>
        <time>2021-04-07T08:59:51Z</time>
      </trkpt>
      <trkpt lat="44.48896" lon="6.59086">
        <ele>2700</ele>
        <time>2021-04-07T08:59:52Z</time>
      </trkpt>
      <trkpt lat="44.48896" lon="6.59086">
        <ele>2700</ele>
        <time>2021-04-07T08:59:53Z</time>
      </trkpt>
      <trkpt lat="44.48896" lon="6.59086">
        <ele>2700</ele>
        <time>2021-04-07T08:59:54Z</time>
      </trkpt>
      <trkpt lat="44.48896" lon="6.59086">
        <ele>2700</ele>
        <time>2021-04-07T08:59:55Z</time>
      </trkpt>
      <trkpt lat="44.48896" lon="6.59086">
        <ele>2700</ele>
        <time>2021-04-07T08:59:56Z</time>
      </trkpt>
      <trkpt lat="44.48896" lon="6.59086">
        <ele>2700</ele>
        <time>2021-04-07T08:59:57Z</time>
      </trkpt>
      <trkpt lat="44.48897" lon="6.59083">
        <ele>2700</ele>
        <time>2021-04-07T08:59:58Z</time>
      </trkpt>
      <trkpt lat="44.48897" lon="6.59082">
        <ele>2700</ele>
        <time>2021-04-07T08:59:59Z</time>
      </trkpt>
      <trkpt lat="44.48897" lon="6.59083">
        <ele>2700</ele>
        <time>2021-04-07T09:00:00Z</time>
      </trkpt>
      <trkpt lat="44.48896" lon="6.59083">
        <ele>2700</ele>
        <time>2021-04-07T09:00:01Z</time>
      </trkpt>
      <trkpt lat="44.48896" lon="6.59083">
        <ele>2700</ele>
        <time>2021-04-07T09:00:02Z</time>
      </trkpt>
      <trkpt lat="44.48896" lon="6.59083">
        <ele>2700</ele>
        <time>2021-04-07T09:00:03Z</time>
      </trkpt>
      <trkpt lat="44.48896" lon="6.59083">
        <ele>2700</ele>
        <time>2021-04-07T09:00:04Z</time>
      </trkpt>
      <trkpt lat="44.48896" lon="6.59083">
        <ele>2700</ele>
        <time>2021-04-07T09:00:05Z</time>
      </trkpt>
      <trkpt lat="44.48896" lon="6.59083">
        <ele>2700</ele>
        <time>2021-04-07T09:00:06Z</time>
      </trkpt>
      <trkpt lat="44.48896" lon="6.59083">
        <ele>2700</ele>
        <time>2021-04-07T09:00:07Z</time>
      </trkpt>
      <trkpt lat="44.48896" lon="6.59083">
        <ele>2700</ele>
        <time>2021-04-07T09:00:08Z</time>
      </trkpt>
      <trkpt lat="44.48896" lon="6.59083">
        <ele>2700</ele>
        <time>2021-04-07T09:00:09Z</time>
      </trkpt>
      <trkpt lat="44.48896" lon="6.59083">
        <ele>2700</ele>
        <time>2021-04-07T09:00:10Z</time>
      </trkpt>
      <trkpt lat="44.48896" lon="6.59083">
        <ele>2700</ele>
        <time>2021-04-07T09:00:11Z</time>
      </trkpt>
      <trkpt lat="44.48896" lon="6.59083">
        <ele>2700</ele>
        <time>2021-04-07T09:00:12Z</time>
      </trkpt>
      <trkpt lat="44.48896" lon="6.59083">
        <ele>2700</ele>
        <time>2021-04-07T09:00:13Z</time>
      </trkpt>
      <trkpt lat="44.48896" lon="6.59084">
        <ele>2700</ele>
        <time>2021-04-07T09:00:14Z</time>
      </trkpt>
      <trkpt lat="44.48896" lon="6.59084">
        <ele>2700</ele>
        <time>2021-04-07T09:00:15Z</time>
      </trkpt>
      <trkpt lat="44.48896" lon="6.59084">
        <ele>2700</ele>
        <time>2021-04-07T09:00:16Z</time>
      </trkpt>
      <trkpt lat="44.48896" lon="6.59085">
        <ele>2700</ele>
        <time>2021-04-07T09:00:17Z</time>
      </trkpt>
      <trkpt lat="44.48896" lon="6.59085">
        <ele>2700</ele>
        <time>2021-04-07T09:00:18Z</time>
      </trkpt>
      <trkpt lat="44.48896" lon="6.59085">
        <ele>2700</ele>
        <time>2021-04-07T09:00:19Z</time>
      </trkpt>
      <trkpt lat="44.48896" lon="6.59085">
        <ele>2700</ele>
        <time>2021-04-07T09:00:20Z</time>
      </trkpt>
      <trkpt lat="44.48896" lon="6.59085">
        <ele>2700</ele>
        <time>2021-04-07T09:00:21Z</time>
      </trkpt>
      <trkpt lat="44.48895" lon="6.59085">
        <ele>2700</ele>
        <time>2021-04-07T09:00:22Z</time>
      </trkpt>
      <trkpt lat="44.48895" lon="6.59086">
        <ele>2700</ele>
        <time>2021-04-07T09:00:23Z</time>
      </trkpt>
      <trkpt lat="44.48896" lon="6.59086">
        <ele>2700</ele>
        <time>2021-04-07T09:00:24Z</time>
      </trkpt>
      <trkpt lat="44.48896" lon="6.59086">
        <ele>2700</ele>
        <time>2021-04-07T09:00:25Z</time>
      </trkpt>
      <trkpt lat="44.48896" lon="6.59085">
        <ele>2700</ele>
        <time>2021-04-07T09:00:26Z</time>
      </trkpt>
      <trkpt lat="44.48896" lon="6.59085">
        <ele>2700</ele>
        <time>2021-04-07T09:00:27Z</time>
      </trkpt>
      <trkpt lat="44.48896" lon="6.59084">
        <ele>2700</ele>
        <time>2021-04-07T09:00:28Z</time>
      </trkpt>
      <trkpt lat="44.48896" lon="6.59083">
        <ele>2700</ele>
        <time>2021-04-07T09:00:29Z</time>
      </trkpt>
      <trkpt lat="44.48896" lon="6.59083">
        <ele>2700</ele>
        <time>2021-04-07T09:00:30Z</time>
      </trkpt>
      <trkpt lat="44.48896" lon="6.59082">
        <ele>2700</ele>
        <time>2021-04-07T09:00:31Z</time>
      </trkpt>
      <trkpt lat="44.48896" lon="6.59082">
        <ele>2700</ele>
        <time>2021-04-07T09:00:32Z</time>
      </trkpt>
      <trkpt lat="44.48896" lon="6.59082">
        <ele>2700</ele>
        <time>2021-04-07T09:00:33Z</time>
      </trkpt>
      <trkpt lat="44.48896" lon="6.59082">
        <ele>2700</ele>
        <time>2021-04-07T09:00:34Z</time>
      </trkpt>
      <trkpt lat="44.48896" lon="6.59082">
        <ele>2700</ele>
        <time>2021-04-07T09:00:35Z</time>
      </trkpt>
      <trkpt lat="44.48896" lon="6.59082">
        <ele>2700</ele>
        <time>2021-04-07T09:00:36Z</time>
      </trkpt>
      <trkpt lat="44.48896" lon="6.59083">
        <ele>2700</ele>
        <time>2021-04-07T09:00:37Z</time>
      </trkpt>
      <trkpt lat="44.48896" lon="6.59082">
        <ele>2700</ele>
        <time>2021-04-07T09:00:38Z</time>
      </trkpt>
      <trkpt lat="44.48896" lon="6.59081">
        <ele>2700</ele>
        <time>2021-04-07T09:00:39Z</time>
      </trkpt>
      <trkpt lat="44.48896" lon="6.59081">
        <ele>2700</ele>
        <time>2021-04-07T09:00:40Z</time>
      </trkpt>
      <trkpt lat="44.48896" lon="6.59081">
        <ele>2700</ele>
        <time>2021-04-07T09:00:41Z</time>
      </trkpt>
      <trkpt lat="44.48896" lon="6.59081">
        <ele>2700</ele>
        <time>2021-04-07T09:00:42Z</time>
      </trkpt>
      <trkpt lat="44.48896" lon="6.5908">
        <ele>2700</ele>
        <time>2021-04-07T09:00:43Z</time>
      </trkpt>
      <trkpt lat="44.48896" lon="6.59081">
        <ele>2700</ele>
        <time>2021-04-07T09:00:44Z</time>
      </trkpt>
      <trkpt lat="44.48896" lon="6.59081">
        <ele>2700</ele>
        <time>2021-04-07T09:00:45Z</time>
      </trkpt>
      <trkpt lat="44.48897" lon="6.59081">
        <ele>2700</ele>
        <time>2021-04-07T09:00:46Z</time>
      </trkpt>
      <trkpt lat="44.48897" lon="6.59081">
        <ele>2700</ele>
        <time>2021-04-07T09:00:47Z</time>
      </trkpt>
      <trkpt lat="44.48897" lon="6.5908">
        <ele>2700</ele>
        <time>2021-04-07T09:00:48Z</time>
      </trkpt>
      <trkpt lat="44.48897" lon="6.5908">
        <ele>2700</ele>
        <time>2021-04-07T09:00:49Z</time>
      </trkpt>
      <trkpt lat="44.48897" lon="6.59079">
        <ele>2700</ele>
        <time>2021-04-07T09:00:50Z</time>
      </trkpt>
      <trkpt lat="44.48898" lon="6.59078">
        <ele>2700</ele>
        <time>2021-04-07T09:00:51Z</time>
      </trkpt>
      <trkpt lat="44.48898" lon="6.59078">
        <ele>2700</ele>
        <time>2021-04-07T09:00:52Z</time>
      </trkpt>
      <trkpt lat="44.48897" lon="6.59078">
        <ele>2700</ele>
        <time>2021-04-07T09:00:53Z</time>
      </trkpt>
      <trkpt lat="44.48897" lon="6.59078">
        <ele>2700</ele>
        <time>2021-04-07T09:00:54Z</time>
      </trkpt>
      <trkpt lat="44.48897" lon="6.59077">
        <ele>2701</ele>
        <time>2021-04-07T09:00:55Z</time>
      </trkpt>
      <trkpt lat="44.48897" lon="6.59077">
        <ele>2701</ele>
        <time>2021-04-07T09:00:56Z</time>
      </trkpt>
      <trkpt lat="44.48896" lon="6.59076">
        <ele>2701</ele>
        <time>2021-04-07T09:00:57Z</time>
      </trkpt>
      <trkpt lat="44.48896" lon="6.59076">
        <ele>2701</ele>
        <time>2021-04-07T09:00:58Z</time>
      </trkpt>
      <trkpt lat="44.48896" lon="6.59076">
        <ele>2702</ele>
        <time>2021-04-07T09:00:59Z</time>
      </trkpt>
      <trkpt lat="44.48896" lon="6.59076">
        <ele>2702</ele>
        <time>2021-04-07T09:01:00Z</time>
      </trkpt>
      <trkpt lat="44.48895" lon="6.59076">
        <ele>2702</ele>
        <time>2021-04-07T09:01:01Z</time>
      </trkpt>
      <trkpt lat="44.48895" lon="6.59076">
        <ele>2702</ele>
        <time>2021-04-07T09:01:02Z</time>
      </trkpt>
      <trkpt lat="44.48895" lon="6.59076">
        <ele>2702</ele>
        <time>2021-04-07T09:01:03Z</time>
      </trkpt>
      <trkpt lat="44.48894" lon="6.59077">
        <ele>2702</ele>
        <time>2021-04-07T09:01:04Z</time>
      </trkpt>
      <trkpt lat="44.48894" lon="6.59078">
        <ele>2702</ele>
        <time>2021-04-07T09:01:05Z</time>
      </trkpt>
      <trkpt lat="44.48894" lon="6.59078">
        <ele>2702</ele>
        <time>2021-04-07T09:01:06Z</time>
      </trkpt>
      <trkpt lat="44.48894" lon="6.59078">
        <ele>2702</ele>
        <time>2021-04-07T09:01:07Z</time>
      </trkpt>
      <trkpt lat="44.48894" lon="6.59078">
        <ele>2702</ele>
        <time>2021-04-07T09:01:08Z</time>
      </trkpt>
      <trkpt lat="44.48894" lon="6.59077">
        <ele>2702</ele>
        <time>2021-04-07T09:01:09Z</time>
      </trkpt>
      <trkpt lat="44.48894" lon="6.59077">
        <ele>2702</ele>
        <time>2021-04-07T09:01:10Z</time>
      </trkpt>
      <trkpt lat="44.48894" lon="6.59076">
        <ele>2702</ele>
        <time>2021-04-07T09:01:11Z</time>
      </trkpt>
      <trkpt lat="44.48894" lon="6.59076">
        <ele>2703</ele>
        <time>2021-04-07T09:01:12Z</time>
      </trkpt>
      <trkpt lat="44.48894" lon="6.59076">
        <ele>2703</ele>
        <time>2021-04-07T09:01:13Z</time>
      </trkpt>
      <trkpt lat="44.48893" lon="6.59077">
        <ele>2703</ele>
        <time>2021-04-07T09:01:14Z</time>
      </trkpt>
      <trkpt lat="44.48893" lon="6.59077">
        <ele>2703</ele>
        <time>2021-04-07T09:01:15Z</time>
      </trkpt>
      <trkpt lat="44.48893" lon="6.59077">
        <ele>2703</ele>
        <time>2021-04-07T09:01:16Z</time>
      </trkpt>
      <trkpt lat="44.48893" lon="6.59077">
        <ele>2703</ele>
        <time>2021-04-07T09:01:17Z</time>
      </trkpt>
      <trkpt lat="44.48893" lon="6.5908">
        <ele>2703</ele>
        <time>2021-04-07T09:01:18Z</time>
      </trkpt>
      <trkpt lat="44.48894" lon="6.59082">
        <ele>2703</ele>
        <time>2021-04-07T09:01:19Z</time>
      </trkpt>
      <trkpt lat="44.48894" lon="6.59082">
        <ele>2703</ele>
        <time>2021-04-07T09:01:20Z</time>
      </trkpt>
      <trkpt lat="44.48894" lon="6.59082">
        <ele>2703</ele>
        <time>2021-04-07T09:01:21Z</time>
      </trkpt>
      <trkpt lat="44.48894" lon="6.59082">
        <ele>2703</ele>
        <time>2021-04-07T09:01:22Z</time>
      </trkpt>
      <trkpt lat="44.48895" lon="6.59082">
        <ele>2703</ele>
        <time>2021-04-07T09:01:23Z</time>
      </trkpt>
      <trkpt lat="44.48895" lon="6.59082">
        <ele>2703</ele>
        <time>2021-04-07T09:01:24Z</time>
      </trkpt>
      <trkpt lat="44.48895" lon="6.59082">
        <ele>2703</ele>
        <time>2021-04-07T09:01:25Z</time>
      </trkpt>
      <trkpt lat="44.48896" lon="6.59082">
        <ele>2703</ele>
        <time>2021-04-07T09:01:26Z</time>
      </trkpt>
      <trkpt lat="44.48897" lon="6.59082">
        <ele>2703</ele>
        <time>2021-04-07T09:01:27Z</time>
      </trkpt>
      <trkpt lat="44.48897" lon="6.59081">
        <ele>2703</ele>
        <time>2021-04-07T09:01:28Z</time>
      </trkpt>
      <trkpt lat="44.48896" lon="6.59082">
        <ele>2703</ele>
        <time>2021-04-07T09:01:29Z</time>
      </trkpt>
      <trkpt lat="44.48897" lon="6.59082">
        <ele>2702</ele>
        <time>2021-04-07T09:01:30Z</time>
      </trkpt>
      <trkpt lat="44.48897" lon="6.59082">
        <ele>2702</ele>
        <time>2021-04-07T09:01:31Z</time>
      </trkpt>
      <trkpt lat="44.48897" lon="6.59082">
        <ele>2702</ele>
        <time>2021-04-07T09:01:32Z</time>
      </trkpt>
      <trkpt lat="44.48897" lon="6.59082">
        <ele>2702</ele>
        <time>2021-04-07T09:01:33Z</time>
      </trkpt>
      <trkpt lat="44.48897" lon="6.59082">
        <ele>2702</ele>
        <time>2021-04-07T09:01:34Z</time>
      </trkpt>
      <trkpt lat="44.48897" lon="6.59082">
        <ele>2702</ele>
        <time>2021-04-07T09:01:35Z</time>
      </trkpt>
      <trkpt lat="44.48897" lon="6.59082">
        <ele>2702</ele>
        <time>2021-04-07T09:01:36Z</time>
      </trkpt>
      <trkpt lat="44.48897" lon="6.59082">
        <ele>2702</ele>
        <time>2021-04-07T09:01:37Z</time>
      </trkpt>
      <trkpt lat="44.48897" lon="6.59082">
        <ele>2702</ele>
        <time>2021-04-07T09:01:38Z</time>
      </trkpt>
      <trkpt lat="44.48897" lon="6.59082">
        <ele>2702</ele>
        <time>2021-04-07T09:01:39Z</time>
      </trkpt>
      <trkpt lat="44.48897" lon="6.59082">
        <ele>2702</ele>
        <time>2021-04-07T09:01:40Z</time>
      </trkpt>
      <trkpt lat="44.48897" lon="6.59082">
        <ele>2702</ele>
        <time>2021-04-07T09:01:41Z</time>
      </trkpt>
      <trkpt lat="44.48897" lon="6.59082">
        <ele>2702</ele>
        <time>2021-04-07T09:01:42Z</time>
      </trkpt>
      <trkpt lat="44.48897" lon="6.59082">
        <ele>2702</ele>
        <time>2021-04-07T09:01:43Z</time>
      </trkpt>
      <trkpt lat="44.48897" lon="6.59082">
        <ele>2702</ele>
        <time>2021-04-07T09:01:44Z</time>
      </trkpt>
      <trkpt lat="44.48897" lon="6.59082">
        <ele>2702</ele>
        <time>2021-04-07T09:01:45Z</time>
      </trkpt>
      <trkpt lat="44.48897" lon="6.59082">
        <ele>2702</ele>
        <time>2021-04-07T09:01:46Z</time>
      </trkpt>
      <trkpt lat="44.48897" lon="6.59082">
        <ele>2702</ele>
        <time>2021-04-07T09:01:47Z</time>
      </trkpt>
      <trkpt lat="44.48897" lon="6.59082">
        <ele>2702</ele>
        <time>2021-04-07T09:01:48Z</time>
      </trkpt>
      <trkpt lat="44.48897" lon="6.59082">
        <ele>2702</ele>
        <time>2021-04-07T09:01:49Z</time>
      </trkpt>
      <trkpt lat="44.48897" lon="6.59082">
        <ele>2702</ele>
        <time>2021-04-07T09:01:50Z</time>
      </trkpt>
      <trkpt lat="44.48897" lon="6.59082">
        <ele>2702</ele>
        <time>2021-04-07T09:01:51Z</time>
      </trkpt>
      <trkpt lat="44.48897" lon="6.59082">
        <ele>2702</ele>
        <time>2021-04-07T09:01:52Z</time>
      </trkpt>
      <trkpt lat="44.48897" lon="6.59082">
        <ele>2702</ele>
        <time>2021-04-07T09:01:53Z</time>
      </trkpt>
      <trkpt lat="44.48897" lon="6.59082">
        <ele>2702</ele>
        <time>2021-04-07T09:01:54Z</time>
      </trkpt>
      <trkpt lat="44.48897" lon="6.59082">
        <ele>2702</ele>
        <time>2021-04-07T09:01:55Z</time>
      </trkpt>
      <trkpt lat="44.48897" lon="6.59082">
        <ele>2702</ele>
        <time>2021-04-07T09:01:56Z</time>
      </trkpt>
      <trkpt lat="44.48895" lon="6.59082">
        <ele>2702</ele>
        <time>2021-04-07T09:01:57Z</time>
      </trkpt>
      <trkpt lat="44.48895" lon="6.59082">
        <ele>2702</ele>
        <time>2021-04-07T09:01:58Z</time>
      </trkpt>
      <trkpt lat="44.48895" lon="6.59081">
        <ele>2702</ele>
        <time>2021-04-07T09:01:59Z</time>
      </trkpt>
      <trkpt lat="44.48895" lon="6.59081">
        <ele>2702</ele>
        <time>2021-04-07T09:02:00Z</time>
      </trkpt>
      <trkpt lat="44.48895" lon="6.59081">
        <ele>2702</ele>
        <time>2021-04-07T09:02:01Z</time>
      </trkpt>
      <trkpt lat="44.48895" lon="6.59081">
        <ele>2702</ele>
        <time>2021-04-07T09:02:02Z</time>
      </trkpt>
      <trkpt lat="44.48895" lon="6.59081">
        <ele>2702</ele>
        <time>2021-04-07T09:02:03Z</time>
      </trkpt>
      <trkpt lat="44.48895" lon="6.59081">
        <ele>2702</ele>
        <time>2021-04-07T09:02:04Z</time>
      </trkpt>
      <trkpt lat="44.48895" lon="6.59081">
        <ele>2702</ele>
        <time>2021-04-07T09:02:05Z</time>
      </trkpt>
      <trkpt lat="44.48895" lon="6.59081">
        <ele>2702</ele>
        <time>2021-04-07T09:02:06Z</time>
      </trkpt>
      <trkpt lat="44.48895" lon="6.59081">
        <ele>2702</ele>
        <time>2021-04-07T09:02:07Z</time>
      </trkpt>
      <trkpt lat="44.48895" lon="6.59081">
        <ele>2702</ele>
        <time>2021-04-07T09:02:08Z</time>
      </trkpt>
      <trkpt lat="44.48895" lon="6.59081">
        <ele>2702</ele>
        <time>2021-04-07T09:02:09Z</time>
      </trkpt>
      <trkpt lat="44.48895" lon="6.59081">
        <ele>2702</ele>
        <time>2021-04-07T09:02:10Z</time>
      </trkpt>
      <trkpt lat="44.48895" lon="6.59081">
        <ele>2702</ele>
        <time>2021-04-07T09:02:11Z</time>
      </trkpt>
      <trkpt lat="44.48895" lon="6.59081">
        <ele>2702</ele>
        <time>2021-04-07T09:02:12Z</time>
      </trkpt>
      <trkpt lat="44.48895" lon="6.59081">
        <ele>2702</ele>
        <time>2021-04-07T09:02:13Z</time>
      </trkpt>
      <trkpt lat="44.48895" lon="6.59081">
        <ele>2702</ele>
        <time>2021-04-07T09:02:14Z</time>
      </trkpt>
      <trkpt lat="44.48895" lon="6.59081">
        <ele>2702</ele>
        <time>2021-04-07T09:02:15Z</time>
      </trkpt>
      <trkpt lat="44.48895" lon="6.59081">
        <ele>2702</ele>
        <time>2021-04-07T09:02:16Z</time>
      </trkpt>
      <trkpt lat="44.48895" lon="6.59081">
        <ele>2702</ele>
        <time>2021-04-07T09:02:17Z</time>
      </trkpt>
      <trkpt lat="44.48895" lon="6.59081">
        <ele>2702</ele>
        <time>2021-04-07T09:02:18Z</time>
      </trkpt>
      <trkpt lat="44.48895" lon="6.59081">
        <ele>2702</ele>
        <time>2021-04-07T09:02:19Z</time>
      </trkpt>
      <trkpt lat="44.48895" lon="6.59081">
        <ele>2702</ele>
        <time>2021-04-07T09:02:20Z</time>
      </trkpt>
      <trkpt lat="44.48895" lon="6.59081">
        <ele>2702</ele>
        <time>2021-04-07T09:02:21Z</time>
      </trkpt>
      <trkpt lat="44.48895" lon="6.59081">
        <ele>2702</ele>
        <time>2021-04-07T09:02:22Z</time>
      </trkpt>
      <trkpt lat="44.48895" lon="6.59081">
        <ele>2702</ele>
        <time>2021-04-07T09:02:23Z</time>
      </trkpt>
      <trkpt lat="44.48895" lon="6.59081">
        <ele>2702</ele>
        <time>2021-04-07T09:02:24Z</time>
      </trkpt>
      <trkpt lat="44.48895" lon="6.59081">
        <ele>2702</ele>
        <time>2021-04-07T09:02:25Z</time>
      </trkpt>
      <trkpt lat="44.48895" lon="6.59081">
        <ele>2702</ele>
        <time>2021-04-07T09:02:26Z</time>
      </trkpt>
      <trkpt lat="44.48895" lon="6.59081">
        <ele>2702</ele>
        <time>2021-04-07T09:02:27Z</time>
      </trkpt>
      <trkpt lat="44.48895" lon="6.59081">
        <ele>2702</ele>
        <time>2021-04-07T09:02:28Z</time>
      </trkpt>
      <trkpt lat="44.48895" lon="6.59081">
        <ele>2702</ele>
        <time>2021-04-07T09:02:29Z</time>
      </trkpt>
      <trkpt lat="44.48895" lon="6.59081">
        <ele>2702</ele>
        <time>2021-04-07T09:02:30Z</time>
      </trkpt>
      <trkpt lat="44.48895" lon="6.59081">
        <ele>2702</ele>
        <time>2021-04-07T09:02:31Z</time>
      </trkpt>
      <trkpt lat="44.48895" lon="6.59081">
        <ele>2702</ele>
        <time>2021-04-07T09:02:32Z</time>
      </trkpt>
      <trkpt lat="44.48895" lon="6.59081">
        <ele>2702</ele>
        <time>2021-04-07T09:02:33Z</time>
      </trkpt>
      <trkpt lat="44.48895" lon="6.59087">
        <ele>2701</ele>
        <time>2021-04-07T09:02:34Z</time>
      </trkpt>
      <trkpt lat="44.48895" lon="6.59087">
        <ele>2701</ele>
        <time>2021-04-07T09:02:35Z</time>
      </trkpt>
      <trkpt lat="44.48895" lon="6.59086">
        <ele>2701</ele>
        <time>2021-04-07T09:02:36Z</time>
      </trkpt>
      <trkpt lat="44.48896" lon="6.59086">
        <ele>2701</ele>
        <time>2021-04-07T09:02:37Z</time>
      </trkpt>
      <trkpt lat="44.48896" lon="6.59086">
        <ele>2701</ele>
        <time>2021-04-07T09:02:38Z</time>
      </trkpt>
      <trkpt lat="44.48896" lon="6.59086">
        <ele>2701</ele>
        <time>2021-04-07T09:02:39Z</time>
      </trkpt>
      <trkpt lat="44.48896" lon="6.59086">
        <ele>2701</ele>
        <time>2021-04-07T09:02:40Z</time>
      </trkpt>
      <trkpt lat="44.48896" lon="6.59086">
        <ele>2701</ele>
        <time>2021-04-07T09:02:41Z</time>
      </trkpt>
      <trkpt lat="44.48896" lon="6.59086">
        <ele>2701</ele>
        <time>2021-04-07T09:02:42Z</time>
      </trkpt>
      <trkpt lat="44.48896" lon="6.59086">
        <ele>2701</ele>
        <time>2021-04-07T09:02:43Z</time>
      </trkpt>
      <trkpt lat="44.48896" lon="6.59086">
        <ele>2701</ele>
        <time>2021-04-07T09:02:44Z</time>
      </trkpt>
      <trkpt lat="44.48896" lon="6.59086">
        <ele>2701</ele>
        <time>2021-04-07T09:02:45Z</time>
      </trkpt>
      <trkpt lat="44.48896" lon="6.59086">
        <ele>2701</ele>
        <time>2021-04-07T09:02:46Z</time>
      </trkpt>
      <trkpt lat="44.48896" lon="6.59086">
        <ele>2701</ele>
        <time>2021-04-07T09:02:47Z</time>
      </trkpt>
      <trkpt lat="44.48896" lon="6.59086">
        <ele>2701</ele>
        <time>2021-04-07T09:02:48Z</time>
      </trkpt>
      <trkpt lat="44.48896" lon="6.59086">
        <ele>2701</ele>
        <time>2021-04-07T09:02:49Z</time>
      </trkpt>
      <trkpt lat="44.48896" lon="6.59086">
        <ele>2701</ele>
        <time>2021-04-07T09:02:50Z</time>
      </trkpt>
      <trkpt lat="44.48896" lon="6.59086">
        <ele>2701</ele>
        <time>2021-04-07T09:02:51Z</time>
      </trkpt>
      <trkpt lat="44.48896" lon="6.59086">
        <ele>2701</ele>
        <time>2021-04-07T09:02:52Z</time>
      </trkpt>
      <trkpt lat="44.48896" lon="6.59086">
        <ele>2701</ele>
        <time>2021-04-07T09:02:53Z</time>
      </trkpt>
      <trkpt lat="44.48896" lon="6.59086">
        <ele>2701</ele>
        <time>2021-04-07T09:02:54Z</time>
      </trkpt>
      <trkpt lat="44.48896" lon="6.59086">
        <ele>2701</ele>
        <time>2021-04-07T09:02:55Z</time>
      </trkpt>
      <trkpt lat="44.48896" lon="6.59086">
        <ele>2701</ele>
        <time>2021-04-07T09:02:56Z</time>
      </trkpt>
      <trkpt lat="44.48896" lon="6.59086">
        <ele>2701</ele>
        <time>2021-04-07T09:02:57Z</time>
      </trkpt>
      <trkpt lat="44.48896" lon="6.59086">
        <ele>2701</ele>
        <time>2021-04-07T09:02:58Z</time>
      </trkpt>
      <trkpt lat="44.48896" lon="6.59086">
        <ele>2701</ele>
        <time>2021-04-07T09:02:59Z</time>
      </trkpt>
      <trkpt lat="44.48896" lon="6.59086">
        <ele>2701</ele>
        <time>2021-04-07T09:03:00Z</time>
      </trkpt>
      <trkpt lat="44.48896" lon="6.59086">
        <ele>2701</ele>
        <time>2021-04-07T09:03:01Z</time>
      </trkpt>
      <trkpt lat="44.48896" lon="6.59086">
        <ele>2701</ele>
        <time>2021-04-07T09:03:02Z</time>
      </trkpt>
      <trkpt lat="44.48896" lon="6.59086">
        <ele>2701</ele>
        <time>2021-04-07T09:03:03Z</time>
      </trkpt>
      <trkpt lat="44.48896" lon="6.59086">
        <ele>2701</ele>
        <time>2021-04-07T09:03:04Z</time>
      </trkpt>
      <trkpt lat="44.48896" lon="6.59086">
        <ele>2701</ele>
        <time>2021-04-07T09:03:05Z</time>
      </trkpt>
      <trkpt lat="44.48896" lon="6.59086">
        <ele>2701</ele>
        <time>2021-04-07T09:03:06Z</time>
      </trkpt>
      <trkpt lat="44.48891" lon="6.59083">
        <ele>2702</ele>
        <time>2021-04-07T09:03:07Z</time>
      </trkpt>
      <trkpt lat="44.48892" lon="6.59083">
        <ele>2702</ele>
        <time>2021-04-07T09:03:08Z</time>
      </trkpt>
      <trkpt lat="44.48892" lon="6.59083">
        <ele>2702</ele>
        <time>2021-04-07T09:03:09Z</time>
      </trkpt>
      <trkpt lat="44.48891" lon="6.59083">
        <ele>2702</ele>
        <time>2021-04-07T09:03:10Z</time>
      </trkpt>
      <trkpt lat="44.48891" lon="6.59083">
        <ele>2702</ele>
        <time>2021-04-07T09:03:11Z</time>
      </trkpt>
      <trkpt lat="44.48891" lon="6.59083">
        <ele>2702</ele>
        <time>2021-04-07T09:03:12Z</time>
      </trkpt>
      <trkpt lat="44.48891" lon="6.59083">
        <ele>2703</ele>
        <time>2021-04-07T09:03:13Z</time>
      </trkpt>
      <trkpt lat="44.48891" lon="6.59083">
        <ele>2703</ele>
        <time>2021-04-07T09:03:14Z</time>
      </trkpt>
      <trkpt lat="44.48891" lon="6.59083">
        <ele>2703</ele>
        <time>2021-04-07T09:03:15Z</time>
      </trkpt>
      <trkpt lat="44.48891" lon="6.59083">
        <ele>2703</ele>
        <time>2021-04-07T09:03:16Z</time>
      </trkpt>
      <trkpt lat="44.48891" lon="6.59083">
        <ele>2703</ele>
        <time>2021-04-07T09:03:17Z</time>
      </trkpt>
      <trkpt lat="44.48891" lon="6.59083">
        <ele>2703</ele>
        <time>2021-04-07T09:03:18Z</time>
      </trkpt>
      <trkpt lat="44.48891" lon="6.59083">
        <ele>2703</ele>
        <time>2021-04-07T09:03:19Z</time>
      </trkpt>
      <trkpt lat="44.48891" lon="6.59083">
        <ele>2703</ele>
        <time>2021-04-07T09:03:20Z</time>
      </trkpt>
      <trkpt lat="44.48891" lon="6.59083">
        <ele>2703</ele>
        <time>2021-04-07T09:03:21Z</time>
      </trkpt>
      <trkpt lat="44.48891" lon="6.59083">
        <ele>2703</ele>
        <time>2021-04-07T09:03:22Z</time>
      </trkpt>
      <trkpt lat="44.48891" lon="6.59083">
        <ele>2703</ele>
        <time>2021-04-07T09:03:23Z</time>
      </trkpt>
      <trkpt lat="44.48893" lon="6.59084">
        <ele>2703</ele>
        <time>2021-04-07T09:03:24Z</time>
      </trkpt>
      <trkpt lat="44.48894" lon="6.59084">
        <ele>2703</ele>
        <time>2021-04-07T09:03:25Z</time>
      </trkpt>
      <trkpt lat="44.48894" lon="6.59085">
        <ele>2702</ele>
        <time>2021-04-07T09:03:26Z</time>
      </trkpt>
      <trkpt lat="44.48895" lon="6.59085">
        <ele>2702</ele>
        <time>2021-04-07T09:03:27Z</time>
      </trkpt>
      <trkpt lat="44.48895" lon="6.59085">
        <ele>2702</ele>
        <time>2021-04-07T09:03:28Z</time>
      </trkpt>
      <trkpt lat="44.48895" lon="6.59085">
        <ele>2702</ele>
        <time>2021-04-07T09:03:29Z</time>
      </trkpt>
      <trkpt lat="44.48895" lon="6.59085">
        <ele>2702</ele>
        <time>2021-04-07T09:03:30Z</time>
      </trkpt>
      <trkpt lat="44.48895" lon="6.59085">
        <ele>2701</ele>
        <time>2021-04-07T09:03:31Z</time>
      </trkpt>
      <trkpt lat="44.48895" lon="6.59085">
        <ele>2701</ele>
        <time>2021-04-07T09:03:32Z</time>
      </trkpt>
      <trkpt lat="44.48895" lon="6.59085">
        <ele>2701</ele>
        <time>2021-04-07T09:03:33Z</time>
      </trkpt>
      <trkpt lat="44.48895" lon="6.59085">
        <ele>2701</ele>
        <time>2021-04-07T09:03:34Z</time>
      </trkpt>
      <trkpt lat="44.48895" lon="6.59085">
        <ele>2701</ele>
        <time>2021-04-07T09:03:35Z</time>
      </trkpt>
      <trkpt lat="44.48895" lon="6.59085">
        <ele>2701</ele>
        <time>2021-04-07T09:03:36Z</time>
      </trkpt>
      <trkpt lat="44.48895" lon="6.59085">
        <ele>2701</ele>
        <time>2021-04-07T09:03:37Z</time>
      </trkpt>
      <trkpt lat="44.48895" lon="6.59085">
        <ele>2701</ele>
        <time>2021-04-07T09:03:38Z</time>
      </trkpt>
      <trkpt lat="44.48895" lon="6.59085">
        <ele>2701</ele>
        <time>2021-04-07T09:03:39Z</time>
      </trkpt>
      <trkpt lat="44.48895" lon="6.59085">
        <ele>2701</ele>
        <time>2021-04-07T09:03:40Z</time>
      </trkpt>
      <trkpt lat="44.48895" lon="6.59085">
        <ele>2701</ele>
        <time>2021-04-07T09:03:41Z</time>
      </trkpt>
      <trkpt lat="44.48895" lon="6.59085">
        <ele>2701</ele>
        <time>2021-04-07T09:03:42Z</time>
      </trkpt>
      <trkpt lat="44.48895" lon="6.59085">
        <ele>2701</ele>
        <time>2021-04-07T09:03:43Z</time>
      </trkpt>
      <trkpt lat="44.48895" lon="6.59085">
        <ele>2701</ele>
        <time>2021-04-07T09:03:44Z</time>
      </trkpt>
      <trkpt lat="44.48895" lon="6.59085">
        <ele>2701</ele>
        <time>2021-04-07T09:03:45Z</time>
      </trkpt>
      <trkpt lat="44.48895" lon="6.59085">
        <ele>2701</ele>
        <time>2021-04-07T09:03:46Z</time>
      </trkpt>
      <trkpt lat="44.48895" lon="6.59085">
        <ele>2701</ele>
        <time>2021-04-07T09:03:47Z</time>
      </trkpt>
      <trkpt lat="44.48895" lon="6.59085">
        <ele>2701</ele>
        <time>2021-04-07T09:03:48Z</time>
      </trkpt>
      <trkpt lat="44.48895" lon="6.59085">
        <ele>2701</ele>
        <time>2021-04-07T09:03:49Z</time>
      </trkpt>
      <trkpt lat="44.48895" lon="6.59085">
        <ele>2701</ele>
        <time>2021-04-07T09:03:50Z</time>
      </trkpt>
      <trkpt lat="44.48895" lon="6.59085">
        <ele>2701</ele>
        <time>2021-04-07T09:03:51Z</time>
      </trkpt>
      <trkpt lat="44.48895" lon="6.59085">
        <ele>2701</ele>
        <time>2021-04-07T09:03:52Z</time>
      </trkpt>
      <trkpt lat="44.48895" lon="6.59085">
        <ele>2701</ele>
        <time>2021-04-07T09:03:53Z</time>
      </trkpt>
      <trkpt lat="44.48895" lon="6.59085">
        <ele>2701</ele>
        <time>2021-04-07T09:03:54Z</time>
      </trkpt>
      <trkpt lat="44.48895" lon="6.59085">
        <ele>2701</ele>
        <time>2021-04-07T09:03:55Z</time>
      </trkpt>
      <trkpt lat="44.48895" lon="6.59085">
        <ele>2701</ele>
        <time>2021-04-07T09:03:56Z</time>
      </trkpt>
      <trkpt lat="44.48895" lon="6.59085">
        <ele>2701</ele>
        <time>2021-04-07T09:03:57Z</time>
      </trkpt>
      <trkpt lat="44.48895" lon="6.59085">
        <ele>2701</ele>
        <time>2021-04-07T09:03:58Z</time>
      </trkpt>
      <trkpt lat="44.48895" lon="6.59085">
        <ele>2701</ele>
        <time>2021-04-07T09:03:59Z</time>
      </trkpt>
      <trkpt lat="44.48895" lon="6.59085">
        <ele>2701</ele>
        <time>2021-04-07T09:04:00Z</time>
      </trkpt>
      <trkpt lat="44.48895" lon="6.59085">
        <ele>2701</ele>
        <time>2021-04-07T09:04:01Z</time>
      </trkpt>
      <trkpt lat="44.48895" lon="6.59085">
        <ele>2701</ele>
        <time>2021-04-07T09:04:02Z</time>
      </trkpt>
      <trkpt lat="44.48895" lon="6.59085">
        <ele>2701</ele>
        <time>2021-04-07T09:04:03Z</time>
      </trkpt>
      <trkpt lat="44.48895" lon="6.59085">
        <ele>2701</ele>
        <time>2021-04-07T09:04:04Z</time>
      </trkpt>
      <trkpt lat="44.48895" lon="6.59085">
        <ele>2701</ele>
        <time>2021-04-07T09:04:05Z</time>
      </trkpt>
      <trkpt lat="44.48895" lon="6.59085">
        <ele>2701</ele>
        <time>2021-04-07T09:04:06Z</time>
      </trkpt>
      <trkpt lat="44.48895" lon="6.59085">
        <ele>2701</ele>
        <time>2021-04-07T09:04:07Z</time>
      </trkpt>
      <trkpt lat="44.48895" lon="6.59085">
        <ele>2701</ele>
        <time>2021-04-07T09:04:08Z</time>
      </trkpt>
      <trkpt lat="44.48895" lon="6.59085">
        <ele>2701</ele>
        <time>2021-04-07T09:04:09Z</time>
      </trkpt>
      <trkpt lat="44.48895" lon="6.59085">
        <ele>2701</ele>
        <time>2021-04-07T09:04:10Z</time>
      </trkpt>
      <trkpt lat="44.48895" lon="6.59085">
        <ele>2701</ele>
        <time>2021-04-07T09:04:11Z</time>
      </trkpt>
      <trkpt lat="44.48895" lon="6.59085">
        <ele>2701</ele>
        <time>2021-04-07T09:04:12Z</time>
      </trkpt>
      <trkpt lat="44.48895" lon="6.59085">
        <ele>2701</ele>
        <time>2021-04-07T09:04:13Z</time>
      </trkpt>
      <trkpt lat="44.48895" lon="6.59085">
        <ele>2701</ele>
        <time>2021-04-07T09:04:14Z</time>
      </trkpt>
      <trkpt lat="44.48895" lon="6.59085">
        <ele>2701</ele>
        <time>2021-04-07T09:04:15Z</time>
      </trkpt>
      <trkpt lat="44.48895" lon="6.59085">
        <ele>2701</ele>
        <time>2021-04-07T09:04:16Z</time>
      </trkpt>
      <trkpt lat="44.48895" lon="6.59085">
        <ele>2701</ele>
        <time>2021-04-07T09:04:17Z</time>
      </trkpt>
      <trkpt lat="44.48895" lon="6.59085">
        <ele>2701</ele>
        <time>2021-04-07T09:04:18Z</time>
      </trkpt>
      <trkpt lat="44.48895" lon="6.59085">
        <ele>2701</ele>
        <time>2021-04-07T09:04:19Z</time>
      </trkpt>
      <trkpt lat="44.48895" lon="6.59085">
        <ele>2701</ele>
        <time>2021-04-07T09:04:20Z</time>
      </trkpt>
      <trkpt lat="44.48895" lon="6.59085">
        <ele>2701</ele>
        <time>2021-04-07T09:04:21Z</time>
      </trkpt>
      <trkpt lat="44.48895" lon="6.59085">
        <ele>2701</ele>
        <time>2021-04-07T09:04:22Z</time>
      </trkpt>
      <trkpt lat="44.48895" lon="6.59085">
        <ele>2701</ele>
        <time>2021-04-07T09:04:23Z</time>
      </trkpt>
      <trkpt lat="44.48895" lon="6.59085">
        <ele>2701</ele>
        <time>2021-04-07T09:04:24Z</time>
      </trkpt>
      <trkpt lat="44.48895" lon="6.59085">
        <ele>2701</ele>
        <time>2021-04-07T09:04:25Z</time>
      </trkpt>
      <trkpt lat="44.48895" lon="6.59085">
        <ele>2701</ele>
        <time>2021-04-07T09:04:26Z</time>
      </trkpt>
      <trkpt lat="44.48895" lon="6.59085">
        <ele>2701</ele>
        <time>2021-04-07T09:04:27Z</time>
      </trkpt>
      <trkpt lat="44.48895" lon="6.59085">
        <ele>2701</ele>
        <time>2021-04-07T09:04:28Z</time>
      </trkpt>
      <trkpt lat="44.48895" lon="6.59085">
        <ele>2701</ele>
        <time>2021-04-07T09:04:29Z</time>
      </trkpt>
      <trkpt lat="44.48895" lon="6.59085">
        <ele>2701</ele>
        <time>2021-04-07T09:04:30Z</time>
      </trkpt>
      <trkpt lat="44.48895" lon="6.59085">
        <ele>2701</ele>
        <time>2021-04-07T09:04:31Z</time>
      </trkpt>
      <trkpt lat="44.48895" lon="6.59085">
        <ele>2701</ele>
        <time>2021-04-07T09:04:32Z</time>
      </trkpt>
      <trkpt lat="44.48895" lon="6.59085">
        <ele>2701</ele>
        <time>2021-04-07T09:04:33Z</time>
      </trkpt>
      <trkpt lat="44.48895" lon="6.59085">
        <ele>2701</ele>
        <time>2021-04-07T09:04:34Z</time>
      </trkpt>
      <trkpt lat="44.48895" lon="6.59085">
        <ele>2701</ele>
        <time>2021-04-07T09:04:35Z</time>
      </trkpt>
      <trkpt lat="44.48895" lon="6.59085">
        <ele>2701</ele>
        <time>2021-04-07T09:04:36Z</time>
      </trkpt>
      <trkpt lat="44.48895" lon="6.59085">
        <ele>2701</ele>
        <time>2021-04-07T09:04:37Z</time>
      </trkpt>
      <trkpt lat="44.48895" lon="6.59085">
        <ele>2701</ele>
        <time>2021-04-07T09:04:38Z</time>
      </trkpt>
      <trkpt lat="44.48895" lon="6.59085">
        <ele>2701</ele>
        <time>2021-04-07T09:04:39Z</time>
      </trkpt>
      <trkpt lat="44.48895" lon="6.59085">
        <ele>2701</ele>
        <time>2021-04-07T09:04:40Z</time>
      </trkpt>
      <trkpt lat="44.48895" lon="6.59085">
        <ele>2701</ele>
        <time>2021-04-07T09:04:41Z</time>
      </trkpt>
      <trkpt lat="44.48895" lon="6.59085">
        <ele>2701</ele>
        <time>2021-04-07T09:04:42Z</time>
      </trkpt>
      <trkpt lat="44.48895" lon="6.59085">
        <ele>2701</ele>
        <time>2021-04-07T09:04:43Z</time>
      </trkpt>
      <trkpt lat="44.48895" lon="6.59085">
        <ele>2701</ele>
        <time>2021-04-07T09:04:44Z</time>
      </trkpt>
      <trkpt lat="44.48896" lon="6.59087">
        <ele>2700</ele>
        <time>2021-04-07T09:04:45Z</time>
      </trkpt>
      <trkpt lat="44.48896" lon="6.59087">
        <ele>2699</ele>
        <time>2021-04-07T09:04:46Z</time>
      </trkpt>
      <trkpt lat="44.48896" lon="6.59087">
        <ele>2699</ele>
        <time>2021-04-07T09:04:47Z</time>
      </trkpt>
      <trkpt lat="44.48896" lon="6.59087">
        <ele>2699</ele>
        <time>2021-04-07T09:04:48Z</time>
      </trkpt>
      <trkpt lat="44.48896" lon="6.59087">
        <ele>2699</ele>
        <time>2021-04-07T09:04:49Z</time>
      </trkpt>
      <trkpt lat="44.48896" lon="6.59087">
        <ele>2699</ele>
        <time>2021-04-07T09:04:50Z</time>
      </trkpt>
      <trkpt lat="44.48896" lon="6.59087">
        <ele>2699</ele>
        <time>2021-04-07T09:04:51Z</time>
      </trkpt>
      <trkpt lat="44.48896" lon="6.59087">
        <ele>2699</ele>
        <time>2021-04-07T09:04:52Z</time>
      </trkpt>
      <trkpt lat="44.48896" lon="6.59087">
        <ele>2699</ele>
        <time>2021-04-07T09:04:53Z</time>
      </trkpt>
      <trkpt lat="44.48896" lon="6.59087">
        <ele>2699</ele>
        <time>2021-04-07T09:04:54Z</time>
      </trkpt>
      <trkpt lat="44.48896" lon="6.59087">
        <ele>2699</ele>
        <time>2021-04-07T09:04:55Z</time>
      </trkpt>
      <trkpt lat="44.48896" lon="6.59087">
        <ele>2699</ele>
        <time>2021-04-07T09:04:56Z</time>
      </trkpt>
      <trkpt lat="44.48896" lon="6.59087">
        <ele>2699</ele>
        <time>2021-04-07T09:04:57Z</time>
      </trkpt>
      <trkpt lat="44.48896" lon="6.59087">
        <ele>2699</ele>
        <time>2021-04-07T09:04:58Z</time>
      </trkpt>
      <trkpt lat="44.48896" lon="6.59087">
        <ele>2699</ele>
        <time>2021-04-07T09:04:59Z</time>
      </trkpt>
      <trkpt lat="44.48896" lon="6.59087">
        <ele>2699</ele>
        <time>2021-04-07T09:05:00Z</time>
      </trkpt>
      <trkpt lat="44.48896" lon="6.59087">
        <ele>2699</ele>
        <time>2021-04-07T09:05:01Z</time>
      </trkpt>
      <trkpt lat="44.48896" lon="6.59087">
        <ele>2699</ele>
        <time>2021-04-07T09:05:02Z</time>
      </trkpt>
      <trkpt lat="44.48896" lon="6.59087">
        <ele>2699</ele>
        <time>2021-04-07T09:05:03Z</time>
      </trkpt>
      <trkpt lat="44.48896" lon="6.59087">
        <ele>2699</ele>
        <time>2021-04-07T09:05:04Z</time>
      </trkpt>
      <trkpt lat="44.48896" lon="6.59087">
        <ele>2699</ele>
        <time>2021-04-07T09:05:05Z</time>
      </trkpt>
      <trkpt lat="44.48896" lon="6.59087">
        <ele>2699</ele>
        <time>2021-04-07T09:05:06Z</time>
      </trkpt>
      <trkpt lat="44.48896" lon="6.59087">
        <ele>2699</ele>
        <time>2021-04-07T09:05:07Z</time>
      </trkpt>
      <trkpt lat="44.48896" lon="6.59087">
        <ele>2699</ele>
        <time>2021-04-07T09:05:08Z</time>
      </trkpt>
      <trkpt lat="44.48896" lon="6.59087">
        <ele>2699</ele>
        <time>2021-04-07T09:05:09Z</time>
      </trkpt>
      <trkpt lat="44.48896" lon="6.59087">
        <ele>2699</ele>
        <time>2021-04-07T09:05:10Z</time>
      </trkpt>
      <trkpt lat="44.48896" lon="6.59087">
        <ele>2699</ele>
        <time>2021-04-07T09:05:11Z</time>
      </trkpt>
      <trkpt lat="44.48896" lon="6.59087">
        <ele>2699</ele>
        <time>2021-04-07T09:05:12Z</time>
      </trkpt>
      <trkpt lat="44.48896" lon="6.59087">
        <ele>2699</ele>
        <time>2021-04-07T09:05:13Z</time>
      </trkpt>
      <trkpt lat="44.48896" lon="6.59087">
        <ele>2699</ele>
        <time>2021-04-07T09:05:14Z</time>
      </trkpt>
      <trkpt lat="44.48896" lon="6.59087">
        <ele>2699</ele>
        <time>2021-04-07T09:05:15Z</time>
      </trkpt>
      <trkpt lat="44.48896" lon="6.59087">
        <ele>2699</ele>
        <time>2021-04-07T09:05:16Z</time>
      </trkpt>
      <trkpt lat="44.48896" lon="6.59087">
        <ele>2699</ele>
        <time>2021-04-07T09:05:17Z</time>
      </trkpt>
      <trkpt lat="44.48896" lon="6.59087">
        <ele>2699</ele>
        <time>2021-04-07T09:05:18Z</time>
      </trkpt>
      <trkpt lat="44.48896" lon="6.59087">
        <ele>2699</ele>
        <time>2021-04-07T09:05:19Z</time>
      </trkpt>
      <trkpt lat="44.48896" lon="6.59087">
        <ele>2699</ele>
        <time>2021-04-07T09:05:20Z</time>
      </trkpt>
      <trkpt lat="44.48896" lon="6.59087">
        <ele>2699</ele>
        <time>2021-04-07T09:05:21Z</time>
      </trkpt>
      <trkpt lat="44.48896" lon="6.59087">
        <ele>2699</ele>
        <time>2021-04-07T09:05:22Z</time>
      </trkpt>
      <trkpt lat="44.48896" lon="6.59087">
        <ele>2699</ele>
        <time>2021-04-07T09:05:23Z</time>
      </trkpt>
      <trkpt lat="44.48896" lon="6.59087">
        <ele>2699</ele>
        <time>2021-04-07T09:05:24Z</time>
      </trkpt>
      <trkpt lat="44.48896" lon="6.59087">
        <ele>2699</ele>
        <time>2021-04-07T09:05:25Z</time>
      </trkpt>
      <trkpt lat="44.48896" lon="6.59087">
        <ele>2699</ele>
        <time>2021-04-07T09:05:26Z</time>
      </trkpt>
      <trkpt lat="44.48896" lon="6.59087">
        <ele>2699</ele>
        <time>2021-04-07T09:05:27Z</time>
      </trkpt>
      <trkpt lat="44.48896" lon="6.59087">
        <ele>2699</ele>
        <time>2021-04-07T09:05:28Z</time>
      </trkpt>
      <trkpt lat="44.48896" lon="6.59087">
        <ele>2699</ele>
        <time>2021-04-07T09:05:29Z</time>
      </trkpt>
      <trkpt lat="44.48896" lon="6.59087">
        <ele>2699</ele>
        <time>2021-04-07T09:05:30Z</time>
      </trkpt>
      <trkpt lat="44.48896" lon="6.59087">
        <ele>2699</ele>
        <time>2021-04-07T09:05:31Z</time>
      </trkpt>
      <trkpt lat="44.48896" lon="6.59087">
        <ele>2699</ele>
        <time>2021-04-07T09:05:32Z</time>
      </trkpt>
      <trkpt lat="44.48896" lon="6.59087">
        <ele>2699</ele>
        <time>2021-04-07T09:05:33Z</time>
      </trkpt>
      <trkpt lat="44.48896" lon="6.59087">
        <ele>2699</ele>
        <time>2021-04-07T09:05:34Z</time>
      </trkpt>
      <trkpt lat="44.48896" lon="6.59087">
        <ele>2699</ele>
        <time>2021-04-07T09:05:35Z</time>
      </trkpt>
      <trkpt lat="44.48896" lon="6.59087">
        <ele>2699</ele>
        <time>2021-04-07T09:05:36Z</time>
      </trkpt>
      <trkpt lat="44.48896" lon="6.59087">
        <ele>2699</ele>
        <time>2021-04-07T09:05:37Z</time>
      </trkpt>
      <trkpt lat="44.48896" lon="6.59087">
        <ele>2699</ele>
        <time>2021-04-07T09:05:38Z</time>
      </trkpt>
      <trkpt lat="44.48896" lon="6.59087">
        <ele>2699</ele>
        <time>2021-04-07T09:05:39Z</time>
      </trkpt>
      <trkpt lat="44.48896" lon="6.59087">
        <ele>2699</ele>
        <time>2021-04-07T09:05:40Z</time>
      </trkpt>
      <trkpt lat="44.48896" lon="6.59087">
        <ele>2699</ele>
        <time>2021-04-07T09:05:41Z</time>
      </trkpt>
      <trkpt lat="44.48896" lon="6.59087">
        <ele>2699</ele>
        <time>2021-04-07T09:05:42Z</time>
      </trkpt>
      <trkpt lat="44.48896" lon="6.59087">
        <ele>2699</ele>
        <time>2021-04-07T09:05:43Z</time>
      </trkpt>
      <trkpt lat="44.48896" lon="6.59087">
        <ele>2699</ele>
        <time>2021-04-07T09:05:44Z</time>
      </trkpt>
      <trkpt lat="44.48896" lon="6.59087">
        <ele>2699</ele>
        <time>2021-04-07T09:05:45Z</time>
      </trkpt>
      <trkpt lat="44.48896" lon="6.59087">
        <ele>2699</ele>
        <time>2021-04-07T09:05:46Z</time>
      </trkpt>
      <trkpt lat="44.48896" lon="6.59087">
        <ele>2699</ele>
        <time>2021-04-07T09:05:47Z</time>
      </trkpt>
      <trkpt lat="44.48896" lon="6.59087">
        <ele>2699</ele>
        <time>2021-04-07T09:05:48Z</time>
      </trkpt>
      <trkpt lat="44.48896" lon="6.59087">
        <ele>2699</ele>
        <time>2021-04-07T09:05:49Z</time>
      </trkpt>
      <trkpt lat="44.48896" lon="6.59087">
        <ele>2699</ele>
        <time>2021-04-07T09:05:50Z</time>
      </trkpt>
      <trkpt lat="44.48896" lon="6.59087">
        <ele>2699</ele>
        <time>2021-04-07T09:05:51Z</time>
      </trkpt>
      <trkpt lat="44.48896" lon="6.59087">
        <ele>2699</ele>
        <time>2021-04-07T09:05:52Z</time>
      </trkpt>
      <trkpt lat="44.48894" lon="6.59081">
        <ele>2699</ele>
        <time>2021-04-07T09:05:53Z</time>
      </trkpt>
      <trkpt lat="44.48894" lon="6.59081">
        <ele>2699</ele>
        <time>2021-04-07T09:05:54Z</time>
      </trkpt>
      <trkpt lat="44.48894" lon="6.59081">
        <ele>2699</ele>
        <time>2021-04-07T09:05:55Z</time>
      </trkpt>
      <trkpt lat="44.48894" lon="6.5908">
        <ele>2699</ele>
        <time>2021-04-07T09:05:56Z</time>
      </trkpt>
      <trkpt lat="44.48894" lon="6.5908">
        <ele>2699</ele>
        <time>2021-04-07T09:05:57Z</time>
      </trkpt>
      <trkpt lat="44.48894" lon="6.5908">
        <ele>2699</ele>
        <time>2021-04-07T09:05:58Z</time>
      </trkpt>
      <trkpt lat="44.48894" lon="6.5908">
        <ele>2699</ele>
        <time>2021-04-07T09:05:59Z</time>
      </trkpt>
      <trkpt lat="44.48894" lon="6.5908">
        <ele>2699</ele>
        <time>2021-04-07T09:06:00Z</time>
      </trkpt>
      <trkpt lat="44.48894" lon="6.5908">
        <ele>2699</ele>
        <time>2021-04-07T09:06:01Z</time>
      </trkpt>
      <trkpt lat="44.48894" lon="6.5908">
        <ele>2699</ele>
        <time>2021-04-07T09:06:02Z</time>
      </trkpt>
      <trkpt lat="44.48894" lon="6.5908">
        <ele>2699</ele>
        <time>2021-04-07T09:06:03Z</time>
      </trkpt>
      <trkpt lat="44.48894" lon="6.5908">
        <ele>2699</ele>
        <time>2021-04-07T09:06:04Z</time>
      </trkpt>
      <trkpt lat="44.48894" lon="6.5908">
        <ele>2699</ele>
        <time>2021-04-07T09:06:05Z</time>
      </trkpt>
      <trkpt lat="44.48894" lon="6.59083">
        <ele>2699</ele>
        <time>2021-04-07T09:06:06Z</time>
      </trkpt>
      <trkpt lat="44.48894" lon="6.59083">
        <ele>2699</ele>
        <time>2021-04-07T09:06:07Z</time>
      </trkpt>
      <trkpt lat="44.48894" lon="6.59083">
        <ele>2699</ele>
        <time>2021-04-07T09:06:08Z</time>
      </trkpt>
      <trkpt lat="44.48895" lon="6.59083">
        <ele>2699</ele>
        <time>2021-04-07T09:06:09Z</time>
      </trkpt>
      <trkpt lat="44.48895" lon="6.59084">
        <ele>2699</ele>
        <time>2021-04-07T09:06:10Z</time>
      </trkpt>
      <trkpt lat="44.48895" lon="6.59084">
        <ele>2699</ele>
        <time>2021-04-07T09:06:11Z</time>
      </trkpt>
      <trkpt lat="44.48895" lon="6.59084">
        <ele>2699</ele>
        <time>2021-04-07T09:06:12Z</time>
      </trkpt>
      <trkpt lat="44.48896" lon="6.59084">
        <ele>2699</ele>
        <time>2021-04-07T09:06:13Z</time>
      </trkpt>
      <trkpt lat="44.48895" lon="6.59084">
        <ele>2699</ele>
        <time>2021-04-07T09:06:14Z</time>
      </trkpt>
      <trkpt lat="44.48895" lon="6.59084">
        <ele>2699</ele>
        <time>2021-04-07T09:06:15Z</time>
      </trkpt>
      <trkpt lat="44.48895" lon="6.59085">
        <ele>2699</ele>
        <time>2021-04-07T09:06:16Z</time>
      </trkpt>
      <trkpt lat="44.48894" lon="6.59086">
        <ele>2699</ele>
        <time>2021-04-07T09:06:17Z</time>
      </trkpt>
      <trkpt lat="44.48894" lon="6.59086">
        <ele>2700</ele>
        <time>2021-04-07T09:06:18Z</time>
      </trkpt>
      <trkpt lat="44.48894" lon="6.59086">
        <ele>2700</ele>
        <time>2021-04-07T09:06:19Z</time>
      </trkpt>
      <trkpt lat="44.48894" lon="6.59086">
        <ele>2700</ele>
        <time>2021-04-07T09:06:20Z</time>
      </trkpt>
      <trkpt lat="44.48894" lon="6.59086">
        <ele>2700</ele>
        <time>2021-04-07T09:06:21Z</time>
      </trkpt>
      <trkpt lat="44.48894" lon="6.59086">
        <ele>2700</ele>
        <time>2021-04-07T09:06:22Z</time>
      </trkpt>
      <trkpt lat="44.48894" lon="6.59086">
        <ele>2700</ele>
        <time>2021-04-07T09:06:23Z</time>
      </trkpt>
      <trkpt lat="44.48894" lon="6.59086">
        <ele>2700</ele>
        <time>2021-04-07T09:06:24Z</time>
      </trkpt>
      <trkpt lat="44.48894" lon="6.59086">
        <ele>2700</ele>
        <time>2021-04-07T09:06:25Z</time>
      </trkpt>
      <trkpt lat="44.48894" lon="6.59086">
        <ele>2700</ele>
        <time>2021-04-07T09:06:26Z</time>
      </trkpt>
      <trkpt lat="44.48894" lon="6.59086">
        <ele>2700</ele>
        <time>2021-04-07T09:06:27Z</time>
      </trkpt>
      <trkpt lat="44.48894" lon="6.59086">
        <ele>2700</ele>
        <time>2021-04-07T09:06:28Z</time>
      </trkpt>
      <trkpt lat="44.48894" lon="6.59086">
        <ele>2700</ele>
        <time>2021-04-07T09:06:29Z</time>
      </trkpt>
      <trkpt lat="44.48894" lon="6.59086">
        <ele>2700</ele>
        <time>2021-04-07T09:06:30Z</time>
      </trkpt>
      <trkpt lat="44.48894" lon="6.59086">
        <ele>2700</ele>
        <time>2021-04-07T09:06:31Z</time>
      </trkpt>
      <trkpt lat="44.48894" lon="6.59086">
        <ele>2700</ele>
        <time>2021-04-07T09:06:32Z</time>
      </trkpt>
      <trkpt lat="44.48894" lon="6.59086">
        <ele>2700</ele>
        <time>2021-04-07T09:06:33Z</time>
      </trkpt>
      <trkpt lat="44.48894" lon="6.59086">
        <ele>2700</ele>
        <time>2021-04-07T09:06:34Z</time>
      </trkpt>
      <trkpt lat="44.48894" lon="6.59086">
        <ele>2700</ele>
        <time>2021-04-07T09:06:35Z</time>
      </trkpt>
      <trkpt lat="44.48894" lon="6.59086">
        <ele>2700</ele>
        <time>2021-04-07T09:06:36Z</time>
      </trkpt>
      <trkpt lat="44.48894" lon="6.59086">
        <ele>2700</ele>
        <time>2021-04-07T09:06:37Z</time>
      </trkpt>
      <trkpt lat="44.48894" lon="6.59086">
        <ele>2700</ele>
        <time>2021-04-07T09:06:38Z</time>
      </trkpt>
      <trkpt lat="44.48894" lon="6.59086">
        <ele>2700</ele>
        <time>2021-04-07T09:06:39Z</time>
      </trkpt>
      <trkpt lat="44.48894" lon="6.59086">
        <ele>2700</ele>
        <time>2021-04-07T09:06:40Z</time>
      </trkpt>
      <trkpt lat="44.48886" lon="6.59091">
        <ele>2701</ele>
        <time>2021-04-07T09:06:41Z</time>
      </trkpt>
      <trkpt lat="44.48886" lon="6.59091">
        <ele>2701</ele>
        <time>2021-04-07T09:06:42Z</time>
      </trkpt>
      <trkpt lat="44.48885" lon="6.59092">
        <ele>2701</ele>
        <time>2021-04-07T09:06:43Z</time>
      </trkpt>
      <trkpt lat="44.48885" lon="6.59092">
        <ele>2701</ele>
        <time>2021-04-07T09:06:44Z</time>
      </trkpt>
      <trkpt lat="44.48885" lon="6.59093">
        <ele>2701</ele>
        <time>2021-04-07T09:06:45Z</time>
      </trkpt>
      <trkpt lat="44.48884" lon="6.59093">
        <ele>2701</ele>
        <time>2021-04-07T09:06:46Z</time>
      </trkpt>
      <trkpt lat="44.48884" lon="6.59093">
        <ele>2701</ele>
        <time>2021-04-07T09:06:47Z</time>
      </trkpt>
      <trkpt lat="44.48884" lon="6.59093">
        <ele>2701</ele>
        <time>2021-04-07T09:06:48Z</time>
      </trkpt>
      <trkpt lat="44.48883" lon="6.59093">
        <ele>2701</ele>
        <time>2021-04-07T09:06:49Z</time>
      </trkpt>
      <trkpt lat="44.48883" lon="6.59093">
        <ele>2701</ele>
        <time>2021-04-07T09:06:50Z</time>
      </trkpt>
      <trkpt lat="44.48882" lon="6.59093">
        <ele>2701</ele>
        <time>2021-04-07T09:06:51Z</time>
      </trkpt>
      <trkpt lat="44.48882" lon="6.59093">
        <ele>2701</ele>
        <time>2021-04-07T09:06:52Z</time>
      </trkpt>
      <trkpt lat="44.48882" lon="6.59094">
        <ele>2701</ele>
        <time>2021-04-07T09:06:53Z</time>
      </trkpt>
      <trkpt lat="44.48882" lon="6.59094">
        <ele>2701</ele>
        <time>2021-04-07T09:06:54Z</time>
      </trkpt>
      <trkpt lat="44.48882" lon="6.59094">
        <ele>2701</ele>
        <time>2021-04-07T09:06:55Z</time>
      </trkpt>
      <trkpt lat="44.48882" lon="6.59094">
        <ele>2701</ele>
        <time>2021-04-07T09:06:56Z</time>
      </trkpt>
      <trkpt lat="44.48882" lon="6.59094">
        <ele>2702</ele>
        <time>2021-04-07T09:06:57Z</time>
      </trkpt>
      <trkpt lat="44.48882" lon="6.59094">
        <ele>2702</ele>
        <time>2021-04-07T09:06:58Z</time>
      </trkpt>
      <trkpt lat="44.48882" lon="6.59094">
        <ele>2702</ele>
        <time>2021-04-07T09:06:59Z</time>
      </trkpt>
      <trkpt lat="44.48882" lon="6.59094">
        <ele>2702</ele>
        <time>2021-04-07T09:07:00Z</time>
      </trkpt>
      <trkpt lat="44.48882" lon="6.59094">
        <ele>2702</ele>
        <time>2021-04-07T09:07:01Z</time>
      </trkpt>
      <trkpt lat="44.48882" lon="6.59094">
        <ele>2702</ele>
        <time>2021-04-07T09:07:02Z</time>
      </trkpt>
      <trkpt lat="44.48882" lon="6.59094">
        <ele>2702</ele>
        <time>2021-04-07T09:07:03Z</time>
      </trkpt>
      <trkpt lat="44.48882" lon="6.59094">
        <ele>2702</ele>
        <time>2021-04-07T09:07:04Z</time>
      </trkpt>
      <trkpt lat="44.48878" lon="6.59095">
        <ele>2702</ele>
        <time>2021-04-07T09:07:05Z</time>
      </trkpt>
      <trkpt lat="44.48878" lon="6.59095">
        <ele>2702</ele>
        <time>2021-04-07T09:07:06Z</time>
      </trkpt>
      <trkpt lat="44.48878" lon="6.59094">
        <ele>2703</ele>
        <time>2021-04-07T09:07:07Z</time>
      </trkpt>
      <trkpt lat="44.48878" lon="6.59094">
        <ele>2703</ele>
        <time>2021-04-07T09:07:08Z</time>
      </trkpt>
      <trkpt lat="44.48878" lon="6.59094">
        <ele>2703</ele>
        <time>2021-04-07T09:07:09Z</time>
      </trkpt>
      <trkpt lat="44.48878" lon="6.59094">
        <ele>2703</ele>
        <time>2021-04-07T09:07:10Z</time>
      </trkpt>
      <trkpt lat="44.48877" lon="6.59096">
        <ele>2703</ele>
        <time>2021-04-07T09:07:11Z</time>
      </trkpt>
      <trkpt lat="44.48877" lon="6.59096">
        <ele>2703</ele>
        <time>2021-04-07T09:07:12Z</time>
      </trkpt>
      <trkpt lat="44.48877" lon="6.59097">
        <ele>2703</ele>
        <time>2021-04-07T09:07:13Z</time>
      </trkpt>
      <trkpt lat="44.48876" lon="6.59097">
        <ele>2703</ele>
        <time>2021-04-07T09:07:14Z</time>
      </trkpt>
      <trkpt lat="44.48876" lon="6.59097">
        <ele>2703</ele>
        <time>2021-04-07T09:07:15Z</time>
      </trkpt>
      <trkpt lat="44.48876" lon="6.59098">
        <ele>2703</ele>
        <time>2021-04-07T09:07:16Z</time>
      </trkpt>
      <trkpt lat="44.48876" lon="6.59098">
        <ele>2703</ele>
        <time>2021-04-07T09:07:17Z</time>
      </trkpt>
      <trkpt lat="44.48875" lon="6.59097">
        <ele>2703</ele>
        <time>2021-04-07T09:07:18Z</time>
      </trkpt>
      <trkpt lat="44.48875" lon="6.59097">
        <ele>2703</ele>
        <time>2021-04-07T09:07:19Z</time>
      </trkpt>
      <trkpt lat="44.48874" lon="6.59097">
        <ele>2703</ele>
        <time>2021-04-07T09:07:20Z</time>
      </trkpt>
      <trkpt lat="44.48874" lon="6.59097">
        <ele>2703</ele>
        <time>2021-04-07T09:07:21Z</time>
      </trkpt>
      <trkpt lat="44.48874" lon="6.59096">
        <ele>2703</ele>
        <time>2021-04-07T09:07:22Z</time>
      </trkpt>
      <trkpt lat="44.48873" lon="6.59096">
        <ele>2703</ele>
        <time>2021-04-07T09:07:23Z</time>
      </trkpt>
      <trkpt lat="44.48873" lon="6.59095">
        <ele>2703</ele>
        <time>2021-04-07T09:07:24Z</time>
      </trkpt>
      <trkpt lat="44.48873" lon="6.59094">
        <ele>2703</ele>
        <time>2021-04-07T09:07:25Z</time>
      </trkpt>
      <trkpt lat="44.48872" lon="6.59093">
        <ele>2703</ele>
        <time>2021-04-07T09:07:26Z</time>
      </trkpt>
      <trkpt lat="44.48872" lon="6.59092">
        <ele>2703</ele>
        <time>2021-04-07T09:07:27Z</time>
      </trkpt>
      <trkpt lat="44.48872" lon="6.59092">
        <ele>2703</ele>
        <time>2021-04-07T09:07:28Z</time>
      </trkpt>
      <trkpt lat="44.48871" lon="6.59093">
        <ele>2703</ele>
        <time>2021-04-07T09:07:29Z</time>
      </trkpt>
      <trkpt lat="44.48871" lon="6.59093">
        <ele>2703</ele>
        <time>2021-04-07T09:07:30Z</time>
      </trkpt>
      <trkpt lat="44.48872" lon="6.59094">
        <ele>2703</ele>
        <time>2021-04-07T09:07:31Z</time>
      </trkpt>
      <trkpt lat="44.48872" lon="6.59094">
        <ele>2703</ele>
        <time>2021-04-07T09:07:32Z</time>
      </trkpt>
      <trkpt lat="44.48872" lon="6.59093">
        <ele>2703</ele>
        <time>2021-04-07T09:07:33Z</time>
      </trkpt>
      <trkpt lat="44.48872" lon="6.59093">
        <ele>2703</ele>
        <time>2021-04-07T09:07:34Z</time>
      </trkpt>
      <trkpt lat="44.48872" lon="6.59092">
        <ele>2703</ele>
        <time>2021-04-07T09:07:35Z</time>
      </trkpt>
      <trkpt lat="44.48872" lon="6.59092">
        <ele>2703</ele>
        <time>2021-04-07T09:07:36Z</time>
      </trkpt>
      <trkpt lat="44.48871" lon="6.59092">
        <ele>2703</ele>
        <time>2021-04-07T09:07:37Z</time>
      </trkpt>
      <trkpt lat="44.48871" lon="6.59092">
        <ele>2703</ele>
        <time>2021-04-07T09:07:38Z</time>
      </trkpt>
      <trkpt lat="44.48871" lon="6.59092">
        <ele>2703</ele>
        <time>2021-04-07T09:07:39Z</time>
      </trkpt>
      <trkpt lat="44.48871" lon="6.59092">
        <ele>2703</ele>
        <time>2021-04-07T09:07:40Z</time>
      </trkpt>
      <trkpt lat="44.4887" lon="6.59093">
        <ele>2703</ele>
        <time>2021-04-07T09:07:41Z</time>
      </trkpt>
      <trkpt lat="44.4887" lon="6.59094">
        <ele>2703</ele>
        <time>2021-04-07T09:07:42Z</time>
      </trkpt>
      <trkpt lat="44.4887" lon="6.59094">
        <ele>2703</ele>
        <time>2021-04-07T09:07:43Z</time>
      </trkpt>
      <trkpt lat="44.4887" lon="6.59094">
        <ele>2703</ele>
        <time>2021-04-07T09:07:44Z</time>
      </trkpt>
      <trkpt lat="44.48869" lon="6.59094">
        <ele>2703</ele>
        <time>2021-04-07T09:07:45Z</time>
      </trkpt>
      <trkpt lat="44.48869" lon="6.59094">
        <ele>2703</ele>
        <time>2021-04-07T09:07:46Z</time>
      </trkpt>
      <trkpt lat="44.48869" lon="6.59094">
        <ele>2703</ele>
        <time>2021-04-07T09:07:47Z</time>
      </trkpt>
      <trkpt lat="44.48869" lon="6.59094">
        <ele>2703</ele>
        <time>2021-04-07T09:07:48Z</time>
      </trkpt>
      <trkpt lat="44.48869" lon="6.59094">
        <ele>2703</ele>
        <time>2021-04-07T09:07:49Z</time>
      </trkpt>
      <trkpt lat="44.48869" lon="6.59094">
        <ele>2703</ele>
        <time>2021-04-07T09:07:50Z</time>
      </trkpt>
      <trkpt lat="44.48869" lon="6.59094">
        <ele>2704</ele>
        <time>2021-04-07T09:07:51Z</time>
      </trkpt>
      <trkpt lat="44.48869" lon="6.59094">
        <ele>2704</ele>
        <time>2021-04-07T09:07:52Z</time>
      </trkpt>
      <trkpt lat="44.48869" lon="6.59094">
        <ele>2704</ele>
        <time>2021-04-07T09:07:53Z</time>
      </trkpt>
      <trkpt lat="44.48869" lon="6.59094">
        <ele>2704</ele>
        <time>2021-04-07T09:07:54Z</time>
      </trkpt>
      <trkpt lat="44.48869" lon="6.59094">
        <ele>2704</ele>
        <time>2021-04-07T09:07:55Z</time>
      </trkpt>
      <trkpt lat="44.48869" lon="6.59094">
        <ele>2704</ele>
        <time>2021-04-07T09:07:56Z</time>
      </trkpt>
      <trkpt lat="44.48869" lon="6.59094">
        <ele>2704</ele>
        <time>2021-04-07T09:07:57Z</time>
      </trkpt>
      <trkpt lat="44.48869" lon="6.59094">
        <ele>2704</ele>
        <time>2021-04-07T09:07:58Z</time>
      </trkpt>
      <trkpt lat="44.48869" lon="6.59094">
        <ele>2704</ele>
        <time>2021-04-07T09:07:59Z</time>
      </trkpt>
      <trkpt lat="44.48869" lon="6.59094">
        <ele>2704</ele>
        <time>2021-04-07T09:08:00Z</time>
      </trkpt>
      <trkpt lat="44.48869" lon="6.59094">
        <ele>2704</ele>
        <time>2021-04-07T09:08:01Z</time>
      </trkpt>
      <trkpt lat="44.48869" lon="6.59094">
        <ele>2704</ele>
        <time>2021-04-07T09:08:02Z</time>
      </trkpt>
      <trkpt lat="44.48869" lon="6.59094">
        <ele>2704</ele>
        <time>2021-04-07T09:08:03Z</time>
      </trkpt>
      <trkpt lat="44.48869" lon="6.59094">
        <ele>2704</ele>
        <time>2021-04-07T09:08:04Z</time>
      </trkpt>
      <trkpt lat="44.48869" lon="6.59094">
        <ele>2704</ele>
        <time>2021-04-07T09:08:05Z</time>
      </trkpt>
      <trkpt lat="44.48869" lon="6.59094">
        <ele>2704</ele>
        <time>2021-04-07T09:08:06Z</time>
      </trkpt>
      <trkpt lat="44.48869" lon="6.59094">
        <ele>2704</ele>
        <time>2021-04-07T09:08:07Z</time>
      </trkpt>
      <trkpt lat="44.48869" lon="6.59094">
        <ele>2704</ele>
        <time>2021-04-07T09:08:08Z</time>
      </trkpt>
      <trkpt lat="44.48869" lon="6.59094">
        <ele>2704</ele>
        <time>2021-04-07T09:08:09Z</time>
      </trkpt>
      <trkpt lat="44.48866" lon="6.59095">
        <ele>2704</ele>
        <time>2021-04-07T09:08:10Z</time>
      </trkpt>
      <trkpt lat="44.48867" lon="6.59095">
        <ele>2704</ele>
        <time>2021-04-07T09:08:11Z</time>
      </trkpt>
      <trkpt lat="44.48867" lon="6.59095">
        <ele>2704</ele>
        <time>2021-04-07T09:08:12Z</time>
      </trkpt>
      <trkpt lat="44.48867" lon="6.59095">
        <ele>2704</ele>
        <time>2021-04-07T09:08:13Z</time>
      </trkpt>
      <trkpt lat="44.48867" lon="6.59095">
        <ele>2705</ele>
        <time>2021-04-07T09:08:14Z</time>
      </trkpt>
      <trkpt lat="44.48867" lon="6.59095">
        <ele>2705</ele>
        <time>2021-04-07T09:08:15Z</time>
      </trkpt>
      <trkpt lat="44.48867" lon="6.59095">
        <ele>2705</ele>
        <time>2021-04-07T09:08:16Z</time>
      </trkpt>
      <trkpt lat="44.48867" lon="6.59095">
        <ele>2705</ele>
        <time>2021-04-07T09:08:17Z</time>
      </trkpt>
      <trkpt lat="44.48867" lon="6.59095">
        <ele>2705</ele>
        <time>2021-04-07T09:08:18Z</time>
      </trkpt>
      <trkpt lat="44.48867" lon="6.59094">
        <ele>2705</ele>
        <time>2021-04-07T09:08:19Z</time>
      </trkpt>
      <trkpt lat="44.48867" lon="6.59093">
        <ele>2705</ele>
        <time>2021-04-07T09:08:20Z</time>
      </trkpt>
      <trkpt lat="44.48867" lon="6.59093">
        <ele>2706</ele>
        <time>2021-04-07T09:08:21Z</time>
      </trkpt>
      <trkpt lat="44.48867" lon="6.59092">
        <ele>2706</ele>
        <time>2021-04-07T09:08:22Z</time>
      </trkpt>
      <trkpt lat="44.48867" lon="6.59092">
        <ele>2706</ele>
        <time>2021-04-07T09:08:23Z</time>
      </trkpt>
      <trkpt lat="44.48867" lon="6.59092">
        <ele>2706</ele>
        <time>2021-04-07T09:08:24Z</time>
      </trkpt>
      <trkpt lat="44.48867" lon="6.59092">
        <ele>2706</ele>
        <time>2021-04-07T09:08:25Z</time>
      </trkpt>
      <trkpt lat="44.48867" lon="6.59092">
        <ele>2706</ele>
        <time>2021-04-07T09:08:26Z</time>
      </trkpt>
      <trkpt lat="44.48867" lon="6.59092">
        <ele>2706</ele>
        <time>2021-04-07T09:08:27Z</time>
      </trkpt>
      <trkpt lat="44.48867" lon="6.59092">
        <ele>2706</ele>
        <time>2021-04-07T09:08:28Z</time>
      </trkpt>
      <trkpt lat="44.48867" lon="6.59092">
        <ele>2707</ele>
        <time>2021-04-07T09:08:29Z</time>
      </trkpt>
      <trkpt lat="44.48867" lon="6.59092">
        <ele>2707</ele>
        <time>2021-04-07T09:08:30Z</time>
      </trkpt>
      <trkpt lat="44.48866" lon="6.59089">
        <ele>2709</ele>
        <time>2021-04-07T09:08:31Z</time>
      </trkpt>
      <trkpt lat="44.48866" lon="6.59088">
        <ele>2710</ele>
        <time>2021-04-07T09:08:32Z</time>
      </trkpt>
      <trkpt lat="44.48866" lon="6.59088">
        <ele>2710</ele>
        <time>2021-04-07T09:08:33Z</time>
      </trkpt>
      <trkpt lat="44.48867" lon="6.59088">
        <ele>2710</ele>
        <time>2021-04-07T09:08:34Z</time>
      </trkpt>
      <trkpt lat="44.48866" lon="6.59087">
        <ele>2710</ele>
        <time>2021-04-07T09:08:35Z</time>
      </trkpt>
      <trkpt lat="44.48867" lon="6.59087">
        <ele>2711</ele>
        <time>2021-04-07T09:08:36Z</time>
      </trkpt>
      <trkpt lat="44.48867" lon="6.59086">
        <ele>2711</ele>
        <time>2021-04-07T09:08:37Z</time>
      </trkpt>
      <trkpt lat="44.48867" lon="6.59086">
        <ele>2711</ele>
        <time>2021-04-07T09:08:38Z</time>
      </trkpt>
      <trkpt lat="44.48867" lon="6.59085">
        <ele>2711</ele>
        <time>2021-04-07T09:08:39Z</time>
      </trkpt>
      <trkpt lat="44.48867" lon="6.59085">
        <ele>2711</ele>
        <time>2021-04-07T09:08:40Z</time>
      </trkpt>
      <trkpt lat="44.48867" lon="6.59085">
        <ele>2711</ele>
        <time>2021-04-07T09:08:41Z</time>
      </trkpt>
      <trkpt lat="44.48867" lon="6.59085">
        <ele>2711</ele>
        <time>2021-04-07T09:08:42Z</time>
      </trkpt>
      <trkpt lat="44.48867" lon="6.59085">
        <ele>2711</ele>
        <time>2021-04-07T09:08:43Z</time>
      </trkpt>
      <trkpt lat="44.48867" lon="6.59085">
        <ele>2711</ele>
        <time>2021-04-07T09:08:44Z</time>
      </trkpt>
      <trkpt lat="44.48867" lon="6.59085">
        <ele>2711</ele>
        <time>2021-04-07T09:08:45Z</time>
      </trkpt>
      <trkpt lat="44.48867" lon="6.59085">
        <ele>2711</ele>
        <time>2021-04-07T09:08:46Z</time>
      </trkpt>
      <trkpt lat="44.48867" lon="6.59085">
        <ele>2711</ele>
        <time>2021-04-07T09:08:47Z</time>
      </trkpt>
      <trkpt lat="44.48867" lon="6.59085">
        <ele>2711</ele>
        <time>2021-04-07T09:08:48Z</time>
      </trkpt>
      <trkpt lat="44.48867" lon="6.59085">
        <ele>2711</ele>
        <time>2021-04-07T09:08:49Z</time>
      </trkpt>
      <trkpt lat="44.48867" lon="6.59085">
        <ele>2712</ele>
        <time>2021-04-07T09:08:50Z</time>
      </trkpt>
      <trkpt lat="44.48867" lon="6.59085">
        <ele>2712</ele>
        <time>2021-04-07T09:08:51Z</time>
      </trkpt>
      <trkpt lat="44.48867" lon="6.59085">
        <ele>2712</ele>
        <time>2021-04-07T09:08:52Z</time>
      </trkpt>
      <trkpt lat="44.48867" lon="6.59085">
        <ele>2712</ele>
        <time>2021-04-07T09:08:53Z</time>
      </trkpt>
      <trkpt lat="44.48867" lon="6.59085">
        <ele>2712</ele>
        <time>2021-04-07T09:08:54Z</time>
      </trkpt>
      <trkpt lat="44.48867" lon="6.59085">
        <ele>2712</ele>
        <time>2021-04-07T09:08:55Z</time>
      </trkpt>
      <trkpt lat="44.48867" lon="6.59085">
        <ele>2712</ele>
        <time>2021-04-07T09:08:56Z</time>
      </trkpt>
      <trkpt lat="44.48866" lon="6.59084">
        <ele>2712</ele>
        <time>2021-04-07T09:08:57Z</time>
      </trkpt>
      <trkpt lat="44.48867" lon="6.59084">
        <ele>2712</ele>
        <time>2021-04-07T09:08:58Z</time>
      </trkpt>
      <trkpt lat="44.48867" lon="6.59083">
        <ele>2712</ele>
        <time>2021-04-07T09:08:59Z</time>
      </trkpt>
      <trkpt lat="44.48867" lon="6.59083">
        <ele>2712</ele>
        <time>2021-04-07T09:09:00Z</time>
      </trkpt>
      <trkpt lat="44.48867" lon="6.59083">
        <ele>2712</ele>
        <time>2021-04-07T09:09:01Z</time>
      </trkpt>
      <trkpt lat="44.48867" lon="6.59082">
        <ele>2712</ele>
        <time>2021-04-07T09:09:02Z</time>
      </trkpt>
      <trkpt lat="44.48867" lon="6.59081">
        <ele>2713</ele>
        <time>2021-04-07T09:09:03Z</time>
      </trkpt>
      <trkpt lat="44.48868" lon="6.59081">
        <ele>2713</ele>
        <time>2021-04-07T09:09:04Z</time>
      </trkpt>
      <trkpt lat="44.48867" lon="6.5908">
        <ele>2713</ele>
        <time>2021-04-07T09:09:05Z</time>
      </trkpt>
      <trkpt lat="44.48868" lon="6.5908">
        <ele>2714</ele>
        <time>2021-04-07T09:09:06Z</time>
      </trkpt>
      <trkpt lat="44.48868" lon="6.59079">
        <ele>2714</ele>
        <time>2021-04-07T09:09:07Z</time>
      </trkpt>
      <trkpt lat="44.48868" lon="6.59078">
        <ele>2714</ele>
        <time>2021-04-07T09:09:08Z</time>
      </trkpt>
      <trkpt lat="44.48869" lon="6.59078">
        <ele>2714</ele>
        <time>2021-04-07T09:09:09Z</time>
      </trkpt>
      <trkpt lat="44.48868" lon="6.59078">
        <ele>2715</ele>
        <time>2021-04-07T09:09:10Z</time>
      </trkpt>
      <trkpt lat="44.48868" lon="6.59079">
        <ele>2715</ele>
        <time>2021-04-07T09:09:11Z</time>
      </trkpt>
      <trkpt lat="44.48868" lon="6.59078">
        <ele>2715</ele>
        <time>2021-04-07T09:09:12Z</time>
      </trkpt>
      <trkpt lat="44.48868" lon="6.59079">
        <ele>2715</ele>
        <time>2021-04-07T09:09:13Z</time>
      </trkpt>
      <trkpt lat="44.48868" lon="6.59079">
        <ele>2715</ele>
        <time>2021-04-07T09:09:14Z</time>
      </trkpt>
      <trkpt lat="44.48869" lon="6.59079">
        <ele>2715</ele>
        <time>2021-04-07T09:09:15Z</time>
      </trkpt>
      <trkpt lat="44.48869" lon="6.5908">
        <ele>2715</ele>
        <time>2021-04-07T09:09:16Z</time>
      </trkpt>
      <trkpt lat="44.48869" lon="6.5908">
        <ele>2715</ele>
        <time>2021-04-07T09:09:17Z</time>
      </trkpt>
      <trkpt lat="44.48869" lon="6.5908">
        <ele>2715</ele>
        <time>2021-04-07T09:09:18Z</time>
      </trkpt>
      <trkpt lat="44.48869" lon="6.5908">
        <ele>2715</ele>
        <time>2021-04-07T09:09:19Z</time>
      </trkpt>
      <trkpt lat="44.48869" lon="6.5908">
        <ele>2715</ele>
        <time>2021-04-07T09:09:20Z</time>
      </trkpt>
      <trkpt lat="44.48869" lon="6.5908">
        <ele>2715</ele>
        <time>2021-04-07T09:09:21Z</time>
      </trkpt>
      <trkpt lat="44.48869" lon="6.5908">
        <ele>2715</ele>
        <time>2021-04-07T09:09:22Z</time>
      </trkpt>
      <trkpt lat="44.48869" lon="6.5908">
        <ele>2715</ele>
        <time>2021-04-07T09:09:23Z</time>
      </trkpt>
      <trkpt lat="44.48869" lon="6.5908">
        <ele>2715</ele>
        <time>2021-04-07T09:09:24Z</time>
      </trkpt>
      <trkpt lat="44.48869" lon="6.5908">
        <ele>2715</ele>
        <time>2021-04-07T09:09:25Z</time>
      </trkpt>
      <trkpt lat="44.48869" lon="6.5908">
        <ele>2715</ele>
        <time>2021-04-07T09:09:26Z</time>
      </trkpt>
      <trkpt lat="44.48869" lon="6.5908">
        <ele>2715</ele>
        <time>2021-04-07T09:09:27Z</time>
      </trkpt>
      <trkpt lat="44.48869" lon="6.5908">
        <ele>2714</ele>
        <time>2021-04-07T09:09:28Z</time>
      </trkpt>
      <trkpt lat="44.48869" lon="6.5908">
        <ele>2714</ele>
        <time>2021-04-07T09:09:29Z</time>
      </trkpt>
      <trkpt lat="44.48869" lon="6.5908">
        <ele>2714</ele>
        <time>2021-04-07T09:09:30Z</time>
      </trkpt>
      <trkpt lat="44.48869" lon="6.5908">
        <ele>2714</ele>
        <time>2021-04-07T09:09:31Z</time>
      </trkpt>
      <trkpt lat="44.48869" lon="6.5908">
        <ele>2714</ele>
        <time>2021-04-07T09:09:32Z</time>
      </trkpt>
      <trkpt lat="44.48869" lon="6.5908">
        <ele>2714</ele>
        <time>2021-04-07T09:09:33Z</time>
      </trkpt>
      <trkpt lat="44.48869" lon="6.5908">
        <ele>2714</ele>
        <time>2021-04-07T09:09:34Z</time>
      </trkpt>
      <trkpt lat="44.48869" lon="6.5908">
        <ele>2714</ele>
        <time>2021-04-07T09:09:35Z</time>
      </trkpt>
      <trkpt lat="44.48869" lon="6.5908">
        <ele>2714</ele>
        <time>2021-04-07T09:09:36Z</time>
      </trkpt>
      <trkpt lat="44.48869" lon="6.5908">
        <ele>2714</ele>
        <time>2021-04-07T09:09:37Z</time>
      </trkpt>
      <trkpt lat="44.48869" lon="6.5908">
        <ele>2714</ele>
        <time>2021-04-07T09:09:38Z</time>
      </trkpt>
      <trkpt lat="44.48869" lon="6.5908">
        <ele>2714</ele>
        <time>2021-04-07T09:09:39Z</time>
      </trkpt>
      <trkpt lat="44.48869" lon="6.5908">
        <ele>2714</ele>
        <time>2021-04-07T09:09:40Z</time>
      </trkpt>
      <trkpt lat="44.48869" lon="6.5908">
        <ele>2714</ele>
        <time>2021-04-07T09:09:41Z</time>
      </trkpt>
      <trkpt lat="44.48869" lon="6.5908">
        <ele>2714</ele>
        <time>2021-04-07T09:09:42Z</time>
      </trkpt>
      <trkpt lat="44.48869" lon="6.5908">
        <ele>2714</ele>
        <time>2021-04-07T09:09:43Z</time>
      </trkpt>
      <trkpt lat="44.48869" lon="6.5908">
        <ele>2714</ele>
        <time>2021-04-07T09:09:44Z</time>
      </trkpt>
      <trkpt lat="44.48869" lon="6.5908">
        <ele>2714</ele>
        <time>2021-04-07T09:09:45Z</time>
      </trkpt>
      <trkpt lat="44.48869" lon="6.5908">
        <ele>2714</ele>
        <time>2021-04-07T09:09:46Z</time>
      </trkpt>
      <trkpt lat="44.48869" lon="6.5908">
        <ele>2714</ele>
        <time>2021-04-07T09:09:47Z</time>
      </trkpt>
      <trkpt lat="44.48869" lon="6.5908">
        <ele>2714</ele>
        <time>2021-04-07T09:09:48Z</time>
      </trkpt>
      <trkpt lat="44.48869" lon="6.5908">
        <ele>2714</ele>
        <time>2021-04-07T09:09:49Z</time>
      </trkpt>
      <trkpt lat="44.48869" lon="6.5908">
        <ele>2714</ele>
        <time>2021-04-07T09:09:50Z</time>
      </trkpt>
      <trkpt lat="44.48869" lon="6.5908">
        <ele>2714</ele>
        <time>2021-04-07T09:09:51Z</time>
      </trkpt>
      <trkpt lat="44.48869" lon="6.5908">
        <ele>2714</ele>
        <time>2021-04-07T09:09:52Z</time>
      </trkpt>
      <trkpt lat="44.48869" lon="6.5908">
        <ele>2714</ele>
        <time>2021-04-07T09:09:53Z</time>
      </trkpt>
      <trkpt lat="44.48869" lon="6.5908">
        <ele>2714</ele>
        <time>2021-04-07T09:09:54Z</time>
      </trkpt>
      <trkpt lat="44.48869" lon="6.5908">
        <ele>2714</ele>
        <time>2021-04-07T09:09:55Z</time>
      </trkpt>
      <trkpt lat="44.48869" lon="6.5908">
        <ele>2714</ele>
        <time>2021-04-07T09:09:56Z</time>
      </trkpt>
      <trkpt lat="44.48869" lon="6.5908">
        <ele>2714</ele>
        <time>2021-04-07T09:09:57Z</time>
      </trkpt>
      <trkpt lat="44.48869" lon="6.5908">
        <ele>2714</ele>
        <time>2021-04-07T09:09:58Z</time>
      </trkpt>
      <trkpt lat="44.48869" lon="6.5908">
        <ele>2714</ele>
        <time>2021-04-07T09:09:59Z</time>
      </trkpt>
      <trkpt lat="44.48869" lon="6.5908">
        <ele>2714</ele>
        <time>2021-04-07T09:10:00Z</time>
      </trkpt>
      <trkpt lat="44.48869" lon="6.5908">
        <ele>2714</ele>
        <time>2021-04-07T09:10:01Z</time>
      </trkpt>
      <trkpt lat="44.48869" lon="6.5908">
        <ele>2714</ele>
        <time>2021-04-07T09:10:02Z</time>
      </trkpt>
      <trkpt lat="44.48869" lon="6.5908">
        <ele>2714</ele>
        <time>2021-04-07T09:10:03Z</time>
      </trkpt>
      <trkpt lat="44.48864" lon="6.59089">
        <ele>2716</ele>
        <time>2021-04-07T09:10:04Z</time>
      </trkpt>
      <trkpt lat="44.48864" lon="6.5909">
        <ele>2716</ele>
        <time>2021-04-07T09:10:05Z</time>
      </trkpt>
      <trkpt lat="44.48864" lon="6.59089">
        <ele>2716</ele>
        <time>2021-04-07T09:10:06Z</time>
      </trkpt>
      <trkpt lat="44.48864" lon="6.59089">
        <ele>2716</ele>
        <time>2021-04-07T09:10:07Z</time>
      </trkpt>
      <trkpt lat="44.48864" lon="6.59089">
        <ele>2716</ele>
        <time>2021-04-07T09:10:08Z</time>
      </trkpt>
      <trkpt lat="44.48864" lon="6.59089">
        <ele>2716</ele>
        <time>2021-04-07T09:10:09Z</time>
      </trkpt>
      <trkpt lat="44.48864" lon="6.59089">
        <ele>2716</ele>
        <time>2021-04-07T09:10:10Z</time>
      </trkpt>
      <trkpt lat="44.48864" lon="6.59089">
        <ele>2716</ele>
        <time>2021-04-07T09:10:11Z</time>
      </trkpt>
      <trkpt lat="44.48864" lon="6.59089">
        <ele>2716</ele>
        <time>2021-04-07T09:10:12Z</time>
      </trkpt>
      <trkpt lat="44.48864" lon="6.59089">
        <ele>2717</ele>
        <time>2021-04-07T09:10:13Z</time>
      </trkpt>
      <trkpt lat="44.48864" lon="6.59088">
        <ele>2717</ele>
        <time>2021-04-07T09:10:14Z</time>
      </trkpt>
      <trkpt lat="44.48864" lon="6.59088">
        <ele>2717</ele>
        <time>2021-04-07T09:10:15Z</time>
      </trkpt>
      <trkpt lat="44.48863" lon="6.59088">
        <ele>2717</ele>
        <time>2021-04-07T09:10:16Z</time>
      </trkpt>
      <trkpt lat="44.48863" lon="6.59088">
        <ele>2717</ele>
        <time>2021-04-07T09:10:17Z</time>
      </trkpt>
      <trkpt lat="44.48863" lon="6.59088">
        <ele>2717</ele>
        <time>2021-04-07T09:10:18Z</time>
      </trkpt>
      <trkpt lat="44.48863" lon="6.59088">
        <ele>2717</ele>
        <time>2021-04-07T09:10:19Z</time>
      </trkpt>
      <trkpt lat="44.48863" lon="6.59088">
        <ele>2717</ele>
        <time>2021-04-07T09:10:20Z</time>
      </trkpt>
      <trkpt lat="44.48863" lon="6.59088">
        <ele>2717</ele>
        <time>2021-04-07T09:10:21Z</time>
      </trkpt>
      <trkpt lat="44.48863" lon="6.59088">
        <ele>2717</ele>
        <time>2021-04-07T09:10:22Z</time>
      </trkpt>
      <trkpt lat="44.48863" lon="6.59088">
        <ele>2717</ele>
        <time>2021-04-07T09:10:23Z</time>
      </trkpt>
      <trkpt lat="44.48863" lon="6.59088">
        <ele>2717</ele>
        <time>2021-04-07T09:10:24Z</time>
      </trkpt>
      <trkpt lat="44.48863" lon="6.59088">
        <ele>2718</ele>
        <time>2021-04-07T09:10:25Z</time>
      </trkpt>
      <trkpt lat="44.48863" lon="6.59088">
        <ele>2718</ele>
        <time>2021-04-07T09:10:26Z</time>
      </trkpt>
      <trkpt lat="44.48859" lon="6.59089">
        <ele>2719</ele>
        <time>2021-04-07T09:10:27Z</time>
      </trkpt>
      <trkpt lat="44.48859" lon="6.59089">
        <ele>2719</ele>
        <time>2021-04-07T09:10:28Z</time>
      </trkpt>
      <trkpt lat="44.48859" lon="6.59089">
        <ele>2719</ele>
        <time>2021-04-07T09:10:29Z</time>
      </trkpt>
      <trkpt lat="44.4886" lon="6.59089">
        <ele>2719</ele>
        <time>2021-04-07T09:10:30Z</time>
      </trkpt>
      <trkpt lat="44.4886" lon="6.59089">
        <ele>2719</ele>
        <time>2021-04-07T09:10:31Z</time>
      </trkpt>
      <trkpt lat="44.4886" lon="6.59089">
        <ele>2719</ele>
        <time>2021-04-07T09:10:32Z</time>
      </trkpt>
      <trkpt lat="44.4886" lon="6.59089">
        <ele>2719</ele>
        <time>2021-04-07T09:10:33Z</time>
      </trkpt>
      <trkpt lat="44.4886" lon="6.59089">
        <ele>2719</ele>
        <time>2021-04-07T09:10:34Z</time>
      </trkpt>
      <trkpt lat="44.48861" lon="6.59088">
        <ele>2719</ele>
        <time>2021-04-07T09:10:35Z</time>
      </trkpt>
      <trkpt lat="44.48861" lon="6.59088">
        <ele>2719</ele>
        <time>2021-04-07T09:10:36Z</time>
      </trkpt>
      <trkpt lat="44.48861" lon="6.59086">
        <ele>2719</ele>
        <time>2021-04-07T09:10:37Z</time>
      </trkpt>
      <trkpt lat="44.48861" lon="6.59086">
        <ele>2719</ele>
        <time>2021-04-07T09:10:38Z</time>
      </trkpt>
      <trkpt lat="44.4886" lon="6.59085">
        <ele>2719</ele>
        <time>2021-04-07T09:10:39Z</time>
      </trkpt>
      <trkpt lat="44.4886" lon="6.59085">
        <ele>2719</ele>
        <time>2021-04-07T09:10:40Z</time>
      </trkpt>
      <trkpt lat="44.4886" lon="6.59085">
        <ele>2719</ele>
        <time>2021-04-07T09:10:41Z</time>
      </trkpt>
      <trkpt lat="44.48859" lon="6.59084">
        <ele>2720</ele>
        <time>2021-04-07T09:10:42Z</time>
      </trkpt>
      <trkpt lat="44.48859" lon="6.59084">
        <ele>2720</ele>
        <time>2021-04-07T09:10:43Z</time>
      </trkpt>
      <trkpt lat="44.48858" lon="6.59084">
        <ele>2720</ele>
        <time>2021-04-07T09:10:44Z</time>
      </trkpt>
      <trkpt lat="44.48857" lon="6.59086">
        <ele>2720</ele>
        <time>2021-04-07T09:10:45Z</time>
      </trkpt>
      <trkpt lat="44.48858" lon="6.59085">
        <ele>2720</ele>
        <time>2021-04-07T09:10:46Z</time>
      </trkpt>
      <trkpt lat="44.48858" lon="6.59085">
        <ele>2720</ele>
        <time>2021-04-07T09:10:47Z</time>
      </trkpt>
      <trkpt lat="44.48857" lon="6.59085">
        <ele>2720</ele>
        <time>2021-04-07T09:10:48Z</time>
      </trkpt>
      <trkpt lat="44.48857" lon="6.59085">
        <ele>2720</ele>
        <time>2021-04-07T09:10:49Z</time>
      </trkpt>
      <trkpt lat="44.48857" lon="6.59084">
        <ele>2720</ele>
        <time>2021-04-07T09:10:50Z</time>
      </trkpt>
      <trkpt lat="44.48856" lon="6.59084">
        <ele>2721</ele>
        <time>2021-04-07T09:10:51Z</time>
      </trkpt>
      <trkpt lat="44.48857" lon="6.59084">
        <ele>2721</ele>
        <time>2021-04-07T09:10:52Z</time>
      </trkpt>
      <trkpt lat="44.48857" lon="6.59084">
        <ele>2721</ele>
        <time>2021-04-07T09:10:53Z</time>
      </trkpt>
      <trkpt lat="44.48857" lon="6.59083">
        <ele>2721</ele>
        <time>2021-04-07T09:10:54Z</time>
      </trkpt>
      <trkpt lat="44.48857" lon="6.59083">
        <ele>2722</ele>
        <time>2021-04-07T09:10:55Z</time>
      </trkpt>
      <trkpt lat="44.48857" lon="6.59083">
        <ele>2722</ele>
        <time>2021-04-07T09:10:56Z</time>
      </trkpt>
      <trkpt lat="44.48857" lon="6.59082">
        <ele>2722</ele>
        <time>2021-04-07T09:10:57Z</time>
      </trkpt>
      <trkpt lat="44.48857" lon="6.59082">
        <ele>2722</ele>
        <time>2021-04-07T09:10:58Z</time>
      </trkpt>
      <trkpt lat="44.48857" lon="6.59082">
        <ele>2722</ele>
        <time>2021-04-07T09:10:59Z</time>
      </trkpt>
      <trkpt lat="44.48857" lon="6.59082">
        <ele>2722</ele>
        <time>2021-04-07T09:11:00Z</time>
      </trkpt>
      <trkpt lat="44.48857" lon="6.59082">
        <ele>2722</ele>
        <time>2021-04-07T09:11:01Z</time>
      </trkpt>
      <trkpt lat="44.48857" lon="6.59082">
        <ele>2722</ele>
        <time>2021-04-07T09:11:02Z</time>
      </trkpt>
      <trkpt lat="44.48857" lon="6.59082">
        <ele>2722</ele>
        <time>2021-04-07T09:11:03Z</time>
      </trkpt>
      <trkpt lat="44.48857" lon="6.59082">
        <ele>2722</ele>
        <time>2021-04-07T09:11:04Z</time>
      </trkpt>
      <trkpt lat="44.48856" lon="6.59082">
        <ele>2722</ele>
        <time>2021-04-07T09:11:05Z</time>
      </trkpt>
      <trkpt lat="44.48856" lon="6.59081">
        <ele>2722</ele>
        <time>2021-04-07T09:11:06Z</time>
      </trkpt>
      <trkpt lat="44.48855" lon="6.59081">
        <ele>2722</ele>
        <time>2021-04-07T09:11:07Z</time>
      </trkpt>
      <trkpt lat="44.48855" lon="6.59081">
        <ele>2722</ele>
        <time>2021-04-07T09:11:08Z</time>
      </trkpt>
      <trkpt lat="44.48855" lon="6.59081">
        <ele>2722</ele>
        <time>2021-04-07T09:11:09Z</time>
      </trkpt>
      <trkpt lat="44.48854" lon="6.59081">
        <ele>2722</ele>
        <time>2021-04-07T09:11:10Z</time>
      </trkpt>
      <trkpt lat="44.48854" lon="6.59081">
        <ele>2722</ele>
        <time>2021-04-07T09:11:11Z</time>
      </trkpt>
      <trkpt lat="44.48854" lon="6.59081">
        <ele>2722</ele>
        <time>2021-04-07T09:11:12Z</time>
      </trkpt>
      <trkpt lat="44.48854" lon="6.59081">
        <ele>2722</ele>
        <time>2021-04-07T09:11:13Z</time>
      </trkpt>
      <trkpt lat="44.48854" lon="6.59081">
        <ele>2722</ele>
        <time>2021-04-07T09:11:14Z</time>
      </trkpt>
      <trkpt lat="44.48854" lon="6.59081">
        <ele>2722</ele>
        <time>2021-04-07T09:11:15Z</time>
      </trkpt>
      <trkpt lat="44.48854" lon="6.59081">
        <ele>2723</ele>
        <time>2021-04-07T09:11:16Z</time>
      </trkpt>
      <trkpt lat="44.48854" lon="6.59081">
        <ele>2723</ele>
        <time>2021-04-07T09:11:17Z</time>
      </trkpt>
      <trkpt lat="44.48854" lon="6.59081">
        <ele>2723</ele>
        <time>2021-04-07T09:11:18Z</time>
      </trkpt>
      <trkpt lat="44.48854" lon="6.59081">
        <ele>2723</ele>
        <time>2021-04-07T09:11:19Z</time>
      </trkpt>
      <trkpt lat="44.48854" lon="6.59081">
        <ele>2723</ele>
        <time>2021-04-07T09:11:20Z</time>
      </trkpt>
      <trkpt lat="44.48854" lon="6.59081">
        <ele>2723</ele>
        <time>2021-04-07T09:11:21Z</time>
      </trkpt>
      <trkpt lat="44.48854" lon="6.59081">
        <ele>2723</ele>
        <time>2021-04-07T09:11:22Z</time>
      </trkpt>
      <trkpt lat="44.48854" lon="6.59081">
        <ele>2723</ele>
        <time>2021-04-07T09:11:23Z</time>
      </trkpt>
      <trkpt lat="44.48854" lon="6.59081">
        <ele>2723</ele>
        <time>2021-04-07T09:11:24Z</time>
      </trkpt>
      <trkpt lat="44.48854" lon="6.59081">
        <ele>2723</ele>
        <time>2021-04-07T09:11:25Z</time>
      </trkpt>
      <trkpt lat="44.48854" lon="6.59081">
        <ele>2723</ele>
        <time>2021-04-07T09:11:26Z</time>
      </trkpt>
      <trkpt lat="44.48854" lon="6.59081">
        <ele>2723</ele>
        <time>2021-04-07T09:11:27Z</time>
      </trkpt>
      <trkpt lat="44.48854" lon="6.59081">
        <ele>2723</ele>
        <time>2021-04-07T09:11:28Z</time>
      </trkpt>
      <trkpt lat="44.48854" lon="6.59081">
        <ele>2723</ele>
        <time>2021-04-07T09:11:29Z</time>
      </trkpt>
      <trkpt lat="44.48854" lon="6.59081">
        <ele>2723</ele>
        <time>2021-04-07T09:11:30Z</time>
      </trkpt>
      <trkpt lat="44.48854" lon="6.59081">
        <ele>2723</ele>
        <time>2021-04-07T09:11:31Z</time>
      </trkpt>
      <trkpt lat="44.48854" lon="6.59081">
        <ele>2723</ele>
        <time>2021-04-07T09:11:32Z</time>
      </trkpt>
      <trkpt lat="44.48854" lon="6.59081">
        <ele>2723</ele>
        <time>2021-04-07T09:11:33Z</time>
      </trkpt>
      <trkpt lat="44.48854" lon="6.59081">
        <ele>2723</ele>
        <time>2021-04-07T09:11:34Z</time>
      </trkpt>
      <trkpt lat="44.48854" lon="6.59081">
        <ele>2723</ele>
        <time>2021-04-07T09:11:35Z</time>
      </trkpt>
      <trkpt lat="44.48854" lon="6.59081">
        <ele>2723</ele>
        <time>2021-04-07T09:11:36Z</time>
      </trkpt>
      <trkpt lat="44.48854" lon="6.59081">
        <ele>2723</ele>
        <time>2021-04-07T09:11:37Z</time>
      </trkpt>
      <trkpt lat="44.48854" lon="6.59081">
        <ele>2723</ele>
        <time>2021-04-07T09:11:38Z</time>
      </trkpt>
      <trkpt lat="44.48854" lon="6.59081">
        <ele>2723</ele>
        <time>2021-04-07T09:11:39Z</time>
      </trkpt>
      <trkpt lat="44.48854" lon="6.59081">
        <ele>2723</ele>
        <time>2021-04-07T09:11:40Z</time>
      </trkpt>
      <trkpt lat="44.48854" lon="6.59081">
        <ele>2723</ele>
        <time>2021-04-07T09:11:41Z</time>
      </trkpt>
      <trkpt lat="44.48854" lon="6.59081">
        <ele>2723</ele>
        <time>2021-04-07T09:11:42Z</time>
      </trkpt>
      <trkpt lat="44.48854" lon="6.59081">
        <ele>2723</ele>
        <time>2021-04-07T09:11:43Z</time>
      </trkpt>
      <trkpt lat="44.48854" lon="6.59081">
        <ele>2723</ele>
        <time>2021-04-07T09:11:44Z</time>
      </trkpt>
      <trkpt lat="44.48854" lon="6.59081">
        <ele>2723</ele>
        <time>2021-04-07T09:11:45Z</time>
      </trkpt>
      <trkpt lat="44.48854" lon="6.59081">
        <ele>2723</ele>
        <time>2021-04-07T09:11:46Z</time>
      </trkpt>
      <trkpt lat="44.48854" lon="6.59081">
        <ele>2723</ele>
        <time>2021-04-07T09:11:47Z</time>
      </trkpt>
      <trkpt lat="44.48854" lon="6.59081">
        <ele>2723</ele>
        <time>2021-04-07T09:11:48Z</time>
      </trkpt>
      <trkpt lat="44.48854" lon="6.59081">
        <ele>2723</ele>
        <time>2021-04-07T09:11:49Z</time>
      </trkpt>
      <trkpt lat="44.48854" lon="6.59081">
        <ele>2723</ele>
        <time>2021-04-07T09:11:50Z</time>
      </trkpt>
      <trkpt lat="44.48854" lon="6.59081">
        <ele>2723</ele>
        <time>2021-04-07T09:11:51Z</time>
      </trkpt>
      <trkpt lat="44.48854" lon="6.59081">
        <ele>2723</ele>
        <time>2021-04-07T09:11:52Z</time>
      </trkpt>
      <trkpt lat="44.48854" lon="6.59081">
        <ele>2723</ele>
        <time>2021-04-07T09:11:53Z</time>
      </trkpt>
      <trkpt lat="44.48854" lon="6.59081">
        <ele>2723</ele>
        <time>2021-04-07T09:11:54Z</time>
      </trkpt>
      <trkpt lat="44.48854" lon="6.59081">
        <ele>2723</ele>
        <time>2021-04-07T09:11:55Z</time>
      </trkpt>
      <trkpt lat="44.48854" lon="6.59081">
        <ele>2723</ele>
        <time>2021-04-07T09:11:56Z</time>
      </trkpt>
      <trkpt lat="44.48854" lon="6.59081">
        <ele>2723</ele>
        <time>2021-04-07T09:11:57Z</time>
      </trkpt>
      <trkpt lat="44.48854" lon="6.59081">
        <ele>2723</ele>
        <time>2021-04-07T09:11:58Z</time>
      </trkpt>
      <trkpt lat="44.48854" lon="6.59081">
        <ele>2723</ele>
        <time>2021-04-07T09:11:59Z</time>
      </trkpt>
      <trkpt lat="44.48854" lon="6.59081">
        <ele>2723</ele>
        <time>2021-04-07T09:12:00Z</time>
      </trkpt>
      <trkpt lat="44.48854" lon="6.59081">
        <ele>2723</ele>
        <time>2021-04-07T09:12:01Z</time>
      </trkpt>
      <trkpt lat="44.48854" lon="6.59081">
        <ele>2723</ele>
        <time>2021-04-07T09:12:02Z</time>
      </trkpt>
      <trkpt lat="44.48854" lon="6.59081">
        <ele>2723</ele>
        <time>2021-04-07T09:12:03Z</time>
      </trkpt>
      <trkpt lat="44.48854" lon="6.59081">
        <ele>2723</ele>
        <time>2021-04-07T09:12:04Z</time>
      </trkpt>
      <trkpt lat="44.48854" lon="6.59081">
        <ele>2723</ele>
        <time>2021-04-07T09:12:05Z</time>
      </trkpt>
      <trkpt lat="44.48854" lon="6.59081">
        <ele>2723</ele>
        <time>2021-04-07T09:12:06Z</time>
      </trkpt>
      <trkpt lat="44.48854" lon="6.59081">
        <ele>2723</ele>
        <time>2021-04-07T09:12:07Z</time>
      </trkpt>
      <trkpt lat="44.48854" lon="6.59081">
        <ele>2723</ele>
        <time>2021-04-07T09:12:08Z</time>
      </trkpt>
      <trkpt lat="44.48854" lon="6.59081">
        <ele>2723</ele>
        <time>2021-04-07T09:12:09Z</time>
      </trkpt>
      <trkpt lat="44.48854" lon="6.59081">
        <ele>2723</ele>
        <time>2021-04-07T09:12:10Z</time>
      </trkpt>
      <trkpt lat="44.48854" lon="6.59081">
        <ele>2723</ele>
        <time>2021-04-07T09:12:11Z</time>
      </trkpt>
      <trkpt lat="44.48854" lon="6.59081">
        <ele>2723</ele>
        <time>2021-04-07T09:12:12Z</time>
      </trkpt>
      <trkpt lat="44.48854" lon="6.59081">
        <ele>2723</ele>
        <time>2021-04-07T09:12:13Z</time>
      </trkpt>
      <trkpt lat="44.48854" lon="6.59081">
        <ele>2723</ele>
        <time>2021-04-07T09:12:14Z</time>
      </trkpt>
      <trkpt lat="44.48847" lon="6.59075">
        <ele>2726</ele>
        <time>2021-04-07T09:12:15Z</time>
      </trkpt>
      <trkpt lat="44.48847" lon="6.59075">
        <ele>2727</ele>
        <time>2021-04-07T09:12:16Z</time>
      </trkpt>
      <trkpt lat="44.48847" lon="6.59076">
        <ele>2727</ele>
        <time>2021-04-07T09:12:17Z</time>
      </trkpt>
      <trkpt lat="44.48846" lon="6.59076">
        <ele>2727</ele>
        <time>2021-04-07T09:12:18Z</time>
      </trkpt>
      <trkpt lat="44.48846" lon="6.59076">
        <ele>2727</ele>
        <time>2021-04-07T09:12:19Z</time>
      </trkpt>
      <trkpt lat="44.48846" lon="6.59076">
        <ele>2728</ele>
        <time>2021-04-07T09:12:20Z</time>
      </trkpt>
      <trkpt lat="44.48843" lon="6.59077">
        <ele>2728</ele>
        <time>2021-04-07T09:12:21Z</time>
      </trkpt>
      <trkpt lat="44.48843" lon="6.59077">
        <ele>2728</ele>
        <time>2021-04-07T09:12:22Z</time>
      </trkpt>
      <trkpt lat="44.48844" lon="6.59077">
        <ele>2728</ele>
        <time>2021-04-07T09:12:23Z</time>
      </trkpt>
      <trkpt lat="44.48844" lon="6.59077">
        <ele>2728</ele>
        <time>2021-04-07T09:12:24Z</time>
      </trkpt>
      <trkpt lat="44.48844" lon="6.59077">
        <ele>2728</ele>
        <time>2021-04-07T09:12:25Z</time>
      </trkpt>
      <trkpt lat="44.48844" lon="6.59077">
        <ele>2728</ele>
        <time>2021-04-07T09:12:26Z</time>
      </trkpt>
      <trkpt lat="44.48844" lon="6.59077">
        <ele>2728</ele>
        <time>2021-04-07T09:12:27Z</time>
      </trkpt>
      <trkpt lat="44.48844" lon="6.59077">
        <ele>2728</ele>
        <time>2021-04-07T09:12:28Z</time>
      </trkpt>
      <trkpt lat="44.48844" lon="6.59077">
        <ele>2728</ele>
        <time>2021-04-07T09:12:29Z</time>
      </trkpt>
      <trkpt lat="44.48844" lon="6.59077">
        <ele>2728</ele>
        <time>2021-04-07T09:12:30Z</time>
      </trkpt>
      <trkpt lat="44.48844" lon="6.59077">
        <ele>2728</ele>
        <time>2021-04-07T09:12:31Z</time>
      </trkpt>
      <trkpt lat="44.48844" lon="6.59077">
        <ele>2728</ele>
        <time>2021-04-07T09:12:32Z</time>
      </trkpt>
      <trkpt lat="44.48844" lon="6.59077">
        <ele>2728</ele>
        <time>2021-04-07T09:12:33Z</time>
      </trkpt>
      <trkpt lat="44.48844" lon="6.59077">
        <ele>2728</ele>
        <time>2021-04-07T09:12:34Z</time>
      </trkpt>
      <trkpt lat="44.48844" lon="6.59077">
        <ele>2728</ele>
        <time>2021-04-07T09:12:35Z</time>
      </trkpt>
      <trkpt lat="44.48844" lon="6.59077">
        <ele>2728</ele>
        <time>2021-04-07T09:12:36Z</time>
      </trkpt>
      <trkpt lat="44.48844" lon="6.59077">
        <ele>2728</ele>
        <time>2021-04-07T09:12:37Z</time>
      </trkpt>
      <trkpt lat="44.48844" lon="6.59077">
        <ele>2728</ele>
        <time>2021-04-07T09:12:38Z</time>
      </trkpt>
      <trkpt lat="44.48844" lon="6.59077">
        <ele>2728</ele>
        <time>2021-04-07T09:12:39Z</time>
      </trkpt>
      <trkpt lat="44.48844" lon="6.59077">
        <ele>2728</ele>
        <time>2021-04-07T09:12:40Z</time>
      </trkpt>
      <trkpt lat="44.48844" lon="6.59077">
        <ele>2728</ele>
        <time>2021-04-07T09:12:41Z</time>
      </trkpt>
      <trkpt lat="44.48844" lon="6.59077">
        <ele>2728</ele>
        <time>2021-04-07T09:12:42Z</time>
      </trkpt>
      <trkpt lat="44.48844" lon="6.59077">
        <ele>2728</ele>
        <time>2021-04-07T09:12:43Z</time>
      </trkpt>
      <trkpt lat="44.48844" lon="6.59077">
        <ele>2728</ele>
        <time>2021-04-07T09:12:44Z</time>
      </trkpt>
      <trkpt lat="44.48843" lon="6.59074">
        <ele>2728</ele>
        <time>2021-04-07T09:12:45Z</time>
      </trkpt>
      <trkpt lat="44.48843" lon="6.59074">
        <ele>2728</ele>
        <time>2021-04-07T09:12:46Z</time>
      </trkpt>
      <trkpt lat="44.48843" lon="6.59074">
        <ele>2728</ele>
        <time>2021-04-07T09:12:47Z</time>
      </trkpt>
      <trkpt lat="44.48843" lon="6.59074">
        <ele>2728</ele>
        <time>2021-04-07T09:12:48Z</time>
      </trkpt>
      <trkpt lat="44.48843" lon="6.59074">
        <ele>2728</ele>
        <time>2021-04-07T09:12:49Z</time>
      </trkpt>
      <trkpt lat="44.48843" lon="6.59074">
        <ele>2728</ele>
        <time>2021-04-07T09:12:50Z</time>
      </trkpt>
      <trkpt lat="44.48843" lon="6.59074">
        <ele>2728</ele>
        <time>2021-04-07T09:12:51Z</time>
      </trkpt>
      <trkpt lat="44.48842" lon="6.59073">
        <ele>2728</ele>
        <time>2021-04-07T09:12:52Z</time>
      </trkpt>
      <trkpt lat="44.48842" lon="6.59074">
        <ele>2728</ele>
        <time>2021-04-07T09:12:53Z</time>
      </trkpt>
      <trkpt lat="44.48842" lon="6.59074">
        <ele>2728</ele>
        <time>2021-04-07T09:12:54Z</time>
      </trkpt>
      <trkpt lat="44.48841" lon="6.59074">
        <ele>2728</ele>
        <time>2021-04-07T09:12:55Z</time>
      </trkpt>
      <trkpt lat="44.48841" lon="6.59074">
        <ele>2728</ele>
        <time>2021-04-07T09:12:56Z</time>
      </trkpt>
      <trkpt lat="44.48841" lon="6.59074">
        <ele>2728</ele>
        <time>2021-04-07T09:12:57Z</time>
      </trkpt>
      <trkpt lat="44.48841" lon="6.59073">
        <ele>2728</ele>
        <time>2021-04-07T09:12:58Z</time>
      </trkpt>
      <trkpt lat="44.48841" lon="6.59073">
        <ele>2728</ele>
        <time>2021-04-07T09:12:59Z</time>
      </trkpt>
      <trkpt lat="44.48841" lon="6.59073">
        <ele>2728</ele>
        <time>2021-04-07T09:13:00Z</time>
      </trkpt>
      <trkpt lat="44.48841" lon="6.59073">
        <ele>2728</ele>
        <time>2021-04-07T09:13:01Z</time>
      </trkpt>
      <trkpt lat="44.48841" lon="6.59073">
        <ele>2728</ele>
        <time>2021-04-07T09:13:02Z</time>
      </trkpt>
      <trkpt lat="44.48841" lon="6.59073">
        <ele>2729</ele>
        <time>2021-04-07T09:13:03Z</time>
      </trkpt>
      <trkpt lat="44.48841" lon="6.59073">
        <ele>2729</ele>
        <time>2021-04-07T09:13:04Z</time>
      </trkpt>
      <trkpt lat="44.48841" lon="6.59073">
        <ele>2729</ele>
        <time>2021-04-07T09:13:05Z</time>
      </trkpt>
      <trkpt lat="44.48841" lon="6.59073">
        <ele>2729</ele>
        <time>2021-04-07T09:13:06Z</time>
      </trkpt>
      <trkpt lat="44.48841" lon="6.59073">
        <ele>2729</ele>
        <time>2021-04-07T09:13:07Z</time>
      </trkpt>
      <trkpt lat="44.48841" lon="6.59073">
        <ele>2729</ele>
        <time>2021-04-07T09:13:08Z</time>
      </trkpt>
      <trkpt lat="44.48841" lon="6.59073">
        <ele>2729</ele>
        <time>2021-04-07T09:13:09Z</time>
      </trkpt>
      <trkpt lat="44.48841" lon="6.59073">
        <ele>2729</ele>
        <time>2021-04-07T09:13:10Z</time>
      </trkpt>
      <trkpt lat="44.48839" lon="6.59072">
        <ele>2729</ele>
        <time>2021-04-07T09:13:11Z</time>
      </trkpt>
      <trkpt lat="44.48839" lon="6.59072">
        <ele>2729</ele>
        <time>2021-04-07T09:13:12Z</time>
      </trkpt>
      <trkpt lat="44.48839" lon="6.59072">
        <ele>2729</ele>
        <time>2021-04-07T09:13:13Z</time>
      </trkpt>
      <trkpt lat="44.48838" lon="6.59072">
        <ele>2729</ele>
        <time>2021-04-07T09:13:14Z</time>
      </trkpt>
      <trkpt lat="44.48838" lon="6.59072">
        <ele>2729</ele>
        <time>2021-04-07T09:13:15Z</time>
      </trkpt>
      <trkpt lat="44.48838" lon="6.59072">
        <ele>2729</ele>
        <time>2021-04-07T09:13:16Z</time>
      </trkpt>
      <trkpt lat="44.48838" lon="6.59072">
        <ele>2729</ele>
        <time>2021-04-07T09:13:17Z</time>
      </trkpt>
      <trkpt lat="44.48838" lon="6.59072">
        <ele>2729</ele>
        <time>2021-04-07T09:13:18Z</time>
      </trkpt>
      <trkpt lat="44.48838" lon="6.59075">
        <ele>2730</ele>
        <time>2021-04-07T09:13:19Z</time>
      </trkpt>
      <trkpt lat="44.48837" lon="6.59075">
        <ele>2730</ele>
        <time>2021-04-07T09:13:20Z</time>
      </trkpt>
      <trkpt lat="44.48837" lon="6.59075">
        <ele>2730</ele>
        <time>2021-04-07T09:13:21Z</time>
      </trkpt>
      <trkpt lat="44.48837" lon="6.59074">
        <ele>2730</ele>
        <time>2021-04-07T09:13:22Z</time>
      </trkpt>
      <trkpt lat="44.48837" lon="6.59074">
        <ele>2731</ele>
        <time>2021-04-07T09:13:23Z</time>
      </trkpt>
      <trkpt lat="44.48838" lon="6.59073">
        <ele>2731</ele>
        <time>2021-04-07T09:13:24Z</time>
      </trkpt>
      <trkpt lat="44.48838" lon="6.59073">
        <ele>2731</ele>
        <time>2021-04-07T09:13:25Z</time>
      </trkpt>
      <trkpt lat="44.48838" lon="6.59073">
        <ele>2731</ele>
        <time>2021-04-07T09:13:26Z</time>
      </trkpt>
      <trkpt lat="44.48838" lon="6.59073">
        <ele>2731</ele>
        <time>2021-04-07T09:13:27Z</time>
      </trkpt>
      <trkpt lat="44.48838" lon="6.59073">
        <ele>2731</ele>
        <time>2021-04-07T09:13:28Z</time>
      </trkpt>
      <trkpt lat="44.48838" lon="6.59073">
        <ele>2731</ele>
        <time>2021-04-07T09:13:29Z</time>
      </trkpt>
      <trkpt lat="44.48838" lon="6.59073">
        <ele>2731</ele>
        <time>2021-04-07T09:13:30Z</time>
      </trkpt>
      <trkpt lat="44.48838" lon="6.59073">
        <ele>2731</ele>
        <time>2021-04-07T09:13:31Z</time>
      </trkpt>
      <trkpt lat="44.48838" lon="6.59073">
        <ele>2731</ele>
        <time>2021-04-07T09:13:32Z</time>
      </trkpt>
      <trkpt lat="44.48838" lon="6.59073">
        <ele>2731</ele>
        <time>2021-04-07T09:13:33Z</time>
      </trkpt>
      <trkpt lat="44.48838" lon="6.59073">
        <ele>2731</ele>
        <time>2021-04-07T09:13:34Z</time>
      </trkpt>
      <trkpt lat="44.48838" lon="6.59073">
        <ele>2731</ele>
        <time>2021-04-07T09:13:35Z</time>
      </trkpt>
      <trkpt lat="44.48838" lon="6.59073">
        <ele>2731</ele>
        <time>2021-04-07T09:13:36Z</time>
      </trkpt>
      <trkpt lat="44.48838" lon="6.59073">
        <ele>2731</ele>
        <time>2021-04-07T09:13:37Z</time>
      </trkpt>
      <trkpt lat="44.48838" lon="6.59073">
        <ele>2731</ele>
        <time>2021-04-07T09:13:38Z</time>
      </trkpt>
      <trkpt lat="44.48838" lon="6.59073">
        <ele>2731</ele>
        <time>2021-04-07T09:13:39Z</time>
      </trkpt>
      <trkpt lat="44.48838" lon="6.59073">
        <ele>2731</ele>
        <time>2021-04-07T09:13:40Z</time>
      </trkpt>
      <trkpt lat="44.48838" lon="6.59073">
        <ele>2731</ele>
        <time>2021-04-07T09:13:41Z</time>
      </trkpt>
      <trkpt lat="44.48838" lon="6.59073">
        <ele>2731</ele>
        <time>2021-04-07T09:13:42Z</time>
      </trkpt>
      <trkpt lat="44.48838" lon="6.59073">
        <ele>2731</ele>
        <time>2021-04-07T09:13:43Z</time>
      </trkpt>
      <trkpt lat="44.48838" lon="6.59073">
        <ele>2731</ele>
        <time>2021-04-07T09:13:44Z</time>
      </trkpt>
      <trkpt lat="44.48837" lon="6.59069">
        <ele>2732</ele>
        <time>2021-04-07T09:13:45Z</time>
      </trkpt>
      <trkpt lat="44.48838" lon="6.59068">
        <ele>2733</ele>
        <time>2021-04-07T09:13:46Z</time>
      </trkpt>
      <trkpt lat="44.48838" lon="6.59068">
        <ele>2733</ele>
        <time>2021-04-07T09:13:47Z</time>
      </trkpt>
      <trkpt lat="44.48838" lon="6.59068">
        <ele>2733</ele>
        <time>2021-04-07T09:13:48Z</time>
      </trkpt>
      <trkpt lat="44.48838" lon="6.59068">
        <ele>2734</ele>
        <time>2021-04-07T09:13:49Z</time>
      </trkpt>
      <trkpt lat="44.48838" lon="6.59068">
        <ele>2734</ele>
        <time>2021-04-07T09:13:50Z</time>
      </trkpt>
      <trkpt lat="44.48838" lon="6.59068">
        <ele>2734</ele>
        <time>2021-04-07T09:13:51Z</time>
      </trkpt>
      <trkpt lat="44.48838" lon="6.59068">
        <ele>2734</ele>
        <time>2021-04-07T09:13:52Z</time>
      </trkpt>
      <trkpt lat="44.48838" lon="6.59068">
        <ele>2734</ele>
        <time>2021-04-07T09:13:53Z</time>
      </trkpt>
      <trkpt lat="44.48838" lon="6.59068">
        <ele>2734</ele>
        <time>2021-04-07T09:13:54Z</time>
      </trkpt>
      <trkpt lat="44.48838" lon="6.59068">
        <ele>2734</ele>
        <time>2021-04-07T09:13:55Z</time>
      </trkpt>
      <trkpt lat="44.48838" lon="6.59068">
        <ele>2734</ele>
        <time>2021-04-07T09:13:56Z</time>
      </trkpt>
      <trkpt lat="44.48838" lon="6.59068">
        <ele>2734</ele>
        <time>2021-04-07T09:13:57Z</time>
      </trkpt>
      <trkpt lat="44.48838" lon="6.59068">
        <ele>2734</ele>
        <time>2021-04-07T09:13:58Z</time>
      </trkpt>
      <trkpt lat="44.48838" lon="6.59068">
        <ele>2734</ele>
        <time>2021-04-07T09:13:59Z</time>
      </trkpt>
      <trkpt lat="44.48838" lon="6.59068">
        <ele>2734</ele>
        <time>2021-04-07T09:14:00Z</time>
      </trkpt>
      <trkpt lat="44.48838" lon="6.59068">
        <ele>2734</ele>
        <time>2021-04-07T09:14:01Z</time>
      </trkpt>
      <trkpt lat="44.48838" lon="6.59068">
        <ele>2734</ele>
        <time>2021-04-07T09:14:02Z</time>
      </trkpt>
      <trkpt lat="44.48838" lon="6.59068">
        <ele>2734</ele>
        <time>2021-04-07T09:14:03Z</time>
      </trkpt>
      <trkpt lat="44.48838" lon="6.59068">
        <ele>2734</ele>
        <time>2021-04-07T09:14:04Z</time>
      </trkpt>
      <trkpt lat="44.48838" lon="6.59068">
        <ele>2734</ele>
        <time>2021-04-07T09:14:05Z</time>
      </trkpt>
      <trkpt lat="44.48838" lon="6.59068">
        <ele>2734</ele>
        <time>2021-04-07T09:14:06Z</time>
      </trkpt>
      <trkpt lat="44.48838" lon="6.59068">
        <ele>2734</ele>
        <time>2021-04-07T09:14:07Z</time>
      </trkpt>
      <trkpt lat="44.48838" lon="6.59068">
        <ele>2734</ele>
        <time>2021-04-07T09:14:08Z</time>
      </trkpt>
      <trkpt lat="44.48838" lon="6.59068">
        <ele>2734</ele>
        <time>2021-04-07T09:14:09Z</time>
      </trkpt>
      <trkpt lat="44.48838" lon="6.59068">
        <ele>2734</ele>
        <time>2021-04-07T09:14:10Z</time>
      </trkpt>
      <trkpt lat="44.48838" lon="6.59068">
        <ele>2734</ele>
        <time>2021-04-07T09:14:11Z</time>
      </trkpt>
      <trkpt lat="44.48838" lon="6.59068">
        <ele>2734</ele>
        <time>2021-04-07T09:14:12Z</time>
      </trkpt>
      <trkpt lat="44.48838" lon="6.59068">
        <ele>2734</ele>
        <time>2021-04-07T09:14:13Z</time>
      </trkpt>
      <trkpt lat="44.48838" lon="6.59068">
        <ele>2734</ele>
        <time>2021-04-07T09:14:14Z</time>
      </trkpt>
      <trkpt lat="44.48838" lon="6.59068">
        <ele>2734</ele>
        <time>2021-04-07T09:14:15Z</time>
      </trkpt>
      <trkpt lat="44.4884" lon="6.59068">
        <ele>2735</ele>
        <time>2021-04-07T09:14:16Z</time>
      </trkpt>
      <trkpt lat="44.4884" lon="6.59068">
        <ele>2735</ele>
        <time>2021-04-07T09:14:17Z</time>
      </trkpt>
      <trkpt lat="44.48841" lon="6.59068">
        <ele>2735</ele>
        <time>2021-04-07T09:14:18Z</time>
      </trkpt>
      <trkpt lat="44.48841" lon="6.59068">
        <ele>2735</ele>
        <time>2021-04-07T09:14:19Z</time>
      </trkpt>
      <trkpt lat="44.48842" lon="6.59067">
        <ele>2736</ele>
        <time>2021-04-07T09:14:20Z</time>
      </trkpt>
      <trkpt lat="44.48843" lon="6.59067">
        <ele>2736</ele>
        <time>2021-04-07T09:14:21Z</time>
      </trkpt>
      <trkpt lat="44.48843" lon="6.59067">
        <ele>2736</ele>
        <time>2021-04-07T09:14:22Z</time>
      </trkpt>
      <trkpt lat="44.48843" lon="6.59067">
        <ele>2736</ele>
        <time>2021-04-07T09:14:23Z</time>
      </trkpt>
      <trkpt lat="44.48843" lon="6.59067">
        <ele>2737</ele>
        <time>2021-04-07T09:14:24Z</time>
      </trkpt>
      <trkpt lat="44.48845" lon="6.59067">
        <ele>2737</ele>
        <time>2021-04-07T09:14:25Z</time>
      </trkpt>
      <trkpt lat="44.48845" lon="6.59068">
        <ele>2737</ele>
        <time>2021-04-07T09:14:26Z</time>
      </trkpt>
      <trkpt lat="44.48845" lon="6.59068">
        <ele>2737</ele>
        <time>2021-04-07T09:14:27Z</time>
      </trkpt>
      <trkpt lat="44.48846" lon="6.59067">
        <ele>2737</ele>
        <time>2021-04-07T09:14:28Z</time>
      </trkpt>
      <trkpt lat="44.48846" lon="6.59067">
        <ele>2737</ele>
        <time>2021-04-07T09:14:29Z</time>
      </trkpt>
      <trkpt lat="44.48846" lon="6.59067">
        <ele>2738</ele>
        <time>2021-04-07T09:14:30Z</time>
      </trkpt>
      <trkpt lat="44.48846" lon="6.59066">
        <ele>2738</ele>
        <time>2021-04-07T09:14:31Z</time>
      </trkpt>
      <trkpt lat="44.48846" lon="6.59066">
        <ele>2738</ele>
        <time>2021-04-07T09:14:32Z</time>
      </trkpt>
      <trkpt lat="44.48846" lon="6.59066">
        <ele>2738</ele>
        <time>2021-04-07T09:14:33Z</time>
      </trkpt>
      <trkpt lat="44.48846" lon="6.59067">
        <ele>2738</ele>
        <time>2021-04-07T09:14:34Z</time>
      </trkpt>
      <trkpt lat="44.48846" lon="6.59067">
        <ele>2738</ele>
        <time>2021-04-07T09:14:35Z</time>
      </trkpt>
      <trkpt lat="44.48846" lon="6.59067">
        <ele>2738</ele>
        <time>2021-04-07T09:14:36Z</time>
      </trkpt>
      <trkpt lat="44.48846" lon="6.59067">
        <ele>2738</ele>
        <time>2021-04-07T09:14:37Z</time>
      </trkpt>
      <trkpt lat="44.48846" lon="6.59067">
        <ele>2738</ele>
        <time>2021-04-07T09:14:38Z</time>
      </trkpt>
      <trkpt lat="44.48846" lon="6.59067">
        <ele>2739</ele>
        <time>2021-04-07T09:14:39Z</time>
      </trkpt>
      <trkpt lat="44.48846" lon="6.59067">
        <ele>2739</ele>
        <time>2021-04-07T09:14:40Z</time>
      </trkpt>
      <trkpt lat="44.48846" lon="6.59067">
        <ele>2739</ele>
        <time>2021-04-07T09:14:41Z</time>
      </trkpt>
      <trkpt lat="44.48846" lon="6.59067">
        <ele>2739</ele>
        <time>2021-04-07T09:14:42Z</time>
      </trkpt>
      <trkpt lat="44.48846" lon="6.59067">
        <ele>2739</ele>
        <time>2021-04-07T09:14:43Z</time>
      </trkpt>
      <trkpt lat="44.48846" lon="6.59067">
        <ele>2739</ele>
        <time>2021-04-07T09:14:44Z</time>
      </trkpt>
      <trkpt lat="44.48846" lon="6.59067">
        <ele>2739</ele>
        <time>2021-04-07T09:14:45Z</time>
      </trkpt>
      <trkpt lat="44.48846" lon="6.59067">
        <ele>2739</ele>
        <time>2021-04-07T09:14:46Z</time>
      </trkpt>
      <trkpt lat="44.48846" lon="6.59067">
        <ele>2739</ele>
        <time>2021-04-07T09:14:47Z</time>
      </trkpt>
      <trkpt lat="44.48846" lon="6.59067">
        <ele>2739</ele>
        <time>2021-04-07T09:14:48Z</time>
      </trkpt>
      <trkpt lat="44.48846" lon="6.59067">
        <ele>2739</ele>
        <time>2021-04-07T09:14:49Z</time>
      </trkpt>
      <trkpt lat="44.48846" lon="6.59067">
        <ele>2739</ele>
        <time>2021-04-07T09:14:50Z</time>
      </trkpt>
      <trkpt lat="44.48846" lon="6.59067">
        <ele>2739</ele>
        <time>2021-04-07T09:14:51Z</time>
      </trkpt>
      <trkpt lat="44.48846" lon="6.59067">
        <ele>2739</ele>
        <time>2021-04-07T09:14:52Z</time>
      </trkpt>
      <trkpt lat="44.48846" lon="6.59067">
        <ele>2739</ele>
        <time>2021-04-07T09:14:53Z</time>
      </trkpt>
      <trkpt lat="44.48846" lon="6.59067">
        <ele>2739</ele>
        <time>2021-04-07T09:14:54Z</time>
      </trkpt>
      <trkpt lat="44.48846" lon="6.59067">
        <ele>2739</ele>
        <time>2021-04-07T09:14:55Z</time>
      </trkpt>
      <trkpt lat="44.48846" lon="6.59067">
        <ele>2739</ele>
        <time>2021-04-07T09:14:56Z</time>
      </trkpt>
      <trkpt lat="44.48849" lon="6.59062">
        <ele>2741</ele>
        <time>2021-04-07T09:14:57Z</time>
      </trkpt>
      <trkpt lat="44.48849" lon="6.59062">
        <ele>2742</ele>
        <time>2021-04-07T09:14:58Z</time>
      </trkpt>
      <trkpt lat="44.48849" lon="6.59062">
        <ele>2742</ele>
        <time>2021-04-07T09:14:59Z</time>
      </trkpt>
      <trkpt lat="44.48849" lon="6.59061">
        <ele>2742</ele>
        <time>2021-04-07T09:15:00Z</time>
      </trkpt>
      <trkpt lat="44.48849" lon="6.59061">
        <ele>2743</ele>
        <time>2021-04-07T09:15:01Z</time>
      </trkpt>
      <trkpt lat="44.48849" lon="6.59061">
        <ele>2743</ele>
        <time>2021-04-07T09:15:02Z</time>
      </trkpt>
      <trkpt lat="44.48849" lon="6.5906">
        <ele>2743</ele>
        <time>2021-04-07T09:15:03Z</time>
      </trkpt>
      <trkpt lat="44.48849" lon="6.5906">
        <ele>2743</ele>
        <time>2021-04-07T09:15:04Z</time>
      </trkpt>
      <trkpt lat="44.48849" lon="6.59059">
        <ele>2743</ele>
        <time>2021-04-07T09:15:05Z</time>
      </trkpt>
      <trkpt lat="44.48849" lon="6.59059">
        <ele>2743</ele>
        <time>2021-04-07T09:15:06Z</time>
      </trkpt>
      <trkpt lat="44.48849" lon="6.59058">
        <ele>2744</ele>
        <time>2021-04-07T09:15:07Z</time>
      </trkpt>
      <trkpt lat="44.48849" lon="6.59057">
        <ele>2744</ele>
        <time>2021-04-07T09:15:08Z</time>
      </trkpt>
      <trkpt lat="44.48849" lon="6.59057">
        <ele>2744</ele>
        <time>2021-04-07T09:15:09Z</time>
      </trkpt>
      <trkpt lat="44.48849" lon="6.59057">
        <ele>2744</ele>
        <time>2021-04-07T09:15:10Z</time>
      </trkpt>
      <trkpt lat="44.48849" lon="6.59056">
        <ele>2745</ele>
        <time>2021-04-07T09:15:11Z</time>
      </trkpt>
      <trkpt lat="44.48849" lon="6.59055">
        <ele>2745</ele>
        <time>2021-04-07T09:15:12Z</time>
      </trkpt>
      <trkpt lat="44.48848" lon="6.59054">
        <ele>2745</ele>
        <time>2021-04-07T09:15:13Z</time>
      </trkpt>
      <trkpt lat="44.48848" lon="6.59054">
        <ele>2745</ele>
        <time>2021-04-07T09:15:14Z</time>
      </trkpt>
      <trkpt lat="44.48848" lon="6.59054">
        <ele>2745</ele>
        <time>2021-04-07T09:15:15Z</time>
      </trkpt>
      <trkpt lat="44.48847" lon="6.59055">
        <ele>2745</ele>
        <time>2021-04-07T09:15:16Z</time>
      </trkpt>
      <trkpt lat="44.48846" lon="6.59054">
        <ele>2745</ele>
        <time>2021-04-07T09:15:17Z</time>
      </trkpt>
      <trkpt lat="44.48844" lon="6.59055">
        <ele>2746</ele>
        <time>2021-04-07T09:15:18Z</time>
      </trkpt>
      <trkpt lat="44.48842" lon="6.59054">
        <ele>2746</ele>
        <time>2021-04-07T09:15:19Z</time>
      </trkpt>
      <trkpt lat="44.4884" lon="6.59054">
        <ele>2746</ele>
        <time>2021-04-07T09:15:20Z</time>
      </trkpt>
      <trkpt lat="44.48837" lon="6.59054">
        <ele>2746</ele>
        <time>2021-04-07T09:15:21Z</time>
      </trkpt>
      <trkpt lat="44.48836" lon="6.59056">
        <ele>2746</ele>
        <time>2021-04-07T09:15:22Z</time>
      </trkpt>
      <trkpt lat="44.48834" lon="6.59057">
        <ele>2745</ele>
        <time>2021-04-07T09:15:23Z</time>
      </trkpt>
      <trkpt lat="44.48836" lon="6.59057">
        <ele>2745</ele>
        <time>2021-04-07T09:15:24Z</time>
      </trkpt>
      <trkpt lat="44.48837" lon="6.59057">
        <ele>2745</ele>
        <time>2021-04-07T09:15:25Z</time>
      </trkpt>
      <trkpt lat="44.48837" lon="6.59057">
        <ele>2745</ele>
        <time>2021-04-07T09:15:26Z</time>
      </trkpt>
      <trkpt lat="44.4884" lon="6.59056">
        <ele>2744</ele>
        <time>2021-04-07T09:15:27Z</time>
      </trkpt>
      <trkpt lat="44.4884" lon="6.59056">
        <ele>2744</ele>
        <time>2021-04-07T09:15:28Z</time>
      </trkpt>
      <trkpt lat="44.48841" lon="6.59054">
        <ele>2744</ele>
        <time>2021-04-07T09:15:29Z</time>
      </trkpt>
      <trkpt lat="44.48842" lon="6.59053">
        <ele>2744</ele>
        <time>2021-04-07T09:15:30Z</time>
      </trkpt>
      <trkpt lat="44.48843" lon="6.59052">
        <ele>2744</ele>
        <time>2021-04-07T09:15:31Z</time>
      </trkpt>
      <trkpt lat="44.48843" lon="6.59051">
        <ele>2744</ele>
        <time>2021-04-07T09:15:32Z</time>
      </trkpt>
      <trkpt lat="44.48843" lon="6.59051">
        <ele>2744</ele>
        <time>2021-04-07T09:15:33Z</time>
      </trkpt>
      <trkpt lat="44.48843" lon="6.59051">
        <ele>2744</ele>
        <time>2021-04-07T09:15:34Z</time>
      </trkpt>
      <trkpt lat="44.48843" lon="6.5905">
        <ele>2744</ele>
        <time>2021-04-07T09:15:35Z</time>
      </trkpt>
      <trkpt lat="44.48843" lon="6.5905">
        <ele>2744</ele>
        <time>2021-04-07T09:15:36Z</time>
      </trkpt>
      <trkpt lat="44.48843" lon="6.59049">
        <ele>2744</ele>
        <time>2021-04-07T09:15:37Z</time>
      </trkpt>
      <trkpt lat="44.48843" lon="6.59048">
        <ele>2744</ele>
        <time>2021-04-07T09:15:38Z</time>
      </trkpt>
      <trkpt lat="44.48843" lon="6.59047">
        <ele>2745</ele>
        <time>2021-04-07T09:15:39Z</time>
      </trkpt>
      <trkpt lat="44.48843" lon="6.59046">
        <ele>2745</ele>
        <time>2021-04-07T09:15:40Z</time>
      </trkpt>
      <trkpt lat="44.48843" lon="6.59045">
        <ele>2745</ele>
        <time>2021-04-07T09:15:41Z</time>
      </trkpt>
      <trkpt lat="44.48843" lon="6.59044">
        <ele>2745</ele>
        <time>2021-04-07T09:15:42Z</time>
      </trkpt>
      <trkpt lat="44.48843" lon="6.59044">
        <ele>2746</ele>
        <time>2021-04-07T09:15:43Z</time>
      </trkpt>
      <trkpt lat="44.48843" lon="6.59043">
        <ele>2746</ele>
        <time>2021-04-07T09:15:44Z</time>
      </trkpt>
      <trkpt lat="44.48843" lon="6.59043">
        <ele>2746</ele>
        <time>2021-04-07T09:15:45Z</time>
      </trkpt>
      <trkpt lat="44.48843" lon="6.59042">
        <ele>2747</ele>
        <time>2021-04-07T09:15:46Z</time>
      </trkpt>
      <trkpt lat="44.48842" lon="6.59041">
        <ele>2747</ele>
        <time>2021-04-07T09:15:47Z</time>
      </trkpt>
      <trkpt lat="44.48842" lon="6.59042">
        <ele>2747</ele>
        <time>2021-04-07T09:15:48Z</time>
      </trkpt>
      <trkpt lat="44.48842" lon="6.59041">
        <ele>2747</ele>
        <time>2021-04-07T09:15:49Z</time>
      </trkpt>
      <trkpt lat="44.48842" lon="6.59041">
        <ele>2747</ele>
        <time>2021-04-07T09:15:50Z</time>
      </trkpt>
      <trkpt lat="44.48842" lon="6.59041">
        <ele>2748</ele>
        <time>2021-04-07T09:15:51Z</time>
      </trkpt>
      <trkpt lat="44.48842" lon="6.5904">
        <ele>2748</ele>
        <time>2021-04-07T09:15:52Z</time>
      </trkpt>
      <trkpt lat="44.48842" lon="6.5904">
        <ele>2748</ele>
        <time>2021-04-07T09:15:53Z</time>
      </trkpt>
      <trkpt lat="44.48842" lon="6.59039">
        <ele>2748</ele>
        <time>2021-04-07T09:15:54Z</time>
      </trkpt>
      <trkpt lat="44.48842" lon="6.59038">
        <ele>2749</ele>
        <time>2021-04-07T09:15:55Z</time>
      </trkpt>
      <trkpt lat="44.48842" lon="6.59038">
        <ele>2749</ele>
        <time>2021-04-07T09:15:56Z</time>
      </trkpt>
      <trkpt lat="44.48842" lon="6.59038">
        <ele>2749</ele>
        <time>2021-04-07T09:15:57Z</time>
      </trkpt>
      <trkpt lat="44.48842" lon="6.59037">
        <ele>2749</ele>
        <time>2021-04-07T09:15:58Z</time>
      </trkpt>
      <trkpt lat="44.48841" lon="6.59036">
        <ele>2749</ele>
        <time>2021-04-07T09:15:59Z</time>
      </trkpt>
      <trkpt lat="44.48841" lon="6.59035">
        <ele>2749</ele>
        <time>2021-04-07T09:16:00Z</time>
      </trkpt>
      <trkpt lat="44.48841" lon="6.59035">
        <ele>2750</ele>
        <time>2021-04-07T09:16:01Z</time>
      </trkpt>
      <trkpt lat="44.48841" lon="6.59034">
        <ele>2750</ele>
        <time>2021-04-07T09:16:02Z</time>
      </trkpt>
      <trkpt lat="44.4884" lon="6.59033">
        <ele>2750</ele>
        <time>2021-04-07T09:16:03Z</time>
      </trkpt>
      <trkpt lat="44.4884" lon="6.59032">
        <ele>2750</ele>
        <time>2021-04-07T09:16:04Z</time>
      </trkpt>
      <trkpt lat="44.4884" lon="6.59032">
        <ele>2751</ele>
        <time>2021-04-07T09:16:05Z</time>
      </trkpt>
      <trkpt lat="44.4884" lon="6.59031">
        <ele>2751</ele>
        <time>2021-04-07T09:16:06Z</time>
      </trkpt>
      <trkpt lat="44.4884" lon="6.59031">
        <ele>2751</ele>
        <time>2021-04-07T09:16:07Z</time>
      </trkpt>
      <trkpt lat="44.4884" lon="6.5903">
        <ele>2751</ele>
        <time>2021-04-07T09:16:08Z</time>
      </trkpt>
      <trkpt lat="44.4884" lon="6.5903">
        <ele>2751</ele>
        <time>2021-04-07T09:16:09Z</time>
      </trkpt>
      <trkpt lat="44.48839" lon="6.5903">
        <ele>2751</ele>
        <time>2021-04-07T09:16:10Z</time>
      </trkpt>
      <trkpt lat="44.48839" lon="6.59029">
        <ele>2752</ele>
        <time>2021-04-07T09:16:11Z</time>
      </trkpt>
      <trkpt lat="44.48839" lon="6.59028">
        <ele>2753</ele>
        <time>2021-04-07T09:16:12Z</time>
      </trkpt>
      <trkpt lat="44.48838" lon="6.59028">
        <ele>2753</ele>
        <time>2021-04-07T09:16:13Z</time>
      </trkpt>
      <trkpt lat="44.48838" lon="6.59028">
        <ele>2753</ele>
        <time>2021-04-07T09:16:14Z</time>
      </trkpt>
      <trkpt lat="44.48838" lon="6.59027">
        <ele>2754</ele>
        <time>2021-04-07T09:16:15Z</time>
      </trkpt>
      <trkpt lat="44.48838" lon="6.59027">
        <ele>2754</ele>
        <time>2021-04-07T09:16:16Z</time>
      </trkpt>
      <trkpt lat="44.48838" lon="6.59025">
        <ele>2754</ele>
        <time>2021-04-07T09:16:17Z</time>
      </trkpt>
      <trkpt lat="44.48837" lon="6.59025">
        <ele>2755</ele>
        <time>2021-04-07T09:16:18Z</time>
      </trkpt>
      <trkpt lat="44.48837" lon="6.59024">
        <ele>2755</ele>
        <time>2021-04-07T09:16:19Z</time>
      </trkpt>
      <trkpt lat="44.48837" lon="6.59024">
        <ele>2756</ele>
        <time>2021-04-07T09:16:20Z</time>
      </trkpt>
      <trkpt lat="44.48837" lon="6.59023">
        <ele>2756</ele>
        <time>2021-04-07T09:16:21Z</time>
      </trkpt>
      <trkpt lat="44.48836" lon="6.59023">
        <ele>2756</ele>
        <time>2021-04-07T09:16:22Z</time>
      </trkpt>
      <trkpt lat="44.48836" lon="6.59022">
        <ele>2756</ele>
        <time>2021-04-07T09:16:23Z</time>
      </trkpt>
      <trkpt lat="44.48836" lon="6.59021">
        <ele>2757</ele>
        <time>2021-04-07T09:16:24Z</time>
      </trkpt>
      <trkpt lat="44.48836" lon="6.5902">
        <ele>2758</ele>
        <time>2021-04-07T09:16:25Z</time>
      </trkpt>
      <trkpt lat="44.48835" lon="6.59019">
        <ele>2758</ele>
        <time>2021-04-07T09:16:26Z</time>
      </trkpt>
      <trkpt lat="44.48835" lon="6.59018">
        <ele>2759</ele>
        <time>2021-04-07T09:16:27Z</time>
      </trkpt>
      <trkpt lat="44.48835" lon="6.59017">
        <ele>2759</ele>
        <time>2021-04-07T09:16:28Z</time>
      </trkpt>
      <trkpt lat="44.48835" lon="6.59017">
        <ele>2759</ele>
        <time>2021-04-07T09:16:29Z</time>
      </trkpt>
      <trkpt lat="44.48834" lon="6.59016">
        <ele>2760</ele>
        <time>2021-04-07T09:16:30Z</time>
      </trkpt>
      <trkpt lat="44.48834" lon="6.59016">
        <ele>2760</ele>
        <time>2021-04-07T09:16:31Z</time>
      </trkpt>
      <trkpt lat="44.48834" lon="6.59016">
        <ele>2760</ele>
        <time>2021-04-07T09:16:32Z</time>
      </trkpt>
      <trkpt lat="44.48834" lon="6.59015">
        <ele>2760</ele>
        <time>2021-04-07T09:16:33Z</time>
      </trkpt>
      <trkpt lat="44.48833" lon="6.59015">
        <ele>2761</ele>
        <time>2021-04-07T09:16:34Z</time>
      </trkpt>
      <trkpt lat="44.48833" lon="6.59014">
        <ele>2761</ele>
        <time>2021-04-07T09:16:35Z</time>
      </trkpt>
      <trkpt lat="44.48833" lon="6.59014">
        <ele>2761</ele>
        <time>2021-04-07T09:16:36Z</time>
      </trkpt>
      <trkpt lat="44.48833" lon="6.59013">
        <ele>2762</ele>
        <time>2021-04-07T09:16:37Z</time>
      </trkpt>
      <trkpt lat="44.48833" lon="6.59013">
        <ele>2762</ele>
        <time>2021-04-07T09:16:38Z</time>
      </trkpt>
      <trkpt lat="44.48833" lon="6.59012">
        <ele>2762</ele>
        <time>2021-04-07T09:16:39Z</time>
      </trkpt>
      <trkpt lat="44.48832" lon="6.59012">
        <ele>2762</ele>
        <time>2021-04-07T09:16:40Z</time>
      </trkpt>
      <trkpt lat="44.48832" lon="6.59011">
        <ele>2763</ele>
        <time>2021-04-07T09:16:41Z</time>
      </trkpt>
      <trkpt lat="44.48831" lon="6.59011">
        <ele>2763</ele>
        <time>2021-04-07T09:16:42Z</time>
      </trkpt>
      <trkpt lat="44.48831" lon="6.5901">
        <ele>2763</ele>
        <time>2021-04-07T09:16:43Z</time>
      </trkpt>
      <trkpt lat="44.48831" lon="6.59009">
        <ele>2764</ele>
        <time>2021-04-07T09:16:44Z</time>
      </trkpt>
      <trkpt lat="44.48831" lon="6.59009">
        <ele>2764</ele>
        <time>2021-04-07T09:16:45Z</time>
      </trkpt>
      <trkpt lat="44.48831" lon="6.59009">
        <ele>2764</ele>
        <time>2021-04-07T09:16:46Z</time>
      </trkpt>
      <trkpt lat="44.48831" lon="6.59009">
        <ele>2764</ele>
        <time>2021-04-07T09:16:47Z</time>
      </trkpt>
      <trkpt lat="44.48831" lon="6.59008">
        <ele>2764</ele>
        <time>2021-04-07T09:16:48Z</time>
      </trkpt>
      <trkpt lat="44.4883" lon="6.59008">
        <ele>2765</ele>
        <time>2021-04-07T09:16:49Z</time>
      </trkpt>
      <trkpt lat="44.4883" lon="6.59008">
        <ele>2765</ele>
        <time>2021-04-07T09:16:50Z</time>
      </trkpt>
      <trkpt lat="44.4883" lon="6.59007">
        <ele>2765</ele>
        <time>2021-04-07T09:16:51Z</time>
      </trkpt>
      <trkpt lat="44.48829" lon="6.59007">
        <ele>2765</ele>
        <time>2021-04-07T09:16:52Z</time>
      </trkpt>
      <trkpt lat="44.48829" lon="6.59007">
        <ele>2765</ele>
        <time>2021-04-07T09:16:53Z</time>
      </trkpt>
      <trkpt lat="44.48829" lon="6.59006">
        <ele>2765</ele>
        <time>2021-04-07T09:16:54Z</time>
      </trkpt>
      <trkpt lat="44.48829" lon="6.59006">
        <ele>2765</ele>
        <time>2021-04-07T09:16:55Z</time>
      </trkpt>
      <trkpt lat="44.48829" lon="6.59006">
        <ele>2765</ele>
        <time>2021-04-07T09:16:56Z</time>
      </trkpt>
      <trkpt lat="44.48829" lon="6.59006">
        <ele>2765</ele>
        <time>2021-04-07T09:16:57Z</time>
      </trkpt>
      <trkpt lat="44.48829" lon="6.59006">
        <ele>2765</ele>
        <time>2021-04-07T09:16:58Z</time>
      </trkpt>
      <trkpt lat="44.48829" lon="6.59006">
        <ele>2765</ele>
        <time>2021-04-07T09:16:59Z</time>
      </trkpt>
      <trkpt lat="44.48829" lon="6.59006">
        <ele>2765</ele>
        <time>2021-04-07T09:17:00Z</time>
      </trkpt>
      <trkpt lat="44.48829" lon="6.59006">
        <ele>2765</ele>
        <time>2021-04-07T09:17:01Z</time>
      </trkpt>
      <trkpt lat="44.48829" lon="6.59006">
        <ele>2765</ele>
        <time>2021-04-07T09:17:02Z</time>
      </trkpt>
      <trkpt lat="44.48829" lon="6.59006">
        <ele>2765</ele>
        <time>2021-04-07T09:17:03Z</time>
      </trkpt>
      <trkpt lat="44.48826" lon="6.59002">
        <ele>2765</ele>
        <time>2021-04-07T09:17:04Z</time>
      </trkpt>
      <trkpt lat="44.48825" lon="6.59002">
        <ele>2765</ele>
        <time>2021-04-07T09:17:05Z</time>
      </trkpt>
      <trkpt lat="44.48825" lon="6.59001">
        <ele>2765</ele>
        <time>2021-04-07T09:17:06Z</time>
      </trkpt>
      <trkpt lat="44.48825" lon="6.59">
        <ele>2765</ele>
        <time>2021-04-07T09:17:07Z</time>
      </trkpt>
      <trkpt lat="44.48825" lon="6.59">
        <ele>2765</ele>
        <time>2021-04-07T09:17:08Z</time>
      </trkpt>
      <trkpt lat="44.48825" lon="6.59">
        <ele>2765</ele>
        <time>2021-04-07T09:17:09Z</time>
      </trkpt>
      <trkpt lat="44.48825" lon="6.59">
        <ele>2765</ele>
        <time>2021-04-07T09:17:10Z</time>
      </trkpt>
      <trkpt lat="44.48824" lon="6.59">
        <ele>2765</ele>
        <time>2021-04-07T09:17:11Z</time>
      </trkpt>
      <trkpt lat="44.48824" lon="6.59">
        <ele>2765</ele>
        <time>2021-04-07T09:17:12Z</time>
      </trkpt>
      <trkpt lat="44.48824" lon="6.59">
        <ele>2765</ele>
        <time>2021-04-07T09:17:13Z</time>
      </trkpt>
      <trkpt lat="44.48824" lon="6.59">
        <ele>2765</ele>
        <time>2021-04-07T09:17:14Z</time>
      </trkpt>
      <trkpt lat="44.48824" lon="6.59">
        <ele>2765</ele>
        <time>2021-04-07T09:17:15Z</time>
      </trkpt>
      <trkpt lat="44.48824" lon="6.59">
        <ele>2765</ele>
        <time>2021-04-07T09:17:16Z</time>
      </trkpt>
      <trkpt lat="44.48824" lon="6.59">
        <ele>2765</ele>
        <time>2021-04-07T09:17:17Z</time>
      </trkpt>
      <trkpt lat="44.48824" lon="6.59">
        <ele>2765</ele>
        <time>2021-04-07T09:17:18Z</time>
      </trkpt>
      <trkpt lat="44.48821" lon="6.59">
        <ele>2766</ele>
        <time>2021-04-07T09:17:19Z</time>
      </trkpt>
      <trkpt lat="44.48821" lon="6.58999">
        <ele>2766</ele>
        <time>2021-04-07T09:17:20Z</time>
      </trkpt>
      <trkpt lat="44.48821" lon="6.58999">
        <ele>2766</ele>
        <time>2021-04-07T09:17:21Z</time>
      </trkpt>
      <trkpt lat="44.4882" lon="6.58999">
        <ele>2766</ele>
        <time>2021-04-07T09:17:22Z</time>
      </trkpt>
      <trkpt lat="44.4882" lon="6.58999">
        <ele>2766</ele>
        <time>2021-04-07T09:17:23Z</time>
      </trkpt>
      <trkpt lat="44.4882" lon="6.58999">
        <ele>2766</ele>
        <time>2021-04-07T09:17:24Z</time>
      </trkpt>
      <trkpt lat="44.4882" lon="6.58999">
        <ele>2766</ele>
        <time>2021-04-07T09:17:25Z</time>
      </trkpt>
      <trkpt lat="44.4882" lon="6.58999">
        <ele>2766</ele>
        <time>2021-04-07T09:17:26Z</time>
      </trkpt>
      <trkpt lat="44.4882" lon="6.58999">
        <ele>2766</ele>
        <time>2021-04-07T09:17:27Z</time>
      </trkpt>
      <trkpt lat="44.4882" lon="6.58999">
        <ele>2766</ele>
        <time>2021-04-07T09:17:28Z</time>
      </trkpt>
      <trkpt lat="44.4882" lon="6.58999">
        <ele>2766</ele>
        <time>2021-04-07T09:17:29Z</time>
      </trkpt>
      <trkpt lat="44.4882" lon="6.58999">
        <ele>2766</ele>
        <time>2021-04-07T09:17:30Z</time>
      </trkpt>
      <trkpt lat="44.4882" lon="6.58999">
        <ele>2766</ele>
        <time>2021-04-07T09:17:31Z</time>
      </trkpt>
      <trkpt lat="44.4882" lon="6.58999">
        <ele>2766</ele>
        <time>2021-04-07T09:17:32Z</time>
      </trkpt>
      <trkpt lat="44.4882" lon="6.58999">
        <ele>2766</ele>
        <time>2021-04-07T09:17:33Z</time>
      </trkpt>
      <trkpt lat="44.4882" lon="6.58999">
        <ele>2766</ele>
        <time>2021-04-07T09:17:34Z</time>
      </trkpt>
      <trkpt lat="44.4882" lon="6.58999">
        <ele>2766</ele>
        <time>2021-04-07T09:17:35Z</time>
      </trkpt>
      <trkpt lat="44.4882" lon="6.58999">
        <ele>2766</ele>
        <time>2021-04-07T09:17:36Z</time>
      </trkpt>
      <trkpt lat="44.48816" lon="6.59">
        <ele>2767</ele>
        <time>2021-04-07T09:17:37Z</time>
      </trkpt>
      <trkpt lat="44.48815" lon="6.59">
        <ele>2768</ele>
        <time>2021-04-07T09:17:38Z</time>
      </trkpt>
      <trkpt lat="44.48815" lon="6.59">
        <ele>2768</ele>
        <time>2021-04-07T09:17:39Z</time>
      </trkpt>
      <trkpt lat="44.48815" lon="6.59">
        <ele>2768</ele>
        <time>2021-04-07T09:17:40Z</time>
      </trkpt>
      <trkpt lat="44.48815" lon="6.59">
        <ele>2768</ele>
        <time>2021-04-07T09:17:41Z</time>
      </trkpt>
      <trkpt lat="44.48814" lon="6.59">
        <ele>2768</ele>
        <time>2021-04-07T09:17:42Z</time>
      </trkpt>
      <trkpt lat="44.48814" lon="6.59">
        <ele>2768</ele>
        <time>2021-04-07T09:17:43Z</time>
      </trkpt>
      <trkpt lat="44.48813" lon="6.59">
        <ele>2768</ele>
        <time>2021-04-07T09:17:44Z</time>
      </trkpt>
      <trkpt lat="44.48813" lon="6.59">
        <ele>2768</ele>
        <time>2021-04-07T09:17:45Z</time>
      </trkpt>
      <trkpt lat="44.48813" lon="6.59">
        <ele>2769</ele>
        <time>2021-04-07T09:17:46Z</time>
      </trkpt>
      <trkpt lat="44.48813" lon="6.59">
        <ele>2769</ele>
        <time>2021-04-07T09:17:47Z</time>
      </trkpt>
      <trkpt lat="44.48812" lon="6.59">
        <ele>2769</ele>
        <time>2021-04-07T09:17:48Z</time>
      </trkpt>
      <trkpt lat="44.48812" lon="6.59">
        <ele>2769</ele>
        <time>2021-04-07T09:17:49Z</time>
      </trkpt>
      <trkpt lat="44.48812" lon="6.59">
        <ele>2769</ele>
        <time>2021-04-07T09:17:50Z</time>
      </trkpt>
      <trkpt lat="44.48812" lon="6.59">
        <ele>2769</ele>
        <time>2021-04-07T09:17:51Z</time>
      </trkpt>
      <trkpt lat="44.48812" lon="6.59">
        <ele>2769</ele>
        <time>2021-04-07T09:17:52Z</time>
      </trkpt>
      <trkpt lat="44.48811" lon="6.59001">
        <ele>2770</ele>
        <time>2021-04-07T09:17:53Z</time>
      </trkpt>
      <trkpt lat="44.48811" lon="6.59001">
        <ele>2770</ele>
        <time>2021-04-07T09:17:54Z</time>
      </trkpt>
      <trkpt lat="44.48811" lon="6.59001">
        <ele>2770</ele>
        <time>2021-04-07T09:17:55Z</time>
      </trkpt>
      <trkpt lat="44.4881" lon="6.59001">
        <ele>2770</ele>
        <time>2021-04-07T09:17:56Z</time>
      </trkpt>
      <trkpt lat="44.48809" lon="6.59001">
        <ele>2770</ele>
        <time>2021-04-07T09:17:57Z</time>
      </trkpt>
      <trkpt lat="44.48809" lon="6.59002">
        <ele>2771</ele>
        <time>2021-04-07T09:17:58Z</time>
      </trkpt>
      <trkpt lat="44.48808" lon="6.59002">
        <ele>2771</ele>
        <time>2021-04-07T09:17:59Z</time>
      </trkpt>
      <trkpt lat="44.48808" lon="6.59002">
        <ele>2771</ele>
        <time>2021-04-07T09:18:00Z</time>
      </trkpt>
      <trkpt lat="44.48808" lon="6.59002">
        <ele>2771</ele>
        <time>2021-04-07T09:18:01Z</time>
      </trkpt>
      <trkpt lat="44.48808" lon="6.59002">
        <ele>2771</ele>
        <time>2021-04-07T09:18:02Z</time>
      </trkpt>
      <trkpt lat="44.48808" lon="6.59001">
        <ele>2771</ele>
        <time>2021-04-07T09:18:03Z</time>
      </trkpt>
      <trkpt lat="44.48808" lon="6.59001">
        <ele>2771</ele>
        <time>2021-04-07T09:18:04Z</time>
      </trkpt>
      <trkpt lat="44.48807" lon="6.59">
        <ele>2771</ele>
        <time>2021-04-07T09:18:05Z</time>
      </trkpt>
      <trkpt lat="44.48807" lon="6.58999">
        <ele>2772</ele>
        <time>2021-04-07T09:18:06Z</time>
      </trkpt>
      <trkpt lat="44.48807" lon="6.58999">
        <ele>2772</ele>
        <time>2021-04-07T09:18:07Z</time>
      </trkpt>
      <trkpt lat="44.48807" lon="6.58999">
        <ele>2772</ele>
        <time>2021-04-07T09:18:08Z</time>
      </trkpt>
      <trkpt lat="44.48807" lon="6.58999">
        <ele>2772</ele>
        <time>2021-04-07T09:18:09Z</time>
      </trkpt>
      <trkpt lat="44.48808" lon="6.58998">
        <ele>2772</ele>
        <time>2021-04-07T09:18:10Z</time>
      </trkpt>
      <trkpt lat="44.48808" lon="6.58998">
        <ele>2772</ele>
        <time>2021-04-07T09:18:11Z</time>
      </trkpt>
      <trkpt lat="44.48808" lon="6.58998">
        <ele>2772</ele>
        <time>2021-04-07T09:18:12Z</time>
      </trkpt>
      <trkpt lat="44.48807" lon="6.58999">
        <ele>2773</ele>
        <time>2021-04-07T09:18:13Z</time>
      </trkpt>
      <trkpt lat="44.48806" lon="6.58999">
        <ele>2773</ele>
        <time>2021-04-07T09:18:14Z</time>
      </trkpt>
      <trkpt lat="44.48806" lon="6.58999">
        <ele>2773</ele>
        <time>2021-04-07T09:18:15Z</time>
      </trkpt>
      <trkpt lat="44.48806" lon="6.58999">
        <ele>2773</ele>
        <time>2021-04-07T09:18:16Z</time>
      </trkpt>
      <trkpt lat="44.48806" lon="6.58999">
        <ele>2773</ele>
        <time>2021-04-07T09:18:17Z</time>
      </trkpt>
      <trkpt lat="44.48806" lon="6.58999">
        <ele>2773</ele>
        <time>2021-04-07T09:18:18Z</time>
      </trkpt>
      <trkpt lat="44.48806" lon="6.58999">
        <ele>2773</ele>
        <time>2021-04-07T09:18:19Z</time>
      </trkpt>
      <trkpt lat="44.48806" lon="6.58999">
        <ele>2773</ele>
        <time>2021-04-07T09:18:20Z</time>
      </trkpt>
      <trkpt lat="44.48806" lon="6.58999">
        <ele>2773</ele>
        <time>2021-04-07T09:18:21Z</time>
      </trkpt>
      <trkpt lat="44.48806" lon="6.58999">
        <ele>2773</ele>
        <time>2021-04-07T09:18:22Z</time>
      </trkpt>
      <trkpt lat="44.48806" lon="6.58999">
        <ele>2773</ele>
        <time>2021-04-07T09:18:23Z</time>
      </trkpt>
      <trkpt lat="44.48806" lon="6.58999">
        <ele>2773</ele>
        <time>2021-04-07T09:18:24Z</time>
      </trkpt>
      <trkpt lat="44.48806" lon="6.58999">
        <ele>2773</ele>
        <time>2021-04-07T09:18:25Z</time>
      </trkpt>
      <trkpt lat="44.48806" lon="6.58999">
        <ele>2773</ele>
        <time>2021-04-07T09:18:26Z</time>
      </trkpt>
      <trkpt lat="44.48806" lon="6.58999">
        <ele>2773</ele>
        <time>2021-04-07T09:18:27Z</time>
      </trkpt>
      <trkpt lat="44.48803" lon="6.59002">
        <ele>2774</ele>
        <time>2021-04-07T09:18:28Z</time>
      </trkpt>
      <trkpt lat="44.48803" lon="6.59002">
        <ele>2774</ele>
        <time>2021-04-07T09:18:29Z</time>
      </trkpt>
      <trkpt lat="44.48802" lon="6.59001">
        <ele>2774</ele>
        <time>2021-04-07T09:18:30Z</time>
      </trkpt>
      <trkpt lat="44.48802" lon="6.59001">
        <ele>2774</ele>
        <time>2021-04-07T09:18:31Z</time>
      </trkpt>
      <trkpt lat="44.48801" lon="6.59001">
        <ele>2774</ele>
        <time>2021-04-07T09:18:32Z</time>
      </trkpt>
      <trkpt lat="44.48801" lon="6.59001">
        <ele>2774</ele>
        <time>2021-04-07T09:18:33Z</time>
      </trkpt>
      <trkpt lat="44.488" lon="6.59001">
        <ele>2775</ele>
        <time>2021-04-07T09:18:34Z</time>
      </trkpt>
      <trkpt lat="44.488" lon="6.59">
        <ele>2775</ele>
        <time>2021-04-07T09:18:35Z</time>
      </trkpt>
      <trkpt lat="44.488" lon="6.58999">
        <ele>2775</ele>
        <time>2021-04-07T09:18:36Z</time>
      </trkpt>
      <trkpt lat="44.488" lon="6.58999">
        <ele>2775</ele>
        <time>2021-04-07T09:18:37Z</time>
      </trkpt>
      <trkpt lat="44.48799" lon="6.58999">
        <ele>2775</ele>
        <time>2021-04-07T09:18:38Z</time>
      </trkpt>
      <trkpt lat="44.48799" lon="6.58999">
        <ele>2775</ele>
        <time>2021-04-07T09:18:39Z</time>
      </trkpt>
      <trkpt lat="44.48799" lon="6.58998">
        <ele>2775</ele>
        <time>2021-04-07T09:18:40Z</time>
      </trkpt>
      <trkpt lat="44.48799" lon="6.58998">
        <ele>2775</ele>
        <time>2021-04-07T09:18:41Z</time>
      </trkpt>
      <trkpt lat="44.48799" lon="6.58998">
        <ele>2775</ele>
        <time>2021-04-07T09:18:42Z</time>
      </trkpt>
      <trkpt lat="44.48799" lon="6.58998">
        <ele>2775</ele>
        <time>2021-04-07T09:18:43Z</time>
      </trkpt>
      <trkpt lat="44.48799" lon="6.58998">
        <ele>2776</ele>
        <time>2021-04-07T09:18:44Z</time>
      </trkpt>
      <trkpt lat="44.48799" lon="6.58998">
        <ele>2776</ele>
        <time>2021-04-07T09:18:45Z</time>
      </trkpt>
      <trkpt lat="44.48799" lon="6.58998">
        <ele>2776</ele>
        <time>2021-04-07T09:18:46Z</time>
      </trkpt>
      <trkpt lat="44.48799" lon="6.58998">
        <ele>2776</ele>
        <time>2021-04-07T09:18:47Z</time>
      </trkpt>
      <trkpt lat="44.48799" lon="6.58998">
        <ele>2776</ele>
        <time>2021-04-07T09:18:48Z</time>
      </trkpt>
      <trkpt lat="44.48799" lon="6.58998">
        <ele>2776</ele>
        <time>2021-04-07T09:18:49Z</time>
      </trkpt>
      <trkpt lat="44.48799" lon="6.58998">
        <ele>2776</ele>
        <time>2021-04-07T09:18:50Z</time>
      </trkpt>
      <trkpt lat="44.48799" lon="6.58998">
        <ele>2776</ele>
        <time>2021-04-07T09:18:51Z</time>
      </trkpt>
      <trkpt lat="44.48799" lon="6.58998">
        <ele>2776</ele>
        <time>2021-04-07T09:18:52Z</time>
      </trkpt>
      <trkpt lat="44.48799" lon="6.58998">
        <ele>2776</ele>
        <time>2021-04-07T09:18:53Z</time>
      </trkpt>
      <trkpt lat="44.48799" lon="6.58998">
        <ele>2776</ele>
        <time>2021-04-07T09:18:54Z</time>
      </trkpt>
      <trkpt lat="44.48799" lon="6.58998">
        <ele>2776</ele>
        <time>2021-04-07T09:18:55Z</time>
      </trkpt>
      <trkpt lat="44.48799" lon="6.58998">
        <ele>2776</ele>
        <time>2021-04-07T09:18:56Z</time>
      </trkpt>
      <trkpt lat="44.48799" lon="6.58998">
        <ele>2776</ele>
        <time>2021-04-07T09:18:57Z</time>
      </trkpt>
      <trkpt lat="44.48799" lon="6.58998">
        <ele>2776</ele>
        <time>2021-04-07T09:18:58Z</time>
      </trkpt>
      <trkpt lat="44.48799" lon="6.58998">
        <ele>2776</ele>
        <time>2021-04-07T09:18:59Z</time>
      </trkpt>
      <trkpt lat="44.48799" lon="6.58998">
        <ele>2776</ele>
        <time>2021-04-07T09:19:00Z</time>
      </trkpt>
      <trkpt lat="44.48799" lon="6.58998">
        <ele>2776</ele>
        <time>2021-04-07T09:19:01Z</time>
      </trkpt>
      <trkpt lat="44.48799" lon="6.58998">
        <ele>2776</ele>
        <time>2021-04-07T09:19:02Z</time>
      </trkpt>
      <trkpt lat="44.48799" lon="6.58998">
        <ele>2776</ele>
        <time>2021-04-07T09:19:03Z</time>
      </trkpt>
      <trkpt lat="44.48799" lon="6.58998">
        <ele>2776</ele>
        <time>2021-04-07T09:19:04Z</time>
      </trkpt>
      <trkpt lat="44.48799" lon="6.58998">
        <ele>2776</ele>
        <time>2021-04-07T09:19:05Z</time>
      </trkpt>
      <trkpt lat="44.48799" lon="6.58998">
        <ele>2776</ele>
        <time>2021-04-07T09:19:06Z</time>
      </trkpt>
      <trkpt lat="44.48799" lon="6.58998">
        <ele>2776</ele>
        <time>2021-04-07T09:19:07Z</time>
      </trkpt>
      <trkpt lat="44.48799" lon="6.58998">
        <ele>2776</ele>
        <time>2021-04-07T09:19:08Z</time>
      </trkpt>
      <trkpt lat="44.48799" lon="6.58998">
        <ele>2776</ele>
        <time>2021-04-07T09:19:09Z</time>
      </trkpt>
      <trkpt lat="44.48799" lon="6.58998">
        <ele>2776</ele>
        <time>2021-04-07T09:19:10Z</time>
      </trkpt>
      <trkpt lat="44.48799" lon="6.58998">
        <ele>2776</ele>
        <time>2021-04-07T09:19:11Z</time>
      </trkpt>
      <trkpt lat="44.48799" lon="6.58998">
        <ele>2776</ele>
        <time>2021-04-07T09:19:12Z</time>
      </trkpt>
      <trkpt lat="44.48799" lon="6.58998">
        <ele>2776</ele>
        <time>2021-04-07T09:19:13Z</time>
      </trkpt>
      <trkpt lat="44.48799" lon="6.58998">
        <ele>2776</ele>
        <time>2021-04-07T09:19:14Z</time>
      </trkpt>
      <trkpt lat="44.48799" lon="6.58998">
        <ele>2776</ele>
        <time>2021-04-07T09:19:15Z</time>
      </trkpt>
      <trkpt lat="44.48799" lon="6.58998">
        <ele>2776</ele>
        <time>2021-04-07T09:19:16Z</time>
      </trkpt>
      <trkpt lat="44.48799" lon="6.58998">
        <ele>2776</ele>
        <time>2021-04-07T09:19:17Z</time>
      </trkpt>
      <trkpt lat="44.48799" lon="6.58998">
        <ele>2776</ele>
        <time>2021-04-07T09:19:18Z</time>
      </trkpt>
      <trkpt lat="44.48799" lon="6.58998">
        <ele>2776</ele>
        <time>2021-04-07T09:19:19Z</time>
      </trkpt>
      <trkpt lat="44.48799" lon="6.58998">
        <ele>2776</ele>
        <time>2021-04-07T09:19:20Z</time>
      </trkpt>
      <trkpt lat="44.48799" lon="6.58998">
        <ele>2776</ele>
        <time>2021-04-07T09:19:21Z</time>
      </trkpt>
      <trkpt lat="44.48799" lon="6.58998">
        <ele>2776</ele>
        <time>2021-04-07T09:19:22Z</time>
      </trkpt>
      <trkpt lat="44.48799" lon="6.58998">
        <ele>2776</ele>
        <time>2021-04-07T09:19:23Z</time>
      </trkpt>
      <trkpt lat="44.488" lon="6.58999">
        <ele>2776</ele>
        <time>2021-04-07T09:19:24Z</time>
      </trkpt>
      <trkpt lat="44.488" lon="6.58999">
        <ele>2776</ele>
        <time>2021-04-07T09:19:25Z</time>
      </trkpt>
      <trkpt lat="44.488" lon="6.58999">
        <ele>2776</ele>
        <time>2021-04-07T09:19:26Z</time>
      </trkpt>
      <trkpt lat="44.488" lon="6.59">
        <ele>2776</ele>
        <time>2021-04-07T09:19:27Z</time>
      </trkpt>
      <trkpt lat="44.488" lon="6.59">
        <ele>2776</ele>
        <time>2021-04-07T09:19:28Z</time>
      </trkpt>
      <trkpt lat="44.488" lon="6.59">
        <ele>2776</ele>
        <time>2021-04-07T09:19:29Z</time>
      </trkpt>
      <trkpt lat="44.488" lon="6.59">
        <ele>2776</ele>
        <time>2021-04-07T09:19:30Z</time>
      </trkpt>
      <trkpt lat="44.488" lon="6.59">
        <ele>2776</ele>
        <time>2021-04-07T09:19:31Z</time>
      </trkpt>
      <trkpt lat="44.488" lon="6.59">
        <ele>2776</ele>
        <time>2021-04-07T09:19:32Z</time>
      </trkpt>
      <trkpt lat="44.488" lon="6.59">
        <ele>2776</ele>
        <time>2021-04-07T09:19:33Z</time>
      </trkpt>
      <trkpt lat="44.488" lon="6.59">
        <ele>2776</ele>
        <time>2021-04-07T09:19:34Z</time>
      </trkpt>
      <trkpt lat="44.48799" lon="6.59">
        <ele>2776</ele>
        <time>2021-04-07T09:19:35Z</time>
      </trkpt>
      <trkpt lat="44.48799" lon="6.59">
        <ele>2776</ele>
        <time>2021-04-07T09:19:36Z</time>
      </trkpt>
      <trkpt lat="44.48799" lon="6.59">
        <ele>2776</ele>
        <time>2021-04-07T09:19:37Z</time>
      </trkpt>
      <trkpt lat="44.48799" lon="6.59">
        <ele>2776</ele>
        <time>2021-04-07T09:19:38Z</time>
      </trkpt>
      <trkpt lat="44.48799" lon="6.59">
        <ele>2776</ele>
        <time>2021-04-07T09:19:39Z</time>
      </trkpt>
      <trkpt lat="44.48799" lon="6.59">
        <ele>2776</ele>
        <time>2021-04-07T09:19:40Z</time>
      </trkpt>
      <trkpt lat="44.48799" lon="6.59">
        <ele>2776</ele>
        <time>2021-04-07T09:19:41Z</time>
      </trkpt>
      <trkpt lat="44.48799" lon="6.59">
        <ele>2776</ele>
        <time>2021-04-07T09:19:42Z</time>
      </trkpt>
      <trkpt lat="44.48799" lon="6.59">
        <ele>2776</ele>
        <time>2021-04-07T09:19:43Z</time>
      </trkpt>
      <trkpt lat="44.48799" lon="6.59">
        <ele>2776</ele>
        <time>2021-04-07T09:19:44Z</time>
      </trkpt>
      <trkpt lat="44.48799" lon="6.59">
        <ele>2776</ele>
        <time>2021-04-07T09:19:45Z</time>
      </trkpt>
      <trkpt lat="44.48799" lon="6.59">
        <ele>2776</ele>
        <time>2021-04-07T09:19:46Z</time>
      </trkpt>
      <trkpt lat="44.48799" lon="6.59">
        <ele>2776</ele>
        <time>2021-04-07T09:19:47Z</time>
      </trkpt>
      <trkpt lat="44.48799" lon="6.59">
        <ele>2776</ele>
        <time>2021-04-07T09:19:48Z</time>
      </trkpt>
      <trkpt lat="44.48799" lon="6.59">
        <ele>2776</ele>
        <time>2021-04-07T09:19:49Z</time>
      </trkpt>
      <trkpt lat="44.48799" lon="6.59">
        <ele>2776</ele>
        <time>2021-04-07T09:19:50Z</time>
      </trkpt>
      <trkpt lat="44.48799" lon="6.59">
        <ele>2776</ele>
        <time>2021-04-07T09:19:51Z</time>
      </trkpt>
      <trkpt lat="44.48799" lon="6.59">
        <ele>2776</ele>
        <time>2021-04-07T09:19:52Z</time>
      </trkpt>
      <trkpt lat="44.48799" lon="6.59">
        <ele>2776</ele>
        <time>2021-04-07T09:19:53Z</time>
      </trkpt>
      <trkpt lat="44.48799" lon="6.59">
        <ele>2776</ele>
        <time>2021-04-07T09:19:54Z</time>
      </trkpt>
      <trkpt lat="44.48799" lon="6.59">
        <ele>2776</ele>
        <time>2021-04-07T09:19:55Z</time>
      </trkpt>
      <trkpt lat="44.48799" lon="6.59">
        <ele>2776</ele>
        <time>2021-04-07T09:19:56Z</time>
      </trkpt>
      <trkpt lat="44.48799" lon="6.59">
        <ele>2776</ele>
        <time>2021-04-07T09:19:57Z</time>
      </trkpt>
      <trkpt lat="44.48799" lon="6.59">
        <ele>2776</ele>
        <time>2021-04-07T09:19:59Z</time>
      </trkpt>
      <trkpt lat="44.48799" lon="6.59">
        <ele>2776</ele>
        <time>2021-04-07T09:20:00Z</time>
      </trkpt>
      <trkpt lat="44.48799" lon="6.59">
        <ele>2776</ele>
        <time>2021-04-07T09:20:01Z</time>
      </trkpt>
      <trkpt lat="44.48799" lon="6.59">
        <ele>2776</ele>
        <time>2021-04-07T09:20:02Z</time>
      </trkpt>
      <trkpt lat="44.48799" lon="6.59">
        <ele>2776</ele>
        <time>2021-04-07T09:20:03Z</time>
      </trkpt>
      <trkpt lat="44.48799" lon="6.59">
        <ele>2776</ele>
        <time>2021-04-07T09:20:04Z</time>
      </trkpt>
      <trkpt lat="44.48799" lon="6.59">
        <ele>2776</ele>
        <time>2021-04-07T09:20:05Z</time>
      </trkpt>
      <trkpt lat="44.48799" lon="6.59">
        <ele>2776</ele>
        <time>2021-04-07T09:20:06Z</time>
      </trkpt>
      <trkpt lat="44.48799" lon="6.59">
        <ele>2776</ele>
        <time>2021-04-07T09:20:07Z</time>
      </trkpt>
      <trkpt lat="44.48799" lon="6.59">
        <ele>2776</ele>
        <time>2021-04-07T09:20:08Z</time>
      </trkpt>
      <trkpt lat="44.48799" lon="6.59">
        <ele>2776</ele>
        <time>2021-04-07T09:20:09Z</time>
      </trkpt>
      <trkpt lat="44.48799" lon="6.59">
        <ele>2776</ele>
        <time>2021-04-07T09:20:10Z</time>
      </trkpt>
      <trkpt lat="44.48799" lon="6.59">
        <ele>2776</ele>
        <time>2021-04-07T09:20:11Z</time>
      </trkpt>
      <trkpt lat="44.48799" lon="6.59">
        <ele>2776</ele>
        <time>2021-04-07T09:20:12Z</time>
      </trkpt>
      <trkpt lat="44.48799" lon="6.59">
        <ele>2776</ele>
        <time>2021-04-07T09:20:13Z</time>
      </trkpt>
      <trkpt lat="44.48799" lon="6.59">
        <ele>2776</ele>
        <time>2021-04-07T09:20:14Z</time>
      </trkpt>
      <trkpt lat="44.48799" lon="6.59">
        <ele>2776</ele>
        <time>2021-04-07T09:20:15Z</time>
      </trkpt>
      <trkpt lat="44.48799" lon="6.59">
        <ele>2776</ele>
        <time>2021-04-07T09:20:16Z</time>
      </trkpt>
      <trkpt lat="44.48799" lon="6.59">
        <ele>2776</ele>
        <time>2021-04-07T09:20:17Z</time>
      </trkpt>
      <trkpt lat="44.48799" lon="6.59">
        <ele>2776</ele>
        <time>2021-04-07T09:20:18Z</time>
      </trkpt>
      <trkpt lat="44.48799" lon="6.59">
        <ele>2776</ele>
        <time>2021-04-07T09:20:19Z</time>
      </trkpt>
      <trkpt lat="44.48799" lon="6.59">
        <ele>2776</ele>
        <time>2021-04-07T09:20:20Z</time>
      </trkpt>
      <trkpt lat="44.48799" lon="6.59">
        <ele>2776</ele>
        <time>2021-04-07T09:20:21Z</time>
      </trkpt>
      <trkpt lat="44.48799" lon="6.59">
        <ele>2776</ele>
        <time>2021-04-07T09:20:22Z</time>
      </trkpt>
      <trkpt lat="44.48799" lon="6.59">
        <ele>2776</ele>
        <time>2021-04-07T09:20:23Z</time>
      </trkpt>
      <trkpt lat="44.48799" lon="6.59">
        <ele>2776</ele>
        <time>2021-04-07T09:20:24Z</time>
      </trkpt>
      <trkpt lat="44.48799" lon="6.59">
        <ele>2776</ele>
        <time>2021-04-07T09:20:25Z</time>
      </trkpt>
      <trkpt lat="44.48799" lon="6.59">
        <ele>2776</ele>
        <time>2021-04-07T09:20:26Z</time>
      </trkpt>
      <trkpt lat="44.48799" lon="6.59">
        <ele>2776</ele>
        <time>2021-04-07T09:20:27Z</time>
      </trkpt>
      <trkpt lat="44.48799" lon="6.59">
        <ele>2776</ele>
        <time>2021-04-07T09:20:28Z</time>
      </trkpt>
      <trkpt lat="44.48799" lon="6.59">
        <ele>2776</ele>
        <time>2021-04-07T09:20:29Z</time>
      </trkpt>
      <trkpt lat="44.48799" lon="6.59">
        <ele>2776</ele>
        <time>2021-04-07T09:20:30Z</time>
      </trkpt>
      <trkpt lat="44.48799" lon="6.59">
        <ele>2776</ele>
        <time>2021-04-07T09:20:31Z</time>
      </trkpt>
      <trkpt lat="44.48799" lon="6.59">
        <ele>2776</ele>
        <time>2021-04-07T09:20:32Z</time>
      </trkpt>
      <trkpt lat="44.48799" lon="6.59">
        <ele>2776</ele>
        <time>2021-04-07T09:20:33Z</time>
      </trkpt>
      <trkpt lat="44.48799" lon="6.59">
        <ele>2776</ele>
        <time>2021-04-07T09:20:34Z</time>
      </trkpt>
      <trkpt lat="44.48799" lon="6.59">
        <ele>2776</ele>
        <time>2021-04-07T09:20:35Z</time>
      </trkpt>
      <trkpt lat="44.48799" lon="6.59">
        <ele>2776</ele>
        <time>2021-04-07T09:20:36Z</time>
      </trkpt>
      <trkpt lat="44.48799" lon="6.59">
        <ele>2776</ele>
        <time>2021-04-07T09:20:37Z</time>
      </trkpt>
      <trkpt lat="44.48799" lon="6.59">
        <ele>2776</ele>
        <time>2021-04-07T09:20:38Z</time>
      </trkpt>
      <trkpt lat="44.48799" lon="6.59">
        <ele>2776</ele>
        <time>2021-04-07T09:20:39Z</time>
      </trkpt>
      <trkpt lat="44.48799" lon="6.59">
        <ele>2776</ele>
        <time>2021-04-07T09:20:40Z</time>
      </trkpt>
      <trkpt lat="44.48799" lon="6.59">
        <ele>2776</ele>
        <time>2021-04-07T09:20:41Z</time>
      </trkpt>
      <trkpt lat="44.48799" lon="6.59">
        <ele>2776</ele>
        <time>2021-04-07T09:20:42Z</time>
      </trkpt>
      <trkpt lat="44.48799" lon="6.59">
        <ele>2776</ele>
        <time>2021-04-07T09:20:43Z</time>
      </trkpt>
      <trkpt lat="44.48799" lon="6.59">
        <ele>2776</ele>
        <time>2021-04-07T09:20:44Z</time>
      </trkpt>
      <trkpt lat="44.48799" lon="6.59">
        <ele>2776</ele>
        <time>2021-04-07T09:20:45Z</time>
      </trkpt>
      <trkpt lat="44.48799" lon="6.59">
        <ele>2776</ele>
        <time>2021-04-07T09:20:46Z</time>
      </trkpt>
      <trkpt lat="44.48799" lon="6.59">
        <ele>2776</ele>
        <time>2021-04-07T09:20:47Z</time>
      </trkpt>
      <trkpt lat="44.48799" lon="6.59">
        <ele>2776</ele>
        <time>2021-04-07T09:20:48Z</time>
      </trkpt>
      <trkpt lat="44.48801" lon="6.58998">
        <ele>2777</ele>
        <time>2021-04-07T09:20:49Z</time>
      </trkpt>
      <trkpt lat="44.48801" lon="6.58998">
        <ele>2777</ele>
        <time>2021-04-07T09:20:50Z</time>
      </trkpt>
      <trkpt lat="44.48801" lon="6.58998">
        <ele>2777</ele>
        <time>2021-04-07T09:20:51Z</time>
      </trkpt>
      <trkpt lat="44.48801" lon="6.58997">
        <ele>2777</ele>
        <time>2021-04-07T09:20:52Z</time>
      </trkpt>
      <trkpt lat="44.48801" lon="6.58997">
        <ele>2778</ele>
        <time>2021-04-07T09:20:53Z</time>
      </trkpt>
      <trkpt lat="44.48801" lon="6.58997">
        <ele>2778</ele>
        <time>2021-04-07T09:20:54Z</time>
      </trkpt>
      <trkpt lat="44.48801" lon="6.58997">
        <ele>2778</ele>
        <time>2021-04-07T09:20:55Z</time>
      </trkpt>
      <trkpt lat="44.48801" lon="6.58998">
        <ele>2778</ele>
        <time>2021-04-07T09:20:56Z</time>
      </trkpt>
      <trkpt lat="44.48801" lon="6.58998">
        <ele>2778</ele>
        <time>2021-04-07T09:20:57Z</time>
      </trkpt>
      <trkpt lat="44.488" lon="6.58998">
        <ele>2778</ele>
        <time>2021-04-07T09:20:58Z</time>
      </trkpt>
      <trkpt lat="44.488" lon="6.58998">
        <ele>2778</ele>
        <time>2021-04-07T09:20:59Z</time>
      </trkpt>
      <trkpt lat="44.488" lon="6.58998">
        <ele>2778</ele>
        <time>2021-04-07T09:21:00Z</time>
      </trkpt>
      <trkpt lat="44.488" lon="6.58998">
        <ele>2778</ele>
        <time>2021-04-07T09:21:01Z</time>
      </trkpt>
      <trkpt lat="44.488" lon="6.58998">
        <ele>2778</ele>
        <time>2021-04-07T09:21:02Z</time>
      </trkpt>
      <trkpt lat="44.488" lon="6.58998">
        <ele>2778</ele>
        <time>2021-04-07T09:21:03Z</time>
      </trkpt>
      <trkpt lat="44.488" lon="6.58998">
        <ele>2778</ele>
        <time>2021-04-07T09:21:04Z</time>
      </trkpt>
      <trkpt lat="44.488" lon="6.58998">
        <ele>2778</ele>
        <time>2021-04-07T09:21:05Z</time>
      </trkpt>
      <trkpt lat="44.488" lon="6.58998">
        <ele>2778</ele>
        <time>2021-04-07T09:21:06Z</time>
      </trkpt>
      <trkpt lat="44.488" lon="6.58998">
        <ele>2778</ele>
        <time>2021-04-07T09:21:07Z</time>
      </trkpt>
      <trkpt lat="44.488" lon="6.58998">
        <ele>2778</ele>
        <time>2021-04-07T09:21:08Z</time>
      </trkpt>
      <trkpt lat="44.488" lon="6.58998">
        <ele>2778</ele>
        <time>2021-04-07T09:21:09Z</time>
      </trkpt>
      <trkpt lat="44.488" lon="6.58998">
        <ele>2778</ele>
        <time>2021-04-07T09:21:10Z</time>
      </trkpt>
      <trkpt lat="44.488" lon="6.58998">
        <ele>2778</ele>
        <time>2021-04-07T09:21:11Z</time>
      </trkpt>
      <trkpt lat="44.488" lon="6.58996">
        <ele>2778</ele>
        <time>2021-04-07T09:21:12Z</time>
      </trkpt>
      <trkpt lat="44.488" lon="6.58996">
        <ele>2778</ele>
        <time>2021-04-07T09:21:13Z</time>
      </trkpt>
      <trkpt lat="44.488" lon="6.58996">
        <ele>2778</ele>
        <time>2021-04-07T09:21:14Z</time>
      </trkpt>
      <trkpt lat="44.48799" lon="6.58996">
        <ele>2779</ele>
        <time>2021-04-07T09:21:15Z</time>
      </trkpt>
      <trkpt lat="44.48799" lon="6.58996">
        <ele>2779</ele>
        <time>2021-04-07T09:21:16Z</time>
      </trkpt>
      <trkpt lat="44.48799" lon="6.58996">
        <ele>2779</ele>
        <time>2021-04-07T09:21:17Z</time>
      </trkpt>
      <trkpt lat="44.48799" lon="6.58996">
        <ele>2780</ele>
        <time>2021-04-07T09:21:18Z</time>
      </trkpt>
      <trkpt lat="44.48799" lon="6.58996">
        <ele>2780</ele>
        <time>2021-04-07T09:21:19Z</time>
      </trkpt>
      <trkpt lat="44.48799" lon="6.58996">
        <ele>2780</ele>
        <time>2021-04-07T09:21:20Z</time>
      </trkpt>
      <trkpt lat="44.48799" lon="6.58996">
        <ele>2780</ele>
        <time>2021-04-07T09:21:21Z</time>
      </trkpt>
      <trkpt lat="44.48799" lon="6.58996">
        <ele>2780</ele>
        <time>2021-04-07T09:21:22Z</time>
      </trkpt>
      <trkpt lat="44.48799" lon="6.58996">
        <ele>2780</ele>
        <time>2021-04-07T09:21:23Z</time>
      </trkpt>
      <trkpt lat="44.48799" lon="6.58996">
        <ele>2780</ele>
        <time>2021-04-07T09:21:24Z</time>
      </trkpt>
      <trkpt lat="44.48799" lon="6.58996">
        <ele>2780</ele>
        <time>2021-04-07T09:21:25Z</time>
      </trkpt>
      <trkpt lat="44.48799" lon="6.58996">
        <ele>2780</ele>
        <time>2021-04-07T09:21:26Z</time>
      </trkpt>
      <trkpt lat="44.48799" lon="6.58996">
        <ele>2780</ele>
        <time>2021-04-07T09:21:27Z</time>
      </trkpt>
      <trkpt lat="44.488" lon="6.58997">
        <ele>2780</ele>
        <time>2021-04-07T09:21:28Z</time>
      </trkpt>
      <trkpt lat="44.488" lon="6.58997">
        <ele>2780</ele>
        <time>2021-04-07T09:21:29Z</time>
      </trkpt>
      <trkpt lat="44.48799" lon="6.58997">
        <ele>2780</ele>
        <time>2021-04-07T09:21:30Z</time>
      </trkpt>
      <trkpt lat="44.48799" lon="6.58996">
        <ele>2780</ele>
        <time>2021-04-07T09:21:31Z</time>
      </trkpt>
      <trkpt lat="44.488" lon="6.58997">
        <ele>2780</ele>
        <time>2021-04-07T09:21:32Z</time>
      </trkpt>
      <trkpt lat="44.488" lon="6.58997">
        <ele>2780</ele>
        <time>2021-04-07T09:21:33Z</time>
      </trkpt>
      <trkpt lat="44.488" lon="6.58997">
        <ele>2780</ele>
        <time>2021-04-07T09:21:34Z</time>
      </trkpt>
      <trkpt lat="44.488" lon="6.58997">
        <ele>2780</ele>
        <time>2021-04-07T09:21:35Z</time>
      </trkpt>
      <trkpt lat="44.488" lon="6.58997">
        <ele>2780</ele>
        <time>2021-04-07T09:21:36Z</time>
      </trkpt>
      <trkpt lat="44.488" lon="6.58997">
        <ele>2780</ele>
        <time>2021-04-07T09:21:37Z</time>
      </trkpt>
      <trkpt lat="44.488" lon="6.58997">
        <ele>2780</ele>
        <time>2021-04-07T09:21:38Z</time>
      </trkpt>
      <trkpt lat="44.488" lon="6.58997">
        <ele>2780</ele>
        <time>2021-04-07T09:21:39Z</time>
      </trkpt>
      <trkpt lat="44.488" lon="6.58997">
        <ele>2780</ele>
        <time>2021-04-07T09:21:40Z</time>
      </trkpt>
      <trkpt lat="44.488" lon="6.58997">
        <ele>2780</ele>
        <time>2021-04-07T09:21:41Z</time>
      </trkpt>
      <trkpt lat="44.488" lon="6.58997">
        <ele>2780</ele>
        <time>2021-04-07T09:21:42Z</time>
      </trkpt>
      <trkpt lat="44.488" lon="6.58997">
        <ele>2781</ele>
        <time>2021-04-07T09:21:43Z</time>
      </trkpt>
      <trkpt lat="44.488" lon="6.58997">
        <ele>2781</ele>
        <time>2021-04-07T09:21:44Z</time>
      </trkpt>
      <trkpt lat="44.488" lon="6.58997">
        <ele>2781</ele>
        <time>2021-04-07T09:21:45Z</time>
      </trkpt>
      <trkpt lat="44.48801" lon="6.58999">
        <ele>2781</ele>
        <time>2021-04-07T09:21:46Z</time>
      </trkpt>
      <trkpt lat="44.48802" lon="6.58998">
        <ele>2781</ele>
        <time>2021-04-07T09:21:47Z</time>
      </trkpt>
      <trkpt lat="44.48802" lon="6.58998">
        <ele>2781</ele>
        <time>2021-04-07T09:21:48Z</time>
      </trkpt>
      <trkpt lat="44.48802" lon="6.58998">
        <ele>2781</ele>
        <time>2021-04-07T09:21:49Z</time>
      </trkpt>
      <trkpt lat="44.48801" lon="6.58998">
        <ele>2781</ele>
        <time>2021-04-07T09:21:50Z</time>
      </trkpt>
      <trkpt lat="44.48801" lon="6.58998">
        <ele>2781</ele>
        <time>2021-04-07T09:21:51Z</time>
      </trkpt>
      <trkpt lat="44.48801" lon="6.58998">
        <ele>2781</ele>
        <time>2021-04-07T09:21:52Z</time>
      </trkpt>
      <trkpt lat="44.48801" lon="6.58998">
        <ele>2781</ele>
        <time>2021-04-07T09:21:53Z</time>
      </trkpt>
      <trkpt lat="44.48801" lon="6.58998">
        <ele>2781</ele>
        <time>2021-04-07T09:21:54Z</time>
      </trkpt>
      <trkpt lat="44.48801" lon="6.58998">
        <ele>2781</ele>
        <time>2021-04-07T09:21:55Z</time>
      </trkpt>
      <trkpt lat="44.48801" lon="6.58998">
        <ele>2781</ele>
        <time>2021-04-07T09:21:56Z</time>
      </trkpt>
      <trkpt lat="44.48801" lon="6.58998">
        <ele>2781</ele>
        <time>2021-04-07T09:21:57Z</time>
      </trkpt>
      <trkpt lat="44.48801" lon="6.58998">
        <ele>2781</ele>
        <time>2021-04-07T09:21:58Z</time>
      </trkpt>
      <trkpt lat="44.48801" lon="6.58998">
        <ele>2781</ele>
        <time>2021-04-07T09:21:59Z</time>
      </trkpt>
      <trkpt lat="44.48801" lon="6.58998">
        <ele>2781</ele>
        <time>2021-04-07T09:22:00Z</time>
      </trkpt>
      <trkpt lat="44.48801" lon="6.58998">
        <ele>2781</ele>
        <time>2021-04-07T09:22:01Z</time>
      </trkpt>
      <trkpt lat="44.48801" lon="6.58998">
        <ele>2781</ele>
        <time>2021-04-07T09:22:02Z</time>
      </trkpt>
      <trkpt lat="44.48801" lon="6.58998">
        <ele>2781</ele>
        <time>2021-04-07T09:22:03Z</time>
      </trkpt>
      <trkpt lat="44.48801" lon="6.58998">
        <ele>2781</ele>
        <time>2021-04-07T09:22:04Z</time>
      </trkpt>
      <trkpt lat="44.48801" lon="6.58998">
        <ele>2781</ele>
        <time>2021-04-07T09:22:05Z</time>
      </trkpt>
      <trkpt lat="44.48801" lon="6.58998">
        <ele>2781</ele>
        <time>2021-04-07T09:22:06Z</time>
      </trkpt>
      <trkpt lat="44.48801" lon="6.58998">
        <ele>2781</ele>
        <time>2021-04-07T09:22:07Z</time>
      </trkpt>
      <trkpt lat="44.48801" lon="6.58998">
        <ele>2781</ele>
        <time>2021-04-07T09:22:08Z</time>
      </trkpt>
      <trkpt lat="44.48801" lon="6.58998">
        <ele>2781</ele>
        <time>2021-04-07T09:22:09Z</time>
      </trkpt>
      <trkpt lat="44.48801" lon="6.58998">
        <ele>2781</ele>
        <time>2021-04-07T09:22:10Z</time>
      </trkpt>
      <trkpt lat="44.48801" lon="6.58998">
        <ele>2781</ele>
        <time>2021-04-07T09:22:11Z</time>
      </trkpt>
      <trkpt lat="44.48801" lon="6.58998">
        <ele>2781</ele>
        <time>2021-04-07T09:22:12Z</time>
      </trkpt>
      <trkpt lat="44.48801" lon="6.58998">
        <ele>2781</ele>
        <time>2021-04-07T09:22:13Z</time>
      </trkpt>
      <trkpt lat="44.48801" lon="6.58998">
        <ele>2781</ele>
        <time>2021-04-07T09:22:14Z</time>
      </trkpt>
      <trkpt lat="44.48801" lon="6.58998">
        <ele>2781</ele>
        <time>2021-04-07T09:22:15Z</time>
      </trkpt>
      <trkpt lat="44.48801" lon="6.58998">
        <ele>2781</ele>
        <time>2021-04-07T09:22:16Z</time>
      </trkpt>
      <trkpt lat="44.48801" lon="6.58998">
        <ele>2781</ele>
        <time>2021-04-07T09:22:17Z</time>
      </trkpt>
      <trkpt lat="44.48801" lon="6.58998">
        <ele>2781</ele>
        <time>2021-04-07T09:22:18Z</time>
      </trkpt>
      <trkpt lat="44.48801" lon="6.58998">
        <ele>2781</ele>
        <time>2021-04-07T09:22:19Z</time>
      </trkpt>
      <trkpt lat="44.48801" lon="6.58998">
        <ele>2781</ele>
        <time>2021-04-07T09:22:20Z</time>
      </trkpt>
      <trkpt lat="44.48801" lon="6.58998">
        <ele>2781</ele>
        <time>2021-04-07T09:22:21Z</time>
      </trkpt>
      <trkpt lat="44.48801" lon="6.58998">
        <ele>2781</ele>
        <time>2021-04-07T09:22:22Z</time>
      </trkpt>
      <trkpt lat="44.48801" lon="6.58998">
        <ele>2781</ele>
        <time>2021-04-07T09:22:23Z</time>
      </trkpt>
      <trkpt lat="44.48801" lon="6.58998">
        <ele>2781</ele>
        <time>2021-04-07T09:22:24Z</time>
      </trkpt>
      <trkpt lat="44.48801" lon="6.58998">
        <ele>2781</ele>
        <time>2021-04-07T09:22:25Z</time>
      </trkpt>
      <trkpt lat="44.48801" lon="6.58998">
        <ele>2781</ele>
        <time>2021-04-07T09:22:26Z</time>
      </trkpt>
      <trkpt lat="44.48801" lon="6.58998">
        <ele>2781</ele>
        <time>2021-04-07T09:22:27Z</time>
      </trkpt>
      <trkpt lat="44.48801" lon="6.58998">
        <ele>2781</ele>
        <time>2021-04-07T09:22:28Z</time>
      </trkpt>
      <trkpt lat="44.48801" lon="6.58998">
        <ele>2781</ele>
        <time>2021-04-07T09:22:29Z</time>
      </trkpt>
      <trkpt lat="44.48801" lon="6.58998">
        <ele>2781</ele>
        <time>2021-04-07T09:22:30Z</time>
      </trkpt>
      <trkpt lat="44.48801" lon="6.58998">
        <ele>2781</ele>
        <time>2021-04-07T09:22:31Z</time>
      </trkpt>
      <trkpt lat="44.48801" lon="6.58998">
        <ele>2781</ele>
        <time>2021-04-07T09:22:32Z</time>
      </trkpt>
      <trkpt lat="44.48801" lon="6.58998">
        <ele>2781</ele>
        <time>2021-04-07T09:22:33Z</time>
      </trkpt>
      <trkpt lat="44.48801" lon="6.58998">
        <ele>2781</ele>
        <time>2021-04-07T09:22:34Z</time>
      </trkpt>
      <trkpt lat="44.48801" lon="6.58998">
        <ele>2781</ele>
        <time>2021-04-07T09:22:35Z</time>
      </trkpt>
      <trkpt lat="44.48801" lon="6.58998">
        <ele>2781</ele>
        <time>2021-04-07T09:22:36Z</time>
      </trkpt>
      <trkpt lat="44.48801" lon="6.58998">
        <ele>2781</ele>
        <time>2021-04-07T09:22:37Z</time>
      </trkpt>
      <trkpt lat="44.48801" lon="6.58998">
        <ele>2781</ele>
        <time>2021-04-07T09:22:38Z</time>
      </trkpt>
      <trkpt lat="44.48801" lon="6.58998">
        <ele>2781</ele>
        <time>2021-04-07T09:22:39Z</time>
      </trkpt>
      <trkpt lat="44.48801" lon="6.58998">
        <ele>2781</ele>
        <time>2021-04-07T09:22:40Z</time>
      </trkpt>
      <trkpt lat="44.48801" lon="6.58998">
        <ele>2781</ele>
        <time>2021-04-07T09:22:41Z</time>
      </trkpt>
      <trkpt lat="44.48801" lon="6.58998">
        <ele>2781</ele>
        <time>2021-04-07T09:22:42Z</time>
      </trkpt>
      <trkpt lat="44.48801" lon="6.58998">
        <ele>2781</ele>
        <time>2021-04-07T09:22:43Z</time>
      </trkpt>
      <trkpt lat="44.48801" lon="6.58998">
        <ele>2781</ele>
        <time>2021-04-07T09:22:44Z</time>
      </trkpt>
      <trkpt lat="44.48801" lon="6.58998">
        <ele>2781</ele>
        <time>2021-04-07T09:22:45Z</time>
      </trkpt>
      <trkpt lat="44.48801" lon="6.58998">
        <ele>2781</ele>
        <time>2021-04-07T09:22:46Z</time>
      </trkpt>
      <trkpt lat="44.48801" lon="6.58998">
        <ele>2781</ele>
        <time>2021-04-07T09:22:47Z</time>
      </trkpt>
      <trkpt lat="44.48801" lon="6.58998">
        <ele>2781</ele>
        <time>2021-04-07T09:22:48Z</time>
      </trkpt>
      <trkpt lat="44.48801" lon="6.58998">
        <ele>2781</ele>
        <time>2021-04-07T09:22:49Z</time>
      </trkpt>
      <trkpt lat="44.48801" lon="6.58998">
        <ele>2781</ele>
        <time>2021-04-07T09:22:50Z</time>
      </trkpt>
      <trkpt lat="44.48801" lon="6.58998">
        <ele>2781</ele>
        <time>2021-04-07T09:22:51Z</time>
      </trkpt>
      <trkpt lat="44.48801" lon="6.58998">
        <ele>2781</ele>
        <time>2021-04-07T09:22:52Z</time>
      </trkpt>
      <trkpt lat="44.48801" lon="6.58998">
        <ele>2781</ele>
        <time>2021-04-07T09:22:53Z</time>
      </trkpt>
      <trkpt lat="44.48801" lon="6.58999">
        <ele>2781</ele>
        <time>2021-04-07T09:22:54Z</time>
      </trkpt>
      <trkpt lat="44.48801" lon="6.58999">
        <ele>2781</ele>
        <time>2021-04-07T09:22:55Z</time>
      </trkpt>
      <trkpt lat="44.48801" lon="6.58999">
        <ele>2781</ele>
        <time>2021-04-07T09:22:56Z</time>
      </trkpt>
      <trkpt lat="44.48801" lon="6.58999">
        <ele>2781</ele>
        <time>2021-04-07T09:22:57Z</time>
      </trkpt>
      <trkpt lat="44.48801" lon="6.58999">
        <ele>2781</ele>
        <time>2021-04-07T09:22:58Z</time>
      </trkpt>
      <trkpt lat="44.48801" lon="6.58999">
        <ele>2781</ele>
        <time>2021-04-07T09:22:59Z</time>
      </trkpt>
      <trkpt lat="44.48801" lon="6.58999">
        <ele>2781</ele>
        <time>2021-04-07T09:23:00Z</time>
      </trkpt>
      <trkpt lat="44.48801" lon="6.59">
        <ele>2781</ele>
        <time>2021-04-07T09:23:01Z</time>
      </trkpt>
      <trkpt lat="44.48801" lon="6.59">
        <ele>2781</ele>
        <time>2021-04-07T09:23:02Z</time>
      </trkpt>
      <trkpt lat="44.48801" lon="6.59">
        <ele>2781</ele>
        <time>2021-04-07T09:23:03Z</time>
      </trkpt>
      <trkpt lat="44.48801" lon="6.59">
        <ele>2781</ele>
        <time>2021-04-07T09:23:04Z</time>
      </trkpt>
      <trkpt lat="44.48801" lon="6.59">
        <ele>2781</ele>
        <time>2021-04-07T09:23:05Z</time>
      </trkpt>
      <trkpt lat="44.48801" lon="6.59">
        <ele>2781</ele>
        <time>2021-04-07T09:23:06Z</time>
      </trkpt>
      <trkpt lat="44.48801" lon="6.59">
        <ele>2781</ele>
        <time>2021-04-07T09:23:07Z</time>
      </trkpt>
      <trkpt lat="44.48801" lon="6.59">
        <ele>2781</ele>
        <time>2021-04-07T09:23:08Z</time>
      </trkpt>
      <trkpt lat="44.48801" lon="6.59">
        <ele>2781</ele>
        <time>2021-04-07T09:23:09Z</time>
      </trkpt>
      <trkpt lat="44.48801" lon="6.59">
        <ele>2781</ele>
        <time>2021-04-07T09:23:10Z</time>
      </trkpt>
      <trkpt lat="44.48801" lon="6.59">
        <ele>2781</ele>
        <time>2021-04-07T09:23:11Z</time>
      </trkpt>
      <trkpt lat="44.48801" lon="6.59">
        <ele>2781</ele>
        <time>2021-04-07T09:23:12Z</time>
      </trkpt>
      <trkpt lat="44.48801" lon="6.59">
        <ele>2781</ele>
        <time>2021-04-07T09:23:13Z</time>
      </trkpt>
      <trkpt lat="44.48801" lon="6.59">
        <ele>2781</ele>
        <time>2021-04-07T09:23:14Z</time>
      </trkpt>
      <trkpt lat="44.48801" lon="6.59">
        <ele>2781</ele>
        <time>2021-04-07T09:23:15Z</time>
      </trkpt>
      <trkpt lat="44.48801" lon="6.59">
        <ele>2781</ele>
        <time>2021-04-07T09:23:16Z</time>
      </trkpt>
      <trkpt lat="44.48801" lon="6.59">
        <ele>2781</ele>
        <time>2021-04-07T09:23:17Z</time>
      </trkpt>
      <trkpt lat="44.48801" lon="6.59">
        <ele>2781</ele>
        <time>2021-04-07T09:23:18Z</time>
      </trkpt>
      <trkpt lat="44.48801" lon="6.59">
        <ele>2781</ele>
        <time>2021-04-07T09:23:19Z</time>
      </trkpt>
      <trkpt lat="44.48801" lon="6.59">
        <ele>2781</ele>
        <time>2021-04-07T09:23:20Z</time>
      </trkpt>
      <trkpt lat="44.48801" lon="6.59">
        <ele>2781</ele>
        <time>2021-04-07T09:23:21Z</time>
      </trkpt>
      <trkpt lat="44.48801" lon="6.59">
        <ele>2781</ele>
        <time>2021-04-07T09:23:22Z</time>
      </trkpt>
      <trkpt lat="44.48801" lon="6.59">
        <ele>2781</ele>
        <time>2021-04-07T09:23:23Z</time>
      </trkpt>
      <trkpt lat="44.48801" lon="6.59">
        <ele>2781</ele>
        <time>2021-04-07T09:23:24Z</time>
      </trkpt>
      <trkpt lat="44.48801" lon="6.59">
        <ele>2781</ele>
        <time>2021-04-07T09:23:25Z</time>
      </trkpt>
      <trkpt lat="44.48801" lon="6.59">
        <ele>2781</ele>
        <time>2021-04-07T09:23:26Z</time>
      </trkpt>
      <trkpt lat="44.48801" lon="6.59">
        <ele>2781</ele>
        <time>2021-04-07T09:23:27Z</time>
      </trkpt>
      <trkpt lat="44.488" lon="6.59">
        <ele>2781</ele>
        <time>2021-04-07T09:23:28Z</time>
      </trkpt>
      <trkpt lat="44.48801" lon="6.59">
        <ele>2781</ele>
        <time>2021-04-07T09:23:29Z</time>
      </trkpt>
      <trkpt lat="44.48801" lon="6.59">
        <ele>2781</ele>
        <time>2021-04-07T09:23:30Z</time>
      </trkpt>
      <trkpt lat="44.48801" lon="6.59">
        <ele>2781</ele>
        <time>2021-04-07T09:23:31Z</time>
      </trkpt>
      <trkpt lat="44.48801" lon="6.59">
        <ele>2781</ele>
        <time>2021-04-07T09:23:32Z</time>
      </trkpt>
      <trkpt lat="44.48801" lon="6.59">
        <ele>2781</ele>
        <time>2021-04-07T09:23:33Z</time>
      </trkpt>
      <trkpt lat="44.48801" lon="6.59">
        <ele>2781</ele>
        <time>2021-04-07T09:23:34Z</time>
      </trkpt>
      <trkpt lat="44.48801" lon="6.59">
        <ele>2781</ele>
        <time>2021-04-07T09:23:35Z</time>
      </trkpt>
      <trkpt lat="44.48801" lon="6.59">
        <ele>2781</ele>
        <time>2021-04-07T09:23:36Z</time>
      </trkpt>
      <trkpt lat="44.48801" lon="6.59">
        <ele>2781</ele>
        <time>2021-04-07T09:23:37Z</time>
      </trkpt>
      <trkpt lat="44.48801" lon="6.59">
        <ele>2781</ele>
        <time>2021-04-07T09:23:38Z</time>
      </trkpt>
      <trkpt lat="44.48801" lon="6.59">
        <ele>2781</ele>
        <time>2021-04-07T09:23:39Z</time>
      </trkpt>
      <trkpt lat="44.48801" lon="6.59">
        <ele>2781</ele>
        <time>2021-04-07T09:23:40Z</time>
      </trkpt>
      <trkpt lat="44.48801" lon="6.59">
        <ele>2780</ele>
        <time>2021-04-07T09:23:41Z</time>
      </trkpt>
      <trkpt lat="44.48801" lon="6.59">
        <ele>2780</ele>
        <time>2021-04-07T09:23:42Z</time>
      </trkpt>
      <trkpt lat="44.48801" lon="6.58999">
        <ele>2780</ele>
        <time>2021-04-07T09:23:43Z</time>
      </trkpt>
      <trkpt lat="44.48801" lon="6.58999">
        <ele>2780</ele>
        <time>2021-04-07T09:23:44Z</time>
      </trkpt>
      <trkpt lat="44.48801" lon="6.58999">
        <ele>2780</ele>
        <time>2021-04-07T09:23:45Z</time>
      </trkpt>
      <trkpt lat="44.48801" lon="6.59">
        <ele>2780</ele>
        <time>2021-04-07T09:23:46Z</time>
      </trkpt>
      <trkpt lat="44.48801" lon="6.59">
        <ele>2780</ele>
        <time>2021-04-07T09:23:47Z</time>
      </trkpt>
      <trkpt lat="44.48801" lon="6.59">
        <ele>2780</ele>
        <time>2021-04-07T09:23:48Z</time>
      </trkpt>
      <trkpt lat="44.48801" lon="6.59">
        <ele>2780</ele>
        <time>2021-04-07T09:23:49Z</time>
      </trkpt>
      <trkpt lat="44.48801" lon="6.59">
        <ele>2780</ele>
        <time>2021-04-07T09:23:50Z</time>
      </trkpt>
      <trkpt lat="44.48801" lon="6.59">
        <ele>2780</ele>
        <time>2021-04-07T09:23:51Z</time>
      </trkpt>
      <trkpt lat="44.48801" lon="6.59">
        <ele>2780</ele>
        <time>2021-04-07T09:23:52Z</time>
      </trkpt>
      <trkpt lat="44.48801" lon="6.59">
        <ele>2780</ele>
        <time>2021-04-07T09:23:53Z</time>
      </trkpt>
      <trkpt lat="44.48801" lon="6.59">
        <ele>2780</ele>
        <time>2021-04-07T09:23:54Z</time>
      </trkpt>
      <trkpt lat="44.48801" lon="6.59">
        <ele>2780</ele>
        <time>2021-04-07T09:23:55Z</time>
      </trkpt>
      <trkpt lat="44.48801" lon="6.59">
        <ele>2780</ele>
        <time>2021-04-07T09:23:56Z</time>
      </trkpt>
      <trkpt lat="44.48801" lon="6.59">
        <ele>2780</ele>
        <time>2021-04-07T09:23:57Z</time>
      </trkpt>
      <trkpt lat="44.48801" lon="6.59">
        <ele>2780</ele>
        <time>2021-04-07T09:23:58Z</time>
      </trkpt>
      <trkpt lat="44.48801" lon="6.59">
        <ele>2780</ele>
        <time>2021-04-07T09:23:59Z</time>
      </trkpt>
      <trkpt lat="44.48801" lon="6.59">
        <ele>2780</ele>
        <time>2021-04-07T09:24:00Z</time>
      </trkpt>
      <trkpt lat="44.48801" lon="6.59">
        <ele>2780</ele>
        <time>2021-04-07T09:24:01Z</time>
      </trkpt>
      <trkpt lat="44.48801" lon="6.59">
        <ele>2780</ele>
        <time>2021-04-07T09:24:02Z</time>
      </trkpt>
      <trkpt lat="44.48801" lon="6.59">
        <ele>2780</ele>
        <time>2021-04-07T09:24:03Z</time>
      </trkpt>
      <trkpt lat="44.48801" lon="6.59">
        <ele>2780</ele>
        <time>2021-04-07T09:24:04Z</time>
      </trkpt>
      <trkpt lat="44.48801" lon="6.59">
        <ele>2780</ele>
        <time>2021-04-07T09:24:05Z</time>
      </trkpt>
      <trkpt lat="44.48801" lon="6.59">
        <ele>2780</ele>
        <time>2021-04-07T09:24:06Z</time>
      </trkpt>
      <trkpt lat="44.48801" lon="6.59">
        <ele>2780</ele>
        <time>2021-04-07T09:24:07Z</time>
      </trkpt>
      <trkpt lat="44.48801" lon="6.59">
        <ele>2780</ele>
        <time>2021-04-07T09:24:08Z</time>
      </trkpt>
      <trkpt lat="44.48801" lon="6.59">
        <ele>2780</ele>
        <time>2021-04-07T09:24:09Z</time>
      </trkpt>
      <trkpt lat="44.48801" lon="6.59">
        <ele>2780</ele>
        <time>2021-04-07T09:24:10Z</time>
      </trkpt>
      <trkpt lat="44.48801" lon="6.59">
        <ele>2780</ele>
        <time>2021-04-07T09:24:11Z</time>
      </trkpt>
      <trkpt lat="44.48801" lon="6.59">
        <ele>2780</ele>
        <time>2021-04-07T09:24:12Z</time>
      </trkpt>
      <trkpt lat="44.48801" lon="6.59">
        <ele>2780</ele>
        <time>2021-04-07T09:24:13Z</time>
      </trkpt>
      <trkpt lat="44.48801" lon="6.59">
        <ele>2780</ele>
        <time>2021-04-07T09:24:14Z</time>
      </trkpt>
      <trkpt lat="44.48801" lon="6.59">
        <ele>2780</ele>
        <time>2021-04-07T09:24:15Z</time>
      </trkpt>
      <trkpt lat="44.48801" lon="6.59">
        <ele>2780</ele>
        <time>2021-04-07T09:24:16Z</time>
      </trkpt>
      <trkpt lat="44.48801" lon="6.59">
        <ele>2780</ele>
        <time>2021-04-07T09:24:17Z</time>
      </trkpt>
      <trkpt lat="44.48801" lon="6.59">
        <ele>2780</ele>
        <time>2021-04-07T09:24:18Z</time>
      </trkpt>
      <trkpt lat="44.48801" lon="6.59">
        <ele>2780</ele>
        <time>2021-04-07T09:24:19Z</time>
      </trkpt>
      <trkpt lat="44.48801" lon="6.59">
        <ele>2780</ele>
        <time>2021-04-07T09:24:20Z</time>
      </trkpt>
      <trkpt lat="44.48801" lon="6.59">
        <ele>2780</ele>
        <time>2021-04-07T09:24:21Z</time>
      </trkpt>
      <trkpt lat="44.48801" lon="6.59">
        <ele>2780</ele>
        <time>2021-04-07T09:24:22Z</time>
      </trkpt>
      <trkpt lat="44.48801" lon="6.59">
        <ele>2780</ele>
        <time>2021-04-07T09:24:23Z</time>
      </trkpt>
      <trkpt lat="44.48801" lon="6.59">
        <ele>2780</ele>
        <time>2021-04-07T09:24:24Z</time>
      </trkpt>
      <trkpt lat="44.48801" lon="6.59">
        <ele>2780</ele>
        <time>2021-04-07T09:24:25Z</time>
      </trkpt>
      <trkpt lat="44.48801" lon="6.59">
        <ele>2780</ele>
        <time>2021-04-07T09:24:26Z</time>
      </trkpt>
      <trkpt lat="44.48801" lon="6.59">
        <ele>2780</ele>
        <time>2021-04-07T09:24:27Z</time>
      </trkpt>
      <trkpt lat="44.48801" lon="6.59">
        <ele>2780</ele>
        <time>2021-04-07T09:24:28Z</time>
      </trkpt>
      <trkpt lat="44.48801" lon="6.59">
        <ele>2780</ele>
        <time>2021-04-07T09:24:29Z</time>
      </trkpt>
      <trkpt lat="44.48801" lon="6.59">
        <ele>2780</ele>
        <time>2021-04-07T09:24:30Z</time>
      </trkpt>
      <trkpt lat="44.48801" lon="6.59">
        <ele>2780</ele>
        <time>2021-04-07T09:24:31Z</time>
      </trkpt>
      <trkpt lat="44.48801" lon="6.59">
        <ele>2780</ele>
        <time>2021-04-07T09:24:32Z</time>
      </trkpt>
      <trkpt lat="44.48801" lon="6.59">
        <ele>2780</ele>
        <time>2021-04-07T09:24:33Z</time>
      </trkpt>
      <trkpt lat="44.48801" lon="6.59">
        <ele>2780</ele>
        <time>2021-04-07T09:24:34Z</time>
      </trkpt>
      <trkpt lat="44.48801" lon="6.59">
        <ele>2780</ele>
        <time>2021-04-07T09:24:35Z</time>
      </trkpt>
      <trkpt lat="44.48801" lon="6.59">
        <ele>2780</ele>
        <time>2021-04-07T09:24:36Z</time>
      </trkpt>
      <trkpt lat="44.48801" lon="6.59">
        <ele>2780</ele>
        <time>2021-04-07T09:24:37Z</time>
      </trkpt>
      <trkpt lat="44.48801" lon="6.59">
        <ele>2780</ele>
        <time>2021-04-07T09:24:38Z</time>
      </trkpt>
      <trkpt lat="44.48801" lon="6.59">
        <ele>2780</ele>
        <time>2021-04-07T09:24:39Z</time>
      </trkpt>
      <trkpt lat="44.48801" lon="6.59">
        <ele>2780</ele>
        <time>2021-04-07T09:24:40Z</time>
      </trkpt>
      <trkpt lat="44.48801" lon="6.59">
        <ele>2780</ele>
        <time>2021-04-07T09:24:41Z</time>
      </trkpt>
      <trkpt lat="44.48801" lon="6.59">
        <ele>2780</ele>
        <time>2021-04-07T09:24:42Z</time>
      </trkpt>
      <trkpt lat="44.48801" lon="6.59">
        <ele>2780</ele>
        <time>2021-04-07T09:24:43Z</time>
      </trkpt>
      <trkpt lat="44.48801" lon="6.59">
        <ele>2780</ele>
        <time>2021-04-07T09:24:44Z</time>
      </trkpt>
      <trkpt lat="44.48801" lon="6.59">
        <ele>2780</ele>
        <time>2021-04-07T09:24:45Z</time>
      </trkpt>
      <trkpt lat="44.48801" lon="6.59">
        <ele>2780</ele>
        <time>2021-04-07T09:24:46Z</time>
      </trkpt>
      <trkpt lat="44.48801" lon="6.59">
        <ele>2780</ele>
        <time>2021-04-07T09:24:47Z</time>
      </trkpt>
      <trkpt lat="44.48801" lon="6.59">
        <ele>2780</ele>
        <time>2021-04-07T09:24:48Z</time>
      </trkpt>
      <trkpt lat="44.48801" lon="6.59">
        <ele>2780</ele>
        <time>2021-04-07T09:24:49Z</time>
      </trkpt>
      <trkpt lat="44.48801" lon="6.59">
        <ele>2780</ele>
        <time>2021-04-07T09:24:50Z</time>
      </trkpt>
      <trkpt lat="44.48801" lon="6.59">
        <ele>2780</ele>
        <time>2021-04-07T09:24:51Z</time>
      </trkpt>
      <trkpt lat="44.48801" lon="6.59">
        <ele>2780</ele>
        <time>2021-04-07T09:24:52Z</time>
      </trkpt>
      <trkpt lat="44.48801" lon="6.59">
        <ele>2780</ele>
        <time>2021-04-07T09:24:53Z</time>
      </trkpt>
      <trkpt lat="44.48801" lon="6.59">
        <ele>2780</ele>
        <time>2021-04-07T09:24:54Z</time>
      </trkpt>
      <trkpt lat="44.48801" lon="6.59">
        <ele>2780</ele>
        <time>2021-04-07T09:24:55Z</time>
      </trkpt>
      <trkpt lat="44.48801" lon="6.59">
        <ele>2780</ele>
        <time>2021-04-07T09:24:56Z</time>
      </trkpt>
      <trkpt lat="44.48801" lon="6.59">
        <ele>2780</ele>
        <time>2021-04-07T09:24:57Z</time>
      </trkpt>
      <trkpt lat="44.48801" lon="6.59">
        <ele>2780</ele>
        <time>2021-04-07T09:24:58Z</time>
      </trkpt>
      <trkpt lat="44.48801" lon="6.59">
        <ele>2780</ele>
        <time>2021-04-07T09:24:59Z</time>
      </trkpt>
      <trkpt lat="44.48802" lon="6.58999">
        <ele>2780</ele>
        <time>2021-04-07T09:25:00Z</time>
      </trkpt>
      <trkpt lat="44.48802" lon="6.58999">
        <ele>2780</ele>
        <time>2021-04-07T09:25:01Z</time>
      </trkpt>
      <trkpt lat="44.48802" lon="6.59">
        <ele>2780</ele>
        <time>2021-04-07T09:25:02Z</time>
      </trkpt>
      <trkpt lat="44.48802" lon="6.59">
        <ele>2780</ele>
        <time>2021-04-07T09:25:03Z</time>
      </trkpt>
      <trkpt lat="44.48802" lon="6.59">
        <ele>2780</ele>
        <time>2021-04-07T09:25:04Z</time>
      </trkpt>
      <trkpt lat="44.48802" lon="6.59">
        <ele>2780</ele>
        <time>2021-04-07T09:25:05Z</time>
      </trkpt>
      <trkpt lat="44.48802" lon="6.59">
        <ele>2780</ele>
        <time>2021-04-07T09:25:06Z</time>
      </trkpt>
      <trkpt lat="44.48802" lon="6.59">
        <ele>2780</ele>
        <time>2021-04-07T09:25:07Z</time>
      </trkpt>
      <trkpt lat="44.48802" lon="6.59">
        <ele>2780</ele>
        <time>2021-04-07T09:25:08Z</time>
      </trkpt>
      <trkpt lat="44.48802" lon="6.59">
        <ele>2780</ele>
        <time>2021-04-07T09:25:09Z</time>
      </trkpt>
      <trkpt lat="44.48802" lon="6.59">
        <ele>2780</ele>
        <time>2021-04-07T09:25:10Z</time>
      </trkpt>
      <trkpt lat="44.48802" lon="6.59">
        <ele>2780</ele>
        <time>2021-04-07T09:25:11Z</time>
      </trkpt>
      <trkpt lat="44.48802" lon="6.59">
        <ele>2780</ele>
        <time>2021-04-07T09:25:12Z</time>
      </trkpt>
      <trkpt lat="44.48802" lon="6.59">
        <ele>2780</ele>
        <time>2021-04-07T09:25:13Z</time>
      </trkpt>
      <trkpt lat="44.48802" lon="6.59">
        <ele>2780</ele>
        <time>2021-04-07T09:25:14Z</time>
      </trkpt>
      <trkpt lat="44.48802" lon="6.59">
        <ele>2780</ele>
        <time>2021-04-07T09:25:15Z</time>
      </trkpt>
      <trkpt lat="44.48802" lon="6.59">
        <ele>2780</ele>
        <time>2021-04-07T09:25:16Z</time>
      </trkpt>
      <trkpt lat="44.48802" lon="6.59">
        <ele>2780</ele>
        <time>2021-04-07T09:25:17Z</time>
      </trkpt>
      <trkpt lat="44.48802" lon="6.59">
        <ele>2780</ele>
        <time>2021-04-07T09:25:18Z</time>
      </trkpt>
      <trkpt lat="44.48802" lon="6.59">
        <ele>2780</ele>
        <time>2021-04-07T09:25:19Z</time>
      </trkpt>
      <trkpt lat="44.48802" lon="6.59">
        <ele>2780</ele>
        <time>2021-04-07T09:25:20Z</time>
      </trkpt>
      <trkpt lat="44.48802" lon="6.59">
        <ele>2780</ele>
        <time>2021-04-07T09:25:21Z</time>
      </trkpt>
      <trkpt lat="44.48802" lon="6.59">
        <ele>2780</ele>
        <time>2021-04-07T09:25:22Z</time>
      </trkpt>
      <trkpt lat="44.48802" lon="6.59">
        <ele>2780</ele>
        <time>2021-04-07T09:25:23Z</time>
      </trkpt>
      <trkpt lat="44.48802" lon="6.59">
        <ele>2780</ele>
        <time>2021-04-07T09:25:24Z</time>
      </trkpt>
      <trkpt lat="44.48802" lon="6.59">
        <ele>2780</ele>
        <time>2021-04-07T09:25:25Z</time>
      </trkpt>
      <trkpt lat="44.48802" lon="6.59">
        <ele>2780</ele>
        <time>2021-04-07T09:25:26Z</time>
      </trkpt>
      <trkpt lat="44.48802" lon="6.59">
        <ele>2780</ele>
        <time>2021-04-07T09:25:27Z</time>
      </trkpt>
      <trkpt lat="44.48802" lon="6.59">
        <ele>2780</ele>
        <time>2021-04-07T09:25:28Z</time>
      </trkpt>
      <trkpt lat="44.48802" lon="6.59">
        <ele>2780</ele>
        <time>2021-04-07T09:25:29Z</time>
      </trkpt>
      <trkpt lat="44.48802" lon="6.59">
        <ele>2780</ele>
        <time>2021-04-07T09:25:30Z</time>
      </trkpt>
      <trkpt lat="44.48802" lon="6.59">
        <ele>2780</ele>
        <time>2021-04-07T09:25:31Z</time>
      </trkpt>
      <trkpt lat="44.48802" lon="6.59">
        <ele>2780</ele>
        <time>2021-04-07T09:25:32Z</time>
      </trkpt>
      <trkpt lat="44.48802" lon="6.59">
        <ele>2780</ele>
        <time>2021-04-07T09:25:33Z</time>
      </trkpt>
      <trkpt lat="44.48802" lon="6.59">
        <ele>2780</ele>
        <time>2021-04-07T09:25:34Z</time>
      </trkpt>
      <trkpt lat="44.48802" lon="6.59">
        <ele>2780</ele>
        <time>2021-04-07T09:25:35Z</time>
      </trkpt>
      <trkpt lat="44.48802" lon="6.59">
        <ele>2780</ele>
        <time>2021-04-07T09:25:36Z</time>
      </trkpt>
      <trkpt lat="44.48802" lon="6.59">
        <ele>2780</ele>
        <time>2021-04-07T09:25:37Z</time>
      </trkpt>
      <trkpt lat="44.48802" lon="6.59">
        <ele>2780</ele>
        <time>2021-04-07T09:25:38Z</time>
      </trkpt>
      <trkpt lat="44.48802" lon="6.59">
        <ele>2780</ele>
        <time>2021-04-07T09:25:39Z</time>
      </trkpt>
      <trkpt lat="44.48802" lon="6.59">
        <ele>2780</ele>
        <time>2021-04-07T09:25:40Z</time>
      </trkpt>
      <trkpt lat="44.48802" lon="6.59">
        <ele>2780</ele>
        <time>2021-04-07T09:25:41Z</time>
      </trkpt>
      <trkpt lat="44.48802" lon="6.59">
        <ele>2780</ele>
        <time>2021-04-07T09:25:42Z</time>
      </trkpt>
      <trkpt lat="44.48802" lon="6.59">
        <ele>2780</ele>
        <time>2021-04-07T09:25:43Z</time>
      </trkpt>
      <trkpt lat="44.48802" lon="6.59">
        <ele>2780</ele>
        <time>2021-04-07T09:25:44Z</time>
      </trkpt>
      <trkpt lat="44.48802" lon="6.59">
        <ele>2780</ele>
        <time>2021-04-07T09:25:45Z</time>
      </trkpt>
      <trkpt lat="44.48802" lon="6.59">
        <ele>2780</ele>
        <time>2021-04-07T09:25:46Z</time>
      </trkpt>
      <trkpt lat="44.48802" lon="6.59">
        <ele>2780</ele>
        <time>2021-04-07T09:25:47Z</time>
      </trkpt>
      <trkpt lat="44.48802" lon="6.59">
        <ele>2780</ele>
        <time>2021-04-07T09:25:48Z</time>
      </trkpt>
      <trkpt lat="44.48802" lon="6.59">
        <ele>2780</ele>
        <time>2021-04-07T09:25:49Z</time>
      </trkpt>
      <trkpt lat="44.48802" lon="6.59">
        <ele>2780</ele>
        <time>2021-04-07T09:25:50Z</time>
      </trkpt>
      <trkpt lat="44.48802" lon="6.59">
        <ele>2780</ele>
        <time>2021-04-07T09:25:51Z</time>
      </trkpt>
      <trkpt lat="44.48802" lon="6.59">
        <ele>2780</ele>
        <time>2021-04-07T09:25:52Z</time>
      </trkpt>
      <trkpt lat="44.48802" lon="6.59">
        <ele>2780</ele>
        <time>2021-04-07T09:25:53Z</time>
      </trkpt>
      <trkpt lat="44.48802" lon="6.59">
        <ele>2780</ele>
        <time>2021-04-07T09:25:54Z</time>
      </trkpt>
      <trkpt lat="44.48802" lon="6.59">
        <ele>2780</ele>
        <time>2021-04-07T09:25:55Z</time>
      </trkpt>
      <trkpt lat="44.48802" lon="6.59">
        <ele>2780</ele>
        <time>2021-04-07T09:25:56Z</time>
      </trkpt>
      <trkpt lat="44.48802" lon="6.59">
        <ele>2780</ele>
        <time>2021-04-07T09:25:57Z</time>
      </trkpt>
      <trkpt lat="44.48802" lon="6.59">
        <ele>2780</ele>
        <time>2021-04-07T09:25:58Z</time>
      </trkpt>
      <trkpt lat="44.48802" lon="6.59">
        <ele>2780</ele>
        <time>2021-04-07T09:25:59Z</time>
      </trkpt>
      <trkpt lat="44.48802" lon="6.59">
        <ele>2780</ele>
        <time>2021-04-07T09:26:00Z</time>
      </trkpt>
      <trkpt lat="44.48802" lon="6.59">
        <ele>2780</ele>
        <time>2021-04-07T09:26:01Z</time>
      </trkpt>
      <trkpt lat="44.48802" lon="6.59">
        <ele>2780</ele>
        <time>2021-04-07T09:26:02Z</time>
      </trkpt>
      <trkpt lat="44.48802" lon="6.59">
        <ele>2780</ele>
        <time>2021-04-07T09:26:03Z</time>
      </trkpt>
      <trkpt lat="44.48802" lon="6.59">
        <ele>2780</ele>
        <time>2021-04-07T09:26:04Z</time>
      </trkpt>
      <trkpt lat="44.48802" lon="6.59">
        <ele>2780</ele>
        <time>2021-04-07T09:26:05Z</time>
      </trkpt>
      <trkpt lat="44.48802" lon="6.59">
        <ele>2780</ele>
        <time>2021-04-07T09:26:06Z</time>
      </trkpt>
      <trkpt lat="44.48802" lon="6.59">
        <ele>2780</ele>
        <time>2021-04-07T09:26:07Z</time>
      </trkpt>
      <trkpt lat="44.48802" lon="6.59">
        <ele>2780</ele>
        <time>2021-04-07T09:26:08Z</time>
      </trkpt>
      <trkpt lat="44.48802" lon="6.59">
        <ele>2780</ele>
        <time>2021-04-07T09:26:09Z</time>
      </trkpt>
      <trkpt lat="44.48802" lon="6.59">
        <ele>2780</ele>
        <time>2021-04-07T09:26:10Z</time>
      </trkpt>
      <trkpt lat="44.48802" lon="6.59">
        <ele>2780</ele>
        <time>2021-04-07T09:26:11Z</time>
      </trkpt>
      <trkpt lat="44.48802" lon="6.59">
        <ele>2780</ele>
        <time>2021-04-07T09:26:12Z</time>
      </trkpt>
      <trkpt lat="44.48802" lon="6.59">
        <ele>2780</ele>
        <time>2021-04-07T09:26:13Z</time>
      </trkpt>
      <trkpt lat="44.48802" lon="6.59">
        <ele>2780</ele>
        <time>2021-04-07T09:26:14Z</time>
      </trkpt>
      <trkpt lat="44.48802" lon="6.59">
        <ele>2780</ele>
        <time>2021-04-07T09:26:15Z</time>
      </trkpt>
      <trkpt lat="44.48802" lon="6.59">
        <ele>2780</ele>
        <time>2021-04-07T09:26:16Z</time>
      </trkpt>
      <trkpt lat="44.48802" lon="6.59">
        <ele>2780</ele>
        <time>2021-04-07T09:26:17Z</time>
      </trkpt>
      <trkpt lat="44.48802" lon="6.59">
        <ele>2780</ele>
        <time>2021-04-07T09:26:18Z</time>
      </trkpt>
      <trkpt lat="44.48802" lon="6.59">
        <ele>2780</ele>
        <time>2021-04-07T09:26:19Z</time>
      </trkpt>
      <trkpt lat="44.48802" lon="6.59">
        <ele>2780</ele>
        <time>2021-04-07T09:26:20Z</time>
      </trkpt>
      <trkpt lat="44.48802" lon="6.59">
        <ele>2780</ele>
        <time>2021-04-07T09:26:21Z</time>
      </trkpt>
      <trkpt lat="44.48802" lon="6.59">
        <ele>2780</ele>
        <time>2021-04-07T09:26:22Z</time>
      </trkpt>
      <trkpt lat="44.48802" lon="6.59">
        <ele>2780</ele>
        <time>2021-04-07T09:26:23Z</time>
      </trkpt>
      <trkpt lat="44.48802" lon="6.59">
        <ele>2780</ele>
        <time>2021-04-07T09:26:24Z</time>
      </trkpt>
      <trkpt lat="44.48802" lon="6.59">
        <ele>2780</ele>
        <time>2021-04-07T09:26:25Z</time>
      </trkpt>
      <trkpt lat="44.48799" lon="6.58998">
        <ele>2780</ele>
        <time>2021-04-07T09:26:26Z</time>
      </trkpt>
      <trkpt lat="44.48799" lon="6.58998">
        <ele>2780</ele>
        <time>2021-04-07T09:26:27Z</time>
      </trkpt>
      <trkpt lat="44.48798" lon="6.58998">
        <ele>2780</ele>
        <time>2021-04-07T09:26:28Z</time>
      </trkpt>
      <trkpt lat="44.48798" lon="6.58998">
        <ele>2780</ele>
        <time>2021-04-07T09:26:29Z</time>
      </trkpt>
      <trkpt lat="44.48798" lon="6.58998">
        <ele>2780</ele>
        <time>2021-04-07T09:26:30Z</time>
      </trkpt>
      <trkpt lat="44.48798" lon="6.58998">
        <ele>2780</ele>
        <time>2021-04-07T09:26:31Z</time>
      </trkpt>
      <trkpt lat="44.48798" lon="6.58998">
        <ele>2780</ele>
        <time>2021-04-07T09:26:32Z</time>
      </trkpt>
      <trkpt lat="44.48798" lon="6.58998">
        <ele>2780</ele>
        <time>2021-04-07T09:26:33Z</time>
      </trkpt>
      <trkpt lat="44.48798" lon="6.58998">
        <ele>2780</ele>
        <time>2021-04-07T09:26:34Z</time>
      </trkpt>
      <trkpt lat="44.48798" lon="6.58998">
        <ele>2780</ele>
        <time>2021-04-07T09:26:35Z</time>
      </trkpt>
      <trkpt lat="44.48798" lon="6.58998">
        <ele>2780</ele>
        <time>2021-04-07T09:26:36Z</time>
      </trkpt>
      <trkpt lat="44.48798" lon="6.58998">
        <ele>2780</ele>
        <time>2021-04-07T09:26:37Z</time>
      </trkpt>
      <trkpt lat="44.48798" lon="6.58998">
        <ele>2780</ele>
        <time>2021-04-07T09:26:38Z</time>
      </trkpt>
      <trkpt lat="44.48798" lon="6.58998">
        <ele>2780</ele>
        <time>2021-04-07T09:26:39Z</time>
      </trkpt>
      <trkpt lat="44.48798" lon="6.58998">
        <ele>2780</ele>
        <time>2021-04-07T09:26:40Z</time>
      </trkpt>
      <trkpt lat="44.48798" lon="6.58998">
        <ele>2780</ele>
        <time>2021-04-07T09:26:41Z</time>
      </trkpt>
      <trkpt lat="44.48798" lon="6.58998">
        <ele>2780</ele>
        <time>2021-04-07T09:26:42Z</time>
      </trkpt>
      <trkpt lat="44.48798" lon="6.58998">
        <ele>2780</ele>
        <time>2021-04-07T09:26:43Z</time>
      </trkpt>
      <trkpt lat="44.48798" lon="6.58998">
        <ele>2780</ele>
        <time>2021-04-07T09:26:44Z</time>
      </trkpt>
      <trkpt lat="44.48798" lon="6.58998">
        <ele>2780</ele>
        <time>2021-04-07T09:26:45Z</time>
      </trkpt>
      <trkpt lat="44.48798" lon="6.58998">
        <ele>2780</ele>
        <time>2021-04-07T09:26:46Z</time>
      </trkpt>
      <trkpt lat="44.48798" lon="6.58998">
        <ele>2780</ele>
        <time>2021-04-07T09:26:47Z</time>
      </trkpt>
      <trkpt lat="44.48798" lon="6.58998">
        <ele>2780</ele>
        <time>2021-04-07T09:26:48Z</time>
      </trkpt>
      <trkpt lat="44.48798" lon="6.58998">
        <ele>2780</ele>
        <time>2021-04-07T09:26:49Z</time>
      </trkpt>
      <trkpt lat="44.48798" lon="6.58998">
        <ele>2780</ele>
        <time>2021-04-07T09:26:50Z</time>
      </trkpt>
      <trkpt lat="44.48798" lon="6.58998">
        <ele>2780</ele>
        <time>2021-04-07T09:26:51Z</time>
      </trkpt>
      <trkpt lat="44.48798" lon="6.58998">
        <ele>2780</ele>
        <time>2021-04-07T09:26:52Z</time>
      </trkpt>
      <trkpt lat="44.48798" lon="6.58998">
        <ele>2780</ele>
        <time>2021-04-07T09:26:53Z</time>
      </trkpt>
      <trkpt lat="44.48798" lon="6.58998">
        <ele>2780</ele>
        <time>2021-04-07T09:26:54Z</time>
      </trkpt>
      <trkpt lat="44.48798" lon="6.58998">
        <ele>2780</ele>
        <time>2021-04-07T09:26:55Z</time>
      </trkpt>
      <trkpt lat="44.48798" lon="6.58998">
        <ele>2780</ele>
        <time>2021-04-07T09:26:56Z</time>
      </trkpt>
      <trkpt lat="44.48798" lon="6.58998">
        <ele>2780</ele>
        <time>2021-04-07T09:26:57Z</time>
      </trkpt>
      <trkpt lat="44.48798" lon="6.58998">
        <ele>2780</ele>
        <time>2021-04-07T09:26:58Z</time>
      </trkpt>
      <trkpt lat="44.48798" lon="6.58998">
        <ele>2780</ele>
        <time>2021-04-07T09:26:59Z</time>
      </trkpt>
      <trkpt lat="44.48798" lon="6.58998">
        <ele>2780</ele>
        <time>2021-04-07T09:27:00Z</time>
      </trkpt>
      <trkpt lat="44.48798" lon="6.58998">
        <ele>2780</ele>
        <time>2021-04-07T09:27:01Z</time>
      </trkpt>
      <trkpt lat="44.48798" lon="6.58998">
        <ele>2780</ele>
        <time>2021-04-07T09:27:02Z</time>
      </trkpt>
      <trkpt lat="44.48798" lon="6.58998">
        <ele>2780</ele>
        <time>2021-04-07T09:27:03Z</time>
      </trkpt>
      <trkpt lat="44.48798" lon="6.58998">
        <ele>2780</ele>
        <time>2021-04-07T09:27:04Z</time>
      </trkpt>
      <trkpt lat="44.48798" lon="6.58998">
        <ele>2780</ele>
        <time>2021-04-07T09:27:05Z</time>
      </trkpt>
      <trkpt lat="44.48798" lon="6.58998">
        <ele>2780</ele>
        <time>2021-04-07T09:27:06Z</time>
      </trkpt>
      <trkpt lat="44.48801" lon="6.58998">
        <ele>2780</ele>
        <time>2021-04-07T09:27:07Z</time>
      </trkpt>
      <trkpt lat="44.48801" lon="6.58998">
        <ele>2780</ele>
        <time>2021-04-07T09:27:08Z</time>
      </trkpt>
      <trkpt lat="44.48801" lon="6.58998">
        <ele>2780</ele>
        <time>2021-04-07T09:27:09Z</time>
      </trkpt>
      <trkpt lat="44.48801" lon="6.58999">
        <ele>2780</ele>
        <time>2021-04-07T09:27:10Z</time>
      </trkpt>
      <trkpt lat="44.48801" lon="6.58999">
        <ele>2780</ele>
        <time>2021-04-07T09:27:11Z</time>
      </trkpt>
      <trkpt lat="44.48801" lon="6.58999">
        <ele>2780</ele>
        <time>2021-04-07T09:27:12Z</time>
      </trkpt>
      <trkpt lat="44.48801" lon="6.58999">
        <ele>2780</ele>
        <time>2021-04-07T09:27:13Z</time>
      </trkpt>
      <trkpt lat="44.48801" lon="6.58999">
        <ele>2779</ele>
        <time>2021-04-07T09:27:14Z</time>
      </trkpt>
      <trkpt lat="44.48801" lon="6.58999">
        <ele>2779</ele>
        <time>2021-04-07T09:27:15Z</time>
      </trkpt>
      <trkpt lat="44.48801" lon="6.58999">
        <ele>2779</ele>
        <time>2021-04-07T09:27:16Z</time>
      </trkpt>
      <trkpt lat="44.48801" lon="6.58999">
        <ele>2779</ele>
        <time>2021-04-07T09:27:17Z</time>
      </trkpt>
      <trkpt lat="44.48801" lon="6.58999">
        <ele>2779</ele>
        <time>2021-04-07T09:27:18Z</time>
      </trkpt>
      <trkpt lat="44.48801" lon="6.58999">
        <ele>2779</ele>
        <time>2021-04-07T09:27:19Z</time>
      </trkpt>
      <trkpt lat="44.48801" lon="6.58999">
        <ele>2779</ele>
        <time>2021-04-07T09:27:20Z</time>
      </trkpt>
      <trkpt lat="44.48801" lon="6.58999">
        <ele>2779</ele>
        <time>2021-04-07T09:27:21Z</time>
      </trkpt>
      <trkpt lat="44.48801" lon="6.58999">
        <ele>2779</ele>
        <time>2021-04-07T09:27:22Z</time>
      </trkpt>
      <trkpt lat="44.48801" lon="6.58999">
        <ele>2779</ele>
        <time>2021-04-07T09:27:23Z</time>
      </trkpt>
      <trkpt lat="44.48801" lon="6.58999">
        <ele>2779</ele>
        <time>2021-04-07T09:27:24Z</time>
      </trkpt>
      <trkpt lat="44.48801" lon="6.58999">
        <ele>2779</ele>
        <time>2021-04-07T09:27:25Z</time>
      </trkpt>
      <trkpt lat="44.48801" lon="6.58999">
        <ele>2779</ele>
        <time>2021-04-07T09:27:26Z</time>
      </trkpt>
      <trkpt lat="44.48801" lon="6.58999">
        <ele>2779</ele>
        <time>2021-04-07T09:27:27Z</time>
      </trkpt>
      <trkpt lat="44.48801" lon="6.58999">
        <ele>2779</ele>
        <time>2021-04-07T09:27:28Z</time>
      </trkpt>
      <trkpt lat="44.48801" lon="6.58999">
        <ele>2779</ele>
        <time>2021-04-07T09:27:29Z</time>
      </trkpt>
      <trkpt lat="44.48801" lon="6.58999">
        <ele>2779</ele>
        <time>2021-04-07T09:27:30Z</time>
      </trkpt>
      <trkpt lat="44.48801" lon="6.58999">
        <ele>2779</ele>
        <time>2021-04-07T09:27:31Z</time>
      </trkpt>
      <trkpt lat="44.48801" lon="6.58999">
        <ele>2779</ele>
        <time>2021-04-07T09:27:32Z</time>
      </trkpt>
      <trkpt lat="44.48801" lon="6.58999">
        <ele>2779</ele>
        <time>2021-04-07T09:27:33Z</time>
      </trkpt>
      <trkpt lat="44.48801" lon="6.58999">
        <ele>2779</ele>
        <time>2021-04-07T09:27:34Z</time>
      </trkpt>
      <trkpt lat="44.48801" lon="6.58999">
        <ele>2779</ele>
        <time>2021-04-07T09:27:35Z</time>
      </trkpt>
      <trkpt lat="44.48801" lon="6.58999">
        <ele>2779</ele>
        <time>2021-04-07T09:27:36Z</time>
      </trkpt>
      <trkpt lat="44.48801" lon="6.58999">
        <ele>2779</ele>
        <time>2021-04-07T09:27:37Z</time>
      </trkpt>
      <trkpt lat="44.48801" lon="6.58999">
        <ele>2779</ele>
        <time>2021-04-07T09:27:38Z</time>
      </trkpt>
      <trkpt lat="44.48801" lon="6.58999">
        <ele>2779</ele>
        <time>2021-04-07T09:27:39Z</time>
      </trkpt>
      <trkpt lat="44.48801" lon="6.58999">
        <ele>2779</ele>
        <time>2021-04-07T09:27:40Z</time>
      </trkpt>
      <trkpt lat="44.48801" lon="6.58999">
        <ele>2779</ele>
        <time>2021-04-07T09:27:41Z</time>
      </trkpt>
      <trkpt lat="44.48801" lon="6.58999">
        <ele>2779</ele>
        <time>2021-04-07T09:27:42Z</time>
      </trkpt>
      <trkpt lat="44.48801" lon="6.58999">
        <ele>2779</ele>
        <time>2021-04-07T09:27:43Z</time>
      </trkpt>
      <trkpt lat="44.48801" lon="6.58999">
        <ele>2779</ele>
        <time>2021-04-07T09:27:44Z</time>
      </trkpt>
      <trkpt lat="44.48801" lon="6.58999">
        <ele>2779</ele>
        <time>2021-04-07T09:27:45Z</time>
      </trkpt>
      <trkpt lat="44.48801" lon="6.58999">
        <ele>2779</ele>
        <time>2021-04-07T09:27:46Z</time>
      </trkpt>
      <trkpt lat="44.48801" lon="6.58999">
        <ele>2779</ele>
        <time>2021-04-07T09:27:47Z</time>
      </trkpt>
      <trkpt lat="44.48801" lon="6.58999">
        <ele>2779</ele>
        <time>2021-04-07T09:27:48Z</time>
      </trkpt>
      <trkpt lat="44.48801" lon="6.58999">
        <ele>2779</ele>
        <time>2021-04-07T09:27:49Z</time>
      </trkpt>
      <trkpt lat="44.48801" lon="6.58999">
        <ele>2779</ele>
        <time>2021-04-07T09:27:50Z</time>
      </trkpt>
      <trkpt lat="44.48801" lon="6.58999">
        <ele>2779</ele>
        <time>2021-04-07T09:27:51Z</time>
      </trkpt>
      <trkpt lat="44.48801" lon="6.58999">
        <ele>2779</ele>
        <time>2021-04-07T09:27:52Z</time>
      </trkpt>
      <trkpt lat="44.48801" lon="6.58999">
        <ele>2779</ele>
        <time>2021-04-07T09:27:53Z</time>
      </trkpt>
      <trkpt lat="44.48801" lon="6.58999">
        <ele>2779</ele>
        <time>2021-04-07T09:27:54Z</time>
      </trkpt>
      <trkpt lat="44.48801" lon="6.59">
        <ele>2779</ele>
        <time>2021-04-07T09:27:55Z</time>
      </trkpt>
      <trkpt lat="44.488" lon="6.59">
        <ele>2779</ele>
        <time>2021-04-07T09:27:56Z</time>
      </trkpt>
      <trkpt lat="44.488" lon="6.59">
        <ele>2779</ele>
        <time>2021-04-07T09:27:57Z</time>
      </trkpt>
      <trkpt lat="44.48799" lon="6.59">
        <ele>2779</ele>
        <time>2021-04-07T09:27:58Z</time>
      </trkpt>
      <trkpt lat="44.488" lon="6.59">
        <ele>2779</ele>
        <time>2021-04-07T09:27:59Z</time>
      </trkpt>
      <trkpt lat="44.488" lon="6.59">
        <ele>2779</ele>
        <time>2021-04-07T09:28:00Z</time>
      </trkpt>
      <trkpt lat="44.488" lon="6.59">
        <ele>2779</ele>
        <time>2021-04-07T09:28:01Z</time>
      </trkpt>
      <trkpt lat="44.488" lon="6.59">
        <ele>2779</ele>
        <time>2021-04-07T09:28:02Z</time>
      </trkpt>
      <trkpt lat="44.488" lon="6.59">
        <ele>2779</ele>
        <time>2021-04-07T09:28:03Z</time>
      </trkpt>
      <trkpt lat="44.488" lon="6.59">
        <ele>2779</ele>
        <time>2021-04-07T09:28:04Z</time>
      </trkpt>
      <trkpt lat="44.488" lon="6.59">
        <ele>2779</ele>
        <time>2021-04-07T09:28:05Z</time>
      </trkpt>
      <trkpt lat="44.488" lon="6.59">
        <ele>2779</ele>
        <time>2021-04-07T09:28:06Z</time>
      </trkpt>
      <trkpt lat="44.488" lon="6.59">
        <ele>2778</ele>
        <time>2021-04-07T09:28:07Z</time>
      </trkpt>
      <trkpt lat="44.488" lon="6.59">
        <ele>2778</ele>
        <time>2021-04-07T09:28:08Z</time>
      </trkpt>
      <trkpt lat="44.488" lon="6.59">
        <ele>2778</ele>
        <time>2021-04-07T09:28:09Z</time>
      </trkpt>
      <trkpt lat="44.488" lon="6.59">
        <ele>2778</ele>
        <time>2021-04-07T09:28:10Z</time>
      </trkpt>
      <trkpt lat="44.488" lon="6.59">
        <ele>2778</ele>
        <time>2021-04-07T09:28:11Z</time>
      </trkpt>
      <trkpt lat="44.488" lon="6.59">
        <ele>2778</ele>
        <time>2021-04-07T09:28:12Z</time>
      </trkpt>
      <trkpt lat="44.488" lon="6.59">
        <ele>2778</ele>
        <time>2021-04-07T09:28:13Z</time>
      </trkpt>
      <trkpt lat="44.488" lon="6.59">
        <ele>2778</ele>
        <time>2021-04-07T09:28:14Z</time>
      </trkpt>
      <trkpt lat="44.488" lon="6.59">
        <ele>2778</ele>
        <time>2021-04-07T09:28:15Z</time>
      </trkpt>
      <trkpt lat="44.488" lon="6.59">
        <ele>2778</ele>
        <time>2021-04-07T09:28:16Z</time>
      </trkpt>
      <trkpt lat="44.488" lon="6.59">
        <ele>2778</ele>
        <time>2021-04-07T09:28:17Z</time>
      </trkpt>
      <trkpt lat="44.488" lon="6.59">
        <ele>2778</ele>
        <time>2021-04-07T09:28:18Z</time>
      </trkpt>
      <trkpt lat="44.488" lon="6.59">
        <ele>2778</ele>
        <time>2021-04-07T09:28:19Z</time>
      </trkpt>
      <trkpt lat="44.488" lon="6.59">
        <ele>2778</ele>
        <time>2021-04-07T09:28:20Z</time>
      </trkpt>
      <trkpt lat="44.488" lon="6.59">
        <ele>2778</ele>
        <time>2021-04-07T09:28:21Z</time>
      </trkpt>
      <trkpt lat="44.488" lon="6.59">
        <ele>2778</ele>
        <time>2021-04-07T09:28:22Z</time>
      </trkpt>
      <trkpt lat="44.488" lon="6.59">
        <ele>2778</ele>
        <time>2021-04-07T09:28:23Z</time>
      </trkpt>
      <trkpt lat="44.488" lon="6.59">
        <ele>2778</ele>
        <time>2021-04-07T09:28:24Z</time>
      </trkpt>
      <trkpt lat="44.488" lon="6.59">
        <ele>2778</ele>
        <time>2021-04-07T09:28:25Z</time>
      </trkpt>
      <trkpt lat="44.488" lon="6.59">
        <ele>2778</ele>
        <time>2021-04-07T09:28:26Z</time>
      </trkpt>
      <trkpt lat="44.488" lon="6.59">
        <ele>2778</ele>
        <time>2021-04-07T09:28:27Z</time>
      </trkpt>
      <trkpt lat="44.488" lon="6.59">
        <ele>2778</ele>
        <time>2021-04-07T09:28:28Z</time>
      </trkpt>
      <trkpt lat="44.488" lon="6.59">
        <ele>2778</ele>
        <time>2021-04-07T09:28:29Z</time>
      </trkpt>
      <trkpt lat="44.488" lon="6.59">
        <ele>2778</ele>
        <time>2021-04-07T09:28:30Z</time>
      </trkpt>
      <trkpt lat="44.488" lon="6.59">
        <ele>2778</ele>
        <time>2021-04-07T09:28:31Z</time>
      </trkpt>
      <trkpt lat="44.488" lon="6.59">
        <ele>2778</ele>
        <time>2021-04-07T09:28:32Z</time>
      </trkpt>
      <trkpt lat="44.488" lon="6.59">
        <ele>2778</ele>
        <time>2021-04-07T09:28:33Z</time>
      </trkpt>
      <trkpt lat="44.488" lon="6.59">
        <ele>2778</ele>
        <time>2021-04-07T09:28:34Z</time>
      </trkpt>
      <trkpt lat="44.488" lon="6.59">
        <ele>2778</ele>
        <time>2021-04-07T09:28:35Z</time>
      </trkpt>
      <trkpt lat="44.488" lon="6.59">
        <ele>2778</ele>
        <time>2021-04-07T09:28:36Z</time>
      </trkpt>
      <trkpt lat="44.488" lon="6.59">
        <ele>2778</ele>
        <time>2021-04-07T09:28:37Z</time>
      </trkpt>
      <trkpt lat="44.488" lon="6.59">
        <ele>2778</ele>
        <time>2021-04-07T09:28:38Z</time>
      </trkpt>
      <trkpt lat="44.488" lon="6.59">
        <ele>2778</ele>
        <time>2021-04-07T09:28:39Z</time>
      </trkpt>
      <trkpt lat="44.488" lon="6.59">
        <ele>2778</ele>
        <time>2021-04-07T09:28:40Z</time>
      </trkpt>
      <trkpt lat="44.488" lon="6.59">
        <ele>2778</ele>
        <time>2021-04-07T09:28:41Z</time>
      </trkpt>
      <trkpt lat="44.488" lon="6.59">
        <ele>2778</ele>
        <time>2021-04-07T09:28:42Z</time>
      </trkpt>
      <trkpt lat="44.488" lon="6.59">
        <ele>2778</ele>
        <time>2021-04-07T09:28:43Z</time>
      </trkpt>
      <trkpt lat="44.488" lon="6.59">
        <ele>2778</ele>
        <time>2021-04-07T09:28:44Z</time>
      </trkpt>
      <trkpt lat="44.488" lon="6.59">
        <ele>2778</ele>
        <time>2021-04-07T09:28:45Z</time>
      </trkpt>
      <trkpt lat="44.488" lon="6.59">
        <ele>2778</ele>
        <time>2021-04-07T09:28:46Z</time>
      </trkpt>
      <trkpt lat="44.488" lon="6.59">
        <ele>2778</ele>
        <time>2021-04-07T09:28:47Z</time>
      </trkpt>
      <trkpt lat="44.488" lon="6.59">
        <ele>2778</ele>
        <time>2021-04-07T09:28:48Z</time>
      </trkpt>
      <trkpt lat="44.488" lon="6.59">
        <ele>2778</ele>
        <time>2021-04-07T09:28:49Z</time>
      </trkpt>
      <trkpt lat="44.488" lon="6.59">
        <ele>2778</ele>
        <time>2021-04-07T09:28:50Z</time>
      </trkpt>
      <trkpt lat="44.488" lon="6.59">
        <ele>2778</ele>
        <time>2021-04-07T09:28:51Z</time>
      </trkpt>
      <trkpt lat="44.488" lon="6.59">
        <ele>2778</ele>
        <time>2021-04-07T09:28:52Z</time>
      </trkpt>
      <trkpt lat="44.488" lon="6.59">
        <ele>2778</ele>
        <time>2021-04-07T09:28:53Z</time>
      </trkpt>
      <trkpt lat="44.488" lon="6.59">
        <ele>2778</ele>
        <time>2021-04-07T09:28:54Z</time>
      </trkpt>
      <trkpt lat="44.488" lon="6.59">
        <ele>2778</ele>
        <time>2021-04-07T09:28:55Z</time>
      </trkpt>
      <trkpt lat="44.488" lon="6.59">
        <ele>2778</ele>
        <time>2021-04-07T09:28:56Z</time>
      </trkpt>
      <trkpt lat="44.488" lon="6.59">
        <ele>2778</ele>
        <time>2021-04-07T09:28:57Z</time>
      </trkpt>
      <trkpt lat="44.488" lon="6.59">
        <ele>2778</ele>
        <time>2021-04-07T09:28:58Z</time>
      </trkpt>
      <trkpt lat="44.488" lon="6.59">
        <ele>2778</ele>
        <time>2021-04-07T09:28:59Z</time>
      </trkpt>
      <trkpt lat="44.488" lon="6.59">
        <ele>2778</ele>
        <time>2021-04-07T09:29:00Z</time>
      </trkpt>
      <trkpt lat="44.488" lon="6.59">
        <ele>2778</ele>
        <time>2021-04-07T09:29:01Z</time>
      </trkpt>
      <trkpt lat="44.488" lon="6.59">
        <ele>2778</ele>
        <time>2021-04-07T09:29:02Z</time>
      </trkpt>
      <trkpt lat="44.488" lon="6.59">
        <ele>2778</ele>
        <time>2021-04-07T09:29:03Z</time>
      </trkpt>
      <trkpt lat="44.488" lon="6.59">
        <ele>2778</ele>
        <time>2021-04-07T09:29:04Z</time>
      </trkpt>
      <trkpt lat="44.488" lon="6.59">
        <ele>2778</ele>
        <time>2021-04-07T09:29:05Z</time>
      </trkpt>
      <trkpt lat="44.488" lon="6.59">
        <ele>2778</ele>
        <time>2021-04-07T09:29:06Z</time>
      </trkpt>
      <trkpt lat="44.488" lon="6.59">
        <ele>2778</ele>
        <time>2021-04-07T09:29:07Z</time>
      </trkpt>
      <trkpt lat="44.488" lon="6.59">
        <ele>2778</ele>
        <time>2021-04-07T09:29:08Z</time>
      </trkpt>
      <trkpt lat="44.488" lon="6.59">
        <ele>2778</ele>
        <time>2021-04-07T09:29:09Z</time>
      </trkpt>
      <trkpt lat="44.488" lon="6.59">
        <ele>2778</ele>
        <time>2021-04-07T09:29:10Z</time>
      </trkpt>
      <trkpt lat="44.488" lon="6.59">
        <ele>2778</ele>
        <time>2021-04-07T09:29:11Z</time>
      </trkpt>
      <trkpt lat="44.488" lon="6.59">
        <ele>2778</ele>
        <time>2021-04-07T09:29:12Z</time>
      </trkpt>
      <trkpt lat="44.488" lon="6.59">
        <ele>2778</ele>
        <time>2021-04-07T09:29:13Z</time>
      </trkpt>
      <trkpt lat="44.488" lon="6.59">
        <ele>2778</ele>
        <time>2021-04-07T09:29:14Z</time>
      </trkpt>
      <trkpt lat="44.488" lon="6.59">
        <ele>2778</ele>
        <time>2021-04-07T09:29:15Z</time>
      </trkpt>
      <trkpt lat="44.488" lon="6.59">
        <ele>2778</ele>
        <time>2021-04-07T09:29:16Z</time>
      </trkpt>
      <trkpt lat="44.488" lon="6.59">
        <ele>2778</ele>
        <time>2021-04-07T09:29:17Z</time>
      </trkpt>
      <trkpt lat="44.488" lon="6.59">
        <ele>2778</ele>
        <time>2021-04-07T09:29:18Z</time>
      </trkpt>
      <trkpt lat="44.488" lon="6.59">
        <ele>2778</ele>
        <time>2021-04-07T09:29:19Z</time>
      </trkpt>
      <trkpt lat="44.488" lon="6.59">
        <ele>2778</ele>
        <time>2021-04-07T09:29:20Z</time>
      </trkpt>
      <trkpt lat="44.488" lon="6.59">
        <ele>2778</ele>
        <time>2021-04-07T09:29:21Z</time>
      </trkpt>
      <trkpt lat="44.488" lon="6.59">
        <ele>2778</ele>
        <time>2021-04-07T09:29:22Z</time>
      </trkpt>
      <trkpt lat="44.488" lon="6.59">
        <ele>2778</ele>
        <time>2021-04-07T09:29:23Z</time>
      </trkpt>
      <trkpt lat="44.488" lon="6.59">
        <ele>2778</ele>
        <time>2021-04-07T09:29:24Z</time>
      </trkpt>
      <trkpt lat="44.488" lon="6.59">
        <ele>2778</ele>
        <time>2021-04-07T09:29:25Z</time>
      </trkpt>
      <trkpt lat="44.488" lon="6.59">
        <ele>2778</ele>
        <time>2021-04-07T09:29:26Z</time>
      </trkpt>
      <trkpt lat="44.488" lon="6.59">
        <ele>2778</ele>
        <time>2021-04-07T09:29:27Z</time>
      </trkpt>
      <trkpt lat="44.488" lon="6.59">
        <ele>2778</ele>
        <time>2021-04-07T09:29:28Z</time>
      </trkpt>
      <trkpt lat="44.488" lon="6.59">
        <ele>2778</ele>
        <time>2021-04-07T09:29:29Z</time>
      </trkpt>
      <trkpt lat="44.488" lon="6.59">
        <ele>2778</ele>
        <time>2021-04-07T09:29:30Z</time>
      </trkpt>
      <trkpt lat="44.488" lon="6.59">
        <ele>2778</ele>
        <time>2021-04-07T09:29:31Z</time>
      </trkpt>
      <trkpt lat="44.488" lon="6.59">
        <ele>2778</ele>
        <time>2021-04-07T09:29:32Z</time>
      </trkpt>
      <trkpt lat="44.488" lon="6.59">
        <ele>2778</ele>
        <time>2021-04-07T09:29:33Z</time>
      </trkpt>
      <trkpt lat="44.488" lon="6.59">
        <ele>2778</ele>
        <time>2021-04-07T09:29:34Z</time>
      </trkpt>
      <trkpt lat="44.488" lon="6.59">
        <ele>2778</ele>
        <time>2021-04-07T09:29:35Z</time>
      </trkpt>
      <trkpt lat="44.488" lon="6.59">
        <ele>2778</ele>
        <time>2021-04-07T09:29:36Z</time>
      </trkpt>
      <trkpt lat="44.488" lon="6.59">
        <ele>2778</ele>
        <time>2021-04-07T09:29:37Z</time>
      </trkpt>
      <trkpt lat="44.488" lon="6.59">
        <ele>2778</ele>
        <time>2021-04-07T09:29:38Z</time>
      </trkpt>
      <trkpt lat="44.488" lon="6.59">
        <ele>2778</ele>
        <time>2021-04-07T09:29:39Z</time>
      </trkpt>
      <trkpt lat="44.488" lon="6.59">
        <ele>2778</ele>
        <time>2021-04-07T09:29:40Z</time>
      </trkpt>
      <trkpt lat="44.488" lon="6.59">
        <ele>2778</ele>
        <time>2021-04-07T09:29:41Z</time>
      </trkpt>
      <trkpt lat="44.488" lon="6.59">
        <ele>2778</ele>
        <time>2021-04-07T09:29:42Z</time>
      </trkpt>
      <trkpt lat="44.488" lon="6.59">
        <ele>2778</ele>
        <time>2021-04-07T09:29:43Z</time>
      </trkpt>
      <trkpt lat="44.488" lon="6.59">
        <ele>2778</ele>
        <time>2021-04-07T09:29:44Z</time>
      </trkpt>
      <trkpt lat="44.488" lon="6.59">
        <ele>2778</ele>
        <time>2021-04-07T09:29:45Z</time>
      </trkpt>
      <trkpt lat="44.488" lon="6.59">
        <ele>2778</ele>
        <time>2021-04-07T09:29:46Z</time>
      </trkpt>
      <trkpt lat="44.488" lon="6.59">
        <ele>2778</ele>
        <time>2021-04-07T09:29:47Z</time>
      </trkpt>
      <trkpt lat="44.488" lon="6.59">
        <ele>2778</ele>
        <time>2021-04-07T09:29:48Z</time>
      </trkpt>
      <trkpt lat="44.488" lon="6.59">
        <ele>2778</ele>
        <time>2021-04-07T09:29:49Z</time>
      </trkpt>
      <trkpt lat="44.488" lon="6.59">
        <ele>2778</ele>
        <time>2021-04-07T09:29:50Z</time>
      </trkpt>
      <trkpt lat="44.488" lon="6.59">
        <ele>2778</ele>
        <time>2021-04-07T09:29:51Z</time>
      </trkpt>
      <trkpt lat="44.488" lon="6.59">
        <ele>2778</ele>
        <time>2021-04-07T09:29:52Z</time>
      </trkpt>
      <trkpt lat="44.488" lon="6.59">
        <ele>2778</ele>
        <time>2021-04-07T09:29:53Z</time>
      </trkpt>
      <trkpt lat="44.488" lon="6.59">
        <ele>2778</ele>
        <time>2021-04-07T09:29:54Z</time>
      </trkpt>
      <trkpt lat="44.488" lon="6.59">
        <ele>2778</ele>
        <time>2021-04-07T09:29:55Z</time>
      </trkpt>
      <trkpt lat="44.488" lon="6.59">
        <ele>2778</ele>
        <time>2021-04-07T09:29:56Z</time>
      </trkpt>
      <trkpt lat="44.488" lon="6.59">
        <ele>2778</ele>
        <time>2021-04-07T09:29:57Z</time>
      </trkpt>
      <trkpt lat="44.488" lon="6.59">
        <ele>2778</ele>
        <time>2021-04-07T09:29:58Z</time>
      </trkpt>
      <trkpt lat="44.488" lon="6.59">
        <ele>2778</ele>
        <time>2021-04-07T09:29:59Z</time>
      </trkpt>
      <trkpt lat="44.488" lon="6.59">
        <ele>2778</ele>
        <time>2021-04-07T09:30:00Z</time>
      </trkpt>
      <trkpt lat="44.488" lon="6.59">
        <ele>2778</ele>
        <time>2021-04-07T09:30:01Z</time>
      </trkpt>
      <trkpt lat="44.488" lon="6.59">
        <ele>2778</ele>
        <time>2021-04-07T09:30:02Z</time>
      </trkpt>
      <trkpt lat="44.488" lon="6.59">
        <ele>2778</ele>
        <time>2021-04-07T09:30:03Z</time>
      </trkpt>
      <trkpt lat="44.488" lon="6.59">
        <ele>2778</ele>
        <time>2021-04-07T09:30:04Z</time>
      </trkpt>
      <trkpt lat="44.488" lon="6.59">
        <ele>2778</ele>
        <time>2021-04-07T09:30:05Z</time>
      </trkpt>
      <trkpt lat="44.488" lon="6.59">
        <ele>2778</ele>
        <time>2021-04-07T09:30:06Z</time>
      </trkpt>
      <trkpt lat="44.488" lon="6.59">
        <ele>2778</ele>
        <time>2021-04-07T09:30:07Z</time>
      </trkpt>
      <trkpt lat="44.488" lon="6.59">
        <ele>2778</ele>
        <time>2021-04-07T09:30:08Z</time>
      </trkpt>
      <trkpt lat="44.488" lon="6.59">
        <ele>2778</ele>
        <time>2021-04-07T09:30:09Z</time>
      </trkpt>
      <trkpt lat="44.488" lon="6.59">
        <ele>2778</ele>
        <time>2021-04-07T09:30:10Z</time>
      </trkpt>
      <trkpt lat="44.488" lon="6.59">
        <ele>2778</ele>
        <time>2021-04-07T09:30:11Z</time>
      </trkpt>
      <trkpt lat="44.488" lon="6.59">
        <ele>2778</ele>
        <time>2021-04-07T09:30:12Z</time>
      </trkpt>
      <trkpt lat="44.488" lon="6.59">
        <ele>2778</ele>
        <time>2021-04-07T09:30:13Z</time>
      </trkpt>
      <trkpt lat="44.488" lon="6.59">
        <ele>2778</ele>
        <time>2021-04-07T09:30:14Z</time>
      </trkpt>
      <trkpt lat="44.488" lon="6.59">
        <ele>2778</ele>
        <time>2021-04-07T09:30:15Z</time>
      </trkpt>
      <trkpt lat="44.488" lon="6.59">
        <ele>2778</ele>
        <time>2021-04-07T09:30:16Z</time>
      </trkpt>
      <trkpt lat="44.488" lon="6.59">
        <ele>2778</ele>
        <time>2021-04-07T09:30:17Z</time>
      </trkpt>
      <trkpt lat="44.488" lon="6.59">
        <ele>2778</ele>
        <time>2021-04-07T09:30:18Z</time>
      </trkpt>
      <trkpt lat="44.488" lon="6.59">
        <ele>2778</ele>
        <time>2021-04-07T09:30:19Z</time>
      </trkpt>
      <trkpt lat="44.488" lon="6.59">
        <ele>2778</ele>
        <time>2021-04-07T09:30:20Z</time>
      </trkpt>
      <trkpt lat="44.488" lon="6.59">
        <ele>2778</ele>
        <time>2021-04-07T09:30:21Z</time>
      </trkpt>
      <trkpt lat="44.488" lon="6.59">
        <ele>2778</ele>
        <time>2021-04-07T09:30:22Z</time>
      </trkpt>
      <trkpt lat="44.488" lon="6.59">
        <ele>2778</ele>
        <time>2021-04-07T09:30:23Z</time>
      </trkpt>
      <trkpt lat="44.488" lon="6.59">
        <ele>2778</ele>
        <time>2021-04-07T09:30:24Z</time>
      </trkpt>
      <trkpt lat="44.488" lon="6.59">
        <ele>2778</ele>
        <time>2021-04-07T09:30:25Z</time>
      </trkpt>
      <trkpt lat="44.488" lon="6.59">
        <ele>2778</ele>
        <time>2021-04-07T09:30:26Z</time>
      </trkpt>
      <trkpt lat="44.488" lon="6.59">
        <ele>2778</ele>
        <time>2021-04-07T09:30:27Z</time>
      </trkpt>
      <trkpt lat="44.488" lon="6.59">
        <ele>2778</ele>
        <time>2021-04-07T09:30:28Z</time>
      </trkpt>
      <trkpt lat="44.488" lon="6.59">
        <ele>2778</ele>
        <time>2021-04-07T09:30:29Z</time>
      </trkpt>
      <trkpt lat="44.488" lon="6.59">
        <ele>2778</ele>
        <time>2021-04-07T09:30:30Z</time>
      </trkpt>
      <trkpt lat="44.488" lon="6.59">
        <ele>2778</ele>
        <time>2021-04-07T09:30:31Z</time>
      </trkpt>
      <trkpt lat="44.488" lon="6.59">
        <ele>2778</ele>
        <time>2021-04-07T09:30:32Z</time>
      </trkpt>
      <trkpt lat="44.488" lon="6.59">
        <ele>2778</ele>
        <time>2021-04-07T09:30:33Z</time>
      </trkpt>
      <trkpt lat="44.488" lon="6.59">
        <ele>2778</ele>
        <time>2021-04-07T09:30:34Z</time>
      </trkpt>
      <trkpt lat="44.488" lon="6.59">
        <ele>2778</ele>
        <time>2021-04-07T09:30:35Z</time>
      </trkpt>
      <trkpt lat="44.488" lon="6.59">
        <ele>2778</ele>
        <time>2021-04-07T09:30:36Z</time>
      </trkpt>
      <trkpt lat="44.488" lon="6.59">
        <ele>2778</ele>
        <time>2021-04-07T09:30:37Z</time>
      </trkpt>
      <trkpt lat="44.488" lon="6.59">
        <ele>2778</ele>
        <time>2021-04-07T09:30:38Z</time>
      </trkpt>
      <trkpt lat="44.488" lon="6.59">
        <ele>2778</ele>
        <time>2021-04-07T09:30:39Z</time>
      </trkpt>
      <trkpt lat="44.488" lon="6.59">
        <ele>2778</ele>
        <time>2021-04-07T09:30:40Z</time>
      </trkpt>
      <trkpt lat="44.488" lon="6.59">
        <ele>2778</ele>
        <time>2021-04-07T09:30:41Z</time>
      </trkpt>
      <trkpt lat="44.48802" lon="6.58996">
        <ele>2777</ele>
        <time>2021-04-07T09:30:42Z</time>
      </trkpt>
      <trkpt lat="44.48802" lon="6.58996">
        <ele>2776</ele>
        <time>2021-04-07T09:30:43Z</time>
      </trkpt>
      <trkpt lat="44.48802" lon="6.58996">
        <ele>2776</ele>
        <time>2021-04-07T09:30:44Z</time>
      </trkpt>
      <trkpt lat="44.48802" lon="6.58997">
        <ele>2776</ele>
        <time>2021-04-07T09:30:45Z</time>
      </trkpt>
      <trkpt lat="44.48802" lon="6.58997">
        <ele>2776</ele>
        <time>2021-04-07T09:30:46Z</time>
      </trkpt>
      <trkpt lat="44.48802" lon="6.58997">
        <ele>2776</ele>
        <time>2021-04-07T09:30:47Z</time>
      </trkpt>
      <trkpt lat="44.48802" lon="6.58997">
        <ele>2776</ele>
        <time>2021-04-07T09:30:48Z</time>
      </trkpt>
      <trkpt lat="44.48802" lon="6.58997">
        <ele>2776</ele>
        <time>2021-04-07T09:30:49Z</time>
      </trkpt>
      <trkpt lat="44.48802" lon="6.58997">
        <ele>2776</ele>
        <time>2021-04-07T09:30:50Z</time>
      </trkpt>
      <trkpt lat="44.48802" lon="6.58997">
        <ele>2776</ele>
        <time>2021-04-07T09:30:51Z</time>
      </trkpt>
      <trkpt lat="44.48802" lon="6.58997">
        <ele>2776</ele>
        <time>2021-04-07T09:30:52Z</time>
      </trkpt>
      <trkpt lat="44.48802" lon="6.58997">
        <ele>2776</ele>
        <time>2021-04-07T09:30:53Z</time>
      </trkpt>
      <trkpt lat="44.48802" lon="6.58997">
        <ele>2776</ele>
        <time>2021-04-07T09:30:54Z</time>
      </trkpt>
      <trkpt lat="44.48802" lon="6.58997">
        <ele>2776</ele>
        <time>2021-04-07T09:30:55Z</time>
      </trkpt>
      <trkpt lat="44.48802" lon="6.58997">
        <ele>2776</ele>
        <time>2021-04-07T09:30:56Z</time>
      </trkpt>
      <trkpt lat="44.48802" lon="6.58997">
        <ele>2776</ele>
        <time>2021-04-07T09:30:57Z</time>
      </trkpt>
      <trkpt lat="44.48802" lon="6.58997">
        <ele>2776</ele>
        <time>2021-04-07T09:30:58Z</time>
      </trkpt>
      <trkpt lat="44.48802" lon="6.58997">
        <ele>2776</ele>
        <time>2021-04-07T09:30:59Z</time>
      </trkpt>
      <trkpt lat="44.48802" lon="6.58997">
        <ele>2776</ele>
        <time>2021-04-07T09:31:00Z</time>
      </trkpt>
      <trkpt lat="44.48802" lon="6.58997">
        <ele>2776</ele>
        <time>2021-04-07T09:31:01Z</time>
      </trkpt>
      <trkpt lat="44.48802" lon="6.58997">
        <ele>2776</ele>
        <time>2021-04-07T09:31:02Z</time>
      </trkpt>
      <trkpt lat="44.48802" lon="6.58997">
        <ele>2776</ele>
        <time>2021-04-07T09:31:03Z</time>
      </trkpt>
      <trkpt lat="44.48802" lon="6.58997">
        <ele>2776</ele>
        <time>2021-04-07T09:31:04Z</time>
      </trkpt>
      <trkpt lat="44.48802" lon="6.58997">
        <ele>2776</ele>
        <time>2021-04-07T09:31:05Z</time>
      </trkpt>
      <trkpt lat="44.48802" lon="6.58997">
        <ele>2776</ele>
        <time>2021-04-07T09:31:06Z</time>
      </trkpt>
      <trkpt lat="44.48802" lon="6.58997">
        <ele>2776</ele>
        <time>2021-04-07T09:31:07Z</time>
      </trkpt>
      <trkpt lat="44.48802" lon="6.58997">
        <ele>2776</ele>
        <time>2021-04-07T09:31:08Z</time>
      </trkpt>
      <trkpt lat="44.48802" lon="6.58997">
        <ele>2776</ele>
        <time>2021-04-07T09:31:09Z</time>
      </trkpt>
      <trkpt lat="44.48802" lon="6.58997">
        <ele>2776</ele>
        <time>2021-04-07T09:31:10Z</time>
      </trkpt>
      <trkpt lat="44.48802" lon="6.58997">
        <ele>2776</ele>
        <time>2021-04-07T09:31:11Z</time>
      </trkpt>
      <trkpt lat="44.48802" lon="6.58997">
        <ele>2776</ele>
        <time>2021-04-07T09:31:12Z</time>
      </trkpt>
      <trkpt lat="44.48802" lon="6.58997">
        <ele>2776</ele>
        <time>2021-04-07T09:31:13Z</time>
      </trkpt>
      <trkpt lat="44.48802" lon="6.58997">
        <ele>2776</ele>
        <time>2021-04-07T09:31:14Z</time>
      </trkpt>
      <trkpt lat="44.48802" lon="6.58997">
        <ele>2776</ele>
        <time>2021-04-07T09:31:15Z</time>
      </trkpt>
      <trkpt lat="44.48802" lon="6.58997">
        <ele>2776</ele>
        <time>2021-04-07T09:31:16Z</time>
      </trkpt>
      <trkpt lat="44.48802" lon="6.58997">
        <ele>2776</ele>
        <time>2021-04-07T09:31:17Z</time>
      </trkpt>
      <trkpt lat="44.48802" lon="6.58997">
        <ele>2776</ele>
        <time>2021-04-07T09:31:18Z</time>
      </trkpt>
      <trkpt lat="44.48802" lon="6.58997">
        <ele>2776</ele>
        <time>2021-04-07T09:31:19Z</time>
      </trkpt>
      <trkpt lat="44.48802" lon="6.58997">
        <ele>2776</ele>
        <time>2021-04-07T09:31:20Z</time>
      </trkpt>
      <trkpt lat="44.48802" lon="6.58997">
        <ele>2776</ele>
        <time>2021-04-07T09:31:21Z</time>
      </trkpt>
      <trkpt lat="44.48802" lon="6.58997">
        <ele>2776</ele>
        <time>2021-04-07T09:31:22Z</time>
      </trkpt>
      <trkpt lat="44.48802" lon="6.58997">
        <ele>2776</ele>
        <time>2021-04-07T09:31:23Z</time>
      </trkpt>
      <trkpt lat="44.48802" lon="6.58997">
        <ele>2776</ele>
        <time>2021-04-07T09:31:24Z</time>
      </trkpt>
      <trkpt lat="44.48802" lon="6.58997">
        <ele>2776</ele>
        <time>2021-04-07T09:31:25Z</time>
      </trkpt>
      <trkpt lat="44.48802" lon="6.58997">
        <ele>2776</ele>
        <time>2021-04-07T09:31:26Z</time>
      </trkpt>
      <trkpt lat="44.48802" lon="6.58997">
        <ele>2776</ele>
        <time>2021-04-07T09:31:27Z</time>
      </trkpt>
      <trkpt lat="44.48802" lon="6.58997">
        <ele>2776</ele>
        <time>2021-04-07T09:31:28Z</time>
      </trkpt>
      <trkpt lat="44.48802" lon="6.58997">
        <ele>2776</ele>
        <time>2021-04-07T09:31:29Z</time>
      </trkpt>
      <trkpt lat="44.48804" lon="6.58998">
        <ele>2776</ele>
        <time>2021-04-07T09:31:30Z</time>
      </trkpt>
      <trkpt lat="44.48804" lon="6.58999">
        <ele>2776</ele>
        <time>2021-04-07T09:31:31Z</time>
      </trkpt>
      <trkpt lat="44.48804" lon="6.58999">
        <ele>2775</ele>
        <time>2021-04-07T09:31:32Z</time>
      </trkpt>
      <trkpt lat="44.48804" lon="6.58999">
        <ele>2775</ele>
        <time>2021-04-07T09:31:33Z</time>
      </trkpt>
      <trkpt lat="44.48805" lon="6.58999">
        <ele>2775</ele>
        <time>2021-04-07T09:31:34Z</time>
      </trkpt>
      <trkpt lat="44.48805" lon="6.58999">
        <ele>2775</ele>
        <time>2021-04-07T09:31:35Z</time>
      </trkpt>
      <trkpt lat="44.48804" lon="6.59">
        <ele>2775</ele>
        <time>2021-04-07T09:31:36Z</time>
      </trkpt>
      <trkpt lat="44.48804" lon="6.59">
        <ele>2775</ele>
        <time>2021-04-07T09:31:37Z</time>
      </trkpt>
      <trkpt lat="44.48803" lon="6.59001">
        <ele>2775</ele>
        <time>2021-04-07T09:31:38Z</time>
      </trkpt>
      <trkpt lat="44.48803" lon="6.59002">
        <ele>2774</ele>
        <time>2021-04-07T09:31:39Z</time>
      </trkpt>
      <trkpt lat="44.48803" lon="6.59002">
        <ele>2774</ele>
        <time>2021-04-07T09:31:40Z</time>
      </trkpt>
      <trkpt lat="44.48802" lon="6.59003">
        <ele>2774</ele>
        <time>2021-04-07T09:31:41Z</time>
      </trkpt>
      <trkpt lat="44.48802" lon="6.59003">
        <ele>2774</ele>
        <time>2021-04-07T09:31:42Z</time>
      </trkpt>
      <trkpt lat="44.48803" lon="6.59003">
        <ele>2774</ele>
        <time>2021-04-07T09:31:43Z</time>
      </trkpt>
      <trkpt lat="44.48803" lon="6.59003">
        <ele>2774</ele>
        <time>2021-04-07T09:31:44Z</time>
      </trkpt>
      <trkpt lat="44.48803" lon="6.59003">
        <ele>2774</ele>
        <time>2021-04-07T09:31:45Z</time>
      </trkpt>
      <trkpt lat="44.48803" lon="6.59003">
        <ele>2774</ele>
        <time>2021-04-07T09:31:46Z</time>
      </trkpt>
      <trkpt lat="44.48803" lon="6.59003">
        <ele>2774</ele>
        <time>2021-04-07T09:31:47Z</time>
      </trkpt>
      <trkpt lat="44.48804" lon="6.59003">
        <ele>2774</ele>
        <time>2021-04-07T09:31:48Z</time>
      </trkpt>
      <trkpt lat="44.48804" lon="6.59003">
        <ele>2774</ele>
        <time>2021-04-07T09:31:49Z</time>
      </trkpt>
      <trkpt lat="44.48805" lon="6.59003">
        <ele>2774</ele>
        <time>2021-04-07T09:31:50Z</time>
      </trkpt>
      <trkpt lat="44.48805" lon="6.59003">
        <ele>2774</ele>
        <time>2021-04-07T09:31:51Z</time>
      </trkpt>
      <trkpt lat="44.48805" lon="6.59004">
        <ele>2774</ele>
        <time>2021-04-07T09:31:52Z</time>
      </trkpt>
      <trkpt lat="44.48806" lon="6.59004">
        <ele>2774</ele>
        <time>2021-04-07T09:31:53Z</time>
      </trkpt>
      <trkpt lat="44.48806" lon="6.59004">
        <ele>2774</ele>
        <time>2021-04-07T09:31:54Z</time>
      </trkpt>
      <trkpt lat="44.48806" lon="6.59003">
        <ele>2774</ele>
        <time>2021-04-07T09:31:55Z</time>
      </trkpt>
      <trkpt lat="44.48807" lon="6.59003">
        <ele>2774</ele>
        <time>2021-04-07T09:31:56Z</time>
      </trkpt>
      <trkpt lat="44.48807" lon="6.59003">
        <ele>2774</ele>
        <time>2021-04-07T09:31:57Z</time>
      </trkpt>
      <trkpt lat="44.48808" lon="6.59003">
        <ele>2774</ele>
        <time>2021-04-07T09:31:58Z</time>
      </trkpt>
      <trkpt lat="44.48808" lon="6.59002">
        <ele>2774</ele>
        <time>2021-04-07T09:31:59Z</time>
      </trkpt>
      <trkpt lat="44.48808" lon="6.59002">
        <ele>2774</ele>
        <time>2021-04-07T09:32:00Z</time>
      </trkpt>
      <trkpt lat="44.48808" lon="6.59002">
        <ele>2774</ele>
        <time>2021-04-07T09:32:01Z</time>
      </trkpt>
      <trkpt lat="44.48809" lon="6.59002">
        <ele>2774</ele>
        <time>2021-04-07T09:32:02Z</time>
      </trkpt>
      <trkpt lat="44.48809" lon="6.59002">
        <ele>2774</ele>
        <time>2021-04-07T09:32:03Z</time>
      </trkpt>
      <trkpt lat="44.48809" lon="6.59002">
        <ele>2774</ele>
        <time>2021-04-07T09:32:04Z</time>
      </trkpt>
      <trkpt lat="44.48809" lon="6.59002">
        <ele>2774</ele>
        <time>2021-04-07T09:32:05Z</time>
      </trkpt>
      <trkpt lat="44.48809" lon="6.59002">
        <ele>2774</ele>
        <time>2021-04-07T09:32:06Z</time>
      </trkpt>
      <trkpt lat="44.48809" lon="6.59002">
        <ele>2774</ele>
        <time>2021-04-07T09:32:07Z</time>
      </trkpt>
      <trkpt lat="44.48809" lon="6.59002">
        <ele>2774</ele>
        <time>2021-04-07T09:32:08Z</time>
      </trkpt>
      <trkpt lat="44.4881" lon="6.59003">
        <ele>2774</ele>
        <time>2021-04-07T09:32:09Z</time>
      </trkpt>
      <trkpt lat="44.48811" lon="6.59004">
        <ele>2773</ele>
        <time>2021-04-07T09:32:10Z</time>
      </trkpt>
      <trkpt lat="44.48811" lon="6.59004">
        <ele>2773</ele>
        <time>2021-04-07T09:32:11Z</time>
      </trkpt>
      <trkpt lat="44.48812" lon="6.59004">
        <ele>2773</ele>
        <time>2021-04-07T09:32:12Z</time>
      </trkpt>
      <trkpt lat="44.48812" lon="6.59004">
        <ele>2773</ele>
        <time>2021-04-07T09:32:13Z</time>
      </trkpt>
      <trkpt lat="44.48813" lon="6.59005">
        <ele>2772</ele>
        <time>2021-04-07T09:32:14Z</time>
      </trkpt>
      <trkpt lat="44.48814" lon="6.59006">
        <ele>2771</ele>
        <time>2021-04-07T09:32:15Z</time>
      </trkpt>
      <trkpt lat="44.48814" lon="6.59008">
        <ele>2771</ele>
        <time>2021-04-07T09:32:16Z</time>
      </trkpt>
      <trkpt lat="44.48815" lon="6.59008">
        <ele>2770</ele>
        <time>2021-04-07T09:32:17Z</time>
      </trkpt>
      <trkpt lat="44.48815" lon="6.5901">
        <ele>2770</ele>
        <time>2021-04-07T09:32:18Z</time>
      </trkpt>
      <trkpt lat="44.48815" lon="6.5901">
        <ele>2770</ele>
        <time>2021-04-07T09:32:19Z</time>
      </trkpt>
      <trkpt lat="44.48815" lon="6.59011">
        <ele>2769</ele>
        <time>2021-04-07T09:32:20Z</time>
      </trkpt>
      <trkpt lat="44.48816" lon="6.59011">
        <ele>2769</ele>
        <time>2021-04-07T09:32:21Z</time>
      </trkpt>
      <trkpt lat="44.48816" lon="6.59011">
        <ele>2769</ele>
        <time>2021-04-07T09:32:22Z</time>
      </trkpt>
      <trkpt lat="44.48818" lon="6.5901">
        <ele>2769</ele>
        <time>2021-04-07T09:32:23Z</time>
      </trkpt>
      <trkpt lat="44.48819" lon="6.59011">
        <ele>2768</ele>
        <time>2021-04-07T09:32:24Z</time>
      </trkpt>
      <trkpt lat="44.4882" lon="6.59012">
        <ele>2768</ele>
        <time>2021-04-07T09:32:25Z</time>
      </trkpt>
      <trkpt lat="44.48821" lon="6.59014">
        <ele>2767</ele>
        <time>2021-04-07T09:32:26Z</time>
      </trkpt>
      <trkpt lat="44.48821" lon="6.59014">
        <ele>2767</ele>
        <time>2021-04-07T09:32:27Z</time>
      </trkpt>
      <trkpt lat="44.48821" lon="6.59014">
        <ele>2767</ele>
        <time>2021-04-07T09:32:28Z</time>
      </trkpt>
      <trkpt lat="44.48821" lon="6.59014">
        <ele>2767</ele>
        <time>2021-04-07T09:32:29Z</time>
      </trkpt>
      <trkpt lat="44.48821" lon="6.59014">
        <ele>2767</ele>
        <time>2021-04-07T09:32:30Z</time>
      </trkpt>
      <trkpt lat="44.4882" lon="6.59014">
        <ele>2767</ele>
        <time>2021-04-07T09:32:31Z</time>
      </trkpt>
      <trkpt lat="44.4882" lon="6.59014">
        <ele>2767</ele>
        <time>2021-04-07T09:32:32Z</time>
      </trkpt>
      <trkpt lat="44.48821" lon="6.59014">
        <ele>2767</ele>
        <time>2021-04-07T09:32:33Z</time>
      </trkpt>
      <trkpt lat="44.48822" lon="6.59016">
        <ele>2767</ele>
        <time>2021-04-07T09:32:34Z</time>
      </trkpt>
      <trkpt lat="44.48825" lon="6.59016">
        <ele>2766</ele>
        <time>2021-04-07T09:32:35Z</time>
      </trkpt>
      <trkpt lat="44.48829" lon="6.59014">
        <ele>2765</ele>
        <time>2021-04-07T09:32:36Z</time>
      </trkpt>
      <trkpt lat="44.48832" lon="6.59011">
        <ele>2764</ele>
        <time>2021-04-07T09:32:37Z</time>
      </trkpt>
      <trkpt lat="44.48834" lon="6.59008">
        <ele>2763</ele>
        <time>2021-04-07T09:32:38Z</time>
      </trkpt>
      <trkpt lat="44.48835" lon="6.59008">
        <ele>2762</ele>
        <time>2021-04-07T09:32:39Z</time>
      </trkpt>
      <trkpt lat="44.48837" lon="6.59009">
        <ele>2761</ele>
        <time>2021-04-07T09:32:40Z</time>
      </trkpt>
      <trkpt lat="44.48837" lon="6.59012">
        <ele>2761</ele>
        <time>2021-04-07T09:32:41Z</time>
      </trkpt>
      <trkpt lat="44.48838" lon="6.59014">
        <ele>2760</ele>
        <time>2021-04-07T09:32:42Z</time>
      </trkpt>
      <trkpt lat="44.48838" lon="6.59016">
        <ele>2759</ele>
        <time>2021-04-07T09:32:43Z</time>
      </trkpt>
      <trkpt lat="44.48839" lon="6.59019">
        <ele>2758</ele>
        <time>2021-04-07T09:32:44Z</time>
      </trkpt>
      <trkpt lat="44.4884" lon="6.59023">
        <ele>2757</ele>
        <time>2021-04-07T09:32:45Z</time>
      </trkpt>
      <trkpt lat="44.48841" lon="6.59028">
        <ele>2756</ele>
        <time>2021-04-07T09:32:46Z</time>
      </trkpt>
      <trkpt lat="44.48842" lon="6.59032">
        <ele>2755</ele>
        <time>2021-04-07T09:32:47Z</time>
      </trkpt>
      <trkpt lat="44.48842" lon="6.59036">
        <ele>2754</ele>
        <time>2021-04-07T09:32:48Z</time>
      </trkpt>
      <trkpt lat="44.48843" lon="6.5904">
        <ele>2754</ele>
        <time>2021-04-07T09:32:49Z</time>
      </trkpt>
      <trkpt lat="44.48844" lon="6.59042">
        <ele>2753</ele>
        <time>2021-04-07T09:32:50Z</time>
      </trkpt>
      <trkpt lat="44.48844" lon="6.59044">
        <ele>2752</ele>
        <time>2021-04-07T09:32:51Z</time>
      </trkpt>
      <trkpt lat="44.48845" lon="6.59045">
        <ele>2752</ele>
        <time>2021-04-07T09:32:52Z</time>
      </trkpt>
      <trkpt lat="44.48845" lon="6.59045">
        <ele>2752</ele>
        <time>2021-04-07T09:32:53Z</time>
      </trkpt>
      <trkpt lat="44.48845" lon="6.59045">
        <ele>2751</ele>
        <time>2021-04-07T09:32:54Z</time>
      </trkpt>
      <trkpt lat="44.48846" lon="6.59046">
        <ele>2751</ele>
        <time>2021-04-07T09:32:55Z</time>
      </trkpt>
      <trkpt lat="44.48847" lon="6.59047">
        <ele>2750</ele>
        <time>2021-04-07T09:32:56Z</time>
      </trkpt>
      <trkpt lat="44.48848" lon="6.59048">
        <ele>2749</ele>
        <time>2021-04-07T09:32:57Z</time>
      </trkpt>
      <trkpt lat="44.48849" lon="6.5905">
        <ele>2749</ele>
        <time>2021-04-07T09:32:58Z</time>
      </trkpt>
      <trkpt lat="44.48849" lon="6.5905">
        <ele>2747</ele>
        <time>2021-04-07T09:32:59Z</time>
      </trkpt>
      <trkpt lat="44.4885" lon="6.59051">
        <ele>2747</ele>
        <time>2021-04-07T09:33:00Z</time>
      </trkpt>
      <trkpt lat="44.4885" lon="6.59052">
        <ele>2747</ele>
        <time>2021-04-07T09:33:01Z</time>
      </trkpt>
      <trkpt lat="44.48851" lon="6.59052">
        <ele>2746</ele>
        <time>2021-04-07T09:33:02Z</time>
      </trkpt>
      <trkpt lat="44.48851" lon="6.59053">
        <ele>2746</ele>
        <time>2021-04-07T09:33:03Z</time>
      </trkpt>
      <trkpt lat="44.48851" lon="6.59053">
        <ele>2745</ele>
        <time>2021-04-07T09:33:04Z</time>
      </trkpt>
      <trkpt lat="44.48852" lon="6.59054">
        <ele>2745</ele>
        <time>2021-04-07T09:33:05Z</time>
      </trkpt>
      <trkpt lat="44.48852" lon="6.59054">
        <ele>2745</ele>
        <time>2021-04-07T09:33:06Z</time>
      </trkpt>
      <trkpt lat="44.48852" lon="6.59054">
        <ele>2745</ele>
        <time>2021-04-07T09:33:07Z</time>
      </trkpt>
      <trkpt lat="44.48852" lon="6.59055">
        <ele>2745</ele>
        <time>2021-04-07T09:33:08Z</time>
      </trkpt>
      <trkpt lat="44.48852" lon="6.59055">
        <ele>2745</ele>
        <time>2021-04-07T09:33:09Z</time>
      </trkpt>
      <trkpt lat="44.48852" lon="6.59055">
        <ele>2745</ele>
        <time>2021-04-07T09:33:10Z</time>
      </trkpt>
      <trkpt lat="44.48852" lon="6.59056">
        <ele>2745</ele>
        <time>2021-04-07T09:33:11Z</time>
      </trkpt>
      <trkpt lat="44.48852" lon="6.59056">
        <ele>2745</ele>
        <time>2021-04-07T09:33:12Z</time>
      </trkpt>
      <trkpt lat="44.48852" lon="6.59056">
        <ele>2745</ele>
        <time>2021-04-07T09:33:13Z</time>
      </trkpt>
      <trkpt lat="44.48852" lon="6.59056">
        <ele>2745</ele>
        <time>2021-04-07T09:33:14Z</time>
      </trkpt>
      <trkpt lat="44.48852" lon="6.59056">
        <ele>2745</ele>
        <time>2021-04-07T09:33:15Z</time>
      </trkpt>
      <trkpt lat="44.48853" lon="6.59058">
        <ele>2745</ele>
        <time>2021-04-07T09:33:16Z</time>
      </trkpt>
      <trkpt lat="44.48853" lon="6.5906">
        <ele>2745</ele>
        <time>2021-04-07T09:33:17Z</time>
      </trkpt>
      <trkpt lat="44.48853" lon="6.59061">
        <ele>2745</ele>
        <time>2021-04-07T09:33:18Z</time>
      </trkpt>
      <trkpt lat="44.48852" lon="6.59063">
        <ele>2745</ele>
        <time>2021-04-07T09:33:19Z</time>
      </trkpt>
      <trkpt lat="44.48851" lon="6.59067">
        <ele>2745</ele>
        <time>2021-04-07T09:33:20Z</time>
      </trkpt>
      <trkpt lat="44.4885" lon="6.5907">
        <ele>2745</ele>
        <time>2021-04-07T09:33:21Z</time>
      </trkpt>
      <trkpt lat="44.48849" lon="6.59071">
        <ele>2745</ele>
        <time>2021-04-07T09:33:22Z</time>
      </trkpt>
      <trkpt lat="44.48849" lon="6.59072">
        <ele>2745</ele>
        <time>2021-04-07T09:33:23Z</time>
      </trkpt>
      <trkpt lat="44.48849" lon="6.59073">
        <ele>2745</ele>
        <time>2021-04-07T09:33:24Z</time>
      </trkpt>
      <trkpt lat="44.48849" lon="6.59074">
        <ele>2745</ele>
        <time>2021-04-07T09:33:25Z</time>
      </trkpt>
      <trkpt lat="44.48849" lon="6.59074">
        <ele>2745</ele>
        <time>2021-04-07T09:33:26Z</time>
      </trkpt>
      <trkpt lat="44.48849" lon="6.59075">
        <ele>2745</ele>
        <time>2021-04-07T09:33:27Z</time>
      </trkpt>
      <trkpt lat="44.48849" lon="6.59076">
        <ele>2745</ele>
        <time>2021-04-07T09:33:28Z</time>
      </trkpt>
      <trkpt lat="44.4885" lon="6.59076">
        <ele>2744</ele>
        <time>2021-04-07T09:33:29Z</time>
      </trkpt>
      <trkpt lat="44.48852" lon="6.59076">
        <ele>2744</ele>
        <time>2021-04-07T09:33:30Z</time>
      </trkpt>
      <trkpt lat="44.48854" lon="6.59075">
        <ele>2744</ele>
        <time>2021-04-07T09:33:31Z</time>
      </trkpt>
      <trkpt lat="44.48856" lon="6.59075">
        <ele>2743</ele>
        <time>2021-04-07T09:33:32Z</time>
      </trkpt>
      <trkpt lat="44.48857" lon="6.59075">
        <ele>2743</ele>
        <time>2021-04-07T09:33:33Z</time>
      </trkpt>
      <trkpt lat="44.48857" lon="6.59075">
        <ele>2743</ele>
        <time>2021-04-07T09:33:34Z</time>
      </trkpt>
      <trkpt lat="44.48858" lon="6.59075">
        <ele>2742</ele>
        <time>2021-04-07T09:33:35Z</time>
      </trkpt>
      <trkpt lat="44.48858" lon="6.59075">
        <ele>2742</ele>
        <time>2021-04-07T09:33:36Z</time>
      </trkpt>
      <trkpt lat="44.48859" lon="6.59075">
        <ele>2741</ele>
        <time>2021-04-07T09:33:37Z</time>
      </trkpt>
      <trkpt lat="44.4886" lon="6.59077">
        <ele>2741</ele>
        <time>2021-04-07T09:33:38Z</time>
      </trkpt>
      <trkpt lat="44.48859" lon="6.59081">
        <ele>2740</ele>
        <time>2021-04-07T09:33:39Z</time>
      </trkpt>
      <trkpt lat="44.48859" lon="6.59083">
        <ele>2740</ele>
        <time>2021-04-07T09:33:40Z</time>
      </trkpt>
      <trkpt lat="44.48858" lon="6.59084">
        <ele>2739</ele>
        <time>2021-04-07T09:33:41Z</time>
      </trkpt>
      <trkpt lat="44.48858" lon="6.59084">
        <ele>2739</ele>
        <time>2021-04-07T09:33:42Z</time>
      </trkpt>
      <trkpt lat="44.48858" lon="6.59084">
        <ele>2739</ele>
        <time>2021-04-07T09:33:43Z</time>
      </trkpt>
      <trkpt lat="44.48859" lon="6.59084">
        <ele>2738</ele>
        <time>2021-04-07T09:33:44Z</time>
      </trkpt>
      <trkpt lat="44.4886" lon="6.59083">
        <ele>2738</ele>
        <time>2021-04-07T09:33:45Z</time>
      </trkpt>
      <trkpt lat="44.4886" lon="6.59085">
        <ele>2738</ele>
        <time>2021-04-07T09:33:46Z</time>
      </trkpt>
      <trkpt lat="44.48861" lon="6.59087">
        <ele>2737</ele>
        <time>2021-04-07T09:33:47Z</time>
      </trkpt>
      <trkpt lat="44.48861" lon="6.5909">
        <ele>2737</ele>
        <time>2021-04-07T09:33:48Z</time>
      </trkpt>
      <trkpt lat="44.48863" lon="6.5909">
        <ele>2736</ele>
        <time>2021-04-07T09:33:49Z</time>
      </trkpt>
      <trkpt lat="44.48865" lon="6.59088">
        <ele>2735</ele>
        <time>2021-04-07T09:33:50Z</time>
      </trkpt>
      <trkpt lat="44.48866" lon="6.59087">
        <ele>2734</ele>
        <time>2021-04-07T09:33:51Z</time>
      </trkpt>
      <trkpt lat="44.48866" lon="6.59086">
        <ele>2733</ele>
        <time>2021-04-07T09:33:52Z</time>
      </trkpt>
      <trkpt lat="44.48866" lon="6.59085">
        <ele>2733</ele>
        <time>2021-04-07T09:33:53Z</time>
      </trkpt>
      <trkpt lat="44.48867" lon="6.59085">
        <ele>2731</ele>
        <time>2021-04-07T09:33:54Z</time>
      </trkpt>
      <trkpt lat="44.48867" lon="6.59084">
        <ele>2731</ele>
        <time>2021-04-07T09:33:55Z</time>
      </trkpt>
      <trkpt lat="44.48868" lon="6.59084">
        <ele>2730</ele>
        <time>2021-04-07T09:33:56Z</time>
      </trkpt>
      <trkpt lat="44.48867" lon="6.59085">
        <ele>2729</ele>
        <time>2021-04-07T09:33:57Z</time>
      </trkpt>
      <trkpt lat="44.48867" lon="6.59087">
        <ele>2729</ele>
        <time>2021-04-07T09:33:58Z</time>
      </trkpt>
      <trkpt lat="44.48867" lon="6.59088">
        <ele>2729</ele>
        <time>2021-04-07T09:33:59Z</time>
      </trkpt>
      <trkpt lat="44.48867" lon="6.59088">
        <ele>2728</ele>
        <time>2021-04-07T09:34:00Z</time>
      </trkpt>
      <trkpt lat="44.48867" lon="6.59089">
        <ele>2727</ele>
        <time>2021-04-07T09:34:01Z</time>
      </trkpt>
      <trkpt lat="44.48866" lon="6.59089">
        <ele>2726</ele>
        <time>2021-04-07T09:34:02Z</time>
      </trkpt>
      <trkpt lat="44.48866" lon="6.5909">
        <ele>2726</ele>
        <time>2021-04-07T09:34:03Z</time>
      </trkpt>
      <trkpt lat="44.48866" lon="6.5909">
        <ele>2725</ele>
        <time>2021-04-07T09:34:04Z</time>
      </trkpt>
      <trkpt lat="44.48866" lon="6.5909">
        <ele>2725</ele>
        <time>2021-04-07T09:34:05Z</time>
      </trkpt>
      <trkpt lat="44.48866" lon="6.5909">
        <ele>2725</ele>
        <time>2021-04-07T09:34:06Z</time>
      </trkpt>
      <trkpt lat="44.48866" lon="6.5909">
        <ele>2725</ele>
        <time>2021-04-07T09:34:07Z</time>
      </trkpt>
      <trkpt lat="44.48866" lon="6.5909">
        <ele>2725</ele>
        <time>2021-04-07T09:34:08Z</time>
      </trkpt>
      <trkpt lat="44.48866" lon="6.5909">
        <ele>2725</ele>
        <time>2021-04-07T09:34:09Z</time>
      </trkpt>
      <trkpt lat="44.48866" lon="6.5909">
        <ele>2725</ele>
        <time>2021-04-07T09:34:10Z</time>
      </trkpt>
      <trkpt lat="44.48866" lon="6.5909">
        <ele>2725</ele>
        <time>2021-04-07T09:34:11Z</time>
      </trkpt>
      <trkpt lat="44.48866" lon="6.5909">
        <ele>2725</ele>
        <time>2021-04-07T09:34:12Z</time>
      </trkpt>
      <trkpt lat="44.48866" lon="6.5909">
        <ele>2725</ele>
        <time>2021-04-07T09:34:13Z</time>
      </trkpt>
      <trkpt lat="44.48866" lon="6.5909">
        <ele>2724</ele>
        <time>2021-04-07T09:34:14Z</time>
      </trkpt>
      <trkpt lat="44.48866" lon="6.5909">
        <ele>2724</ele>
        <time>2021-04-07T09:34:15Z</time>
      </trkpt>
      <trkpt lat="44.48866" lon="6.5909">
        <ele>2724</ele>
        <time>2021-04-07T09:34:16Z</time>
      </trkpt>
      <trkpt lat="44.48866" lon="6.5909">
        <ele>2724</ele>
        <time>2021-04-07T09:34:17Z</time>
      </trkpt>
      <trkpt lat="44.48866" lon="6.5909">
        <ele>2724</ele>
        <time>2021-04-07T09:34:18Z</time>
      </trkpt>
      <trkpt lat="44.48866" lon="6.5909">
        <ele>2724</ele>
        <time>2021-04-07T09:34:19Z</time>
      </trkpt>
      <trkpt lat="44.48866" lon="6.5909">
        <ele>2724</ele>
        <time>2021-04-07T09:34:20Z</time>
      </trkpt>
      <trkpt lat="44.48866" lon="6.5909">
        <ele>2724</ele>
        <time>2021-04-07T09:34:21Z</time>
      </trkpt>
      <trkpt lat="44.48866" lon="6.5909">
        <ele>2724</ele>
        <time>2021-04-07T09:34:22Z</time>
      </trkpt>
      <trkpt lat="44.48866" lon="6.5909">
        <ele>2724</ele>
        <time>2021-04-07T09:34:23Z</time>
      </trkpt>
      <trkpt lat="44.48866" lon="6.5909">
        <ele>2724</ele>
        <time>2021-04-07T09:34:24Z</time>
      </trkpt>
      <trkpt lat="44.48866" lon="6.5909">
        <ele>2724</ele>
        <time>2021-04-07T09:34:25Z</time>
      </trkpt>
      <trkpt lat="44.48866" lon="6.5909">
        <ele>2724</ele>
        <time>2021-04-07T09:34:26Z</time>
      </trkpt>
      <trkpt lat="44.48866" lon="6.5909">
        <ele>2724</ele>
        <time>2021-04-07T09:34:27Z</time>
      </trkpt>
      <trkpt lat="44.48866" lon="6.5909">
        <ele>2724</ele>
        <time>2021-04-07T09:34:28Z</time>
      </trkpt>
      <trkpt lat="44.48866" lon="6.5909">
        <ele>2724</ele>
        <time>2021-04-07T09:34:29Z</time>
      </trkpt>
      <trkpt lat="44.48866" lon="6.5909">
        <ele>2724</ele>
        <time>2021-04-07T09:34:30Z</time>
      </trkpt>
      <trkpt lat="44.48866" lon="6.5909">
        <ele>2724</ele>
        <time>2021-04-07T09:34:31Z</time>
      </trkpt>
      <trkpt lat="44.48866" lon="6.5909">
        <ele>2724</ele>
        <time>2021-04-07T09:34:32Z</time>
      </trkpt>
      <trkpt lat="44.48866" lon="6.5909">
        <ele>2724</ele>
        <time>2021-04-07T09:34:33Z</time>
      </trkpt>
      <trkpt lat="44.48866" lon="6.5909">
        <ele>2724</ele>
        <time>2021-04-07T09:34:34Z</time>
      </trkpt>
      <trkpt lat="44.48866" lon="6.5909">
        <ele>2724</ele>
        <time>2021-04-07T09:34:35Z</time>
      </trkpt>
      <trkpt lat="44.48866" lon="6.5909">
        <ele>2724</ele>
        <time>2021-04-07T09:34:36Z</time>
      </trkpt>
      <trkpt lat="44.48866" lon="6.5909">
        <ele>2724</ele>
        <time>2021-04-07T09:34:37Z</time>
      </trkpt>
      <trkpt lat="44.48866" lon="6.5909">
        <ele>2724</ele>
        <time>2021-04-07T09:34:38Z</time>
      </trkpt>
      <trkpt lat="44.48866" lon="6.5909">
        <ele>2724</ele>
        <time>2021-04-07T09:34:39Z</time>
      </trkpt>
      <trkpt lat="44.48866" lon="6.5909">
        <ele>2724</ele>
        <time>2021-04-07T09:34:40Z</time>
      </trkpt>
      <trkpt lat="44.48866" lon="6.5909">
        <ele>2724</ele>
        <time>2021-04-07T09:34:41Z</time>
      </trkpt>
      <trkpt lat="44.48866" lon="6.5909">
        <ele>2724</ele>
        <time>2021-04-07T09:34:42Z</time>
      </trkpt>
      <trkpt lat="44.48866" lon="6.5909">
        <ele>2724</ele>
        <time>2021-04-07T09:34:43Z</time>
      </trkpt>
      <trkpt lat="44.48866" lon="6.5909">
        <ele>2724</ele>
        <time>2021-04-07T09:34:44Z</time>
      </trkpt>
      <trkpt lat="44.48866" lon="6.5909">
        <ele>2724</ele>
        <time>2021-04-07T09:34:45Z</time>
      </trkpt>
      <trkpt lat="44.48866" lon="6.5909">
        <ele>2724</ele>
        <time>2021-04-07T09:34:46Z</time>
      </trkpt>
      <trkpt lat="44.48866" lon="6.5909">
        <ele>2724</ele>
        <time>2021-04-07T09:34:47Z</time>
      </trkpt>
      <trkpt lat="44.48866" lon="6.5909">
        <ele>2724</ele>
        <time>2021-04-07T09:34:48Z</time>
      </trkpt>
      <trkpt lat="44.48866" lon="6.5909">
        <ele>2724</ele>
        <time>2021-04-07T09:34:49Z</time>
      </trkpt>
      <trkpt lat="44.48866" lon="6.5909">
        <ele>2724</ele>
        <time>2021-04-07T09:34:50Z</time>
      </trkpt>
      <trkpt lat="44.48866" lon="6.5909">
        <ele>2724</ele>
        <time>2021-04-07T09:34:51Z</time>
      </trkpt>
      <trkpt lat="44.48866" lon="6.5909">
        <ele>2724</ele>
        <time>2021-04-07T09:34:52Z</time>
      </trkpt>
      <trkpt lat="44.48866" lon="6.5909">
        <ele>2724</ele>
        <time>2021-04-07T09:34:53Z</time>
      </trkpt>
      <trkpt lat="44.48866" lon="6.5909">
        <ele>2724</ele>
        <time>2021-04-07T09:34:54Z</time>
      </trkpt>
      <trkpt lat="44.48866" lon="6.5909">
        <ele>2724</ele>
        <time>2021-04-07T09:34:55Z</time>
      </trkpt>
      <trkpt lat="44.48866" lon="6.5909">
        <ele>2724</ele>
        <time>2021-04-07T09:34:56Z</time>
      </trkpt>
      <trkpt lat="44.48866" lon="6.5909">
        <ele>2724</ele>
        <time>2021-04-07T09:34:57Z</time>
      </trkpt>
      <trkpt lat="44.48866" lon="6.5909">
        <ele>2724</ele>
        <time>2021-04-07T09:34:58Z</time>
      </trkpt>
      <trkpt lat="44.48866" lon="6.5909">
        <ele>2724</ele>
        <time>2021-04-07T09:34:59Z</time>
      </trkpt>
      <trkpt lat="44.48866" lon="6.5909">
        <ele>2724</ele>
        <time>2021-04-07T09:35:00Z</time>
      </trkpt>
      <trkpt lat="44.48866" lon="6.5909">
        <ele>2724</ele>
        <time>2021-04-07T09:35:01Z</time>
      </trkpt>
      <trkpt lat="44.48866" lon="6.5909">
        <ele>2724</ele>
        <time>2021-04-07T09:35:02Z</time>
      </trkpt>
      <trkpt lat="44.48866" lon="6.5909">
        <ele>2724</ele>
        <time>2021-04-07T09:35:03Z</time>
      </trkpt>
      <trkpt lat="44.48866" lon="6.5909">
        <ele>2724</ele>
        <time>2021-04-07T09:35:04Z</time>
      </trkpt>
      <trkpt lat="44.48866" lon="6.5909">
        <ele>2724</ele>
        <time>2021-04-07T09:35:05Z</time>
      </trkpt>
      <trkpt lat="44.48866" lon="6.5909">
        <ele>2724</ele>
        <time>2021-04-07T09:35:06Z</time>
      </trkpt>
      <trkpt lat="44.48866" lon="6.5909">
        <ele>2724</ele>
        <time>2021-04-07T09:35:07Z</time>
      </trkpt>
      <trkpt lat="44.48866" lon="6.5909">
        <ele>2724</ele>
        <time>2021-04-07T09:35:08Z</time>
      </trkpt>
      <trkpt lat="44.48866" lon="6.5909">
        <ele>2724</ele>
        <time>2021-04-07T09:35:09Z</time>
      </trkpt>
      <trkpt lat="44.48866" lon="6.5909">
        <ele>2724</ele>
        <time>2021-04-07T09:35:10Z</time>
      </trkpt>
      <trkpt lat="44.48866" lon="6.5909">
        <ele>2724</ele>
        <time>2021-04-07T09:35:11Z</time>
      </trkpt>
      <trkpt lat="44.48866" lon="6.5909">
        <ele>2724</ele>
        <time>2021-04-07T09:35:12Z</time>
      </trkpt>
      <trkpt lat="44.48866" lon="6.5909">
        <ele>2724</ele>
        <time>2021-04-07T09:35:13Z</time>
      </trkpt>
      <trkpt lat="44.48866" lon="6.5909">
        <ele>2724</ele>
        <time>2021-04-07T09:35:14Z</time>
      </trkpt>
      <trkpt lat="44.48866" lon="6.5909">
        <ele>2724</ele>
        <time>2021-04-07T09:35:15Z</time>
      </trkpt>
      <trkpt lat="44.48866" lon="6.5909">
        <ele>2724</ele>
        <time>2021-04-07T09:35:16Z</time>
      </trkpt>
      <trkpt lat="44.48866" lon="6.5909">
        <ele>2724</ele>
        <time>2021-04-07T09:35:17Z</time>
      </trkpt>
      <trkpt lat="44.48866" lon="6.5909">
        <ele>2724</ele>
        <time>2021-04-07T09:35:18Z</time>
      </trkpt>
      <trkpt lat="44.48866" lon="6.5909">
        <ele>2724</ele>
        <time>2021-04-07T09:35:19Z</time>
      </trkpt>
      <trkpt lat="44.48866" lon="6.5909">
        <ele>2724</ele>
        <time>2021-04-07T09:35:20Z</time>
      </trkpt>
      <trkpt lat="44.48866" lon="6.5909">
        <ele>2724</ele>
        <time>2021-04-07T09:35:21Z</time>
      </trkpt>
      <trkpt lat="44.48866" lon="6.5909">
        <ele>2724</ele>
        <time>2021-04-07T09:35:22Z</time>
      </trkpt>
      <trkpt lat="44.48866" lon="6.5909">
        <ele>2724</ele>
        <time>2021-04-07T09:35:23Z</time>
      </trkpt>
      <trkpt lat="44.48866" lon="6.5909">
        <ele>2724</ele>
        <time>2021-04-07T09:35:24Z</time>
      </trkpt>
      <trkpt lat="44.48866" lon="6.5909">
        <ele>2724</ele>
        <time>2021-04-07T09:35:25Z</time>
      </trkpt>
      <trkpt lat="44.48866" lon="6.5909">
        <ele>2724</ele>
        <time>2021-04-07T09:35:26Z</time>
      </trkpt>
      <trkpt lat="44.48866" lon="6.5909">
        <ele>2724</ele>
        <time>2021-04-07T09:35:27Z</time>
      </trkpt>
      <trkpt lat="44.48866" lon="6.5909">
        <ele>2724</ele>
        <time>2021-04-07T09:35:28Z</time>
      </trkpt>
      <trkpt lat="44.48866" lon="6.5909">
        <ele>2724</ele>
        <time>2021-04-07T09:35:29Z</time>
      </trkpt>
      <trkpt lat="44.48866" lon="6.5909">
        <ele>2724</ele>
        <time>2021-04-07T09:35:30Z</time>
      </trkpt>
      <trkpt lat="44.48866" lon="6.5909">
        <ele>2724</ele>
        <time>2021-04-07T09:35:31Z</time>
      </trkpt>
      <trkpt lat="44.48866" lon="6.5909">
        <ele>2724</ele>
        <time>2021-04-07T09:35:32Z</time>
      </trkpt>
      <trkpt lat="44.48866" lon="6.5909">
        <ele>2724</ele>
        <time>2021-04-07T09:35:33Z</time>
      </trkpt>
      <trkpt lat="44.48866" lon="6.5909">
        <ele>2724</ele>
        <time>2021-04-07T09:35:34Z</time>
      </trkpt>
      <trkpt lat="44.48866" lon="6.5909">
        <ele>2724</ele>
        <time>2021-04-07T09:35:35Z</time>
      </trkpt>
      <trkpt lat="44.48866" lon="6.5909">
        <ele>2724</ele>
        <time>2021-04-07T09:35:36Z</time>
      </trkpt>
      <trkpt lat="44.48866" lon="6.5909">
        <ele>2724</ele>
        <time>2021-04-07T09:35:37Z</time>
      </trkpt>
      <trkpt lat="44.48866" lon="6.5909">
        <ele>2724</ele>
        <time>2021-04-07T09:35:38Z</time>
      </trkpt>
      <trkpt lat="44.48866" lon="6.5909">
        <ele>2724</ele>
        <time>2021-04-07T09:35:39Z</time>
      </trkpt>
      <trkpt lat="44.48866" lon="6.5909">
        <ele>2724</ele>
        <time>2021-04-07T09:35:40Z</time>
      </trkpt>
      <trkpt lat="44.48866" lon="6.5909">
        <ele>2724</ele>
        <time>2021-04-07T09:35:41Z</time>
      </trkpt>
      <trkpt lat="44.48866" lon="6.5909">
        <ele>2724</ele>
        <time>2021-04-07T09:35:42Z</time>
      </trkpt>
      <trkpt lat="44.48866" lon="6.5909">
        <ele>2724</ele>
        <time>2021-04-07T09:35:43Z</time>
      </trkpt>
      <trkpt lat="44.48866" lon="6.5909">
        <ele>2724</ele>
        <time>2021-04-07T09:35:44Z</time>
      </trkpt>
      <trkpt lat="44.48866" lon="6.5909">
        <ele>2724</ele>
        <time>2021-04-07T09:35:45Z</time>
      </trkpt>
      <trkpt lat="44.48866" lon="6.5909">
        <ele>2724</ele>
        <time>2021-04-07T09:35:46Z</time>
      </trkpt>
      <trkpt lat="44.48866" lon="6.5909">
        <ele>2724</ele>
        <time>2021-04-07T09:35:47Z</time>
      </trkpt>
      <trkpt lat="44.48866" lon="6.5909">
        <ele>2724</ele>
        <time>2021-04-07T09:35:48Z</time>
      </trkpt>
      <trkpt lat="44.48866" lon="6.5909">
        <ele>2724</ele>
        <time>2021-04-07T09:35:49Z</time>
      </trkpt>
      <trkpt lat="44.48866" lon="6.5909">
        <ele>2724</ele>
        <time>2021-04-07T09:35:50Z</time>
      </trkpt>
      <trkpt lat="44.48866" lon="6.5909">
        <ele>2724</ele>
        <time>2021-04-07T09:35:51Z</time>
      </trkpt>
      <trkpt lat="44.48866" lon="6.5909">
        <ele>2724</ele>
        <time>2021-04-07T09:35:52Z</time>
      </trkpt>
      <trkpt lat="44.48866" lon="6.5909">
        <ele>2724</ele>
        <time>2021-04-07T09:35:53Z</time>
      </trkpt>
      <trkpt lat="44.48866" lon="6.5909">
        <ele>2724</ele>
        <time>2021-04-07T09:35:54Z</time>
      </trkpt>
      <trkpt lat="44.48866" lon="6.5909">
        <ele>2724</ele>
        <time>2021-04-07T09:35:55Z</time>
      </trkpt>
      <trkpt lat="44.48866" lon="6.5909">
        <ele>2724</ele>
        <time>2021-04-07T09:35:56Z</time>
      </trkpt>
      <trkpt lat="44.48866" lon="6.5909">
        <ele>2724</ele>
        <time>2021-04-07T09:35:57Z</time>
      </trkpt>
      <trkpt lat="44.48866" lon="6.5909">
        <ele>2724</ele>
        <time>2021-04-07T09:35:58Z</time>
      </trkpt>
      <trkpt lat="44.48866" lon="6.5909">
        <ele>2724</ele>
        <time>2021-04-07T09:35:59Z</time>
      </trkpt>
      <trkpt lat="44.48866" lon="6.5909">
        <ele>2724</ele>
        <time>2021-04-07T09:36:00Z</time>
      </trkpt>
      <trkpt lat="44.48866" lon="6.5909">
        <ele>2724</ele>
        <time>2021-04-07T09:36:01Z</time>
      </trkpt>
      <trkpt lat="44.48866" lon="6.5909">
        <ele>2724</ele>
        <time>2021-04-07T09:36:02Z</time>
      </trkpt>
      <trkpt lat="44.48866" lon="6.5909">
        <ele>2724</ele>
        <time>2021-04-07T09:36:03Z</time>
      </trkpt>
      <trkpt lat="44.48866" lon="6.5909">
        <ele>2724</ele>
        <time>2021-04-07T09:36:04Z</time>
      </trkpt>
      <trkpt lat="44.48866" lon="6.5909">
        <ele>2724</ele>
        <time>2021-04-07T09:36:05Z</time>
      </trkpt>
      <trkpt lat="44.48866" lon="6.5909">
        <ele>2724</ele>
        <time>2021-04-07T09:36:06Z</time>
      </trkpt>
      <trkpt lat="44.48866" lon="6.5909">
        <ele>2724</ele>
        <time>2021-04-07T09:36:07Z</time>
      </trkpt>
      <trkpt lat="44.48866" lon="6.5909">
        <ele>2724</ele>
        <time>2021-04-07T09:36:08Z</time>
      </trkpt>
      <trkpt lat="44.48866" lon="6.5909">
        <ele>2724</ele>
        <time>2021-04-07T09:36:09Z</time>
      </trkpt>
      <trkpt lat="44.48866" lon="6.5909">
        <ele>2724</ele>
        <time>2021-04-07T09:36:10Z</time>
      </trkpt>
      <trkpt lat="44.48866" lon="6.5909">
        <ele>2724</ele>
        <time>2021-04-07T09:36:11Z</time>
      </trkpt>
      <trkpt lat="44.48866" lon="6.5909">
        <ele>2724</ele>
        <time>2021-04-07T09:36:12Z</time>
      </trkpt>
      <trkpt lat="44.48866" lon="6.5909">
        <ele>2724</ele>
        <time>2021-04-07T09:36:13Z</time>
      </trkpt>
      <trkpt lat="44.48866" lon="6.5909">
        <ele>2724</ele>
        <time>2021-04-07T09:36:14Z</time>
      </trkpt>
      <trkpt lat="44.48866" lon="6.5909">
        <ele>2724</ele>
        <time>2021-04-07T09:36:15Z</time>
      </trkpt>
      <trkpt lat="44.48866" lon="6.5909">
        <ele>2724</ele>
        <time>2021-04-07T09:36:16Z</time>
      </trkpt>
      <trkpt lat="44.48866" lon="6.5909">
        <ele>2724</ele>
        <time>2021-04-07T09:36:17Z</time>
      </trkpt>
      <trkpt lat="44.48866" lon="6.5909">
        <ele>2724</ele>
        <time>2021-04-07T09:36:18Z</time>
      </trkpt>
      <trkpt lat="44.48866" lon="6.5909">
        <ele>2724</ele>
        <time>2021-04-07T09:36:19Z</time>
      </trkpt>
      <trkpt lat="44.48866" lon="6.5909">
        <ele>2724</ele>
        <time>2021-04-07T09:36:20Z</time>
      </trkpt>
      <trkpt lat="44.48866" lon="6.5909">
        <ele>2724</ele>
        <time>2021-04-07T09:36:21Z</time>
      </trkpt>
      <trkpt lat="44.48866" lon="6.5909">
        <ele>2724</ele>
        <time>2021-04-07T09:36:22Z</time>
      </trkpt>
      <trkpt lat="44.48866" lon="6.5909">
        <ele>2724</ele>
        <time>2021-04-07T09:36:23Z</time>
      </trkpt>
      <trkpt lat="44.48866" lon="6.5909">
        <ele>2724</ele>
        <time>2021-04-07T09:36:24Z</time>
      </trkpt>
      <trkpt lat="44.48866" lon="6.5909">
        <ele>2724</ele>
        <time>2021-04-07T09:36:25Z</time>
      </trkpt>
      <trkpt lat="44.48866" lon="6.5909">
        <ele>2724</ele>
        <time>2021-04-07T09:36:26Z</time>
      </trkpt>
      <trkpt lat="44.48866" lon="6.5909">
        <ele>2724</ele>
        <time>2021-04-07T09:36:27Z</time>
      </trkpt>
      <trkpt lat="44.48866" lon="6.5909">
        <ele>2724</ele>
        <time>2021-04-07T09:36:28Z</time>
      </trkpt>
      <trkpt lat="44.48866" lon="6.5909">
        <ele>2724</ele>
        <time>2021-04-07T09:36:29Z</time>
      </trkpt>
      <trkpt lat="44.48866" lon="6.5909">
        <ele>2724</ele>
        <time>2021-04-07T09:36:30Z</time>
      </trkpt>
      <trkpt lat="44.48866" lon="6.5909">
        <ele>2724</ele>
        <time>2021-04-07T09:36:31Z</time>
      </trkpt>
      <trkpt lat="44.48866" lon="6.5909">
        <ele>2724</ele>
        <time>2021-04-07T09:36:32Z</time>
      </trkpt>
      <trkpt lat="44.48866" lon="6.5909">
        <ele>2724</ele>
        <time>2021-04-07T09:36:33Z</time>
      </trkpt>
      <trkpt lat="44.48866" lon="6.5909">
        <ele>2724</ele>
        <time>2021-04-07T09:36:34Z</time>
      </trkpt>
      <trkpt lat="44.48869" lon="6.5909">
        <ele>2724</ele>
        <time>2021-04-07T09:36:35Z</time>
      </trkpt>
      <trkpt lat="44.48869" lon="6.59092">
        <ele>2724</ele>
        <time>2021-04-07T09:36:36Z</time>
      </trkpt>
      <trkpt lat="44.48868" lon="6.59095">
        <ele>2724</ele>
        <time>2021-04-07T09:36:37Z</time>
      </trkpt>
      <trkpt lat="44.48868" lon="6.59098">
        <ele>2724</ele>
        <time>2021-04-07T09:36:38Z</time>
      </trkpt>
      <trkpt lat="44.48867" lon="6.591">
        <ele>2723</ele>
        <time>2021-04-07T09:36:39Z</time>
      </trkpt>
      <trkpt lat="44.48867" lon="6.59103">
        <ele>2723</ele>
        <time>2021-04-07T09:36:40Z</time>
      </trkpt>
      <trkpt lat="44.48867" lon="6.59105">
        <ele>2722</ele>
        <time>2021-04-07T09:36:41Z</time>
      </trkpt>
      <trkpt lat="44.48867" lon="6.59107">
        <ele>2721</ele>
        <time>2021-04-07T09:36:42Z</time>
      </trkpt>
      <trkpt lat="44.4887" lon="6.59108">
        <ele>2720</ele>
        <time>2021-04-07T09:36:43Z</time>
      </trkpt>
      <trkpt lat="44.48873" lon="6.59105">
        <ele>2719</ele>
        <time>2021-04-07T09:36:44Z</time>
      </trkpt>
      <trkpt lat="44.48876" lon="6.59102">
        <ele>2718</ele>
        <time>2021-04-07T09:36:45Z</time>
      </trkpt>
      <trkpt lat="44.48878" lon="6.59098">
        <ele>2717</ele>
        <time>2021-04-07T09:36:46Z</time>
      </trkpt>
      <trkpt lat="44.48879" lon="6.59095">
        <ele>2716</ele>
        <time>2021-04-07T09:36:47Z</time>
      </trkpt>
      <trkpt lat="44.48881" lon="6.59092">
        <ele>2715</ele>
        <time>2021-04-07T09:36:48Z</time>
      </trkpt>
      <trkpt lat="44.48883" lon="6.5909">
        <ele>2714</ele>
        <time>2021-04-07T09:36:49Z</time>
      </trkpt>
      <trkpt lat="44.48886" lon="6.59091">
        <ele>2713</ele>
        <time>2021-04-07T09:36:50Z</time>
      </trkpt>
      <trkpt lat="44.48887" lon="6.59095">
        <ele>2711</ele>
        <time>2021-04-07T09:36:51Z</time>
      </trkpt>
      <trkpt lat="44.48886" lon="6.591">
        <ele>2710</ele>
        <time>2021-04-07T09:36:52Z</time>
      </trkpt>
      <trkpt lat="44.48885" lon="6.59103">
        <ele>2709</ele>
        <time>2021-04-07T09:36:53Z</time>
      </trkpt>
      <trkpt lat="44.48884" lon="6.59106">
        <ele>2708</ele>
        <time>2021-04-07T09:36:54Z</time>
      </trkpt>
      <trkpt lat="44.48883" lon="6.59109">
        <ele>2708</ele>
        <time>2021-04-07T09:36:55Z</time>
      </trkpt>
      <trkpt lat="44.48883" lon="6.59112">
        <ele>2706</ele>
        <time>2021-04-07T09:36:56Z</time>
      </trkpt>
      <trkpt lat="44.48883" lon="6.59114">
        <ele>2706</ele>
        <time>2021-04-07T09:36:57Z</time>
      </trkpt>
      <trkpt lat="44.48882" lon="6.59118">
        <ele>2704</ele>
        <time>2021-04-07T09:36:58Z</time>
      </trkpt>
      <trkpt lat="44.48881" lon="6.59122">
        <ele>2703</ele>
        <time>2021-04-07T09:36:59Z</time>
      </trkpt>
      <trkpt lat="44.48882" lon="6.59124">
        <ele>2702</ele>
        <time>2021-04-07T09:37:00Z</time>
      </trkpt>
      <trkpt lat="44.48884" lon="6.59123">
        <ele>2700</ele>
        <time>2021-04-07T09:37:01Z</time>
      </trkpt>
      <trkpt lat="44.48886" lon="6.59123">
        <ele>2699</ele>
        <time>2021-04-07T09:37:02Z</time>
      </trkpt>
      <trkpt lat="44.48889" lon="6.59123">
        <ele>2697</ele>
        <time>2021-04-07T09:37:03Z</time>
      </trkpt>
      <trkpt lat="44.48891" lon="6.59123">
        <ele>2696</ele>
        <time>2021-04-07T09:37:04Z</time>
      </trkpt>
      <trkpt lat="44.48892" lon="6.59123">
        <ele>2695</ele>
        <time>2021-04-07T09:37:05Z</time>
      </trkpt>
      <trkpt lat="44.48893" lon="6.59123">
        <ele>2694</ele>
        <time>2021-04-07T09:37:06Z</time>
      </trkpt>
      <trkpt lat="44.48893" lon="6.59124">
        <ele>2693</ele>
        <time>2021-04-07T09:37:07Z</time>
      </trkpt>
      <trkpt lat="44.48893" lon="6.59125">
        <ele>2693</ele>
        <time>2021-04-07T09:37:08Z</time>
      </trkpt>
      <trkpt lat="44.48894" lon="6.59126">
        <ele>2693</ele>
        <time>2021-04-07T09:37:09Z</time>
      </trkpt>
      <trkpt lat="44.48895" lon="6.59128">
        <ele>2692</ele>
        <time>2021-04-07T09:37:10Z</time>
      </trkpt>
      <trkpt lat="44.48895" lon="6.59132">
        <ele>2691</ele>
        <time>2021-04-07T09:37:11Z</time>
      </trkpt>
      <trkpt lat="44.48894" lon="6.59137">
        <ele>2691</ele>
        <time>2021-04-07T09:37:12Z</time>
      </trkpt>
      <trkpt lat="44.48893" lon="6.5914">
        <ele>2689</ele>
        <time>2021-04-07T09:37:13Z</time>
      </trkpt>
      <trkpt lat="44.48892" lon="6.59142">
        <ele>2689</ele>
        <time>2021-04-07T09:37:14Z</time>
      </trkpt>
      <trkpt lat="44.48893" lon="6.59145">
        <ele>2687</ele>
        <time>2021-04-07T09:37:15Z</time>
      </trkpt>
      <trkpt lat="44.48896" lon="6.59145">
        <ele>2686</ele>
        <time>2021-04-07T09:37:16Z</time>
      </trkpt>
      <trkpt lat="44.48898" lon="6.59143">
        <ele>2684</ele>
        <time>2021-04-07T09:37:17Z</time>
      </trkpt>
      <trkpt lat="44.489" lon="6.59142">
        <ele>2683</ele>
        <time>2021-04-07T09:37:18Z</time>
      </trkpt>
      <trkpt lat="44.48902" lon="6.5914">
        <ele>2682</ele>
        <time>2021-04-07T09:37:19Z</time>
      </trkpt>
      <trkpt lat="44.48904" lon="6.5914">
        <ele>2681</ele>
        <time>2021-04-07T09:37:20Z</time>
      </trkpt>
      <trkpt lat="44.48905" lon="6.59142">
        <ele>2679</ele>
        <time>2021-04-07T09:37:21Z</time>
      </trkpt>
      <trkpt lat="44.48906" lon="6.59146">
        <ele>2678</ele>
        <time>2021-04-07T09:37:22Z</time>
      </trkpt>
      <trkpt lat="44.48905" lon="6.59151">
        <ele>2676</ele>
        <time>2021-04-07T09:37:23Z</time>
      </trkpt>
      <trkpt lat="44.48904" lon="6.59156">
        <ele>2674</ele>
        <time>2021-04-07T09:37:24Z</time>
      </trkpt>
      <trkpt lat="44.48902" lon="6.5916">
        <ele>2673</ele>
        <time>2021-04-07T09:37:25Z</time>
      </trkpt>
      <trkpt lat="44.48901" lon="6.59164">
        <ele>2673</ele>
        <time>2021-04-07T09:37:26Z</time>
      </trkpt>
      <trkpt lat="44.489" lon="6.59167">
        <ele>2672</ele>
        <time>2021-04-07T09:37:27Z</time>
      </trkpt>
      <trkpt lat="44.48897" lon="6.59173">
        <ele>2670</ele>
        <time>2021-04-07T09:37:29Z</time>
      </trkpt>
      <trkpt lat="44.48896" lon="6.59177">
        <ele>2670</ele>
        <time>2021-04-07T09:37:30Z</time>
      </trkpt>
      <trkpt lat="44.48896" lon="6.5918">
        <ele>2668</ele>
        <time>2021-04-07T09:37:31Z</time>
      </trkpt>
      <trkpt lat="44.48899" lon="6.59181">
        <ele>2667</ele>
        <time>2021-04-07T09:37:32Z</time>
      </trkpt>
      <trkpt lat="44.48902" lon="6.5918">
        <ele>2664</ele>
        <time>2021-04-07T09:37:33Z</time>
      </trkpt>
      <trkpt lat="44.48905" lon="6.59179">
        <ele>2663</ele>
        <time>2021-04-07T09:37:34Z</time>
      </trkpt>
      <trkpt lat="44.48908" lon="6.59177">
        <ele>2661</ele>
        <time>2021-04-07T09:37:35Z</time>
      </trkpt>
      <trkpt lat="44.48911" lon="6.59175">
        <ele>2660</ele>
        <time>2021-04-07T09:37:36Z</time>
      </trkpt>
      <trkpt lat="44.48914" lon="6.59173">
        <ele>2659</ele>
        <time>2021-04-07T09:37:37Z</time>
      </trkpt>
      <trkpt lat="44.48917" lon="6.59171">
        <ele>2658</ele>
        <time>2021-04-07T09:37:38Z</time>
      </trkpt>
      <trkpt lat="44.4892" lon="6.59169">
        <ele>2658</ele>
        <time>2021-04-07T09:37:39Z</time>
      </trkpt>
      <trkpt lat="44.48923" lon="6.59168">
        <ele>2657</ele>
        <time>2021-04-07T09:37:40Z</time>
      </trkpt>
      <trkpt lat="44.48926" lon="6.59167">
        <ele>2657</ele>
        <time>2021-04-07T09:37:41Z</time>
      </trkpt>
      <trkpt lat="44.48929" lon="6.59166">
        <ele>2656</ele>
        <time>2021-04-07T09:37:42Z</time>
      </trkpt>
      <trkpt lat="44.48932" lon="6.59165">
        <ele>2655</ele>
        <time>2021-04-07T09:37:43Z</time>
      </trkpt>
      <trkpt lat="44.48936" lon="6.59163">
        <ele>2655</ele>
        <time>2021-04-07T09:37:44Z</time>
      </trkpt>
      <trkpt lat="44.48938" lon="6.59161">
        <ele>2654</ele>
        <time>2021-04-07T09:37:45Z</time>
      </trkpt>
      <trkpt lat="44.48941" lon="6.59158">
        <ele>2654</ele>
        <time>2021-04-07T09:37:46Z</time>
      </trkpt>
      <trkpt lat="44.48944" lon="6.59156">
        <ele>2653</ele>
        <time>2021-04-07T09:37:47Z</time>
      </trkpt>
      <trkpt lat="44.48946" lon="6.59153">
        <ele>2653</ele>
        <time>2021-04-07T09:37:48Z</time>
      </trkpt>
      <trkpt lat="44.48949" lon="6.59151">
        <ele>2653</ele>
        <time>2021-04-07T09:37:49Z</time>
      </trkpt>
      <trkpt lat="44.48952" lon="6.59148">
        <ele>2652</ele>
        <time>2021-04-07T09:37:50Z</time>
      </trkpt>
      <trkpt lat="44.48954" lon="6.59146">
        <ele>2652</ele>
        <time>2021-04-07T09:37:51Z</time>
      </trkpt>
      <trkpt lat="44.48956" lon="6.59143">
        <ele>2652</ele>
        <time>2021-04-07T09:37:52Z</time>
      </trkpt>
      <trkpt lat="44.48958" lon="6.5914">
        <ele>2651</ele>
        <time>2021-04-07T09:37:53Z</time>
      </trkpt>
      <trkpt lat="44.4896" lon="6.59138">
        <ele>2651</ele>
        <time>2021-04-07T09:37:54Z</time>
      </trkpt>
      <trkpt lat="44.48962" lon="6.59135">
        <ele>2650</ele>
        <time>2021-04-07T09:37:55Z</time>
      </trkpt>
      <trkpt lat="44.48964" lon="6.59131">
        <ele>2650</ele>
        <time>2021-04-07T09:37:56Z</time>
      </trkpt>
      <trkpt lat="44.48966" lon="6.59128">
        <ele>2649</ele>
        <time>2021-04-07T09:37:57Z</time>
      </trkpt>
      <trkpt lat="44.48969" lon="6.59127">
        <ele>2646</ele>
        <time>2021-04-07T09:37:58Z</time>
      </trkpt>
      <trkpt lat="44.48972" lon="6.59132">
        <ele>2644</ele>
        <time>2021-04-07T09:37:59Z</time>
      </trkpt>
      <trkpt lat="44.48974" lon="6.59138">
        <ele>2641</ele>
        <time>2021-04-07T09:38:00Z</time>
      </trkpt>
      <trkpt lat="44.48975" lon="6.59145">
        <ele>2639</ele>
        <time>2021-04-07T09:38:01Z</time>
      </trkpt>
      <trkpt lat="44.48974" lon="6.59152">
        <ele>2637</ele>
        <time>2021-04-07T09:38:02Z</time>
      </trkpt>
      <trkpt lat="44.48973" lon="6.59158">
        <ele>2636</ele>
        <time>2021-04-07T09:38:03Z</time>
      </trkpt>
      <trkpt lat="44.48971" lon="6.59162">
        <ele>2636</ele>
        <time>2021-04-07T09:38:04Z</time>
      </trkpt>
      <trkpt lat="44.4897" lon="6.59167">
        <ele>2636</ele>
        <time>2021-04-07T09:38:05Z</time>
      </trkpt>
      <trkpt lat="44.48969" lon="6.5917">
        <ele>2635</ele>
        <time>2021-04-07T09:38:06Z</time>
      </trkpt>
      <trkpt lat="44.48969" lon="6.59174">
        <ele>2634</ele>
        <time>2021-04-07T09:38:07Z</time>
      </trkpt>
      <trkpt lat="44.48969" lon="6.59179">
        <ele>2633</ele>
        <time>2021-04-07T09:38:08Z</time>
      </trkpt>
      <trkpt lat="44.48969" lon="6.59182">
        <ele>2633</ele>
        <time>2021-04-07T09:38:09Z</time>
      </trkpt>
      <trkpt lat="44.48971" lon="6.59183">
        <ele>2632</ele>
        <time>2021-04-07T09:38:10Z</time>
      </trkpt>
      <trkpt lat="44.48974" lon="6.59181">
        <ele>2631</ele>
        <time>2021-04-07T09:38:11Z</time>
      </trkpt>
      <trkpt lat="44.48978" lon="6.59179">
        <ele>2630</ele>
        <time>2021-04-07T09:38:12Z</time>
      </trkpt>
      <trkpt lat="44.48982" lon="6.59177">
        <ele>2629</ele>
        <time>2021-04-07T09:38:13Z</time>
      </trkpt>
      <trkpt lat="44.48986" lon="6.59174">
        <ele>2628</ele>
        <time>2021-04-07T09:38:14Z</time>
      </trkpt>
      <trkpt lat="44.4899" lon="6.59176">
        <ele>2626</ele>
        <time>2021-04-07T09:38:15Z</time>
      </trkpt>
      <trkpt lat="44.48993" lon="6.59182">
        <ele>2625</ele>
        <time>2021-04-07T09:38:16Z</time>
      </trkpt>
      <trkpt lat="44.48995" lon="6.59188">
        <ele>2625</ele>
        <time>2021-04-07T09:38:17Z</time>
      </trkpt>
      <trkpt lat="44.48999" lon="6.59191">
        <ele>2624</ele>
        <time>2021-04-07T09:38:18Z</time>
      </trkpt>
      <trkpt lat="44.49003" lon="6.59191">
        <ele>2622</ele>
        <time>2021-04-07T09:38:19Z</time>
      </trkpt>
      <trkpt lat="44.49004" lon="6.5919">
        <ele>2622</ele>
        <time>2021-04-07T09:38:20Z</time>
      </trkpt>
      <trkpt lat="44.49004" lon="6.5919">
        <ele>2621</ele>
        <time>2021-04-07T09:38:21Z</time>
      </trkpt>
      <trkpt lat="44.49004" lon="6.5919">
        <ele>2621</ele>
        <time>2021-04-07T09:38:22Z</time>
      </trkpt>
      <trkpt lat="44.49004" lon="6.5919">
        <ele>2621</ele>
        <time>2021-04-07T09:38:23Z</time>
      </trkpt>
      <trkpt lat="44.49004" lon="6.5919">
        <ele>2621</ele>
        <time>2021-04-07T09:38:24Z</time>
      </trkpt>
      <trkpt lat="44.49004" lon="6.5919">
        <ele>2621</ele>
        <time>2021-04-07T09:38:25Z</time>
      </trkpt>
      <trkpt lat="44.49004" lon="6.5919">
        <ele>2621</ele>
        <time>2021-04-07T09:38:26Z</time>
      </trkpt>
      <trkpt lat="44.49004" lon="6.5919">
        <ele>2621</ele>
        <time>2021-04-07T09:38:27Z</time>
      </trkpt>
      <trkpt lat="44.49004" lon="6.5919">
        <ele>2621</ele>
        <time>2021-04-07T09:38:28Z</time>
      </trkpt>
      <trkpt lat="44.49004" lon="6.5919">
        <ele>2621</ele>
        <time>2021-04-07T09:38:29Z</time>
      </trkpt>
      <trkpt lat="44.49006" lon="6.5919">
        <ele>2622</ele>
        <time>2021-04-07T09:38:30Z</time>
      </trkpt>
      <trkpt lat="44.49007" lon="6.59189">
        <ele>2622</ele>
        <time>2021-04-07T09:38:31Z</time>
      </trkpt>
      <trkpt lat="44.4901" lon="6.59187">
        <ele>2622</ele>
        <time>2021-04-07T09:38:32Z</time>
      </trkpt>
      <trkpt lat="44.49012" lon="6.59184">
        <ele>2623</ele>
        <time>2021-04-07T09:38:33Z</time>
      </trkpt>
      <trkpt lat="44.49014" lon="6.59182">
        <ele>2623</ele>
        <time>2021-04-07T09:38:34Z</time>
      </trkpt>
      <trkpt lat="44.49017" lon="6.59179">
        <ele>2623</ele>
        <time>2021-04-07T09:38:35Z</time>
      </trkpt>
      <trkpt lat="44.49021" lon="6.59176">
        <ele>2622</ele>
        <time>2021-04-07T09:38:36Z</time>
      </trkpt>
      <trkpt lat="44.49025" lon="6.59171">
        <ele>2622</ele>
        <time>2021-04-07T09:38:37Z</time>
      </trkpt>
      <trkpt lat="44.49029" lon="6.59164">
        <ele>2620</ele>
        <time>2021-04-07T09:38:38Z</time>
      </trkpt>
      <trkpt lat="44.49033" lon="6.59156">
        <ele>2618</ele>
        <time>2021-04-07T09:38:39Z</time>
      </trkpt>
      <trkpt lat="44.49036" lon="6.59148">
        <ele>2616</ele>
        <time>2021-04-07T09:38:40Z</time>
      </trkpt>
      <trkpt lat="44.49038" lon="6.59141">
        <ele>2615</ele>
        <time>2021-04-07T09:38:41Z</time>
      </trkpt>
      <trkpt lat="44.4904" lon="6.59136">
        <ele>2614</ele>
        <time>2021-04-07T09:38:42Z</time>
      </trkpt>
      <trkpt lat="44.49044" lon="6.59131">
        <ele>2613</ele>
        <time>2021-04-07T09:38:43Z</time>
      </trkpt>
      <trkpt lat="44.49049" lon="6.59134">
        <ele>2612</ele>
        <time>2021-04-07T09:38:44Z</time>
      </trkpt>
      <trkpt lat="44.49054" lon="6.59136">
        <ele>2610</ele>
        <time>2021-04-07T09:38:45Z</time>
      </trkpt>
      <trkpt lat="44.4906" lon="6.59134">
        <ele>2609</ele>
        <time>2021-04-07T09:38:46Z</time>
      </trkpt>
      <trkpt lat="44.49063" lon="6.59128">
        <ele>2607</ele>
        <time>2021-04-07T09:38:47Z</time>
      </trkpt>
      <trkpt lat="44.49065" lon="6.5912">
        <ele>2606</ele>
        <time>2021-04-07T09:38:48Z</time>
      </trkpt>
      <trkpt lat="44.49066" lon="6.59113">
        <ele>2604</ele>
        <time>2021-04-07T09:38:49Z</time>
      </trkpt>
      <trkpt lat="44.49071" lon="6.59111">
        <ele>2603</ele>
        <time>2021-04-07T09:38:50Z</time>
      </trkpt>
      <trkpt lat="44.49075" lon="6.59113">
        <ele>2601</ele>
        <time>2021-04-07T09:38:51Z</time>
      </trkpt>
      <trkpt lat="44.49079" lon="6.59116">
        <ele>2600</ele>
        <time>2021-04-07T09:38:52Z</time>
      </trkpt>
      <trkpt lat="44.49084" lon="6.59118">
        <ele>2598</ele>
        <time>2021-04-07T09:38:53Z</time>
      </trkpt>
      <trkpt lat="44.49089" lon="6.59114">
        <ele>2597</ele>
        <time>2021-04-07T09:38:54Z</time>
      </trkpt>
      <trkpt lat="44.49092" lon="6.59107">
        <ele>2596</ele>
        <time>2021-04-07T09:38:55Z</time>
      </trkpt>
      <trkpt lat="44.49093" lon="6.59097">
        <ele>2595</ele>
        <time>2021-04-07T09:38:56Z</time>
      </trkpt>
      <trkpt lat="44.49094" lon="6.59088">
        <ele>2593</ele>
        <time>2021-04-07T09:38:57Z</time>
      </trkpt>
      <trkpt lat="44.49095" lon="6.5908">
        <ele>2592</ele>
        <time>2021-04-07T09:38:58Z</time>
      </trkpt>
      <trkpt lat="44.49097" lon="6.59074">
        <ele>2590</ele>
        <time>2021-04-07T09:38:59Z</time>
      </trkpt>
      <trkpt lat="44.491" lon="6.59072">
        <ele>2589</ele>
        <time>2021-04-07T09:39:00Z</time>
      </trkpt>
      <trkpt lat="44.49104" lon="6.59077">
        <ele>2587</ele>
        <time>2021-04-07T09:39:01Z</time>
      </trkpt>
      <trkpt lat="44.49109" lon="6.59082">
        <ele>2585</ele>
        <time>2021-04-07T09:39:02Z</time>
      </trkpt>
      <trkpt lat="44.49115" lon="6.59085">
        <ele>2582</ele>
        <time>2021-04-07T09:39:03Z</time>
      </trkpt>
      <trkpt lat="44.4912" lon="6.59088">
        <ele>2579</ele>
        <time>2021-04-07T09:39:04Z</time>
      </trkpt>
      <trkpt lat="44.49124" lon="6.59094">
        <ele>2577</ele>
        <time>2021-04-07T09:39:05Z</time>
      </trkpt>
      <trkpt lat="44.49127" lon="6.59099">
        <ele>2576</ele>
        <time>2021-04-07T09:39:06Z</time>
      </trkpt>
      <trkpt lat="44.49132" lon="6.59099">
        <ele>2574</ele>
        <time>2021-04-07T09:39:07Z</time>
      </trkpt>
      <trkpt lat="44.49137" lon="6.59101">
        <ele>2573</ele>
        <time>2021-04-07T09:39:08Z</time>
      </trkpt>
      <trkpt lat="44.4914" lon="6.59107">
        <ele>2572</ele>
        <time>2021-04-07T09:39:09Z</time>
      </trkpt>
      <trkpt lat="44.49142" lon="6.59115">
        <ele>2570</ele>
        <time>2021-04-07T09:39:10Z</time>
      </trkpt>
      <trkpt lat="44.49143" lon="6.59121">
        <ele>2569</ele>
        <time>2021-04-07T09:39:11Z</time>
      </trkpt>
      <trkpt lat="44.49142" lon="6.59125">
        <ele>2568</ele>
        <time>2021-04-07T09:39:12Z</time>
      </trkpt>
      <trkpt lat="44.49142" lon="6.59128">
        <ele>2567</ele>
        <time>2021-04-07T09:39:13Z</time>
      </trkpt>
      <trkpt lat="44.49142" lon="6.59129">
        <ele>2567</ele>
        <time>2021-04-07T09:39:14Z</time>
      </trkpt>
      <trkpt lat="44.49142" lon="6.59129">
        <ele>2566</ele>
        <time>2021-04-07T09:39:15Z</time>
      </trkpt>
      <trkpt lat="44.49142" lon="6.59128">
        <ele>2566</ele>
        <time>2021-04-07T09:39:16Z</time>
      </trkpt>
      <trkpt lat="44.49142" lon="6.59128">
        <ele>2566</ele>
        <time>2021-04-07T09:39:17Z</time>
      </trkpt>
      <trkpt lat="44.49142" lon="6.59128">
        <ele>2566</ele>
        <time>2021-04-07T09:39:18Z</time>
      </trkpt>
      <trkpt lat="44.49142" lon="6.59128">
        <ele>2566</ele>
        <time>2021-04-07T09:39:19Z</time>
      </trkpt>
      <trkpt lat="44.49142" lon="6.59128">
        <ele>2566</ele>
        <time>2021-04-07T09:39:20Z</time>
      </trkpt>
      <trkpt lat="44.49142" lon="6.59128">
        <ele>2566</ele>
        <time>2021-04-07T09:39:21Z</time>
      </trkpt>
      <trkpt lat="44.49142" lon="6.59128">
        <ele>2566</ele>
        <time>2021-04-07T09:39:22Z</time>
      </trkpt>
      <trkpt lat="44.49142" lon="6.59128">
        <ele>2566</ele>
        <time>2021-04-07T09:39:23Z</time>
      </trkpt>
      <trkpt lat="44.49142" lon="6.59128">
        <ele>2566</ele>
        <time>2021-04-07T09:39:24Z</time>
      </trkpt>
      <trkpt lat="44.49142" lon="6.59128">
        <ele>2566</ele>
        <time>2021-04-07T09:39:25Z</time>
      </trkpt>
      <trkpt lat="44.49142" lon="6.59128">
        <ele>2566</ele>
        <time>2021-04-07T09:39:26Z</time>
      </trkpt>
      <trkpt lat="44.49142" lon="6.59128">
        <ele>2565</ele>
        <time>2021-04-07T09:39:27Z</time>
      </trkpt>
      <trkpt lat="44.49142" lon="6.59128">
        <ele>2565</ele>
        <time>2021-04-07T09:39:28Z</time>
      </trkpt>
      <trkpt lat="44.49142" lon="6.59128">
        <ele>2565</ele>
        <time>2021-04-07T09:39:29Z</time>
      </trkpt>
      <trkpt lat="44.49142" lon="6.59128">
        <ele>2565</ele>
        <time>2021-04-07T09:39:30Z</time>
      </trkpt>
      <trkpt lat="44.49142" lon="6.59128">
        <ele>2565</ele>
        <time>2021-04-07T09:39:31Z</time>
      </trkpt>
      <trkpt lat="44.49142" lon="6.59128">
        <ele>2565</ele>
        <time>2021-04-07T09:39:32Z</time>
      </trkpt>
      <trkpt lat="44.49142" lon="6.59128">
        <ele>2565</ele>
        <time>2021-04-07T09:39:33Z</time>
      </trkpt>
      <trkpt lat="44.49142" lon="6.59128">
        <ele>2565</ele>
        <time>2021-04-07T09:39:34Z</time>
      </trkpt>
      <trkpt lat="44.49142" lon="6.59128">
        <ele>2565</ele>
        <time>2021-04-07T09:39:35Z</time>
      </trkpt>
      <trkpt lat="44.49142" lon="6.59128">
        <ele>2565</ele>
        <time>2021-04-07T09:39:36Z</time>
      </trkpt>
      <trkpt lat="44.49142" lon="6.59128">
        <ele>2565</ele>
        <time>2021-04-07T09:39:37Z</time>
      </trkpt>
      <trkpt lat="44.49142" lon="6.59128">
        <ele>2565</ele>
        <time>2021-04-07T09:39:38Z</time>
      </trkpt>
      <trkpt lat="44.49142" lon="6.59128">
        <ele>2565</ele>
        <time>2021-04-07T09:39:39Z</time>
      </trkpt>
      <trkpt lat="44.49142" lon="6.59128">
        <ele>2565</ele>
        <time>2021-04-07T09:39:40Z</time>
      </trkpt>
      <trkpt lat="44.49142" lon="6.59128">
        <ele>2565</ele>
        <time>2021-04-07T09:39:41Z</time>
      </trkpt>
      <trkpt lat="44.49142" lon="6.59128">
        <ele>2565</ele>
        <time>2021-04-07T09:39:42Z</time>
      </trkpt>
      <trkpt lat="44.49142" lon="6.59128">
        <ele>2565</ele>
        <time>2021-04-07T09:39:43Z</time>
      </trkpt>
      <trkpt lat="44.49142" lon="6.59128">
        <ele>2565</ele>
        <time>2021-04-07T09:39:44Z</time>
      </trkpt>
      <trkpt lat="44.49142" lon="6.59128">
        <ele>2565</ele>
        <time>2021-04-07T09:39:45Z</time>
      </trkpt>
      <trkpt lat="44.49142" lon="6.59128">
        <ele>2565</ele>
        <time>2021-04-07T09:39:46Z</time>
      </trkpt>
      <trkpt lat="44.49142" lon="6.5913">
        <ele>2565</ele>
        <time>2021-04-07T09:39:47Z</time>
      </trkpt>
      <trkpt lat="44.49143" lon="6.59133">
        <ele>2565</ele>
        <time>2021-04-07T09:39:48Z</time>
      </trkpt>
      <trkpt lat="44.49144" lon="6.59136">
        <ele>2564</ele>
        <time>2021-04-07T09:39:49Z</time>
      </trkpt>
      <trkpt lat="44.49145" lon="6.59141">
        <ele>2564</ele>
        <time>2021-04-07T09:39:50Z</time>
      </trkpt>
      <trkpt lat="44.49145" lon="6.59146">
        <ele>2563</ele>
        <time>2021-04-07T09:39:51Z</time>
      </trkpt>
      <trkpt lat="44.49147" lon="6.59151">
        <ele>2562</ele>
        <time>2021-04-07T09:39:52Z</time>
      </trkpt>
      <trkpt lat="44.4915" lon="6.59156">
        <ele>2561</ele>
        <time>2021-04-07T09:39:53Z</time>
      </trkpt>
      <trkpt lat="44.49154" lon="6.59156">
        <ele>2560</ele>
        <time>2021-04-07T09:39:54Z</time>
      </trkpt>
      <trkpt lat="44.49159" lon="6.59153">
        <ele>2559</ele>
        <time>2021-04-07T09:39:55Z</time>
      </trkpt>
      <trkpt lat="44.49163" lon="6.59148">
        <ele>2558</ele>
        <time>2021-04-07T09:39:56Z</time>
      </trkpt>
      <trkpt lat="44.49168" lon="6.59148">
        <ele>2557</ele>
        <time>2021-04-07T09:39:57Z</time>
      </trkpt>
      <trkpt lat="44.49172" lon="6.59152">
        <ele>2556</ele>
        <time>2021-04-07T09:39:58Z</time>
      </trkpt>
      <trkpt lat="44.49174" lon="6.59158">
        <ele>2555</ele>
        <time>2021-04-07T09:39:59Z</time>
      </trkpt>
      <trkpt lat="44.49175" lon="6.59165">
        <ele>2554</ele>
        <time>2021-04-07T09:40:00Z</time>
      </trkpt>
      <trkpt lat="44.49178" lon="6.5917">
        <ele>2553</ele>
        <time>2021-04-07T09:40:01Z</time>
      </trkpt>
      <trkpt lat="44.49183" lon="6.59167">
        <ele>2552</ele>
        <time>2021-04-07T09:40:02Z</time>
      </trkpt>
      <trkpt lat="44.49186" lon="6.59163">
        <ele>2551</ele>
        <time>2021-04-07T09:40:03Z</time>
      </trkpt>
      <trkpt lat="44.49189" lon="6.59158">
        <ele>2549</ele>
        <time>2021-04-07T09:40:04Z</time>
      </trkpt>
      <trkpt lat="44.49193" lon="6.59159">
        <ele>2548</ele>
        <time>2021-04-07T09:40:05Z</time>
      </trkpt>
      <trkpt lat="44.49196" lon="6.59164">
        <ele>2546</ele>
        <time>2021-04-07T09:40:06Z</time>
      </trkpt>
      <trkpt lat="44.492" lon="6.59168">
        <ele>2544</ele>
        <time>2021-04-07T09:40:07Z</time>
      </trkpt>
      <trkpt lat="44.49205" lon="6.59167">
        <ele>2543</ele>
        <time>2021-04-07T09:40:08Z</time>
      </trkpt>
      <trkpt lat="44.49209" lon="6.59161">
        <ele>2541</ele>
        <time>2021-04-07T09:40:09Z</time>
      </trkpt>
      <trkpt lat="44.49212" lon="6.59155">
        <ele>2539</ele>
        <time>2021-04-07T09:40:10Z</time>
      </trkpt>
      <trkpt lat="44.49216" lon="6.59151">
        <ele>2538</ele>
        <time>2021-04-07T09:40:11Z</time>
      </trkpt>
      <trkpt lat="44.49219" lon="6.59153">
        <ele>2536</ele>
        <time>2021-04-07T09:40:12Z</time>
      </trkpt>
      <trkpt lat="44.49224" lon="6.59158">
        <ele>2534</ele>
        <time>2021-04-07T09:40:13Z</time>
      </trkpt>
      <trkpt lat="44.49228" lon="6.59159">
        <ele>2532</ele>
        <time>2021-04-07T09:40:14Z</time>
      </trkpt>
      <trkpt lat="44.49233" lon="6.59155">
        <ele>2531</ele>
        <time>2021-04-07T09:40:15Z</time>
      </trkpt>
      <trkpt lat="44.49238" lon="6.5915">
        <ele>2528</ele>
        <time>2021-04-07T09:40:16Z</time>
      </trkpt>
      <trkpt lat="44.49242" lon="6.59142">
        <ele>2526</ele>
        <time>2021-04-07T09:40:17Z</time>
      </trkpt>
      <trkpt lat="44.49245" lon="6.59134">
        <ele>2525</ele>
        <time>2021-04-07T09:40:18Z</time>
      </trkpt>
      <trkpt lat="44.49247" lon="6.59127">
        <ele>2524</ele>
        <time>2021-04-07T09:40:19Z</time>
      </trkpt>
      <trkpt lat="44.4925" lon="6.59123">
        <ele>2524</ele>
        <time>2021-04-07T09:40:20Z</time>
      </trkpt>
      <trkpt lat="44.49254" lon="6.59121">
        <ele>2522</ele>
        <time>2021-04-07T09:40:21Z</time>
      </trkpt>
      <trkpt lat="44.49255" lon="6.59125">
        <ele>2521</ele>
        <time>2021-04-07T09:40:22Z</time>
      </trkpt>
      <trkpt lat="44.49255" lon="6.59131">
        <ele>2520</ele>
        <time>2021-04-07T09:40:23Z</time>
      </trkpt>
      <trkpt lat="44.49255" lon="6.59137">
        <ele>2519</ele>
        <time>2021-04-07T09:40:24Z</time>
      </trkpt>
      <trkpt lat="44.49255" lon="6.59142">
        <ele>2518</ele>
        <time>2021-04-07T09:40:25Z</time>
      </trkpt>
      <trkpt lat="44.49255" lon="6.59146">
        <ele>2518</ele>
        <time>2021-04-07T09:40:26Z</time>
      </trkpt>
      <trkpt lat="44.49256" lon="6.59149">
        <ele>2517</ele>
        <time>2021-04-07T09:40:27Z</time>
      </trkpt>
      <trkpt lat="44.49257" lon="6.59152">
        <ele>2517</ele>
        <time>2021-04-07T09:40:28Z</time>
      </trkpt>
      <trkpt lat="44.49258" lon="6.59152">
        <ele>2516</ele>
        <time>2021-04-07T09:40:29Z</time>
      </trkpt>
      <trkpt lat="44.49258" lon="6.59152">
        <ele>2516</ele>
        <time>2021-04-07T09:40:30Z</time>
      </trkpt>
      <trkpt lat="44.49258" lon="6.59151">
        <ele>2516</ele>
        <time>2021-04-07T09:40:31Z</time>
      </trkpt>
      <trkpt lat="44.49258" lon="6.59152">
        <ele>2516</ele>
        <time>2021-04-07T09:40:32Z</time>
      </trkpt>
      <trkpt lat="44.49258" lon="6.59152">
        <ele>2516</ele>
        <time>2021-04-07T09:40:33Z</time>
      </trkpt>
      <trkpt lat="44.49258" lon="6.59152">
        <ele>2516</ele>
        <time>2021-04-07T09:40:34Z</time>
      </trkpt>
      <trkpt lat="44.49258" lon="6.59152">
        <ele>2516</ele>
        <time>2021-04-07T09:40:35Z</time>
      </trkpt>
      <trkpt lat="44.49258" lon="6.59152">
        <ele>2516</ele>
        <time>2021-04-07T09:40:36Z</time>
      </trkpt>
      <trkpt lat="44.49258" lon="6.59152">
        <ele>2516</ele>
        <time>2021-04-07T09:40:37Z</time>
      </trkpt>
      <trkpt lat="44.49258" lon="6.59152">
        <ele>2516</ele>
        <time>2021-04-07T09:40:38Z</time>
      </trkpt>
      <trkpt lat="44.49258" lon="6.59152">
        <ele>2516</ele>
        <time>2021-04-07T09:40:39Z</time>
      </trkpt>
      <trkpt lat="44.49258" lon="6.59152">
        <ele>2516</ele>
        <time>2021-04-07T09:40:40Z</time>
      </trkpt>
      <trkpt lat="44.49258" lon="6.59152">
        <ele>2516</ele>
        <time>2021-04-07T09:40:41Z</time>
      </trkpt>
      <trkpt lat="44.49258" lon="6.59152">
        <ele>2516</ele>
        <time>2021-04-07T09:40:42Z</time>
      </trkpt>
      <trkpt lat="44.49258" lon="6.59152">
        <ele>2516</ele>
        <time>2021-04-07T09:40:43Z</time>
      </trkpt>
      <trkpt lat="44.49258" lon="6.59152">
        <ele>2516</ele>
        <time>2021-04-07T09:40:44Z</time>
      </trkpt>
      <trkpt lat="44.49258" lon="6.59152">
        <ele>2516</ele>
        <time>2021-04-07T09:40:45Z</time>
      </trkpt>
      <trkpt lat="44.49258" lon="6.59152">
        <ele>2516</ele>
        <time>2021-04-07T09:40:46Z</time>
      </trkpt>
      <trkpt lat="44.49258" lon="6.59152">
        <ele>2516</ele>
        <time>2021-04-07T09:40:47Z</time>
      </trkpt>
      <trkpt lat="44.49258" lon="6.59152">
        <ele>2516</ele>
        <time>2021-04-07T09:40:48Z</time>
      </trkpt>
      <trkpt lat="44.49258" lon="6.59152">
        <ele>2516</ele>
        <time>2021-04-07T09:40:49Z</time>
      </trkpt>
      <trkpt lat="44.49258" lon="6.59152">
        <ele>2516</ele>
        <time>2021-04-07T09:40:50Z</time>
      </trkpt>
      <trkpt lat="44.49258" lon="6.59152">
        <ele>2516</ele>
        <time>2021-04-07T09:40:51Z</time>
      </trkpt>
      <trkpt lat="44.49258" lon="6.59152">
        <ele>2516</ele>
        <time>2021-04-07T09:40:52Z</time>
      </trkpt>
      <trkpt lat="44.49258" lon="6.59152">
        <ele>2516</ele>
        <time>2021-04-07T09:40:53Z</time>
      </trkpt>
      <trkpt lat="44.49258" lon="6.59152">
        <ele>2516</ele>
        <time>2021-04-07T09:40:54Z</time>
      </trkpt>
      <trkpt lat="44.49258" lon="6.59152">
        <ele>2516</ele>
        <time>2021-04-07T09:40:55Z</time>
      </trkpt>
      <trkpt lat="44.49258" lon="6.59152">
        <ele>2516</ele>
        <time>2021-04-07T09:40:56Z</time>
      </trkpt>
      <trkpt lat="44.49258" lon="6.59152">
        <ele>2516</ele>
        <time>2021-04-07T09:40:57Z</time>
      </trkpt>
      <trkpt lat="44.49258" lon="6.59152">
        <ele>2516</ele>
        <time>2021-04-07T09:40:58Z</time>
      </trkpt>
      <trkpt lat="44.49258" lon="6.59152">
        <ele>2516</ele>
        <time>2021-04-07T09:40:59Z</time>
      </trkpt>
      <trkpt lat="44.49258" lon="6.59152">
        <ele>2516</ele>
        <time>2021-04-07T09:41:00Z</time>
      </trkpt>
      <trkpt lat="44.49258" lon="6.59152">
        <ele>2516</ele>
        <time>2021-04-07T09:41:01Z</time>
      </trkpt>
      <trkpt lat="44.49258" lon="6.59152">
        <ele>2516</ele>
        <time>2021-04-07T09:41:02Z</time>
      </trkpt>
      <trkpt lat="44.49263" lon="6.59149">
        <ele>2516</ele>
        <time>2021-04-07T09:41:03Z</time>
      </trkpt>
      <trkpt lat="44.49267" lon="6.59144">
        <ele>2516</ele>
        <time>2021-04-07T09:41:04Z</time>
      </trkpt>
      <trkpt lat="44.49271" lon="6.59138">
        <ele>2516</ele>
        <time>2021-04-07T09:41:05Z</time>
      </trkpt>
      <trkpt lat="44.49274" lon="6.59131">
        <ele>2515</ele>
        <time>2021-04-07T09:41:06Z</time>
      </trkpt>
      <trkpt lat="44.49277" lon="6.59125">
        <ele>2514</ele>
        <time>2021-04-07T09:41:07Z</time>
      </trkpt>
      <trkpt lat="44.4928" lon="6.59119">
        <ele>2513</ele>
        <time>2021-04-07T09:41:08Z</time>
      </trkpt>
      <trkpt lat="44.49285" lon="6.5912">
        <ele>2511</ele>
        <time>2021-04-07T09:41:09Z</time>
      </trkpt>
      <trkpt lat="44.49288" lon="6.59125">
        <ele>2510</ele>
        <time>2021-04-07T09:41:10Z</time>
      </trkpt>
      <trkpt lat="44.49291" lon="6.59131">
        <ele>2509</ele>
        <time>2021-04-07T09:41:11Z</time>
      </trkpt>
      <trkpt lat="44.49294" lon="6.59138">
        <ele>2507</ele>
        <time>2021-04-07T09:41:12Z</time>
      </trkpt>
      <trkpt lat="44.49299" lon="6.59139">
        <ele>2506</ele>
        <time>2021-04-07T09:41:13Z</time>
      </trkpt>
      <trkpt lat="44.49304" lon="6.59134">
        <ele>2504</ele>
        <time>2021-04-07T09:41:14Z</time>
      </trkpt>
      <trkpt lat="44.49307" lon="6.59127">
        <ele>2503</ele>
        <time>2021-04-07T09:41:15Z</time>
      </trkpt>
      <trkpt lat="44.49314" lon="6.59122">
        <ele>2499</ele>
        <time>2021-04-07T09:41:17Z</time>
      </trkpt>
      <trkpt lat="44.49316" lon="6.59129">
        <ele>2497</ele>
        <time>2021-04-07T09:41:18Z</time>
      </trkpt>
      <trkpt lat="44.49319" lon="6.59136">
        <ele>2494</ele>
        <time>2021-04-07T09:41:19Z</time>
      </trkpt>
      <trkpt lat="44.49323" lon="6.59135">
        <ele>2491</ele>
        <time>2021-04-07T09:41:20Z</time>
      </trkpt>
      <trkpt lat="44.49328" lon="6.59133">
        <ele>2488</ele>
        <time>2021-04-07T09:41:21Z</time>
      </trkpt>
      <trkpt lat="44.49331" lon="6.5914">
        <ele>2485</ele>
        <time>2021-04-07T09:41:22Z</time>
      </trkpt>
      <trkpt lat="44.49332" lon="6.59148">
        <ele>2482</ele>
        <time>2021-04-07T09:41:23Z</time>
      </trkpt>
      <trkpt lat="44.49332" lon="6.59158">
        <ele>2480</ele>
        <time>2021-04-07T09:41:24Z</time>
      </trkpt>
      <trkpt lat="44.49333" lon="6.59167">
        <ele>2478</ele>
        <time>2021-04-07T09:41:25Z</time>
      </trkpt>
      <trkpt lat="44.49333" lon="6.59175">
        <ele>2478</ele>
        <time>2021-04-07T09:41:26Z</time>
      </trkpt>
      <trkpt lat="44.49335" lon="6.59179">
        <ele>2477</ele>
        <time>2021-04-07T09:41:27Z</time>
      </trkpt>
      <trkpt lat="44.49336" lon="6.59182">
        <ele>2477</ele>
        <time>2021-04-07T09:41:28Z</time>
      </trkpt>
      <trkpt lat="44.49337" lon="6.59185">
        <ele>2476</ele>
        <time>2021-04-07T09:41:29Z</time>
      </trkpt>
      <trkpt lat="44.49338" lon="6.59189">
        <ele>2476</ele>
        <time>2021-04-07T09:41:30Z</time>
      </trkpt>
      <trkpt lat="44.49339" lon="6.59193">
        <ele>2475</ele>
        <time>2021-04-07T09:41:31Z</time>
      </trkpt>
      <trkpt lat="44.49339" lon="6.59197">
        <ele>2475</ele>
        <time>2021-04-07T09:41:32Z</time>
      </trkpt>
      <trkpt lat="44.4934" lon="6.59203">
        <ele>2474</ele>
        <time>2021-04-07T09:41:33Z</time>
      </trkpt>
      <trkpt lat="44.49341" lon="6.59209">
        <ele>2474</ele>
        <time>2021-04-07T09:41:34Z</time>
      </trkpt>
      <trkpt lat="44.49341" lon="6.59215">
        <ele>2473</ele>
        <time>2021-04-07T09:41:35Z</time>
      </trkpt>
      <trkpt lat="44.49341" lon="6.59222">
        <ele>2472</ele>
        <time>2021-04-07T09:41:36Z</time>
      </trkpt>
      <trkpt lat="44.49341" lon="6.59229">
        <ele>2472</ele>
        <time>2021-04-07T09:41:37Z</time>
      </trkpt>
      <trkpt lat="44.49341" lon="6.59234">
        <ele>2471</ele>
        <time>2021-04-07T09:41:38Z</time>
      </trkpt>
      <trkpt lat="44.49341" lon="6.59238">
        <ele>2471</ele>
        <time>2021-04-07T09:41:39Z</time>
      </trkpt>
      <trkpt lat="44.49341" lon="6.59241">
        <ele>2470</ele>
        <time>2021-04-07T09:41:40Z</time>
      </trkpt>
      <trkpt lat="44.49341" lon="6.59243">
        <ele>2470</ele>
        <time>2021-04-07T09:41:41Z</time>
      </trkpt>
      <trkpt lat="44.49341" lon="6.59245">
        <ele>2470</ele>
        <time>2021-04-07T09:41:42Z</time>
      </trkpt>
      <trkpt lat="44.4934" lon="6.59248">
        <ele>2470</ele>
        <time>2021-04-07T09:41:43Z</time>
      </trkpt>
      <trkpt lat="44.49339" lon="6.5925">
        <ele>2470</ele>
        <time>2021-04-07T09:41:44Z</time>
      </trkpt>
      <trkpt lat="44.49339" lon="6.59252">
        <ele>2470</ele>
        <time>2021-04-07T09:41:45Z</time>
      </trkpt>
      <trkpt lat="44.49338" lon="6.59253">
        <ele>2470</ele>
        <time>2021-04-07T09:41:46Z</time>
      </trkpt>
      <trkpt lat="44.49338" lon="6.59254">
        <ele>2470</ele>
        <time>2021-04-07T09:41:47Z</time>
      </trkpt>
      <trkpt lat="44.49338" lon="6.59254">
        <ele>2470</ele>
        <time>2021-04-07T09:41:48Z</time>
      </trkpt>
      <trkpt lat="44.49338" lon="6.59254">
        <ele>2470</ele>
        <time>2021-04-07T09:41:49Z</time>
      </trkpt>
      <trkpt lat="44.49338" lon="6.59254">
        <ele>2470</ele>
        <time>2021-04-07T09:41:50Z</time>
      </trkpt>
      <trkpt lat="44.49338" lon="6.59254">
        <ele>2470</ele>
        <time>2021-04-07T09:41:51Z</time>
      </trkpt>
      <trkpt lat="44.49338" lon="6.59254">
        <ele>2470</ele>
        <time>2021-04-07T09:41:52Z</time>
      </trkpt>
      <trkpt lat="44.49338" lon="6.59254">
        <ele>2470</ele>
        <time>2021-04-07T09:41:53Z</time>
      </trkpt>
      <trkpt lat="44.49338" lon="6.59254">
        <ele>2470</ele>
        <time>2021-04-07T09:41:54Z</time>
      </trkpt>
      <trkpt lat="44.49338" lon="6.59254">
        <ele>2470</ele>
        <time>2021-04-07T09:41:55Z</time>
      </trkpt>
      <trkpt lat="44.49338" lon="6.59254">
        <ele>2470</ele>
        <time>2021-04-07T09:41:56Z</time>
      </trkpt>
      <trkpt lat="44.49338" lon="6.59254">
        <ele>2470</ele>
        <time>2021-04-07T09:41:57Z</time>
      </trkpt>
      <trkpt lat="44.49338" lon="6.59254">
        <ele>2470</ele>
        <time>2021-04-07T09:41:58Z</time>
      </trkpt>
      <trkpt lat="44.49338" lon="6.59254">
        <ele>2470</ele>
        <time>2021-04-07T09:41:59Z</time>
      </trkpt>
      <trkpt lat="44.49338" lon="6.59254">
        <ele>2470</ele>
        <time>2021-04-07T09:42:00Z</time>
      </trkpt>
      <trkpt lat="44.49338" lon="6.59254">
        <ele>2470</ele>
        <time>2021-04-07T09:42:01Z</time>
      </trkpt>
      <trkpt lat="44.49341" lon="6.59253">
        <ele>2470</ele>
        <time>2021-04-07T09:42:02Z</time>
      </trkpt>
      <trkpt lat="44.49342" lon="6.59251">
        <ele>2470</ele>
        <time>2021-04-07T09:42:03Z</time>
      </trkpt>
      <trkpt lat="44.49343" lon="6.5925">
        <ele>2469</ele>
        <time>2021-04-07T09:42:04Z</time>
      </trkpt>
      <trkpt lat="44.49345" lon="6.59248">
        <ele>2469</ele>
        <time>2021-04-07T09:42:05Z</time>
      </trkpt>
      <trkpt lat="44.49347" lon="6.59246">
        <ele>2469</ele>
        <time>2021-04-07T09:42:06Z</time>
      </trkpt>
      <trkpt lat="44.49348" lon="6.59243">
        <ele>2469</ele>
        <time>2021-04-07T09:42:07Z</time>
      </trkpt>
      <trkpt lat="44.49349" lon="6.59241">
        <ele>2468</ele>
        <time>2021-04-07T09:42:08Z</time>
      </trkpt>
      <trkpt lat="44.4935" lon="6.59236">
        <ele>2468</ele>
        <time>2021-04-07T09:42:09Z</time>
      </trkpt>
      <trkpt lat="44.49352" lon="6.59231">
        <ele>2467</ele>
        <time>2021-04-07T09:42:10Z</time>
      </trkpt>
      <trkpt lat="44.49354" lon="6.59225">
        <ele>2466</ele>
        <time>2021-04-07T09:42:11Z</time>
      </trkpt>
      <trkpt lat="44.49357" lon="6.59219">
        <ele>2466</ele>
        <time>2021-04-07T09:42:12Z</time>
      </trkpt>
      <trkpt lat="44.4936" lon="6.59214">
        <ele>2465</ele>
        <time>2021-04-07T09:42:13Z</time>
      </trkpt>
      <trkpt lat="44.49362" lon="6.59208">
        <ele>2464</ele>
        <time>2021-04-07T09:42:14Z</time>
      </trkpt>
      <trkpt lat="44.49364" lon="6.59203">
        <ele>2464</ele>
        <time>2021-04-07T09:42:15Z</time>
      </trkpt>
      <trkpt lat="44.49366" lon="6.59199">
        <ele>2464</ele>
        <time>2021-04-07T09:42:16Z</time>
      </trkpt>
      <trkpt lat="44.49367" lon="6.59195">
        <ele>2464</ele>
        <time>2021-04-07T09:42:17Z</time>
      </trkpt>
      <trkpt lat="44.49368" lon="6.5919">
        <ele>2463</ele>
        <time>2021-04-07T09:42:18Z</time>
      </trkpt>
      <trkpt lat="44.49369" lon="6.59186">
        <ele>2463</ele>
        <time>2021-04-07T09:42:19Z</time>
      </trkpt>
      <trkpt lat="44.49371" lon="6.59182">
        <ele>2462</ele>
        <time>2021-04-07T09:42:20Z</time>
      </trkpt>
      <trkpt lat="44.49373" lon="6.59177">
        <ele>2462</ele>
        <time>2021-04-07T09:42:21Z</time>
      </trkpt>
      <trkpt lat="44.49374" lon="6.59173">
        <ele>2461</ele>
        <time>2021-04-07T09:42:22Z</time>
      </trkpt>
      <trkpt lat="44.49374" lon="6.59167">
        <ele>2461</ele>
        <time>2021-04-07T09:42:23Z</time>
      </trkpt>
      <trkpt lat="44.49375" lon="6.59161">
        <ele>2460</ele>
        <time>2021-04-07T09:42:24Z</time>
      </trkpt>
      <trkpt lat="44.49375" lon="6.59155">
        <ele>2459</ele>
        <time>2021-04-07T09:42:25Z</time>
      </trkpt>
      <trkpt lat="44.49376" lon="6.59148">
        <ele>2458</ele>
        <time>2021-04-07T09:42:26Z</time>
      </trkpt>
      <trkpt lat="44.49377" lon="6.59141">
        <ele>2457</ele>
        <time>2021-04-07T09:42:27Z</time>
      </trkpt>
      <trkpt lat="44.49378" lon="6.59135">
        <ele>2457</ele>
        <time>2021-04-07T09:42:28Z</time>
      </trkpt>
      <trkpt lat="44.49378" lon="6.59128">
        <ele>2456</ele>
        <time>2021-04-07T09:42:29Z</time>
      </trkpt>
      <trkpt lat="44.49378" lon="6.59123">
        <ele>2455</ele>
        <time>2021-04-07T09:42:30Z</time>
      </trkpt>
      <trkpt lat="44.49379" lon="6.59117">
        <ele>2454</ele>
        <time>2021-04-07T09:42:31Z</time>
      </trkpt>
      <trkpt lat="44.49379" lon="6.59111">
        <ele>2454</ele>
        <time>2021-04-07T09:42:32Z</time>
      </trkpt>
      <trkpt lat="44.4938" lon="6.59105">
        <ele>2453</ele>
        <time>2021-04-07T09:42:33Z</time>
      </trkpt>
      <trkpt lat="44.4938" lon="6.59099">
        <ele>2452</ele>
        <time>2021-04-07T09:42:34Z</time>
      </trkpt>
      <trkpt lat="44.49381" lon="6.59094">
        <ele>2452</ele>
        <time>2021-04-07T09:42:35Z</time>
      </trkpt>
      <trkpt lat="44.49381" lon="6.59087">
        <ele>2451</ele>
        <time>2021-04-07T09:42:36Z</time>
      </trkpt>
      <trkpt lat="44.49382" lon="6.5908">
        <ele>2450</ele>
        <time>2021-04-07T09:42:37Z</time>
      </trkpt>
      <trkpt lat="44.49383" lon="6.59072">
        <ele>2449</ele>
        <time>2021-04-07T09:42:38Z</time>
      </trkpt>
      <trkpt lat="44.49384" lon="6.59065">
        <ele>2448</ele>
        <time>2021-04-07T09:42:39Z</time>
      </trkpt>
      <trkpt lat="44.49385" lon="6.59057">
        <ele>2447</ele>
        <time>2021-04-07T09:42:40Z</time>
      </trkpt>
      <trkpt lat="44.49386" lon="6.5905">
        <ele>2446</ele>
        <time>2021-04-07T09:42:41Z</time>
      </trkpt>
      <trkpt lat="44.49386" lon="6.59042">
        <ele>2446</ele>
        <time>2021-04-07T09:42:42Z</time>
      </trkpt>
      <trkpt lat="44.49387" lon="6.59035">
        <ele>2445</ele>
        <time>2021-04-07T09:42:43Z</time>
      </trkpt>
      <trkpt lat="44.49389" lon="6.59027">
        <ele>2444</ele>
        <time>2021-04-07T09:42:44Z</time>
      </trkpt>
      <trkpt lat="44.49395" lon="6.59025">
        <ele>2443</ele>
        <time>2021-04-07T09:42:45Z</time>
      </trkpt>
      <trkpt lat="44.49402" lon="6.59033">
        <ele>2441</ele>
        <time>2021-04-07T09:42:46Z</time>
      </trkpt>
      <trkpt lat="44.49407" lon="6.59044">
        <ele>2439</ele>
        <time>2021-04-07T09:42:47Z</time>
      </trkpt>
      <trkpt lat="44.4941" lon="6.59055">
        <ele>2437</ele>
        <time>2021-04-07T09:42:48Z</time>
      </trkpt>
      <trkpt lat="44.49412" lon="6.59066">
        <ele>2435</ele>
        <time>2021-04-07T09:42:49Z</time>
      </trkpt>
      <trkpt lat="44.49413" lon="6.59077">
        <ele>2433</ele>
        <time>2021-04-07T09:42:50Z</time>
      </trkpt>
      <trkpt lat="44.49418" lon="6.59079">
        <ele>2431</ele>
        <time>2021-04-07T09:42:51Z</time>
      </trkpt>
      <trkpt lat="44.49425" lon="6.59078">
        <ele>2430</ele>
        <time>2021-04-07T09:42:52Z</time>
      </trkpt>
      <trkpt lat="44.49432" lon="6.59078">
        <ele>2429</ele>
        <time>2021-04-07T09:42:53Z</time>
      </trkpt>
      <trkpt lat="44.49435" lon="6.59088">
        <ele>2427</ele>
        <time>2021-04-07T09:42:54Z</time>
      </trkpt>
      <trkpt lat="44.49437" lon="6.59096">
        <ele>2425</ele>
        <time>2021-04-07T09:42:55Z</time>
      </trkpt>
      <trkpt lat="44.49443" lon="6.59099">
        <ele>2422</ele>
        <time>2021-04-07T09:42:56Z</time>
      </trkpt>
      <trkpt lat="44.49448" lon="6.59095">
        <ele>2419</ele>
        <time>2021-04-07T09:42:57Z</time>
      </trkpt>
      <trkpt lat="44.49453" lon="6.59088">
        <ele>2417</ele>
        <time>2021-04-07T09:42:58Z</time>
      </trkpt>
      <trkpt lat="44.49459" lon="6.59082">
        <ele>2416</ele>
        <time>2021-04-07T09:42:59Z</time>
      </trkpt>
      <trkpt lat="44.49465" lon="6.59079">
        <ele>2414</ele>
        <time>2021-04-07T09:43:00Z</time>
      </trkpt>
      <trkpt lat="44.49472" lon="6.59081">
        <ele>2413</ele>
        <time>2021-04-07T09:43:01Z</time>
      </trkpt>
      <trkpt lat="44.49479" lon="6.5909">
        <ele>2411</ele>
        <time>2021-04-07T09:43:02Z</time>
      </trkpt>
      <trkpt lat="44.49481" lon="6.59103">
        <ele>2409</ele>
        <time>2021-04-07T09:43:03Z</time>
      </trkpt>
      <trkpt lat="44.4948" lon="6.59119">
        <ele>2407</ele>
        <time>2021-04-07T09:43:04Z</time>
      </trkpt>
      <trkpt lat="44.4948" lon="6.59131">
        <ele>2403</ele>
        <time>2021-04-07T09:43:05Z</time>
      </trkpt>
      <trkpt lat="44.49483" lon="6.59138">
        <ele>2400</ele>
        <time>2021-04-07T09:43:06Z</time>
      </trkpt>
      <trkpt lat="44.49488" lon="6.5914">
        <ele>2399</ele>
        <time>2021-04-07T09:43:07Z</time>
      </trkpt>
      <trkpt lat="44.49492" lon="6.59136">
        <ele>2397</ele>
        <time>2021-04-07T09:43:08Z</time>
      </trkpt>
      <trkpt lat="44.49499" lon="6.59115">
        <ele>2394</ele>
        <time>2021-04-07T09:43:09Z</time>
      </trkpt>
      <trkpt lat="44.49503" lon="6.59104">
        <ele>2391</ele>
        <time>2021-04-07T09:43:10Z</time>
      </trkpt>
      <trkpt lat="44.49508" lon="6.59094">
        <ele>2389</ele>
        <time>2021-04-07T09:43:11Z</time>
      </trkpt>
      <trkpt lat="44.49512" lon="6.59087">
        <ele>2387</ele>
        <time>2021-04-07T09:43:12Z</time>
      </trkpt>
      <trkpt lat="44.49519" lon="6.59084">
        <ele>2386</ele>
        <time>2021-04-07T09:43:13Z</time>
      </trkpt>
      <trkpt lat="44.49528" lon="6.59085">
        <ele>2384</ele>
        <time>2021-04-07T09:43:14Z</time>
      </trkpt>
      <trkpt lat="44.49538" lon="6.59084">
        <ele>2382</ele>
        <time>2021-04-07T09:43:15Z</time>
      </trkpt>
      <trkpt lat="44.49546" lon="6.5908">
        <ele>2380</ele>
        <time>2021-04-07T09:43:16Z</time>
      </trkpt>
      <trkpt lat="44.49553" lon="6.59074">
        <ele>2379</ele>
        <time>2021-04-07T09:43:17Z</time>
      </trkpt>
      <trkpt lat="44.4956" lon="6.59071">
        <ele>2376</ele>
        <time>2021-04-07T09:43:18Z</time>
      </trkpt>
      <trkpt lat="44.49567" lon="6.59072">
        <ele>2375</ele>
        <time>2021-04-07T09:43:19Z</time>
      </trkpt>
      <trkpt lat="44.49572" lon="6.59072">
        <ele>2373</ele>
        <time>2021-04-07T09:43:20Z</time>
      </trkpt>
      <trkpt lat="44.49576" lon="6.59071">
        <ele>2371</ele>
        <time>2021-04-07T09:43:21Z</time>
      </trkpt>
      <trkpt lat="44.49578" lon="6.59069">
        <ele>2371</ele>
        <time>2021-04-07T09:43:22Z</time>
      </trkpt>
      <trkpt lat="44.4958" lon="6.59071">
        <ele>2369</ele>
        <time>2021-04-07T09:43:23Z</time>
      </trkpt>
      <trkpt lat="44.49579" lon="6.59072">
        <ele>2368</ele>
        <time>2021-04-07T09:43:24Z</time>
      </trkpt>
      <trkpt lat="44.49579" lon="6.59072">
        <ele>2368</ele>
        <time>2021-04-07T09:43:25Z</time>
      </trkpt>
      <trkpt lat="44.49579" lon="6.59073">
        <ele>2368</ele>
        <time>2021-04-07T09:43:26Z</time>
      </trkpt>
      <trkpt lat="44.49579" lon="6.59073">
        <ele>2368</ele>
        <time>2021-04-07T09:43:27Z</time>
      </trkpt>
      <trkpt lat="44.49579" lon="6.59073">
        <ele>2368</ele>
        <time>2021-04-07T09:43:28Z</time>
      </trkpt>
      <trkpt lat="44.49579" lon="6.59073">
        <ele>2368</ele>
        <time>2021-04-07T09:43:29Z</time>
      </trkpt>
      <trkpt lat="44.49579" lon="6.59073">
        <ele>2368</ele>
        <time>2021-04-07T09:43:30Z</time>
      </trkpt>
      <trkpt lat="44.49579" lon="6.59073">
        <ele>2368</ele>
        <time>2021-04-07T09:43:31Z</time>
      </trkpt>
      <trkpt lat="44.49579" lon="6.59073">
        <ele>2368</ele>
        <time>2021-04-07T09:43:32Z</time>
      </trkpt>
      <trkpt lat="44.49579" lon="6.59073">
        <ele>2367</ele>
        <time>2021-04-07T09:43:33Z</time>
      </trkpt>
      <trkpt lat="44.49579" lon="6.59073">
        <ele>2367</ele>
        <time>2021-04-07T09:43:34Z</time>
      </trkpt>
      <trkpt lat="44.49579" lon="6.59073">
        <ele>2367</ele>
        <time>2021-04-07T09:43:35Z</time>
      </trkpt>
      <trkpt lat="44.49579" lon="6.59073">
        <ele>2367</ele>
        <time>2021-04-07T09:43:36Z</time>
      </trkpt>
      <trkpt lat="44.49579" lon="6.59073">
        <ele>2367</ele>
        <time>2021-04-07T09:43:37Z</time>
      </trkpt>
      <trkpt lat="44.49579" lon="6.59073">
        <ele>2367</ele>
        <time>2021-04-07T09:43:38Z</time>
      </trkpt>
      <trkpt lat="44.49579" lon="6.59073">
        <ele>2367</ele>
        <time>2021-04-07T09:43:39Z</time>
      </trkpt>
      <trkpt lat="44.49579" lon="6.59073">
        <ele>2367</ele>
        <time>2021-04-07T09:43:40Z</time>
      </trkpt>
      <trkpt lat="44.49579" lon="6.59073">
        <ele>2367</ele>
        <time>2021-04-07T09:43:41Z</time>
      </trkpt>
      <trkpt lat="44.49579" lon="6.59073">
        <ele>2367</ele>
        <time>2021-04-07T09:43:42Z</time>
      </trkpt>
      <trkpt lat="44.49579" lon="6.59073">
        <ele>2367</ele>
        <time>2021-04-07T09:43:43Z</time>
      </trkpt>
      <trkpt lat="44.49579" lon="6.59073">
        <ele>2367</ele>
        <time>2021-04-07T09:43:44Z</time>
      </trkpt>
      <trkpt lat="44.49579" lon="6.59073">
        <ele>2367</ele>
        <time>2021-04-07T09:43:45Z</time>
      </trkpt>
      <trkpt lat="44.49579" lon="6.59073">
        <ele>2367</ele>
        <time>2021-04-07T09:43:46Z</time>
      </trkpt>
      <trkpt lat="44.49579" lon="6.59073">
        <ele>2367</ele>
        <time>2021-04-07T09:43:47Z</time>
      </trkpt>
      <trkpt lat="44.49579" lon="6.59073">
        <ele>2367</ele>
        <time>2021-04-07T09:43:48Z</time>
      </trkpt>
      <trkpt lat="44.49579" lon="6.59073">
        <ele>2367</ele>
        <time>2021-04-07T09:43:49Z</time>
      </trkpt>
      <trkpt lat="44.49579" lon="6.59073">
        <ele>2367</ele>
        <time>2021-04-07T09:43:50Z</time>
      </trkpt>
      <trkpt lat="44.49579" lon="6.59073">
        <ele>2367</ele>
        <time>2021-04-07T09:43:51Z</time>
      </trkpt>
      <trkpt lat="44.49579" lon="6.59073">
        <ele>2367</ele>
        <time>2021-04-07T09:43:52Z</time>
      </trkpt>
      <trkpt lat="44.49574" lon="6.59079">
        <ele>2367</ele>
        <time>2021-04-07T09:43:53Z</time>
      </trkpt>
      <trkpt lat="44.49573" lon="6.59083">
        <ele>2367</ele>
        <time>2021-04-07T09:43:54Z</time>
      </trkpt>
      <trkpt lat="44.49572" lon="6.59088">
        <ele>2367</ele>
        <time>2021-04-07T09:43:55Z</time>
      </trkpt>
      <trkpt lat="44.49574" lon="6.59093">
        <ele>2366</ele>
        <time>2021-04-07T09:43:56Z</time>
      </trkpt>
      <trkpt lat="44.49578" lon="6.59094">
        <ele>2365</ele>
        <time>2021-04-07T09:43:57Z</time>
      </trkpt>
      <trkpt lat="44.49583" lon="6.59095">
        <ele>2364</ele>
        <time>2021-04-07T09:43:58Z</time>
      </trkpt>
      <trkpt lat="44.49588" lon="6.59096">
        <ele>2364</ele>
        <time>2021-04-07T09:43:59Z</time>
      </trkpt>
      <trkpt lat="44.49593" lon="6.59101">
        <ele>2362</ele>
        <time>2021-04-07T09:44:00Z</time>
      </trkpt>
      <trkpt lat="44.49599" lon="6.59105">
        <ele>2360</ele>
        <time>2021-04-07T09:44:01Z</time>
      </trkpt>
      <trkpt lat="44.49605" lon="6.59102">
        <ele>2358</ele>
        <time>2021-04-07T09:44:02Z</time>
      </trkpt>
      <trkpt lat="44.49611" lon="6.59097">
        <ele>2357</ele>
        <time>2021-04-07T09:44:03Z</time>
      </trkpt>
      <trkpt lat="44.49615" lon="6.59091">
        <ele>2355</ele>
        <time>2021-04-07T09:44:04Z</time>
      </trkpt>
      <trkpt lat="44.4962" lon="6.59086">
        <ele>2353</ele>
        <time>2021-04-07T09:44:05Z</time>
      </trkpt>
      <trkpt lat="44.49627" lon="6.5909">
        <ele>2351</ele>
        <time>2021-04-07T09:44:06Z</time>
      </trkpt>
      <trkpt lat="44.49637" lon="6.59096">
        <ele>2349</ele>
        <time>2021-04-07T09:44:07Z</time>
      </trkpt>
      <trkpt lat="44.49648" lon="6.59099">
        <ele>2345</ele>
        <time>2021-04-07T09:44:08Z</time>
      </trkpt>
      <trkpt lat="44.49659" lon="6.59098">
        <ele>2342</ele>
        <time>2021-04-07T09:44:09Z</time>
      </trkpt>
      <trkpt lat="44.4967" lon="6.59099">
        <ele>2338</ele>
        <time>2021-04-07T09:44:10Z</time>
      </trkpt>
      <trkpt lat="44.49681" lon="6.59104">
        <ele>2335</ele>
        <time>2021-04-07T09:44:11Z</time>
      </trkpt>
      <trkpt lat="44.49692" lon="6.59105">
        <ele>2332</ele>
        <time>2021-04-07T09:44:12Z</time>
      </trkpt>
      <trkpt lat="44.49703" lon="6.59103">
        <ele>2329</ele>
        <time>2021-04-07T09:44:13Z</time>
      </trkpt>
      <trkpt lat="44.49714" lon="6.59104">
        <ele>2326</ele>
        <time>2021-04-07T09:44:14Z</time>
      </trkpt>
      <trkpt lat="44.49723" lon="6.59111">
        <ele>2323</ele>
        <time>2021-04-07T09:44:15Z</time>
      </trkpt>
      <trkpt lat="44.49732" lon="6.59116">
        <ele>2322</ele>
        <time>2021-04-07T09:44:16Z</time>
      </trkpt>
      <trkpt lat="44.49741" lon="6.59115">
        <ele>2321</ele>
        <time>2021-04-07T09:44:17Z</time>
      </trkpt>
      <trkpt lat="44.49749" lon="6.59113">
        <ele>2319</ele>
        <time>2021-04-07T09:44:18Z</time>
      </trkpt>
      <trkpt lat="44.49756" lon="6.59115">
        <ele>2318</ele>
        <time>2021-04-07T09:44:19Z</time>
      </trkpt>
      <trkpt lat="44.49762" lon="6.5912">
        <ele>2316</ele>
        <time>2021-04-07T09:44:20Z</time>
      </trkpt>
      <trkpt lat="44.49768" lon="6.59126">
        <ele>2315</ele>
        <time>2021-04-07T09:44:21Z</time>
      </trkpt>
      <trkpt lat="44.49775" lon="6.59129">
        <ele>2314</ele>
        <time>2021-04-07T09:44:22Z</time>
      </trkpt>
      <trkpt lat="44.49782" lon="6.59131">
        <ele>2313</ele>
        <time>2021-04-07T09:44:23Z</time>
      </trkpt>
      <trkpt lat="44.49789" lon="6.59132">
        <ele>2312</ele>
        <time>2021-04-07T09:44:24Z</time>
      </trkpt>
      <trkpt lat="44.49795" lon="6.59132">
        <ele>2312</ele>
        <time>2021-04-07T09:44:25Z</time>
      </trkpt>
      <trkpt lat="44.49802" lon="6.59132">
        <ele>2312</ele>
        <time>2021-04-07T09:44:26Z</time>
      </trkpt>
      <trkpt lat="44.49806" lon="6.59131">
        <ele>2312</ele>
        <time>2021-04-07T09:44:27Z</time>
      </trkpt>
      <trkpt lat="44.4981" lon="6.5913">
        <ele>2312</ele>
        <time>2021-04-07T09:44:28Z</time>
      </trkpt>
      <trkpt lat="44.49812" lon="6.59129">
        <ele>2312</ele>
        <time>2021-04-07T09:44:29Z</time>
      </trkpt>
      <trkpt lat="44.49814" lon="6.59128">
        <ele>2312</ele>
        <time>2021-04-07T09:44:30Z</time>
      </trkpt>
      <trkpt lat="44.49817" lon="6.59127">
        <ele>2312</ele>
        <time>2021-04-07T09:44:31Z</time>
      </trkpt>
      <trkpt lat="44.49819" lon="6.59127">
        <ele>2311</ele>
        <time>2021-04-07T09:44:32Z</time>
      </trkpt>
      <trkpt lat="44.4982" lon="6.59127">
        <ele>2311</ele>
        <time>2021-04-07T09:44:33Z</time>
      </trkpt>
      <trkpt lat="44.4982" lon="6.59128">
        <ele>2311</ele>
        <time>2021-04-07T09:44:34Z</time>
      </trkpt>
      <trkpt lat="44.4982" lon="6.59128">
        <ele>2311</ele>
        <time>2021-04-07T09:44:35Z</time>
      </trkpt>
      <trkpt lat="44.4982" lon="6.59128">
        <ele>2311</ele>
        <time>2021-04-07T09:44:36Z</time>
      </trkpt>
      <trkpt lat="44.4982" lon="6.59128">
        <ele>2311</ele>
        <time>2021-04-07T09:44:37Z</time>
      </trkpt>
      <trkpt lat="44.4982" lon="6.59128">
        <ele>2311</ele>
        <time>2021-04-07T09:44:38Z</time>
      </trkpt>
      <trkpt lat="44.4982" lon="6.59128">
        <ele>2311</ele>
        <time>2021-04-07T09:44:39Z</time>
      </trkpt>
      <trkpt lat="44.4982" lon="6.59128">
        <ele>2311</ele>
        <time>2021-04-07T09:44:40Z</time>
      </trkpt>
      <trkpt lat="44.4982" lon="6.59128">
        <ele>2311</ele>
        <time>2021-04-07T09:44:41Z</time>
      </trkpt>
      <trkpt lat="44.4982" lon="6.59128">
        <ele>2311</ele>
        <time>2021-04-07T09:44:42Z</time>
      </trkpt>
      <trkpt lat="44.4982" lon="6.59128">
        <ele>2311</ele>
        <time>2021-04-07T09:44:43Z</time>
      </trkpt>
      <trkpt lat="44.4982" lon="6.59128">
        <ele>2311</ele>
        <time>2021-04-07T09:44:44Z</time>
      </trkpt>
      <trkpt lat="44.4982" lon="6.59128">
        <ele>2311</ele>
        <time>2021-04-07T09:44:45Z</time>
      </trkpt>
      <trkpt lat="44.4982" lon="6.59128">
        <ele>2311</ele>
        <time>2021-04-07T09:44:46Z</time>
      </trkpt>
      <trkpt lat="44.4982" lon="6.59128">
        <ele>2311</ele>
        <time>2021-04-07T09:44:47Z</time>
      </trkpt>
      <trkpt lat="44.4982" lon="6.59128">
        <ele>2311</ele>
        <time>2021-04-07T09:44:48Z</time>
      </trkpt>
      <trkpt lat="44.4982" lon="6.59128">
        <ele>2311</ele>
        <time>2021-04-07T09:44:49Z</time>
      </trkpt>
      <trkpt lat="44.4982" lon="6.59128">
        <ele>2311</ele>
        <time>2021-04-07T09:44:50Z</time>
      </trkpt>
      <trkpt lat="44.4982" lon="6.59128">
        <ele>2311</ele>
        <time>2021-04-07T09:44:51Z</time>
      </trkpt>
      <trkpt lat="44.4982" lon="6.59128">
        <ele>2311</ele>
        <time>2021-04-07T09:44:52Z</time>
      </trkpt>
      <trkpt lat="44.49822" lon="6.5913">
        <ele>2310</ele>
        <time>2021-04-07T09:44:53Z</time>
      </trkpt>
      <trkpt lat="44.49824" lon="6.59129">
        <ele>2310</ele>
        <time>2021-04-07T09:44:54Z</time>
      </trkpt>
      <trkpt lat="44.49827" lon="6.59126">
        <ele>2310</ele>
        <time>2021-04-07T09:44:55Z</time>
      </trkpt>
      <trkpt lat="44.4983" lon="6.59122">
        <ele>2310</ele>
        <time>2021-04-07T09:44:56Z</time>
      </trkpt>
      <trkpt lat="44.49835" lon="6.59123">
        <ele>2310</ele>
        <time>2021-04-07T09:44:57Z</time>
      </trkpt>
      <trkpt lat="44.49841" lon="6.59128">
        <ele>2309</ele>
        <time>2021-04-07T09:44:58Z</time>
      </trkpt>
      <trkpt lat="44.49847" lon="6.59131">
        <ele>2308</ele>
        <time>2021-04-07T09:44:59Z</time>
      </trkpt>
      <trkpt lat="44.49853" lon="6.59134">
        <ele>2306</ele>
        <time>2021-04-07T09:45:00Z</time>
      </trkpt>
      <trkpt lat="44.49858" lon="6.59142">
        <ele>2305</ele>
        <time>2021-04-07T09:45:01Z</time>
      </trkpt>
      <trkpt lat="44.49863" lon="6.5915">
        <ele>2303</ele>
        <time>2021-04-07T09:45:02Z</time>
      </trkpt>
      <trkpt lat="44.4987" lon="6.59157">
        <ele>2301</ele>
        <time>2021-04-07T09:45:03Z</time>
      </trkpt>
      <trkpt lat="44.49877" lon="6.59164">
        <ele>2299</ele>
        <time>2021-04-07T09:45:04Z</time>
      </trkpt>
      <trkpt lat="44.49883" lon="6.59172">
        <ele>2297</ele>
        <time>2021-04-07T09:45:05Z</time>
      </trkpt>
      <trkpt lat="44.49887" lon="6.59181">
        <ele>2295</ele>
        <time>2021-04-07T09:45:06Z</time>
      </trkpt>
      <trkpt lat="44.4989" lon="6.59188">
        <ele>2293</ele>
        <time>2021-04-07T09:45:07Z</time>
      </trkpt>
      <trkpt lat="44.49892" lon="6.59194">
        <ele>2292</ele>
        <time>2021-04-07T09:45:08Z</time>
      </trkpt>
      <trkpt lat="44.49894" lon="6.59199">
        <ele>2290</ele>
        <time>2021-04-07T09:45:09Z</time>
      </trkpt>
      <trkpt lat="44.49896" lon="6.59202">
        <ele>2288</ele>
        <time>2021-04-07T09:45:10Z</time>
      </trkpt>
      <trkpt lat="44.49898" lon="6.59208">
        <ele>2286</ele>
        <time>2021-04-07T09:45:11Z</time>
      </trkpt>
      <trkpt lat="44.49901" lon="6.59216">
        <ele>2284</ele>
        <time>2021-04-07T09:45:12Z</time>
      </trkpt>
      <trkpt lat="44.49906" lon="6.59222">
        <ele>2282</ele>
        <time>2021-04-07T09:45:13Z</time>
      </trkpt>
      <trkpt lat="44.49911" lon="6.5922">
        <ele>2280</ele>
        <time>2021-04-07T09:45:14Z</time>
      </trkpt>
      <trkpt lat="44.49916" lon="6.59213">
        <ele>2279</ele>
        <time>2021-04-07T09:45:15Z</time>
      </trkpt>
      <trkpt lat="44.49918" lon="6.59207">
        <ele>2278</ele>
        <time>2021-04-07T09:45:16Z</time>
      </trkpt>
      <trkpt lat="44.49918" lon="6.59201">
        <ele>2277</ele>
        <time>2021-04-07T09:45:17Z</time>
      </trkpt>
      <trkpt lat="44.49919" lon="6.59195">
        <ele>2277</ele>
        <time>2021-04-07T09:45:18Z</time>
      </trkpt>
      <trkpt lat="44.4992" lon="6.59187">
        <ele>2274</ele>
        <time>2021-04-07T09:45:19Z</time>
      </trkpt>
      <trkpt lat="44.49922" lon="6.59178">
        <ele>2272</ele>
        <time>2021-04-07T09:45:20Z</time>
      </trkpt>
      <trkpt lat="44.49926" lon="6.59173">
        <ele>2271</ele>
        <time>2021-04-07T09:45:21Z</time>
      </trkpt>
      <trkpt lat="44.49931" lon="6.59168">
        <ele>2270</ele>
        <time>2021-04-07T09:45:22Z</time>
      </trkpt>
      <trkpt lat="44.49934" lon="6.59165">
        <ele>2269</ele>
        <time>2021-04-07T09:45:23Z</time>
      </trkpt>
      <trkpt lat="44.49938" lon="6.59162">
        <ele>2268</ele>
        <time>2021-04-07T09:45:24Z</time>
      </trkpt>
      <trkpt lat="44.49942" lon="6.5916">
        <ele>2267</ele>
        <time>2021-04-07T09:45:25Z</time>
      </trkpt>
      <trkpt lat="44.49947" lon="6.59163">
        <ele>2266</ele>
        <time>2021-04-07T09:45:26Z</time>
      </trkpt>
      <trkpt lat="44.49954" lon="6.59167">
        <ele>2264</ele>
        <time>2021-04-07T09:45:27Z</time>
      </trkpt>
      <trkpt lat="44.49962" lon="6.5917">
        <ele>2263</ele>
        <time>2021-04-07T09:45:28Z</time>
      </trkpt>
      <trkpt lat="44.49972" lon="6.59172">
        <ele>2262</ele>
        <time>2021-04-07T09:45:29Z</time>
      </trkpt>
      <trkpt lat="44.49979" lon="6.59173">
        <ele>2260</ele>
        <time>2021-04-07T09:45:30Z</time>
      </trkpt>
      <trkpt lat="44.49988" lon="6.59174">
        <ele>2259</ele>
        <time>2021-04-07T09:45:31Z</time>
      </trkpt>
      <trkpt lat="44.49996" lon="6.59177">
        <ele>2257</ele>
        <time>2021-04-07T09:45:32Z</time>
      </trkpt>
      <trkpt lat="44.50005" lon="6.59176">
        <ele>2254</ele>
        <time>2021-04-07T09:45:33Z</time>
      </trkpt>
      <trkpt lat="44.50013" lon="6.59175">
        <ele>2252</ele>
        <time>2021-04-07T09:45:34Z</time>
      </trkpt>
      <trkpt lat="44.50021" lon="6.59179">
        <ele>2250</ele>
        <time>2021-04-07T09:45:35Z</time>
      </trkpt>
      <trkpt lat="44.50029" lon="6.59181">
        <ele>2248</ele>
        <time>2021-04-07T09:45:36Z</time>
      </trkpt>
      <trkpt lat="44.50036" lon="6.59178">
        <ele>2246</ele>
        <time>2021-04-07T09:45:37Z</time>
      </trkpt>
      <trkpt lat="44.50041" lon="6.59175">
        <ele>2245</ele>
        <time>2021-04-07T09:45:38Z</time>
      </trkpt>
      <trkpt lat="44.50047" lon="6.59172">
        <ele>2244</ele>
        <time>2021-04-07T09:45:39Z</time>
      </trkpt>
      <trkpt lat="44.50052" lon="6.5917">
        <ele>2243</ele>
        <time>2021-04-07T09:45:40Z</time>
      </trkpt>
      <trkpt lat="44.50056" lon="6.59168">
        <ele>2242</ele>
        <time>2021-04-07T09:45:41Z</time>
      </trkpt>
      <trkpt lat="44.50059" lon="6.59167">
        <ele>2241</ele>
        <time>2021-04-07T09:45:42Z</time>
      </trkpt>
      <trkpt lat="44.5006" lon="6.59165">
        <ele>2241</ele>
        <time>2021-04-07T09:45:43Z</time>
      </trkpt>
      <trkpt lat="44.5006" lon="6.59165">
        <ele>2241</ele>
        <time>2021-04-07T09:45:44Z</time>
      </trkpt>
      <trkpt lat="44.5006" lon="6.59165">
        <ele>2241</ele>
        <time>2021-04-07T09:45:45Z</time>
      </trkpt>
      <trkpt lat="44.50059" lon="6.59165">
        <ele>2240</ele>
        <time>2021-04-07T09:45:46Z</time>
      </trkpt>
      <trkpt lat="44.50059" lon="6.59165">
        <ele>2240</ele>
        <time>2021-04-07T09:45:47Z</time>
      </trkpt>
      <trkpt lat="44.50059" lon="6.59165">
        <ele>2240</ele>
        <time>2021-04-07T09:45:48Z</time>
      </trkpt>
      <trkpt lat="44.50059" lon="6.59165">
        <ele>2240</ele>
        <time>2021-04-07T09:45:49Z</time>
      </trkpt>
      <trkpt lat="44.50059" lon="6.59165">
        <ele>2240</ele>
        <time>2021-04-07T09:45:50Z</time>
      </trkpt>
      <trkpt lat="44.50059" lon="6.59165">
        <ele>2240</ele>
        <time>2021-04-07T09:45:51Z</time>
      </trkpt>
      <trkpt lat="44.50059" lon="6.59165">
        <ele>2240</ele>
        <time>2021-04-07T09:45:52Z</time>
      </trkpt>
      <trkpt lat="44.50059" lon="6.59165">
        <ele>2239</ele>
        <time>2021-04-07T09:45:53Z</time>
      </trkpt>
      <trkpt lat="44.50059" lon="6.59165">
        <ele>2239</ele>
        <time>2021-04-07T09:45:54Z</time>
      </trkpt>
      <trkpt lat="44.50059" lon="6.59165">
        <ele>2239</ele>
        <time>2021-04-07T09:45:55Z</time>
      </trkpt>
      <trkpt lat="44.50059" lon="6.59165">
        <ele>2239</ele>
        <time>2021-04-07T09:45:56Z</time>
      </trkpt>
      <trkpt lat="44.50059" lon="6.59165">
        <ele>2239</ele>
        <time>2021-04-07T09:45:57Z</time>
      </trkpt>
      <trkpt lat="44.50059" lon="6.59165">
        <ele>2239</ele>
        <time>2021-04-07T09:45:58Z</time>
      </trkpt>
      <trkpt lat="44.50059" lon="6.59165">
        <ele>2239</ele>
        <time>2021-04-07T09:45:59Z</time>
      </trkpt>
      <trkpt lat="44.50059" lon="6.59165">
        <ele>2239</ele>
        <time>2021-04-07T09:46:00Z</time>
      </trkpt>
      <trkpt lat="44.50059" lon="6.59165">
        <ele>2239</ele>
        <time>2021-04-07T09:46:01Z</time>
      </trkpt>
      <trkpt lat="44.50059" lon="6.59165">
        <ele>2239</ele>
        <time>2021-04-07T09:46:02Z</time>
      </trkpt>
      <trkpt lat="44.50059" lon="6.59165">
        <ele>2239</ele>
        <time>2021-04-07T09:46:03Z</time>
      </trkpt>
      <trkpt lat="44.50059" lon="6.59165">
        <ele>2239</ele>
        <time>2021-04-07T09:46:04Z</time>
      </trkpt>
      <trkpt lat="44.50059" lon="6.59165">
        <ele>2239</ele>
        <time>2021-04-07T09:46:05Z</time>
      </trkpt>
      <trkpt lat="44.50059" lon="6.59165">
        <ele>2239</ele>
        <time>2021-04-07T09:46:06Z</time>
      </trkpt>
      <trkpt lat="44.50059" lon="6.59165">
        <ele>2239</ele>
        <time>2021-04-07T09:46:07Z</time>
      </trkpt>
      <trkpt lat="44.50059" lon="6.59165">
        <ele>2239</ele>
        <time>2021-04-07T09:46:08Z</time>
      </trkpt>
      <trkpt lat="44.50059" lon="6.59165">
        <ele>2239</ele>
        <time>2021-04-07T09:46:09Z</time>
      </trkpt>
      <trkpt lat="44.50059" lon="6.59165">
        <ele>2239</ele>
        <time>2021-04-07T09:46:10Z</time>
      </trkpt>
      <trkpt lat="44.50059" lon="6.59165">
        <ele>2239</ele>
        <time>2021-04-07T09:46:11Z</time>
      </trkpt>
      <trkpt lat="44.50059" lon="6.59165">
        <ele>2239</ele>
        <time>2021-04-07T09:46:12Z</time>
      </trkpt>
      <trkpt lat="44.50059" lon="6.59165">
        <ele>2239</ele>
        <time>2021-04-07T09:46:13Z</time>
      </trkpt>
      <trkpt lat="44.50059" lon="6.59165">
        <ele>2239</ele>
        <time>2021-04-07T09:46:14Z</time>
      </trkpt>
      <trkpt lat="44.50059" lon="6.59165">
        <ele>2239</ele>
        <time>2021-04-07T09:46:15Z</time>
      </trkpt>
      <trkpt lat="44.50059" lon="6.59165">
        <ele>2239</ele>
        <time>2021-04-07T09:46:16Z</time>
      </trkpt>
      <trkpt lat="44.50059" lon="6.59165">
        <ele>2239</ele>
        <time>2021-04-07T09:46:17Z</time>
      </trkpt>
      <trkpt lat="44.50059" lon="6.59165">
        <ele>2239</ele>
        <time>2021-04-07T09:46:18Z</time>
      </trkpt>
      <trkpt lat="44.50059" lon="6.59165">
        <ele>2239</ele>
        <time>2021-04-07T09:46:19Z</time>
      </trkpt>
      <trkpt lat="44.50059" lon="6.59165">
        <ele>2239</ele>
        <time>2021-04-07T09:46:20Z</time>
      </trkpt>
      <trkpt lat="44.50059" lon="6.59165">
        <ele>2239</ele>
        <time>2021-04-07T09:46:21Z</time>
      </trkpt>
      <trkpt lat="44.50059" lon="6.59165">
        <ele>2239</ele>
        <time>2021-04-07T09:46:22Z</time>
      </trkpt>
      <trkpt lat="44.50059" lon="6.59165">
        <ele>2239</ele>
        <time>2021-04-07T09:46:23Z</time>
      </trkpt>
      <trkpt lat="44.50059" lon="6.59165">
        <ele>2239</ele>
        <time>2021-04-07T09:46:24Z</time>
      </trkpt>
      <trkpt lat="44.50059" lon="6.59165">
        <ele>2239</ele>
        <time>2021-04-07T09:46:25Z</time>
      </trkpt>
      <trkpt lat="44.50059" lon="6.59165">
        <ele>2239</ele>
        <time>2021-04-07T09:46:26Z</time>
      </trkpt>
      <trkpt lat="44.50059" lon="6.59165">
        <ele>2239</ele>
        <time>2021-04-07T09:46:27Z</time>
      </trkpt>
      <trkpt lat="44.50059" lon="6.59165">
        <ele>2239</ele>
        <time>2021-04-07T09:46:28Z</time>
      </trkpt>
      <trkpt lat="44.50059" lon="6.59165">
        <ele>2239</ele>
        <time>2021-04-07T09:46:29Z</time>
      </trkpt>
      <trkpt lat="44.50059" lon="6.59165">
        <ele>2239</ele>
        <time>2021-04-07T09:46:30Z</time>
      </trkpt>
      <trkpt lat="44.50059" lon="6.59165">
        <ele>2239</ele>
        <time>2021-04-07T09:46:31Z</time>
      </trkpt>
      <trkpt lat="44.50059" lon="6.59165">
        <ele>2239</ele>
        <time>2021-04-07T09:46:32Z</time>
      </trkpt>
      <trkpt lat="44.50059" lon="6.59165">
        <ele>2239</ele>
        <time>2021-04-07T09:46:33Z</time>
      </trkpt>
      <trkpt lat="44.50059" lon="6.59165">
        <ele>2239</ele>
        <time>2021-04-07T09:46:34Z</time>
      </trkpt>
      <trkpt lat="44.50059" lon="6.59165">
        <ele>2239</ele>
        <time>2021-04-07T09:46:35Z</time>
      </trkpt>
      <trkpt lat="44.50059" lon="6.59165">
        <ele>2239</ele>
        <time>2021-04-07T09:46:36Z</time>
      </trkpt>
      <trkpt lat="44.50059" lon="6.59165">
        <ele>2239</ele>
        <time>2021-04-07T09:46:37Z</time>
      </trkpt>
      <trkpt lat="44.50059" lon="6.59165">
        <ele>2239</ele>
        <time>2021-04-07T09:46:38Z</time>
      </trkpt>
      <trkpt lat="44.50059" lon="6.59165">
        <ele>2239</ele>
        <time>2021-04-07T09:46:39Z</time>
      </trkpt>
      <trkpt lat="44.50059" lon="6.59165">
        <ele>2239</ele>
        <time>2021-04-07T09:46:40Z</time>
      </trkpt>
      <trkpt lat="44.50059" lon="6.59165">
        <ele>2239</ele>
        <time>2021-04-07T09:46:41Z</time>
      </trkpt>
      <trkpt lat="44.50059" lon="6.59165">
        <ele>2239</ele>
        <time>2021-04-07T09:46:42Z</time>
      </trkpt>
      <trkpt lat="44.50059" lon="6.59165">
        <ele>2239</ele>
        <time>2021-04-07T09:46:43Z</time>
      </trkpt>
      <trkpt lat="44.50059" lon="6.59165">
        <ele>2239</ele>
        <time>2021-04-07T09:46:44Z</time>
      </trkpt>
      <trkpt lat="44.50059" lon="6.59165">
        <ele>2239</ele>
        <time>2021-04-07T09:46:45Z</time>
      </trkpt>
      <trkpt lat="44.50059" lon="6.59165">
        <ele>2239</ele>
        <time>2021-04-07T09:46:46Z</time>
      </trkpt>
      <trkpt lat="44.50059" lon="6.59165">
        <ele>2239</ele>
        <time>2021-04-07T09:46:47Z</time>
      </trkpt>
      <trkpt lat="44.50059" lon="6.59165">
        <ele>2239</ele>
        <time>2021-04-07T09:46:48Z</time>
      </trkpt>
      <trkpt lat="44.50059" lon="6.59165">
        <ele>2239</ele>
        <time>2021-04-07T09:46:49Z</time>
      </trkpt>
      <trkpt lat="44.50059" lon="6.59165">
        <ele>2239</ele>
        <time>2021-04-07T09:46:50Z</time>
      </trkpt>
      <trkpt lat="44.50059" lon="6.59165">
        <ele>2239</ele>
        <time>2021-04-07T09:46:51Z</time>
      </trkpt>
      <trkpt lat="44.50059" lon="6.59165">
        <ele>2239</ele>
        <time>2021-04-07T09:46:52Z</time>
      </trkpt>
      <trkpt lat="44.50059" lon="6.59165">
        <ele>2239</ele>
        <time>2021-04-07T09:46:53Z</time>
      </trkpt>
      <trkpt lat="44.50059" lon="6.59165">
        <ele>2239</ele>
        <time>2021-04-07T09:46:54Z</time>
      </trkpt>
      <trkpt lat="44.50059" lon="6.59165">
        <ele>2239</ele>
        <time>2021-04-07T09:46:55Z</time>
      </trkpt>
      <trkpt lat="44.50059" lon="6.59165">
        <ele>2239</ele>
        <time>2021-04-07T09:46:56Z</time>
      </trkpt>
      <trkpt lat="44.50059" lon="6.59165">
        <ele>2239</ele>
        <time>2021-04-07T09:46:57Z</time>
      </trkpt>
      <trkpt lat="44.50059" lon="6.59165">
        <ele>2239</ele>
        <time>2021-04-07T09:46:58Z</time>
      </trkpt>
      <trkpt lat="44.50059" lon="6.59165">
        <ele>2239</ele>
        <time>2021-04-07T09:46:59Z</time>
      </trkpt>
      <trkpt lat="44.50059" lon="6.59165">
        <ele>2239</ele>
        <time>2021-04-07T09:47:00Z</time>
      </trkpt>
      <trkpt lat="44.50059" lon="6.59165">
        <ele>2239</ele>
        <time>2021-04-07T09:47:01Z</time>
      </trkpt>
      <trkpt lat="44.50059" lon="6.59165">
        <ele>2239</ele>
        <time>2021-04-07T09:47:02Z</time>
      </trkpt>
      <trkpt lat="44.50059" lon="6.59165">
        <ele>2239</ele>
        <time>2021-04-07T09:47:03Z</time>
      </trkpt>
      <trkpt lat="44.50059" lon="6.59165">
        <ele>2239</ele>
        <time>2021-04-07T09:47:04Z</time>
      </trkpt>
      <trkpt lat="44.50061" lon="6.59171">
        <ele>2239</ele>
        <time>2021-04-07T09:47:05Z</time>
      </trkpt>
      <trkpt lat="44.50063" lon="6.59174">
        <ele>2239</ele>
        <time>2021-04-07T09:47:06Z</time>
      </trkpt>
      <trkpt lat="44.50067" lon="6.59175">
        <ele>2239</ele>
        <time>2021-04-07T09:47:07Z</time>
      </trkpt>
      <trkpt lat="44.50072" lon="6.59175">
        <ele>2238</ele>
        <time>2021-04-07T09:47:08Z</time>
      </trkpt>
      <trkpt lat="44.50076" lon="6.59179">
        <ele>2238</ele>
        <time>2021-04-07T09:47:09Z</time>
      </trkpt>
      <trkpt lat="44.50081" lon="6.59184">
        <ele>2237</ele>
        <time>2021-04-07T09:47:10Z</time>
      </trkpt>
      <trkpt lat="44.50087" lon="6.59188">
        <ele>2236</ele>
        <time>2021-04-07T09:47:11Z</time>
      </trkpt>
      <trkpt lat="44.50092" lon="6.59186">
        <ele>2235</ele>
        <time>2021-04-07T09:47:12Z</time>
      </trkpt>
      <trkpt lat="44.50095" lon="6.59183">
        <ele>2234</ele>
        <time>2021-04-07T09:47:13Z</time>
      </trkpt>
      <trkpt lat="44.50099" lon="6.59181">
        <ele>2233</ele>
        <time>2021-04-07T09:47:14Z</time>
      </trkpt>
      <trkpt lat="44.50102" lon="6.59183">
        <ele>2232</ele>
        <time>2021-04-07T09:47:15Z</time>
      </trkpt>
      <trkpt lat="44.50105" lon="6.59184">
        <ele>2230</ele>
        <time>2021-04-07T09:47:16Z</time>
      </trkpt>
      <trkpt lat="44.5011" lon="6.59184">
        <ele>2228</ele>
        <time>2021-04-07T09:47:17Z</time>
      </trkpt>
      <trkpt lat="44.50114" lon="6.59184">
        <ele>2226</ele>
        <time>2021-04-07T09:47:18Z</time>
      </trkpt>
      <trkpt lat="44.50118" lon="6.59188">
        <ele>2224</ele>
        <time>2021-04-07T09:47:19Z</time>
      </trkpt>
      <trkpt lat="44.50118" lon="6.59195">
        <ele>2222</ele>
        <time>2021-04-07T09:47:20Z</time>
      </trkpt>
      <trkpt lat="44.50117" lon="6.59203">
        <ele>2220</ele>
        <time>2021-04-07T09:47:21Z</time>
      </trkpt>
      <trkpt lat="44.50118" lon="6.59208">
        <ele>2218</ele>
        <time>2021-04-07T09:47:22Z</time>
      </trkpt>
      <trkpt lat="44.50121" lon="6.5921">
        <ele>2217</ele>
        <time>2021-04-07T09:47:23Z</time>
      </trkpt>
      <trkpt lat="44.50123" lon="6.59212">
        <ele>2215</ele>
        <time>2021-04-07T09:47:24Z</time>
      </trkpt>
      <trkpt lat="44.50125" lon="6.59214">
        <ele>2213</ele>
        <time>2021-04-07T09:47:25Z</time>
      </trkpt>
      <trkpt lat="44.50124" lon="6.59218">
        <ele>2212</ele>
        <time>2021-04-07T09:47:26Z</time>
      </trkpt>
      <trkpt lat="44.50123" lon="6.59221">
        <ele>2210</ele>
        <time>2021-04-07T09:47:27Z</time>
      </trkpt>
      <trkpt lat="44.50122" lon="6.59223">
        <ele>2209</ele>
        <time>2021-04-07T09:47:28Z</time>
      </trkpt>
      <trkpt lat="44.50121" lon="6.59223">
        <ele>2208</ele>
        <time>2021-04-07T09:47:29Z</time>
      </trkpt>
      <trkpt lat="44.5012" lon="6.59225">
        <ele>2208</ele>
        <time>2021-04-07T09:47:30Z</time>
      </trkpt>
      <trkpt lat="44.50119" lon="6.59228">
        <ele>2207</ele>
        <time>2021-04-07T09:47:31Z</time>
      </trkpt>
      <trkpt lat="44.50119" lon="6.59231">
        <ele>2206</ele>
        <time>2021-04-07T09:47:32Z</time>
      </trkpt>
      <trkpt lat="44.50118" lon="6.59234">
        <ele>2206</ele>
        <time>2021-04-07T09:47:33Z</time>
      </trkpt>
      <trkpt lat="44.50118" lon="6.59236">
        <ele>2205</ele>
        <time>2021-04-07T09:47:34Z</time>
      </trkpt>
      <trkpt lat="44.50117" lon="6.59237">
        <ele>2205</ele>
        <time>2021-04-07T09:47:35Z</time>
      </trkpt>
      <trkpt lat="44.50116" lon="6.59238">
        <ele>2203</ele>
        <time>2021-04-07T09:47:36Z</time>
      </trkpt>
      <trkpt lat="44.50116" lon="6.59238">
        <ele>2203</ele>
        <time>2021-04-07T09:47:37Z</time>
      </trkpt>
      <trkpt lat="44.50116" lon="6.59238">
        <ele>2203</ele>
        <time>2021-04-07T09:47:38Z</time>
      </trkpt>
      <trkpt lat="44.50116" lon="6.59238">
        <ele>2202</ele>
        <time>2021-04-07T09:47:39Z</time>
      </trkpt>
      <trkpt lat="44.50116" lon="6.59238">
        <ele>2202</ele>
        <time>2021-04-07T09:47:40Z</time>
      </trkpt>
      <trkpt lat="44.50116" lon="6.59238">
        <ele>2202</ele>
        <time>2021-04-07T09:47:41Z</time>
      </trkpt>
      <trkpt lat="44.50114" lon="6.59242">
        <ele>2201</ele>
        <time>2021-04-07T09:47:42Z</time>
      </trkpt>
      <trkpt lat="44.50114" lon="6.59245">
        <ele>2201</ele>
        <time>2021-04-07T09:47:43Z</time>
      </trkpt>
      <trkpt lat="44.50114" lon="6.59247">
        <ele>2200</ele>
        <time>2021-04-07T09:47:44Z</time>
      </trkpt>
      <trkpt lat="44.50114" lon="6.5925">
        <ele>2199</ele>
        <time>2021-04-07T09:47:45Z</time>
      </trkpt>
      <trkpt lat="44.50114" lon="6.59253">
        <ele>2198</ele>
        <time>2021-04-07T09:47:46Z</time>
      </trkpt>
      <trkpt lat="44.50114" lon="6.59255">
        <ele>2198</ele>
        <time>2021-04-07T09:47:47Z</time>
      </trkpt>
      <trkpt lat="44.50114" lon="6.59257">
        <ele>2197</ele>
        <time>2021-04-07T09:47:48Z</time>
      </trkpt>
      <trkpt lat="44.50114" lon="6.59259">
        <ele>2197</ele>
        <time>2021-04-07T09:47:49Z</time>
      </trkpt>
      <trkpt lat="44.50114" lon="6.5926">
        <ele>2196</ele>
        <time>2021-04-07T09:47:50Z</time>
      </trkpt>
      <trkpt lat="44.50114" lon="6.5926">
        <ele>2196</ele>
        <time>2021-04-07T09:47:51Z</time>
      </trkpt>
      <trkpt lat="44.50115" lon="6.5926">
        <ele>2196</ele>
        <time>2021-04-07T09:47:52Z</time>
      </trkpt>
      <trkpt lat="44.50115" lon="6.5926">
        <ele>2196</ele>
        <time>2021-04-07T09:47:53Z</time>
      </trkpt>
      <trkpt lat="44.50115" lon="6.5926">
        <ele>2196</ele>
        <time>2021-04-07T09:47:54Z</time>
      </trkpt>
      <trkpt lat="44.50115" lon="6.5926">
        <ele>2195</ele>
        <time>2021-04-07T09:47:55Z</time>
      </trkpt>
      <trkpt lat="44.50117" lon="6.59265">
        <ele>2195</ele>
        <time>2021-04-07T09:47:56Z</time>
      </trkpt>
      <trkpt lat="44.50118" lon="6.59271">
        <ele>2194</ele>
        <time>2021-04-07T09:47:57Z</time>
      </trkpt>
      <trkpt lat="44.5012" lon="6.5928">
        <ele>2193</ele>
        <time>2021-04-07T09:47:58Z</time>
      </trkpt>
      <trkpt lat="44.50121" lon="6.59287">
        <ele>2193</ele>
        <time>2021-04-07T09:47:59Z</time>
      </trkpt>
      <trkpt lat="44.50122" lon="6.59295">
        <ele>2193</ele>
        <time>2021-04-07T09:48:00Z</time>
      </trkpt>
      <trkpt lat="44.50123" lon="6.593">
        <ele>2193</ele>
        <time>2021-04-07T09:48:01Z</time>
      </trkpt>
      <trkpt lat="44.50124" lon="6.59305">
        <ele>2192</ele>
        <time>2021-04-07T09:48:02Z</time>
      </trkpt>
      <trkpt lat="44.50125" lon="6.59309">
        <ele>2192</ele>
        <time>2021-04-07T09:48:03Z</time>
      </trkpt>
      <trkpt lat="44.50127" lon="6.59313">
        <ele>2192</ele>
        <time>2021-04-07T09:48:04Z</time>
      </trkpt>
      <trkpt lat="44.50129" lon="6.59316">
        <ele>2192</ele>
        <time>2021-04-07T09:48:05Z</time>
      </trkpt>
      <trkpt lat="44.50131" lon="6.59318">
        <ele>2191</ele>
        <time>2021-04-07T09:48:06Z</time>
      </trkpt>
      <trkpt lat="44.50134" lon="6.59313">
        <ele>2191</ele>
        <time>2021-04-07T09:48:07Z</time>
      </trkpt>
      <trkpt lat="44.50137" lon="6.59308">
        <ele>2190</ele>
        <time>2021-04-07T09:48:08Z</time>
      </trkpt>
      <trkpt lat="44.50141" lon="6.59306">
        <ele>2189</ele>
        <time>2021-04-07T09:48:09Z</time>
      </trkpt>
      <trkpt lat="44.50147" lon="6.59305">
        <ele>2189</ele>
        <time>2021-04-07T09:48:10Z</time>
      </trkpt>
      <trkpt lat="44.50151" lon="6.59301">
        <ele>2188</ele>
        <time>2021-04-07T09:48:11Z</time>
      </trkpt>
      <trkpt lat="44.50155" lon="6.59297">
        <ele>2187</ele>
        <time>2021-04-07T09:48:12Z</time>
      </trkpt>
      <trkpt lat="44.50159" lon="6.59299">
        <ele>2186</ele>
        <time>2021-04-07T09:48:13Z</time>
      </trkpt>
      <trkpt lat="44.50164" lon="6.59298">
        <ele>2183</ele>
        <time>2021-04-07T09:48:14Z</time>
      </trkpt>
      <trkpt lat="44.50167" lon="6.59295">
        <ele>2180</ele>
        <time>2021-04-07T09:48:15Z</time>
      </trkpt>
      <trkpt lat="44.50172" lon="6.59297">
        <ele>2178</ele>
        <time>2021-04-07T09:48:16Z</time>
      </trkpt>
      <trkpt lat="44.50175" lon="6.59301">
        <ele>2175</ele>
        <time>2021-04-07T09:48:17Z</time>
      </trkpt>
      <trkpt lat="44.50177" lon="6.59302">
        <ele>2173</ele>
        <time>2021-04-07T09:48:18Z</time>
      </trkpt>
      <trkpt lat="44.50179" lon="6.59298">
        <ele>2169</ele>
        <time>2021-04-07T09:48:19Z</time>
      </trkpt>
      <trkpt lat="44.5018" lon="6.59293">
        <ele>2166</ele>
        <time>2021-04-07T09:48:20Z</time>
      </trkpt>
      <trkpt lat="44.5018" lon="6.59289">
        <ele>2164</ele>
        <time>2021-04-07T09:48:21Z</time>
      </trkpt>
      <trkpt lat="44.50181" lon="6.59287">
        <ele>2160</ele>
        <time>2021-04-07T09:48:22Z</time>
      </trkpt>
      <trkpt lat="44.50181" lon="6.59287">
        <ele>2159</ele>
        <time>2021-04-07T09:48:23Z</time>
      </trkpt>
      <trkpt lat="44.50182" lon="6.59286">
        <ele>2159</ele>
        <time>2021-04-07T09:48:24Z</time>
      </trkpt>
      <trkpt lat="44.50183" lon="6.59283">
        <ele>2157</ele>
        <time>2021-04-07T09:48:25Z</time>
      </trkpt>
      <trkpt lat="44.50186" lon="6.59279">
        <ele>2156</ele>
        <time>2021-04-07T09:48:26Z</time>
      </trkpt>
      <trkpt lat="44.5019" lon="6.59275">
        <ele>2154</ele>
        <time>2021-04-07T09:48:27Z</time>
      </trkpt>
      <trkpt lat="44.50194" lon="6.59276">
        <ele>2152</ele>
        <time>2021-04-07T09:48:28Z</time>
      </trkpt>
      <trkpt lat="44.50197" lon="6.5928">
        <ele>2150</ele>
        <time>2021-04-07T09:48:29Z</time>
      </trkpt>
      <trkpt lat="44.50201" lon="6.59281">
        <ele>2149</ele>
        <time>2021-04-07T09:48:30Z</time>
      </trkpt>
      <trkpt lat="44.50205" lon="6.59281">
        <ele>2147</ele>
        <time>2021-04-07T09:48:31Z</time>
      </trkpt>
      <trkpt lat="44.50208" lon="6.59284">
        <ele>2146</ele>
        <time>2021-04-07T09:48:32Z</time>
      </trkpt>
      <trkpt lat="44.5021" lon="6.59287">
        <ele>2145</ele>
        <time>2021-04-07T09:48:33Z</time>
      </trkpt>
      <trkpt lat="44.50213" lon="6.59287">
        <ele>2144</ele>
        <time>2021-04-07T09:48:34Z</time>
      </trkpt>
      <trkpt lat="44.50215" lon="6.59284">
        <ele>2143</ele>
        <time>2021-04-07T09:48:35Z</time>
      </trkpt>
      <trkpt lat="44.50217" lon="6.59279">
        <ele>2141</ele>
        <time>2021-04-07T09:48:36Z</time>
      </trkpt>
      <trkpt lat="44.5022" lon="6.59276">
        <ele>2139</ele>
        <time>2021-04-07T09:48:37Z</time>
      </trkpt>
      <trkpt lat="44.50224" lon="6.59276">
        <ele>2137</ele>
        <time>2021-04-07T09:48:38Z</time>
      </trkpt>
      <trkpt lat="44.50225" lon="6.59281">
        <ele>2136</ele>
        <time>2021-04-07T09:48:39Z</time>
      </trkpt>
      <trkpt lat="44.50227" lon="6.59285">
        <ele>2135</ele>
        <time>2021-04-07T09:48:40Z</time>
      </trkpt>
      <trkpt lat="44.50227" lon="6.59286">
        <ele>2134</ele>
        <time>2021-04-07T09:48:41Z</time>
      </trkpt>
      <trkpt lat="44.50228" lon="6.59286">
        <ele>2134</ele>
        <time>2021-04-07T09:48:42Z</time>
      </trkpt>
      <trkpt lat="44.50228" lon="6.59286">
        <ele>2135</ele>
        <time>2021-04-07T09:48:43Z</time>
      </trkpt>
      <trkpt lat="44.50228" lon="6.59286">
        <ele>2135</ele>
        <time>2021-04-07T09:48:44Z</time>
      </trkpt>
      <trkpt lat="44.50228" lon="6.59286">
        <ele>2135</ele>
        <time>2021-04-07T09:48:45Z</time>
      </trkpt>
      <trkpt lat="44.50228" lon="6.59286">
        <ele>2135</ele>
        <time>2021-04-07T09:48:46Z</time>
      </trkpt>
      <trkpt lat="44.50228" lon="6.59286">
        <ele>2135</ele>
        <time>2021-04-07T09:48:47Z</time>
      </trkpt>
      <trkpt lat="44.50228" lon="6.59286">
        <ele>2135</ele>
        <time>2021-04-07T09:48:48Z</time>
      </trkpt>
      <trkpt lat="44.50228" lon="6.59286">
        <ele>2135</ele>
        <time>2021-04-07T09:48:49Z</time>
      </trkpt>
      <trkpt lat="44.50228" lon="6.59286">
        <ele>2135</ele>
        <time>2021-04-07T09:48:50Z</time>
      </trkpt>
      <trkpt lat="44.50228" lon="6.59286">
        <ele>2135</ele>
        <time>2021-04-07T09:48:51Z</time>
      </trkpt>
      <trkpt lat="44.50228" lon="6.59286">
        <ele>2135</ele>
        <time>2021-04-07T09:48:52Z</time>
      </trkpt>
      <trkpt lat="44.50228" lon="6.59286">
        <ele>2136</ele>
        <time>2021-04-07T09:48:53Z</time>
      </trkpt>
      <trkpt lat="44.50228" lon="6.59286">
        <ele>2136</ele>
        <time>2021-04-07T09:48:54Z</time>
      </trkpt>
      <trkpt lat="44.50228" lon="6.59286">
        <ele>2136</ele>
        <time>2021-04-07T09:48:55Z</time>
      </trkpt>
      <trkpt lat="44.50228" lon="6.59286">
        <ele>2136</ele>
        <time>2021-04-07T09:48:56Z</time>
      </trkpt>
      <trkpt lat="44.50228" lon="6.59286">
        <ele>2136</ele>
        <time>2021-04-07T09:48:57Z</time>
      </trkpt>
      <trkpt lat="44.50228" lon="6.59286">
        <ele>2136</ele>
        <time>2021-04-07T09:48:58Z</time>
      </trkpt>
      <trkpt lat="44.50228" lon="6.59286">
        <ele>2136</ele>
        <time>2021-04-07T09:48:59Z</time>
      </trkpt>
      <trkpt lat="44.50228" lon="6.59286">
        <ele>2136</ele>
        <time>2021-04-07T09:49:00Z</time>
      </trkpt>
      <trkpt lat="44.50228" lon="6.59286">
        <ele>2136</ele>
        <time>2021-04-07T09:49:01Z</time>
      </trkpt>
      <trkpt lat="44.50228" lon="6.59286">
        <ele>2136</ele>
        <time>2021-04-07T09:49:02Z</time>
      </trkpt>
      <trkpt lat="44.50228" lon="6.59286">
        <ele>2136</ele>
        <time>2021-04-07T09:49:03Z</time>
      </trkpt>
      <trkpt lat="44.50228" lon="6.59286">
        <ele>2136</ele>
        <time>2021-04-07T09:49:04Z</time>
      </trkpt>
      <trkpt lat="44.50228" lon="6.59286">
        <ele>2136</ele>
        <time>2021-04-07T09:49:05Z</time>
      </trkpt>
      <trkpt lat="44.50228" lon="6.59286">
        <ele>2136</ele>
        <time>2021-04-07T09:49:06Z</time>
      </trkpt>
      <trkpt lat="44.50228" lon="6.59286">
        <ele>2136</ele>
        <time>2021-04-07T09:49:07Z</time>
      </trkpt>
      <trkpt lat="44.50228" lon="6.59286">
        <ele>2136</ele>
        <time>2021-04-07T09:49:08Z</time>
      </trkpt>
      <trkpt lat="44.50228" lon="6.59286">
        <ele>2136</ele>
        <time>2021-04-07T09:49:09Z</time>
      </trkpt>
      <trkpt lat="44.50228" lon="6.59286">
        <ele>2136</ele>
        <time>2021-04-07T09:49:10Z</time>
      </trkpt>
      <trkpt lat="44.50228" lon="6.59286">
        <ele>2136</ele>
        <time>2021-04-07T09:49:11Z</time>
      </trkpt>
      <trkpt lat="44.50228" lon="6.59286">
        <ele>2136</ele>
        <time>2021-04-07T09:49:12Z</time>
      </trkpt>
      <trkpt lat="44.50229" lon="6.59292">
        <ele>2136</ele>
        <time>2021-04-07T09:49:13Z</time>
      </trkpt>
      <trkpt lat="44.50229" lon="6.59296">
        <ele>2136</ele>
        <time>2021-04-07T09:49:14Z</time>
      </trkpt>
      <trkpt lat="44.50229" lon="6.59299">
        <ele>2136</ele>
        <time>2021-04-07T09:49:15Z</time>
      </trkpt>
      <trkpt lat="44.50229" lon="6.59301">
        <ele>2135</ele>
        <time>2021-04-07T09:49:16Z</time>
      </trkpt>
      <trkpt lat="44.5023" lon="6.59305">
        <ele>2135</ele>
        <time>2021-04-07T09:49:17Z</time>
      </trkpt>
      <trkpt lat="44.50231" lon="6.5931">
        <ele>2134</ele>
        <time>2021-04-07T09:49:18Z</time>
      </trkpt>
      <trkpt lat="44.50231" lon="6.59316">
        <ele>2134</ele>
        <time>2021-04-07T09:49:19Z</time>
      </trkpt>
      <trkpt lat="44.50232" lon="6.59322">
        <ele>2134</ele>
        <time>2021-04-07T09:49:20Z</time>
      </trkpt>
      <trkpt lat="44.50233" lon="6.59326">
        <ele>2133</ele>
        <time>2021-04-07T09:49:21Z</time>
      </trkpt>
      <trkpt lat="44.50234" lon="6.59329">
        <ele>2133</ele>
        <time>2021-04-07T09:49:22Z</time>
      </trkpt>
      <trkpt lat="44.50233" lon="6.59331">
        <ele>2132</ele>
        <time>2021-04-07T09:49:23Z</time>
      </trkpt>
      <trkpt lat="44.50233" lon="6.59331">
        <ele>2132</ele>
        <time>2021-04-07T09:49:24Z</time>
      </trkpt>
      <trkpt lat="44.50233" lon="6.5933">
        <ele>2132</ele>
        <time>2021-04-07T09:49:25Z</time>
      </trkpt>
      <trkpt lat="44.50233" lon="6.5933">
        <ele>2132</ele>
        <time>2021-04-07T09:49:26Z</time>
      </trkpt>
      <trkpt lat="44.50233" lon="6.5933">
        <ele>2132</ele>
        <time>2021-04-07T09:49:27Z</time>
      </trkpt>
      <trkpt lat="44.50233" lon="6.5933">
        <ele>2132</ele>
        <time>2021-04-07T09:49:28Z</time>
      </trkpt>
      <trkpt lat="44.50233" lon="6.5933">
        <ele>2132</ele>
        <time>2021-04-07T09:49:29Z</time>
      </trkpt>
      <trkpt lat="44.50233" lon="6.5933">
        <ele>2132</ele>
        <time>2021-04-07T09:49:30Z</time>
      </trkpt>
      <trkpt lat="44.50233" lon="6.5933">
        <ele>2132</ele>
        <time>2021-04-07T09:49:31Z</time>
      </trkpt>
      <trkpt lat="44.50233" lon="6.5933">
        <ele>2132</ele>
        <time>2021-04-07T09:49:32Z</time>
      </trkpt>
      <trkpt lat="44.50233" lon="6.5933">
        <ele>2132</ele>
        <time>2021-04-07T09:49:33Z</time>
      </trkpt>
      <trkpt lat="44.50233" lon="6.5933">
        <ele>2132</ele>
        <time>2021-04-07T09:49:34Z</time>
      </trkpt>
      <trkpt lat="44.50233" lon="6.5933">
        <ele>2132</ele>
        <time>2021-04-07T09:49:35Z</time>
      </trkpt>
      <trkpt lat="44.50233" lon="6.5933">
        <ele>2132</ele>
        <time>2021-04-07T09:49:36Z</time>
      </trkpt>
      <trkpt lat="44.50233" lon="6.5933">
        <ele>2132</ele>
        <time>2021-04-07T09:49:37Z</time>
      </trkpt>
      <trkpt lat="44.50233" lon="6.5933">
        <ele>2132</ele>
        <time>2021-04-07T09:49:38Z</time>
      </trkpt>
      <trkpt lat="44.50233" lon="6.5933">
        <ele>2132</ele>
        <time>2021-04-07T09:49:39Z</time>
      </trkpt>
      <trkpt lat="44.50233" lon="6.5933">
        <ele>2132</ele>
        <time>2021-04-07T09:49:40Z</time>
      </trkpt>
      <trkpt lat="44.50233" lon="6.5933">
        <ele>2132</ele>
        <time>2021-04-07T09:49:41Z</time>
      </trkpt>
      <trkpt lat="44.50233" lon="6.5933">
        <ele>2132</ele>
        <time>2021-04-07T09:49:42Z</time>
      </trkpt>
      <trkpt lat="44.50233" lon="6.5933">
        <ele>2132</ele>
        <time>2021-04-07T09:49:43Z</time>
      </trkpt>
      <trkpt lat="44.50233" lon="6.5933">
        <ele>2132</ele>
        <time>2021-04-07T09:49:44Z</time>
      </trkpt>
      <trkpt lat="44.50233" lon="6.5933">
        <ele>2132</ele>
        <time>2021-04-07T09:49:45Z</time>
      </trkpt>
      <trkpt lat="44.50233" lon="6.5933">
        <ele>2132</ele>
        <time>2021-04-07T09:49:46Z</time>
      </trkpt>
      <trkpt lat="44.50233" lon="6.5933">
        <ele>2132</ele>
        <time>2021-04-07T09:49:47Z</time>
      </trkpt>
      <trkpt lat="44.50233" lon="6.5933">
        <ele>2132</ele>
        <time>2021-04-07T09:49:48Z</time>
      </trkpt>
      <trkpt lat="44.50233" lon="6.5933">
        <ele>2132</ele>
        <time>2021-04-07T09:49:49Z</time>
      </trkpt>
      <trkpt lat="44.50233" lon="6.5933">
        <ele>2132</ele>
        <time>2021-04-07T09:49:50Z</time>
      </trkpt>
      <trkpt lat="44.50233" lon="6.5933">
        <ele>2132</ele>
        <time>2021-04-07T09:49:51Z</time>
      </trkpt>
      <trkpt lat="44.50233" lon="6.5933">
        <ele>2132</ele>
        <time>2021-04-07T09:49:52Z</time>
      </trkpt>
      <trkpt lat="44.50233" lon="6.5933">
        <ele>2132</ele>
        <time>2021-04-07T09:49:53Z</time>
      </trkpt>
      <trkpt lat="44.50233" lon="6.5933">
        <ele>2132</ele>
        <time>2021-04-07T09:49:54Z</time>
      </trkpt>
      <trkpt lat="44.50233" lon="6.5933">
        <ele>2132</ele>
        <time>2021-04-07T09:49:55Z</time>
      </trkpt>
      <trkpt lat="44.50233" lon="6.5933">
        <ele>2132</ele>
        <time>2021-04-07T09:49:56Z</time>
      </trkpt>
      <trkpt lat="44.50233" lon="6.5933">
        <ele>2132</ele>
        <time>2021-04-07T09:49:57Z</time>
      </trkpt>
      <trkpt lat="44.50233" lon="6.5933">
        <ele>2132</ele>
        <time>2021-04-07T09:49:58Z</time>
      </trkpt>
      <trkpt lat="44.50233" lon="6.5933">
        <ele>2132</ele>
        <time>2021-04-07T09:49:59Z</time>
      </trkpt>
      <trkpt lat="44.50233" lon="6.5933">
        <ele>2132</ele>
        <time>2021-04-07T09:50:00Z</time>
      </trkpt>
      <trkpt lat="44.50233" lon="6.5933">
        <ele>2132</ele>
        <time>2021-04-07T09:50:01Z</time>
      </trkpt>
      <trkpt lat="44.50233" lon="6.5933">
        <ele>2132</ele>
        <time>2021-04-07T09:50:02Z</time>
      </trkpt>
      <trkpt lat="44.50233" lon="6.5933">
        <ele>2132</ele>
        <time>2021-04-07T09:50:03Z</time>
      </trkpt>
      <trkpt lat="44.50233" lon="6.5933">
        <ele>2132</ele>
        <time>2021-04-07T09:50:04Z</time>
      </trkpt>
      <trkpt lat="44.50233" lon="6.5933">
        <ele>2132</ele>
        <time>2021-04-07T09:50:05Z</time>
      </trkpt>
      <trkpt lat="44.50233" lon="6.5933">
        <ele>2132</ele>
        <time>2021-04-07T09:50:06Z</time>
      </trkpt>
      <trkpt lat="44.50233" lon="6.5933">
        <ele>2132</ele>
        <time>2021-04-07T09:50:07Z</time>
      </trkpt>
      <trkpt lat="44.50233" lon="6.5933">
        <ele>2132</ele>
        <time>2021-04-07T09:50:08Z</time>
      </trkpt>
      <trkpt lat="44.50233" lon="6.5933">
        <ele>2132</ele>
        <time>2021-04-07T09:50:09Z</time>
      </trkpt>
      <trkpt lat="44.50233" lon="6.5933">
        <ele>2132</ele>
        <time>2021-04-07T09:50:10Z</time>
      </trkpt>
      <trkpt lat="44.50233" lon="6.5933">
        <ele>2132</ele>
        <time>2021-04-07T09:50:11Z</time>
      </trkpt>
      <trkpt lat="44.50233" lon="6.5933">
        <ele>2132</ele>
        <time>2021-04-07T09:50:12Z</time>
      </trkpt>
      <trkpt lat="44.50233" lon="6.5933">
        <ele>2132</ele>
        <time>2021-04-07T09:50:13Z</time>
      </trkpt>
      <trkpt lat="44.50233" lon="6.5933">
        <ele>2132</ele>
        <time>2021-04-07T09:50:14Z</time>
      </trkpt>
      <trkpt lat="44.50233" lon="6.5933">
        <ele>2132</ele>
        <time>2021-04-07T09:50:15Z</time>
      </trkpt>
      <trkpt lat="44.50233" lon="6.5933">
        <ele>2132</ele>
        <time>2021-04-07T09:50:16Z</time>
      </trkpt>
      <trkpt lat="44.50233" lon="6.5933">
        <ele>2132</ele>
        <time>2021-04-07T09:50:17Z</time>
      </trkpt>
      <trkpt lat="44.50234" lon="6.59331">
        <ele>2132</ele>
        <time>2021-04-07T09:50:18Z</time>
      </trkpt>
      <trkpt lat="44.50235" lon="6.5933">
        <ele>2132</ele>
        <time>2021-04-07T09:50:19Z</time>
      </trkpt>
      <trkpt lat="44.50235" lon="6.5933">
        <ele>2132</ele>
        <time>2021-04-07T09:50:20Z</time>
      </trkpt>
      <trkpt lat="44.50235" lon="6.5933">
        <ele>2132</ele>
        <time>2021-04-07T09:50:21Z</time>
      </trkpt>
      <trkpt lat="44.50235" lon="6.5933">
        <ele>2132</ele>
        <time>2021-04-07T09:50:22Z</time>
      </trkpt>
      <trkpt lat="44.50235" lon="6.5933">
        <ele>2132</ele>
        <time>2021-04-07T09:50:23Z</time>
      </trkpt>
      <trkpt lat="44.50235" lon="6.5933">
        <ele>2132</ele>
        <time>2021-04-07T09:50:24Z</time>
      </trkpt>
      <trkpt lat="44.50235" lon="6.5933">
        <ele>2132</ele>
        <time>2021-04-07T09:50:25Z</time>
      </trkpt>
      <trkpt lat="44.50235" lon="6.5933">
        <ele>2131</ele>
        <time>2021-04-07T09:50:26Z</time>
      </trkpt>
      <trkpt lat="44.50235" lon="6.5933">
        <ele>2131</ele>
        <time>2021-04-07T09:50:27Z</time>
      </trkpt>
      <trkpt lat="44.50235" lon="6.5933">
        <ele>2131</ele>
        <time>2021-04-07T09:50:28Z</time>
      </trkpt>
      <trkpt lat="44.50235" lon="6.5933">
        <ele>2131</ele>
        <time>2021-04-07T09:50:29Z</time>
      </trkpt>
      <trkpt lat="44.50235" lon="6.5933">
        <ele>2131</ele>
        <time>2021-04-07T09:50:30Z</time>
      </trkpt>
      <trkpt lat="44.50235" lon="6.5933">
        <ele>2131</ele>
        <time>2021-04-07T09:50:31Z</time>
      </trkpt>
      <trkpt lat="44.50235" lon="6.5933">
        <ele>2131</ele>
        <time>2021-04-07T09:50:32Z</time>
      </trkpt>
      <trkpt lat="44.50235" lon="6.5933">
        <ele>2131</ele>
        <time>2021-04-07T09:50:33Z</time>
      </trkpt>
      <trkpt lat="44.50235" lon="6.5933">
        <ele>2131</ele>
        <time>2021-04-07T09:50:34Z</time>
      </trkpt>
      <trkpt lat="44.50235" lon="6.5933">
        <ele>2131</ele>
        <time>2021-04-07T09:50:35Z</time>
      </trkpt>
      <trkpt lat="44.50235" lon="6.5933">
        <ele>2131</ele>
        <time>2021-04-07T09:50:36Z</time>
      </trkpt>
      <trkpt lat="44.50235" lon="6.5933">
        <ele>2131</ele>
        <time>2021-04-07T09:50:37Z</time>
      </trkpt>
      <trkpt lat="44.50235" lon="6.5933">
        <ele>2131</ele>
        <time>2021-04-07T09:50:38Z</time>
      </trkpt>
      <trkpt lat="44.50235" lon="6.5933">
        <ele>2131</ele>
        <time>2021-04-07T09:50:39Z</time>
      </trkpt>
      <trkpt lat="44.50235" lon="6.5933">
        <ele>2131</ele>
        <time>2021-04-07T09:50:40Z</time>
      </trkpt>
      <trkpt lat="44.50235" lon="6.5933">
        <ele>2131</ele>
        <time>2021-04-07T09:50:41Z</time>
      </trkpt>
      <trkpt lat="44.50235" lon="6.5933">
        <ele>2131</ele>
        <time>2021-04-07T09:50:42Z</time>
      </trkpt>
      <trkpt lat="44.50239" lon="6.59322">
        <ele>2130</ele>
        <time>2021-04-07T09:50:43Z</time>
      </trkpt>
      <trkpt lat="44.50241" lon="6.59318">
        <ele>2129</ele>
        <time>2021-04-07T09:50:44Z</time>
      </trkpt>
      <trkpt lat="44.50243" lon="6.59314">
        <ele>2128</ele>
        <time>2021-04-07T09:50:45Z</time>
      </trkpt>
      <trkpt lat="44.50246" lon="6.59311">
        <ele>2128</ele>
        <time>2021-04-07T09:50:46Z</time>
      </trkpt>
      <trkpt lat="44.5025" lon="6.59314">
        <ele>2127</ele>
        <time>2021-04-07T09:50:47Z</time>
      </trkpt>
      <trkpt lat="44.50253" lon="6.5932">
        <ele>2127</ele>
        <time>2021-04-07T09:50:48Z</time>
      </trkpt>
      <trkpt lat="44.50255" lon="6.59325">
        <ele>2126</ele>
        <time>2021-04-07T09:50:49Z</time>
      </trkpt>
      <trkpt lat="44.50258" lon="6.59331">
        <ele>2126</ele>
        <time>2021-04-07T09:50:50Z</time>
      </trkpt>
      <trkpt lat="44.50261" lon="6.59334">
        <ele>2125</ele>
        <time>2021-04-07T09:50:51Z</time>
      </trkpt>
      <trkpt lat="44.50263" lon="6.59332">
        <ele>2124</ele>
        <time>2021-04-07T09:50:52Z</time>
      </trkpt>
      <trkpt lat="44.50266" lon="6.59328">
        <ele>2123</ele>
        <time>2021-04-07T09:50:53Z</time>
      </trkpt>
      <trkpt lat="44.50269" lon="6.59328">
        <ele>2122</ele>
        <time>2021-04-07T09:50:54Z</time>
      </trkpt>
      <trkpt lat="44.50273" lon="6.5933">
        <ele>2120</ele>
        <time>2021-04-07T09:50:55Z</time>
      </trkpt>
      <trkpt lat="44.50278" lon="6.59334">
        <ele>2118</ele>
        <time>2021-04-07T09:50:56Z</time>
      </trkpt>
      <trkpt lat="44.50283" lon="6.59334">
        <ele>2116</ele>
        <time>2021-04-07T09:50:57Z</time>
      </trkpt>
      <trkpt lat="44.50285" lon="6.59331">
        <ele>2115</ele>
        <time>2021-04-07T09:50:58Z</time>
      </trkpt>
      <trkpt lat="44.50286" lon="6.59328">
        <ele>2112</ele>
        <time>2021-04-07T09:50:59Z</time>
      </trkpt>
      <trkpt lat="44.50285" lon="6.59327">
        <ele>2110</ele>
        <time>2021-04-07T09:51:00Z</time>
      </trkpt>
      <trkpt lat="44.50288" lon="6.59325">
        <ele>2110</ele>
        <time>2021-04-07T09:51:01Z</time>
      </trkpt>
      <trkpt lat="44.5029" lon="6.59324">
        <ele>2108</ele>
        <time>2021-04-07T09:51:02Z</time>
      </trkpt>
      <trkpt lat="44.50293" lon="6.59322">
        <ele>2107</ele>
        <time>2021-04-07T09:51:03Z</time>
      </trkpt>
      <trkpt lat="44.50296" lon="6.59326">
        <ele>2105</ele>
        <time>2021-04-07T09:51:04Z</time>
      </trkpt>
      <trkpt lat="44.50297" lon="6.59333">
        <ele>2102</ele>
        <time>2021-04-07T09:51:05Z</time>
      </trkpt>
      <trkpt lat="44.50299" lon="6.5934">
        <ele>2100</ele>
        <time>2021-04-07T09:51:06Z</time>
      </trkpt>
      <trkpt lat="44.50302" lon="6.59346">
        <ele>2099</ele>
        <time>2021-04-07T09:51:07Z</time>
      </trkpt>
      <trkpt lat="44.50305" lon="6.59351">
        <ele>2097</ele>
        <time>2021-04-07T09:51:08Z</time>
      </trkpt>
      <trkpt lat="44.50308" lon="6.59355">
        <ele>2096</ele>
        <time>2021-04-07T09:51:09Z</time>
      </trkpt>
      <trkpt lat="44.50311" lon="6.59358">
        <ele>2094</ele>
        <time>2021-04-07T09:51:10Z</time>
      </trkpt>
      <trkpt lat="44.50314" lon="6.59361">
        <ele>2093</ele>
        <time>2021-04-07T09:51:11Z</time>
      </trkpt>
      <trkpt lat="44.50316" lon="6.59363">
        <ele>2092</ele>
        <time>2021-04-07T09:51:12Z</time>
      </trkpt>
      <trkpt lat="44.50319" lon="6.59366">
        <ele>2091</ele>
        <time>2021-04-07T09:51:13Z</time>
      </trkpt>
      <trkpt lat="44.50322" lon="6.59367">
        <ele>2089</ele>
        <time>2021-04-07T09:51:14Z</time>
      </trkpt>
      <trkpt lat="44.50324" lon="6.59362">
        <ele>2087</ele>
        <time>2021-04-07T09:51:15Z</time>
      </trkpt>
      <trkpt lat="44.50325" lon="6.59356">
        <ele>2086</ele>
        <time>2021-04-07T09:51:16Z</time>
      </trkpt>
      <trkpt lat="44.50325" lon="6.59351">
        <ele>2085</ele>
        <time>2021-04-07T09:51:17Z</time>
      </trkpt>
      <trkpt lat="44.50327" lon="6.59346">
        <ele>2084</ele>
        <time>2021-04-07T09:51:18Z</time>
      </trkpt>
      <trkpt lat="44.50328" lon="6.59344">
        <ele>2084</ele>
        <time>2021-04-07T09:51:19Z</time>
      </trkpt>
      <trkpt lat="44.50329" lon="6.59345">
        <ele>2083</ele>
        <time>2021-04-07T09:51:20Z</time>
      </trkpt>
      <trkpt lat="44.50332" lon="6.59345">
        <ele>2082</ele>
        <time>2021-04-07T09:51:21Z</time>
      </trkpt>
      <trkpt lat="44.50335" lon="6.59345">
        <ele>2081</ele>
        <time>2021-04-07T09:51:22Z</time>
      </trkpt>
      <trkpt lat="44.50339" lon="6.59342">
        <ele>2080</ele>
        <time>2021-04-07T09:51:23Z</time>
      </trkpt>
      <trkpt lat="44.50343" lon="6.5934">
        <ele>2079</ele>
        <time>2021-04-07T09:51:24Z</time>
      </trkpt>
      <trkpt lat="44.50347" lon="6.59339">
        <ele>2078</ele>
        <time>2021-04-07T09:51:25Z</time>
      </trkpt>
      <trkpt lat="44.50355" lon="6.59341">
        <ele>2077</ele>
        <time>2021-04-07T09:51:26Z</time>
      </trkpt>
      <trkpt lat="44.50364" lon="6.59343">
        <ele>2076</ele>
        <time>2021-04-07T09:51:27Z</time>
      </trkpt>
      <trkpt lat="44.50374" lon="6.59347">
        <ele>2075</ele>
        <time>2021-04-07T09:51:28Z</time>
      </trkpt>
      <trkpt lat="44.50384" lon="6.59349">
        <ele>2074</ele>
        <time>2021-04-07T09:51:29Z</time>
      </trkpt>
      <trkpt lat="44.50393" lon="6.59349">
        <ele>2073</ele>
        <time>2021-04-07T09:51:30Z</time>
      </trkpt>
      <trkpt lat="44.504" lon="6.59346">
        <ele>2071</ele>
        <time>2021-04-07T09:51:31Z</time>
      </trkpt>
      <trkpt lat="44.50409" lon="6.59345">
        <ele>2070</ele>
        <time>2021-04-07T09:51:32Z</time>
      </trkpt>
      <trkpt lat="44.50415" lon="6.59348">
        <ele>2069</ele>
        <time>2021-04-07T09:51:33Z</time>
      </trkpt>
      <trkpt lat="44.50422" lon="6.59345">
        <ele>2068</ele>
        <time>2021-04-07T09:51:34Z</time>
      </trkpt>
      <trkpt lat="44.50428" lon="6.59346">
        <ele>2067</ele>
        <time>2021-04-07T09:51:35Z</time>
      </trkpt>
      <trkpt lat="44.50433" lon="6.59344">
        <ele>2066</ele>
        <time>2021-04-07T09:51:36Z</time>
      </trkpt>
      <trkpt lat="44.50437" lon="6.59341">
        <ele>2065</ele>
        <time>2021-04-07T09:51:37Z</time>
      </trkpt>
      <trkpt lat="44.5044" lon="6.59336">
        <ele>2064</ele>
        <time>2021-04-07T09:51:38Z</time>
      </trkpt>
      <trkpt lat="44.50442" lon="6.5933">
        <ele>2063</ele>
        <time>2021-04-07T09:51:39Z</time>
      </trkpt>
      <trkpt lat="44.50444" lon="6.59326">
        <ele>2061</ele>
        <time>2021-04-07T09:51:40Z</time>
      </trkpt>
      <trkpt lat="44.50441" lon="6.59325">
        <ele>2060</ele>
        <time>2021-04-07T09:51:41Z</time>
      </trkpt>
      <trkpt lat="44.50441" lon="6.59325">
        <ele>2059</ele>
        <time>2021-04-07T09:51:42Z</time>
      </trkpt>
      <trkpt lat="44.50441" lon="6.59325">
        <ele>2058</ele>
        <time>2021-04-07T09:51:43Z</time>
      </trkpt>
      <trkpt lat="44.50441" lon="6.59325">
        <ele>2057</ele>
        <time>2021-04-07T09:51:44Z</time>
      </trkpt>
      <trkpt lat="44.50441" lon="6.59325">
        <ele>2057</ele>
        <time>2021-04-07T09:51:45Z</time>
      </trkpt>
      <trkpt lat="44.50441" lon="6.59325">
        <ele>2057</ele>
        <time>2021-04-07T09:51:46Z</time>
      </trkpt>
      <trkpt lat="44.50441" lon="6.59325">
        <ele>2056</ele>
        <time>2021-04-07T09:51:47Z</time>
      </trkpt>
      <trkpt lat="44.50441" lon="6.59325">
        <ele>2056</ele>
        <time>2021-04-07T09:51:48Z</time>
      </trkpt>
      <trkpt lat="44.50439" lon="6.59319">
        <ele>2055</ele>
        <time>2021-04-07T09:51:49Z</time>
      </trkpt>
      <trkpt lat="44.50438" lon="6.59317">
        <ele>2055</ele>
        <time>2021-04-07T09:51:50Z</time>
      </trkpt>
      <trkpt lat="44.50437" lon="6.59314">
        <ele>2055</ele>
        <time>2021-04-07T09:51:51Z</time>
      </trkpt>
      <trkpt lat="44.50436" lon="6.5931">
        <ele>2055</ele>
        <time>2021-04-07T09:51:52Z</time>
      </trkpt>
      <trkpt lat="44.50435" lon="6.59306">
        <ele>2056</ele>
        <time>2021-04-07T09:51:53Z</time>
      </trkpt>
      <trkpt lat="44.50434" lon="6.59303">
        <ele>2056</ele>
        <time>2021-04-07T09:51:54Z</time>
      </trkpt>
      <trkpt lat="44.50435" lon="6.59299">
        <ele>2056</ele>
        <time>2021-04-07T09:51:55Z</time>
      </trkpt>
      <trkpt lat="44.50436" lon="6.59295">
        <ele>2056</ele>
        <time>2021-04-07T09:51:56Z</time>
      </trkpt>
      <trkpt lat="44.50436" lon="6.59291">
        <ele>2056</ele>
        <time>2021-04-07T09:51:57Z</time>
      </trkpt>
      <trkpt lat="44.50437" lon="6.59287">
        <ele>2056</ele>
        <time>2021-04-07T09:51:58Z</time>
      </trkpt>
      <trkpt lat="44.50436" lon="6.59284">
        <ele>2056</ele>
        <time>2021-04-07T09:51:59Z</time>
      </trkpt>
      <trkpt lat="44.50435" lon="6.59283">
        <ele>2056</ele>
        <time>2021-04-07T09:52:00Z</time>
      </trkpt>
      <trkpt lat="44.50435" lon="6.59282">
        <ele>2056</ele>
        <time>2021-04-07T09:52:01Z</time>
      </trkpt>
      <trkpt lat="44.50435" lon="6.59282">
        <ele>2056</ele>
        <time>2021-04-07T09:52:02Z</time>
      </trkpt>
      <trkpt lat="44.50435" lon="6.59282">
        <ele>2056</ele>
        <time>2021-04-07T09:52:03Z</time>
      </trkpt>
      <trkpt lat="44.50435" lon="6.59282">
        <ele>2056</ele>
        <time>2021-04-07T09:52:04Z</time>
      </trkpt>
      <trkpt lat="44.50435" lon="6.59282">
        <ele>2056</ele>
        <time>2021-04-07T09:52:05Z</time>
      </trkpt>
      <trkpt lat="44.50435" lon="6.59282">
        <ele>2056</ele>
        <time>2021-04-07T09:52:06Z</time>
      </trkpt>
      <trkpt lat="44.50435" lon="6.59282">
        <ele>2056</ele>
        <time>2021-04-07T09:52:07Z</time>
      </trkpt>
      <trkpt lat="44.50435" lon="6.59282">
        <ele>2056</ele>
        <time>2021-04-07T09:52:08Z</time>
      </trkpt>
      <trkpt lat="44.50435" lon="6.59282">
        <ele>2056</ele>
        <time>2021-04-07T09:52:09Z</time>
      </trkpt>
      <trkpt lat="44.50435" lon="6.59282">
        <ele>2056</ele>
        <time>2021-04-07T09:52:10Z</time>
      </trkpt>
      <trkpt lat="44.50435" lon="6.59282">
        <ele>2056</ele>
        <time>2021-04-07T09:52:11Z</time>
      </trkpt>
      <trkpt lat="44.50435" lon="6.59282">
        <ele>2056</ele>
        <time>2021-04-07T09:52:12Z</time>
      </trkpt>
      <trkpt lat="44.50435" lon="6.59282">
        <ele>2056</ele>
        <time>2021-04-07T09:52:13Z</time>
      </trkpt>
      <trkpt lat="44.50435" lon="6.59282">
        <ele>2056</ele>
        <time>2021-04-07T09:52:14Z</time>
      </trkpt>
      <trkpt lat="44.50435" lon="6.59282">
        <ele>2056</ele>
        <time>2021-04-07T09:52:15Z</time>
      </trkpt>
      <trkpt lat="44.50437" lon="6.59291">
        <ele>2057</ele>
        <time>2021-04-07T09:52:16Z</time>
      </trkpt>
      <trkpt lat="44.50438" lon="6.59294">
        <ele>2058</ele>
        <time>2021-04-07T09:52:17Z</time>
      </trkpt>
      <trkpt lat="44.50438" lon="6.59296">
        <ele>2058</ele>
        <time>2021-04-07T09:52:18Z</time>
      </trkpt>
      <trkpt lat="44.50438" lon="6.59298">
        <ele>2058</ele>
        <time>2021-04-07T09:52:19Z</time>
      </trkpt>
      <trkpt lat="44.50437" lon="6.593">
        <ele>2058</ele>
        <time>2021-04-07T09:52:20Z</time>
      </trkpt>
      <trkpt lat="44.50437" lon="6.59301">
        <ele>2058</ele>
        <time>2021-04-07T09:52:21Z</time>
      </trkpt>
      <trkpt lat="44.50437" lon="6.59301">
        <ele>2058</ele>
        <time>2021-04-07T09:52:22Z</time>
      </trkpt>
      <trkpt lat="44.50437" lon="6.59301">
        <ele>2058</ele>
        <time>2021-04-07T09:52:23Z</time>
      </trkpt>
      <trkpt lat="44.50437" lon="6.59301">
        <ele>2058</ele>
        <time>2021-04-07T09:52:24Z</time>
      </trkpt>
      <trkpt lat="44.50437" lon="6.59301">
        <ele>2058</ele>
        <time>2021-04-07T09:52:25Z</time>
      </trkpt>
      <trkpt lat="44.50437" lon="6.59301">
        <ele>2058</ele>
        <time>2021-04-07T09:52:26Z</time>
      </trkpt>
      <trkpt lat="44.50437" lon="6.59301">
        <ele>2058</ele>
        <time>2021-04-07T09:52:27Z</time>
      </trkpt>
      <trkpt lat="44.50437" lon="6.59301">
        <ele>2058</ele>
        <time>2021-04-07T09:52:28Z</time>
      </trkpt>
      <trkpt lat="44.50437" lon="6.59301">
        <ele>2058</ele>
        <time>2021-04-07T09:52:29Z</time>
      </trkpt>
      <trkpt lat="44.50437" lon="6.59301">
        <ele>2058</ele>
        <time>2021-04-07T09:52:30Z</time>
      </trkpt>
      <trkpt lat="44.50437" lon="6.59301">
        <ele>2058</ele>
        <time>2021-04-07T09:52:31Z</time>
      </trkpt>
      <trkpt lat="44.50437" lon="6.59301">
        <ele>2058</ele>
        <time>2021-04-07T09:52:32Z</time>
      </trkpt>
      <trkpt lat="44.50437" lon="6.59301">
        <ele>2058</ele>
        <time>2021-04-07T09:52:33Z</time>
      </trkpt>
      <trkpt lat="44.50437" lon="6.59301">
        <ele>2058</ele>
        <time>2021-04-07T09:52:34Z</time>
      </trkpt>
      <trkpt lat="44.50436" lon="6.5931">
        <ele>2058</ele>
        <time>2021-04-07T09:52:35Z</time>
      </trkpt>
      <trkpt lat="44.50436" lon="6.59312">
        <ele>2058</ele>
        <time>2021-04-07T09:52:36Z</time>
      </trkpt>
      <trkpt lat="44.50436" lon="6.59312">
        <ele>2058</ele>
        <time>2021-04-07T09:52:37Z</time>
      </trkpt>
      <trkpt lat="44.50436" lon="6.59313">
        <ele>2058</ele>
        <time>2021-04-07T09:52:38Z</time>
      </trkpt>
      <trkpt lat="44.50436" lon="6.59313">
        <ele>2058</ele>
        <time>2021-04-07T09:52:39Z</time>
      </trkpt>
      <trkpt lat="44.50436" lon="6.59313">
        <ele>2058</ele>
        <time>2021-04-07T09:52:40Z</time>
      </trkpt>
      <trkpt lat="44.50436" lon="6.59313">
        <ele>2058</ele>
        <time>2021-04-07T09:52:41Z</time>
      </trkpt>
      <trkpt lat="44.50436" lon="6.59313">
        <ele>2058</ele>
        <time>2021-04-07T09:52:42Z</time>
      </trkpt>
      <trkpt lat="44.50436" lon="6.59313">
        <ele>2058</ele>
        <time>2021-04-07T09:52:43Z</time>
      </trkpt>
      <trkpt lat="44.50436" lon="6.59313">
        <ele>2058</ele>
        <time>2021-04-07T09:52:44Z</time>
      </trkpt>
      <trkpt lat="44.50436" lon="6.59313">
        <ele>2058</ele>
        <time>2021-04-07T09:52:45Z</time>
      </trkpt>
      <trkpt lat="44.50436" lon="6.59313">
        <ele>2058</ele>
        <time>2021-04-07T09:52:46Z</time>
      </trkpt>
      <trkpt lat="44.50436" lon="6.59313">
        <ele>2058</ele>
        <time>2021-04-07T09:52:47Z</time>
      </trkpt>
      <trkpt lat="44.50436" lon="6.59313">
        <ele>2058</ele>
        <time>2021-04-07T09:52:48Z</time>
      </trkpt>
      <trkpt lat="44.50436" lon="6.59313">
        <ele>2058</ele>
        <time>2021-04-07T09:52:49Z</time>
      </trkpt>
      <trkpt lat="44.50436" lon="6.59313">
        <ele>2058</ele>
        <time>2021-04-07T09:52:50Z</time>
      </trkpt>
      <trkpt lat="44.50436" lon="6.59313">
        <ele>2058</ele>
        <time>2021-04-07T09:52:51Z</time>
      </trkpt>
      <trkpt lat="44.50436" lon="6.59313">
        <ele>2058</ele>
        <time>2021-04-07T09:52:52Z</time>
      </trkpt>
      <trkpt lat="44.50436" lon="6.59313">
        <ele>2058</ele>
        <time>2021-04-07T09:52:53Z</time>
      </trkpt>
      <trkpt lat="44.50436" lon="6.59313">
        <ele>2058</ele>
        <time>2021-04-07T09:52:54Z</time>
      </trkpt>
      <trkpt lat="44.50436" lon="6.59313">
        <ele>2058</ele>
        <time>2021-04-07T09:52:55Z</time>
      </trkpt>
      <trkpt lat="44.50436" lon="6.59313">
        <ele>2058</ele>
        <time>2021-04-07T09:52:56Z</time>
      </trkpt>
      <trkpt lat="44.50436" lon="6.59313">
        <ele>2058</ele>
        <time>2021-04-07T09:52:57Z</time>
      </trkpt>
      <trkpt lat="44.50436" lon="6.59313">
        <ele>2058</ele>
        <time>2021-04-07T09:52:58Z</time>
      </trkpt>
      <trkpt lat="44.50436" lon="6.59313">
        <ele>2058</ele>
        <time>2021-04-07T09:52:59Z</time>
      </trkpt>
      <trkpt lat="44.50436" lon="6.59313">
        <ele>2058</ele>
        <time>2021-04-07T09:53:00Z</time>
      </trkpt>
      <trkpt lat="44.50436" lon="6.59313">
        <ele>2058</ele>
        <time>2021-04-07T09:53:01Z</time>
      </trkpt>
      <trkpt lat="44.50436" lon="6.59313">
        <ele>2058</ele>
        <time>2021-04-07T09:53:02Z</time>
      </trkpt>
      <trkpt lat="44.50436" lon="6.59313">
        <ele>2058</ele>
        <time>2021-04-07T09:53:03Z</time>
      </trkpt>
      <trkpt lat="44.50436" lon="6.59313">
        <ele>2058</ele>
        <time>2021-04-07T09:53:04Z</time>
      </trkpt>
      <trkpt lat="44.50436" lon="6.59313">
        <ele>2058</ele>
        <time>2021-04-07T09:53:05Z</time>
      </trkpt>
      <trkpt lat="44.50436" lon="6.59313">
        <ele>2058</ele>
        <time>2021-04-07T09:53:06Z</time>
      </trkpt>
      <trkpt lat="44.50436" lon="6.59313">
        <ele>2058</ele>
        <time>2021-04-07T09:53:07Z</time>
      </trkpt>
      <trkpt lat="44.50436" lon="6.59313">
        <ele>2058</ele>
        <time>2021-04-07T09:53:08Z</time>
      </trkpt>
      <trkpt lat="44.50436" lon="6.59313">
        <ele>2058</ele>
        <time>2021-04-07T09:53:09Z</time>
      </trkpt>
      <trkpt lat="44.50436" lon="6.59313">
        <ele>2058</ele>
        <time>2021-04-07T09:53:10Z</time>
      </trkpt>
      <trkpt lat="44.50436" lon="6.59313">
        <ele>2058</ele>
        <time>2021-04-07T09:53:11Z</time>
      </trkpt>
      <trkpt lat="44.50436" lon="6.59313">
        <ele>2058</ele>
        <time>2021-04-07T09:53:12Z</time>
      </trkpt>
      <trkpt lat="44.50436" lon="6.59313">
        <ele>2058</ele>
        <time>2021-04-07T09:53:13Z</time>
      </trkpt>
      <trkpt lat="44.50436" lon="6.59313">
        <ele>2058</ele>
        <time>2021-04-07T09:53:14Z</time>
      </trkpt>
      <trkpt lat="44.50436" lon="6.59313">
        <ele>2058</ele>
        <time>2021-04-07T09:53:15Z</time>
      </trkpt>
      <trkpt lat="44.50436" lon="6.59313">
        <ele>2058</ele>
        <time>2021-04-07T09:53:16Z</time>
      </trkpt>
      <trkpt lat="44.50436" lon="6.59313">
        <ele>2058</ele>
        <time>2021-04-07T09:53:17Z</time>
      </trkpt>
      <trkpt lat="44.50436" lon="6.59313">
        <ele>2058</ele>
        <time>2021-04-07T09:53:18Z</time>
      </trkpt>
      <trkpt lat="44.5043" lon="6.59319">
        <ele>2053</ele>
        <time>2021-04-07T09:53:19Z</time>
      </trkpt>
      <trkpt lat="44.50428" lon="6.59318">
        <ele>2052</ele>
        <time>2021-04-07T09:53:20Z</time>
      </trkpt>
      <trkpt lat="44.50427" lon="6.59316">
        <ele>2051</ele>
        <time>2021-04-07T09:53:21Z</time>
      </trkpt>
      <trkpt lat="44.50427" lon="6.59315">
        <ele>2051</ele>
        <time>2021-04-07T09:53:22Z</time>
      </trkpt>
      <trkpt lat="44.50426" lon="6.59313">
        <ele>2051</ele>
        <time>2021-04-07T09:53:23Z</time>
      </trkpt>
      <trkpt lat="44.50425" lon="6.59312">
        <ele>2051</ele>
        <time>2021-04-07T09:53:24Z</time>
      </trkpt>
      <trkpt lat="44.50423" lon="6.5931">
        <ele>2051</ele>
        <time>2021-04-07T09:53:25Z</time>
      </trkpt>
      <trkpt lat="44.50422" lon="6.59309">
        <ele>2052</ele>
        <time>2021-04-07T09:53:26Z</time>
      </trkpt>
      <trkpt lat="44.50421" lon="6.59308">
        <ele>2052</ele>
        <time>2021-04-07T09:53:27Z</time>
      </trkpt>
      <trkpt lat="44.5042" lon="6.59307">
        <ele>2053</ele>
        <time>2021-04-07T09:53:28Z</time>
      </trkpt>
      <trkpt lat="44.50419" lon="6.59306">
        <ele>2053</ele>
        <time>2021-04-07T09:53:29Z</time>
      </trkpt>
      <trkpt lat="44.50419" lon="6.59306">
        <ele>2053</ele>
        <time>2021-04-07T09:53:30Z</time>
      </trkpt>
      <trkpt lat="44.50419" lon="6.59306">
        <ele>2054</ele>
        <time>2021-04-07T09:53:31Z</time>
      </trkpt>
      <trkpt lat="44.50419" lon="6.59306">
        <ele>2054</ele>
        <time>2021-04-07T09:53:32Z</time>
      </trkpt>
      <trkpt lat="44.50419" lon="6.59306">
        <ele>2054</ele>
        <time>2021-04-07T09:53:33Z</time>
      </trkpt>
      <trkpt lat="44.50418" lon="6.59302">
        <ele>2054</ele>
        <time>2021-04-07T09:53:34Z</time>
      </trkpt>
      <trkpt lat="44.50417" lon="6.593">
        <ele>2055</ele>
        <time>2021-04-07T09:53:35Z</time>
      </trkpt>
      <trkpt lat="44.50416" lon="6.59297">
        <ele>2055</ele>
        <time>2021-04-07T09:53:36Z</time>
      </trkpt>
      <trkpt lat="44.50416" lon="6.59295">
        <ele>2056</ele>
        <time>2021-04-07T09:53:37Z</time>
      </trkpt>
      <trkpt lat="44.50414" lon="6.59292">
        <ele>2056</ele>
        <time>2021-04-07T09:53:38Z</time>
      </trkpt>
      <trkpt lat="44.50413" lon="6.59288">
        <ele>2057</ele>
        <time>2021-04-07T09:53:39Z</time>
      </trkpt>
      <trkpt lat="44.50412" lon="6.59285">
        <ele>2057</ele>
        <time>2021-04-07T09:53:40Z</time>
      </trkpt>
      <trkpt lat="44.50412" lon="6.59282">
        <ele>2057</ele>
        <time>2021-04-07T09:53:41Z</time>
      </trkpt>
      <trkpt lat="44.50411" lon="6.59278">
        <ele>2057</ele>
        <time>2021-04-07T09:53:42Z</time>
      </trkpt>
      <trkpt lat="44.50411" lon="6.59275">
        <ele>2057</ele>
        <time>2021-04-07T09:53:43Z</time>
      </trkpt>
      <trkpt lat="44.5041" lon="6.59272">
        <ele>2057</ele>
        <time>2021-04-07T09:53:44Z</time>
      </trkpt>
      <trkpt lat="44.5041" lon="6.5927">
        <ele>2058</ele>
        <time>2021-04-07T09:53:45Z</time>
      </trkpt>
      <trkpt lat="44.5041" lon="6.59269">
        <ele>2058</ele>
        <time>2021-04-07T09:53:46Z</time>
      </trkpt>
      <trkpt lat="44.5041" lon="6.59269">
        <ele>2058</ele>
        <time>2021-04-07T09:53:47Z</time>
      </trkpt>
      <trkpt lat="44.5041" lon="6.59268">
        <ele>2058</ele>
        <time>2021-04-07T09:53:48Z</time>
      </trkpt>
      <trkpt lat="44.5041" lon="6.59268">
        <ele>2058</ele>
        <time>2021-04-07T09:53:49Z</time>
      </trkpt>
      <trkpt lat="44.5041" lon="6.59268">
        <ele>2058</ele>
        <time>2021-04-07T09:53:50Z</time>
      </trkpt>
      <trkpt lat="44.5041" lon="6.59268">
        <ele>2058</ele>
        <time>2021-04-07T09:53:51Z</time>
      </trkpt>
      <trkpt lat="44.5041" lon="6.59268">
        <ele>2058</ele>
        <time>2021-04-07T09:53:52Z</time>
      </trkpt>
      <trkpt lat="44.5041" lon="6.59268">
        <ele>2058</ele>
        <time>2021-04-07T09:53:53Z</time>
      </trkpt>
      <trkpt lat="44.5041" lon="6.59268">
        <ele>2058</ele>
        <time>2021-04-07T09:53:54Z</time>
      </trkpt>
      <trkpt lat="44.5041" lon="6.59268">
        <ele>2058</ele>
        <time>2021-04-07T09:53:55Z</time>
      </trkpt>
      <trkpt lat="44.5041" lon="6.59268">
        <ele>2058</ele>
        <time>2021-04-07T09:53:56Z</time>
      </trkpt>
      <trkpt lat="44.5041" lon="6.59268">
        <ele>2058</ele>
        <time>2021-04-07T09:53:57Z</time>
      </trkpt>
      <trkpt lat="44.5041" lon="6.59268">
        <ele>2058</ele>
        <time>2021-04-07T09:53:58Z</time>
      </trkpt>
      <trkpt lat="44.5041" lon="6.59268">
        <ele>2058</ele>
        <time>2021-04-07T09:53:59Z</time>
      </trkpt>
      <trkpt lat="44.5041" lon="6.59268">
        <ele>2058</ele>
        <time>2021-04-07T09:54:00Z</time>
      </trkpt>
      <trkpt lat="44.5041" lon="6.59268">
        <ele>2058</ele>
        <time>2021-04-07T09:54:01Z</time>
      </trkpt>
      <trkpt lat="44.5041" lon="6.59268">
        <ele>2058</ele>
        <time>2021-04-07T09:54:02Z</time>
      </trkpt>
      <trkpt lat="44.5041" lon="6.59268">
        <ele>2058</ele>
        <time>2021-04-07T09:54:03Z</time>
      </trkpt>
      <trkpt lat="44.50416" lon="6.59262">
        <ele>2059</ele>
        <time>2021-04-07T09:54:04Z</time>
      </trkpt>
      <trkpt lat="44.50418" lon="6.59257">
        <ele>2059</ele>
        <time>2021-04-07T09:54:05Z</time>
      </trkpt>
      <trkpt lat="44.50419" lon="6.59252">
        <ele>2059</ele>
        <time>2021-04-07T09:54:06Z</time>
      </trkpt>
      <trkpt lat="44.5042" lon="6.59248">
        <ele>2059</ele>
        <time>2021-04-07T09:54:07Z</time>
      </trkpt>
      <trkpt lat="44.50421" lon="6.59246">
        <ele>2059</ele>
        <time>2021-04-07T09:54:08Z</time>
      </trkpt>
      <trkpt lat="44.50421" lon="6.59245">
        <ele>2059</ele>
        <time>2021-04-07T09:54:09Z</time>
      </trkpt>
      <trkpt lat="44.50421" lon="6.59245">
        <ele>2059</ele>
        <time>2021-04-07T09:54:10Z</time>
      </trkpt>
      <trkpt lat="44.50421" lon="6.59245">
        <ele>2059</ele>
        <time>2021-04-07T09:54:11Z</time>
      </trkpt>
      <trkpt lat="44.50421" lon="6.59245">
        <ele>2059</ele>
        <time>2021-04-07T09:54:12Z</time>
      </trkpt>
      <trkpt lat="44.50421" lon="6.59245">
        <ele>2059</ele>
        <time>2021-04-07T09:54:13Z</time>
      </trkpt>
      <trkpt lat="44.50421" lon="6.59245">
        <ele>2059</ele>
        <time>2021-04-07T09:54:14Z</time>
      </trkpt>
      <trkpt lat="44.50421" lon="6.59245">
        <ele>2059</ele>
        <time>2021-04-07T09:54:15Z</time>
      </trkpt>
      <trkpt lat="44.50421" lon="6.59245">
        <ele>2059</ele>
        <time>2021-04-07T09:54:16Z</time>
      </trkpt>
      <trkpt lat="44.50421" lon="6.59245">
        <ele>2059</ele>
        <time>2021-04-07T09:54:17Z</time>
      </trkpt>
      <trkpt lat="44.50421" lon="6.59245">
        <ele>2059</ele>
        <time>2021-04-07T09:54:18Z</time>
      </trkpt>
      <trkpt lat="44.50421" lon="6.59245">
        <ele>2059</ele>
        <time>2021-04-07T09:54:19Z</time>
      </trkpt>
      <trkpt lat="44.50421" lon="6.59245">
        <ele>2059</ele>
        <time>2021-04-07T09:54:20Z</time>
      </trkpt>
      <trkpt lat="44.50421" lon="6.59245">
        <ele>2059</ele>
        <time>2021-04-07T09:54:21Z</time>
      </trkpt>
      <trkpt lat="44.50421" lon="6.59245">
        <ele>2059</ele>
        <time>2021-04-07T09:54:22Z</time>
      </trkpt>
      <trkpt lat="44.50421" lon="6.59245">
        <ele>2059</ele>
        <time>2021-04-07T09:54:23Z</time>
      </trkpt>
      <trkpt lat="44.50421" lon="6.59245">
        <ele>2059</ele>
        <time>2021-04-07T09:54:24Z</time>
      </trkpt>
      <trkpt lat="44.50421" lon="6.59245">
        <ele>2059</ele>
        <time>2021-04-07T09:54:25Z</time>
      </trkpt>
      <trkpt lat="44.50421" lon="6.59245">
        <ele>2059</ele>
        <time>2021-04-07T09:54:26Z</time>
      </trkpt>
      <trkpt lat="44.50421" lon="6.59245">
        <ele>2059</ele>
        <time>2021-04-07T09:54:27Z</time>
      </trkpt>
      <trkpt lat="44.50421" lon="6.59245">
        <ele>2059</ele>
        <time>2021-04-07T09:54:28Z</time>
      </trkpt>
      <trkpt lat="44.50421" lon="6.59245">
        <ele>2059</ele>
        <time>2021-04-07T09:54:29Z</time>
      </trkpt>
      <trkpt lat="44.50421" lon="6.59245">
        <ele>2059</ele>
        <time>2021-04-07T09:54:30Z</time>
      </trkpt>
      <trkpt lat="44.50421" lon="6.59245">
        <ele>2059</ele>
        <time>2021-04-07T09:54:31Z</time>
      </trkpt>
      <trkpt lat="44.50421" lon="6.59245">
        <ele>2059</ele>
        <time>2021-04-07T09:54:32Z</time>
      </trkpt>
      <trkpt lat="44.50421" lon="6.59245">
        <ele>2059</ele>
        <time>2021-04-07T09:54:33Z</time>
      </trkpt>
      <trkpt lat="44.50421" lon="6.59245">
        <ele>2059</ele>
        <time>2021-04-07T09:54:34Z</time>
      </trkpt>
      <trkpt lat="44.50421" lon="6.59245">
        <ele>2059</ele>
        <time>2021-04-07T09:54:35Z</time>
      </trkpt>
      <trkpt lat="44.50421" lon="6.59245">
        <ele>2059</ele>
        <time>2021-04-07T09:54:36Z</time>
      </trkpt>
      <trkpt lat="44.50421" lon="6.59245">
        <ele>2059</ele>
        <time>2021-04-07T09:54:37Z</time>
      </trkpt>
      <trkpt lat="44.50421" lon="6.59245">
        <ele>2059</ele>
        <time>2021-04-07T09:54:38Z</time>
      </trkpt>
      <trkpt lat="44.50421" lon="6.59245">
        <ele>2059</ele>
        <time>2021-04-07T09:54:39Z</time>
      </trkpt>
      <trkpt lat="44.50421" lon="6.59245">
        <ele>2059</ele>
        <time>2021-04-07T09:54:40Z</time>
      </trkpt>
      <trkpt lat="44.50421" lon="6.59245">
        <ele>2059</ele>
        <time>2021-04-07T09:54:41Z</time>
      </trkpt>
      <trkpt lat="44.50421" lon="6.59245">
        <ele>2059</ele>
        <time>2021-04-07T09:54:42Z</time>
      </trkpt>
      <trkpt lat="44.50421" lon="6.59245">
        <ele>2059</ele>
        <time>2021-04-07T09:54:43Z</time>
      </trkpt>
      <trkpt lat="44.50421" lon="6.59245">
        <ele>2059</ele>
        <time>2021-04-07T09:54:44Z</time>
      </trkpt>
      <trkpt lat="44.50421" lon="6.59245">
        <ele>2059</ele>
        <time>2021-04-07T09:54:45Z</time>
      </trkpt>
      <trkpt lat="44.50421" lon="6.59245">
        <ele>2059</ele>
        <time>2021-04-07T09:54:46Z</time>
      </trkpt>
      <trkpt lat="44.50421" lon="6.59245">
        <ele>2059</ele>
        <time>2021-04-07T09:54:47Z</time>
      </trkpt>
      <trkpt lat="44.50421" lon="6.59245">
        <ele>2059</ele>
        <time>2021-04-07T09:54:48Z</time>
      </trkpt>
      <trkpt lat="44.50421" lon="6.59245">
        <ele>2059</ele>
        <time>2021-04-07T09:54:49Z</time>
      </trkpt>
      <trkpt lat="44.50421" lon="6.59245">
        <ele>2059</ele>
        <time>2021-04-07T09:54:50Z</time>
      </trkpt>
      <trkpt lat="44.50421" lon="6.59245">
        <ele>2059</ele>
        <time>2021-04-07T09:54:51Z</time>
      </trkpt>
      <trkpt lat="44.50421" lon="6.59245">
        <ele>2059</ele>
        <time>2021-04-07T09:54:52Z</time>
      </trkpt>
      <trkpt lat="44.50421" lon="6.59245">
        <ele>2059</ele>
        <time>2021-04-07T09:54:53Z</time>
      </trkpt>
      <trkpt lat="44.50421" lon="6.59245">
        <ele>2059</ele>
        <time>2021-04-07T09:54:54Z</time>
      </trkpt>
      <trkpt lat="44.50421" lon="6.59245">
        <ele>2059</ele>
        <time>2021-04-07T09:54:55Z</time>
      </trkpt>
      <trkpt lat="44.50421" lon="6.59245">
        <ele>2059</ele>
        <time>2021-04-07T09:54:56Z</time>
      </trkpt>
      <trkpt lat="44.50421" lon="6.59245">
        <ele>2059</ele>
        <time>2021-04-07T09:54:57Z</time>
      </trkpt>
      <trkpt lat="44.50421" lon="6.59245">
        <ele>2059</ele>
        <time>2021-04-07T09:54:58Z</time>
      </trkpt>
      <trkpt lat="44.50421" lon="6.59245">
        <ele>2059</ele>
        <time>2021-04-07T09:54:59Z</time>
      </trkpt>
      <trkpt lat="44.50421" lon="6.59245">
        <ele>2059</ele>
        <time>2021-04-07T09:55:00Z</time>
      </trkpt>
      <trkpt lat="44.50421" lon="6.59245">
        <ele>2059</ele>
        <time>2021-04-07T09:55:01Z</time>
      </trkpt>
      <trkpt lat="44.50421" lon="6.59245">
        <ele>2059</ele>
        <time>2021-04-07T09:55:02Z</time>
      </trkpt>
      <trkpt lat="44.50421" lon="6.59245">
        <ele>2059</ele>
        <time>2021-04-07T09:55:03Z</time>
      </trkpt>
      <trkpt lat="44.50421" lon="6.59245">
        <ele>2059</ele>
        <time>2021-04-07T09:55:04Z</time>
      </trkpt>
      <trkpt lat="44.50421" lon="6.59245">
        <ele>2059</ele>
        <time>2021-04-07T09:55:05Z</time>
      </trkpt>
      <trkpt lat="44.50421" lon="6.59245">
        <ele>2059</ele>
        <time>2021-04-07T09:55:06Z</time>
      </trkpt>
      <trkpt lat="44.50421" lon="6.59245">
        <ele>2059</ele>
        <time>2021-04-07T09:55:07Z</time>
      </trkpt>
      <trkpt lat="44.50421" lon="6.59245">
        <ele>2059</ele>
        <time>2021-04-07T09:55:08Z</time>
      </trkpt>
      <trkpt lat="44.50421" lon="6.59245">
        <ele>2059</ele>
        <time>2021-04-07T09:55:09Z</time>
      </trkpt>
      <trkpt lat="44.50421" lon="6.59245">
        <ele>2059</ele>
        <time>2021-04-07T09:55:10Z</time>
      </trkpt>
      <trkpt lat="44.50421" lon="6.59245">
        <ele>2059</ele>
        <time>2021-04-07T09:55:11Z</time>
      </trkpt>
      <trkpt lat="44.50421" lon="6.59245">
        <ele>2059</ele>
        <time>2021-04-07T09:55:12Z</time>
      </trkpt>
      <trkpt lat="44.50421" lon="6.59245">
        <ele>2059</ele>
        <time>2021-04-07T09:55:13Z</time>
      </trkpt>
      <trkpt lat="44.50421" lon="6.59245">
        <ele>2059</ele>
        <time>2021-04-07T09:55:14Z</time>
      </trkpt>
      <trkpt lat="44.50421" lon="6.59245">
        <ele>2059</ele>
        <time>2021-04-07T09:55:15Z</time>
      </trkpt>
      <trkpt lat="44.50421" lon="6.59245">
        <ele>2059</ele>
        <time>2021-04-07T09:55:16Z</time>
      </trkpt>
      <trkpt lat="44.50421" lon="6.59245">
        <ele>2059</ele>
        <time>2021-04-07T09:55:17Z</time>
      </trkpt>
      <trkpt lat="44.50421" lon="6.59245">
        <ele>2059</ele>
        <time>2021-04-07T09:55:18Z</time>
      </trkpt>
      <trkpt lat="44.50421" lon="6.59245">
        <ele>2059</ele>
        <time>2021-04-07T09:55:19Z</time>
      </trkpt>
      <trkpt lat="44.50421" lon="6.59245">
        <ele>2059</ele>
        <time>2021-04-07T09:55:20Z</time>
      </trkpt>
      <trkpt lat="44.50421" lon="6.59245">
        <ele>2059</ele>
        <time>2021-04-07T09:55:21Z</time>
      </trkpt>
      <trkpt lat="44.50421" lon="6.59245">
        <ele>2059</ele>
        <time>2021-04-07T09:55:22Z</time>
      </trkpt>
      <trkpt lat="44.50421" lon="6.59245">
        <ele>2059</ele>
        <time>2021-04-07T09:55:23Z</time>
      </trkpt>
      <trkpt lat="44.50421" lon="6.59245">
        <ele>2059</ele>
        <time>2021-04-07T09:55:24Z</time>
      </trkpt>
      <trkpt lat="44.50421" lon="6.59245">
        <ele>2059</ele>
        <time>2021-04-07T09:55:25Z</time>
      </trkpt>
      <trkpt lat="44.50421" lon="6.59245">
        <ele>2059</ele>
        <time>2021-04-07T09:55:26Z</time>
      </trkpt>
      <trkpt lat="44.50421" lon="6.59245">
        <ele>2059</ele>
        <time>2021-04-07T09:55:27Z</time>
      </trkpt>
      <trkpt lat="44.50421" lon="6.59245">
        <ele>2059</ele>
        <time>2021-04-07T09:55:28Z</time>
      </trkpt>
      <trkpt lat="44.50421" lon="6.59245">
        <ele>2059</ele>
        <time>2021-04-07T09:55:29Z</time>
      </trkpt>
      <trkpt lat="44.50421" lon="6.59245">
        <ele>2059</ele>
        <time>2021-04-07T09:55:30Z</time>
      </trkpt>
      <trkpt lat="44.50421" lon="6.59245">
        <ele>2059</ele>
        <time>2021-04-07T09:55:31Z</time>
      </trkpt>
      <trkpt lat="44.50421" lon="6.59245">
        <ele>2059</ele>
        <time>2021-04-07T09:55:32Z</time>
      </trkpt>
      <trkpt lat="44.50421" lon="6.59245">
        <ele>2059</ele>
        <time>2021-04-07T09:55:33Z</time>
      </trkpt>
      <trkpt lat="44.50421" lon="6.59245">
        <ele>2059</ele>
        <time>2021-04-07T09:55:34Z</time>
      </trkpt>
      <trkpt lat="44.50421" lon="6.59245">
        <ele>2059</ele>
        <time>2021-04-07T09:55:35Z</time>
      </trkpt>
      <trkpt lat="44.50421" lon="6.59245">
        <ele>2059</ele>
        <time>2021-04-07T09:55:36Z</time>
      </trkpt>
      <trkpt lat="44.50421" lon="6.59245">
        <ele>2059</ele>
        <time>2021-04-07T09:55:37Z</time>
      </trkpt>
      <trkpt lat="44.50421" lon="6.59245">
        <ele>2059</ele>
        <time>2021-04-07T09:55:38Z</time>
      </trkpt>
      <trkpt lat="44.50421" lon="6.59245">
        <ele>2059</ele>
        <time>2021-04-07T09:55:39Z</time>
      </trkpt>
      <trkpt lat="44.50421" lon="6.59245">
        <ele>2059</ele>
        <time>2021-04-07T09:55:40Z</time>
      </trkpt>
      <trkpt lat="44.50421" lon="6.59245">
        <ele>2059</ele>
        <time>2021-04-07T09:55:41Z</time>
      </trkpt>
      <trkpt lat="44.50421" lon="6.59245">
        <ele>2059</ele>
        <time>2021-04-07T09:55:42Z</time>
      </trkpt>
      <trkpt lat="44.50421" lon="6.59245">
        <ele>2059</ele>
        <time>2021-04-07T09:55:43Z</time>
      </trkpt>
      <trkpt lat="44.50421" lon="6.59245">
        <ele>2059</ele>
        <time>2021-04-07T09:55:44Z</time>
      </trkpt>
      <trkpt lat="44.50421" lon="6.59245">
        <ele>2059</ele>
        <time>2021-04-07T09:55:45Z</time>
      </trkpt>
      <trkpt lat="44.50421" lon="6.59245">
        <ele>2059</ele>
        <time>2021-04-07T09:55:46Z</time>
      </trkpt>
      <trkpt lat="44.50421" lon="6.59245">
        <ele>2059</ele>
        <time>2021-04-07T09:55:47Z</time>
      </trkpt>
      <trkpt lat="44.50421" lon="6.59245">
        <ele>2059</ele>
        <time>2021-04-07T09:55:48Z</time>
      </trkpt>
      <trkpt lat="44.50421" lon="6.59245">
        <ele>2059</ele>
        <time>2021-04-07T09:55:49Z</time>
      </trkpt>
      <trkpt lat="44.50421" lon="6.59245">
        <ele>2059</ele>
        <time>2021-04-07T09:55:50Z</time>
      </trkpt>
      <trkpt lat="44.50421" lon="6.59245">
        <ele>2059</ele>
        <time>2021-04-07T09:55:51Z</time>
      </trkpt>
      <trkpt lat="44.50421" lon="6.59245">
        <ele>2059</ele>
        <time>2021-04-07T09:55:52Z</time>
      </trkpt>
      <trkpt lat="44.50421" lon="6.59245">
        <ele>2059</ele>
        <time>2021-04-07T09:55:53Z</time>
      </trkpt>
      <trkpt lat="44.50421" lon="6.59245">
        <ele>2059</ele>
        <time>2021-04-07T09:55:54Z</time>
      </trkpt>
      <trkpt lat="44.50421" lon="6.59245">
        <ele>2059</ele>
        <time>2021-04-07T09:55:55Z</time>
      </trkpt>
      <trkpt lat="44.50421" lon="6.59245">
        <ele>2059</ele>
        <time>2021-04-07T09:55:56Z</time>
      </trkpt>
      <trkpt lat="44.50421" lon="6.59245">
        <ele>2059</ele>
        <time>2021-04-07T09:55:57Z</time>
      </trkpt>
      <trkpt lat="44.50421" lon="6.59245">
        <ele>2059</ele>
        <time>2021-04-07T09:55:58Z</time>
      </trkpt>
      <trkpt lat="44.50421" lon="6.59245">
        <ele>2059</ele>
        <time>2021-04-07T09:55:59Z</time>
      </trkpt>
      <trkpt lat="44.50421" lon="6.59245">
        <ele>2059</ele>
        <time>2021-04-07T09:56:00Z</time>
      </trkpt>
      <trkpt lat="44.50421" lon="6.59245">
        <ele>2059</ele>
        <time>2021-04-07T09:56:01Z</time>
      </trkpt>
      <trkpt lat="44.50421" lon="6.59245">
        <ele>2059</ele>
        <time>2021-04-07T09:56:02Z</time>
      </trkpt>
      <trkpt lat="44.50421" lon="6.59245">
        <ele>2059</ele>
        <time>2021-04-07T09:56:03Z</time>
      </trkpt>
      <trkpt lat="44.50421" lon="6.59245">
        <ele>2059</ele>
        <time>2021-04-07T09:56:04Z</time>
      </trkpt>
      <trkpt lat="44.50421" lon="6.59245">
        <ele>2059</ele>
        <time>2021-04-07T09:56:05Z</time>
      </trkpt>
      <trkpt lat="44.50421" lon="6.59245">
        <ele>2059</ele>
        <time>2021-04-07T09:56:06Z</time>
      </trkpt>
      <trkpt lat="44.50421" lon="6.59245">
        <ele>2059</ele>
        <time>2021-04-07T09:56:07Z</time>
      </trkpt>
      <trkpt lat="44.50421" lon="6.59245">
        <ele>2059</ele>
        <time>2021-04-07T09:56:08Z</time>
      </trkpt>
      <trkpt lat="44.50421" lon="6.59245">
        <ele>2059</ele>
        <time>2021-04-07T09:56:09Z</time>
      </trkpt>
      <trkpt lat="44.50428" lon="6.59242">
        <ele>2058</ele>
        <time>2021-04-07T09:56:10Z</time>
      </trkpt>
      <trkpt lat="44.5043" lon="6.59241">
        <ele>2057</ele>
        <time>2021-04-07T09:56:11Z</time>
      </trkpt>
      <trkpt lat="44.50431" lon="6.59239">
        <ele>2057</ele>
        <time>2021-04-07T09:56:12Z</time>
      </trkpt>
      <trkpt lat="44.50433" lon="6.59238">
        <ele>2057</ele>
        <time>2021-04-07T09:56:13Z</time>
      </trkpt>
      <trkpt lat="44.50434" lon="6.59238">
        <ele>2057</ele>
        <time>2021-04-07T09:56:14Z</time>
      </trkpt>
      <trkpt lat="44.50436" lon="6.59236">
        <ele>2057</ele>
        <time>2021-04-07T09:56:15Z</time>
      </trkpt>
      <trkpt lat="44.50439" lon="6.59236">
        <ele>2057</ele>
        <time>2021-04-07T09:56:16Z</time>
      </trkpt>
      <trkpt lat="44.5044" lon="6.59239">
        <ele>2056</ele>
        <time>2021-04-07T09:56:17Z</time>
      </trkpt>
      <trkpt lat="44.50441" lon="6.59242">
        <ele>2056</ele>
        <time>2021-04-07T09:56:18Z</time>
      </trkpt>
      <trkpt lat="44.50441" lon="6.59247">
        <ele>2056</ele>
        <time>2021-04-07T09:56:19Z</time>
      </trkpt>
      <trkpt lat="44.50442" lon="6.59253">
        <ele>2056</ele>
        <time>2021-04-07T09:56:20Z</time>
      </trkpt>
      <trkpt lat="44.50442" lon="6.59257">
        <ele>2056</ele>
        <time>2021-04-07T09:56:21Z</time>
      </trkpt>
      <trkpt lat="44.50442" lon="6.59261">
        <ele>2055</ele>
        <time>2021-04-07T09:56:22Z</time>
      </trkpt>
      <trkpt lat="44.50442" lon="6.59265">
        <ele>2055</ele>
        <time>2021-04-07T09:56:23Z</time>
      </trkpt>
      <trkpt lat="44.50443" lon="6.59264">
        <ele>2055</ele>
        <time>2021-04-07T09:56:24Z</time>
      </trkpt>
      <trkpt lat="44.50443" lon="6.59264">
        <ele>2055</ele>
        <time>2021-04-07T09:56:25Z</time>
      </trkpt>
      <trkpt lat="44.50443" lon="6.59264">
        <ele>2055</ele>
        <time>2021-04-07T09:56:26Z</time>
      </trkpt>
      <trkpt lat="44.50444" lon="6.59265">
        <ele>2055</ele>
        <time>2021-04-07T09:56:27Z</time>
      </trkpt>
      <trkpt lat="44.50444" lon="6.59265">
        <ele>2055</ele>
        <time>2021-04-07T09:56:28Z</time>
      </trkpt>
      <trkpt lat="44.50444" lon="6.59265">
        <ele>2055</ele>
        <time>2021-04-07T09:56:29Z</time>
      </trkpt>
      <trkpt lat="44.50444" lon="6.59265">
        <ele>2055</ele>
        <time>2021-04-07T09:56:30Z</time>
      </trkpt>
      <trkpt lat="44.50444" lon="6.59265">
        <ele>2055</ele>
        <time>2021-04-07T09:56:31Z</time>
      </trkpt>
      <trkpt lat="44.50444" lon="6.59265">
        <ele>2055</ele>
        <time>2021-04-07T09:56:32Z</time>
      </trkpt>
      <trkpt lat="44.50448" lon="6.59258">
        <ele>2053</ele>
        <time>2021-04-07T09:56:33Z</time>
      </trkpt>
      <trkpt lat="44.50448" lon="6.59254">
        <ele>2052</ele>
        <time>2021-04-07T09:56:34Z</time>
      </trkpt>
      <trkpt lat="44.50449" lon="6.59249">
        <ele>2051</ele>
        <time>2021-04-07T09:56:35Z</time>
      </trkpt>
      <trkpt lat="44.50452" lon="6.59245">
        <ele>2049</ele>
        <time>2021-04-07T09:56:36Z</time>
      </trkpt>
      <trkpt lat="44.50455" lon="6.59242">
        <ele>2048</ele>
        <time>2021-04-07T09:56:37Z</time>
      </trkpt>
      <trkpt lat="44.50458" lon="6.59239">
        <ele>2048</ele>
        <time>2021-04-07T09:56:38Z</time>
      </trkpt>
      <trkpt lat="44.50461" lon="6.59235">
        <ele>2047</ele>
        <time>2021-04-07T09:56:39Z</time>
      </trkpt>
      <trkpt lat="44.50464" lon="6.59233">
        <ele>2047</ele>
        <time>2021-04-07T09:56:40Z</time>
      </trkpt>
      <trkpt lat="44.50466" lon="6.59231">
        <ele>2046</ele>
        <time>2021-04-07T09:56:41Z</time>
      </trkpt>
      <trkpt lat="44.50468" lon="6.59232">
        <ele>2046</ele>
        <time>2021-04-07T09:56:42Z</time>
      </trkpt>
      <trkpt lat="44.5047" lon="6.59234">
        <ele>2046</ele>
        <time>2021-04-07T09:56:43Z</time>
      </trkpt>
      <trkpt lat="44.50472" lon="6.59235">
        <ele>2045</ele>
        <time>2021-04-07T09:56:44Z</time>
      </trkpt>
      <trkpt lat="44.50475" lon="6.59233">
        <ele>2045</ele>
        <time>2021-04-07T09:56:45Z</time>
      </trkpt>
      <trkpt lat="44.50478" lon="6.59231">
        <ele>2045</ele>
        <time>2021-04-07T09:56:46Z</time>
      </trkpt>
      <trkpt lat="44.50479" lon="6.59229">
        <ele>2044</ele>
        <time>2021-04-07T09:56:47Z</time>
      </trkpt>
      <trkpt lat="44.50481" lon="6.59229">
        <ele>2043</ele>
        <time>2021-04-07T09:56:48Z</time>
      </trkpt>
      <trkpt lat="44.50481" lon="6.59233">
        <ele>2042</ele>
        <time>2021-04-07T09:56:49Z</time>
      </trkpt>
      <trkpt lat="44.50481" lon="6.59238">
        <ele>2040</ele>
        <time>2021-04-07T09:56:50Z</time>
      </trkpt>
      <trkpt lat="44.50481" lon="6.59243">
        <ele>2039</ele>
        <time>2021-04-07T09:56:51Z</time>
      </trkpt>
      <trkpt lat="44.50479" lon="6.59247">
        <ele>2039</ele>
        <time>2021-04-07T09:56:52Z</time>
      </trkpt>
      <trkpt lat="44.50478" lon="6.59251">
        <ele>2038</ele>
        <time>2021-04-07T09:56:53Z</time>
      </trkpt>
      <trkpt lat="44.50478" lon="6.59254">
        <ele>2037</ele>
        <time>2021-04-07T09:56:54Z</time>
      </trkpt>
      <trkpt lat="44.50478" lon="6.59257">
        <ele>2036</ele>
        <time>2021-04-07T09:56:55Z</time>
      </trkpt>
      <trkpt lat="44.50477" lon="6.59259">
        <ele>2035</ele>
        <time>2021-04-07T09:56:56Z</time>
      </trkpt>
      <trkpt lat="44.50477" lon="6.59262">
        <ele>2034</ele>
        <time>2021-04-07T09:56:57Z</time>
      </trkpt>
      <trkpt lat="44.50477" lon="6.59264">
        <ele>2034</ele>
        <time>2021-04-07T09:56:58Z</time>
      </trkpt>
      <trkpt lat="44.50478" lon="6.59266">
        <ele>2033</ele>
        <time>2021-04-07T09:56:59Z</time>
      </trkpt>
      <trkpt lat="44.5048" lon="6.59269">
        <ele>2033</ele>
        <time>2021-04-07T09:57:00Z</time>
      </trkpt>
      <trkpt lat="44.50482" lon="6.59273">
        <ele>2032</ele>
        <time>2021-04-07T09:57:01Z</time>
      </trkpt>
      <trkpt lat="44.50483" lon="6.59277">
        <ele>2033</ele>
        <time>2021-04-07T09:57:02Z</time>
      </trkpt>
      <trkpt lat="44.50483" lon="6.59279">
        <ele>2035</ele>
        <time>2021-04-07T09:57:03Z</time>
      </trkpt>
      <trkpt lat="44.50484" lon="6.59279">
        <ele>2036</ele>
        <time>2021-04-07T09:57:04Z</time>
      </trkpt>
      <trkpt lat="44.50484" lon="6.59279">
        <ele>2036</ele>
        <time>2021-04-07T09:57:05Z</time>
      </trkpt>
      <trkpt lat="44.50484" lon="6.59279">
        <ele>2037</ele>
        <time>2021-04-07T09:57:06Z</time>
      </trkpt>
      <trkpt lat="44.50484" lon="6.59279">
        <ele>2037</ele>
        <time>2021-04-07T09:57:07Z</time>
      </trkpt>
      <trkpt lat="44.50484" lon="6.59279">
        <ele>2037</ele>
        <time>2021-04-07T09:57:08Z</time>
      </trkpt>
      <trkpt lat="44.50484" lon="6.59279">
        <ele>2037</ele>
        <time>2021-04-07T09:57:09Z</time>
      </trkpt>
      <trkpt lat="44.50484" lon="6.59279">
        <ele>2037</ele>
        <time>2021-04-07T09:57:10Z</time>
      </trkpt>
      <trkpt lat="44.50484" lon="6.59279">
        <ele>2037</ele>
        <time>2021-04-07T09:57:11Z</time>
      </trkpt>
      <trkpt lat="44.50484" lon="6.59279">
        <ele>2037</ele>
        <time>2021-04-07T09:57:12Z</time>
      </trkpt>
      <trkpt lat="44.50484" lon="6.59277">
        <ele>2037</ele>
        <time>2021-04-07T09:57:13Z</time>
      </trkpt>
      <trkpt lat="44.50485" lon="6.59274">
        <ele>2037</ele>
        <time>2021-04-07T09:57:14Z</time>
      </trkpt>
      <trkpt lat="44.50486" lon="6.59272">
        <ele>2036</ele>
        <time>2021-04-07T09:57:15Z</time>
      </trkpt>
      <trkpt lat="44.50487" lon="6.5927">
        <ele>2036</ele>
        <time>2021-04-07T09:57:16Z</time>
      </trkpt>
      <trkpt lat="44.50489" lon="6.59267">
        <ele>2035</ele>
        <time>2021-04-07T09:57:17Z</time>
      </trkpt>
      <trkpt lat="44.5049" lon="6.59264">
        <ele>2034</ele>
        <time>2021-04-07T09:57:18Z</time>
      </trkpt>
      <trkpt lat="44.50491" lon="6.59262">
        <ele>2033</ele>
        <time>2021-04-07T09:57:19Z</time>
      </trkpt>
      <trkpt lat="44.50492" lon="6.59262">
        <ele>2032</ele>
        <time>2021-04-07T09:57:20Z</time>
      </trkpt>
      <trkpt lat="44.50492" lon="6.59263">
        <ele>2032</ele>
        <time>2021-04-07T09:57:21Z</time>
      </trkpt>
      <trkpt lat="44.50493" lon="6.59264">
        <ele>2032</ele>
        <time>2021-04-07T09:57:22Z</time>
      </trkpt>
      <trkpt lat="44.50494" lon="6.59265">
        <ele>2031</ele>
        <time>2021-04-07T09:57:23Z</time>
      </trkpt>
      <trkpt lat="44.50494" lon="6.59267">
        <ele>2030</ele>
        <time>2021-04-07T09:57:24Z</time>
      </trkpt>
      <trkpt lat="44.50494" lon="6.59269">
        <ele>2030</ele>
        <time>2021-04-07T09:57:25Z</time>
      </trkpt>
      <trkpt lat="44.50495" lon="6.59269">
        <ele>2029</ele>
        <time>2021-04-07T09:57:26Z</time>
      </trkpt>
      <trkpt lat="44.50495" lon="6.59271">
        <ele>2029</ele>
        <time>2021-04-07T09:57:27Z</time>
      </trkpt>
      <trkpt lat="44.50496" lon="6.59271">
        <ele>2028</ele>
        <time>2021-04-07T09:57:28Z</time>
      </trkpt>
      <trkpt lat="44.50497" lon="6.59271">
        <ele>2027</ele>
        <time>2021-04-07T09:57:29Z</time>
      </trkpt>
      <trkpt lat="44.50499" lon="6.59269">
        <ele>2027</ele>
        <time>2021-04-07T09:57:30Z</time>
      </trkpt>
      <trkpt lat="44.505" lon="6.59269">
        <ele>2026</ele>
        <time>2021-04-07T09:57:31Z</time>
      </trkpt>
      <trkpt lat="44.505" lon="6.59269">
        <ele>2025</ele>
        <time>2021-04-07T09:57:32Z</time>
      </trkpt>
      <trkpt lat="44.50501" lon="6.59269">
        <ele>2025</ele>
        <time>2021-04-07T09:57:33Z</time>
      </trkpt>
      <trkpt lat="44.50502" lon="6.59271">
        <ele>2024</ele>
        <time>2021-04-07T09:57:34Z</time>
      </trkpt>
      <trkpt lat="44.50502" lon="6.59272">
        <ele>2024</ele>
        <time>2021-04-07T09:57:35Z</time>
      </trkpt>
      <trkpt lat="44.50502" lon="6.59272">
        <ele>2024</ele>
        <time>2021-04-07T09:57:36Z</time>
      </trkpt>
      <trkpt lat="44.50503" lon="6.59272">
        <ele>2022</ele>
        <time>2021-04-07T09:57:37Z</time>
      </trkpt>
      <trkpt lat="44.50503" lon="6.59272">
        <ele>2022</ele>
        <time>2021-04-07T09:57:38Z</time>
      </trkpt>
      <trkpt lat="44.50503" lon="6.59272">
        <ele>2021</ele>
        <time>2021-04-07T09:57:39Z</time>
      </trkpt>
      <trkpt lat="44.50504" lon="6.59277">
        <ele>2020</ele>
        <time>2021-04-07T09:57:40Z</time>
      </trkpt>
      <trkpt lat="44.50504" lon="6.59279">
        <ele>2020</ele>
        <time>2021-04-07T09:57:41Z</time>
      </trkpt>
      <trkpt lat="44.50504" lon="6.59282">
        <ele>2019</ele>
        <time>2021-04-07T09:57:42Z</time>
      </trkpt>
      <trkpt lat="44.50504" lon="6.59282">
        <ele>2019</ele>
        <time>2021-04-07T09:57:43Z</time>
      </trkpt>
      <trkpt lat="44.50505" lon="6.59283">
        <ele>2018</ele>
        <time>2021-04-07T09:57:44Z</time>
      </trkpt>
      <trkpt lat="44.50505" lon="6.59283">
        <ele>2018</ele>
        <time>2021-04-07T09:57:45Z</time>
      </trkpt>
      <trkpt lat="44.50506" lon="6.59287">
        <ele>2017</ele>
        <time>2021-04-07T09:57:46Z</time>
      </trkpt>
      <trkpt lat="44.50508" lon="6.59291">
        <ele>2017</ele>
        <time>2021-04-07T09:57:47Z</time>
      </trkpt>
      <trkpt lat="44.50508" lon="6.59295">
        <ele>2016</ele>
        <time>2021-04-07T09:57:48Z</time>
      </trkpt>
      <trkpt lat="44.50512" lon="6.59301">
        <ele>2015</ele>
        <time>2021-04-07T09:57:49Z</time>
      </trkpt>
      <trkpt lat="44.50514" lon="6.59306">
        <ele>2014</ele>
        <time>2021-04-07T09:57:50Z</time>
      </trkpt>
      <trkpt lat="44.50516" lon="6.59312">
        <ele>2014</ele>
        <time>2021-04-07T09:57:51Z</time>
      </trkpt>
      <trkpt lat="44.50516" lon="6.59315">
        <ele>2013</ele>
        <time>2021-04-07T09:57:52Z</time>
      </trkpt>
      <trkpt lat="44.50517" lon="6.59317">
        <ele>2013</ele>
        <time>2021-04-07T09:57:53Z</time>
      </trkpt>
      <trkpt lat="44.50518" lon="6.59319">
        <ele>2012</ele>
        <time>2021-04-07T09:57:54Z</time>
      </trkpt>
      <trkpt lat="44.50519" lon="6.59321">
        <ele>2012</ele>
        <time>2021-04-07T09:57:55Z</time>
      </trkpt>
      <trkpt lat="44.50521" lon="6.59321">
        <ele>2012</ele>
        <time>2021-04-07T09:57:56Z</time>
      </trkpt>
      <trkpt lat="44.50524" lon="6.5932">
        <ele>2011</ele>
        <time>2021-04-07T09:57:57Z</time>
      </trkpt>
      <trkpt lat="44.50528" lon="6.5932">
        <ele>2010</ele>
        <time>2021-04-07T09:57:58Z</time>
      </trkpt>
      <trkpt lat="44.50532" lon="6.5932">
        <ele>2009</ele>
        <time>2021-04-07T09:57:59Z</time>
      </trkpt>
      <trkpt lat="44.50536" lon="6.59321">
        <ele>2008</ele>
        <time>2021-04-07T09:58:00Z</time>
      </trkpt>
      <trkpt lat="44.50539" lon="6.5932">
        <ele>2008</ele>
        <time>2021-04-07T09:58:01Z</time>
      </trkpt>
      <trkpt lat="44.50543" lon="6.59318">
        <ele>2007</ele>
        <time>2021-04-07T09:58:02Z</time>
      </trkpt>
      <trkpt lat="44.50545" lon="6.59317">
        <ele>2006</ele>
        <time>2021-04-07T09:58:03Z</time>
      </trkpt>
      <trkpt lat="44.50547" lon="6.59316">
        <ele>2006</ele>
        <time>2021-04-07T09:58:04Z</time>
      </trkpt>
      <trkpt lat="44.50547" lon="6.59317">
        <ele>2006</ele>
        <time>2021-04-07T09:58:05Z</time>
      </trkpt>
      <trkpt lat="44.50547" lon="6.59317">
        <ele>2006</ele>
        <time>2021-04-07T09:58:06Z</time>
      </trkpt>
      <trkpt lat="44.50547" lon="6.59317">
        <ele>2006</ele>
        <time>2021-04-07T09:58:07Z</time>
      </trkpt>
      <trkpt lat="44.50547" lon="6.59317">
        <ele>2006</ele>
        <time>2021-04-07T09:58:08Z</time>
      </trkpt>
      <trkpt lat="44.50547" lon="6.59317">
        <ele>2006</ele>
        <time>2021-04-07T09:58:09Z</time>
      </trkpt>
      <trkpt lat="44.5055" lon="6.59322">
        <ele>2006</ele>
        <time>2021-04-07T09:58:10Z</time>
      </trkpt>
      <trkpt lat="44.50551" lon="6.59324">
        <ele>2006</ele>
        <time>2021-04-07T09:58:11Z</time>
      </trkpt>
      <trkpt lat="44.50552" lon="6.59325">
        <ele>2006</ele>
        <time>2021-04-07T09:58:12Z</time>
      </trkpt>
      <trkpt lat="44.50553" lon="6.59325">
        <ele>2006</ele>
        <time>2021-04-07T09:58:13Z</time>
      </trkpt>
      <trkpt lat="44.50553" lon="6.59325">
        <ele>2006</ele>
        <time>2021-04-07T09:58:14Z</time>
      </trkpt>
      <trkpt lat="44.50553" lon="6.59325">
        <ele>2006</ele>
        <time>2021-04-07T09:58:15Z</time>
      </trkpt>
      <trkpt lat="44.50553" lon="6.59325">
        <ele>2006</ele>
        <time>2021-04-07T09:58:16Z</time>
      </trkpt>
      <trkpt lat="44.50558" lon="6.59328">
        <ele>2006</ele>
        <time>2021-04-07T09:58:17Z</time>
      </trkpt>
      <trkpt lat="44.5056" lon="6.59326">
        <ele>2005</ele>
        <time>2021-04-07T09:58:18Z</time>
      </trkpt>
      <trkpt lat="44.50563" lon="6.59323">
        <ele>2005</ele>
        <time>2021-04-07T09:58:19Z</time>
      </trkpt>
      <trkpt lat="44.50563" lon="6.59319">
        <ele>2004</ele>
        <time>2021-04-07T09:58:20Z</time>
      </trkpt>
      <trkpt lat="44.50564" lon="6.59319">
        <ele>2004</ele>
        <time>2021-04-07T09:58:21Z</time>
      </trkpt>
      <trkpt lat="44.50564" lon="6.59319">
        <ele>2003</ele>
        <time>2021-04-07T09:58:22Z</time>
      </trkpt>
      <trkpt lat="44.50565" lon="6.59319">
        <ele>2003</ele>
        <time>2021-04-07T09:58:23Z</time>
      </trkpt>
      <trkpt lat="44.50566" lon="6.59317">
        <ele>2002</ele>
        <time>2021-04-07T09:58:24Z</time>
      </trkpt>
      <trkpt lat="44.50568" lon="6.59315">
        <ele>2001</ele>
        <time>2021-04-07T09:58:25Z</time>
      </trkpt>
      <trkpt lat="44.5057" lon="6.59312">
        <ele>1999</ele>
        <time>2021-04-07T09:58:26Z</time>
      </trkpt>
      <trkpt lat="44.5057" lon="6.5931">
        <ele>1999</ele>
        <time>2021-04-07T09:58:27Z</time>
      </trkpt>
      <trkpt lat="44.5057" lon="6.5931">
        <ele>1998</ele>
        <time>2021-04-07T09:58:28Z</time>
      </trkpt>
      <trkpt lat="44.5057" lon="6.5931">
        <ele>1998</ele>
        <time>2021-04-07T09:58:29Z</time>
      </trkpt>
      <trkpt lat="44.5057" lon="6.59309">
        <ele>1997</ele>
        <time>2021-04-07T09:58:30Z</time>
      </trkpt>
      <trkpt lat="44.5057" lon="6.59309">
        <ele>1997</ele>
        <time>2021-04-07T09:58:31Z</time>
      </trkpt>
      <trkpt lat="44.5057" lon="6.59309">
        <ele>1997</ele>
        <time>2021-04-07T09:58:32Z</time>
      </trkpt>
      <trkpt lat="44.5057" lon="6.59309">
        <ele>1997</ele>
        <time>2021-04-07T09:58:33Z</time>
      </trkpt>
      <trkpt lat="44.5057" lon="6.59309">
        <ele>1997</ele>
        <time>2021-04-07T09:58:34Z</time>
      </trkpt>
      <trkpt lat="44.50573" lon="6.59304">
        <ele>1996</ele>
        <time>2021-04-07T09:58:35Z</time>
      </trkpt>
      <trkpt lat="44.50574" lon="6.59301">
        <ele>1996</ele>
        <time>2021-04-07T09:58:36Z</time>
      </trkpt>
      <trkpt lat="44.50576" lon="6.59297">
        <ele>1995</ele>
        <time>2021-04-07T09:58:37Z</time>
      </trkpt>
      <trkpt lat="44.50578" lon="6.59294">
        <ele>1995</ele>
        <time>2021-04-07T09:58:38Z</time>
      </trkpt>
      <trkpt lat="44.5058" lon="6.5929">
        <ele>1994</ele>
        <time>2021-04-07T09:58:39Z</time>
      </trkpt>
      <trkpt lat="44.5058" lon="6.59285">
        <ele>1993</ele>
        <time>2021-04-07T09:58:40Z</time>
      </trkpt>
      <trkpt lat="44.5058" lon="6.59282">
        <ele>1993</ele>
        <time>2021-04-07T09:58:41Z</time>
      </trkpt>
      <trkpt lat="44.5058" lon="6.5928">
        <ele>1992</ele>
        <time>2021-04-07T09:58:42Z</time>
      </trkpt>
      <trkpt lat="44.5058" lon="6.59279">
        <ele>1992</ele>
        <time>2021-04-07T09:58:43Z</time>
      </trkpt>
      <trkpt lat="44.5058" lon="6.5928">
        <ele>1992</ele>
        <time>2021-04-07T09:58:44Z</time>
      </trkpt>
      <trkpt lat="44.5058" lon="6.5928">
        <ele>1992</ele>
        <time>2021-04-07T09:58:45Z</time>
      </trkpt>
      <trkpt lat="44.5058" lon="6.5928">
        <ele>1992</ele>
        <time>2021-04-07T09:58:46Z</time>
      </trkpt>
      <trkpt lat="44.5058" lon="6.5928">
        <ele>1992</ele>
        <time>2021-04-07T09:58:47Z</time>
      </trkpt>
      <trkpt lat="44.5058" lon="6.5928">
        <ele>1991</ele>
        <time>2021-04-07T09:58:48Z</time>
      </trkpt>
      <trkpt lat="44.5058" lon="6.5928">
        <ele>1991</ele>
        <time>2021-04-07T09:58:49Z</time>
      </trkpt>
      <trkpt lat="44.5058" lon="6.5928">
        <ele>1991</ele>
        <time>2021-04-07T09:58:50Z</time>
      </trkpt>
      <trkpt lat="44.5058" lon="6.5928">
        <ele>1991</ele>
        <time>2021-04-07T09:58:51Z</time>
      </trkpt>
      <trkpt lat="44.5058" lon="6.5928">
        <ele>1991</ele>
        <time>2021-04-07T09:58:52Z</time>
      </trkpt>
      <trkpt lat="44.50587" lon="6.59277">
        <ele>1989</ele>
        <time>2021-04-07T09:58:53Z</time>
      </trkpt>
      <trkpt lat="44.50591" lon="6.59278">
        <ele>1987</ele>
        <time>2021-04-07T09:58:54Z</time>
      </trkpt>
      <trkpt lat="44.50594" lon="6.59281">
        <ele>1986</ele>
        <time>2021-04-07T09:58:55Z</time>
      </trkpt>
      <trkpt lat="44.50595" lon="6.59284">
        <ele>1986</ele>
        <time>2021-04-07T09:58:56Z</time>
      </trkpt>
      <trkpt lat="44.50596" lon="6.59285">
        <ele>1985</ele>
        <time>2021-04-07T09:58:57Z</time>
      </trkpt>
      <trkpt lat="44.50597" lon="6.59285">
        <ele>1985</ele>
        <time>2021-04-07T09:58:58Z</time>
      </trkpt>
      <trkpt lat="44.50598" lon="6.59283">
        <ele>1984</ele>
        <time>2021-04-07T09:58:59Z</time>
      </trkpt>
      <trkpt lat="44.50599" lon="6.59281">
        <ele>1983</ele>
        <time>2021-04-07T09:59:00Z</time>
      </trkpt>
      <trkpt lat="44.50601" lon="6.59277">
        <ele>1983</ele>
        <time>2021-04-07T09:59:01Z</time>
      </trkpt>
      <trkpt lat="44.50601" lon="6.59274">
        <ele>1982</ele>
        <time>2021-04-07T09:59:02Z</time>
      </trkpt>
      <trkpt lat="44.50602" lon="6.59271">
        <ele>1981</ele>
        <time>2021-04-07T09:59:03Z</time>
      </trkpt>
      <trkpt lat="44.50601" lon="6.59269">
        <ele>1981</ele>
        <time>2021-04-07T09:59:04Z</time>
      </trkpt>
      <trkpt lat="44.50601" lon="6.59269">
        <ele>1981</ele>
        <time>2021-04-07T09:59:05Z</time>
      </trkpt>
      <trkpt lat="44.50602" lon="6.5927">
        <ele>1980</ele>
        <time>2021-04-07T09:59:06Z</time>
      </trkpt>
      <trkpt lat="44.50604" lon="6.59269">
        <ele>1980</ele>
        <time>2021-04-07T09:59:07Z</time>
      </trkpt>
      <trkpt lat="44.50606" lon="6.5927">
        <ele>1980</ele>
        <time>2021-04-07T09:59:08Z</time>
      </trkpt>
      <trkpt lat="44.50607" lon="6.59271">
        <ele>1979</ele>
        <time>2021-04-07T09:59:09Z</time>
      </trkpt>
      <trkpt lat="44.50607" lon="6.59271">
        <ele>1979</ele>
        <time>2021-04-07T09:59:10Z</time>
      </trkpt>
      <trkpt lat="44.50608" lon="6.59271">
        <ele>1979</ele>
        <time>2021-04-07T09:59:11Z</time>
      </trkpt>
      <trkpt lat="44.50608" lon="6.59271">
        <ele>1978</ele>
        <time>2021-04-07T09:59:12Z</time>
      </trkpt>
      <trkpt lat="44.50611" lon="6.59273">
        <ele>1978</ele>
        <time>2021-04-07T09:59:13Z</time>
      </trkpt>
      <trkpt lat="44.50612" lon="6.59274">
        <ele>1978</ele>
        <time>2021-04-07T09:59:14Z</time>
      </trkpt>
      <trkpt lat="44.50613" lon="6.59276">
        <ele>1977</ele>
        <time>2021-04-07T09:59:15Z</time>
      </trkpt>
      <trkpt lat="44.50613" lon="6.59277">
        <ele>1977</ele>
        <time>2021-04-07T09:59:16Z</time>
      </trkpt>
      <trkpt lat="44.50613" lon="6.59277">
        <ele>1977</ele>
        <time>2021-04-07T09:59:17Z</time>
      </trkpt>
      <trkpt lat="44.50613" lon="6.59277">
        <ele>1976</ele>
        <time>2021-04-07T09:59:18Z</time>
      </trkpt>
      <trkpt lat="44.50613" lon="6.59277">
        <ele>1976</ele>
        <time>2021-04-07T09:59:19Z</time>
      </trkpt>
      <trkpt lat="44.50613" lon="6.59277">
        <ele>1976</ele>
        <time>2021-04-07T09:59:20Z</time>
      </trkpt>
      <trkpt lat="44.50613" lon="6.59277">
        <ele>1976</ele>
        <time>2021-04-07T09:59:21Z</time>
      </trkpt>
      <trkpt lat="44.50613" lon="6.59277">
        <ele>1976</ele>
        <time>2021-04-07T09:59:22Z</time>
      </trkpt>
      <trkpt lat="44.50613" lon="6.59277">
        <ele>1976</ele>
        <time>2021-04-07T09:59:23Z</time>
      </trkpt>
      <trkpt lat="44.50613" lon="6.59277">
        <ele>1976</ele>
        <time>2021-04-07T09:59:24Z</time>
      </trkpt>
      <trkpt lat="44.50613" lon="6.59277">
        <ele>1976</ele>
        <time>2021-04-07T09:59:25Z</time>
      </trkpt>
      <trkpt lat="44.50613" lon="6.59277">
        <ele>1976</ele>
        <time>2021-04-07T09:59:26Z</time>
      </trkpt>
      <trkpt lat="44.50613" lon="6.59277">
        <ele>1976</ele>
        <time>2021-04-07T09:59:27Z</time>
      </trkpt>
      <trkpt lat="44.50613" lon="6.59277">
        <ele>1976</ele>
        <time>2021-04-07T09:59:28Z</time>
      </trkpt>
      <trkpt lat="44.50613" lon="6.59277">
        <ele>1976</ele>
        <time>2021-04-07T09:59:29Z</time>
      </trkpt>
      <trkpt lat="44.50613" lon="6.59277">
        <ele>1976</ele>
        <time>2021-04-07T09:59:30Z</time>
      </trkpt>
      <trkpt lat="44.50613" lon="6.59277">
        <ele>1976</ele>
        <time>2021-04-07T09:59:31Z</time>
      </trkpt>
      <trkpt lat="44.50616" lon="6.59279">
        <ele>1976</ele>
        <time>2021-04-07T09:59:32Z</time>
      </trkpt>
      <trkpt lat="44.50618" lon="6.59279">
        <ele>1976</ele>
        <time>2021-04-07T09:59:33Z</time>
      </trkpt>
      <trkpt lat="44.50619" lon="6.59279">
        <ele>1976</ele>
        <time>2021-04-07T09:59:34Z</time>
      </trkpt>
      <trkpt lat="44.5062" lon="6.5928">
        <ele>1976</ele>
        <time>2021-04-07T09:59:35Z</time>
      </trkpt>
      <trkpt lat="44.50621" lon="6.5928">
        <ele>1976</ele>
        <time>2021-04-07T09:59:36Z</time>
      </trkpt>
      <trkpt lat="44.50622" lon="6.5928">
        <ele>1976</ele>
        <time>2021-04-07T09:59:37Z</time>
      </trkpt>
      <trkpt lat="44.50623" lon="6.5928">
        <ele>1976</ele>
        <time>2021-04-07T09:59:38Z</time>
      </trkpt>
      <trkpt lat="44.50624" lon="6.5928">
        <ele>1975</ele>
        <time>2021-04-07T09:59:39Z</time>
      </trkpt>
      <trkpt lat="44.50625" lon="6.5928">
        <ele>1976</ele>
        <time>2021-04-07T09:59:40Z</time>
      </trkpt>
      <trkpt lat="44.50626" lon="6.5928">
        <ele>1976</ele>
        <time>2021-04-07T09:59:41Z</time>
      </trkpt>
      <trkpt lat="44.50627" lon="6.5928">
        <ele>1976</ele>
        <time>2021-04-07T09:59:42Z</time>
      </trkpt>
      <trkpt lat="44.50629" lon="6.5928">
        <ele>1976</ele>
        <time>2021-04-07T09:59:43Z</time>
      </trkpt>
      <trkpt lat="44.50631" lon="6.59281">
        <ele>1976</ele>
        <time>2021-04-07T09:59:44Z</time>
      </trkpt>
      <trkpt lat="44.50633" lon="6.59282">
        <ele>1975</ele>
        <time>2021-04-07T09:59:45Z</time>
      </trkpt>
      <trkpt lat="44.50634" lon="6.59284">
        <ele>1975</ele>
        <time>2021-04-07T09:59:46Z</time>
      </trkpt>
      <trkpt lat="44.50636" lon="6.59286">
        <ele>1974</ele>
        <time>2021-04-07T09:59:47Z</time>
      </trkpt>
      <trkpt lat="44.50636" lon="6.59287">
        <ele>1973</ele>
        <time>2021-04-07T09:59:48Z</time>
      </trkpt>
      <trkpt lat="44.50637" lon="6.59287">
        <ele>1972</ele>
        <time>2021-04-07T09:59:49Z</time>
      </trkpt>
      <trkpt lat="44.50637" lon="6.59287">
        <ele>1972</ele>
        <time>2021-04-07T09:59:50Z</time>
      </trkpt>
      <trkpt lat="44.50639" lon="6.59287">
        <ele>1971</ele>
        <time>2021-04-07T09:59:51Z</time>
      </trkpt>
      <trkpt lat="44.5064" lon="6.59288">
        <ele>1970</ele>
        <time>2021-04-07T09:59:52Z</time>
      </trkpt>
      <trkpt lat="44.50642" lon="6.5929">
        <ele>1970</ele>
        <time>2021-04-07T09:59:53Z</time>
      </trkpt>
      <trkpt lat="44.50644" lon="6.59292">
        <ele>1969</ele>
        <time>2021-04-07T09:59:54Z</time>
      </trkpt>
      <trkpt lat="44.50645" lon="6.59294">
        <ele>1968</ele>
        <time>2021-04-07T09:59:55Z</time>
      </trkpt>
      <trkpt lat="44.50646" lon="6.59296">
        <ele>1968</ele>
        <time>2021-04-07T09:59:56Z</time>
      </trkpt>
      <trkpt lat="44.50646" lon="6.59298">
        <ele>1968</ele>
        <time>2021-04-07T09:59:57Z</time>
      </trkpt>
      <trkpt lat="44.50647" lon="6.59299">
        <ele>1967</ele>
        <time>2021-04-07T09:59:58Z</time>
      </trkpt>
      <trkpt lat="44.50648" lon="6.593">
        <ele>1967</ele>
        <time>2021-04-07T09:59:59Z</time>
      </trkpt>
      <trkpt lat="44.5065" lon="6.59303">
        <ele>1967</ele>
        <time>2021-04-07T10:00:00Z</time>
      </trkpt>
      <trkpt lat="44.50652" lon="6.59307">
        <ele>1966</ele>
        <time>2021-04-07T10:00:01Z</time>
      </trkpt>
      <trkpt lat="44.50654" lon="6.5931">
        <ele>1966</ele>
        <time>2021-04-07T10:00:02Z</time>
      </trkpt>
      <trkpt lat="44.50654" lon="6.59311">
        <ele>1965</ele>
        <time>2021-04-07T10:00:03Z</time>
      </trkpt>
      <trkpt lat="44.50654" lon="6.59312">
        <ele>1965</ele>
        <time>2021-04-07T10:00:04Z</time>
      </trkpt>
      <trkpt lat="44.50654" lon="6.59312">
        <ele>1965</ele>
        <time>2021-04-07T10:00:05Z</time>
      </trkpt>
      <trkpt lat="44.50654" lon="6.59312">
        <ele>1965</ele>
        <time>2021-04-07T10:00:06Z</time>
      </trkpt>
      <trkpt lat="44.50654" lon="6.59312">
        <ele>1964</ele>
        <time>2021-04-07T10:00:07Z</time>
      </trkpt>
      <trkpt lat="44.50654" lon="6.59312">
        <ele>1964</ele>
        <time>2021-04-07T10:00:08Z</time>
      </trkpt>
      <trkpt lat="44.50654" lon="6.59312">
        <ele>1964</ele>
        <time>2021-04-07T10:00:09Z</time>
      </trkpt>
      <trkpt lat="44.50654" lon="6.59312">
        <ele>1964</ele>
        <time>2021-04-07T10:00:10Z</time>
      </trkpt>
      <trkpt lat="44.50654" lon="6.59312">
        <ele>1964</ele>
        <time>2021-04-07T10:00:11Z</time>
      </trkpt>
      <trkpt lat="44.50654" lon="6.59312">
        <ele>1964</ele>
        <time>2021-04-07T10:00:12Z</time>
      </trkpt>
      <trkpt lat="44.50655" lon="6.59309">
        <ele>1964</ele>
        <time>2021-04-07T10:00:13Z</time>
      </trkpt>
      <trkpt lat="44.50655" lon="6.59306">
        <ele>1962</ele>
        <time>2021-04-07T10:00:14Z</time>
      </trkpt>
      <trkpt lat="44.50655" lon="6.59304">
        <ele>1961</ele>
        <time>2021-04-07T10:00:15Z</time>
      </trkpt>
      <trkpt lat="44.50655" lon="6.59302">
        <ele>1961</ele>
        <time>2021-04-07T10:00:16Z</time>
      </trkpt>
      <trkpt lat="44.50655" lon="6.59302">
        <ele>1960</ele>
        <time>2021-04-07T10:00:17Z</time>
      </trkpt>
      <trkpt lat="44.50655" lon="6.593">
        <ele>1959</ele>
        <time>2021-04-07T10:00:18Z</time>
      </trkpt>
      <trkpt lat="44.50655" lon="6.593">
        <ele>1959</ele>
        <time>2021-04-07T10:00:19Z</time>
      </trkpt>
      <trkpt lat="44.50655" lon="6.593">
        <ele>1959</ele>
        <time>2021-04-07T10:00:20Z</time>
      </trkpt>
      <trkpt lat="44.50655" lon="6.593">
        <ele>1959</ele>
        <time>2021-04-07T10:00:21Z</time>
      </trkpt>
      <trkpt lat="44.50655" lon="6.593">
        <ele>1958</ele>
        <time>2021-04-07T10:00:22Z</time>
      </trkpt>
      <trkpt lat="44.50655" lon="6.593">
        <ele>1958</ele>
        <time>2021-04-07T10:00:23Z</time>
      </trkpt>
      <trkpt lat="44.50655" lon="6.593">
        <ele>1958</ele>
        <time>2021-04-07T10:00:24Z</time>
      </trkpt>
      <trkpt lat="44.50661" lon="6.59298">
        <ele>1958</ele>
        <time>2021-04-07T10:00:25Z</time>
      </trkpt>
      <trkpt lat="44.50661" lon="6.59297">
        <ele>1957</ele>
        <time>2021-04-07T10:00:26Z</time>
      </trkpt>
      <trkpt lat="44.50662" lon="6.59296">
        <ele>1957</ele>
        <time>2021-04-07T10:00:27Z</time>
      </trkpt>
      <trkpt lat="44.50661" lon="6.59294">
        <ele>1957</ele>
        <time>2021-04-07T10:00:28Z</time>
      </trkpt>
      <trkpt lat="44.5066" lon="6.59293">
        <ele>1957</ele>
        <time>2021-04-07T10:00:29Z</time>
      </trkpt>
      <trkpt lat="44.5066" lon="6.59292">
        <ele>1957</ele>
        <time>2021-04-07T10:00:30Z</time>
      </trkpt>
      <trkpt lat="44.5066" lon="6.59291">
        <ele>1957</ele>
        <time>2021-04-07T10:00:31Z</time>
      </trkpt>
      <trkpt lat="44.5066" lon="6.59291">
        <ele>1957</ele>
        <time>2021-04-07T10:00:32Z</time>
      </trkpt>
      <trkpt lat="44.5066" lon="6.59291">
        <ele>1957</ele>
        <time>2021-04-07T10:00:33Z</time>
      </trkpt>
      <trkpt lat="44.5066" lon="6.59291">
        <ele>1957</ele>
        <time>2021-04-07T10:00:34Z</time>
      </trkpt>
      <trkpt lat="44.5066" lon="6.59291">
        <ele>1957</ele>
        <time>2021-04-07T10:00:35Z</time>
      </trkpt>
      <trkpt lat="44.5066" lon="6.59291">
        <ele>1957</ele>
        <time>2021-04-07T10:00:36Z</time>
      </trkpt>
      <trkpt lat="44.5066" lon="6.59291">
        <ele>1957</ele>
        <time>2021-04-07T10:00:37Z</time>
      </trkpt>
      <trkpt lat="44.50666" lon="6.59292">
        <ele>1956</ele>
        <time>2021-04-07T10:00:38Z</time>
      </trkpt>
      <trkpt lat="44.5067" lon="6.59294">
        <ele>1955</ele>
        <time>2021-04-07T10:00:39Z</time>
      </trkpt>
      <trkpt lat="44.50673" lon="6.59297">
        <ele>1954</ele>
        <time>2021-04-07T10:00:40Z</time>
      </trkpt>
      <trkpt lat="44.50675" lon="6.59299">
        <ele>1954</ele>
        <time>2021-04-07T10:00:41Z</time>
      </trkpt>
      <trkpt lat="44.50675" lon="6.593">
        <ele>1954</ele>
        <time>2021-04-07T10:00:42Z</time>
      </trkpt>
      <trkpt lat="44.50676" lon="6.593">
        <ele>1953</ele>
        <time>2021-04-07T10:00:43Z</time>
      </trkpt>
      <trkpt lat="44.50679" lon="6.59299">
        <ele>1953</ele>
        <time>2021-04-07T10:00:44Z</time>
      </trkpt>
      <trkpt lat="44.50681" lon="6.59299">
        <ele>1952</ele>
        <time>2021-04-07T10:00:45Z</time>
      </trkpt>
      <trkpt lat="44.50683" lon="6.593">
        <ele>1952</ele>
        <time>2021-04-07T10:00:46Z</time>
      </trkpt>
      <trkpt lat="44.50685" lon="6.59301">
        <ele>1952</ele>
        <time>2021-04-07T10:00:47Z</time>
      </trkpt>
      <trkpt lat="44.50685" lon="6.59302">
        <ele>1952</ele>
        <time>2021-04-07T10:00:48Z</time>
      </trkpt>
      <trkpt lat="44.50686" lon="6.59303">
        <ele>1952</ele>
        <time>2021-04-07T10:00:49Z</time>
      </trkpt>
      <trkpt lat="44.50687" lon="6.59305">
        <ele>1951</ele>
        <time>2021-04-07T10:00:50Z</time>
      </trkpt>
      <trkpt lat="44.50687" lon="6.59307">
        <ele>1951</ele>
        <time>2021-04-07T10:00:51Z</time>
      </trkpt>
      <trkpt lat="44.50687" lon="6.59307">
        <ele>1951</ele>
        <time>2021-04-07T10:00:52Z</time>
      </trkpt>
      <trkpt lat="44.50687" lon="6.59307">
        <ele>1951</ele>
        <time>2021-04-07T10:00:53Z</time>
      </trkpt>
      <trkpt lat="44.50687" lon="6.59307">
        <ele>1951</ele>
        <time>2021-04-07T10:00:54Z</time>
      </trkpt>
      <trkpt lat="44.50687" lon="6.59307">
        <ele>1951</ele>
        <time>2021-04-07T10:00:55Z</time>
      </trkpt>
      <trkpt lat="44.50687" lon="6.59307">
        <ele>1951</ele>
        <time>2021-04-07T10:00:56Z</time>
      </trkpt>
      <trkpt lat="44.50687" lon="6.59307">
        <ele>1951</ele>
        <time>2021-04-07T10:00:57Z</time>
      </trkpt>
      <trkpt lat="44.50687" lon="6.59307">
        <ele>1951</ele>
        <time>2021-04-07T10:00:58Z</time>
      </trkpt>
      <trkpt lat="44.50687" lon="6.59307">
        <ele>1951</ele>
        <time>2021-04-07T10:00:59Z</time>
      </trkpt>
      <trkpt lat="44.50686" lon="6.59302">
        <ele>1951</ele>
        <time>2021-04-07T10:01:00Z</time>
      </trkpt>
      <trkpt lat="44.50685" lon="6.59301">
        <ele>1951</ele>
        <time>2021-04-07T10:01:01Z</time>
      </trkpt>
      <trkpt lat="44.50685" lon="6.59299">
        <ele>1950</ele>
        <time>2021-04-07T10:01:02Z</time>
      </trkpt>
      <trkpt lat="44.50684" lon="6.59297">
        <ele>1950</ele>
        <time>2021-04-07T10:01:03Z</time>
      </trkpt>
      <trkpt lat="44.50683" lon="6.59295">
        <ele>1949</ele>
        <time>2021-04-07T10:01:04Z</time>
      </trkpt>
      <trkpt lat="44.50681" lon="6.59293">
        <ele>1949</ele>
        <time>2021-04-07T10:01:05Z</time>
      </trkpt>
      <trkpt lat="44.5068" lon="6.59292">
        <ele>1949</ele>
        <time>2021-04-07T10:01:06Z</time>
      </trkpt>
      <trkpt lat="44.50679" lon="6.5929">
        <ele>1949</ele>
        <time>2021-04-07T10:01:07Z</time>
      </trkpt>
      <trkpt lat="44.50678" lon="6.59288">
        <ele>1948</ele>
        <time>2021-04-07T10:01:08Z</time>
      </trkpt>
      <trkpt lat="44.50676" lon="6.59285">
        <ele>1948</ele>
        <time>2021-04-07T10:01:09Z</time>
      </trkpt>
      <trkpt lat="44.50674" lon="6.59282">
        <ele>1947</ele>
        <time>2021-04-07T10:01:10Z</time>
      </trkpt>
      <trkpt lat="44.50672" lon="6.59277">
        <ele>1946</ele>
        <time>2021-04-07T10:01:11Z</time>
      </trkpt>
      <trkpt lat="44.50671" lon="6.59271">
        <ele>1945</ele>
        <time>2021-04-07T10:01:12Z</time>
      </trkpt>
      <trkpt lat="44.5067" lon="6.59267">
        <ele>1945</ele>
        <time>2021-04-07T10:01:13Z</time>
      </trkpt>
      <trkpt lat="44.50669" lon="6.59265">
        <ele>1944</ele>
        <time>2021-04-07T10:01:14Z</time>
      </trkpt>
      <trkpt lat="44.50669" lon="6.59264">
        <ele>1943</ele>
        <time>2021-04-07T10:01:15Z</time>
      </trkpt>
      <trkpt lat="44.50669" lon="6.59264">
        <ele>1943</ele>
        <time>2021-04-07T10:01:16Z</time>
      </trkpt>
      <trkpt lat="44.5067" lon="6.59263">
        <ele>1943</ele>
        <time>2021-04-07T10:01:17Z</time>
      </trkpt>
      <trkpt lat="44.5067" lon="6.59263">
        <ele>1942</ele>
        <time>2021-04-07T10:01:18Z</time>
      </trkpt>
      <trkpt lat="44.5067" lon="6.59263">
        <ele>1942</ele>
        <time>2021-04-07T10:01:19Z</time>
      </trkpt>
      <trkpt lat="44.5067" lon="6.59263">
        <ele>1942</ele>
        <time>2021-04-07T10:01:20Z</time>
      </trkpt>
      <trkpt lat="44.5067" lon="6.59263">
        <ele>1942</ele>
        <time>2021-04-07T10:01:21Z</time>
      </trkpt>
      <trkpt lat="44.5067" lon="6.59263">
        <ele>1942</ele>
        <time>2021-04-07T10:01:22Z</time>
      </trkpt>
      <trkpt lat="44.5067" lon="6.59263">
        <ele>1942</ele>
        <time>2021-04-07T10:01:23Z</time>
      </trkpt>
      <trkpt lat="44.5067" lon="6.59263">
        <ele>1942</ele>
        <time>2021-04-07T10:01:24Z</time>
      </trkpt>
      <trkpt lat="44.5067" lon="6.59263">
        <ele>1942</ele>
        <time>2021-04-07T10:01:25Z</time>
      </trkpt>
      <trkpt lat="44.5067" lon="6.59263">
        <ele>1942</ele>
        <time>2021-04-07T10:01:26Z</time>
      </trkpt>
      <trkpt lat="44.5067" lon="6.59263">
        <ele>1942</ele>
        <time>2021-04-07T10:01:27Z</time>
      </trkpt>
      <trkpt lat="44.5067" lon="6.59263">
        <ele>1942</ele>
        <time>2021-04-07T10:01:28Z</time>
      </trkpt>
      <trkpt lat="44.5067" lon="6.59263">
        <ele>1942</ele>
        <time>2021-04-07T10:01:29Z</time>
      </trkpt>
      <trkpt lat="44.5067" lon="6.59263">
        <ele>1942</ele>
        <time>2021-04-07T10:01:30Z</time>
      </trkpt>
      <trkpt lat="44.50682" lon="6.59256">
        <ele>1940</ele>
        <time>2021-04-07T10:01:31Z</time>
      </trkpt>
      <trkpt lat="44.50683" lon="6.59255">
        <ele>1940</ele>
        <time>2021-04-07T10:01:32Z</time>
      </trkpt>
      <trkpt lat="44.50684" lon="6.59253">
        <ele>1940</ele>
        <time>2021-04-07T10:01:33Z</time>
      </trkpt>
      <trkpt lat="44.50685" lon="6.59253">
        <ele>1939</ele>
        <time>2021-04-07T10:01:34Z</time>
      </trkpt>
      <trkpt lat="44.50685" lon="6.59252">
        <ele>1939</ele>
        <time>2021-04-07T10:01:35Z</time>
      </trkpt>
      <trkpt lat="44.50685" lon="6.59252">
        <ele>1939</ele>
        <time>2021-04-07T10:01:36Z</time>
      </trkpt>
      <trkpt lat="44.50685" lon="6.59252">
        <ele>1939</ele>
        <time>2021-04-07T10:01:37Z</time>
      </trkpt>
      <trkpt lat="44.50685" lon="6.59252">
        <ele>1939</ele>
        <time>2021-04-07T10:01:38Z</time>
      </trkpt>
      <trkpt lat="44.50685" lon="6.59252">
        <ele>1939</ele>
        <time>2021-04-07T10:01:39Z</time>
      </trkpt>
      <trkpt lat="44.50685" lon="6.59252">
        <ele>1939</ele>
        <time>2021-04-07T10:01:40Z</time>
      </trkpt>
      <trkpt lat="44.50685" lon="6.59252">
        <ele>1939</ele>
        <time>2021-04-07T10:01:41Z</time>
      </trkpt>
      <trkpt lat="44.50685" lon="6.59252">
        <ele>1939</ele>
        <time>2021-04-07T10:01:42Z</time>
      </trkpt>
      <trkpt lat="44.50685" lon="6.59252">
        <ele>1939</ele>
        <time>2021-04-07T10:01:43Z</time>
      </trkpt>
      <trkpt lat="44.50685" lon="6.59252">
        <ele>1939</ele>
        <time>2021-04-07T10:01:44Z</time>
      </trkpt>
      <trkpt lat="44.50685" lon="6.59252">
        <ele>1939</ele>
        <time>2021-04-07T10:01:45Z</time>
      </trkpt>
      <trkpt lat="44.50685" lon="6.59252">
        <ele>1939</ele>
        <time>2021-04-07T10:01:46Z</time>
      </trkpt>
      <trkpt lat="44.50685" lon="6.59252">
        <ele>1939</ele>
        <time>2021-04-07T10:01:47Z</time>
      </trkpt>
      <trkpt lat="44.50685" lon="6.59252">
        <ele>1939</ele>
        <time>2021-04-07T10:01:48Z</time>
      </trkpt>
      <trkpt lat="44.50685" lon="6.59252">
        <ele>1939</ele>
        <time>2021-04-07T10:01:49Z</time>
      </trkpt>
      <trkpt lat="44.50685" lon="6.59252">
        <ele>1939</ele>
        <time>2021-04-07T10:01:50Z</time>
      </trkpt>
      <trkpt lat="44.50685" lon="6.59252">
        <ele>1939</ele>
        <time>2021-04-07T10:01:51Z</time>
      </trkpt>
      <trkpt lat="44.50685" lon="6.59252">
        <ele>1939</ele>
        <time>2021-04-07T10:01:52Z</time>
      </trkpt>
      <trkpt lat="44.50685" lon="6.59252">
        <ele>1939</ele>
        <time>2021-04-07T10:01:53Z</time>
      </trkpt>
      <trkpt lat="44.50685" lon="6.59252">
        <ele>1939</ele>
        <time>2021-04-07T10:01:54Z</time>
      </trkpt>
      <trkpt lat="44.50692" lon="6.59262">
        <ele>1939</ele>
        <time>2021-04-07T10:01:55Z</time>
      </trkpt>
      <trkpt lat="44.50693" lon="6.59267">
        <ele>1939</ele>
        <time>2021-04-07T10:01:56Z</time>
      </trkpt>
      <trkpt lat="44.50694" lon="6.59269">
        <ele>1939</ele>
        <time>2021-04-07T10:01:57Z</time>
      </trkpt>
      <trkpt lat="44.50694" lon="6.5927">
        <ele>1940</ele>
        <time>2021-04-07T10:01:58Z</time>
      </trkpt>
      <trkpt lat="44.50694" lon="6.5927">
        <ele>1940</ele>
        <time>2021-04-07T10:01:59Z</time>
      </trkpt>
      <trkpt lat="44.50694" lon="6.5927">
        <ele>1940</ele>
        <time>2021-04-07T10:02:00Z</time>
      </trkpt>
      <trkpt lat="44.50694" lon="6.5927">
        <ele>1940</ele>
        <time>2021-04-07T10:02:01Z</time>
      </trkpt>
      <trkpt lat="44.50694" lon="6.5927">
        <ele>1940</ele>
        <time>2021-04-07T10:02:02Z</time>
      </trkpt>
      <trkpt lat="44.50696" lon="6.59269">
        <ele>1940</ele>
        <time>2021-04-07T10:02:03Z</time>
      </trkpt>
      <trkpt lat="44.50694" lon="6.59267">
        <ele>1940</ele>
        <time>2021-04-07T10:02:04Z</time>
      </trkpt>
      <trkpt lat="44.50695" lon="6.59266">
        <ele>1939</ele>
        <time>2021-04-07T10:02:05Z</time>
      </trkpt>
      <trkpt lat="44.50695" lon="6.59266">
        <ele>1939</ele>
        <time>2021-04-07T10:02:06Z</time>
      </trkpt>
      <trkpt lat="44.50695" lon="6.59265">
        <ele>1939</ele>
        <time>2021-04-07T10:02:07Z</time>
      </trkpt>
      <trkpt lat="44.50695" lon="6.59265">
        <ele>1939</ele>
        <time>2021-04-07T10:02:08Z</time>
      </trkpt>
      <trkpt lat="44.50695" lon="6.59265">
        <ele>1939</ele>
        <time>2021-04-07T10:02:09Z</time>
      </trkpt>
      <trkpt lat="44.50695" lon="6.59265">
        <ele>1939</ele>
        <time>2021-04-07T10:02:10Z</time>
      </trkpt>
      <trkpt lat="44.50695" lon="6.59265">
        <ele>1939</ele>
        <time>2021-04-07T10:02:11Z</time>
      </trkpt>
      <trkpt lat="44.50695" lon="6.59265">
        <ele>1939</ele>
        <time>2021-04-07T10:02:12Z</time>
      </trkpt>
      <trkpt lat="44.50695" lon="6.59265">
        <ele>1939</ele>
        <time>2021-04-07T10:02:13Z</time>
      </trkpt>
      <trkpt lat="44.50695" lon="6.59265">
        <ele>1939</ele>
        <time>2021-04-07T10:02:14Z</time>
      </trkpt>
      <trkpt lat="44.50695" lon="6.59265">
        <ele>1939</ele>
        <time>2021-04-07T10:02:15Z</time>
      </trkpt>
      <trkpt lat="44.50695" lon="6.59265">
        <ele>1939</ele>
        <time>2021-04-07T10:02:16Z</time>
      </trkpt>
      <trkpt lat="44.50695" lon="6.59265">
        <ele>1939</ele>
        <time>2021-04-07T10:02:17Z</time>
      </trkpt>
      <trkpt lat="44.50695" lon="6.59265">
        <ele>1939</ele>
        <time>2021-04-07T10:02:18Z</time>
      </trkpt>
      <trkpt lat="44.50695" lon="6.59265">
        <ele>1939</ele>
        <time>2021-04-07T10:02:19Z</time>
      </trkpt>
      <trkpt lat="44.50695" lon="6.59265">
        <ele>1939</ele>
        <time>2021-04-07T10:02:20Z</time>
      </trkpt>
      <trkpt lat="44.50695" lon="6.59265">
        <ele>1939</ele>
        <time>2021-04-07T10:02:21Z</time>
      </trkpt>
      <trkpt lat="44.50695" lon="6.59265">
        <ele>1939</ele>
        <time>2021-04-07T10:02:22Z</time>
      </trkpt>
      <trkpt lat="44.50695" lon="6.59265">
        <ele>1939</ele>
        <time>2021-04-07T10:02:23Z</time>
      </trkpt>
      <trkpt lat="44.50695" lon="6.59265">
        <ele>1939</ele>
        <time>2021-04-07T10:02:24Z</time>
      </trkpt>
      <trkpt lat="44.50695" lon="6.59265">
        <ele>1939</ele>
        <time>2021-04-07T10:02:25Z</time>
      </trkpt>
      <trkpt lat="44.50695" lon="6.59265">
        <ele>1939</ele>
        <time>2021-04-07T10:02:26Z</time>
      </trkpt>
      <trkpt lat="44.50695" lon="6.59265">
        <ele>1939</ele>
        <time>2021-04-07T10:02:27Z</time>
      </trkpt>
      <trkpt lat="44.50695" lon="6.59265">
        <ele>1939</ele>
        <time>2021-04-07T10:02:28Z</time>
      </trkpt>
      <trkpt lat="44.50695" lon="6.59265">
        <ele>1939</ele>
        <time>2021-04-07T10:02:29Z</time>
      </trkpt>
      <trkpt lat="44.50695" lon="6.59265">
        <ele>1938</ele>
        <time>2021-04-07T10:02:30Z</time>
      </trkpt>
      <trkpt lat="44.50705" lon="6.59266">
        <ele>1936</ele>
        <time>2021-04-07T10:02:31Z</time>
      </trkpt>
      <trkpt lat="44.50706" lon="6.59268">
        <ele>1935</ele>
        <time>2021-04-07T10:02:32Z</time>
      </trkpt>
      <trkpt lat="44.50707" lon="6.59269">
        <ele>1935</ele>
        <time>2021-04-07T10:02:33Z</time>
      </trkpt>
      <trkpt lat="44.50707" lon="6.59269">
        <ele>1935</ele>
        <time>2021-04-07T10:02:34Z</time>
      </trkpt>
      <trkpt lat="44.50707" lon="6.59269">
        <ele>1935</ele>
        <time>2021-04-07T10:02:35Z</time>
      </trkpt>
      <trkpt lat="44.50707" lon="6.59269">
        <ele>1934</ele>
        <time>2021-04-07T10:02:36Z</time>
      </trkpt>
      <trkpt lat="44.50707" lon="6.59269">
        <ele>1934</ele>
        <time>2021-04-07T10:02:37Z</time>
      </trkpt>
      <trkpt lat="44.50707" lon="6.59269">
        <ele>1934</ele>
        <time>2021-04-07T10:02:38Z</time>
      </trkpt>
      <trkpt lat="44.50707" lon="6.59269">
        <ele>1934</ele>
        <time>2021-04-07T10:02:39Z</time>
      </trkpt>
      <trkpt lat="44.50707" lon="6.59269">
        <ele>1934</ele>
        <time>2021-04-07T10:02:40Z</time>
      </trkpt>
      <trkpt lat="44.50707" lon="6.59269">
        <ele>1934</ele>
        <time>2021-04-07T10:02:41Z</time>
      </trkpt>
      <trkpt lat="44.50707" lon="6.59269">
        <ele>1934</ele>
        <time>2021-04-07T10:02:42Z</time>
      </trkpt>
      <trkpt lat="44.50707" lon="6.59269">
        <ele>1934</ele>
        <time>2021-04-07T10:02:43Z</time>
      </trkpt>
      <trkpt lat="44.50707" lon="6.59269">
        <ele>1934</ele>
        <time>2021-04-07T10:02:44Z</time>
      </trkpt>
      <trkpt lat="44.50707" lon="6.59269">
        <ele>1934</ele>
        <time>2021-04-07T10:02:45Z</time>
      </trkpt>
      <trkpt lat="44.50707" lon="6.59269">
        <ele>1934</ele>
        <time>2021-04-07T10:02:46Z</time>
      </trkpt>
      <trkpt lat="44.50707" lon="6.59269">
        <ele>1934</ele>
        <time>2021-04-07T10:02:47Z</time>
      </trkpt>
      <trkpt lat="44.50707" lon="6.59269">
        <ele>1934</ele>
        <time>2021-04-07T10:02:48Z</time>
      </trkpt>
      <trkpt lat="44.50712" lon="6.59273">
        <ele>1933</ele>
        <time>2021-04-07T10:02:49Z</time>
      </trkpt>
      <trkpt lat="44.50713" lon="6.59269">
        <ele>1933</ele>
        <time>2021-04-07T10:02:50Z</time>
      </trkpt>
      <trkpt lat="44.50714" lon="6.59267">
        <ele>1932</ele>
        <time>2021-04-07T10:02:51Z</time>
      </trkpt>
      <trkpt lat="44.50714" lon="6.59266">
        <ele>1932</ele>
        <time>2021-04-07T10:02:52Z</time>
      </trkpt>
      <trkpt lat="44.50714" lon="6.59266">
        <ele>1931</ele>
        <time>2021-04-07T10:02:53Z</time>
      </trkpt>
      <trkpt lat="44.50714" lon="6.59266">
        <ele>1931</ele>
        <time>2021-04-07T10:02:54Z</time>
      </trkpt>
      <trkpt lat="44.50714" lon="6.59266">
        <ele>1931</ele>
        <time>2021-04-07T10:02:55Z</time>
      </trkpt>
      <trkpt lat="44.50714" lon="6.59266">
        <ele>1931</ele>
        <time>2021-04-07T10:02:56Z</time>
      </trkpt>
      <trkpt lat="44.50714" lon="6.59266">
        <ele>1931</ele>
        <time>2021-04-07T10:02:57Z</time>
      </trkpt>
      <trkpt lat="44.50714" lon="6.59266">
        <ele>1931</ele>
        <time>2021-04-07T10:02:58Z</time>
      </trkpt>
      <trkpt lat="44.50714" lon="6.59266">
        <ele>1931</ele>
        <time>2021-04-07T10:02:59Z</time>
      </trkpt>
      <trkpt lat="44.50714" lon="6.59266">
        <ele>1931</ele>
        <time>2021-04-07T10:03:00Z</time>
      </trkpt>
      <trkpt lat="44.50714" lon="6.59266">
        <ele>1931</ele>
        <time>2021-04-07T10:03:01Z</time>
      </trkpt>
      <trkpt lat="44.50714" lon="6.59266">
        <ele>1931</ele>
        <time>2021-04-07T10:03:02Z</time>
      </trkpt>
      <trkpt lat="44.50714" lon="6.59266">
        <ele>1931</ele>
        <time>2021-04-07T10:03:03Z</time>
      </trkpt>
      <trkpt lat="44.50719" lon="6.59266">
        <ele>1930</ele>
        <time>2021-04-07T10:03:04Z</time>
      </trkpt>
      <trkpt lat="44.50719" lon="6.59269">
        <ele>1930</ele>
        <time>2021-04-07T10:03:05Z</time>
      </trkpt>
      <trkpt lat="44.50719" lon="6.59271">
        <ele>1930</ele>
        <time>2021-04-07T10:03:06Z</time>
      </trkpt>
      <trkpt lat="44.50718" lon="6.59272">
        <ele>1930</ele>
        <time>2021-04-07T10:03:07Z</time>
      </trkpt>
      <trkpt lat="44.50718" lon="6.59272">
        <ele>1929</ele>
        <time>2021-04-07T10:03:08Z</time>
      </trkpt>
      <trkpt lat="44.50718" lon="6.59272">
        <ele>1929</ele>
        <time>2021-04-07T10:03:09Z</time>
      </trkpt>
      <trkpt lat="44.50718" lon="6.59272">
        <ele>1929</ele>
        <time>2021-04-07T10:03:10Z</time>
      </trkpt>
      <trkpt lat="44.50718" lon="6.59272">
        <ele>1929</ele>
        <time>2021-04-07T10:03:11Z</time>
      </trkpt>
      <trkpt lat="44.50718" lon="6.59272">
        <ele>1929</ele>
        <time>2021-04-07T10:03:12Z</time>
      </trkpt>
      <trkpt lat="44.50718" lon="6.59272">
        <ele>1929</ele>
        <time>2021-04-07T10:03:13Z</time>
      </trkpt>
      <trkpt lat="44.50718" lon="6.59272">
        <ele>1929</ele>
        <time>2021-04-07T10:03:14Z</time>
      </trkpt>
      <trkpt lat="44.50718" lon="6.59272">
        <ele>1929</ele>
        <time>2021-04-07T10:03:15Z</time>
      </trkpt>
      <trkpt lat="44.50718" lon="6.59272">
        <ele>1929</ele>
        <time>2021-04-07T10:03:16Z</time>
      </trkpt>
      <trkpt lat="44.50718" lon="6.59272">
        <ele>1929</ele>
        <time>2021-04-07T10:03:17Z</time>
      </trkpt>
      <trkpt lat="44.50721" lon="6.59265">
        <ele>1929</ele>
        <time>2021-04-07T10:03:18Z</time>
      </trkpt>
      <trkpt lat="44.50721" lon="6.59262">
        <ele>1929</ele>
        <time>2021-04-07T10:03:19Z</time>
      </trkpt>
      <trkpt lat="44.50721" lon="6.59259">
        <ele>1928</ele>
        <time>2021-04-07T10:03:20Z</time>
      </trkpt>
      <trkpt lat="44.50721" lon="6.59257">
        <ele>1927</ele>
        <time>2021-04-07T10:03:21Z</time>
      </trkpt>
      <trkpt lat="44.50721" lon="6.59257">
        <ele>1927</ele>
        <time>2021-04-07T10:03:22Z</time>
      </trkpt>
      <trkpt lat="44.50721" lon="6.59257">
        <ele>1927</ele>
        <time>2021-04-07T10:03:23Z</time>
      </trkpt>
      <trkpt lat="44.50721" lon="6.59257">
        <ele>1926</ele>
        <time>2021-04-07T10:03:24Z</time>
      </trkpt>
      <trkpt lat="44.50721" lon="6.59257">
        <ele>1926</ele>
        <time>2021-04-07T10:03:25Z</time>
      </trkpt>
      <trkpt lat="44.50721" lon="6.59257">
        <ele>1926</ele>
        <time>2021-04-07T10:03:26Z</time>
      </trkpt>
      <trkpt lat="44.50721" lon="6.59257">
        <ele>1926</ele>
        <time>2021-04-07T10:03:27Z</time>
      </trkpt>
      <trkpt lat="44.50721" lon="6.59257">
        <ele>1926</ele>
        <time>2021-04-07T10:03:28Z</time>
      </trkpt>
      <trkpt lat="44.50721" lon="6.59257">
        <ele>1926</ele>
        <time>2021-04-07T10:03:29Z</time>
      </trkpt>
      <trkpt lat="44.50721" lon="6.59257">
        <ele>1926</ele>
        <time>2021-04-07T10:03:30Z</time>
      </trkpt>
      <trkpt lat="44.50721" lon="6.59257">
        <ele>1926</ele>
        <time>2021-04-07T10:03:31Z</time>
      </trkpt>
      <trkpt lat="44.50721" lon="6.59257">
        <ele>1926</ele>
        <time>2021-04-07T10:03:32Z</time>
      </trkpt>
      <trkpt lat="44.50721" lon="6.59257">
        <ele>1926</ele>
        <time>2021-04-07T10:03:33Z</time>
      </trkpt>
      <trkpt lat="44.50721" lon="6.59257">
        <ele>1926</ele>
        <time>2021-04-07T10:03:34Z</time>
      </trkpt>
      <trkpt lat="44.50721" lon="6.59257">
        <ele>1926</ele>
        <time>2021-04-07T10:03:35Z</time>
      </trkpt>
      <trkpt lat="44.50721" lon="6.59257">
        <ele>1926</ele>
        <time>2021-04-07T10:03:36Z</time>
      </trkpt>
      <trkpt lat="44.50721" lon="6.59257">
        <ele>1926</ele>
        <time>2021-04-07T10:03:37Z</time>
      </trkpt>
      <trkpt lat="44.50728" lon="6.59266">
        <ele>1929</ele>
        <time>2021-04-07T10:03:38Z</time>
      </trkpt>
      <trkpt lat="44.50729" lon="6.59267">
        <ele>1930</ele>
        <time>2021-04-07T10:03:39Z</time>
      </trkpt>
      <trkpt lat="44.50729" lon="6.59268">
        <ele>1930</ele>
        <time>2021-04-07T10:03:40Z</time>
      </trkpt>
      <trkpt lat="44.5073" lon="6.59269">
        <ele>1930</ele>
        <time>2021-04-07T10:03:41Z</time>
      </trkpt>
      <trkpt lat="44.50732" lon="6.59271">
        <ele>1931</ele>
        <time>2021-04-07T10:03:42Z</time>
      </trkpt>
      <trkpt lat="44.50733" lon="6.59272">
        <ele>1931</ele>
        <time>2021-04-07T10:03:43Z</time>
      </trkpt>
      <trkpt lat="44.50733" lon="6.59273">
        <ele>1931</ele>
        <time>2021-04-07T10:03:44Z</time>
      </trkpt>
      <trkpt lat="44.50733" lon="6.59273">
        <ele>1931</ele>
        <time>2021-04-07T10:03:45Z</time>
      </trkpt>
      <trkpt lat="44.50733" lon="6.59273">
        <ele>1931</ele>
        <time>2021-04-07T10:03:46Z</time>
      </trkpt>
      <trkpt lat="44.50733" lon="6.59273">
        <ele>1931</ele>
        <time>2021-04-07T10:03:47Z</time>
      </trkpt>
      <trkpt lat="44.50733" lon="6.59273">
        <ele>1931</ele>
        <time>2021-04-07T10:03:48Z</time>
      </trkpt>
      <trkpt lat="44.50733" lon="6.59273">
        <ele>1931</ele>
        <time>2021-04-07T10:03:49Z</time>
      </trkpt>
      <trkpt lat="44.50736" lon="6.59275">
        <ele>1931</ele>
        <time>2021-04-07T10:03:50Z</time>
      </trkpt>
      <trkpt lat="44.50736" lon="6.59276">
        <ele>1931</ele>
        <time>2021-04-07T10:03:51Z</time>
      </trkpt>
      <trkpt lat="44.50736" lon="6.59277">
        <ele>1931</ele>
        <time>2021-04-07T10:03:52Z</time>
      </trkpt>
      <trkpt lat="44.50736" lon="6.59277">
        <ele>1931</ele>
        <time>2021-04-07T10:03:53Z</time>
      </trkpt>
      <trkpt lat="44.50736" lon="6.59278">
        <ele>1930</ele>
        <time>2021-04-07T10:03:54Z</time>
      </trkpt>
      <trkpt lat="44.50736" lon="6.59278">
        <ele>1930</ele>
        <time>2021-04-07T10:03:55Z</time>
      </trkpt>
      <trkpt lat="44.50736" lon="6.59278">
        <ele>1930</ele>
        <time>2021-04-07T10:03:56Z</time>
      </trkpt>
      <trkpt lat="44.50736" lon="6.59278">
        <ele>1930</ele>
        <time>2021-04-07T10:03:57Z</time>
      </trkpt>
      <trkpt lat="44.50736" lon="6.59278">
        <ele>1930</ele>
        <time>2021-04-07T10:03:58Z</time>
      </trkpt>
      <trkpt lat="44.50736" lon="6.59278">
        <ele>1930</ele>
        <time>2021-04-07T10:03:59Z</time>
      </trkpt>
      <trkpt lat="44.50736" lon="6.59278">
        <ele>1930</ele>
        <time>2021-04-07T10:04:00Z</time>
      </trkpt>
      <trkpt lat="44.50736" lon="6.59278">
        <ele>1930</ele>
        <time>2021-04-07T10:04:01Z</time>
      </trkpt>
      <trkpt lat="44.50736" lon="6.59278">
        <ele>1930</ele>
        <time>2021-04-07T10:04:02Z</time>
      </trkpt>
      <trkpt lat="44.50736" lon="6.59278">
        <ele>1930</ele>
        <time>2021-04-07T10:04:03Z</time>
      </trkpt>
      <trkpt lat="44.50736" lon="6.59278">
        <ele>1930</ele>
        <time>2021-04-07T10:04:04Z</time>
      </trkpt>
      <trkpt lat="44.50736" lon="6.59278">
        <ele>1930</ele>
        <time>2021-04-07T10:04:05Z</time>
      </trkpt>
      <trkpt lat="44.50736" lon="6.59278">
        <ele>1930</ele>
        <time>2021-04-07T10:04:06Z</time>
      </trkpt>
      <trkpt lat="44.50736" lon="6.59278">
        <ele>1930</ele>
        <time>2021-04-07T10:04:07Z</time>
      </trkpt>
      <trkpt lat="44.50736" lon="6.59278">
        <ele>1930</ele>
        <time>2021-04-07T10:04:08Z</time>
      </trkpt>
      <trkpt lat="44.50736" lon="6.59278">
        <ele>1930</ele>
        <time>2021-04-07T10:04:09Z</time>
      </trkpt>
      <trkpt lat="44.50736" lon="6.59278">
        <ele>1930</ele>
        <time>2021-04-07T10:04:10Z</time>
      </trkpt>
      <trkpt lat="44.50736" lon="6.59278">
        <ele>1930</ele>
        <time>2021-04-07T10:04:11Z</time>
      </trkpt>
      <trkpt lat="44.50736" lon="6.59278">
        <ele>1930</ele>
        <time>2021-04-07T10:04:12Z</time>
      </trkpt>
      <trkpt lat="44.50736" lon="6.59278">
        <ele>1930</ele>
        <time>2021-04-07T10:04:13Z</time>
      </trkpt>
      <trkpt lat="44.50736" lon="6.59278">
        <ele>1930</ele>
        <time>2021-04-07T10:04:14Z</time>
      </trkpt>
      <trkpt lat="44.50736" lon="6.59278">
        <ele>1930</ele>
        <time>2021-04-07T10:04:15Z</time>
      </trkpt>
      <trkpt lat="44.50736" lon="6.59278">
        <ele>1930</ele>
        <time>2021-04-07T10:04:16Z</time>
      </trkpt>
      <trkpt lat="44.50736" lon="6.59278">
        <ele>1930</ele>
        <time>2021-04-07T10:04:17Z</time>
      </trkpt>
      <trkpt lat="44.50736" lon="6.59278">
        <ele>1930</ele>
        <time>2021-04-07T10:04:18Z</time>
      </trkpt>
      <trkpt lat="44.50736" lon="6.59278">
        <ele>1930</ele>
        <time>2021-04-07T10:04:19Z</time>
      </trkpt>
      <trkpt lat="44.50746" lon="6.59279">
        <ele>1928</ele>
        <time>2021-04-07T10:04:20Z</time>
      </trkpt>
      <trkpt lat="44.50746" lon="6.59277">
        <ele>1927</ele>
        <time>2021-04-07T10:04:21Z</time>
      </trkpt>
      <trkpt lat="44.50746" lon="6.59277">
        <ele>1926</ele>
        <time>2021-04-07T10:04:22Z</time>
      </trkpt>
      <trkpt lat="44.50746" lon="6.59276">
        <ele>1926</ele>
        <time>2021-04-07T10:04:23Z</time>
      </trkpt>
      <trkpt lat="44.50746" lon="6.59276">
        <ele>1926</ele>
        <time>2021-04-07T10:04:24Z</time>
      </trkpt>
      <trkpt lat="44.50746" lon="6.59276">
        <ele>1926</ele>
        <time>2021-04-07T10:04:25Z</time>
      </trkpt>
      <trkpt lat="44.50746" lon="6.59276">
        <ele>1926</ele>
        <time>2021-04-07T10:04:26Z</time>
      </trkpt>
      <trkpt lat="44.50746" lon="6.59276">
        <ele>1926</ele>
        <time>2021-04-07T10:04:27Z</time>
      </trkpt>
      <trkpt lat="44.50746" lon="6.59276">
        <ele>1925</ele>
        <time>2021-04-07T10:04:28Z</time>
      </trkpt>
      <trkpt lat="44.50746" lon="6.59276">
        <ele>1925</ele>
        <time>2021-04-07T10:04:29Z</time>
      </trkpt>
      <trkpt lat="44.50746" lon="6.59276">
        <ele>1925</ele>
        <time>2021-04-07T10:04:30Z</time>
      </trkpt>
      <trkpt lat="44.50746" lon="6.59276">
        <ele>1925</ele>
        <time>2021-04-07T10:04:31Z</time>
      </trkpt>
      <trkpt lat="44.50746" lon="6.59276">
        <ele>1925</ele>
        <time>2021-04-07T10:04:32Z</time>
      </trkpt>
      <trkpt lat="44.50746" lon="6.59276">
        <ele>1925</ele>
        <time>2021-04-07T10:04:33Z</time>
      </trkpt>
      <trkpt lat="44.50746" lon="6.59276">
        <ele>1925</ele>
        <time>2021-04-07T10:04:34Z</time>
      </trkpt>
      <trkpt lat="44.50746" lon="6.59276">
        <ele>1925</ele>
        <time>2021-04-07T10:04:35Z</time>
      </trkpt>
      <trkpt lat="44.50746" lon="6.59276">
        <ele>1925</ele>
        <time>2021-04-07T10:04:36Z</time>
      </trkpt>
      <trkpt lat="44.50746" lon="6.59276">
        <ele>1925</ele>
        <time>2021-04-07T10:04:37Z</time>
      </trkpt>
      <trkpt lat="44.50746" lon="6.59276">
        <ele>1925</ele>
        <time>2021-04-07T10:04:38Z</time>
      </trkpt>
      <trkpt lat="44.50746" lon="6.59276">
        <ele>1925</ele>
        <time>2021-04-07T10:04:39Z</time>
      </trkpt>
      <trkpt lat="44.50746" lon="6.59276">
        <ele>1925</ele>
        <time>2021-04-07T10:04:40Z</time>
      </trkpt>
      <trkpt lat="44.50746" lon="6.59276">
        <ele>1925</ele>
        <time>2021-04-07T10:04:41Z</time>
      </trkpt>
      <trkpt lat="44.50746" lon="6.59276">
        <ele>1925</ele>
        <time>2021-04-07T10:04:42Z</time>
      </trkpt>
      <trkpt lat="44.50746" lon="6.59276">
        <ele>1925</ele>
        <time>2021-04-07T10:04:43Z</time>
      </trkpt>
      <trkpt lat="44.50746" lon="6.59276">
        <ele>1925</ele>
        <time>2021-04-07T10:04:44Z</time>
      </trkpt>
      <trkpt lat="44.50743" lon="6.59271">
        <ele>1924</ele>
        <time>2021-04-07T10:04:45Z</time>
      </trkpt>
      <trkpt lat="44.50745" lon="6.59269">
        <ele>1923</ele>
        <time>2021-04-07T10:04:46Z</time>
      </trkpt>
      <trkpt lat="44.50745" lon="6.59269">
        <ele>1922</ele>
        <time>2021-04-07T10:04:47Z</time>
      </trkpt>
      <trkpt lat="44.50746" lon="6.59269">
        <ele>1922</ele>
        <time>2021-04-07T10:04:48Z</time>
      </trkpt>
      <trkpt lat="44.50746" lon="6.59269">
        <ele>1922</ele>
        <time>2021-04-07T10:04:49Z</time>
      </trkpt>
      <trkpt lat="44.50746" lon="6.59269">
        <ele>1922</ele>
        <time>2021-04-07T10:04:50Z</time>
      </trkpt>
      <trkpt lat="44.50746" lon="6.59269">
        <ele>1922</ele>
        <time>2021-04-07T10:04:51Z</time>
      </trkpt>
      <trkpt lat="44.50746" lon="6.59269">
        <ele>1921</ele>
        <time>2021-04-07T10:04:52Z</time>
      </trkpt>
      <trkpt lat="44.50746" lon="6.59269">
        <ele>1921</ele>
        <time>2021-04-07T10:04:53Z</time>
      </trkpt>
      <trkpt lat="44.50746" lon="6.59269">
        <ele>1921</ele>
        <time>2021-04-07T10:04:54Z</time>
      </trkpt>
      <trkpt lat="44.50746" lon="6.59269">
        <ele>1921</ele>
        <time>2021-04-07T10:04:55Z</time>
      </trkpt>
      <trkpt lat="44.50746" lon="6.59269">
        <ele>1921</ele>
        <time>2021-04-07T10:04:56Z</time>
      </trkpt>
      <trkpt lat="44.50746" lon="6.59269">
        <ele>1921</ele>
        <time>2021-04-07T10:04:57Z</time>
      </trkpt>
      <trkpt lat="44.50746" lon="6.59269">
        <ele>1921</ele>
        <time>2021-04-07T10:04:58Z</time>
      </trkpt>
      <trkpt lat="44.50746" lon="6.59269">
        <ele>1921</ele>
        <time>2021-04-07T10:04:59Z</time>
      </trkpt>
      <trkpt lat="44.50746" lon="6.59269">
        <ele>1921</ele>
        <time>2021-04-07T10:05:00Z</time>
      </trkpt>
      <trkpt lat="44.50746" lon="6.59269">
        <ele>1921</ele>
        <time>2021-04-07T10:05:01Z</time>
      </trkpt>
      <trkpt lat="44.50746" lon="6.59269">
        <ele>1921</ele>
        <time>2021-04-07T10:05:02Z</time>
      </trkpt>
      <trkpt lat="44.50746" lon="6.59269">
        <ele>1921</ele>
        <time>2021-04-07T10:05:03Z</time>
      </trkpt>
      <trkpt lat="44.50746" lon="6.59269">
        <ele>1921</ele>
        <time>2021-04-07T10:05:04Z</time>
      </trkpt>
      <trkpt lat="44.50746" lon="6.59269">
        <ele>1921</ele>
        <time>2021-04-07T10:05:05Z</time>
      </trkpt>
      <trkpt lat="44.50746" lon="6.59269">
        <ele>1921</ele>
        <time>2021-04-07T10:05:06Z</time>
      </trkpt>
      <trkpt lat="44.50746" lon="6.59269">
        <ele>1921</ele>
        <time>2021-04-07T10:05:07Z</time>
      </trkpt>
      <trkpt lat="44.50746" lon="6.59269">
        <ele>1921</ele>
        <time>2021-04-07T10:05:08Z</time>
      </trkpt>
      <trkpt lat="44.50746" lon="6.59269">
        <ele>1921</ele>
        <time>2021-04-07T10:05:09Z</time>
      </trkpt>
      <trkpt lat="44.50746" lon="6.59269">
        <ele>1921</ele>
        <time>2021-04-07T10:05:10Z</time>
      </trkpt>
      <trkpt lat="44.50746" lon="6.59269">
        <ele>1921</ele>
        <time>2021-04-07T10:05:11Z</time>
      </trkpt>
      <trkpt lat="44.50746" lon="6.59269">
        <ele>1921</ele>
        <time>2021-04-07T10:05:12Z</time>
      </trkpt>
      <trkpt lat="44.50746" lon="6.59269">
        <ele>1921</ele>
        <time>2021-04-07T10:05:13Z</time>
      </trkpt>
      <trkpt lat="44.50746" lon="6.59269">
        <ele>1921</ele>
        <time>2021-04-07T10:05:14Z</time>
      </trkpt>
      <trkpt lat="44.50746" lon="6.59269">
        <ele>1921</ele>
        <time>2021-04-07T10:05:15Z</time>
      </trkpt>
      <trkpt lat="44.50746" lon="6.59269">
        <ele>1921</ele>
        <time>2021-04-07T10:05:16Z</time>
      </trkpt>
      <trkpt lat="44.50746" lon="6.59269">
        <ele>1921</ele>
        <time>2021-04-07T10:05:17Z</time>
      </trkpt>
      <trkpt lat="44.50746" lon="6.59269">
        <ele>1921</ele>
        <time>2021-04-07T10:05:18Z</time>
      </trkpt>
      <trkpt lat="44.50746" lon="6.59269">
        <ele>1921</ele>
        <time>2021-04-07T10:05:19Z</time>
      </trkpt>
      <trkpt lat="44.50746" lon="6.59269">
        <ele>1921</ele>
        <time>2021-04-07T10:05:20Z</time>
      </trkpt>
      <trkpt lat="44.50746" lon="6.59269">
        <ele>1921</ele>
        <time>2021-04-07T10:05:21Z</time>
      </trkpt>
      <trkpt lat="44.50746" lon="6.59269">
        <ele>1921</ele>
        <time>2021-04-07T10:05:22Z</time>
      </trkpt>
      <trkpt lat="44.50746" lon="6.59269">
        <ele>1921</ele>
        <time>2021-04-07T10:05:23Z</time>
      </trkpt>
      <trkpt lat="44.50746" lon="6.59269">
        <ele>1921</ele>
        <time>2021-04-07T10:05:24Z</time>
      </trkpt>
      <trkpt lat="44.50746" lon="6.59269">
        <ele>1921</ele>
        <time>2021-04-07T10:05:25Z</time>
      </trkpt>
      <trkpt lat="44.50746" lon="6.59269">
        <ele>1921</ele>
        <time>2021-04-07T10:05:26Z</time>
      </trkpt>
      <trkpt lat="44.50746" lon="6.59269">
        <ele>1921</ele>
        <time>2021-04-07T10:05:27Z</time>
      </trkpt>
      <trkpt lat="44.50746" lon="6.59269">
        <ele>1921</ele>
        <time>2021-04-07T10:05:28Z</time>
      </trkpt>
      <trkpt lat="44.50746" lon="6.59269">
        <ele>1921</ele>
        <time>2021-04-07T10:05:29Z</time>
      </trkpt>
      <trkpt lat="44.50746" lon="6.59269">
        <ele>1921</ele>
        <time>2021-04-07T10:05:30Z</time>
      </trkpt>
      <trkpt lat="44.50746" lon="6.59269">
        <ele>1921</ele>
        <time>2021-04-07T10:05:31Z</time>
      </trkpt>
      <trkpt lat="44.50746" lon="6.59269">
        <ele>1921</ele>
        <time>2021-04-07T10:05:32Z</time>
      </trkpt>
      <trkpt lat="44.50746" lon="6.59269">
        <ele>1921</ele>
        <time>2021-04-07T10:05:33Z</time>
      </trkpt>
      <trkpt lat="44.50746" lon="6.59269">
        <ele>1921</ele>
        <time>2021-04-07T10:05:34Z</time>
      </trkpt>
      <trkpt lat="44.50746" lon="6.59269">
        <ele>1921</ele>
        <time>2021-04-07T10:05:35Z</time>
      </trkpt>
      <trkpt lat="44.50746" lon="6.59269">
        <ele>1921</ele>
        <time>2021-04-07T10:05:36Z</time>
      </trkpt>
      <trkpt lat="44.50746" lon="6.59269">
        <ele>1921</ele>
        <time>2021-04-07T10:05:37Z</time>
      </trkpt>
      <trkpt lat="44.50746" lon="6.59269">
        <ele>1921</ele>
        <time>2021-04-07T10:05:38Z</time>
      </trkpt>
      <trkpt lat="44.50746" lon="6.59269">
        <ele>1921</ele>
        <time>2021-04-07T10:05:39Z</time>
      </trkpt>
      <trkpt lat="44.50746" lon="6.59269">
        <ele>1921</ele>
        <time>2021-04-07T10:05:40Z</time>
      </trkpt>
      <trkpt lat="44.50746" lon="6.59269">
        <ele>1921</ele>
        <time>2021-04-07T10:05:41Z</time>
      </trkpt>
      <trkpt lat="44.50746" lon="6.59269">
        <ele>1921</ele>
        <time>2021-04-07T10:05:42Z</time>
      </trkpt>
      <trkpt lat="44.50746" lon="6.59269">
        <ele>1921</ele>
        <time>2021-04-07T10:05:43Z</time>
      </trkpt>
      <trkpt lat="44.50746" lon="6.59277">
        <ele>1920</ele>
        <time>2021-04-07T10:05:44Z</time>
      </trkpt>
      <trkpt lat="44.50748" lon="6.59276">
        <ele>1920</ele>
        <time>2021-04-07T10:05:45Z</time>
      </trkpt>
      <trkpt lat="44.50748" lon="6.59276">
        <ele>1921</ele>
        <time>2021-04-07T10:05:46Z</time>
      </trkpt>
      <trkpt lat="44.50748" lon="6.59275">
        <ele>1921</ele>
        <time>2021-04-07T10:05:47Z</time>
      </trkpt>
      <trkpt lat="44.50748" lon="6.59275">
        <ele>1921</ele>
        <time>2021-04-07T10:05:48Z</time>
      </trkpt>
      <trkpt lat="44.50748" lon="6.59275">
        <ele>1921</ele>
        <time>2021-04-07T10:05:49Z</time>
      </trkpt>
      <trkpt lat="44.5075" lon="6.59271">
        <ele>1921</ele>
        <time>2021-04-07T10:05:50Z</time>
      </trkpt>
      <trkpt lat="44.50752" lon="6.59268">
        <ele>1922</ele>
        <time>2021-04-07T10:05:51Z</time>
      </trkpt>
      <trkpt lat="44.50751" lon="6.59266">
        <ele>1922</ele>
        <time>2021-04-07T10:05:52Z</time>
      </trkpt>
      <trkpt lat="44.50752" lon="6.59265">
        <ele>1921</ele>
        <time>2021-04-07T10:05:53Z</time>
      </trkpt>
      <trkpt lat="44.50752" lon="6.59264">
        <ele>1920</ele>
        <time>2021-04-07T10:05:54Z</time>
      </trkpt>
      <trkpt lat="44.50752" lon="6.59264">
        <ele>1920</ele>
        <time>2021-04-07T10:05:55Z</time>
      </trkpt>
      <trkpt lat="44.50752" lon="6.59264">
        <ele>1920</ele>
        <time>2021-04-07T10:05:56Z</time>
      </trkpt>
      <trkpt lat="44.50752" lon="6.59264">
        <ele>1920</ele>
        <time>2021-04-07T10:05:57Z</time>
      </trkpt>
      <trkpt lat="44.50752" lon="6.59264">
        <ele>1920</ele>
        <time>2021-04-07T10:05:58Z</time>
      </trkpt>
      <trkpt lat="44.50752" lon="6.59264">
        <ele>1920</ele>
        <time>2021-04-07T10:05:59Z</time>
      </trkpt>
      <trkpt lat="44.50752" lon="6.59264">
        <ele>1920</ele>
        <time>2021-04-07T10:06:00Z</time>
      </trkpt>
      <trkpt lat="44.50752" lon="6.59264">
        <ele>1920</ele>
        <time>2021-04-07T10:06:01Z</time>
      </trkpt>
      <trkpt lat="44.50753" lon="6.59261">
        <ele>1919</ele>
        <time>2021-04-07T10:06:02Z</time>
      </trkpt>
      <trkpt lat="44.50753" lon="6.59259">
        <ele>1916</ele>
        <time>2021-04-07T10:06:03Z</time>
      </trkpt>
      <trkpt lat="44.50754" lon="6.59258">
        <ele>1916</ele>
        <time>2021-04-07T10:06:04Z</time>
      </trkpt>
      <trkpt lat="44.50754" lon="6.59258">
        <ele>1915</ele>
        <time>2021-04-07T10:06:05Z</time>
      </trkpt>
      <trkpt lat="44.50754" lon="6.59258">
        <ele>1915</ele>
        <time>2021-04-07T10:06:06Z</time>
      </trkpt>
      <trkpt lat="44.50754" lon="6.59258">
        <ele>1915</ele>
        <time>2021-04-07T10:06:07Z</time>
      </trkpt>
      <trkpt lat="44.50754" lon="6.59258">
        <ele>1915</ele>
        <time>2021-04-07T10:06:08Z</time>
      </trkpt>
      <trkpt lat="44.50754" lon="6.59258">
        <ele>1915</ele>
        <time>2021-04-07T10:06:09Z</time>
      </trkpt>
      <trkpt lat="44.50754" lon="6.59258">
        <ele>1914</ele>
        <time>2021-04-07T10:06:10Z</time>
      </trkpt>
      <trkpt lat="44.50753" lon="6.59262">
        <ele>1914</ele>
        <time>2021-04-07T10:06:11Z</time>
      </trkpt>
      <trkpt lat="44.50753" lon="6.59264">
        <ele>1914</ele>
        <time>2021-04-07T10:06:12Z</time>
      </trkpt>
      <trkpt lat="44.50753" lon="6.59263">
        <ele>1914</ele>
        <time>2021-04-07T10:06:13Z</time>
      </trkpt>
      <trkpt lat="44.50753" lon="6.59262">
        <ele>1914</ele>
        <time>2021-04-07T10:06:14Z</time>
      </trkpt>
      <trkpt lat="44.50753" lon="6.59262">
        <ele>1913</ele>
        <time>2021-04-07T10:06:15Z</time>
      </trkpt>
      <trkpt lat="44.50752" lon="6.59262">
        <ele>1913</ele>
        <time>2021-04-07T10:06:16Z</time>
      </trkpt>
      <trkpt lat="44.50752" lon="6.59262">
        <ele>1913</ele>
        <time>2021-04-07T10:06:17Z</time>
      </trkpt>
      <trkpt lat="44.50752" lon="6.59262">
        <ele>1913</ele>
        <time>2021-04-07T10:06:18Z</time>
      </trkpt>
      <trkpt lat="44.50752" lon="6.59262">
        <ele>1913</ele>
        <time>2021-04-07T10:06:19Z</time>
      </trkpt>
      <trkpt lat="44.50752" lon="6.59262">
        <ele>1913</ele>
        <time>2021-04-07T10:06:20Z</time>
      </trkpt>
      <trkpt lat="44.50752" lon="6.59262">
        <ele>1913</ele>
        <time>2021-04-07T10:06:21Z</time>
      </trkpt>
      <trkpt lat="44.50752" lon="6.59262">
        <ele>1913</ele>
        <time>2021-04-07T10:06:22Z</time>
      </trkpt>
      <trkpt lat="44.50752" lon="6.59262">
        <ele>1913</ele>
        <time>2021-04-07T10:06:23Z</time>
      </trkpt>
      <trkpt lat="44.50752" lon="6.59262">
        <ele>1913</ele>
        <time>2021-04-07T10:06:24Z</time>
      </trkpt>
      <trkpt lat="44.50752" lon="6.59262">
        <ele>1913</ele>
        <time>2021-04-07T10:06:25Z</time>
      </trkpt>
      <trkpt lat="44.50752" lon="6.59262">
        <ele>1913</ele>
        <time>2021-04-07T10:06:26Z</time>
      </trkpt>
      <trkpt lat="44.50752" lon="6.59262">
        <ele>1913</ele>
        <time>2021-04-07T10:06:27Z</time>
      </trkpt>
      <trkpt lat="44.50752" lon="6.59262">
        <ele>1913</ele>
        <time>2021-04-07T10:06:28Z</time>
      </trkpt>
      <trkpt lat="44.50755" lon="6.59264">
        <ele>1913</ele>
        <time>2021-04-07T10:06:29Z</time>
      </trkpt>
      <trkpt lat="44.50755" lon="6.59266">
        <ele>1912</ele>
        <time>2021-04-07T10:06:30Z</time>
      </trkpt>
      <trkpt lat="44.50755" lon="6.59267">
        <ele>1912</ele>
        <time>2021-04-07T10:06:31Z</time>
      </trkpt>
      <trkpt lat="44.50756" lon="6.59268">
        <ele>1912</ele>
        <time>2021-04-07T10:06:32Z</time>
      </trkpt>
      <trkpt lat="44.50756" lon="6.59269">
        <ele>1912</ele>
        <time>2021-04-07T10:06:33Z</time>
      </trkpt>
      <trkpt lat="44.50756" lon="6.59269">
        <ele>1912</ele>
        <time>2021-04-07T10:06:34Z</time>
      </trkpt>
      <trkpt lat="44.50756" lon="6.59269">
        <ele>1912</ele>
        <time>2021-04-07T10:06:35Z</time>
      </trkpt>
      <trkpt lat="44.50756" lon="6.59269">
        <ele>1912</ele>
        <time>2021-04-07T10:06:36Z</time>
      </trkpt>
      <trkpt lat="44.50756" lon="6.59269">
        <ele>1912</ele>
        <time>2021-04-07T10:06:37Z</time>
      </trkpt>
      <trkpt lat="44.50756" lon="6.59269">
        <ele>1912</ele>
        <time>2021-04-07T10:06:38Z</time>
      </trkpt>
      <trkpt lat="44.50756" lon="6.59269">
        <ele>1912</ele>
        <time>2021-04-07T10:06:39Z</time>
      </trkpt>
      <trkpt lat="44.50756" lon="6.59269">
        <ele>1912</ele>
        <time>2021-04-07T10:06:40Z</time>
      </trkpt>
      <trkpt lat="44.50756" lon="6.59269">
        <ele>1912</ele>
        <time>2021-04-07T10:06:41Z</time>
      </trkpt>
      <trkpt lat="44.50756" lon="6.59269">
        <ele>1912</ele>
        <time>2021-04-07T10:06:42Z</time>
      </trkpt>
      <trkpt lat="44.50756" lon="6.59269">
        <ele>1912</ele>
        <time>2021-04-07T10:06:43Z</time>
      </trkpt>
      <trkpt lat="44.50756" lon="6.59269">
        <ele>1912</ele>
        <time>2021-04-07T10:06:44Z</time>
      </trkpt>
      <trkpt lat="44.50756" lon="6.59269">
        <ele>1912</ele>
        <time>2021-04-07T10:06:45Z</time>
      </trkpt>
      <trkpt lat="44.50756" lon="6.59269">
        <ele>1912</ele>
        <time>2021-04-07T10:06:46Z</time>
      </trkpt>
      <trkpt lat="44.50756" lon="6.59269">
        <ele>1912</ele>
        <time>2021-04-07T10:06:47Z</time>
      </trkpt>
      <trkpt lat="44.50756" lon="6.59269">
        <ele>1912</ele>
        <time>2021-04-07T10:06:48Z</time>
      </trkpt>
      <trkpt lat="44.50763" lon="6.59282">
        <ele>1914</ele>
        <time>2021-04-07T10:06:49Z</time>
      </trkpt>
      <trkpt lat="44.50763" lon="6.59282">
        <ele>1915</ele>
        <time>2021-04-07T10:06:50Z</time>
      </trkpt>
      <trkpt lat="44.50763" lon="6.59282">
        <ele>1915</ele>
        <time>2021-04-07T10:06:51Z</time>
      </trkpt>
      <trkpt lat="44.50763" lon="6.59282">
        <ele>1915</ele>
        <time>2021-04-07T10:06:52Z</time>
      </trkpt>
      <trkpt lat="44.50763" lon="6.59282">
        <ele>1915</ele>
        <time>2021-04-07T10:06:53Z</time>
      </trkpt>
      <trkpt lat="44.50763" lon="6.59282">
        <ele>1915</ele>
        <time>2021-04-07T10:06:54Z</time>
      </trkpt>
      <trkpt lat="44.50763" lon="6.59282">
        <ele>1916</ele>
        <time>2021-04-07T10:06:55Z</time>
      </trkpt>
      <trkpt lat="44.50763" lon="6.59282">
        <ele>1916</ele>
        <time>2021-04-07T10:06:56Z</time>
      </trkpt>
      <trkpt lat="44.50763" lon="6.59282">
        <ele>1916</ele>
        <time>2021-04-07T10:06:57Z</time>
      </trkpt>
      <trkpt lat="44.50763" lon="6.59282">
        <ele>1916</ele>
        <time>2021-04-07T10:06:58Z</time>
      </trkpt>
      <trkpt lat="44.50763" lon="6.59282">
        <ele>1916</ele>
        <time>2021-04-07T10:06:59Z</time>
      </trkpt>
      <trkpt lat="44.50763" lon="6.59282">
        <ele>1916</ele>
        <time>2021-04-07T10:07:00Z</time>
      </trkpt>
      <trkpt lat="44.50763" lon="6.59282">
        <ele>1916</ele>
        <time>2021-04-07T10:07:01Z</time>
      </trkpt>
      <trkpt lat="44.50763" lon="6.59282">
        <ele>1916</ele>
        <time>2021-04-07T10:07:02Z</time>
      </trkpt>
      <trkpt lat="44.50763" lon="6.59282">
        <ele>1916</ele>
        <time>2021-04-07T10:07:03Z</time>
      </trkpt>
      <trkpt lat="44.50763" lon="6.59282">
        <ele>1916</ele>
        <time>2021-04-07T10:07:04Z</time>
      </trkpt>
      <trkpt lat="44.50763" lon="6.59282">
        <ele>1916</ele>
        <time>2021-04-07T10:07:05Z</time>
      </trkpt>
      <trkpt lat="44.50763" lon="6.59282">
        <ele>1916</ele>
        <time>2021-04-07T10:07:06Z</time>
      </trkpt>
      <trkpt lat="44.50763" lon="6.59282">
        <ele>1916</ele>
        <time>2021-04-07T10:07:07Z</time>
      </trkpt>
      <trkpt lat="44.50763" lon="6.59282">
        <ele>1916</ele>
        <time>2021-04-07T10:07:08Z</time>
      </trkpt>
      <trkpt lat="44.50763" lon="6.59282">
        <ele>1916</ele>
        <time>2021-04-07T10:07:09Z</time>
      </trkpt>
      <trkpt lat="44.50763" lon="6.59282">
        <ele>1916</ele>
        <time>2021-04-07T10:07:10Z</time>
      </trkpt>
      <trkpt lat="44.50763" lon="6.59282">
        <ele>1916</ele>
        <time>2021-04-07T10:07:11Z</time>
      </trkpt>
      <trkpt lat="44.50763" lon="6.59282">
        <ele>1916</ele>
        <time>2021-04-07T10:07:12Z</time>
      </trkpt>
      <trkpt lat="44.50763" lon="6.59282">
        <ele>1916</ele>
        <time>2021-04-07T10:07:13Z</time>
      </trkpt>
      <trkpt lat="44.50763" lon="6.59282">
        <ele>1916</ele>
        <time>2021-04-07T10:07:14Z</time>
      </trkpt>
      <trkpt lat="44.50763" lon="6.59282">
        <ele>1916</ele>
        <time>2021-04-07T10:07:15Z</time>
      </trkpt>
      <trkpt lat="44.50763" lon="6.59282">
        <ele>1916</ele>
        <time>2021-04-07T10:07:16Z</time>
      </trkpt>
      <trkpt lat="44.50763" lon="6.59282">
        <ele>1916</ele>
        <time>2021-04-07T10:07:17Z</time>
      </trkpt>
      <trkpt lat="44.50763" lon="6.59282">
        <ele>1916</ele>
        <time>2021-04-07T10:07:18Z</time>
      </trkpt>
      <trkpt lat="44.50763" lon="6.59282">
        <ele>1916</ele>
        <time>2021-04-07T10:07:19Z</time>
      </trkpt>
      <trkpt lat="44.50763" lon="6.59282">
        <ele>1916</ele>
        <time>2021-04-07T10:07:20Z</time>
      </trkpt>
      <trkpt lat="44.50763" lon="6.59282">
        <ele>1916</ele>
        <time>2021-04-07T10:07:21Z</time>
      </trkpt>
      <trkpt lat="44.50763" lon="6.59282">
        <ele>1916</ele>
        <time>2021-04-07T10:07:22Z</time>
      </trkpt>
      <trkpt lat="44.50763" lon="6.59282">
        <ele>1916</ele>
        <time>2021-04-07T10:07:23Z</time>
      </trkpt>
      <trkpt lat="44.50763" lon="6.59282">
        <ele>1916</ele>
        <time>2021-04-07T10:07:24Z</time>
      </trkpt>
      <trkpt lat="44.50763" lon="6.59282">
        <ele>1916</ele>
        <time>2021-04-07T10:07:25Z</time>
      </trkpt>
      <trkpt lat="44.50763" lon="6.59282">
        <ele>1916</ele>
        <time>2021-04-07T10:07:26Z</time>
      </trkpt>
      <trkpt lat="44.50763" lon="6.59282">
        <ele>1916</ele>
        <time>2021-04-07T10:07:27Z</time>
      </trkpt>
      <trkpt lat="44.50763" lon="6.59282">
        <ele>1916</ele>
        <time>2021-04-07T10:07:28Z</time>
      </trkpt>
      <trkpt lat="44.50763" lon="6.59282">
        <ele>1916</ele>
        <time>2021-04-07T10:07:29Z</time>
      </trkpt>
      <trkpt lat="44.50763" lon="6.59282">
        <ele>1916</ele>
        <time>2021-04-07T10:07:30Z</time>
      </trkpt>
      <trkpt lat="44.50763" lon="6.59282">
        <ele>1916</ele>
        <time>2021-04-07T10:07:31Z</time>
      </trkpt>
      <trkpt lat="44.50772" lon="6.59283">
        <ele>1914</ele>
        <time>2021-04-07T10:07:32Z</time>
      </trkpt>
      <trkpt lat="44.50772" lon="6.59283">
        <ele>1913</ele>
        <time>2021-04-07T10:07:33Z</time>
      </trkpt>
      <trkpt lat="44.50773" lon="6.59282">
        <ele>1913</ele>
        <time>2021-04-07T10:07:34Z</time>
      </trkpt>
      <trkpt lat="44.50773" lon="6.59282">
        <ele>1913</ele>
        <time>2021-04-07T10:07:35Z</time>
      </trkpt>
      <trkpt lat="44.50773" lon="6.59282">
        <ele>1912</ele>
        <time>2021-04-07T10:07:36Z</time>
      </trkpt>
      <trkpt lat="44.50773" lon="6.59282">
        <ele>1912</ele>
        <time>2021-04-07T10:07:37Z</time>
      </trkpt>
      <trkpt lat="44.50773" lon="6.59282">
        <ele>1912</ele>
        <time>2021-04-07T10:07:38Z</time>
      </trkpt>
      <trkpt lat="44.50773" lon="6.59282">
        <ele>1912</ele>
        <time>2021-04-07T10:07:39Z</time>
      </trkpt>
      <trkpt lat="44.50773" lon="6.59282">
        <ele>1912</ele>
        <time>2021-04-07T10:07:40Z</time>
      </trkpt>
      <trkpt lat="44.50773" lon="6.59282">
        <ele>1912</ele>
        <time>2021-04-07T10:07:41Z</time>
      </trkpt>
      <trkpt lat="44.50773" lon="6.59282">
        <ele>1912</ele>
        <time>2021-04-07T10:07:42Z</time>
      </trkpt>
      <trkpt lat="44.50773" lon="6.59282">
        <ele>1912</ele>
        <time>2021-04-07T10:07:43Z</time>
      </trkpt>
      <trkpt lat="44.50773" lon="6.59282">
        <ele>1912</ele>
        <time>2021-04-07T10:07:44Z</time>
      </trkpt>
      <trkpt lat="44.50773" lon="6.59282">
        <ele>1912</ele>
        <time>2021-04-07T10:07:45Z</time>
      </trkpt>
      <trkpt lat="44.50773" lon="6.59282">
        <ele>1912</ele>
        <time>2021-04-07T10:07:46Z</time>
      </trkpt>
      <trkpt lat="44.50773" lon="6.59282">
        <ele>1912</ele>
        <time>2021-04-07T10:07:47Z</time>
      </trkpt>
      <trkpt lat="44.50773" lon="6.59282">
        <ele>1912</ele>
        <time>2021-04-07T10:07:48Z</time>
      </trkpt>
      <trkpt lat="44.50773" lon="6.59282">
        <ele>1912</ele>
        <time>2021-04-07T10:07:49Z</time>
      </trkpt>
      <trkpt lat="44.50777" lon="6.59285">
        <ele>1909</ele>
        <time>2021-04-07T10:07:50Z</time>
      </trkpt>
      <trkpt lat="44.50777" lon="6.59284">
        <ele>1908</ele>
        <time>2021-04-07T10:07:51Z</time>
      </trkpt>
      <trkpt lat="44.50777" lon="6.59284">
        <ele>1907</ele>
        <time>2021-04-07T10:07:52Z</time>
      </trkpt>
      <trkpt lat="44.50777" lon="6.59284">
        <ele>1907</ele>
        <time>2021-04-07T10:07:53Z</time>
      </trkpt>
      <trkpt lat="44.50777" lon="6.59284">
        <ele>1907</ele>
        <time>2021-04-07T10:07:54Z</time>
      </trkpt>
      <trkpt lat="44.50777" lon="6.59284">
        <ele>1906</ele>
        <time>2021-04-07T10:07:55Z</time>
      </trkpt>
      <trkpt lat="44.50777" lon="6.59284">
        <ele>1906</ele>
        <time>2021-04-07T10:07:56Z</time>
      </trkpt>
      <trkpt lat="44.50777" lon="6.59284">
        <ele>1906</ele>
        <time>2021-04-07T10:07:57Z</time>
      </trkpt>
      <trkpt lat="44.50777" lon="6.59284">
        <ele>1906</ele>
        <time>2021-04-07T10:07:58Z</time>
      </trkpt>
      <trkpt lat="44.50777" lon="6.59284">
        <ele>1906</ele>
        <time>2021-04-07T10:07:59Z</time>
      </trkpt>
      <trkpt lat="44.50777" lon="6.59284">
        <ele>1906</ele>
        <time>2021-04-07T10:08:00Z</time>
      </trkpt>
      <trkpt lat="44.50777" lon="6.59284">
        <ele>1906</ele>
        <time>2021-04-07T10:08:01Z</time>
      </trkpt>
      <trkpt lat="44.50777" lon="6.59284">
        <ele>1906</ele>
        <time>2021-04-07T10:08:02Z</time>
      </trkpt>
      <trkpt lat="44.50777" lon="6.59284">
        <ele>1906</ele>
        <time>2021-04-07T10:08:03Z</time>
      </trkpt>
      <trkpt lat="44.50777" lon="6.59284">
        <ele>1906</ele>
        <time>2021-04-07T10:08:04Z</time>
      </trkpt>
      <trkpt lat="44.50777" lon="6.59284">
        <ele>1906</ele>
        <time>2021-04-07T10:08:05Z</time>
      </trkpt>
      <trkpt lat="44.50777" lon="6.59284">
        <ele>1906</ele>
        <time>2021-04-07T10:08:06Z</time>
      </trkpt>
      <trkpt lat="44.50777" lon="6.59284">
        <ele>1906</ele>
        <time>2021-04-07T10:08:07Z</time>
      </trkpt>
      <trkpt lat="44.50777" lon="6.59284">
        <ele>1906</ele>
        <time>2021-04-07T10:08:08Z</time>
      </trkpt>
      <trkpt lat="44.50777" lon="6.59284">
        <ele>1906</ele>
        <time>2021-04-07T10:08:09Z</time>
      </trkpt>
      <trkpt lat="44.50777" lon="6.59284">
        <ele>1906</ele>
        <time>2021-04-07T10:08:10Z</time>
      </trkpt>
      <trkpt lat="44.50783" lon="6.59293">
        <ele>1904</ele>
        <time>2021-04-07T10:08:11Z</time>
      </trkpt>
      <trkpt lat="44.50784" lon="6.59293">
        <ele>1903</ele>
        <time>2021-04-07T10:08:12Z</time>
      </trkpt>
      <trkpt lat="44.50784" lon="6.59293">
        <ele>1903</ele>
        <time>2021-04-07T10:08:13Z</time>
      </trkpt>
      <trkpt lat="44.50785" lon="6.59293">
        <ele>1903</ele>
        <time>2021-04-07T10:08:14Z</time>
      </trkpt>
      <trkpt lat="44.50785" lon="6.59293">
        <ele>1903</ele>
        <time>2021-04-07T10:08:15Z</time>
      </trkpt>
      <trkpt lat="44.50785" lon="6.59293">
        <ele>1903</ele>
        <time>2021-04-07T10:08:16Z</time>
      </trkpt>
      <trkpt lat="44.50785" lon="6.59293">
        <ele>1903</ele>
        <time>2021-04-07T10:08:17Z</time>
      </trkpt>
      <trkpt lat="44.50789" lon="6.59296">
        <ele>1902</ele>
        <time>2021-04-07T10:08:18Z</time>
      </trkpt>
      <trkpt lat="44.50789" lon="6.59299">
        <ele>1901</ele>
        <time>2021-04-07T10:08:19Z</time>
      </trkpt>
      <trkpt lat="44.50788" lon="6.59301">
        <ele>1901</ele>
        <time>2021-04-07T10:08:20Z</time>
      </trkpt>
      <trkpt lat="44.50787" lon="6.59303">
        <ele>1899</ele>
        <time>2021-04-07T10:08:21Z</time>
      </trkpt>
      <trkpt lat="44.50787" lon="6.59304">
        <ele>1899</ele>
        <time>2021-04-07T10:08:22Z</time>
      </trkpt>
      <trkpt lat="44.50787" lon="6.59304">
        <ele>1899</ele>
        <time>2021-04-07T10:08:23Z</time>
      </trkpt>
      <trkpt lat="44.50787" lon="6.59304">
        <ele>1899</ele>
        <time>2021-04-07T10:08:24Z</time>
      </trkpt>
      <trkpt lat="44.50787" lon="6.59304">
        <ele>1898</ele>
        <time>2021-04-07T10:08:25Z</time>
      </trkpt>
      <trkpt lat="44.50787" lon="6.59304">
        <ele>1898</ele>
        <time>2021-04-07T10:08:26Z</time>
      </trkpt>
      <trkpt lat="44.50787" lon="6.59304">
        <ele>1898</ele>
        <time>2021-04-07T10:08:27Z</time>
      </trkpt>
      <trkpt lat="44.50787" lon="6.59304">
        <ele>1898</ele>
        <time>2021-04-07T10:08:28Z</time>
      </trkpt>
      <trkpt lat="44.50787" lon="6.59304">
        <ele>1898</ele>
        <time>2021-04-07T10:08:29Z</time>
      </trkpt>
      <trkpt lat="44.50787" lon="6.59304">
        <ele>1898</ele>
        <time>2021-04-07T10:08:30Z</time>
      </trkpt>
      <trkpt lat="44.50787" lon="6.59304">
        <ele>1898</ele>
        <time>2021-04-07T10:08:31Z</time>
      </trkpt>
      <trkpt lat="44.50787" lon="6.59304">
        <ele>1898</ele>
        <time>2021-04-07T10:08:32Z</time>
      </trkpt>
      <trkpt lat="44.50787" lon="6.59304">
        <ele>1898</ele>
        <time>2021-04-07T10:08:33Z</time>
      </trkpt>
      <trkpt lat="44.50787" lon="6.59304">
        <ele>1898</ele>
        <time>2021-04-07T10:08:34Z</time>
      </trkpt>
      <trkpt lat="44.50787" lon="6.59304">
        <ele>1898</ele>
        <time>2021-04-07T10:08:35Z</time>
      </trkpt>
      <trkpt lat="44.50787" lon="6.59304">
        <ele>1898</ele>
        <time>2021-04-07T10:08:36Z</time>
      </trkpt>
      <trkpt lat="44.50787" lon="6.59304">
        <ele>1898</ele>
        <time>2021-04-07T10:08:37Z</time>
      </trkpt>
      <trkpt lat="44.50787" lon="6.59304">
        <ele>1898</ele>
        <time>2021-04-07T10:08:38Z</time>
      </trkpt>
      <trkpt lat="44.50787" lon="6.59304">
        <ele>1898</ele>
        <time>2021-04-07T10:08:39Z</time>
      </trkpt>
      <trkpt lat="44.50787" lon="6.59304">
        <ele>1898</ele>
        <time>2021-04-07T10:08:40Z</time>
      </trkpt>
      <trkpt lat="44.50787" lon="6.59304">
        <ele>1898</ele>
        <time>2021-04-07T10:08:41Z</time>
      </trkpt>
      <trkpt lat="44.50787" lon="6.59304">
        <ele>1898</ele>
        <time>2021-04-07T10:08:42Z</time>
      </trkpt>
      <trkpt lat="44.50787" lon="6.59304">
        <ele>1898</ele>
        <time>2021-04-07T10:08:43Z</time>
      </trkpt>
      <trkpt lat="44.50787" lon="6.59304">
        <ele>1898</ele>
        <time>2021-04-07T10:08:44Z</time>
      </trkpt>
      <trkpt lat="44.50787" lon="6.59304">
        <ele>1898</ele>
        <time>2021-04-07T10:08:45Z</time>
      </trkpt>
      <trkpt lat="44.50783" lon="6.59317">
        <ele>1896</ele>
        <time>2021-04-07T10:08:46Z</time>
      </trkpt>
      <trkpt lat="44.50783" lon="6.59318">
        <ele>1895</ele>
        <time>2021-04-07T10:08:47Z</time>
      </trkpt>
      <trkpt lat="44.50783" lon="6.59319">
        <ele>1895</ele>
        <time>2021-04-07T10:08:48Z</time>
      </trkpt>
      <trkpt lat="44.50783" lon="6.59319">
        <ele>1895</ele>
        <time>2021-04-07T10:08:49Z</time>
      </trkpt>
      <trkpt lat="44.50783" lon="6.59319">
        <ele>1894</ele>
        <time>2021-04-07T10:08:50Z</time>
      </trkpt>
      <trkpt lat="44.50783" lon="6.59319">
        <ele>1894</ele>
        <time>2021-04-07T10:08:51Z</time>
      </trkpt>
      <trkpt lat="44.50783" lon="6.59319">
        <ele>1894</ele>
        <time>2021-04-07T10:08:52Z</time>
      </trkpt>
      <trkpt lat="44.50783" lon="6.59319">
        <ele>1894</ele>
        <time>2021-04-07T10:08:53Z</time>
      </trkpt>
      <trkpt lat="44.50783" lon="6.59319">
        <ele>1894</ele>
        <time>2021-04-07T10:08:54Z</time>
      </trkpt>
      <trkpt lat="44.50783" lon="6.59319">
        <ele>1894</ele>
        <time>2021-04-07T10:08:55Z</time>
      </trkpt>
      <trkpt lat="44.50783" lon="6.59319">
        <ele>1894</ele>
        <time>2021-04-07T10:08:56Z</time>
      </trkpt>
      <trkpt lat="44.50783" lon="6.59319">
        <ele>1894</ele>
        <time>2021-04-07T10:08:57Z</time>
      </trkpt>
      <trkpt lat="44.50783" lon="6.59319">
        <ele>1894</ele>
        <time>2021-04-07T10:08:58Z</time>
      </trkpt>
      <trkpt lat="44.50783" lon="6.59319">
        <ele>1894</ele>
        <time>2021-04-07T10:08:59Z</time>
      </trkpt>
      <trkpt lat="44.50787" lon="6.59329">
        <ele>1893</ele>
        <time>2021-04-07T10:09:00Z</time>
      </trkpt>
      <trkpt lat="44.50787" lon="6.59333">
        <ele>1892</ele>
        <time>2021-04-07T10:09:01Z</time>
      </trkpt>
      <trkpt lat="44.50787" lon="6.59337">
        <ele>1892</ele>
        <time>2021-04-07T10:09:02Z</time>
      </trkpt>
      <trkpt lat="44.50789" lon="6.59343">
        <ele>1891</ele>
        <time>2021-04-07T10:09:03Z</time>
      </trkpt>
      <trkpt lat="44.5079" lon="6.59346">
        <ele>1890</ele>
        <time>2021-04-07T10:09:04Z</time>
      </trkpt>
      <trkpt lat="44.50791" lon="6.59348">
        <ele>1890</ele>
        <time>2021-04-07T10:09:05Z</time>
      </trkpt>
      <trkpt lat="44.50791" lon="6.59348">
        <ele>1889</ele>
        <time>2021-04-07T10:09:06Z</time>
      </trkpt>
      <trkpt lat="44.50791" lon="6.59348">
        <ele>1889</ele>
        <time>2021-04-07T10:09:07Z</time>
      </trkpt>
      <trkpt lat="44.50791" lon="6.59348">
        <ele>1889</ele>
        <time>2021-04-07T10:09:08Z</time>
      </trkpt>
      <trkpt lat="44.50791" lon="6.59348">
        <ele>1889</ele>
        <time>2021-04-07T10:09:09Z</time>
      </trkpt>
      <trkpt lat="44.50791" lon="6.59348">
        <ele>1889</ele>
        <time>2021-04-07T10:09:10Z</time>
      </trkpt>
      <trkpt lat="44.50791" lon="6.59348">
        <ele>1889</ele>
        <time>2021-04-07T10:09:11Z</time>
      </trkpt>
      <trkpt lat="44.50791" lon="6.59348">
        <ele>1889</ele>
        <time>2021-04-07T10:09:12Z</time>
      </trkpt>
      <trkpt lat="44.50791" lon="6.59348">
        <ele>1889</ele>
        <time>2021-04-07T10:09:13Z</time>
      </trkpt>
      <trkpt lat="44.50791" lon="6.59348">
        <ele>1889</ele>
        <time>2021-04-07T10:09:14Z</time>
      </trkpt>
      <trkpt lat="44.50791" lon="6.59348">
        <ele>1889</ele>
        <time>2021-04-07T10:09:15Z</time>
      </trkpt>
      <trkpt lat="44.50791" lon="6.59348">
        <ele>1889</ele>
        <time>2021-04-07T10:09:16Z</time>
      </trkpt>
      <trkpt lat="44.50791" lon="6.59348">
        <ele>1889</ele>
        <time>2021-04-07T10:09:17Z</time>
      </trkpt>
      <trkpt lat="44.50791" lon="6.59348">
        <ele>1889</ele>
        <time>2021-04-07T10:09:18Z</time>
      </trkpt>
      <trkpt lat="44.50791" lon="6.59348">
        <ele>1889</ele>
        <time>2021-04-07T10:09:19Z</time>
      </trkpt>
      <trkpt lat="44.50791" lon="6.59348">
        <ele>1889</ele>
        <time>2021-04-07T10:09:20Z</time>
      </trkpt>
      <trkpt lat="44.50791" lon="6.59348">
        <ele>1889</ele>
        <time>2021-04-07T10:09:21Z</time>
      </trkpt>
      <trkpt lat="44.50791" lon="6.59348">
        <ele>1889</ele>
        <time>2021-04-07T10:09:22Z</time>
      </trkpt>
      <trkpt lat="44.50791" lon="6.59348">
        <ele>1889</ele>
        <time>2021-04-07T10:09:23Z</time>
      </trkpt>
      <trkpt lat="44.50791" lon="6.59348">
        <ele>1889</ele>
        <time>2021-04-07T10:09:24Z</time>
      </trkpt>
      <trkpt lat="44.50791" lon="6.59348">
        <ele>1889</ele>
        <time>2021-04-07T10:09:25Z</time>
      </trkpt>
      <trkpt lat="44.50799" lon="6.59354">
        <ele>1888</ele>
        <time>2021-04-07T10:09:26Z</time>
      </trkpt>
      <trkpt lat="44.508" lon="6.59354">
        <ele>1888</ele>
        <time>2021-04-07T10:09:27Z</time>
      </trkpt>
      <trkpt lat="44.508" lon="6.59355">
        <ele>1888</ele>
        <time>2021-04-07T10:09:28Z</time>
      </trkpt>
      <trkpt lat="44.508" lon="6.59355">
        <ele>1888</ele>
        <time>2021-04-07T10:09:29Z</time>
      </trkpt>
      <trkpt lat="44.508" lon="6.59355">
        <ele>1888</ele>
        <time>2021-04-07T10:09:30Z</time>
      </trkpt>
      <trkpt lat="44.508" lon="6.59355">
        <ele>1888</ele>
        <time>2021-04-07T10:09:31Z</time>
      </trkpt>
      <trkpt lat="44.508" lon="6.59355">
        <ele>1888</ele>
        <time>2021-04-07T10:09:32Z</time>
      </trkpt>
      <trkpt lat="44.508" lon="6.59355">
        <ele>1888</ele>
        <time>2021-04-07T10:09:33Z</time>
      </trkpt>
      <trkpt lat="44.508" lon="6.59355">
        <ele>1888</ele>
        <time>2021-04-07T10:09:34Z</time>
      </trkpt>
      <trkpt lat="44.508" lon="6.59355">
        <ele>1888</ele>
        <time>2021-04-07T10:09:35Z</time>
      </trkpt>
      <trkpt lat="44.508" lon="6.59355">
        <ele>1888</ele>
        <time>2021-04-07T10:09:36Z</time>
      </trkpt>
      <trkpt lat="44.508" lon="6.59355">
        <ele>1888</ele>
        <time>2021-04-07T10:09:37Z</time>
      </trkpt>
      <trkpt lat="44.508" lon="6.59355">
        <ele>1888</ele>
        <time>2021-04-07T10:09:38Z</time>
      </trkpt>
      <trkpt lat="44.508" lon="6.59355">
        <ele>1888</ele>
        <time>2021-04-07T10:09:39Z</time>
      </trkpt>
      <trkpt lat="44.508" lon="6.59355">
        <ele>1888</ele>
        <time>2021-04-07T10:09:40Z</time>
      </trkpt>
      <trkpt lat="44.508" lon="6.59355">
        <ele>1888</ele>
        <time>2021-04-07T10:09:41Z</time>
      </trkpt>
      <trkpt lat="44.508" lon="6.59355">
        <ele>1888</ele>
        <time>2021-04-07T10:09:42Z</time>
      </trkpt>
      <trkpt lat="44.508" lon="6.59355">
        <ele>1888</ele>
        <time>2021-04-07T10:09:43Z</time>
      </trkpt>
      <trkpt lat="44.50809" lon="6.59356">
        <ele>1887</ele>
        <time>2021-04-07T10:09:44Z</time>
      </trkpt>
      <trkpt lat="44.50812" lon="6.59358">
        <ele>1887</ele>
        <time>2021-04-07T10:09:45Z</time>
      </trkpt>
      <trkpt lat="44.50814" lon="6.59358">
        <ele>1886</ele>
        <time>2021-04-07T10:09:46Z</time>
      </trkpt>
      <trkpt lat="44.50816" lon="6.59357">
        <ele>1885</ele>
        <time>2021-04-07T10:09:47Z</time>
      </trkpt>
      <trkpt lat="44.50818" lon="6.59357">
        <ele>1885</ele>
        <time>2021-04-07T10:09:48Z</time>
      </trkpt>
      <trkpt lat="44.5082" lon="6.59359">
        <ele>1885</ele>
        <time>2021-04-07T10:09:49Z</time>
      </trkpt>
      <trkpt lat="44.50821" lon="6.59362">
        <ele>1884</ele>
        <time>2021-04-07T10:09:50Z</time>
      </trkpt>
      <trkpt lat="44.50821" lon="6.59364">
        <ele>1883</ele>
        <time>2021-04-07T10:09:51Z</time>
      </trkpt>
      <trkpt lat="44.50821" lon="6.59364">
        <ele>1883</ele>
        <time>2021-04-07T10:09:52Z</time>
      </trkpt>
      <trkpt lat="44.50822" lon="6.59365">
        <ele>1883</ele>
        <time>2021-04-07T10:09:53Z</time>
      </trkpt>
      <trkpt lat="44.50822" lon="6.59365">
        <ele>1882</ele>
        <time>2021-04-07T10:09:54Z</time>
      </trkpt>
      <trkpt lat="44.50825" lon="6.59367">
        <ele>1881</ele>
        <time>2021-04-07T10:09:55Z</time>
      </trkpt>
      <trkpt lat="44.50826" lon="6.59365">
        <ele>1881</ele>
        <time>2021-04-07T10:09:56Z</time>
      </trkpt>
      <trkpt lat="44.50828" lon="6.59363">
        <ele>1879</ele>
        <time>2021-04-07T10:09:57Z</time>
      </trkpt>
      <trkpt lat="44.50828" lon="6.59362">
        <ele>1878</ele>
        <time>2021-04-07T10:09:58Z</time>
      </trkpt>
      <trkpt lat="44.50829" lon="6.59363">
        <ele>1878</ele>
        <time>2021-04-07T10:09:59Z</time>
      </trkpt>
      <trkpt lat="44.50828" lon="6.59364">
        <ele>1877</ele>
        <time>2021-04-07T10:10:00Z</time>
      </trkpt>
      <trkpt lat="44.50828" lon="6.59365">
        <ele>1877</ele>
        <time>2021-04-07T10:10:01Z</time>
      </trkpt>
      <trkpt lat="44.50828" lon="6.59365">
        <ele>1876</ele>
        <time>2021-04-07T10:10:02Z</time>
      </trkpt>
      <trkpt lat="44.50828" lon="6.59365">
        <ele>1876</ele>
        <time>2021-04-07T10:10:03Z</time>
      </trkpt>
      <trkpt lat="44.50828" lon="6.59365">
        <ele>1876</ele>
        <time>2021-04-07T10:10:04Z</time>
      </trkpt>
      <trkpt lat="44.50828" lon="6.59365">
        <ele>1876</ele>
        <time>2021-04-07T10:10:05Z</time>
      </trkpt>
      <trkpt lat="44.50825" lon="6.5937">
        <ele>1873</ele>
        <time>2021-04-07T10:10:06Z</time>
      </trkpt>
      <trkpt lat="44.50824" lon="6.59371">
        <ele>1872</ele>
        <time>2021-04-07T10:10:07Z</time>
      </trkpt>
      <trkpt lat="44.50824" lon="6.59371">
        <ele>1871</ele>
        <time>2021-04-07T10:10:08Z</time>
      </trkpt>
      <trkpt lat="44.50823" lon="6.59372">
        <ele>1871</ele>
        <time>2021-04-07T10:10:09Z</time>
      </trkpt>
      <trkpt lat="44.50823" lon="6.59372">
        <ele>1870</ele>
        <time>2021-04-07T10:10:10Z</time>
      </trkpt>
      <trkpt lat="44.50823" lon="6.59372">
        <ele>1870</ele>
        <time>2021-04-07T10:10:11Z</time>
      </trkpt>
      <trkpt lat="44.50823" lon="6.59372">
        <ele>1870</ele>
        <time>2021-04-07T10:10:12Z</time>
      </trkpt>
      <trkpt lat="44.50823" lon="6.59372">
        <ele>1870</ele>
        <time>2021-04-07T10:10:13Z</time>
      </trkpt>
      <trkpt lat="44.50823" lon="6.59372">
        <ele>1870</ele>
        <time>2021-04-07T10:10:14Z</time>
      </trkpt>
      <trkpt lat="44.50823" lon="6.59372">
        <ele>1870</ele>
        <time>2021-04-07T10:10:15Z</time>
      </trkpt>
      <trkpt lat="44.50824" lon="6.59376">
        <ele>1867</ele>
        <time>2021-04-07T10:10:16Z</time>
      </trkpt>
      <trkpt lat="44.50828" lon="6.59377">
        <ele>1865</ele>
        <time>2021-04-07T10:10:17Z</time>
      </trkpt>
      <trkpt lat="44.50832" lon="6.59376">
        <ele>1864</ele>
        <time>2021-04-07T10:10:18Z</time>
      </trkpt>
      <trkpt lat="44.50835" lon="6.59374">
        <ele>1864</ele>
        <time>2021-04-07T10:10:19Z</time>
      </trkpt>
      <trkpt lat="44.50838" lon="6.59373">
        <ele>1863</ele>
        <time>2021-04-07T10:10:20Z</time>
      </trkpt>
      <trkpt lat="44.50842" lon="6.59374">
        <ele>1862</ele>
        <time>2021-04-07T10:10:21Z</time>
      </trkpt>
      <trkpt lat="44.50845" lon="6.59377">
        <ele>1861</ele>
        <time>2021-04-07T10:10:22Z</time>
      </trkpt>
      <trkpt lat="44.50847" lon="6.5938">
        <ele>1861</ele>
        <time>2021-04-07T10:10:23Z</time>
      </trkpt>
      <trkpt lat="44.50849" lon="6.59383">
        <ele>1861</ele>
        <time>2021-04-07T10:10:24Z</time>
      </trkpt>
      <trkpt lat="44.50851" lon="6.59384">
        <ele>1860</ele>
        <time>2021-04-07T10:10:25Z</time>
      </trkpt>
      <trkpt lat="44.50854" lon="6.59385">
        <ele>1860</ele>
        <time>2021-04-07T10:10:26Z</time>
      </trkpt>
      <trkpt lat="44.50858" lon="6.59386">
        <ele>1860</ele>
        <time>2021-04-07T10:10:27Z</time>
      </trkpt>
      <trkpt lat="44.50861" lon="6.59385">
        <ele>1859</ele>
        <time>2021-04-07T10:10:28Z</time>
      </trkpt>
      <trkpt lat="44.50864" lon="6.59382">
        <ele>1858</ele>
        <time>2021-04-07T10:10:29Z</time>
      </trkpt>
      <trkpt lat="44.50867" lon="6.59379">
        <ele>1857</ele>
        <time>2021-04-07T10:10:30Z</time>
      </trkpt>
      <trkpt lat="44.5087" lon="6.59379">
        <ele>1856</ele>
        <time>2021-04-07T10:10:31Z</time>
      </trkpt>
      <trkpt lat="44.50873" lon="6.59379">
        <ele>1856</ele>
        <time>2021-04-07T10:10:32Z</time>
      </trkpt>
      <trkpt lat="44.50874" lon="6.59381">
        <ele>1855</ele>
        <time>2021-04-07T10:10:33Z</time>
      </trkpt>
      <trkpt lat="44.50876" lon="6.59382">
        <ele>1854</ele>
        <time>2021-04-07T10:10:34Z</time>
      </trkpt>
      <trkpt lat="44.50877" lon="6.59382">
        <ele>1854</ele>
        <time>2021-04-07T10:10:35Z</time>
      </trkpt>
      <trkpt lat="44.50877" lon="6.59381">
        <ele>1853</ele>
        <time>2021-04-07T10:10:36Z</time>
      </trkpt>
      <trkpt lat="44.50877" lon="6.5938">
        <ele>1852</ele>
        <time>2021-04-07T10:10:37Z</time>
      </trkpt>
      <trkpt lat="44.50877" lon="6.5938">
        <ele>1851</ele>
        <time>2021-04-07T10:10:38Z</time>
      </trkpt>
      <trkpt lat="44.50878" lon="6.59379">
        <ele>1851</ele>
        <time>2021-04-07T10:10:39Z</time>
      </trkpt>
      <trkpt lat="44.50878" lon="6.59379">
        <ele>1851</ele>
        <time>2021-04-07T10:10:40Z</time>
      </trkpt>
      <trkpt lat="44.50878" lon="6.59379">
        <ele>1851</ele>
        <time>2021-04-07T10:10:41Z</time>
      </trkpt>
      <trkpt lat="44.50885" lon="6.59377">
        <ele>1850</ele>
        <time>2021-04-07T10:10:42Z</time>
      </trkpt>
      <trkpt lat="44.50888" lon="6.59378">
        <ele>1850</ele>
        <time>2021-04-07T10:10:43Z</time>
      </trkpt>
      <trkpt lat="44.50891" lon="6.5938">
        <ele>1850</ele>
        <time>2021-04-07T10:10:44Z</time>
      </trkpt>
      <trkpt lat="44.50893" lon="6.5938">
        <ele>1849</ele>
        <time>2021-04-07T10:10:45Z</time>
      </trkpt>
      <trkpt lat="44.50893" lon="6.5938">
        <ele>1849</ele>
        <time>2021-04-07T10:10:46Z</time>
      </trkpt>
      <trkpt lat="44.50894" lon="6.5938">
        <ele>1848</ele>
        <time>2021-04-07T10:10:47Z</time>
      </trkpt>
      <trkpt lat="44.50895" lon="6.5938">
        <ele>1848</ele>
        <time>2021-04-07T10:10:48Z</time>
      </trkpt>
      <trkpt lat="44.50898" lon="6.59379">
        <ele>1847</ele>
        <time>2021-04-07T10:10:49Z</time>
      </trkpt>
      <trkpt lat="44.50901" lon="6.59376">
        <ele>1846</ele>
        <time>2021-04-07T10:10:50Z</time>
      </trkpt>
      <trkpt lat="44.50904" lon="6.59376">
        <ele>1846</ele>
        <time>2021-04-07T10:10:51Z</time>
      </trkpt>
      <trkpt lat="44.50906" lon="6.59377">
        <ele>1845</ele>
        <time>2021-04-07T10:10:52Z</time>
      </trkpt>
      <trkpt lat="44.50907" lon="6.59378">
        <ele>1845</ele>
        <time>2021-04-07T10:10:53Z</time>
      </trkpt>
      <trkpt lat="44.50908" lon="6.59378">
        <ele>1844</ele>
        <time>2021-04-07T10:10:54Z</time>
      </trkpt>
      <trkpt lat="44.50909" lon="6.59378">
        <ele>1844</ele>
        <time>2021-04-07T10:10:55Z</time>
      </trkpt>
      <trkpt lat="44.50912" lon="6.59378">
        <ele>1843</ele>
        <time>2021-04-07T10:10:56Z</time>
      </trkpt>
      <trkpt lat="44.50914" lon="6.59379">
        <ele>1843</ele>
        <time>2021-04-07T10:10:57Z</time>
      </trkpt>
      <trkpt lat="44.50915" lon="6.5938">
        <ele>1842</ele>
        <time>2021-04-07T10:10:58Z</time>
      </trkpt>
      <trkpt lat="44.50916" lon="6.59382">
        <ele>1841</ele>
        <time>2021-04-07T10:10:59Z</time>
      </trkpt>
      <trkpt lat="44.50915" lon="6.59382">
        <ele>1841</ele>
        <time>2021-04-07T10:11:00Z</time>
      </trkpt>
      <trkpt lat="44.50915" lon="6.59382">
        <ele>1841</ele>
        <time>2021-04-07T10:11:01Z</time>
      </trkpt>
      <trkpt lat="44.50915" lon="6.59382">
        <ele>1841</ele>
        <time>2021-04-07T10:11:02Z</time>
      </trkpt>
      <trkpt lat="44.50915" lon="6.59382">
        <ele>1840</ele>
        <time>2021-04-07T10:11:03Z</time>
      </trkpt>
      <trkpt lat="44.50915" lon="6.59382">
        <ele>1840</ele>
        <time>2021-04-07T10:11:04Z</time>
      </trkpt>
      <trkpt lat="44.50915" lon="6.59382">
        <ele>1840</ele>
        <time>2021-04-07T10:11:05Z</time>
      </trkpt>
      <trkpt lat="44.50915" lon="6.59382">
        <ele>1840</ele>
        <time>2021-04-07T10:11:06Z</time>
      </trkpt>
      <trkpt lat="44.50915" lon="6.59382">
        <ele>1840</ele>
        <time>2021-04-07T10:11:07Z</time>
      </trkpt>
      <trkpt lat="44.50915" lon="6.59382">
        <ele>1840</ele>
        <time>2021-04-07T10:11:08Z</time>
      </trkpt>
      <trkpt lat="44.50915" lon="6.59382">
        <ele>1840</ele>
        <time>2021-04-07T10:11:09Z</time>
      </trkpt>
      <trkpt lat="44.50916" lon="6.59387">
        <ele>1839</ele>
        <time>2021-04-07T10:11:10Z</time>
      </trkpt>
      <trkpt lat="44.50915" lon="6.59389">
        <ele>1839</ele>
        <time>2021-04-07T10:11:11Z</time>
      </trkpt>
      <trkpt lat="44.50915" lon="6.5939">
        <ele>1839</ele>
        <time>2021-04-07T10:11:12Z</time>
      </trkpt>
      <trkpt lat="44.50915" lon="6.59391">
        <ele>1839</ele>
        <time>2021-04-07T10:11:13Z</time>
      </trkpt>
      <trkpt lat="44.50915" lon="6.59391">
        <ele>1839</ele>
        <time>2021-04-07T10:11:14Z</time>
      </trkpt>
      <trkpt lat="44.50915" lon="6.59391">
        <ele>1839</ele>
        <time>2021-04-07T10:11:15Z</time>
      </trkpt>
      <trkpt lat="44.50914" lon="6.59396">
        <ele>1838</ele>
        <time>2021-04-07T10:11:16Z</time>
      </trkpt>
      <trkpt lat="44.50912" lon="6.594">
        <ele>1838</ele>
        <time>2021-04-07T10:11:17Z</time>
      </trkpt>
      <trkpt lat="44.5091" lon="6.59406">
        <ele>1837</ele>
        <time>2021-04-07T10:11:18Z</time>
      </trkpt>
      <trkpt lat="44.50909" lon="6.59413">
        <ele>1836</ele>
        <time>2021-04-07T10:11:19Z</time>
      </trkpt>
      <trkpt lat="44.50908" lon="6.59421">
        <ele>1836</ele>
        <time>2021-04-07T10:11:20Z</time>
      </trkpt>
      <trkpt lat="44.50907" lon="6.59426">
        <ele>1835</ele>
        <time>2021-04-07T10:11:21Z</time>
      </trkpt>
      <trkpt lat="44.50907" lon="6.5943">
        <ele>1835</ele>
        <time>2021-04-07T10:11:22Z</time>
      </trkpt>
      <trkpt lat="44.50907" lon="6.59431">
        <ele>1835</ele>
        <time>2021-04-07T10:11:23Z</time>
      </trkpt>
      <trkpt lat="44.50907" lon="6.59431">
        <ele>1835</ele>
        <time>2021-04-07T10:11:24Z</time>
      </trkpt>
      <trkpt lat="44.50907" lon="6.5943">
        <ele>1835</ele>
        <time>2021-04-07T10:11:25Z</time>
      </trkpt>
      <trkpt lat="44.50907" lon="6.5943">
        <ele>1835</ele>
        <time>2021-04-07T10:11:26Z</time>
      </trkpt>
      <trkpt lat="44.50907" lon="6.5943">
        <ele>1835</ele>
        <time>2021-04-07T10:11:27Z</time>
      </trkpt>
      <trkpt lat="44.50907" lon="6.5943">
        <ele>1835</ele>
        <time>2021-04-07T10:11:28Z</time>
      </trkpt>
      <trkpt lat="44.50907" lon="6.5943">
        <ele>1835</ele>
        <time>2021-04-07T10:11:29Z</time>
      </trkpt>
      <trkpt lat="44.50907" lon="6.5943">
        <ele>1835</ele>
        <time>2021-04-07T10:11:30Z</time>
      </trkpt>
      <trkpt lat="44.50907" lon="6.5943">
        <ele>1835</ele>
        <time>2021-04-07T10:11:31Z</time>
      </trkpt>
      <trkpt lat="44.50907" lon="6.5943">
        <ele>1834</ele>
        <time>2021-04-07T10:11:32Z</time>
      </trkpt>
      <trkpt lat="44.50907" lon="6.5943">
        <ele>1834</ele>
        <time>2021-04-07T10:11:33Z</time>
      </trkpt>
      <trkpt lat="44.50907" lon="6.5943">
        <ele>1834</ele>
        <time>2021-04-07T10:11:34Z</time>
      </trkpt>
      <trkpt lat="44.50914" lon="6.5943">
        <ele>1834</ele>
        <time>2021-04-07T10:11:35Z</time>
      </trkpt>
      <trkpt lat="44.50916" lon="6.59428">
        <ele>1833</ele>
        <time>2021-04-07T10:11:36Z</time>
      </trkpt>
      <trkpt lat="44.50917" lon="6.59424">
        <ele>1833</ele>
        <time>2021-04-07T10:11:37Z</time>
      </trkpt>
      <trkpt lat="44.50918" lon="6.59422">
        <ele>1833</ele>
        <time>2021-04-07T10:11:38Z</time>
      </trkpt>
      <trkpt lat="44.5092" lon="6.59421">
        <ele>1832</ele>
        <time>2021-04-07T10:11:39Z</time>
      </trkpt>
      <trkpt lat="44.50923" lon="6.59421">
        <ele>1832</ele>
        <time>2021-04-07T10:11:40Z</time>
      </trkpt>
      <trkpt lat="44.50924" lon="6.59422">
        <ele>1832</ele>
        <time>2021-04-07T10:11:41Z</time>
      </trkpt>
      <trkpt lat="44.50925" lon="6.59424">
        <ele>1832</ele>
        <time>2021-04-07T10:11:42Z</time>
      </trkpt>
      <trkpt lat="44.50926" lon="6.59427">
        <ele>1832</ele>
        <time>2021-04-07T10:11:43Z</time>
      </trkpt>
      <trkpt lat="44.50927" lon="6.59428">
        <ele>1831</ele>
        <time>2021-04-07T10:11:44Z</time>
      </trkpt>
      <trkpt lat="44.50928" lon="6.59427">
        <ele>1831</ele>
        <time>2021-04-07T10:11:45Z</time>
      </trkpt>
      <trkpt lat="44.50929" lon="6.59427">
        <ele>1831</ele>
        <time>2021-04-07T10:11:46Z</time>
      </trkpt>
      <trkpt lat="44.5093" lon="6.59427">
        <ele>1830</ele>
        <time>2021-04-07T10:11:47Z</time>
      </trkpt>
      <trkpt lat="44.5093" lon="6.59427">
        <ele>1830</ele>
        <time>2021-04-07T10:11:48Z</time>
      </trkpt>
      <trkpt lat="44.50933" lon="6.59428">
        <ele>1830</ele>
        <time>2021-04-07T10:11:49Z</time>
      </trkpt>
      <trkpt lat="44.50934" lon="6.59429">
        <ele>1830</ele>
        <time>2021-04-07T10:11:50Z</time>
      </trkpt>
      <trkpt lat="44.50933" lon="6.59431">
        <ele>1829</ele>
        <time>2021-04-07T10:11:51Z</time>
      </trkpt>
      <trkpt lat="44.50933" lon="6.59432">
        <ele>1829</ele>
        <time>2021-04-07T10:11:52Z</time>
      </trkpt>
      <trkpt lat="44.50934" lon="6.59433">
        <ele>1829</ele>
        <time>2021-04-07T10:11:53Z</time>
      </trkpt>
      <trkpt lat="44.50934" lon="6.59435">
        <ele>1829</ele>
        <time>2021-04-07T10:11:54Z</time>
      </trkpt>
      <trkpt lat="44.50935" lon="6.59436">
        <ele>1828</ele>
        <time>2021-04-07T10:11:55Z</time>
      </trkpt>
      <trkpt lat="44.50936" lon="6.59435">
        <ele>1828</ele>
        <time>2021-04-07T10:11:56Z</time>
      </trkpt>
      <trkpt lat="44.50936" lon="6.59435">
        <ele>1827</ele>
        <time>2021-04-07T10:11:57Z</time>
      </trkpt>
      <trkpt lat="44.50936" lon="6.59435">
        <ele>1827</ele>
        <time>2021-04-07T10:11:58Z</time>
      </trkpt>
      <trkpt lat="44.50936" lon="6.59435">
        <ele>1827</ele>
        <time>2021-04-07T10:11:59Z</time>
      </trkpt>
      <trkpt lat="44.50936" lon="6.59435">
        <ele>1827</ele>
        <time>2021-04-07T10:12:00Z</time>
      </trkpt>
      <trkpt lat="44.50936" lon="6.59435">
        <ele>1827</ele>
        <time>2021-04-07T10:12:01Z</time>
      </trkpt>
      <trkpt lat="44.50936" lon="6.59435">
        <ele>1827</ele>
        <time>2021-04-07T10:12:02Z</time>
      </trkpt>
      <trkpt lat="44.50936" lon="6.59435">
        <ele>1827</ele>
        <time>2021-04-07T10:12:03Z</time>
      </trkpt>
      <trkpt lat="44.50936" lon="6.59435">
        <ele>1826</ele>
        <time>2021-04-07T10:12:04Z</time>
      </trkpt>
      <trkpt lat="44.50936" lon="6.59435">
        <ele>1826</ele>
        <time>2021-04-07T10:12:05Z</time>
      </trkpt>
      <trkpt lat="44.50936" lon="6.59435">
        <ele>1826</ele>
        <time>2021-04-07T10:12:06Z</time>
      </trkpt>
      <trkpt lat="44.50936" lon="6.59435">
        <ele>1826</ele>
        <time>2021-04-07T10:12:07Z</time>
      </trkpt>
      <trkpt lat="44.50936" lon="6.59435">
        <ele>1826</ele>
        <time>2021-04-07T10:12:08Z</time>
      </trkpt>
      <trkpt lat="44.50938" lon="6.59445">
        <ele>1826</ele>
        <time>2021-04-07T10:12:09Z</time>
      </trkpt>
      <trkpt lat="44.5094" lon="6.59448">
        <ele>1825</ele>
        <time>2021-04-07T10:12:10Z</time>
      </trkpt>
      <trkpt lat="44.50941" lon="6.5945">
        <ele>1824</ele>
        <time>2021-04-07T10:12:11Z</time>
      </trkpt>
      <trkpt lat="44.50941" lon="6.59451">
        <ele>1824</ele>
        <time>2021-04-07T10:12:12Z</time>
      </trkpt>
      <trkpt lat="44.50942" lon="6.59452">
        <ele>1824</ele>
        <time>2021-04-07T10:12:13Z</time>
      </trkpt>
      <trkpt lat="44.50943" lon="6.59454">
        <ele>1824</ele>
        <time>2021-04-07T10:12:14Z</time>
      </trkpt>
      <trkpt lat="44.50945" lon="6.59457">
        <ele>1823</ele>
        <time>2021-04-07T10:12:15Z</time>
      </trkpt>
      <trkpt lat="44.50947" lon="6.59462">
        <ele>1823</ele>
        <time>2021-04-07T10:12:16Z</time>
      </trkpt>
      <trkpt lat="44.50947" lon="6.59465">
        <ele>1822</ele>
        <time>2021-04-07T10:12:17Z</time>
      </trkpt>
      <trkpt lat="44.50948" lon="6.59467">
        <ele>1822</ele>
        <time>2021-04-07T10:12:18Z</time>
      </trkpt>
      <trkpt lat="44.50949" lon="6.59468">
        <ele>1821</ele>
        <time>2021-04-07T10:12:19Z</time>
      </trkpt>
      <trkpt lat="44.50951" lon="6.5947">
        <ele>1821</ele>
        <time>2021-04-07T10:12:20Z</time>
      </trkpt>
      <trkpt lat="44.50953" lon="6.59472">
        <ele>1820</ele>
        <time>2021-04-07T10:12:21Z</time>
      </trkpt>
      <trkpt lat="44.50956" lon="6.59476">
        <ele>1819</ele>
        <time>2021-04-07T10:12:22Z</time>
      </trkpt>
      <trkpt lat="44.5096" lon="6.59479">
        <ele>1818</ele>
        <time>2021-04-07T10:12:23Z</time>
      </trkpt>
      <trkpt lat="44.50963" lon="6.59482">
        <ele>1817</ele>
        <time>2021-04-07T10:12:24Z</time>
      </trkpt>
      <trkpt lat="44.50965" lon="6.59484">
        <ele>1816</ele>
        <time>2021-04-07T10:12:25Z</time>
      </trkpt>
      <trkpt lat="44.50966" lon="6.59486">
        <ele>1814</ele>
        <time>2021-04-07T10:12:26Z</time>
      </trkpt>
      <trkpt lat="44.50966" lon="6.59488">
        <ele>1814</ele>
        <time>2021-04-07T10:12:27Z</time>
      </trkpt>
      <trkpt lat="44.50967" lon="6.5949">
        <ele>1813</ele>
        <time>2021-04-07T10:12:28Z</time>
      </trkpt>
      <trkpt lat="44.50968" lon="6.59491">
        <ele>1812</ele>
        <time>2021-04-07T10:12:29Z</time>
      </trkpt>
      <trkpt lat="44.50969" lon="6.59494">
        <ele>1811</ele>
        <time>2021-04-07T10:12:30Z</time>
      </trkpt>
      <trkpt lat="44.50971" lon="6.59496">
        <ele>1811</ele>
        <time>2021-04-07T10:12:31Z</time>
      </trkpt>
      <trkpt lat="44.50971" lon="6.59498">
        <ele>1810</ele>
        <time>2021-04-07T10:12:32Z</time>
      </trkpt>
      <trkpt lat="44.50971" lon="6.59499">
        <ele>1810</ele>
        <time>2021-04-07T10:12:33Z</time>
      </trkpt>
      <trkpt lat="44.50971" lon="6.595">
        <ele>1810</ele>
        <time>2021-04-07T10:12:34Z</time>
      </trkpt>
      <trkpt lat="44.50971" lon="6.595">
        <ele>1810</ele>
        <time>2021-04-07T10:12:35Z</time>
      </trkpt>
      <trkpt lat="44.50971" lon="6.595">
        <ele>1810</ele>
        <time>2021-04-07T10:12:36Z</time>
      </trkpt>
      <trkpt lat="44.50971" lon="6.595">
        <ele>1810</ele>
        <time>2021-04-07T10:12:37Z</time>
      </trkpt>
      <trkpt lat="44.50971" lon="6.595">
        <ele>1810</ele>
        <time>2021-04-07T10:12:38Z</time>
      </trkpt>
      <trkpt lat="44.50971" lon="6.595">
        <ele>1810</ele>
        <time>2021-04-07T10:12:39Z</time>
      </trkpt>
      <trkpt lat="44.50971" lon="6.595">
        <ele>1810</ele>
        <time>2021-04-07T10:12:40Z</time>
      </trkpt>
      <trkpt lat="44.50971" lon="6.595">
        <ele>1809</ele>
        <time>2021-04-07T10:12:41Z</time>
      </trkpt>
      <trkpt lat="44.50971" lon="6.595">
        <ele>1809</ele>
        <time>2021-04-07T10:12:42Z</time>
      </trkpt>
      <trkpt lat="44.50971" lon="6.595">
        <ele>1809</ele>
        <time>2021-04-07T10:12:43Z</time>
      </trkpt>
      <trkpt lat="44.50971" lon="6.595">
        <ele>1809</ele>
        <time>2021-04-07T10:12:44Z</time>
      </trkpt>
      <trkpt lat="44.50971" lon="6.595">
        <ele>1809</ele>
        <time>2021-04-07T10:12:45Z</time>
      </trkpt>
      <trkpt lat="44.50971" lon="6.595">
        <ele>1809</ele>
        <time>2021-04-07T10:12:46Z</time>
      </trkpt>
      <trkpt lat="44.50971" lon="6.595">
        <ele>1809</ele>
        <time>2021-04-07T10:12:47Z</time>
      </trkpt>
      <trkpt lat="44.50971" lon="6.595">
        <ele>1809</ele>
        <time>2021-04-07T10:12:48Z</time>
      </trkpt>
      <trkpt lat="44.50971" lon="6.595">
        <ele>1809</ele>
        <time>2021-04-07T10:12:49Z</time>
      </trkpt>
      <trkpt lat="44.50971" lon="6.595">
        <ele>1809</ele>
        <time>2021-04-07T10:12:50Z</time>
      </trkpt>
      <trkpt lat="44.50971" lon="6.595">
        <ele>1809</ele>
        <time>2021-04-07T10:12:51Z</time>
      </trkpt>
      <trkpt lat="44.50971" lon="6.595">
        <ele>1809</ele>
        <time>2021-04-07T10:12:52Z</time>
      </trkpt>
      <trkpt lat="44.50971" lon="6.595">
        <ele>1809</ele>
        <time>2021-04-07T10:12:53Z</time>
      </trkpt>
      <trkpt lat="44.50971" lon="6.595">
        <ele>1809</ele>
        <time>2021-04-07T10:12:54Z</time>
      </trkpt>
      <trkpt lat="44.50971" lon="6.595">
        <ele>1809</ele>
        <time>2021-04-07T10:12:55Z</time>
      </trkpt>
      <trkpt lat="44.50971" lon="6.595">
        <ele>1809</ele>
        <time>2021-04-07T10:12:56Z</time>
      </trkpt>
      <trkpt lat="44.50971" lon="6.595">
        <ele>1809</ele>
        <time>2021-04-07T10:12:57Z</time>
      </trkpt>
      <trkpt lat="44.50977" lon="6.5951">
        <ele>1809</ele>
        <time>2021-04-07T10:12:58Z</time>
      </trkpt>
      <trkpt lat="44.50978" lon="6.59511">
        <ele>1809</ele>
        <time>2021-04-07T10:12:59Z</time>
      </trkpt>
      <trkpt lat="44.50978" lon="6.59515">
        <ele>1808</ele>
        <time>2021-04-07T10:13:00Z</time>
      </trkpt>
      <trkpt lat="44.50979" lon="6.59517">
        <ele>1808</ele>
        <time>2021-04-07T10:13:01Z</time>
      </trkpt>
      <trkpt lat="44.5098" lon="6.59519">
        <ele>1808</ele>
        <time>2021-04-07T10:13:02Z</time>
      </trkpt>
      <trkpt lat="44.5098" lon="6.5952">
        <ele>1808</ele>
        <time>2021-04-07T10:13:03Z</time>
      </trkpt>
      <trkpt lat="44.5098" lon="6.5952">
        <ele>1808</ele>
        <time>2021-04-07T10:13:04Z</time>
      </trkpt>
      <trkpt lat="44.5098" lon="6.5952">
        <ele>1808</ele>
        <time>2021-04-07T10:13:05Z</time>
      </trkpt>
      <trkpt lat="44.5098" lon="6.5952">
        <ele>1808</ele>
        <time>2021-04-07T10:13:06Z</time>
      </trkpt>
      <trkpt lat="44.5098" lon="6.5952">
        <ele>1808</ele>
        <time>2021-04-07T10:13:07Z</time>
      </trkpt>
      <trkpt lat="44.5098" lon="6.5952">
        <ele>1808</ele>
        <time>2021-04-07T10:13:08Z</time>
      </trkpt>
      <trkpt lat="44.5098" lon="6.5952">
        <ele>1808</ele>
        <time>2021-04-07T10:13:09Z</time>
      </trkpt>
      <trkpt lat="44.5098" lon="6.5952">
        <ele>1808</ele>
        <time>2021-04-07T10:13:10Z</time>
      </trkpt>
      <trkpt lat="44.5098" lon="6.5952">
        <ele>1808</ele>
        <time>2021-04-07T10:13:11Z</time>
      </trkpt>
      <trkpt lat="44.5098" lon="6.5952">
        <ele>1808</ele>
        <time>2021-04-07T10:13:12Z</time>
      </trkpt>
      <trkpt lat="44.5098" lon="6.5952">
        <ele>1808</ele>
        <time>2021-04-07T10:13:13Z</time>
      </trkpt>
      <trkpt lat="44.5098" lon="6.5952">
        <ele>1808</ele>
        <time>2021-04-07T10:13:14Z</time>
      </trkpt>
      <trkpt lat="44.5098" lon="6.5952">
        <ele>1808</ele>
        <time>2021-04-07T10:13:15Z</time>
      </trkpt>
      <trkpt lat="44.5098" lon="6.5952">
        <ele>1808</ele>
        <time>2021-04-07T10:13:16Z</time>
      </trkpt>
      <trkpt lat="44.5098" lon="6.5952">
        <ele>1808</ele>
        <time>2021-04-07T10:13:17Z</time>
      </trkpt>
      <trkpt lat="44.5098" lon="6.5952">
        <ele>1808</ele>
        <time>2021-04-07T10:13:18Z</time>
      </trkpt>
      <trkpt lat="44.5098" lon="6.5952">
        <ele>1808</ele>
        <time>2021-04-07T10:13:19Z</time>
      </trkpt>
      <trkpt lat="44.5098" lon="6.5952">
        <ele>1808</ele>
        <time>2021-04-07T10:13:20Z</time>
      </trkpt>
      <trkpt lat="44.5098" lon="6.5952">
        <ele>1808</ele>
        <time>2021-04-07T10:13:21Z</time>
      </trkpt>
      <trkpt lat="44.5098" lon="6.5952">
        <ele>1808</ele>
        <time>2021-04-07T10:13:22Z</time>
      </trkpt>
      <trkpt lat="44.5098" lon="6.5952">
        <ele>1808</ele>
        <time>2021-04-07T10:13:23Z</time>
      </trkpt>
      <trkpt lat="44.50973" lon="6.59528">
        <ele>1809</ele>
        <time>2021-04-07T10:13:24Z</time>
      </trkpt>
      <trkpt lat="44.50972" lon="6.59531">
        <ele>1810</ele>
        <time>2021-04-07T10:13:25Z</time>
      </trkpt>
      <trkpt lat="44.50971" lon="6.59529">
        <ele>1811</ele>
        <time>2021-04-07T10:13:26Z</time>
      </trkpt>
      <trkpt lat="44.50977" lon="6.59531">
        <ele>1811</ele>
        <time>2021-04-07T10:13:27Z</time>
      </trkpt>
      <trkpt lat="44.50977" lon="6.59531">
        <ele>1813</ele>
        <time>2021-04-07T10:13:28Z</time>
      </trkpt>
      <trkpt lat="44.50983" lon="6.59522">
        <ele>1811</ele>
        <time>2021-04-07T10:13:29Z</time>
      </trkpt>
      <trkpt lat="44.50984" lon="6.59521">
        <ele>1811</ele>
        <time>2021-04-07T10:13:30Z</time>
      </trkpt>
      <trkpt lat="44.50984" lon="6.5952">
        <ele>1811</ele>
        <time>2021-04-07T10:13:31Z</time>
      </trkpt>
      <trkpt lat="44.50984" lon="6.59519">
        <ele>1811</ele>
        <time>2021-04-07T10:13:32Z</time>
      </trkpt>
      <trkpt lat="44.50984" lon="6.59519">
        <ele>1811</ele>
        <time>2021-04-07T10:13:33Z</time>
      </trkpt>
      <trkpt lat="44.5099" lon="6.59519">
        <ele>1810</ele>
        <time>2021-04-07T10:13:34Z</time>
      </trkpt>
      <trkpt lat="44.50993" lon="6.59518">
        <ele>1810</ele>
        <time>2021-04-07T10:13:35Z</time>
      </trkpt>
      <trkpt lat="44.50994" lon="6.59516">
        <ele>1809</ele>
        <time>2021-04-07T10:13:36Z</time>
      </trkpt>
      <trkpt lat="44.50995" lon="6.59516">
        <ele>1808</ele>
        <time>2021-04-07T10:13:37Z</time>
      </trkpt>
      <trkpt lat="44.50997" lon="6.59515">
        <ele>1808</ele>
        <time>2021-04-07T10:13:38Z</time>
      </trkpt>
      <trkpt lat="44.50999" lon="6.59515">
        <ele>1807</ele>
        <time>2021-04-07T10:13:39Z</time>
      </trkpt>
      <trkpt lat="44.51001" lon="6.59514">
        <ele>1806</ele>
        <time>2021-04-07T10:13:40Z</time>
      </trkpt>
      <trkpt lat="44.51004" lon="6.59513">
        <ele>1805</ele>
        <time>2021-04-07T10:13:41Z</time>
      </trkpt>
      <trkpt lat="44.51009" lon="6.59512">
        <ele>1804</ele>
        <time>2021-04-07T10:13:42Z</time>
      </trkpt>
      <trkpt lat="44.51013" lon="6.59511">
        <ele>1803</ele>
        <time>2021-04-07T10:13:43Z</time>
      </trkpt>
      <trkpt lat="44.51016" lon="6.5951">
        <ele>1802</ele>
        <time>2021-04-07T10:13:44Z</time>
      </trkpt>
      <trkpt lat="44.51021" lon="6.59508">
        <ele>1802</ele>
        <time>2021-04-07T10:13:45Z</time>
      </trkpt>
      <trkpt lat="44.51023" lon="6.59506">
        <ele>1802</ele>
        <time>2021-04-07T10:13:46Z</time>
      </trkpt>
      <trkpt lat="44.51025" lon="6.59505">
        <ele>1802</ele>
        <time>2021-04-07T10:13:47Z</time>
      </trkpt>
      <trkpt lat="44.51026" lon="6.59504">
        <ele>1802</ele>
        <time>2021-04-07T10:13:48Z</time>
      </trkpt>
      <trkpt lat="44.51028" lon="6.59504">
        <ele>1801</ele>
        <time>2021-04-07T10:13:49Z</time>
      </trkpt>
      <trkpt lat="44.51031" lon="6.59503">
        <ele>1800</ele>
        <time>2021-04-07T10:13:50Z</time>
      </trkpt>
      <trkpt lat="44.51035" lon="6.59504">
        <ele>1798</ele>
        <time>2021-04-07T10:13:51Z</time>
      </trkpt>
      <trkpt lat="44.51039" lon="6.59508">
        <ele>1796</ele>
        <time>2021-04-07T10:13:52Z</time>
      </trkpt>
      <trkpt lat="44.51042" lon="6.59512">
        <ele>1793</ele>
        <time>2021-04-07T10:13:53Z</time>
      </trkpt>
      <trkpt lat="44.51044" lon="6.59516">
        <ele>1792</ele>
        <time>2021-04-07T10:13:54Z</time>
      </trkpt>
      <trkpt lat="44.51045" lon="6.59521">
        <ele>1790</ele>
        <time>2021-04-07T10:13:55Z</time>
      </trkpt>
      <trkpt lat="44.51045" lon="6.59525">
        <ele>1789</ele>
        <time>2021-04-07T10:13:56Z</time>
      </trkpt>
      <trkpt lat="44.51045" lon="6.59528">
        <ele>1789</ele>
        <time>2021-04-07T10:13:57Z</time>
      </trkpt>
      <trkpt lat="44.51045" lon="6.59529">
        <ele>1788</ele>
        <time>2021-04-07T10:13:58Z</time>
      </trkpt>
      <trkpt lat="44.51045" lon="6.59529">
        <ele>1788</ele>
        <time>2021-04-07T10:13:59Z</time>
      </trkpt>
      <trkpt lat="44.51045" lon="6.59529">
        <ele>1788</ele>
        <time>2021-04-07T10:14:00Z</time>
      </trkpt>
      <trkpt lat="44.51045" lon="6.59529">
        <ele>1788</ele>
        <time>2021-04-07T10:14:01Z</time>
      </trkpt>
      <trkpt lat="44.51046" lon="6.59527">
        <ele>1788</ele>
        <time>2021-04-07T10:14:02Z</time>
      </trkpt>
      <trkpt lat="44.51046" lon="6.59525">
        <ele>1788</ele>
        <time>2021-04-07T10:14:03Z</time>
      </trkpt>
      <trkpt lat="44.51045" lon="6.59522">
        <ele>1788</ele>
        <time>2021-04-07T10:14:04Z</time>
      </trkpt>
      <trkpt lat="44.51045" lon="6.59522">
        <ele>1788</ele>
        <time>2021-04-07T10:14:05Z</time>
      </trkpt>
      <trkpt lat="44.51045" lon="6.59523">
        <ele>1788</ele>
        <time>2021-04-07T10:14:06Z</time>
      </trkpt>
      <trkpt lat="44.51045" lon="6.59523">
        <ele>1787</ele>
        <time>2021-04-07T10:14:07Z</time>
      </trkpt>
      <trkpt lat="44.51045" lon="6.59523">
        <ele>1787</ele>
        <time>2021-04-07T10:14:08Z</time>
      </trkpt>
      <trkpt lat="44.51045" lon="6.59523">
        <ele>1787</ele>
        <time>2021-04-07T10:14:09Z</time>
      </trkpt>
      <trkpt lat="44.51045" lon="6.59523">
        <ele>1787</ele>
        <time>2021-04-07T10:14:10Z</time>
      </trkpt>
      <trkpt lat="44.51045" lon="6.59523">
        <ele>1787</ele>
        <time>2021-04-07T10:14:11Z</time>
      </trkpt>
      <trkpt lat="44.51045" lon="6.59523">
        <ele>1787</ele>
        <time>2021-04-07T10:14:12Z</time>
      </trkpt>
      <trkpt lat="44.51045" lon="6.59523">
        <ele>1787</ele>
        <time>2021-04-07T10:14:13Z</time>
      </trkpt>
      <trkpt lat="44.51045" lon="6.59523">
        <ele>1787</ele>
        <time>2021-04-07T10:14:14Z</time>
      </trkpt>
      <trkpt lat="44.51045" lon="6.59523">
        <ele>1787</ele>
        <time>2021-04-07T10:14:15Z</time>
      </trkpt>
      <trkpt lat="44.51045" lon="6.59523">
        <ele>1787</ele>
        <time>2021-04-07T10:14:16Z</time>
      </trkpt>
      <trkpt lat="44.51045" lon="6.59523">
        <ele>1787</ele>
        <time>2021-04-07T10:14:17Z</time>
      </trkpt>
      <trkpt lat="44.51045" lon="6.59523">
        <ele>1787</ele>
        <time>2021-04-07T10:14:18Z</time>
      </trkpt>
      <trkpt lat="44.51045" lon="6.59523">
        <ele>1787</ele>
        <time>2021-04-07T10:14:19Z</time>
      </trkpt>
      <trkpt lat="44.51045" lon="6.59523">
        <ele>1787</ele>
        <time>2021-04-07T10:14:20Z</time>
      </trkpt>
      <trkpt lat="44.51045" lon="6.59523">
        <ele>1787</ele>
        <time>2021-04-07T10:14:21Z</time>
      </trkpt>
      <trkpt lat="44.51045" lon="6.59523">
        <ele>1787</ele>
        <time>2021-04-07T10:14:22Z</time>
      </trkpt>
      <trkpt lat="44.51045" lon="6.59523">
        <ele>1787</ele>
        <time>2021-04-07T10:14:23Z</time>
      </trkpt>
      <trkpt lat="44.51045" lon="6.59523">
        <ele>1787</ele>
        <time>2021-04-07T10:14:24Z</time>
      </trkpt>
      <trkpt lat="44.51045" lon="6.59523">
        <ele>1787</ele>
        <time>2021-04-07T10:14:25Z</time>
      </trkpt>
      <trkpt lat="44.51045" lon="6.59523">
        <ele>1787</ele>
        <time>2021-04-07T10:14:26Z</time>
      </trkpt>
      <trkpt lat="44.51045" lon="6.59523">
        <ele>1787</ele>
        <time>2021-04-07T10:14:27Z</time>
      </trkpt>
      <trkpt lat="44.51045" lon="6.59523">
        <ele>1787</ele>
        <time>2021-04-07T10:14:28Z</time>
      </trkpt>
      <trkpt lat="44.51045" lon="6.59523">
        <ele>1787</ele>
        <time>2021-04-07T10:14:29Z</time>
      </trkpt>
      <trkpt lat="44.51045" lon="6.59523">
        <ele>1787</ele>
        <time>2021-04-07T10:14:30Z</time>
      </trkpt>
      <trkpt lat="44.51045" lon="6.59523">
        <ele>1787</ele>
        <time>2021-04-07T10:14:31Z</time>
      </trkpt>
      <trkpt lat="44.51045" lon="6.59523">
        <ele>1787</ele>
        <time>2021-04-07T10:14:32Z</time>
      </trkpt>
      <trkpt lat="44.51045" lon="6.59523">
        <ele>1787</ele>
        <time>2021-04-07T10:14:33Z</time>
      </trkpt>
      <trkpt lat="44.51045" lon="6.59523">
        <ele>1787</ele>
        <time>2021-04-07T10:14:34Z</time>
      </trkpt>
      <trkpt lat="44.51045" lon="6.59523">
        <ele>1787</ele>
        <time>2021-04-07T10:14:35Z</time>
      </trkpt>
      <trkpt lat="44.51045" lon="6.59523">
        <ele>1787</ele>
        <time>2021-04-07T10:14:36Z</time>
      </trkpt>
      <trkpt lat="44.51045" lon="6.59523">
        <ele>1787</ele>
        <time>2021-04-07T10:14:37Z</time>
      </trkpt>
      <trkpt lat="44.51045" lon="6.59523">
        <ele>1787</ele>
        <time>2021-04-07T10:14:38Z</time>
      </trkpt>
      <trkpt lat="44.51045" lon="6.59523">
        <ele>1787</ele>
        <time>2021-04-07T10:14:39Z</time>
      </trkpt>
      <trkpt lat="44.51045" lon="6.59523">
        <ele>1787</ele>
        <time>2021-04-07T10:14:40Z</time>
      </trkpt>
      <trkpt lat="44.51045" lon="6.59523">
        <ele>1787</ele>
        <time>2021-04-07T10:14:41Z</time>
      </trkpt>
      <trkpt lat="44.51045" lon="6.59523">
        <ele>1787</ele>
        <time>2021-04-07T10:14:42Z</time>
      </trkpt>
      <trkpt lat="44.51045" lon="6.59523">
        <ele>1787</ele>
        <time>2021-04-07T10:14:43Z</time>
      </trkpt>
      <trkpt lat="44.51045" lon="6.59523">
        <ele>1787</ele>
        <time>2021-04-07T10:14:44Z</time>
      </trkpt>
      <trkpt lat="44.51045" lon="6.59523">
        <ele>1787</ele>
        <time>2021-04-07T10:14:45Z</time>
      </trkpt>
      <trkpt lat="44.51045" lon="6.59523">
        <ele>1787</ele>
        <time>2021-04-07T10:14:46Z</time>
      </trkpt>
      <trkpt lat="44.51045" lon="6.59523">
        <ele>1787</ele>
        <time>2021-04-07T10:14:47Z</time>
      </trkpt>
      <trkpt lat="44.51045" lon="6.59523">
        <ele>1787</ele>
        <time>2021-04-07T10:14:48Z</time>
      </trkpt>
      <trkpt lat="44.51045" lon="6.59523">
        <ele>1787</ele>
        <time>2021-04-07T10:14:49Z</time>
      </trkpt>
      <trkpt lat="44.51045" lon="6.59523">
        <ele>1786</ele>
        <time>2021-04-07T10:14:50Z</time>
      </trkpt>
      <trkpt lat="44.51045" lon="6.59523">
        <ele>1786</ele>
        <time>2021-04-07T10:14:51Z</time>
      </trkpt>
      <trkpt lat="44.51045" lon="6.59523">
        <ele>1786</ele>
        <time>2021-04-07T10:14:52Z</time>
      </trkpt>
      <trkpt lat="44.51045" lon="6.59523">
        <ele>1786</ele>
        <time>2021-04-07T10:14:53Z</time>
      </trkpt>
      <trkpt lat="44.51045" lon="6.59523">
        <ele>1786</ele>
        <time>2021-04-07T10:14:54Z</time>
      </trkpt>
      <trkpt lat="44.51045" lon="6.59523">
        <ele>1786</ele>
        <time>2021-04-07T10:14:55Z</time>
      </trkpt>
      <trkpt lat="44.51045" lon="6.59523">
        <ele>1786</ele>
        <time>2021-04-07T10:14:56Z</time>
      </trkpt>
      <trkpt lat="44.51045" lon="6.59523">
        <ele>1786</ele>
        <time>2021-04-07T10:14:57Z</time>
      </trkpt>
      <trkpt lat="44.51045" lon="6.59523">
        <ele>1786</ele>
        <time>2021-04-07T10:14:58Z</time>
      </trkpt>
      <trkpt lat="44.51045" lon="6.59523">
        <ele>1786</ele>
        <time>2021-04-07T10:14:59Z</time>
      </trkpt>
      <trkpt lat="44.51045" lon="6.59523">
        <ele>1786</ele>
        <time>2021-04-07T10:15:00Z</time>
      </trkpt>
      <trkpt lat="44.51045" lon="6.59523">
        <ele>1786</ele>
        <time>2021-04-07T10:15:01Z</time>
      </trkpt>
      <trkpt lat="44.51045" lon="6.59523">
        <ele>1786</ele>
        <time>2021-04-07T10:15:02Z</time>
      </trkpt>
      <trkpt lat="44.51045" lon="6.59523">
        <ele>1786</ele>
        <time>2021-04-07T10:15:03Z</time>
      </trkpt>
      <trkpt lat="44.51044" lon="6.5952">
        <ele>1786</ele>
        <time>2021-04-07T10:15:04Z</time>
      </trkpt>
      <trkpt lat="44.51044" lon="6.5952">
        <ele>1786</ele>
        <time>2021-04-07T10:15:05Z</time>
      </trkpt>
      <trkpt lat="44.51044" lon="6.5952">
        <ele>1786</ele>
        <time>2021-04-07T10:15:06Z</time>
      </trkpt>
      <trkpt lat="44.51044" lon="6.59521">
        <ele>1786</ele>
        <time>2021-04-07T10:15:07Z</time>
      </trkpt>
      <trkpt lat="44.51044" lon="6.59521">
        <ele>1786</ele>
        <time>2021-04-07T10:15:08Z</time>
      </trkpt>
      <trkpt lat="44.51044" lon="6.59521">
        <ele>1786</ele>
        <time>2021-04-07T10:15:09Z</time>
      </trkpt>
      <trkpt lat="44.51044" lon="6.59521">
        <ele>1786</ele>
        <time>2021-04-07T10:15:10Z</time>
      </trkpt>
      <trkpt lat="44.51044" lon="6.59521">
        <ele>1786</ele>
        <time>2021-04-07T10:15:11Z</time>
      </trkpt>
      <trkpt lat="44.51044" lon="6.59521">
        <ele>1786</ele>
        <time>2021-04-07T10:15:12Z</time>
      </trkpt>
      <trkpt lat="44.51044" lon="6.59521">
        <ele>1786</ele>
        <time>2021-04-07T10:15:13Z</time>
      </trkpt>
      <trkpt lat="44.51044" lon="6.59521">
        <ele>1786</ele>
        <time>2021-04-07T10:15:14Z</time>
      </trkpt>
      <trkpt lat="44.51044" lon="6.59521">
        <ele>1786</ele>
        <time>2021-04-07T10:15:15Z</time>
      </trkpt>
      <trkpt lat="44.51044" lon="6.59521">
        <ele>1786</ele>
        <time>2021-04-07T10:15:16Z</time>
      </trkpt>
      <trkpt lat="44.51044" lon="6.59521">
        <ele>1786</ele>
        <time>2021-04-07T10:15:17Z</time>
      </trkpt>
      <trkpt lat="44.51044" lon="6.59521">
        <ele>1786</ele>
        <time>2021-04-07T10:15:18Z</time>
      </trkpt>
      <trkpt lat="44.51044" lon="6.59521">
        <ele>1786</ele>
        <time>2021-04-07T10:15:19Z</time>
      </trkpt>
      <trkpt lat="44.51044" lon="6.59521">
        <ele>1786</ele>
        <time>2021-04-07T10:15:20Z</time>
      </trkpt>
      <trkpt lat="44.51044" lon="6.59521">
        <ele>1786</ele>
        <time>2021-04-07T10:15:21Z</time>
      </trkpt>
      <trkpt lat="44.51044" lon="6.59521">
        <ele>1786</ele>
        <time>2021-04-07T10:15:22Z</time>
      </trkpt>
      <trkpt lat="44.51044" lon="6.59521">
        <ele>1786</ele>
        <time>2021-04-07T10:15:23Z</time>
      </trkpt>
      <trkpt lat="44.51044" lon="6.59521">
        <ele>1786</ele>
        <time>2021-04-07T10:15:24Z</time>
      </trkpt>
      <trkpt lat="44.51044" lon="6.59521">
        <ele>1786</ele>
        <time>2021-04-07T10:15:25Z</time>
      </trkpt>
      <trkpt lat="44.51044" lon="6.59521">
        <ele>1786</ele>
        <time>2021-04-07T10:15:26Z</time>
      </trkpt>
      <trkpt lat="44.51044" lon="6.59521">
        <ele>1786</ele>
        <time>2021-04-07T10:15:27Z</time>
      </trkpt>
      <trkpt lat="44.51044" lon="6.59521">
        <ele>1786</ele>
        <time>2021-04-07T10:15:28Z</time>
      </trkpt>
      <trkpt lat="44.51044" lon="6.59521">
        <ele>1786</ele>
        <time>2021-04-07T10:15:29Z</time>
      </trkpt>
      <trkpt lat="44.51044" lon="6.59521">
        <ele>1786</ele>
        <time>2021-04-07T10:15:30Z</time>
      </trkpt>
      <trkpt lat="44.51044" lon="6.59521">
        <ele>1786</ele>
        <time>2021-04-07T10:15:31Z</time>
      </trkpt>
      <trkpt lat="44.51044" lon="6.59521">
        <ele>1785</ele>
        <time>2021-04-07T10:15:32Z</time>
      </trkpt>
      <trkpt lat="44.51044" lon="6.59521">
        <ele>1785</ele>
        <time>2021-04-07T10:15:33Z</time>
      </trkpt>
      <trkpt lat="44.51044" lon="6.59521">
        <ele>1785</ele>
        <time>2021-04-07T10:15:34Z</time>
      </trkpt>
      <trkpt lat="44.51044" lon="6.59521">
        <ele>1785</ele>
        <time>2021-04-07T10:15:35Z</time>
      </trkpt>
      <trkpt lat="44.51044" lon="6.59521">
        <ele>1785</ele>
        <time>2021-04-07T10:15:36Z</time>
      </trkpt>
      <trkpt lat="44.51044" lon="6.59521">
        <ele>1785</ele>
        <time>2021-04-07T10:15:37Z</time>
      </trkpt>
      <trkpt lat="44.51044" lon="6.59521">
        <ele>1785</ele>
        <time>2021-04-07T10:15:38Z</time>
      </trkpt>
      <trkpt lat="44.51044" lon="6.59521">
        <ele>1785</ele>
        <time>2021-04-07T10:15:39Z</time>
      </trkpt>
      <trkpt lat="44.51044" lon="6.59521">
        <ele>1785</ele>
        <time>2021-04-07T10:15:40Z</time>
      </trkpt>
      <trkpt lat="44.51044" lon="6.59521">
        <ele>1785</ele>
        <time>2021-04-07T10:15:41Z</time>
      </trkpt>
      <trkpt lat="44.51044" lon="6.59521">
        <ele>1785</ele>
        <time>2021-04-07T10:15:42Z</time>
      </trkpt>
      <trkpt lat="44.51044" lon="6.59521">
        <ele>1785</ele>
        <time>2021-04-07T10:15:43Z</time>
      </trkpt>
      <trkpt lat="44.51044" lon="6.59521">
        <ele>1785</ele>
        <time>2021-04-07T10:15:44Z</time>
      </trkpt>
      <trkpt lat="44.51044" lon="6.59521">
        <ele>1785</ele>
        <time>2021-04-07T10:15:45Z</time>
      </trkpt>
      <trkpt lat="44.51044" lon="6.59521">
        <ele>1785</ele>
        <time>2021-04-07T10:15:46Z</time>
      </trkpt>
      <trkpt lat="44.51044" lon="6.59521">
        <ele>1785</ele>
        <time>2021-04-07T10:15:47Z</time>
      </trkpt>
      <trkpt lat="44.51044" lon="6.59521">
        <ele>1785</ele>
        <time>2021-04-07T10:15:48Z</time>
      </trkpt>
      <trkpt lat="44.51044" lon="6.59521">
        <ele>1785</ele>
        <time>2021-04-07T10:15:49Z</time>
      </trkpt>
      <trkpt lat="44.51044" lon="6.59521">
        <ele>1785</ele>
        <time>2021-04-07T10:15:50Z</time>
      </trkpt>
      <trkpt lat="44.51044" lon="6.59521">
        <ele>1785</ele>
        <time>2021-04-07T10:15:51Z</time>
      </trkpt>
      <trkpt lat="44.51044" lon="6.59521">
        <ele>1785</ele>
        <time>2021-04-07T10:15:52Z</time>
      </trkpt>
      <trkpt lat="44.51044" lon="6.59521">
        <ele>1785</ele>
        <time>2021-04-07T10:15:53Z</time>
      </trkpt>
      <trkpt lat="44.51044" lon="6.59521">
        <ele>1785</ele>
        <time>2021-04-07T10:15:54Z</time>
      </trkpt>
      <trkpt lat="44.51044" lon="6.59521">
        <ele>1785</ele>
        <time>2021-04-07T10:15:55Z</time>
      </trkpt>
      <trkpt lat="44.51044" lon="6.59521">
        <ele>1785</ele>
        <time>2021-04-07T10:15:56Z</time>
      </trkpt>
      <trkpt lat="44.51044" lon="6.59521">
        <ele>1785</ele>
        <time>2021-04-07T10:15:57Z</time>
      </trkpt>
      <trkpt lat="44.51044" lon="6.59521">
        <ele>1785</ele>
        <time>2021-04-07T10:15:58Z</time>
      </trkpt>
      <trkpt lat="44.51044" lon="6.59521">
        <ele>1785</ele>
        <time>2021-04-07T10:15:59Z</time>
      </trkpt>
      <trkpt lat="44.51044" lon="6.59521">
        <ele>1785</ele>
        <time>2021-04-07T10:16:00Z</time>
      </trkpt>
      <trkpt lat="44.51044" lon="6.59521">
        <ele>1785</ele>
        <time>2021-04-07T10:16:01Z</time>
      </trkpt>
      <trkpt lat="44.51044" lon="6.59521">
        <ele>1785</ele>
        <time>2021-04-07T10:16:02Z</time>
      </trkpt>
      <trkpt lat="44.51044" lon="6.59521">
        <ele>1785</ele>
        <time>2021-04-07T10:16:03Z</time>
      </trkpt>
      <trkpt lat="44.51044" lon="6.59521">
        <ele>1785</ele>
        <time>2021-04-07T10:16:04Z</time>
      </trkpt>
      <trkpt lat="44.51044" lon="6.59521">
        <ele>1785</ele>
        <time>2021-04-07T10:16:05Z</time>
      </trkpt>
      <trkpt lat="44.51044" lon="6.59521">
        <ele>1785</ele>
        <time>2021-04-07T10:16:06Z</time>
      </trkpt>
      <trkpt lat="44.51044" lon="6.59521">
        <ele>1785</ele>
        <time>2021-04-07T10:16:07Z</time>
      </trkpt>
      <trkpt lat="44.51044" lon="6.59521">
        <ele>1785</ele>
        <time>2021-04-07T10:16:08Z</time>
      </trkpt>
      <trkpt lat="44.51044" lon="6.59521">
        <ele>1785</ele>
        <time>2021-04-07T10:16:09Z</time>
      </trkpt>
      <trkpt lat="44.51044" lon="6.59521">
        <ele>1785</ele>
        <time>2021-04-07T10:16:10Z</time>
      </trkpt>
      <trkpt lat="44.51044" lon="6.59521">
        <ele>1785</ele>
        <time>2021-04-07T10:16:11Z</time>
      </trkpt>
      <trkpt lat="44.51044" lon="6.59521">
        <ele>1785</ele>
        <time>2021-04-07T10:16:12Z</time>
      </trkpt>
      <trkpt lat="44.51044" lon="6.59521">
        <ele>1785</ele>
        <time>2021-04-07T10:16:13Z</time>
      </trkpt>
      <trkpt lat="44.51044" lon="6.59521">
        <ele>1785</ele>
        <time>2021-04-07T10:16:14Z</time>
      </trkpt>
      <trkpt lat="44.51044" lon="6.59521">
        <ele>1785</ele>
        <time>2021-04-07T10:16:15Z</time>
      </trkpt>
      <trkpt lat="44.51044" lon="6.59521">
        <ele>1785</ele>
        <time>2021-04-07T10:16:16Z</time>
      </trkpt>
      <trkpt lat="44.51044" lon="6.59521">
        <ele>1785</ele>
        <time>2021-04-07T10:16:17Z</time>
      </trkpt>
      <trkpt lat="44.51044" lon="6.59521">
        <ele>1784</ele>
        <time>2021-04-07T10:16:18Z</time>
      </trkpt>
      <trkpt lat="44.51044" lon="6.59521">
        <ele>1784</ele>
        <time>2021-04-07T10:16:19Z</time>
      </trkpt>
      <trkpt lat="44.51044" lon="6.59521">
        <ele>1784</ele>
        <time>2021-04-07T10:16:20Z</time>
      </trkpt>
      <trkpt lat="44.51044" lon="6.59521">
        <ele>1783</ele>
        <time>2021-04-07T10:16:21Z</time>
      </trkpt>
      <trkpt lat="44.51044" lon="6.59521">
        <ele>1783</ele>
        <time>2021-04-07T10:16:22Z</time>
      </trkpt>
      <trkpt lat="44.51044" lon="6.59521">
        <ele>1783</ele>
        <time>2021-04-07T10:16:23Z</time>
      </trkpt>
      <trkpt lat="44.51044" lon="6.59521">
        <ele>1783</ele>
        <time>2021-04-07T10:16:24Z</time>
      </trkpt>
      <trkpt lat="44.51044" lon="6.59521">
        <ele>1783</ele>
        <time>2021-04-07T10:16:25Z</time>
      </trkpt>
      <trkpt lat="44.51044" lon="6.59521">
        <ele>1783</ele>
        <time>2021-04-07T10:16:26Z</time>
      </trkpt>
      <trkpt lat="44.51044" lon="6.59521">
        <ele>1783</ele>
        <time>2021-04-07T10:16:27Z</time>
      </trkpt>
      <trkpt lat="44.51044" lon="6.59521">
        <ele>1783</ele>
        <time>2021-04-07T10:16:28Z</time>
      </trkpt>
      <trkpt lat="44.51044" lon="6.59521">
        <ele>1783</ele>
        <time>2021-04-07T10:16:29Z</time>
      </trkpt>
      <trkpt lat="44.51044" lon="6.59521">
        <ele>1783</ele>
        <time>2021-04-07T10:16:30Z</time>
      </trkpt>
      <trkpt lat="44.51044" lon="6.59521">
        <ele>1783</ele>
        <time>2021-04-07T10:16:31Z</time>
      </trkpt>
      <trkpt lat="44.51044" lon="6.59521">
        <ele>1783</ele>
        <time>2021-04-07T10:16:32Z</time>
      </trkpt>
      <trkpt lat="44.51044" lon="6.59521">
        <ele>1783</ele>
        <time>2021-04-07T10:16:33Z</time>
      </trkpt>
      <trkpt lat="44.51044" lon="6.59521">
        <ele>1783</ele>
        <time>2021-04-07T10:16:34Z</time>
      </trkpt>
      <trkpt lat="44.51044" lon="6.59521">
        <ele>1783</ele>
        <time>2021-04-07T10:16:35Z</time>
      </trkpt>
      <trkpt lat="44.51044" lon="6.59521">
        <ele>1783</ele>
        <time>2021-04-07T10:16:36Z</time>
      </trkpt>
      <trkpt lat="44.51044" lon="6.59521">
        <ele>1783</ele>
        <time>2021-04-07T10:16:37Z</time>
      </trkpt>
      <trkpt lat="44.51044" lon="6.59521">
        <ele>1783</ele>
        <time>2021-04-07T10:16:38Z</time>
      </trkpt>
      <trkpt lat="44.51044" lon="6.59521">
        <ele>1783</ele>
        <time>2021-04-07T10:16:39Z</time>
      </trkpt>
      <trkpt lat="44.51044" lon="6.59521">
        <ele>1783</ele>
        <time>2021-04-07T10:16:40Z</time>
      </trkpt>
      <trkpt lat="44.51044" lon="6.59521">
        <ele>1783</ele>
        <time>2021-04-07T10:16:41Z</time>
      </trkpt>
      <trkpt lat="44.51044" lon="6.59521">
        <ele>1783</ele>
        <time>2021-04-07T10:16:42Z</time>
      </trkpt>
      <trkpt lat="44.51044" lon="6.59521">
        <ele>1783</ele>
        <time>2021-04-07T10:16:43Z</time>
      </trkpt>
      <trkpt lat="44.51044" lon="6.59521">
        <ele>1783</ele>
        <time>2021-04-07T10:16:44Z</time>
      </trkpt>
      <trkpt lat="44.51044" lon="6.59521">
        <ele>1783</ele>
        <time>2021-04-07T10:16:45Z</time>
      </trkpt>
      <trkpt lat="44.51044" lon="6.59521">
        <ele>1783</ele>
        <time>2021-04-07T10:16:46Z</time>
      </trkpt>
      <trkpt lat="44.51044" lon="6.59521">
        <ele>1783</ele>
        <time>2021-04-07T10:16:47Z</time>
      </trkpt>
      <trkpt lat="44.51044" lon="6.59521">
        <ele>1783</ele>
        <time>2021-04-07T10:16:48Z</time>
      </trkpt>
      <trkpt lat="44.51044" lon="6.59521">
        <ele>1783</ele>
        <time>2021-04-07T10:16:49Z</time>
      </trkpt>
      <trkpt lat="44.51044" lon="6.59521">
        <ele>1783</ele>
        <time>2021-04-07T10:16:50Z</time>
      </trkpt>
      <trkpt lat="44.5105" lon="6.5953">
        <ele>1784</ele>
        <time>2021-04-07T10:16:51Z</time>
      </trkpt>
      <trkpt lat="44.51051" lon="6.5953">
        <ele>1784</ele>
        <time>2021-04-07T10:16:52Z</time>
      </trkpt>
      <trkpt lat="44.51053" lon="6.59532">
        <ele>1784</ele>
        <time>2021-04-07T10:16:53Z</time>
      </trkpt>
      <trkpt lat="44.51055" lon="6.59533">
        <ele>1784</ele>
        <time>2021-04-07T10:16:54Z</time>
      </trkpt>
      <trkpt lat="44.51056" lon="6.59534">
        <ele>1784</ele>
        <time>2021-04-07T10:16:55Z</time>
      </trkpt>
      <trkpt lat="44.51058" lon="6.59536">
        <ele>1784</ele>
        <time>2021-04-07T10:16:56Z</time>
      </trkpt>
      <trkpt lat="44.5106" lon="6.59537">
        <ele>1784</ele>
        <time>2021-04-07T10:16:57Z</time>
      </trkpt>
      <trkpt lat="44.51061" lon="6.59538">
        <ele>1784</ele>
        <time>2021-04-07T10:16:58Z</time>
      </trkpt>
      <trkpt lat="44.51063" lon="6.59539">
        <ele>1784</ele>
        <time>2021-04-07T10:16:59Z</time>
      </trkpt>
      <trkpt lat="44.51063" lon="6.5954">
        <ele>1784</ele>
        <time>2021-04-07T10:17:00Z</time>
      </trkpt>
      <trkpt lat="44.51064" lon="6.59541">
        <ele>1784</ele>
        <time>2021-04-07T10:17:01Z</time>
      </trkpt>
      <trkpt lat="44.51064" lon="6.59541">
        <ele>1784</ele>
        <time>2021-04-07T10:17:02Z</time>
      </trkpt>
      <trkpt lat="44.51065" lon="6.59544">
        <ele>1784</ele>
        <time>2021-04-07T10:17:03Z</time>
      </trkpt>
      <trkpt lat="44.51066" lon="6.59546">
        <ele>1783</ele>
        <time>2021-04-07T10:17:04Z</time>
      </trkpt>
      <trkpt lat="44.51067" lon="6.59546">
        <ele>1783</ele>
        <time>2021-04-07T10:17:05Z</time>
      </trkpt>
      <trkpt lat="44.51067" lon="6.59547">
        <ele>1783</ele>
        <time>2021-04-07T10:17:06Z</time>
      </trkpt>
      <trkpt lat="44.51067" lon="6.59547">
        <ele>1783</ele>
        <time>2021-04-07T10:17:07Z</time>
      </trkpt>
      <trkpt lat="44.51069" lon="6.59549">
        <ele>1783</ele>
        <time>2021-04-07T10:17:08Z</time>
      </trkpt>
      <trkpt lat="44.5107" lon="6.59551">
        <ele>1783</ele>
        <time>2021-04-07T10:17:09Z</time>
      </trkpt>
      <trkpt lat="44.51071" lon="6.59553">
        <ele>1783</ele>
        <time>2021-04-07T10:17:10Z</time>
      </trkpt>
      <trkpt lat="44.51073" lon="6.59554">
        <ele>1783</ele>
        <time>2021-04-07T10:17:11Z</time>
      </trkpt>
      <trkpt lat="44.51074" lon="6.59555">
        <ele>1784</ele>
        <time>2021-04-07T10:17:12Z</time>
      </trkpt>
      <trkpt lat="44.51074" lon="6.59556">
        <ele>1784</ele>
        <time>2021-04-07T10:17:13Z</time>
      </trkpt>
      <trkpt lat="44.51075" lon="6.59556">
        <ele>1784</ele>
        <time>2021-04-07T10:17:14Z</time>
      </trkpt>
      <trkpt lat="44.51076" lon="6.59557">
        <ele>1784</ele>
        <time>2021-04-07T10:17:15Z</time>
      </trkpt>
      <trkpt lat="44.51077" lon="6.59559">
        <ele>1784</ele>
        <time>2021-04-07T10:17:16Z</time>
      </trkpt>
      <trkpt lat="44.51077" lon="6.5956">
        <ele>1784</ele>
        <time>2021-04-07T10:17:17Z</time>
      </trkpt>
      <trkpt lat="44.51077" lon="6.59561">
        <ele>1784</ele>
        <time>2021-04-07T10:17:18Z</time>
      </trkpt>
      <trkpt lat="44.51078" lon="6.59561">
        <ele>1783</ele>
        <time>2021-04-07T10:17:19Z</time>
      </trkpt>
      <trkpt lat="44.51079" lon="6.59563">
        <ele>1783</ele>
        <time>2021-04-07T10:17:20Z</time>
      </trkpt>
      <trkpt lat="44.5108" lon="6.59564">
        <ele>1783</ele>
        <time>2021-04-07T10:17:21Z</time>
      </trkpt>
      <trkpt lat="44.51081" lon="6.59564">
        <ele>1783</ele>
        <time>2021-04-07T10:17:22Z</time>
      </trkpt>
      <trkpt lat="44.51082" lon="6.59564">
        <ele>1783</ele>
        <time>2021-04-07T10:17:23Z</time>
      </trkpt>
      <trkpt lat="44.51082" lon="6.59564">
        <ele>1783</ele>
        <time>2021-04-07T10:17:24Z</time>
      </trkpt>
      <trkpt lat="44.51082" lon="6.59564">
        <ele>1783</ele>
        <time>2021-04-07T10:17:25Z</time>
      </trkpt>
      <trkpt lat="44.51082" lon="6.59564">
        <ele>1783</ele>
        <time>2021-04-07T10:17:26Z</time>
      </trkpt>
      <trkpt lat="44.51082" lon="6.59564">
        <ele>1783</ele>
        <time>2021-04-07T10:17:27Z</time>
      </trkpt>
      <trkpt lat="44.51082" lon="6.59564">
        <ele>1783</ele>
        <time>2021-04-07T10:17:28Z</time>
      </trkpt>
      <trkpt lat="44.51082" lon="6.59564">
        <ele>1783</ele>
        <time>2021-04-07T10:17:29Z</time>
      </trkpt>
      <trkpt lat="44.51082" lon="6.59564">
        <ele>1783</ele>
        <time>2021-04-07T10:17:30Z</time>
      </trkpt>
      <trkpt lat="44.51082" lon="6.59564">
        <ele>1783</ele>
        <time>2021-04-07T10:17:31Z</time>
      </trkpt>
      <trkpt lat="44.51082" lon="6.59564">
        <ele>1783</ele>
        <time>2021-04-07T10:17:32Z</time>
      </trkpt>
      <trkpt lat="44.51082" lon="6.59564">
        <ele>1783</ele>
        <time>2021-04-07T10:17:33Z</time>
      </trkpt>
      <trkpt lat="44.51082" lon="6.59564">
        <ele>1783</ele>
        <time>2021-04-07T10:17:34Z</time>
      </trkpt>
      <trkpt lat="44.51082" lon="6.59564">
        <ele>1783</ele>
        <time>2021-04-07T10:17:35Z</time>
      </trkpt>
      <trkpt lat="44.51082" lon="6.59564">
        <ele>1783</ele>
        <time>2021-04-07T10:17:36Z</time>
      </trkpt>
      <trkpt lat="44.51082" lon="6.59564">
        <ele>1783</ele>
        <time>2021-04-07T10:17:37Z</time>
      </trkpt>
      <trkpt lat="44.51082" lon="6.59564">
        <ele>1783</ele>
        <time>2021-04-07T10:17:38Z</time>
      </trkpt>
      <trkpt lat="44.51082" lon="6.59564">
        <ele>1783</ele>
        <time>2021-04-07T10:17:39Z</time>
      </trkpt>
      <trkpt lat="44.51082" lon="6.59564">
        <ele>1783</ele>
        <time>2021-04-07T10:17:40Z</time>
      </trkpt>
      <trkpt lat="44.51082" lon="6.59564">
        <ele>1783</ele>
        <time>2021-04-07T10:17:41Z</time>
      </trkpt>
      <trkpt lat="44.51082" lon="6.59564">
        <ele>1783</ele>
        <time>2021-04-07T10:17:42Z</time>
      </trkpt>
      <trkpt lat="44.51082" lon="6.59564">
        <ele>1783</ele>
        <time>2021-04-07T10:17:43Z</time>
      </trkpt>
      <trkpt lat="44.51082" lon="6.59564">
        <ele>1783</ele>
        <time>2021-04-07T10:17:44Z</time>
      </trkpt>
      <trkpt lat="44.51082" lon="6.59564">
        <ele>1783</ele>
        <time>2021-04-07T10:17:45Z</time>
      </trkpt>
      <trkpt lat="44.51082" lon="6.59564">
        <ele>1783</ele>
        <time>2021-04-07T10:17:46Z</time>
      </trkpt>
      <trkpt lat="44.51082" lon="6.59564">
        <ele>1783</ele>
        <time>2021-04-07T10:17:47Z</time>
      </trkpt>
      <trkpt lat="44.51082" lon="6.59564">
        <ele>1783</ele>
        <time>2021-04-07T10:17:48Z</time>
      </trkpt>
      <trkpt lat="44.51082" lon="6.59564">
        <ele>1783</ele>
        <time>2021-04-07T10:17:49Z</time>
      </trkpt>
      <trkpt lat="44.51082" lon="6.59564">
        <ele>1783</ele>
        <time>2021-04-07T10:17:50Z</time>
      </trkpt>
      <trkpt lat="44.51082" lon="6.59564">
        <ele>1783</ele>
        <time>2021-04-07T10:17:51Z</time>
      </trkpt>
      <trkpt lat="44.51082" lon="6.59564">
        <ele>1783</ele>
        <time>2021-04-07T10:17:52Z</time>
      </trkpt>
      <trkpt lat="44.51082" lon="6.59564">
        <ele>1783</ele>
        <time>2021-04-07T10:17:53Z</time>
      </trkpt>
      <trkpt lat="44.51082" lon="6.59564">
        <ele>1783</ele>
        <time>2021-04-07T10:17:54Z</time>
      </trkpt>
      <trkpt lat="44.51082" lon="6.59564">
        <ele>1783</ele>
        <time>2021-04-07T10:17:55Z</time>
      </trkpt>
      <trkpt lat="44.51082" lon="6.59564">
        <ele>1783</ele>
        <time>2021-04-07T10:17:56Z</time>
      </trkpt>
      <trkpt lat="44.51082" lon="6.59564">
        <ele>1783</ele>
        <time>2021-04-07T10:17:57Z</time>
      </trkpt>
      <trkpt lat="44.51082" lon="6.59564">
        <ele>1783</ele>
        <time>2021-04-07T10:17:58Z</time>
      </trkpt>
      <trkpt lat="44.51082" lon="6.59564">
        <ele>1783</ele>
        <time>2021-04-07T10:17:59Z</time>
      </trkpt>
      <trkpt lat="44.51082" lon="6.59564">
        <ele>1783</ele>
        <time>2021-04-07T10:18:00Z</time>
      </trkpt>
      <trkpt lat="44.51082" lon="6.59564">
        <ele>1783</ele>
        <time>2021-04-07T10:18:01Z</time>
      </trkpt>
      <trkpt lat="44.51082" lon="6.59564">
        <ele>1783</ele>
        <time>2021-04-07T10:18:02Z</time>
      </trkpt>
      <trkpt lat="44.51082" lon="6.59564">
        <ele>1783</ele>
        <time>2021-04-07T10:18:03Z</time>
      </trkpt>
      <trkpt lat="44.51082" lon="6.59564">
        <ele>1783</ele>
        <time>2021-04-07T10:18:04Z</time>
      </trkpt>
      <trkpt lat="44.51092" lon="6.59566">
        <ele>1781</ele>
        <time>2021-04-07T10:18:05Z</time>
      </trkpt>
      <trkpt lat="44.51093" lon="6.59569">
        <ele>1781</ele>
        <time>2021-04-07T10:18:06Z</time>
      </trkpt>
      <trkpt lat="44.51094" lon="6.5957">
        <ele>1781</ele>
        <time>2021-04-07T10:18:07Z</time>
      </trkpt>
      <trkpt lat="44.51095" lon="6.59571">
        <ele>1781</ele>
        <time>2021-04-07T10:18:08Z</time>
      </trkpt>
      <trkpt lat="44.51095" lon="6.59571">
        <ele>1781</ele>
        <time>2021-04-07T10:18:09Z</time>
      </trkpt>
      <trkpt lat="44.51095" lon="6.59571">
        <ele>1781</ele>
        <time>2021-04-07T10:18:10Z</time>
      </trkpt>
      <trkpt lat="44.51095" lon="6.59571">
        <ele>1782</ele>
        <time>2021-04-07T10:18:11Z</time>
      </trkpt>
      <trkpt lat="44.51095" lon="6.59571">
        <ele>1782</ele>
        <time>2021-04-07T10:18:12Z</time>
      </trkpt>
      <trkpt lat="44.51095" lon="6.59571">
        <ele>1782</ele>
        <time>2021-04-07T10:18:13Z</time>
      </trkpt>
      <trkpt lat="44.51095" lon="6.59571">
        <ele>1782</ele>
        <time>2021-04-07T10:18:14Z</time>
      </trkpt>
      <trkpt lat="44.51095" lon="6.59571">
        <ele>1782</ele>
        <time>2021-04-07T10:18:15Z</time>
      </trkpt>
      <trkpt lat="44.51095" lon="6.59571">
        <ele>1782</ele>
        <time>2021-04-07T10:18:16Z</time>
      </trkpt>
      <trkpt lat="44.51095" lon="6.59571">
        <ele>1782</ele>
        <time>2021-04-07T10:18:17Z</time>
      </trkpt>
      <trkpt lat="44.51103" lon="6.59575">
        <ele>1783</ele>
        <time>2021-04-07T10:18:18Z</time>
      </trkpt>
      <trkpt lat="44.51104" lon="6.59575">
        <ele>1784</ele>
        <time>2021-04-07T10:18:19Z</time>
      </trkpt>
      <trkpt lat="44.51105" lon="6.59575">
        <ele>1784</ele>
        <time>2021-04-07T10:18:20Z</time>
      </trkpt>
      <trkpt lat="44.51106" lon="6.59575">
        <ele>1784</ele>
        <time>2021-04-07T10:18:21Z</time>
      </trkpt>
      <trkpt lat="44.51106" lon="6.59575">
        <ele>1784</ele>
        <time>2021-04-07T10:18:22Z</time>
      </trkpt>
      <trkpt lat="44.51109" lon="6.59576">
        <ele>1784</ele>
        <time>2021-04-07T10:18:23Z</time>
      </trkpt>
      <trkpt lat="44.5111" lon="6.59577">
        <ele>1785</ele>
        <time>2021-04-07T10:18:24Z</time>
      </trkpt>
      <trkpt lat="44.51112" lon="6.59577">
        <ele>1785</ele>
        <time>2021-04-07T10:18:25Z</time>
      </trkpt>
      <trkpt lat="44.51112" lon="6.59578">
        <ele>1785</ele>
        <time>2021-04-07T10:18:26Z</time>
      </trkpt>
      <trkpt lat="44.51113" lon="6.59579">
        <ele>1784</ele>
        <time>2021-04-07T10:18:27Z</time>
      </trkpt>
      <trkpt lat="44.51115" lon="6.5958">
        <ele>1784</ele>
        <time>2021-04-07T10:18:28Z</time>
      </trkpt>
      <trkpt lat="44.51115" lon="6.59581">
        <ele>1784</ele>
        <time>2021-04-07T10:18:29Z</time>
      </trkpt>
      <trkpt lat="44.51117" lon="6.59582">
        <ele>1784</ele>
        <time>2021-04-07T10:18:30Z</time>
      </trkpt>
      <trkpt lat="44.51117" lon="6.59582">
        <ele>1784</ele>
        <time>2021-04-07T10:18:31Z</time>
      </trkpt>
      <trkpt lat="44.51118" lon="6.59582">
        <ele>1784</ele>
        <time>2021-04-07T10:18:32Z</time>
      </trkpt>
      <trkpt lat="44.51119" lon="6.59583">
        <ele>1784</ele>
        <time>2021-04-07T10:18:33Z</time>
      </trkpt>
      <trkpt lat="44.5112" lon="6.59584">
        <ele>1784</ele>
        <time>2021-04-07T10:18:34Z</time>
      </trkpt>
      <trkpt lat="44.51121" lon="6.59585">
        <ele>1784</ele>
        <time>2021-04-07T10:18:35Z</time>
      </trkpt>
      <trkpt lat="44.51122" lon="6.59585">
        <ele>1784</ele>
        <time>2021-04-07T10:18:36Z</time>
      </trkpt>
      <trkpt lat="44.51122" lon="6.59585">
        <ele>1784</ele>
        <time>2021-04-07T10:18:37Z</time>
      </trkpt>
      <trkpt lat="44.51122" lon="6.59585">
        <ele>1784</ele>
        <time>2021-04-07T10:18:38Z</time>
      </trkpt>
      <trkpt lat="44.51122" lon="6.59585">
        <ele>1784</ele>
        <time>2021-04-07T10:18:39Z</time>
      </trkpt>
      <trkpt lat="44.51122" lon="6.59585">
        <ele>1784</ele>
        <time>2021-04-07T10:18:40Z</time>
      </trkpt>
      <trkpt lat="44.51122" lon="6.59585">
        <ele>1784</ele>
        <time>2021-04-07T10:18:41Z</time>
      </trkpt>
      <trkpt lat="44.51122" lon="6.59585">
        <ele>1784</ele>
        <time>2021-04-07T10:18:42Z</time>
      </trkpt>
      <trkpt lat="44.51122" lon="6.59585">
        <ele>1784</ele>
        <time>2021-04-07T10:18:43Z</time>
      </trkpt>
      <trkpt lat="44.51122" lon="6.59585">
        <ele>1784</ele>
        <time>2021-04-07T10:18:44Z</time>
      </trkpt>
      <trkpt lat="44.51122" lon="6.59585">
        <ele>1784</ele>
        <time>2021-04-07T10:18:45Z</time>
      </trkpt>
      <trkpt lat="44.51122" lon="6.59585">
        <ele>1784</ele>
        <time>2021-04-07T10:18:46Z</time>
      </trkpt>
      <trkpt lat="44.51122" lon="6.59585">
        <ele>1784</ele>
        <time>2021-04-07T10:18:47Z</time>
      </trkpt>
      <trkpt lat="44.51122" lon="6.59585">
        <ele>1784</ele>
        <time>2021-04-07T10:18:48Z</time>
      </trkpt>
      <trkpt lat="44.51122" lon="6.59585">
        <ele>1784</ele>
        <time>2021-04-07T10:18:49Z</time>
      </trkpt>
      <trkpt lat="44.51122" lon="6.59585">
        <ele>1784</ele>
        <time>2021-04-07T10:18:50Z</time>
      </trkpt>
      <trkpt lat="44.51122" lon="6.59585">
        <ele>1784</ele>
        <time>2021-04-07T10:18:51Z</time>
      </trkpt>
      <trkpt lat="44.51122" lon="6.59585">
        <ele>1784</ele>
        <time>2021-04-07T10:18:52Z</time>
      </trkpt>
      <trkpt lat="44.51122" lon="6.59585">
        <ele>1784</ele>
        <time>2021-04-07T10:18:53Z</time>
      </trkpt>
      <trkpt lat="44.51122" lon="6.59585">
        <ele>1784</ele>
        <time>2021-04-07T10:18:54Z</time>
      </trkpt>
      <trkpt lat="44.51122" lon="6.59585">
        <ele>1784</ele>
        <time>2021-04-07T10:18:55Z</time>
      </trkpt>
      <trkpt lat="44.51122" lon="6.59585">
        <ele>1784</ele>
        <time>2021-04-07T10:18:56Z</time>
      </trkpt>
      <trkpt lat="44.51122" lon="6.59585">
        <ele>1784</ele>
        <time>2021-04-07T10:18:57Z</time>
      </trkpt>
      <trkpt lat="44.51122" lon="6.59585">
        <ele>1784</ele>
        <time>2021-04-07T10:18:58Z</time>
      </trkpt>
      <trkpt lat="44.51122" lon="6.59585">
        <ele>1784</ele>
        <time>2021-04-07T10:18:59Z</time>
      </trkpt>
      <trkpt lat="44.51122" lon="6.59585">
        <ele>1784</ele>
        <time>2021-04-07T10:19:00Z</time>
      </trkpt>
      <trkpt lat="44.51122" lon="6.59585">
        <ele>1784</ele>
        <time>2021-04-07T10:19:01Z</time>
      </trkpt>
      <trkpt lat="44.51122" lon="6.59585">
        <ele>1784</ele>
        <time>2021-04-07T10:19:02Z</time>
      </trkpt>
      <trkpt lat="44.51122" lon="6.59585">
        <ele>1784</ele>
        <time>2021-04-07T10:19:03Z</time>
      </trkpt>
      <trkpt lat="44.51122" lon="6.59585">
        <ele>1784</ele>
        <time>2021-04-07T10:19:04Z</time>
      </trkpt>
      <trkpt lat="44.51122" lon="6.59585">
        <ele>1784</ele>
        <time>2021-04-07T10:19:05Z</time>
      </trkpt>
      <trkpt lat="44.51122" lon="6.59585">
        <ele>1784</ele>
        <time>2021-04-07T10:19:06Z</time>
      </trkpt>
      <trkpt lat="44.51122" lon="6.59585">
        <ele>1784</ele>
        <time>2021-04-07T10:19:07Z</time>
      </trkpt>
      <trkpt lat="44.51122" lon="6.59585">
        <ele>1784</ele>
        <time>2021-04-07T10:19:08Z</time>
      </trkpt>
      <trkpt lat="44.51122" lon="6.59585">
        <ele>1784</ele>
        <time>2021-04-07T10:19:09Z</time>
      </trkpt>
      <trkpt lat="44.51122" lon="6.59585">
        <ele>1784</ele>
        <time>2021-04-07T10:19:10Z</time>
      </trkpt>
      <trkpt lat="44.51122" lon="6.59585">
        <ele>1784</ele>
        <time>2021-04-07T10:19:11Z</time>
      </trkpt>
      <trkpt lat="44.51122" lon="6.59585">
        <ele>1784</ele>
        <time>2021-04-07T10:19:12Z</time>
      </trkpt>
      <trkpt lat="44.51122" lon="6.59585">
        <ele>1784</ele>
        <time>2021-04-07T10:19:13Z</time>
      </trkpt>
      <trkpt lat="44.51127" lon="6.59597">
        <ele>1784</ele>
        <time>2021-04-07T10:19:14Z</time>
      </trkpt>
      <trkpt lat="44.51128" lon="6.59598">
        <ele>1784</ele>
        <time>2021-04-07T10:19:15Z</time>
      </trkpt>
      <trkpt lat="44.51129" lon="6.59599">
        <ele>1784</ele>
        <time>2021-04-07T10:19:16Z</time>
      </trkpt>
      <trkpt lat="44.5113" lon="6.596">
        <ele>1783</ele>
        <time>2021-04-07T10:19:17Z</time>
      </trkpt>
      <trkpt lat="44.51132" lon="6.596">
        <ele>1783</ele>
        <time>2021-04-07T10:19:18Z</time>
      </trkpt>
      <trkpt lat="44.51134" lon="6.59601">
        <ele>1782</ele>
        <time>2021-04-07T10:19:19Z</time>
      </trkpt>
      <trkpt lat="44.51136" lon="6.59601">
        <ele>1782</ele>
        <time>2021-04-07T10:19:20Z</time>
      </trkpt>
      <trkpt lat="44.51137" lon="6.59602">
        <ele>1781</ele>
        <time>2021-04-07T10:19:21Z</time>
      </trkpt>
      <trkpt lat="44.51138" lon="6.59603">
        <ele>1780</ele>
        <time>2021-04-07T10:19:22Z</time>
      </trkpt>
      <trkpt lat="44.51139" lon="6.59604">
        <ele>1780</ele>
        <time>2021-04-07T10:19:23Z</time>
      </trkpt>
      <trkpt lat="44.51139" lon="6.59604">
        <ele>1780</ele>
        <time>2021-04-07T10:19:24Z</time>
      </trkpt>
      <trkpt lat="44.51139" lon="6.59604">
        <ele>1779</ele>
        <time>2021-04-07T10:19:25Z</time>
      </trkpt>
      <trkpt lat="44.51139" lon="6.59604">
        <ele>1779</ele>
        <time>2021-04-07T10:19:26Z</time>
      </trkpt>
      <trkpt lat="44.5114" lon="6.59597">
        <ele>1777</ele>
        <time>2021-04-07T10:19:27Z</time>
      </trkpt>
      <trkpt lat="44.51142" lon="6.59592">
        <ele>1776</ele>
        <time>2021-04-07T10:19:28Z</time>
      </trkpt>
      <trkpt lat="44.51142" lon="6.59588">
        <ele>1775</ele>
        <time>2021-04-07T10:19:29Z</time>
      </trkpt>
      <trkpt lat="44.51142" lon="6.59585">
        <ele>1774</ele>
        <time>2021-04-07T10:19:30Z</time>
      </trkpt>
      <trkpt lat="44.51143" lon="6.59583">
        <ele>1773</ele>
        <time>2021-04-07T10:19:31Z</time>
      </trkpt>
      <trkpt lat="44.51143" lon="6.59584">
        <ele>1773</ele>
        <time>2021-04-07T10:19:32Z</time>
      </trkpt>
      <trkpt lat="44.51143" lon="6.59584">
        <ele>1772</ele>
        <time>2021-04-07T10:19:33Z</time>
      </trkpt>
      <trkpt lat="44.51143" lon="6.59584">
        <ele>1772</ele>
        <time>2021-04-07T10:19:34Z</time>
      </trkpt>
      <trkpt lat="44.51143" lon="6.59584">
        <ele>1772</ele>
        <time>2021-04-07T10:19:35Z</time>
      </trkpt>
      <trkpt lat="44.51143" lon="6.59584">
        <ele>1772</ele>
        <time>2021-04-07T10:19:36Z</time>
      </trkpt>
      <trkpt lat="44.51143" lon="6.59584">
        <ele>1771</ele>
        <time>2021-04-07T10:19:37Z</time>
      </trkpt>
      <trkpt lat="44.51143" lon="6.59584">
        <ele>1771</ele>
        <time>2021-04-07T10:19:38Z</time>
      </trkpt>
      <trkpt lat="44.51145" lon="6.59575">
        <ele>1770</ele>
        <time>2021-04-07T10:19:39Z</time>
      </trkpt>
      <trkpt lat="44.51146" lon="6.59573">
        <ele>1770</ele>
        <time>2021-04-07T10:19:40Z</time>
      </trkpt>
      <trkpt lat="44.51146" lon="6.59572">
        <ele>1769</ele>
        <time>2021-04-07T10:19:41Z</time>
      </trkpt>
      <trkpt lat="44.51146" lon="6.59571">
        <ele>1769</ele>
        <time>2021-04-07T10:19:42Z</time>
      </trkpt>
      <trkpt lat="44.51147" lon="6.5957">
        <ele>1768</ele>
        <time>2021-04-07T10:19:43Z</time>
      </trkpt>
      <trkpt lat="44.51148" lon="6.59568">
        <ele>1768</ele>
        <time>2021-04-07T10:19:44Z</time>
      </trkpt>
      <trkpt lat="44.51148" lon="6.59567">
        <ele>1767</ele>
        <time>2021-04-07T10:19:45Z</time>
      </trkpt>
      <trkpt lat="44.51149" lon="6.59565">
        <ele>1767</ele>
        <time>2021-04-07T10:19:46Z</time>
      </trkpt>
      <trkpt lat="44.5115" lon="6.59564">
        <ele>1767</ele>
        <time>2021-04-07T10:19:47Z</time>
      </trkpt>
      <trkpt lat="44.51151" lon="6.59563">
        <ele>1766</ele>
        <time>2021-04-07T10:19:48Z</time>
      </trkpt>
      <trkpt lat="44.51151" lon="6.59561">
        <ele>1765</ele>
        <time>2021-04-07T10:19:49Z</time>
      </trkpt>
      <trkpt lat="44.51151" lon="6.5956">
        <ele>1765</ele>
        <time>2021-04-07T10:19:50Z</time>
      </trkpt>
      <trkpt lat="44.51151" lon="6.59559">
        <ele>1765</ele>
        <time>2021-04-07T10:19:51Z</time>
      </trkpt>
      <trkpt lat="44.51152" lon="6.59559">
        <ele>1765</ele>
        <time>2021-04-07T10:19:52Z</time>
      </trkpt>
      <trkpt lat="44.51152" lon="6.59559">
        <ele>1765</ele>
        <time>2021-04-07T10:19:53Z</time>
      </trkpt>
      <trkpt lat="44.51152" lon="6.59559">
        <ele>1765</ele>
        <time>2021-04-07T10:19:54Z</time>
      </trkpt>
      <trkpt lat="44.51152" lon="6.59559">
        <ele>1764</ele>
        <time>2021-04-07T10:19:55Z</time>
      </trkpt>
      <trkpt lat="44.51152" lon="6.59559">
        <ele>1764</ele>
        <time>2021-04-07T10:19:56Z</time>
      </trkpt>
      <trkpt lat="44.51152" lon="6.59559">
        <ele>1764</ele>
        <time>2021-04-07T10:19:57Z</time>
      </trkpt>
      <trkpt lat="44.51152" lon="6.59559">
        <ele>1764</ele>
        <time>2021-04-07T10:19:58Z</time>
      </trkpt>
      <trkpt lat="44.51152" lon="6.59559">
        <ele>1764</ele>
        <time>2021-04-07T10:19:59Z</time>
      </trkpt>
      <trkpt lat="44.51152" lon="6.59559">
        <ele>1764</ele>
        <time>2021-04-07T10:20:00Z</time>
      </trkpt>
      <trkpt lat="44.51152" lon="6.59559">
        <ele>1764</ele>
        <time>2021-04-07T10:20:01Z</time>
      </trkpt>
      <trkpt lat="44.51152" lon="6.59559">
        <ele>1764</ele>
        <time>2021-04-07T10:20:02Z</time>
      </trkpt>
      <trkpt lat="44.51152" lon="6.59559">
        <ele>1764</ele>
        <time>2021-04-07T10:20:03Z</time>
      </trkpt>
      <trkpt lat="44.51152" lon="6.59559">
        <ele>1764</ele>
        <time>2021-04-07T10:20:04Z</time>
      </trkpt>
      <trkpt lat="44.51152" lon="6.59559">
        <ele>1764</ele>
        <time>2021-04-07T10:20:05Z</time>
      </trkpt>
      <trkpt lat="44.51152" lon="6.59559">
        <ele>1764</ele>
        <time>2021-04-07T10:20:06Z</time>
      </trkpt>
      <trkpt lat="44.51152" lon="6.59559">
        <ele>1764</ele>
        <time>2021-04-07T10:20:07Z</time>
      </trkpt>
      <trkpt lat="44.51152" lon="6.59559">
        <ele>1764</ele>
        <time>2021-04-07T10:20:08Z</time>
      </trkpt>
      <trkpt lat="44.51152" lon="6.59559">
        <ele>1764</ele>
        <time>2021-04-07T10:20:09Z</time>
      </trkpt>
      <trkpt lat="44.51157" lon="6.59552">
        <ele>1763</ele>
        <time>2021-04-07T10:20:10Z</time>
      </trkpt>
      <trkpt lat="44.51157" lon="6.59551">
        <ele>1763</ele>
        <time>2021-04-07T10:20:11Z</time>
      </trkpt>
      <trkpt lat="44.51157" lon="6.5955">
        <ele>1763</ele>
        <time>2021-04-07T10:20:12Z</time>
      </trkpt>
      <trkpt lat="44.51157" lon="6.5955">
        <ele>1763</ele>
        <time>2021-04-07T10:20:13Z</time>
      </trkpt>
      <trkpt lat="44.51157" lon="6.5955">
        <ele>1763</ele>
        <time>2021-04-07T10:20:14Z</time>
      </trkpt>
      <trkpt lat="44.51157" lon="6.5955">
        <ele>1763</ele>
        <time>2021-04-07T10:20:15Z</time>
      </trkpt>
      <trkpt lat="44.51157" lon="6.5955">
        <ele>1763</ele>
        <time>2021-04-07T10:20:16Z</time>
      </trkpt>
      <trkpt lat="44.51157" lon="6.5955">
        <ele>1763</ele>
        <time>2021-04-07T10:20:17Z</time>
      </trkpt>
      <trkpt lat="44.51157" lon="6.5955">
        <ele>1763</ele>
        <time>2021-04-07T10:20:18Z</time>
      </trkpt>
      <trkpt lat="44.51157" lon="6.5955">
        <ele>1762</ele>
        <time>2021-04-07T10:20:19Z</time>
      </trkpt>
      <trkpt lat="44.51157" lon="6.5955">
        <ele>1762</ele>
        <time>2021-04-07T10:20:20Z</time>
      </trkpt>
      <trkpt lat="44.51157" lon="6.5955">
        <ele>1762</ele>
        <time>2021-04-07T10:20:21Z</time>
      </trkpt>
      <trkpt lat="44.51157" lon="6.5955">
        <ele>1762</ele>
        <time>2021-04-07T10:20:22Z</time>
      </trkpt>
      <trkpt lat="44.51157" lon="6.5955">
        <ele>1762</ele>
        <time>2021-04-07T10:20:23Z</time>
      </trkpt>
      <trkpt lat="44.51157" lon="6.5955">
        <ele>1762</ele>
        <time>2021-04-07T10:20:24Z</time>
      </trkpt>
      <trkpt lat="44.51157" lon="6.5955">
        <ele>1762</ele>
        <time>2021-04-07T10:20:25Z</time>
      </trkpt>
      <trkpt lat="44.51157" lon="6.5955">
        <ele>1762</ele>
        <time>2021-04-07T10:20:26Z</time>
      </trkpt>
      <trkpt lat="44.51157" lon="6.5955">
        <ele>1762</ele>
        <time>2021-04-07T10:20:27Z</time>
      </trkpt>
      <trkpt lat="44.51157" lon="6.5955">
        <ele>1762</ele>
        <time>2021-04-07T10:20:28Z</time>
      </trkpt>
      <trkpt lat="44.51157" lon="6.5955">
        <ele>1762</ele>
        <time>2021-04-07T10:20:29Z</time>
      </trkpt>
      <trkpt lat="44.51157" lon="6.5955">
        <ele>1762</ele>
        <time>2021-04-07T10:20:30Z</time>
      </trkpt>
      <trkpt lat="44.51157" lon="6.5955">
        <ele>1762</ele>
        <time>2021-04-07T10:20:31Z</time>
      </trkpt>
      <trkpt lat="44.51157" lon="6.5955">
        <ele>1762</ele>
        <time>2021-04-07T10:20:32Z</time>
      </trkpt>
      <trkpt lat="44.51157" lon="6.5955">
        <ele>1762</ele>
        <time>2021-04-07T10:20:33Z</time>
      </trkpt>
      <trkpt lat="44.51157" lon="6.5955">
        <ele>1762</ele>
        <time>2021-04-07T10:20:34Z</time>
      </trkpt>
      <trkpt lat="44.51157" lon="6.5955">
        <ele>1762</ele>
        <time>2021-04-07T10:20:35Z</time>
      </trkpt>
      <trkpt lat="44.51157" lon="6.5955">
        <ele>1762</ele>
        <time>2021-04-07T10:20:36Z</time>
      </trkpt>
      <trkpt lat="44.51157" lon="6.5955">
        <ele>1762</ele>
        <time>2021-04-07T10:20:37Z</time>
      </trkpt>
      <trkpt lat="44.51157" lon="6.5955">
        <ele>1762</ele>
        <time>2021-04-07T10:20:38Z</time>
      </trkpt>
      <trkpt lat="44.51157" lon="6.5955">
        <ele>1762</ele>
        <time>2021-04-07T10:20:39Z</time>
      </trkpt>
      <trkpt lat="44.51155" lon="6.59558">
        <ele>1762</ele>
        <time>2021-04-07T10:20:40Z</time>
      </trkpt>
      <trkpt lat="44.51156" lon="6.59555">
        <ele>1762</ele>
        <time>2021-04-07T10:20:41Z</time>
      </trkpt>
      <trkpt lat="44.51156" lon="6.59552">
        <ele>1762</ele>
        <time>2021-04-07T10:20:42Z</time>
      </trkpt>
      <trkpt lat="44.51156" lon="6.5955">
        <ele>1762</ele>
        <time>2021-04-07T10:20:43Z</time>
      </trkpt>
      <trkpt lat="44.51156" lon="6.5955">
        <ele>1762</ele>
        <time>2021-04-07T10:20:44Z</time>
      </trkpt>
      <trkpt lat="44.51156" lon="6.5955">
        <ele>1761</ele>
        <time>2021-04-07T10:20:45Z</time>
      </trkpt>
      <trkpt lat="44.51156" lon="6.5955">
        <ele>1761</ele>
        <time>2021-04-07T10:20:46Z</time>
      </trkpt>
      <trkpt lat="44.51156" lon="6.5955">
        <ele>1761</ele>
        <time>2021-04-07T10:20:47Z</time>
      </trkpt>
      <trkpt lat="44.51156" lon="6.5955">
        <ele>1761</ele>
        <time>2021-04-07T10:20:48Z</time>
      </trkpt>
      <trkpt lat="44.51156" lon="6.5955">
        <ele>1761</ele>
        <time>2021-04-07T10:20:49Z</time>
      </trkpt>
      <trkpt lat="44.51156" lon="6.5955">
        <ele>1761</ele>
        <time>2021-04-07T10:20:50Z</time>
      </trkpt>
      <trkpt lat="44.51156" lon="6.5955">
        <ele>1761</ele>
        <time>2021-04-07T10:20:51Z</time>
      </trkpt>
      <trkpt lat="44.51156" lon="6.5955">
        <ele>1761</ele>
        <time>2021-04-07T10:20:52Z</time>
      </trkpt>
      <trkpt lat="44.51156" lon="6.5955">
        <ele>1761</ele>
        <time>2021-04-07T10:20:53Z</time>
      </trkpt>
      <trkpt lat="44.51156" lon="6.5955">
        <ele>1761</ele>
        <time>2021-04-07T10:20:54Z</time>
      </trkpt>
      <trkpt lat="44.51156" lon="6.5955">
        <ele>1761</ele>
        <time>2021-04-07T10:20:55Z</time>
      </trkpt>
      <trkpt lat="44.51156" lon="6.5955">
        <ele>1761</ele>
        <time>2021-04-07T10:20:56Z</time>
      </trkpt>
      <trkpt lat="44.51156" lon="6.5955">
        <ele>1761</ele>
        <time>2021-04-07T10:20:57Z</time>
      </trkpt>
      <trkpt lat="44.51156" lon="6.5955">
        <ele>1761</ele>
        <time>2021-04-07T10:20:58Z</time>
      </trkpt>
      <trkpt lat="44.51156" lon="6.5955">
        <ele>1761</ele>
        <time>2021-04-07T10:20:59Z</time>
      </trkpt>
      <trkpt lat="44.51156" lon="6.5955">
        <ele>1761</ele>
        <time>2021-04-07T10:21:00Z</time>
      </trkpt>
      <trkpt lat="44.51156" lon="6.5955">
        <ele>1761</ele>
        <time>2021-04-07T10:21:01Z</time>
      </trkpt>
      <trkpt lat="44.51156" lon="6.5955">
        <ele>1761</ele>
        <time>2021-04-07T10:21:02Z</time>
      </trkpt>
      <trkpt lat="44.51156" lon="6.5955">
        <ele>1761</ele>
        <time>2021-04-07T10:21:03Z</time>
      </trkpt>
      <trkpt lat="44.51156" lon="6.5955">
        <ele>1761</ele>
        <time>2021-04-07T10:21:04Z</time>
      </trkpt>
      <trkpt lat="44.51156" lon="6.5955">
        <ele>1761</ele>
        <time>2021-04-07T10:21:05Z</time>
      </trkpt>
      <trkpt lat="44.51156" lon="6.5955">
        <ele>1761</ele>
        <time>2021-04-07T10:21:06Z</time>
      </trkpt>
      <trkpt lat="44.51156" lon="6.5955">
        <ele>1761</ele>
        <time>2021-04-07T10:21:07Z</time>
      </trkpt>
      <trkpt lat="44.51156" lon="6.5955">
        <ele>1761</ele>
        <time>2021-04-07T10:21:08Z</time>
      </trkpt>
      <trkpt lat="44.51156" lon="6.5955">
        <ele>1761</ele>
        <time>2021-04-07T10:21:09Z</time>
      </trkpt>
      <trkpt lat="44.51156" lon="6.5955">
        <ele>1761</ele>
        <time>2021-04-07T10:21:10Z</time>
      </trkpt>
      <trkpt lat="44.51156" lon="6.5955">
        <ele>1761</ele>
        <time>2021-04-07T10:21:11Z</time>
      </trkpt>
      <trkpt lat="44.51156" lon="6.5955">
        <ele>1761</ele>
        <time>2021-04-07T10:21:12Z</time>
      </trkpt>
      <trkpt lat="44.51153" lon="6.59537">
        <ele>1760</ele>
        <time>2021-04-07T10:21:13Z</time>
      </trkpt>
      <trkpt lat="44.51152" lon="6.59536">
        <ele>1759</ele>
        <time>2021-04-07T10:21:14Z</time>
      </trkpt>
      <trkpt lat="44.51151" lon="6.59535">
        <ele>1759</ele>
        <time>2021-04-07T10:21:15Z</time>
      </trkpt>
      <trkpt lat="44.5115" lon="6.59534">
        <ele>1759</ele>
        <time>2021-04-07T10:21:16Z</time>
      </trkpt>
      <trkpt lat="44.5115" lon="6.59534">
        <ele>1759</ele>
        <time>2021-04-07T10:21:17Z</time>
      </trkpt>
      <trkpt lat="44.5115" lon="6.59534">
        <ele>1759</ele>
        <time>2021-04-07T10:21:18Z</time>
      </trkpt>
      <trkpt lat="44.51148" lon="6.5953">
        <ele>1758</ele>
        <time>2021-04-07T10:21:19Z</time>
      </trkpt>
      <trkpt lat="44.51147" lon="6.59528">
        <ele>1758</ele>
        <time>2021-04-07T10:21:20Z</time>
      </trkpt>
      <trkpt lat="44.51145" lon="6.59527">
        <ele>1758</ele>
        <time>2021-04-07T10:21:21Z</time>
      </trkpt>
      <trkpt lat="44.51145" lon="6.59526">
        <ele>1757</ele>
        <time>2021-04-07T10:21:22Z</time>
      </trkpt>
      <trkpt lat="44.51145" lon="6.59525">
        <ele>1757</ele>
        <time>2021-04-07T10:21:23Z</time>
      </trkpt>
      <trkpt lat="44.51145" lon="6.59525">
        <ele>1757</ele>
        <time>2021-04-07T10:21:24Z</time>
      </trkpt>
      <trkpt lat="44.51145" lon="6.59525">
        <ele>1757</ele>
        <time>2021-04-07T10:21:25Z</time>
      </trkpt>
      <trkpt lat="44.51145" lon="6.59525">
        <ele>1757</ele>
        <time>2021-04-07T10:21:26Z</time>
      </trkpt>
      <trkpt lat="44.51142" lon="6.59521">
        <ele>1757</ele>
        <time>2021-04-07T10:21:27Z</time>
      </trkpt>
      <trkpt lat="44.51142" lon="6.59519">
        <ele>1757</ele>
        <time>2021-04-07T10:21:28Z</time>
      </trkpt>
      <trkpt lat="44.51142" lon="6.59518">
        <ele>1757</ele>
        <time>2021-04-07T10:21:29Z</time>
      </trkpt>
      <trkpt lat="44.51141" lon="6.59517">
        <ele>1756</ele>
        <time>2021-04-07T10:21:30Z</time>
      </trkpt>
      <trkpt lat="44.51141" lon="6.59517">
        <ele>1756</ele>
        <time>2021-04-07T10:21:31Z</time>
      </trkpt>
      <trkpt lat="44.51141" lon="6.59517">
        <ele>1756</ele>
        <time>2021-04-07T10:21:32Z</time>
      </trkpt>
      <trkpt lat="44.51141" lon="6.59517">
        <ele>1756</ele>
        <time>2021-04-07T10:21:33Z</time>
      </trkpt>
      <trkpt lat="44.51141" lon="6.59517">
        <ele>1756</ele>
        <time>2021-04-07T10:21:34Z</time>
      </trkpt>
      <trkpt lat="44.51141" lon="6.59517">
        <ele>1756</ele>
        <time>2021-04-07T10:21:35Z</time>
      </trkpt>
      <trkpt lat="44.51141" lon="6.59517">
        <ele>1756</ele>
        <time>2021-04-07T10:21:36Z</time>
      </trkpt>
      <trkpt lat="44.51141" lon="6.59517">
        <ele>1756</ele>
        <time>2021-04-07T10:21:37Z</time>
      </trkpt>
      <trkpt lat="44.51141" lon="6.59517">
        <ele>1756</ele>
        <time>2021-04-07T10:21:38Z</time>
      </trkpt>
      <trkpt lat="44.51141" lon="6.59517">
        <ele>1756</ele>
        <time>2021-04-07T10:21:39Z</time>
      </trkpt>
      <trkpt lat="44.51141" lon="6.59517">
        <ele>1756</ele>
        <time>2021-04-07T10:21:40Z</time>
      </trkpt>
      <trkpt lat="44.51137" lon="6.59512">
        <ele>1755</ele>
        <time>2021-04-07T10:21:41Z</time>
      </trkpt>
      <trkpt lat="44.51136" lon="6.5951">
        <ele>1755</ele>
        <time>2021-04-07T10:21:42Z</time>
      </trkpt>
      <trkpt lat="44.51136" lon="6.59509">
        <ele>1755</ele>
        <time>2021-04-07T10:21:43Z</time>
      </trkpt>
      <trkpt lat="44.51135" lon="6.59508">
        <ele>1755</ele>
        <time>2021-04-07T10:21:44Z</time>
      </trkpt>
      <trkpt lat="44.51134" lon="6.59506">
        <ele>1754</ele>
        <time>2021-04-07T10:21:45Z</time>
      </trkpt>
      <trkpt lat="44.51133" lon="6.59504">
        <ele>1754</ele>
        <time>2021-04-07T10:21:46Z</time>
      </trkpt>
      <trkpt lat="44.51132" lon="6.59503">
        <ele>1754</ele>
        <time>2021-04-07T10:21:47Z</time>
      </trkpt>
      <trkpt lat="44.51131" lon="6.59502">
        <ele>1754</ele>
        <time>2021-04-07T10:21:48Z</time>
      </trkpt>
      <trkpt lat="44.5113" lon="6.595">
        <ele>1753</ele>
        <time>2021-04-07T10:21:49Z</time>
      </trkpt>
      <trkpt lat="44.51129" lon="6.59499">
        <ele>1753</ele>
        <time>2021-04-07T10:21:50Z</time>
      </trkpt>
      <trkpt lat="44.51128" lon="6.59499">
        <ele>1753</ele>
        <time>2021-04-07T10:21:51Z</time>
      </trkpt>
      <trkpt lat="44.51127" lon="6.59498">
        <ele>1753</ele>
        <time>2021-04-07T10:21:52Z</time>
      </trkpt>
      <trkpt lat="44.51126" lon="6.59498">
        <ele>1752</ele>
        <time>2021-04-07T10:21:53Z</time>
      </trkpt>
      <trkpt lat="44.51126" lon="6.59498">
        <ele>1752</ele>
        <time>2021-04-07T10:21:54Z</time>
      </trkpt>
      <trkpt lat="44.51126" lon="6.59498">
        <ele>1752</ele>
        <time>2021-04-07T10:21:55Z</time>
      </trkpt>
      <trkpt lat="44.51124" lon="6.59496">
        <ele>1752</ele>
        <time>2021-04-07T10:21:56Z</time>
      </trkpt>
      <trkpt lat="44.51124" lon="6.59495">
        <ele>1752</ele>
        <time>2021-04-07T10:21:57Z</time>
      </trkpt>
      <trkpt lat="44.51123" lon="6.59495">
        <ele>1752</ele>
        <time>2021-04-07T10:21:58Z</time>
      </trkpt>
      <trkpt lat="44.51122" lon="6.59494">
        <ele>1751</ele>
        <time>2021-04-07T10:21:59Z</time>
      </trkpt>
      <trkpt lat="44.51121" lon="6.59494">
        <ele>1751</ele>
        <time>2021-04-07T10:22:00Z</time>
      </trkpt>
      <trkpt lat="44.51121" lon="6.59494">
        <ele>1751</ele>
        <time>2021-04-07T10:22:01Z</time>
      </trkpt>
      <trkpt lat="44.51121" lon="6.59494">
        <ele>1751</ele>
        <time>2021-04-07T10:22:02Z</time>
      </trkpt>
      <trkpt lat="44.51121" lon="6.59494">
        <ele>1751</ele>
        <time>2021-04-07T10:22:03Z</time>
      </trkpt>
      <trkpt lat="44.51118" lon="6.59491">
        <ele>1751</ele>
        <time>2021-04-07T10:22:04Z</time>
      </trkpt>
      <trkpt lat="44.51117" lon="6.5949">
        <ele>1750</ele>
        <time>2021-04-07T10:22:05Z</time>
      </trkpt>
      <trkpt lat="44.51116" lon="6.59489">
        <ele>1750</ele>
        <time>2021-04-07T10:22:06Z</time>
      </trkpt>
      <trkpt lat="44.51115" lon="6.59489">
        <ele>1750</ele>
        <time>2021-04-07T10:22:07Z</time>
      </trkpt>
      <trkpt lat="44.51114" lon="6.59488">
        <ele>1750</ele>
        <time>2021-04-07T10:22:08Z</time>
      </trkpt>
      <trkpt lat="44.51113" lon="6.59487">
        <ele>1749</ele>
        <time>2021-04-07T10:22:09Z</time>
      </trkpt>
      <trkpt lat="44.51111" lon="6.59484">
        <ele>1749</ele>
        <time>2021-04-07T10:22:10Z</time>
      </trkpt>
      <trkpt lat="44.5111" lon="6.59483">
        <ele>1749</ele>
        <time>2021-04-07T10:22:11Z</time>
      </trkpt>
      <trkpt lat="44.51108" lon="6.59482">
        <ele>1749</ele>
        <time>2021-04-07T10:22:12Z</time>
      </trkpt>
      <trkpt lat="44.51106" lon="6.5948">
        <ele>1749</ele>
        <time>2021-04-07T10:22:13Z</time>
      </trkpt>
      <trkpt lat="44.51106" lon="6.59479">
        <ele>1749</ele>
        <time>2021-04-07T10:22:14Z</time>
      </trkpt>
      <trkpt lat="44.51105" lon="6.59477">
        <ele>1748</ele>
        <time>2021-04-07T10:22:15Z</time>
      </trkpt>
      <trkpt lat="44.51104" lon="6.59476">
        <ele>1748</ele>
        <time>2021-04-07T10:22:16Z</time>
      </trkpt>
      <trkpt lat="44.51103" lon="6.59474">
        <ele>1748</ele>
        <time>2021-04-07T10:22:17Z</time>
      </trkpt>
      <trkpt lat="44.51102" lon="6.59472">
        <ele>1749</ele>
        <time>2021-04-07T10:22:18Z</time>
      </trkpt>
      <trkpt lat="44.511" lon="6.59471">
        <ele>1748</ele>
        <time>2021-04-07T10:22:19Z</time>
      </trkpt>
      <trkpt lat="44.51099" lon="6.59469">
        <ele>1748</ele>
        <time>2021-04-07T10:22:20Z</time>
      </trkpt>
      <trkpt lat="44.51099" lon="6.59469">
        <ele>1748</ele>
        <time>2021-04-07T10:22:21Z</time>
      </trkpt>
      <trkpt lat="44.51099" lon="6.59468">
        <ele>1747</ele>
        <time>2021-04-07T10:22:22Z</time>
      </trkpt>
      <trkpt lat="44.51099" lon="6.59468">
        <ele>1747</ele>
        <time>2021-04-07T10:22:23Z</time>
      </trkpt>
      <trkpt lat="44.51099" lon="6.59468">
        <ele>1747</ele>
        <time>2021-04-07T10:22:24Z</time>
      </trkpt>
      <trkpt lat="44.51099" lon="6.59468">
        <ele>1747</ele>
        <time>2021-04-07T10:22:25Z</time>
      </trkpt>
      <trkpt lat="44.51099" lon="6.59468">
        <ele>1747</ele>
        <time>2021-04-07T10:22:26Z</time>
      </trkpt>
      <trkpt lat="44.51099" lon="6.59468">
        <ele>1747</ele>
        <time>2021-04-07T10:22:27Z</time>
      </trkpt>
      <trkpt lat="44.51099" lon="6.59468">
        <ele>1747</ele>
        <time>2021-04-07T10:22:28Z</time>
      </trkpt>
      <trkpt lat="44.51099" lon="6.59468">
        <ele>1747</ele>
        <time>2021-04-07T10:22:29Z</time>
      </trkpt>
      <trkpt lat="44.51099" lon="6.59468">
        <ele>1747</ele>
        <time>2021-04-07T10:22:30Z</time>
      </trkpt>
      <trkpt lat="44.51099" lon="6.59468">
        <ele>1747</ele>
        <time>2021-04-07T10:22:31Z</time>
      </trkpt>
      <trkpt lat="44.51102" lon="6.59455">
        <ele>1755</ele>
        <time>2021-04-07T10:22:32Z</time>
      </trkpt>
      <trkpt lat="44.51102" lon="6.59454">
        <ele>1757</ele>
        <time>2021-04-07T10:22:33Z</time>
      </trkpt>
      <trkpt lat="44.51102" lon="6.59454">
        <ele>1758</ele>
        <time>2021-04-07T10:22:34Z</time>
      </trkpt>
      <trkpt lat="44.51102" lon="6.59455">
        <ele>1759</ele>
        <time>2021-04-07T10:22:35Z</time>
      </trkpt>
      <trkpt lat="44.51102" lon="6.59455">
        <ele>1759</ele>
        <time>2021-04-07T10:22:36Z</time>
      </trkpt>
      <trkpt lat="44.51102" lon="6.59455">
        <ele>1760</ele>
        <time>2021-04-07T10:22:37Z</time>
      </trkpt>
      <trkpt lat="44.51102" lon="6.59455">
        <ele>1760</ele>
        <time>2021-04-07T10:22:38Z</time>
      </trkpt>
      <trkpt lat="44.51102" lon="6.59455">
        <ele>1760</ele>
        <time>2021-04-07T10:22:39Z</time>
      </trkpt>
      <trkpt lat="44.51102" lon="6.59455">
        <ele>1760</ele>
        <time>2021-04-07T10:22:40Z</time>
      </trkpt>
      <trkpt lat="44.51102" lon="6.59455">
        <ele>1760</ele>
        <time>2021-04-07T10:22:41Z</time>
      </trkpt>
      <trkpt lat="44.51102" lon="6.59455">
        <ele>1761</ele>
        <time>2021-04-07T10:22:42Z</time>
      </trkpt>
      <trkpt lat="44.51102" lon="6.59455">
        <ele>1761</ele>
        <time>2021-04-07T10:22:43Z</time>
      </trkpt>
      <trkpt lat="44.51102" lon="6.59455">
        <ele>1761</ele>
        <time>2021-04-07T10:22:44Z</time>
      </trkpt>
      <trkpt lat="44.51102" lon="6.59455">
        <ele>1761</ele>
        <time>2021-04-07T10:22:45Z</time>
      </trkpt>
      <trkpt lat="44.51102" lon="6.59455">
        <ele>1761</ele>
        <time>2021-04-07T10:22:46Z</time>
      </trkpt>
      <trkpt lat="44.51102" lon="6.59455">
        <ele>1761</ele>
        <time>2021-04-07T10:22:47Z</time>
      </trkpt>
      <trkpt lat="44.51102" lon="6.59455">
        <ele>1761</ele>
        <time>2021-04-07T10:22:48Z</time>
      </trkpt>
      <trkpt lat="44.51102" lon="6.59455">
        <ele>1761</ele>
        <time>2021-04-07T10:22:49Z</time>
      </trkpt>
      <trkpt lat="44.51102" lon="6.59455">
        <ele>1761</ele>
        <time>2021-04-07T10:22:50Z</time>
      </trkpt>
      <trkpt lat="44.51102" lon="6.59455">
        <ele>1761</ele>
        <time>2021-04-07T10:22:51Z</time>
      </trkpt>
      <trkpt lat="44.51102" lon="6.59455">
        <ele>1761</ele>
        <time>2021-04-07T10:22:52Z</time>
      </trkpt>
      <trkpt lat="44.51102" lon="6.59455">
        <ele>1761</ele>
        <time>2021-04-07T10:22:53Z</time>
      </trkpt>
      <trkpt lat="44.51102" lon="6.59455">
        <ele>1761</ele>
        <time>2021-04-07T10:22:54Z</time>
      </trkpt>
      <trkpt lat="44.51102" lon="6.59455">
        <ele>1761</ele>
        <time>2021-04-07T10:22:55Z</time>
      </trkpt>
      <trkpt lat="44.51102" lon="6.59455">
        <ele>1761</ele>
        <time>2021-04-07T10:22:56Z</time>
      </trkpt>
      <trkpt lat="44.51102" lon="6.59455">
        <ele>1761</ele>
        <time>2021-04-07T10:22:57Z</time>
      </trkpt>
      <trkpt lat="44.51102" lon="6.59455">
        <ele>1761</ele>
        <time>2021-04-07T10:22:58Z</time>
      </trkpt>
      <trkpt lat="44.51102" lon="6.59455">
        <ele>1761</ele>
        <time>2021-04-07T10:22:59Z</time>
      </trkpt>
      <trkpt lat="44.51102" lon="6.59455">
        <ele>1761</ele>
        <time>2021-04-07T10:23:00Z</time>
      </trkpt>
      <trkpt lat="44.51102" lon="6.59455">
        <ele>1761</ele>
        <time>2021-04-07T10:23:01Z</time>
      </trkpt>
      <trkpt lat="44.51102" lon="6.59455">
        <ele>1761</ele>
        <time>2021-04-07T10:23:02Z</time>
      </trkpt>
      <trkpt lat="44.51102" lon="6.59455">
        <ele>1761</ele>
        <time>2021-04-07T10:23:03Z</time>
      </trkpt>
      <trkpt lat="44.51102" lon="6.59455">
        <ele>1761</ele>
        <time>2021-04-07T10:23:04Z</time>
      </trkpt>
      <trkpt lat="44.51102" lon="6.59455">
        <ele>1761</ele>
        <time>2021-04-07T10:23:05Z</time>
      </trkpt>
      <trkpt lat="44.51102" lon="6.59455">
        <ele>1761</ele>
        <time>2021-04-07T10:23:06Z</time>
      </trkpt>
      <trkpt lat="44.51102" lon="6.59455">
        <ele>1761</ele>
        <time>2021-04-07T10:23:07Z</time>
      </trkpt>
      <trkpt lat="44.51102" lon="6.59455">
        <ele>1761</ele>
        <time>2021-04-07T10:23:08Z</time>
      </trkpt>
      <trkpt lat="44.51102" lon="6.59455">
        <ele>1761</ele>
        <time>2021-04-07T10:23:09Z</time>
      </trkpt>
      <trkpt lat="44.51102" lon="6.59455">
        <ele>1761</ele>
        <time>2021-04-07T10:23:10Z</time>
      </trkpt>
      <trkpt lat="44.51102" lon="6.59455">
        <ele>1761</ele>
        <time>2021-04-07T10:23:11Z</time>
      </trkpt>
      <trkpt lat="44.51102" lon="6.59455">
        <ele>1761</ele>
        <time>2021-04-07T10:23:12Z</time>
      </trkpt>
      <trkpt lat="44.51102" lon="6.59455">
        <ele>1761</ele>
        <time>2021-04-07T10:23:13Z</time>
      </trkpt>
      <trkpt lat="44.51102" lon="6.59455">
        <ele>1761</ele>
        <time>2021-04-07T10:23:14Z</time>
      </trkpt>
      <trkpt lat="44.51102" lon="6.59455">
        <ele>1761</ele>
        <time>2021-04-07T10:23:15Z</time>
      </trkpt>
      <trkpt lat="44.51102" lon="6.59455">
        <ele>1761</ele>
        <time>2021-04-07T10:23:16Z</time>
      </trkpt>
      <trkpt lat="44.51102" lon="6.59455">
        <ele>1761</ele>
        <time>2021-04-07T10:23:17Z</time>
      </trkpt>
      <trkpt lat="44.51102" lon="6.59455">
        <ele>1761</ele>
        <time>2021-04-07T10:23:18Z</time>
      </trkpt>
      <trkpt lat="44.51102" lon="6.59455">
        <ele>1761</ele>
        <time>2021-04-07T10:23:19Z</time>
      </trkpt>
      <trkpt lat="44.51102" lon="6.59455">
        <ele>1761</ele>
        <time>2021-04-07T10:23:20Z</time>
      </trkpt>
      <trkpt lat="44.51102" lon="6.59455">
        <ele>1761</ele>
        <time>2021-04-07T10:23:21Z</time>
      </trkpt>
      <trkpt lat="44.51102" lon="6.59455">
        <ele>1761</ele>
        <time>2021-04-07T10:23:22Z</time>
      </trkpt>
      <trkpt lat="44.51102" lon="6.59455">
        <ele>1761</ele>
        <time>2021-04-07T10:23:23Z</time>
      </trkpt>
      <trkpt lat="44.51102" lon="6.59455">
        <ele>1761</ele>
        <time>2021-04-07T10:23:24Z</time>
      </trkpt>
      <trkpt lat="44.51102" lon="6.59455">
        <ele>1761</ele>
        <time>2021-04-07T10:23:25Z</time>
      </trkpt>
      <trkpt lat="44.51102" lon="6.59455">
        <ele>1761</ele>
        <time>2021-04-07T10:23:26Z</time>
      </trkpt>
      <trkpt lat="44.51102" lon="6.59455">
        <ele>1761</ele>
        <time>2021-04-07T10:23:27Z</time>
      </trkpt>
      <trkpt lat="44.51102" lon="6.59455">
        <ele>1761</ele>
        <time>2021-04-07T10:23:28Z</time>
      </trkpt>
      <trkpt lat="44.51102" lon="6.59455">
        <ele>1761</ele>
        <time>2021-04-07T10:23:29Z</time>
      </trkpt>
      <trkpt lat="44.51102" lon="6.59455">
        <ele>1761</ele>
        <time>2021-04-07T10:23:30Z</time>
      </trkpt>
      <trkpt lat="44.51102" lon="6.59455">
        <ele>1761</ele>
        <time>2021-04-07T10:23:31Z</time>
      </trkpt>
      <trkpt lat="44.51102" lon="6.59455">
        <ele>1761</ele>
        <time>2021-04-07T10:23:32Z</time>
      </trkpt>
      <trkpt lat="44.51102" lon="6.59455">
        <ele>1761</ele>
        <time>2021-04-07T10:23:33Z</time>
      </trkpt>
      <trkpt lat="44.51102" lon="6.59455">
        <ele>1761</ele>
        <time>2021-04-07T10:23:34Z</time>
      </trkpt>
      <trkpt lat="44.51102" lon="6.59455">
        <ele>1761</ele>
        <time>2021-04-07T10:23:35Z</time>
      </trkpt>
      <trkpt lat="44.51102" lon="6.59455">
        <ele>1761</ele>
        <time>2021-04-07T10:23:36Z</time>
      </trkpt>
      <trkpt lat="44.51102" lon="6.59455">
        <ele>1761</ele>
        <time>2021-04-07T10:23:37Z</time>
      </trkpt>
      <trkpt lat="44.51102" lon="6.59455">
        <ele>1761</ele>
        <time>2021-04-07T10:23:38Z</time>
      </trkpt>
      <trkpt lat="44.51101" lon="6.59456">
        <ele>1761</ele>
        <time>2021-04-07T10:23:39Z</time>
      </trkpt>
      <trkpt lat="44.51102" lon="6.59453">
        <ele>1761</ele>
        <time>2021-04-07T10:23:40Z</time>
      </trkpt>
      <trkpt lat="44.51103" lon="6.59451">
        <ele>1761</ele>
        <time>2021-04-07T10:23:41Z</time>
      </trkpt>
      <trkpt lat="44.51103" lon="6.59449">
        <ele>1760</ele>
        <time>2021-04-07T10:23:42Z</time>
      </trkpt>
      <trkpt lat="44.51104" lon="6.59447">
        <ele>1759</ele>
        <time>2021-04-07T10:23:43Z</time>
      </trkpt>
      <trkpt lat="44.51104" lon="6.59446">
        <ele>1758</ele>
        <time>2021-04-07T10:23:44Z</time>
      </trkpt>
      <trkpt lat="44.51105" lon="6.59446">
        <ele>1758</ele>
        <time>2021-04-07T10:23:45Z</time>
      </trkpt>
      <trkpt lat="44.51105" lon="6.59446">
        <ele>1758</ele>
        <time>2021-04-07T10:23:46Z</time>
      </trkpt>
      <trkpt lat="44.51105" lon="6.59446">
        <ele>1757</ele>
        <time>2021-04-07T10:23:47Z</time>
      </trkpt>
      <trkpt lat="44.51105" lon="6.59446">
        <ele>1757</ele>
        <time>2021-04-07T10:23:48Z</time>
      </trkpt>
      <trkpt lat="44.51105" lon="6.59446">
        <ele>1757</ele>
        <time>2021-04-07T10:23:49Z</time>
      </trkpt>
      <trkpt lat="44.51105" lon="6.59446">
        <ele>1757</ele>
        <time>2021-04-07T10:23:50Z</time>
      </trkpt>
      <trkpt lat="44.51105" lon="6.59446">
        <ele>1757</ele>
        <time>2021-04-07T10:23:51Z</time>
      </trkpt>
      <trkpt lat="44.51105" lon="6.59446">
        <ele>1757</ele>
        <time>2021-04-07T10:23:52Z</time>
      </trkpt>
      <trkpt lat="44.51105" lon="6.59446">
        <ele>1757</ele>
        <time>2021-04-07T10:23:53Z</time>
      </trkpt>
      <trkpt lat="44.51105" lon="6.59446">
        <ele>1757</ele>
        <time>2021-04-07T10:23:54Z</time>
      </trkpt>
      <trkpt lat="44.51105" lon="6.59446">
        <ele>1757</ele>
        <time>2021-04-07T10:23:55Z</time>
      </trkpt>
      <trkpt lat="44.51106" lon="6.59441">
        <ele>1756</ele>
        <time>2021-04-07T10:23:56Z</time>
      </trkpt>
      <trkpt lat="44.51106" lon="6.59439">
        <ele>1756</ele>
        <time>2021-04-07T10:23:57Z</time>
      </trkpt>
      <trkpt lat="44.51107" lon="6.59439">
        <ele>1756</ele>
        <time>2021-04-07T10:23:58Z</time>
      </trkpt>
      <trkpt lat="44.51108" lon="6.59439">
        <ele>1755</ele>
        <time>2021-04-07T10:23:59Z</time>
      </trkpt>
      <trkpt lat="44.51108" lon="6.59439">
        <ele>1755</ele>
        <time>2021-04-07T10:24:00Z</time>
      </trkpt>
      <trkpt lat="44.5111" lon="6.59434">
        <ele>1754</ele>
        <time>2021-04-07T10:24:01Z</time>
      </trkpt>
      <trkpt lat="44.51112" lon="6.59431">
        <ele>1754</ele>
        <time>2021-04-07T10:24:02Z</time>
      </trkpt>
      <trkpt lat="44.51114" lon="6.59427">
        <ele>1752</ele>
        <time>2021-04-07T10:24:03Z</time>
      </trkpt>
      <trkpt lat="44.51115" lon="6.59423">
        <ele>1751</ele>
        <time>2021-04-07T10:24:04Z</time>
      </trkpt>
      <trkpt lat="44.51116" lon="6.5942">
        <ele>1750</ele>
        <time>2021-04-07T10:24:05Z</time>
      </trkpt>
      <trkpt lat="44.51117" lon="6.59417">
        <ele>1748</ele>
        <time>2021-04-07T10:24:06Z</time>
      </trkpt>
      <trkpt lat="44.51117" lon="6.59413">
        <ele>1746</ele>
        <time>2021-04-07T10:24:07Z</time>
      </trkpt>
      <trkpt lat="44.51118" lon="6.5941">
        <ele>1745</ele>
        <time>2021-04-07T10:24:08Z</time>
      </trkpt>
      <trkpt lat="44.51119" lon="6.59406">
        <ele>1742</ele>
        <time>2021-04-07T10:24:09Z</time>
      </trkpt>
      <trkpt lat="44.5112" lon="6.59403">
        <ele>1740</ele>
        <time>2021-04-07T10:24:10Z</time>
      </trkpt>
      <trkpt lat="44.5112" lon="6.594">
        <ele>1737</ele>
        <time>2021-04-07T10:24:11Z</time>
      </trkpt>
      <trkpt lat="44.51119" lon="6.59397">
        <ele>1736</ele>
        <time>2021-04-07T10:24:12Z</time>
      </trkpt>
      <trkpt lat="44.51119" lon="6.59396">
        <ele>1735</ele>
        <time>2021-04-07T10:24:13Z</time>
      </trkpt>
      <trkpt lat="44.51119" lon="6.59395">
        <ele>1734</ele>
        <time>2021-04-07T10:24:14Z</time>
      </trkpt>
      <trkpt lat="44.51119" lon="6.59395">
        <ele>1733</ele>
        <time>2021-04-07T10:24:15Z</time>
      </trkpt>
      <trkpt lat="44.51119" lon="6.59387">
        <ele>1731</ele>
        <time>2021-04-07T10:24:16Z</time>
      </trkpt>
      <trkpt lat="44.51119" lon="6.59381">
        <ele>1730</ele>
        <time>2021-04-07T10:24:17Z</time>
      </trkpt>
      <trkpt lat="44.5112" lon="6.59376">
        <ele>1729</ele>
        <time>2021-04-07T10:24:18Z</time>
      </trkpt>
      <trkpt lat="44.51121" lon="6.5937">
        <ele>1727</ele>
        <time>2021-04-07T10:24:19Z</time>
      </trkpt>
      <trkpt lat="44.51122" lon="6.59364">
        <ele>1726</ele>
        <time>2021-04-07T10:24:20Z</time>
      </trkpt>
      <trkpt lat="44.51123" lon="6.59358">
        <ele>1724</ele>
        <time>2021-04-07T10:24:21Z</time>
      </trkpt>
      <trkpt lat="44.51125" lon="6.59353">
        <ele>1724</ele>
        <time>2021-04-07T10:24:22Z</time>
      </trkpt>
      <trkpt lat="44.51126" lon="6.59348">
        <ele>1722</ele>
        <time>2021-04-07T10:24:23Z</time>
      </trkpt>
      <trkpt lat="44.51127" lon="6.59344">
        <ele>1721</ele>
        <time>2021-04-07T10:24:24Z</time>
      </trkpt>
      <trkpt lat="44.51129" lon="6.59341">
        <ele>1720</ele>
        <time>2021-04-07T10:24:25Z</time>
      </trkpt>
      <trkpt lat="44.51131" lon="6.59339">
        <ele>1719</ele>
        <time>2021-04-07T10:24:26Z</time>
      </trkpt>
      <trkpt lat="44.51132" lon="6.59337">
        <ele>1718</ele>
        <time>2021-04-07T10:24:27Z</time>
      </trkpt>
      <trkpt lat="44.51134" lon="6.59334">
        <ele>1717</ele>
        <time>2021-04-07T10:24:28Z</time>
      </trkpt>
      <trkpt lat="44.51137" lon="6.59333">
        <ele>1716</ele>
        <time>2021-04-07T10:24:29Z</time>
      </trkpt>
      <trkpt lat="44.5114" lon="6.59331">
        <ele>1714</ele>
        <time>2021-04-07T10:24:30Z</time>
      </trkpt>
      <trkpt lat="44.51142" lon="6.59328">
        <ele>1714</ele>
        <time>2021-04-07T10:24:31Z</time>
      </trkpt>
      <trkpt lat="44.51145" lon="6.59327">
        <ele>1712</ele>
        <time>2021-04-07T10:24:32Z</time>
      </trkpt>
      <trkpt lat="44.51147" lon="6.59325">
        <ele>1711</ele>
        <time>2021-04-07T10:24:33Z</time>
      </trkpt>
      <trkpt lat="44.51149" lon="6.59322">
        <ele>1710</ele>
        <time>2021-04-07T10:24:34Z</time>
      </trkpt>
      <trkpt lat="44.51151" lon="6.59318">
        <ele>1709</ele>
        <time>2021-04-07T10:24:35Z</time>
      </trkpt>
      <trkpt lat="44.51151" lon="6.59314">
        <ele>1708</ele>
        <time>2021-04-07T10:24:36Z</time>
      </trkpt>
      <trkpt lat="44.51153" lon="6.5931">
        <ele>1707</ele>
        <time>2021-04-07T10:24:37Z</time>
      </trkpt>
      <trkpt lat="44.51155" lon="6.59307">
        <ele>1705</ele>
        <time>2021-04-07T10:24:38Z</time>
      </trkpt>
      <trkpt lat="44.51156" lon="6.59306">
        <ele>1704</ele>
        <time>2021-04-07T10:24:39Z</time>
      </trkpt>
      <trkpt lat="44.51157" lon="6.59305">
        <ele>1704</ele>
        <time>2021-04-07T10:24:40Z</time>
      </trkpt>
      <trkpt lat="44.51157" lon="6.59305">
        <ele>1705</ele>
        <time>2021-04-07T10:24:41Z</time>
      </trkpt>
      <trkpt lat="44.51157" lon="6.59305">
        <ele>1705</ele>
        <time>2021-04-07T10:24:42Z</time>
      </trkpt>
      <trkpt lat="44.51157" lon="6.59305">
        <ele>1705</ele>
        <time>2021-04-07T10:24:43Z</time>
      </trkpt>
      <trkpt lat="44.51157" lon="6.59305">
        <ele>1705</ele>
        <time>2021-04-07T10:24:44Z</time>
      </trkpt>
      <trkpt lat="44.5116" lon="6.59296">
        <ele>1705</ele>
        <time>2021-04-07T10:24:45Z</time>
      </trkpt>
      <trkpt lat="44.51163" lon="6.59292">
        <ele>1705</ele>
        <time>2021-04-07T10:24:46Z</time>
      </trkpt>
      <trkpt lat="44.51165" lon="6.59288">
        <ele>1705</ele>
        <time>2021-04-07T10:24:47Z</time>
      </trkpt>
      <trkpt lat="44.51166" lon="6.59284">
        <ele>1705</ele>
        <time>2021-04-07T10:24:48Z</time>
      </trkpt>
      <trkpt lat="44.51168" lon="6.5928">
        <ele>1704</ele>
        <time>2021-04-07T10:24:49Z</time>
      </trkpt>
      <trkpt lat="44.51169" lon="6.59277">
        <ele>1704</ele>
        <time>2021-04-07T10:24:50Z</time>
      </trkpt>
      <trkpt lat="44.5117" lon="6.59275">
        <ele>1704</ele>
        <time>2021-04-07T10:24:51Z</time>
      </trkpt>
      <trkpt lat="44.51171" lon="6.59273">
        <ele>1703</ele>
        <time>2021-04-07T10:24:52Z</time>
      </trkpt>
      <trkpt lat="44.51172" lon="6.59273">
        <ele>1703</ele>
        <time>2021-04-07T10:24:53Z</time>
      </trkpt>
      <trkpt lat="44.51172" lon="6.59273">
        <ele>1703</ele>
        <time>2021-04-07T10:24:54Z</time>
      </trkpt>
      <trkpt lat="44.51172" lon="6.59273">
        <ele>1703</ele>
        <time>2021-04-07T10:24:55Z</time>
      </trkpt>
      <trkpt lat="44.51172" lon="6.59273">
        <ele>1702</ele>
        <time>2021-04-07T10:24:56Z</time>
      </trkpt>
      <trkpt lat="44.51172" lon="6.59273">
        <ele>1702</ele>
        <time>2021-04-07T10:24:57Z</time>
      </trkpt>
      <trkpt lat="44.51172" lon="6.59273">
        <ele>1702</ele>
        <time>2021-04-07T10:24:58Z</time>
      </trkpt>
      <trkpt lat="44.51172" lon="6.59273">
        <ele>1702</ele>
        <time>2021-04-07T10:24:59Z</time>
      </trkpt>
      <trkpt lat="44.51172" lon="6.59273">
        <ele>1702</ele>
        <time>2021-04-07T10:25:00Z</time>
      </trkpt>
      <trkpt lat="44.51172" lon="6.59273">
        <ele>1702</ele>
        <time>2021-04-07T10:25:01Z</time>
      </trkpt>
      <trkpt lat="44.51172" lon="6.59273">
        <ele>1702</ele>
        <time>2021-04-07T10:25:02Z</time>
      </trkpt>
      <trkpt lat="44.51172" lon="6.59273">
        <ele>1702</ele>
        <time>2021-04-07T10:25:03Z</time>
      </trkpt>
      <trkpt lat="44.51172" lon="6.59273">
        <ele>1702</ele>
        <time>2021-04-07T10:25:04Z</time>
      </trkpt>
      <trkpt lat="44.51172" lon="6.59273">
        <ele>1702</ele>
        <time>2021-04-07T10:25:05Z</time>
      </trkpt>
      <trkpt lat="44.51172" lon="6.59273">
        <ele>1702</ele>
        <time>2021-04-07T10:25:06Z</time>
      </trkpt>
      <trkpt lat="44.51172" lon="6.59273">
        <ele>1702</ele>
        <time>2021-04-07T10:25:07Z</time>
      </trkpt>
      <trkpt lat="44.51172" lon="6.59273">
        <ele>1702</ele>
        <time>2021-04-07T10:25:08Z</time>
      </trkpt>
      <trkpt lat="44.51172" lon="6.59273">
        <ele>1702</ele>
        <time>2021-04-07T10:25:09Z</time>
      </trkpt>
      <trkpt lat="44.51172" lon="6.59273">
        <ele>1702</ele>
        <time>2021-04-07T10:25:10Z</time>
      </trkpt>
      <trkpt lat="44.51173" lon="6.5926">
        <ele>1701</ele>
        <time>2021-04-07T10:25:11Z</time>
      </trkpt>
      <trkpt lat="44.51173" lon="6.59258">
        <ele>1701</ele>
        <time>2021-04-07T10:25:12Z</time>
      </trkpt>
      <trkpt lat="44.51173" lon="6.59256">
        <ele>1701</ele>
        <time>2021-04-07T10:25:13Z</time>
      </trkpt>
      <trkpt lat="44.51174" lon="6.59254">
        <ele>1702</ele>
        <time>2021-04-07T10:25:14Z</time>
      </trkpt>
      <trkpt lat="44.51174" lon="6.59253">
        <ele>1702</ele>
        <time>2021-04-07T10:25:15Z</time>
      </trkpt>
      <trkpt lat="44.51174" lon="6.5925">
        <ele>1702</ele>
        <time>2021-04-07T10:25:16Z</time>
      </trkpt>
      <trkpt lat="44.51174" lon="6.59249">
        <ele>1703</ele>
        <time>2021-04-07T10:25:17Z</time>
      </trkpt>
      <trkpt lat="44.51174" lon="6.59247">
        <ele>1703</ele>
        <time>2021-04-07T10:25:18Z</time>
      </trkpt>
      <trkpt lat="44.51175" lon="6.59246">
        <ele>1703</ele>
        <time>2021-04-07T10:25:19Z</time>
      </trkpt>
      <trkpt lat="44.51175" lon="6.59244">
        <ele>1704</ele>
        <time>2021-04-07T10:25:20Z</time>
      </trkpt>
      <trkpt lat="44.51176" lon="6.59242">
        <ele>1704</ele>
        <time>2021-04-07T10:25:21Z</time>
      </trkpt>
      <trkpt lat="44.51177" lon="6.5924">
        <ele>1704</ele>
        <time>2021-04-07T10:25:22Z</time>
      </trkpt>
      <trkpt lat="44.51177" lon="6.59239">
        <ele>1704</ele>
        <time>2021-04-07T10:25:23Z</time>
      </trkpt>
      <trkpt lat="44.51177" lon="6.59239">
        <ele>1704</ele>
        <time>2021-04-07T10:25:24Z</time>
      </trkpt>
      <trkpt lat="44.51177" lon="6.59239">
        <ele>1704</ele>
        <time>2021-04-07T10:25:25Z</time>
      </trkpt>
      <trkpt lat="44.51177" lon="6.59239">
        <ele>1704</ele>
        <time>2021-04-07T10:25:26Z</time>
      </trkpt>
      <trkpt lat="44.51177" lon="6.59239">
        <ele>1704</ele>
        <time>2021-04-07T10:25:27Z</time>
      </trkpt>
      <trkpt lat="44.51177" lon="6.59239">
        <ele>1704</ele>
        <time>2021-04-07T10:25:28Z</time>
      </trkpt>
      <trkpt lat="44.51177" lon="6.59239">
        <ele>1704</ele>
        <time>2021-04-07T10:25:29Z</time>
      </trkpt>
      <trkpt lat="44.51177" lon="6.59239">
        <ele>1704</ele>
        <time>2021-04-07T10:25:30Z</time>
      </trkpt>
      <trkpt lat="44.51177" lon="6.59239">
        <ele>1704</ele>
        <time>2021-04-07T10:25:31Z</time>
      </trkpt>
      <trkpt lat="44.51177" lon="6.59239">
        <ele>1704</ele>
        <time>2021-04-07T10:25:32Z</time>
      </trkpt>
      <trkpt lat="44.51177" lon="6.59239">
        <ele>1704</ele>
        <time>2021-04-07T10:25:33Z</time>
      </trkpt>
      <trkpt lat="44.51177" lon="6.59239">
        <ele>1704</ele>
        <time>2021-04-07T10:25:34Z</time>
      </trkpt>
      <trkpt lat="44.51177" lon="6.59239">
        <ele>1704</ele>
        <time>2021-04-07T10:25:35Z</time>
      </trkpt>
      <trkpt lat="44.51177" lon="6.59239">
        <ele>1704</ele>
        <time>2021-04-07T10:25:36Z</time>
      </trkpt>
      <trkpt lat="44.51177" lon="6.59239">
        <ele>1704</ele>
        <time>2021-04-07T10:25:37Z</time>
      </trkpt>
      <trkpt lat="44.51177" lon="6.59239">
        <ele>1704</ele>
        <time>2021-04-07T10:25:38Z</time>
      </trkpt>
      <trkpt lat="44.51177" lon="6.59239">
        <ele>1704</ele>
        <time>2021-04-07T10:25:39Z</time>
      </trkpt>
      <trkpt lat="44.51177" lon="6.59239">
        <ele>1704</ele>
        <time>2021-04-07T10:25:40Z</time>
      </trkpt>
      <trkpt lat="44.51177" lon="6.59239">
        <ele>1704</ele>
        <time>2021-04-07T10:25:41Z</time>
      </trkpt>
      <trkpt lat="44.51177" lon="6.59239">
        <ele>1704</ele>
        <time>2021-04-07T10:25:42Z</time>
      </trkpt>
      <trkpt lat="44.51177" lon="6.59239">
        <ele>1704</ele>
        <time>2021-04-07T10:25:43Z</time>
      </trkpt>
      <trkpt lat="44.51177" lon="6.59239">
        <ele>1704</ele>
        <time>2021-04-07T10:25:44Z</time>
      </trkpt>
      <trkpt lat="44.51177" lon="6.59239">
        <ele>1704</ele>
        <time>2021-04-07T10:25:45Z</time>
      </trkpt>
      <trkpt lat="44.51177" lon="6.59239">
        <ele>1704</ele>
        <time>2021-04-07T10:25:46Z</time>
      </trkpt>
      <trkpt lat="44.51177" lon="6.59239">
        <ele>1704</ele>
        <time>2021-04-07T10:25:47Z</time>
      </trkpt>
      <trkpt lat="44.51177" lon="6.59239">
        <ele>1704</ele>
        <time>2021-04-07T10:25:48Z</time>
      </trkpt>
      <trkpt lat="44.51177" lon="6.59239">
        <ele>1704</ele>
        <time>2021-04-07T10:25:49Z</time>
      </trkpt>
      <trkpt lat="44.51177" lon="6.59239">
        <ele>1704</ele>
        <time>2021-04-07T10:25:50Z</time>
      </trkpt>
      <trkpt lat="44.51177" lon="6.59239">
        <ele>1704</ele>
        <time>2021-04-07T10:25:51Z</time>
      </trkpt>
      <trkpt lat="44.51177" lon="6.59239">
        <ele>1704</ele>
        <time>2021-04-07T10:25:52Z</time>
      </trkpt>
      <trkpt lat="44.51177" lon="6.59239">
        <ele>1704</ele>
        <time>2021-04-07T10:25:53Z</time>
      </trkpt>
      <trkpt lat="44.51177" lon="6.59239">
        <ele>1704</ele>
        <time>2021-04-07T10:25:54Z</time>
      </trkpt>
      <trkpt lat="44.51177" lon="6.59239">
        <ele>1704</ele>
        <time>2021-04-07T10:25:55Z</time>
      </trkpt>
      <trkpt lat="44.51177" lon="6.59239">
        <ele>1704</ele>
        <time>2021-04-07T10:25:56Z</time>
      </trkpt>
      <trkpt lat="44.51177" lon="6.59239">
        <ele>1704</ele>
        <time>2021-04-07T10:25:57Z</time>
      </trkpt>
      <trkpt lat="44.51177" lon="6.59239">
        <ele>1704</ele>
        <time>2021-04-07T10:25:58Z</time>
      </trkpt>
      <trkpt lat="44.51177" lon="6.59239">
        <ele>1704</ele>
        <time>2021-04-07T10:25:59Z</time>
      </trkpt>
      <trkpt lat="44.51178" lon="6.59227">
        <ele>1704</ele>
        <time>2021-04-07T10:26:00Z</time>
      </trkpt>
      <trkpt lat="44.5118" lon="6.59226">
        <ele>1704</ele>
        <time>2021-04-07T10:26:01Z</time>
      </trkpt>
      <trkpt lat="44.51181" lon="6.59224">
        <ele>1704</ele>
        <time>2021-04-07T10:26:02Z</time>
      </trkpt>
      <trkpt lat="44.51183" lon="6.59222">
        <ele>1704</ele>
        <time>2021-04-07T10:26:03Z</time>
      </trkpt>
      <trkpt lat="44.51184" lon="6.59219">
        <ele>1704</ele>
        <time>2021-04-07T10:26:04Z</time>
      </trkpt>
      <trkpt lat="44.51186" lon="6.59216">
        <ele>1704</ele>
        <time>2021-04-07T10:26:05Z</time>
      </trkpt>
      <trkpt lat="44.51187" lon="6.59212">
        <ele>1704</ele>
        <time>2021-04-07T10:26:06Z</time>
      </trkpt>
      <trkpt lat="44.51188" lon="6.59207">
        <ele>1704</ele>
        <time>2021-04-07T10:26:07Z</time>
      </trkpt>
      <trkpt lat="44.51189" lon="6.59204">
        <ele>1704</ele>
        <time>2021-04-07T10:26:08Z</time>
      </trkpt>
      <trkpt lat="44.5119" lon="6.592">
        <ele>1703</ele>
        <time>2021-04-07T10:26:09Z</time>
      </trkpt>
      <trkpt lat="44.51192" lon="6.59196">
        <ele>1703</ele>
        <time>2021-04-07T10:26:10Z</time>
      </trkpt>
      <trkpt lat="44.51193" lon="6.59193">
        <ele>1702</ele>
        <time>2021-04-07T10:26:11Z</time>
      </trkpt>
      <trkpt lat="44.51195" lon="6.5919">
        <ele>1702</ele>
        <time>2021-04-07T10:26:12Z</time>
      </trkpt>
      <trkpt lat="44.51196" lon="6.59188">
        <ele>1701</ele>
        <time>2021-04-07T10:26:13Z</time>
      </trkpt>
      <trkpt lat="44.51196" lon="6.59187">
        <ele>1700</ele>
        <time>2021-04-07T10:26:14Z</time>
      </trkpt>
      <trkpt lat="44.51197" lon="6.59186">
        <ele>1700</ele>
        <time>2021-04-07T10:26:15Z</time>
      </trkpt>
      <trkpt lat="44.51197" lon="6.59186">
        <ele>1700</ele>
        <time>2021-04-07T10:26:16Z</time>
      </trkpt>
      <trkpt lat="44.51197" lon="6.59186">
        <ele>1699</ele>
        <time>2021-04-07T10:26:17Z</time>
      </trkpt>
      <trkpt lat="44.51197" lon="6.59186">
        <ele>1699</ele>
        <time>2021-04-07T10:26:18Z</time>
      </trkpt>
      <trkpt lat="44.51197" lon="6.59186">
        <ele>1699</ele>
        <time>2021-04-07T10:26:19Z</time>
      </trkpt>
      <trkpt lat="44.51197" lon="6.59186">
        <ele>1699</ele>
        <time>2021-04-07T10:26:20Z</time>
      </trkpt>
      <trkpt lat="44.51197" lon="6.59186">
        <ele>1699</ele>
        <time>2021-04-07T10:26:21Z</time>
      </trkpt>
      <trkpt lat="44.51201" lon="6.59189">
        <ele>1699</ele>
        <time>2021-04-07T10:26:22Z</time>
      </trkpt>
      <trkpt lat="44.51202" lon="6.59192">
        <ele>1698</ele>
        <time>2021-04-07T10:26:23Z</time>
      </trkpt>
      <trkpt lat="44.51203" lon="6.59195">
        <ele>1698</ele>
        <time>2021-04-07T10:26:24Z</time>
      </trkpt>
      <trkpt lat="44.51205" lon="6.592">
        <ele>1698</ele>
        <time>2021-04-07T10:26:25Z</time>
      </trkpt>
      <trkpt lat="44.51205" lon="6.59204">
        <ele>1698</ele>
        <time>2021-04-07T10:26:26Z</time>
      </trkpt>
      <trkpt lat="44.51206" lon="6.59205">
        <ele>1698</ele>
        <time>2021-04-07T10:26:27Z</time>
      </trkpt>
      <trkpt lat="44.51206" lon="6.59207">
        <ele>1698</ele>
        <time>2021-04-07T10:26:28Z</time>
      </trkpt>
      <trkpt lat="44.51207" lon="6.59208">
        <ele>1698</ele>
        <time>2021-04-07T10:26:29Z</time>
      </trkpt>
      <trkpt lat="44.51207" lon="6.59211">
        <ele>1698</ele>
        <time>2021-04-07T10:26:30Z</time>
      </trkpt>
      <trkpt lat="44.51208" lon="6.59214">
        <ele>1698</ele>
        <time>2021-04-07T10:26:31Z</time>
      </trkpt>
      <trkpt lat="44.51207" lon="6.59217">
        <ele>1698</ele>
        <time>2021-04-07T10:26:32Z</time>
      </trkpt>
      <trkpt lat="44.51207" lon="6.5922">
        <ele>1698</ele>
        <time>2021-04-07T10:26:33Z</time>
      </trkpt>
      <trkpt lat="44.51206" lon="6.59222">
        <ele>1698</ele>
        <time>2021-04-07T10:26:34Z</time>
      </trkpt>
      <trkpt lat="44.51205" lon="6.59224">
        <ele>1698</ele>
        <time>2021-04-07T10:26:35Z</time>
      </trkpt>
      <trkpt lat="44.51205" lon="6.59227">
        <ele>1697</ele>
        <time>2021-04-07T10:26:36Z</time>
      </trkpt>
      <trkpt lat="44.51205" lon="6.5923">
        <ele>1697</ele>
        <time>2021-04-07T10:26:37Z</time>
      </trkpt>
      <trkpt lat="44.51205" lon="6.59234">
        <ele>1696</ele>
        <time>2021-04-07T10:26:38Z</time>
      </trkpt>
      <trkpt lat="44.51205" lon="6.59236">
        <ele>1696</ele>
        <time>2021-04-07T10:26:39Z</time>
      </trkpt>
      <trkpt lat="44.51205" lon="6.59239">
        <ele>1695</ele>
        <time>2021-04-07T10:26:40Z</time>
      </trkpt>
      <trkpt lat="44.51207" lon="6.59242">
        <ele>1694</ele>
        <time>2021-04-07T10:26:41Z</time>
      </trkpt>
      <trkpt lat="44.51207" lon="6.59245">
        <ele>1693</ele>
        <time>2021-04-07T10:26:42Z</time>
      </trkpt>
      <trkpt lat="44.51207" lon="6.59249">
        <ele>1693</ele>
        <time>2021-04-07T10:26:43Z</time>
      </trkpt>
      <trkpt lat="44.51208" lon="6.59252">
        <ele>1691</ele>
        <time>2021-04-07T10:26:44Z</time>
      </trkpt>
      <trkpt lat="44.51208" lon="6.59255">
        <ele>1691</ele>
        <time>2021-04-07T10:26:45Z</time>
      </trkpt>
      <trkpt lat="44.5121" lon="6.59259">
        <ele>1689</ele>
        <time>2021-04-07T10:26:46Z</time>
      </trkpt>
      <trkpt lat="44.51211" lon="6.59262">
        <ele>1689</ele>
        <time>2021-04-07T10:26:47Z</time>
      </trkpt>
      <trkpt lat="44.51212" lon="6.59265">
        <ele>1688</ele>
        <time>2021-04-07T10:26:48Z</time>
      </trkpt>
      <trkpt lat="44.51213" lon="6.59267">
        <ele>1688</ele>
        <time>2021-04-07T10:26:49Z</time>
      </trkpt>
      <trkpt lat="44.51214" lon="6.59269">
        <ele>1687</ele>
        <time>2021-04-07T10:26:50Z</time>
      </trkpt>
      <trkpt lat="44.51215" lon="6.59272">
        <ele>1687</ele>
        <time>2021-04-07T10:26:51Z</time>
      </trkpt>
      <trkpt lat="44.51216" lon="6.59275">
        <ele>1687</ele>
        <time>2021-04-07T10:26:52Z</time>
      </trkpt>
      <trkpt lat="44.51217" lon="6.59278">
        <ele>1686</ele>
        <time>2021-04-07T10:26:53Z</time>
      </trkpt>
      <trkpt lat="44.51219" lon="6.5928">
        <ele>1686</ele>
        <time>2021-04-07T10:26:54Z</time>
      </trkpt>
      <trkpt lat="44.51219" lon="6.59283">
        <ele>1686</ele>
        <time>2021-04-07T10:26:55Z</time>
      </trkpt>
      <trkpt lat="44.5122" lon="6.59285">
        <ele>1686</ele>
        <time>2021-04-07T10:26:56Z</time>
      </trkpt>
      <trkpt lat="44.51221" lon="6.59287">
        <ele>1686</ele>
        <time>2021-04-07T10:26:57Z</time>
      </trkpt>
      <trkpt lat="44.51222" lon="6.59288">
        <ele>1686</ele>
        <time>2021-04-07T10:26:58Z</time>
      </trkpt>
      <trkpt lat="44.51222" lon="6.59289">
        <ele>1686</ele>
        <time>2021-04-07T10:26:59Z</time>
      </trkpt>
      <trkpt lat="44.51222" lon="6.59289">
        <ele>1685</ele>
        <time>2021-04-07T10:27:00Z</time>
      </trkpt>
      <trkpt lat="44.51222" lon="6.59289">
        <ele>1685</ele>
        <time>2021-04-07T10:27:01Z</time>
      </trkpt>
      <trkpt lat="44.51222" lon="6.59289">
        <ele>1685</ele>
        <time>2021-04-07T10:27:02Z</time>
      </trkpt>
      <trkpt lat="44.51222" lon="6.59289">
        <ele>1685</ele>
        <time>2021-04-07T10:27:03Z</time>
      </trkpt>
      <trkpt lat="44.51226" lon="6.59295">
        <ele>1685</ele>
        <time>2021-04-07T10:27:04Z</time>
      </trkpt>
      <trkpt lat="44.51226" lon="6.59297">
        <ele>1685</ele>
        <time>2021-04-07T10:27:05Z</time>
      </trkpt>
      <trkpt lat="44.51226" lon="6.59298">
        <ele>1685</ele>
        <time>2021-04-07T10:27:06Z</time>
      </trkpt>
      <trkpt lat="44.51226" lon="6.59299">
        <ele>1685</ele>
        <time>2021-04-07T10:27:07Z</time>
      </trkpt>
      <trkpt lat="44.51226" lon="6.59299">
        <ele>1685</ele>
        <time>2021-04-07T10:27:08Z</time>
      </trkpt>
      <trkpt lat="44.51226" lon="6.59299">
        <ele>1685</ele>
        <time>2021-04-07T10:27:09Z</time>
      </trkpt>
      <trkpt lat="44.51226" lon="6.59299">
        <ele>1685</ele>
        <time>2021-04-07T10:27:10Z</time>
      </trkpt>
      <trkpt lat="44.51226" lon="6.59299">
        <ele>1685</ele>
        <time>2021-04-07T10:27:11Z</time>
      </trkpt>
      <trkpt lat="44.51226" lon="6.59299">
        <ele>1685</ele>
        <time>2021-04-07T10:27:12Z</time>
      </trkpt>
      <trkpt lat="44.51226" lon="6.59299">
        <ele>1685</ele>
        <time>2021-04-07T10:27:13Z</time>
      </trkpt>
      <trkpt lat="44.51226" lon="6.59299">
        <ele>1685</ele>
        <time>2021-04-07T10:27:14Z</time>
      </trkpt>
      <trkpt lat="44.51226" lon="6.59299">
        <ele>1685</ele>
        <time>2021-04-07T10:27:15Z</time>
      </trkpt>
      <trkpt lat="44.51226" lon="6.59299">
        <ele>1685</ele>
        <time>2021-04-07T10:27:16Z</time>
      </trkpt>
      <trkpt lat="44.51226" lon="6.59299">
        <ele>1685</ele>
        <time>2021-04-07T10:27:17Z</time>
      </trkpt>
      <trkpt lat="44.51226" lon="6.59299">
        <ele>1685</ele>
        <time>2021-04-07T10:27:18Z</time>
      </trkpt>
      <trkpt lat="44.51226" lon="6.59299">
        <ele>1685</ele>
        <time>2021-04-07T10:27:19Z</time>
      </trkpt>
      <trkpt lat="44.51226" lon="6.59299">
        <ele>1685</ele>
        <time>2021-04-07T10:27:20Z</time>
      </trkpt>
      <trkpt lat="44.51226" lon="6.59299">
        <ele>1685</ele>
        <time>2021-04-07T10:27:21Z</time>
      </trkpt>
      <trkpt lat="44.51226" lon="6.59299">
        <ele>1685</ele>
        <time>2021-04-07T10:27:22Z</time>
      </trkpt>
      <trkpt lat="44.51226" lon="6.59299">
        <ele>1685</ele>
        <time>2021-04-07T10:27:23Z</time>
      </trkpt>
      <trkpt lat="44.51226" lon="6.59299">
        <ele>1685</ele>
        <time>2021-04-07T10:27:24Z</time>
      </trkpt>
      <trkpt lat="44.51226" lon="6.59299">
        <ele>1685</ele>
        <time>2021-04-07T10:27:25Z</time>
      </trkpt>
      <trkpt lat="44.51226" lon="6.59299">
        <ele>1685</ele>
        <time>2021-04-07T10:27:26Z</time>
      </trkpt>
      <trkpt lat="44.51226" lon="6.59299">
        <ele>1685</ele>
        <time>2021-04-07T10:27:27Z</time>
      </trkpt>
      <trkpt lat="44.51226" lon="6.59299">
        <ele>1685</ele>
        <time>2021-04-07T10:27:28Z</time>
      </trkpt>
      <trkpt lat="44.51226" lon="6.59299">
        <ele>1685</ele>
        <time>2021-04-07T10:27:29Z</time>
      </trkpt>
      <trkpt lat="44.51226" lon="6.59299">
        <ele>1685</ele>
        <time>2021-04-07T10:27:30Z</time>
      </trkpt>
      <trkpt lat="44.51226" lon="6.59299">
        <ele>1685</ele>
        <time>2021-04-07T10:27:31Z</time>
      </trkpt>
      <trkpt lat="44.51226" lon="6.59299">
        <ele>1685</ele>
        <time>2021-04-07T10:27:32Z</time>
      </trkpt>
      <trkpt lat="44.51226" lon="6.59299">
        <ele>1685</ele>
        <time>2021-04-07T10:27:33Z</time>
      </trkpt>
      <trkpt lat="44.51226" lon="6.59299">
        <ele>1685</ele>
        <time>2021-04-07T10:27:34Z</time>
      </trkpt>
      <trkpt lat="44.51226" lon="6.59299">
        <ele>1685</ele>
        <time>2021-04-07T10:27:35Z</time>
      </trkpt>
      <trkpt lat="44.51226" lon="6.59299">
        <ele>1685</ele>
        <time>2021-04-07T10:27:36Z</time>
      </trkpt>
      <trkpt lat="44.51226" lon="6.59299">
        <ele>1685</ele>
        <time>2021-04-07T10:27:37Z</time>
      </trkpt>
      <trkpt lat="44.51226" lon="6.59299">
        <ele>1685</ele>
        <time>2021-04-07T10:27:38Z</time>
      </trkpt>
      <trkpt lat="44.51226" lon="6.59299">
        <ele>1685</ele>
        <time>2021-04-07T10:27:39Z</time>
      </trkpt>
      <trkpt lat="44.51226" lon="6.59299">
        <ele>1685</ele>
        <time>2021-04-07T10:27:40Z</time>
      </trkpt>
      <trkpt lat="44.51226" lon="6.59299">
        <ele>1685</ele>
        <time>2021-04-07T10:27:41Z</time>
      </trkpt>
      <trkpt lat="44.51226" lon="6.59299">
        <ele>1685</ele>
        <time>2021-04-07T10:27:42Z</time>
      </trkpt>
      <trkpt lat="44.51226" lon="6.59299">
        <ele>1685</ele>
        <time>2021-04-07T10:27:43Z</time>
      </trkpt>
      <trkpt lat="44.51226" lon="6.59299">
        <ele>1685</ele>
        <time>2021-04-07T10:27:44Z</time>
      </trkpt>
      <trkpt lat="44.51226" lon="6.59299">
        <ele>1685</ele>
        <time>2021-04-07T10:27:45Z</time>
      </trkpt>
      <trkpt lat="44.51226" lon="6.59299">
        <ele>1685</ele>
        <time>2021-04-07T10:27:46Z</time>
      </trkpt>
      <trkpt lat="44.51226" lon="6.59299">
        <ele>1685</ele>
        <time>2021-04-07T10:27:47Z</time>
      </trkpt>
      <trkpt lat="44.51226" lon="6.59299">
        <ele>1685</ele>
        <time>2021-04-07T10:27:48Z</time>
      </trkpt>
      <trkpt lat="44.51226" lon="6.59299">
        <ele>1685</ele>
        <time>2021-04-07T10:27:49Z</time>
      </trkpt>
      <trkpt lat="44.51226" lon="6.59299">
        <ele>1685</ele>
        <time>2021-04-07T10:27:50Z</time>
      </trkpt>
      <trkpt lat="44.51226" lon="6.59299">
        <ele>1685</ele>
        <time>2021-04-07T10:27:51Z</time>
      </trkpt>
      <trkpt lat="44.51226" lon="6.59299">
        <ele>1685</ele>
        <time>2021-04-07T10:27:52Z</time>
      </trkpt>
      <trkpt lat="44.51226" lon="6.59299">
        <ele>1685</ele>
        <time>2021-04-07T10:27:53Z</time>
      </trkpt>
      <trkpt lat="44.51226" lon="6.59299">
        <ele>1685</ele>
        <time>2021-04-07T10:27:54Z</time>
      </trkpt>
      <trkpt lat="44.51226" lon="6.59299">
        <ele>1685</ele>
        <time>2021-04-07T10:27:55Z</time>
      </trkpt>
      <trkpt lat="44.51226" lon="6.59299">
        <ele>1685</ele>
        <time>2021-04-07T10:27:56Z</time>
      </trkpt>
      <trkpt lat="44.51226" lon="6.59299">
        <ele>1685</ele>
        <time>2021-04-07T10:27:57Z</time>
      </trkpt>
      <trkpt lat="44.51226" lon="6.59299">
        <ele>1685</ele>
        <time>2021-04-07T10:27:58Z</time>
      </trkpt>
      <trkpt lat="44.51226" lon="6.59299">
        <ele>1685</ele>
        <time>2021-04-07T10:27:59Z</time>
      </trkpt>
      <trkpt lat="44.51226" lon="6.59299">
        <ele>1685</ele>
        <time>2021-04-07T10:28:00Z</time>
      </trkpt>
      <trkpt lat="44.51226" lon="6.59299">
        <ele>1685</ele>
        <time>2021-04-07T10:28:01Z</time>
      </trkpt>
      <trkpt lat="44.51226" lon="6.59299">
        <ele>1685</ele>
        <time>2021-04-07T10:28:02Z</time>
      </trkpt>
      <trkpt lat="44.51226" lon="6.59299">
        <ele>1685</ele>
        <time>2021-04-07T10:28:03Z</time>
      </trkpt>
      <trkpt lat="44.51226" lon="6.59299">
        <ele>1685</ele>
        <time>2021-04-07T10:28:04Z</time>
      </trkpt>
      <trkpt lat="44.51226" lon="6.59299">
        <ele>1685</ele>
        <time>2021-04-07T10:28:05Z</time>
      </trkpt>
      <trkpt lat="44.51226" lon="6.59299">
        <ele>1685</ele>
        <time>2021-04-07T10:28:06Z</time>
      </trkpt>
      <trkpt lat="44.51226" lon="6.59299">
        <ele>1685</ele>
        <time>2021-04-07T10:28:07Z</time>
      </trkpt>
      <trkpt lat="44.51226" lon="6.59299">
        <ele>1685</ele>
        <time>2021-04-07T10:28:08Z</time>
      </trkpt>
      <trkpt lat="44.51226" lon="6.59299">
        <ele>1685</ele>
        <time>2021-04-07T10:28:09Z</time>
      </trkpt>
      <trkpt lat="44.51226" lon="6.59299">
        <ele>1685</ele>
        <time>2021-04-07T10:28:10Z</time>
      </trkpt>
      <trkpt lat="44.51226" lon="6.59299">
        <ele>1685</ele>
        <time>2021-04-07T10:28:11Z</time>
      </trkpt>
      <trkpt lat="44.51226" lon="6.59299">
        <ele>1685</ele>
        <time>2021-04-07T10:28:12Z</time>
      </trkpt>
      <trkpt lat="44.51226" lon="6.59299">
        <ele>1685</ele>
        <time>2021-04-07T10:28:13Z</time>
      </trkpt>
      <trkpt lat="44.51226" lon="6.59299">
        <ele>1685</ele>
        <time>2021-04-07T10:28:14Z</time>
      </trkpt>
      <trkpt lat="44.51226" lon="6.59299">
        <ele>1685</ele>
        <time>2021-04-07T10:28:15Z</time>
      </trkpt>
      <trkpt lat="44.51226" lon="6.59299">
        <ele>1685</ele>
        <time>2021-04-07T10:28:16Z</time>
      </trkpt>
      <trkpt lat="44.51226" lon="6.59299">
        <ele>1685</ele>
        <time>2021-04-07T10:28:17Z</time>
      </trkpt>
      <trkpt lat="44.51226" lon="6.59299">
        <ele>1685</ele>
        <time>2021-04-07T10:28:18Z</time>
      </trkpt>
      <trkpt lat="44.51226" lon="6.59299">
        <ele>1685</ele>
        <time>2021-04-07T10:28:19Z</time>
      </trkpt>
      <trkpt lat="44.51226" lon="6.59299">
        <ele>1685</ele>
        <time>2021-04-07T10:28:20Z</time>
      </trkpt>
      <trkpt lat="44.51226" lon="6.59299">
        <ele>1685</ele>
        <time>2021-04-07T10:28:21Z</time>
      </trkpt>
      <trkpt lat="44.51226" lon="6.59299">
        <ele>1685</ele>
        <time>2021-04-07T10:28:22Z</time>
      </trkpt>
      <trkpt lat="44.51226" lon="6.59299">
        <ele>1685</ele>
        <time>2021-04-07T10:28:23Z</time>
      </trkpt>
      <trkpt lat="44.51226" lon="6.59299">
        <ele>1685</ele>
        <time>2021-04-07T10:28:24Z</time>
      </trkpt>
      <trkpt lat="44.51226" lon="6.59299">
        <ele>1685</ele>
        <time>2021-04-07T10:28:25Z</time>
      </trkpt>
      <trkpt lat="44.51226" lon="6.59299">
        <ele>1685</ele>
        <time>2021-04-07T10:28:26Z</time>
      </trkpt>
      <trkpt lat="44.51226" lon="6.59299">
        <ele>1685</ele>
        <time>2021-04-07T10:28:27Z</time>
      </trkpt>
      <trkpt lat="44.51226" lon="6.59299">
        <ele>1685</ele>
        <time>2021-04-07T10:28:28Z</time>
      </trkpt>
      <trkpt lat="44.51226" lon="6.59299">
        <ele>1685</ele>
        <time>2021-04-07T10:28:29Z</time>
      </trkpt>
      <trkpt lat="44.51226" lon="6.59299">
        <ele>1685</ele>
        <time>2021-04-07T10:28:30Z</time>
      </trkpt>
      <trkpt lat="44.51226" lon="6.59299">
        <ele>1685</ele>
        <time>2021-04-07T10:28:31Z</time>
      </trkpt>
      <trkpt lat="44.51226" lon="6.59299">
        <ele>1685</ele>
        <time>2021-04-07T10:28:32Z</time>
      </trkpt>
      <trkpt lat="44.51226" lon="6.59299">
        <ele>1685</ele>
        <time>2021-04-07T10:28:33Z</time>
      </trkpt>
      <trkpt lat="44.51226" lon="6.59299">
        <ele>1685</ele>
        <time>2021-04-07T10:28:34Z</time>
      </trkpt>
      <trkpt lat="44.51226" lon="6.59299">
        <ele>1685</ele>
        <time>2021-04-07T10:28:35Z</time>
      </trkpt>
      <trkpt lat="44.51226" lon="6.59299">
        <ele>1685</ele>
        <time>2021-04-07T10:28:36Z</time>
      </trkpt>
      <trkpt lat="44.51226" lon="6.59299">
        <ele>1685</ele>
        <time>2021-04-07T10:28:37Z</time>
      </trkpt>
      <trkpt lat="44.51226" lon="6.59299">
        <ele>1685</ele>
        <time>2021-04-07T10:28:38Z</time>
      </trkpt>
      <trkpt lat="44.51226" lon="6.59299">
        <ele>1685</ele>
        <time>2021-04-07T10:28:39Z</time>
      </trkpt>
      <trkpt lat="44.51226" lon="6.59299">
        <ele>1685</ele>
        <time>2021-04-07T10:28:40Z</time>
      </trkpt>
      <trkpt lat="44.51226" lon="6.59299">
        <ele>1685</ele>
        <time>2021-04-07T10:28:41Z</time>
      </trkpt>
      <trkpt lat="44.51226" lon="6.59299">
        <ele>1685</ele>
        <time>2021-04-07T10:28:42Z</time>
      </trkpt>
      <trkpt lat="44.51226" lon="6.59299">
        <ele>1685</ele>
        <time>2021-04-07T10:28:43Z</time>
      </trkpt>
      <trkpt lat="44.51226" lon="6.59299">
        <ele>1685</ele>
        <time>2021-04-07T10:28:44Z</time>
      </trkpt>
      <trkpt lat="44.51226" lon="6.59299">
        <ele>1685</ele>
        <time>2021-04-07T10:28:45Z</time>
      </trkpt>
      <trkpt lat="44.51226" lon="6.59299">
        <ele>1685</ele>
        <time>2021-04-07T10:28:46Z</time>
      </trkpt>
      <trkpt lat="44.51226" lon="6.59299">
        <ele>1685</ele>
        <time>2021-04-07T10:28:47Z</time>
      </trkpt>
      <trkpt lat="44.51226" lon="6.59299">
        <ele>1685</ele>
        <time>2021-04-07T10:28:48Z</time>
      </trkpt>
      <trkpt lat="44.51226" lon="6.59299">
        <ele>1685</ele>
        <time>2021-04-07T10:28:49Z</time>
      </trkpt>
      <trkpt lat="44.51226" lon="6.59299">
        <ele>1685</ele>
        <time>2021-04-07T10:28:50Z</time>
      </trkpt>
      <trkpt lat="44.51226" lon="6.59299">
        <ele>1685</ele>
        <time>2021-04-07T10:28:51Z</time>
      </trkpt>
      <trkpt lat="44.51226" lon="6.59299">
        <ele>1685</ele>
        <time>2021-04-07T10:28:52Z</time>
      </trkpt>
      <trkpt lat="44.51226" lon="6.59299">
        <ele>1685</ele>
        <time>2021-04-07T10:28:53Z</time>
      </trkpt>
      <trkpt lat="44.51226" lon="6.59299">
        <ele>1685</ele>
        <time>2021-04-07T10:28:54Z</time>
      </trkpt>
      <trkpt lat="44.51226" lon="6.59299">
        <ele>1685</ele>
        <time>2021-04-07T10:28:55Z</time>
      </trkpt>
      <trkpt lat="44.51226" lon="6.59299">
        <ele>1685</ele>
        <time>2021-04-07T10:28:56Z</time>
      </trkpt>
      <trkpt lat="44.51226" lon="6.59299">
        <ele>1685</ele>
        <time>2021-04-07T10:28:57Z</time>
      </trkpt>
      <trkpt lat="44.51226" lon="6.59299">
        <ele>1685</ele>
        <time>2021-04-07T10:28:58Z</time>
      </trkpt>
      <trkpt lat="44.51226" lon="6.59299">
        <ele>1685</ele>
        <time>2021-04-07T10:28:59Z</time>
      </trkpt>
      <trkpt lat="44.51226" lon="6.59299">
        <ele>1685</ele>
        <time>2021-04-07T10:29:00Z</time>
      </trkpt>
      <trkpt lat="44.51226" lon="6.59299">
        <ele>1685</ele>
        <time>2021-04-07T10:29:01Z</time>
      </trkpt>
      <trkpt lat="44.51226" lon="6.59299">
        <ele>1685</ele>
        <time>2021-04-07T10:29:02Z</time>
      </trkpt>
      <trkpt lat="44.51226" lon="6.59299">
        <ele>1685</ele>
        <time>2021-04-07T10:29:03Z</time>
      </trkpt>
      <trkpt lat="44.51226" lon="6.59299">
        <ele>1685</ele>
        <time>2021-04-07T10:29:04Z</time>
      </trkpt>
      <trkpt lat="44.51226" lon="6.59299">
        <ele>1685</ele>
        <time>2021-04-07T10:29:05Z</time>
      </trkpt>
      <trkpt lat="44.51226" lon="6.59299">
        <ele>1685</ele>
        <time>2021-04-07T10:29:06Z</time>
      </trkpt>
      <trkpt lat="44.51226" lon="6.59299">
        <ele>1685</ele>
        <time>2021-04-07T10:29:07Z</time>
      </trkpt>
      <trkpt lat="44.51226" lon="6.59299">
        <ele>1685</ele>
        <time>2021-04-07T10:29:08Z</time>
      </trkpt>
      <trkpt lat="44.51226" lon="6.59299">
        <ele>1685</ele>
        <time>2021-04-07T10:29:09Z</time>
      </trkpt>
      <trkpt lat="44.51226" lon="6.59299">
        <ele>1685</ele>
        <time>2021-04-07T10:29:10Z</time>
      </trkpt>
      <trkpt lat="44.51226" lon="6.59299">
        <ele>1685</ele>
        <time>2021-04-07T10:29:11Z</time>
      </trkpt>
      <trkpt lat="44.51226" lon="6.59299">
        <ele>1685</ele>
        <time>2021-04-07T10:29:12Z</time>
      </trkpt>
      <trkpt lat="44.51226" lon="6.59299">
        <ele>1685</ele>
        <time>2021-04-07T10:29:13Z</time>
      </trkpt>
      <trkpt lat="44.51226" lon="6.59299">
        <ele>1685</ele>
        <time>2021-04-07T10:29:14Z</time>
      </trkpt>
      <trkpt lat="44.51226" lon="6.59299">
        <ele>1685</ele>
        <time>2021-04-07T10:29:15Z</time>
      </trkpt>
      <trkpt lat="44.51226" lon="6.59299">
        <ele>1685</ele>
        <time>2021-04-07T10:29:16Z</time>
      </trkpt>
      <trkpt lat="44.51226" lon="6.59299">
        <ele>1685</ele>
        <time>2021-04-07T10:29:17Z</time>
      </trkpt>
      <trkpt lat="44.51226" lon="6.59299">
        <ele>1685</ele>
        <time>2021-04-07T10:29:18Z</time>
      </trkpt>
      <trkpt lat="44.51226" lon="6.59299">
        <ele>1685</ele>
        <time>2021-04-07T10:29:19Z</time>
      </trkpt>
      <trkpt lat="44.51226" lon="6.59299">
        <ele>1685</ele>
        <time>2021-04-07T10:29:20Z</time>
      </trkpt>
      <trkpt lat="44.51226" lon="6.59299">
        <ele>1685</ele>
        <time>2021-04-07T10:29:21Z</time>
      </trkpt>
      <trkpt lat="44.51226" lon="6.59299">
        <ele>1685</ele>
        <time>2021-04-07T10:29:22Z</time>
      </trkpt>
      <trkpt lat="44.51226" lon="6.59299">
        <ele>1685</ele>
        <time>2021-04-07T10:29:23Z</time>
      </trkpt>
      <trkpt lat="44.51226" lon="6.59299">
        <ele>1685</ele>
        <time>2021-04-07T10:29:24Z</time>
      </trkpt>
      <trkpt lat="44.51226" lon="6.59299">
        <ele>1685</ele>
        <time>2021-04-07T10:29:25Z</time>
      </trkpt>
      <trkpt lat="44.51226" lon="6.59299">
        <ele>1685</ele>
        <time>2021-04-07T10:29:26Z</time>
      </trkpt>
      <trkpt lat="44.51226" lon="6.59299">
        <ele>1685</ele>
        <time>2021-04-07T10:29:27Z</time>
      </trkpt>
      <trkpt lat="44.51226" lon="6.59299">
        <ele>1685</ele>
        <time>2021-04-07T10:29:28Z</time>
      </trkpt>
      <trkpt lat="44.51226" lon="6.59299">
        <ele>1685</ele>
        <time>2021-04-07T10:29:29Z</time>
      </trkpt>
      <trkpt lat="44.51226" lon="6.59299">
        <ele>1685</ele>
        <time>2021-04-07T10:29:30Z</time>
      </trkpt>
      <trkpt lat="44.51226" lon="6.59299">
        <ele>1685</ele>
        <time>2021-04-07T10:29:31Z</time>
      </trkpt>
      <trkpt lat="44.51226" lon="6.59299">
        <ele>1685</ele>
        <time>2021-04-07T10:29:32Z</time>
      </trkpt>
      <trkpt lat="44.51226" lon="6.59299">
        <ele>1685</ele>
        <time>2021-04-07T10:29:33Z</time>
      </trkpt>
      <trkpt lat="44.51226" lon="6.59299">
        <ele>1685</ele>
        <time>2021-04-07T10:29:34Z</time>
      </trkpt>
      <trkpt lat="44.51226" lon="6.59299">
        <ele>1685</ele>
        <time>2021-04-07T10:29:35Z</time>
      </trkpt>
      <trkpt lat="44.51226" lon="6.59299">
        <ele>1685</ele>
        <time>2021-04-07T10:29:36Z</time>
      </trkpt>
      <trkpt lat="44.51226" lon="6.59299">
        <ele>1685</ele>
        <time>2021-04-07T10:29:37Z</time>
      </trkpt>
      <trkpt lat="44.51226" lon="6.59299">
        <ele>1685</ele>
        <time>2021-04-07T10:29:38Z</time>
      </trkpt>
      <trkpt lat="44.51226" lon="6.59299">
        <ele>1685</ele>
        <time>2021-04-07T10:29:39Z</time>
      </trkpt>
      <trkpt lat="44.51226" lon="6.59299">
        <ele>1685</ele>
        <time>2021-04-07T10:29:40Z</time>
      </trkpt>
      <trkpt lat="44.51226" lon="6.59299">
        <ele>1685</ele>
        <time>2021-04-07T10:29:41Z</time>
      </trkpt>
      <trkpt lat="44.51226" lon="6.59299">
        <ele>1685</ele>
        <time>2021-04-07T10:29:42Z</time>
      </trkpt>
      <trkpt lat="44.51226" lon="6.59299">
        <ele>1685</ele>
        <time>2021-04-07T10:29:43Z</time>
      </trkpt>
      <trkpt lat="44.51226" lon="6.59299">
        <ele>1685</ele>
        <time>2021-04-07T10:29:44Z</time>
      </trkpt>
      <trkpt lat="44.51226" lon="6.59299">
        <ele>1685</ele>
        <time>2021-04-07T10:29:45Z</time>
      </trkpt>
      <trkpt lat="44.51226" lon="6.59299">
        <ele>1685</ele>
        <time>2021-04-07T10:29:46Z</time>
      </trkpt>
      <trkpt lat="44.51226" lon="6.59299">
        <ele>1685</ele>
        <time>2021-04-07T10:29:47Z</time>
      </trkpt>
      <trkpt lat="44.51226" lon="6.59299">
        <ele>1685</ele>
        <time>2021-04-07T10:29:48Z</time>
      </trkpt>
      <trkpt lat="44.51226" lon="6.59299">
        <ele>1685</ele>
        <time>2021-04-07T10:29:49Z</time>
      </trkpt>
      <trkpt lat="44.51226" lon="6.59299">
        <ele>1685</ele>
        <time>2021-04-07T10:29:50Z</time>
      </trkpt>
      <trkpt lat="44.51226" lon="6.59299">
        <ele>1685</ele>
        <time>2021-04-07T10:29:51Z</time>
      </trkpt>
      <trkpt lat="44.51226" lon="6.59299">
        <ele>1685</ele>
        <time>2021-04-07T10:29:52Z</time>
      </trkpt>
      <trkpt lat="44.51226" lon="6.59299">
        <ele>1685</ele>
        <time>2021-04-07T10:29:53Z</time>
      </trkpt>
      <trkpt lat="44.51226" lon="6.59299">
        <ele>1685</ele>
        <time>2021-04-07T10:29:54Z</time>
      </trkpt>
      <trkpt lat="44.51211" lon="6.59294">
        <ele>1698</ele>
        <time>2021-04-07T10:29:55Z</time>
      </trkpt>
      <trkpt lat="44.51211" lon="6.59294">
        <ele>1701</ele>
        <time>2021-04-07T10:29:56Z</time>
      </trkpt>
      <trkpt lat="44.51211" lon="6.59294">
        <ele>1703</ele>
        <time>2021-04-07T10:29:57Z</time>
      </trkpt>
      <trkpt lat="44.51211" lon="6.59294">
        <ele>1704</ele>
        <time>2021-04-07T10:29:58Z</time>
      </trkpt>
      <trkpt lat="44.51211" lon="6.59294">
        <ele>1705</ele>
        <time>2021-04-07T10:29:59Z</time>
      </trkpt>
      <trkpt lat="44.51211" lon="6.59294">
        <ele>1705</ele>
        <time>2021-04-07T10:30:00Z</time>
      </trkpt>
      <trkpt lat="44.51211" lon="6.59294">
        <ele>1705</ele>
        <time>2021-04-07T10:30:01Z</time>
      </trkpt>
      <trkpt lat="44.51211" lon="6.59294">
        <ele>1706</ele>
        <time>2021-04-07T10:30:02Z</time>
      </trkpt>
      <trkpt lat="44.51211" lon="6.59294">
        <ele>1706</ele>
        <time>2021-04-07T10:30:03Z</time>
      </trkpt>
      <trkpt lat="44.51211" lon="6.59294">
        <ele>1706</ele>
        <time>2021-04-07T10:30:04Z</time>
      </trkpt>
      <trkpt lat="44.51211" lon="6.59294">
        <ele>1706</ele>
        <time>2021-04-07T10:30:05Z</time>
      </trkpt>
      <trkpt lat="44.51211" lon="6.59294">
        <ele>1706</ele>
        <time>2021-04-07T10:30:06Z</time>
      </trkpt>
      <trkpt lat="44.51211" lon="6.59294">
        <ele>1706</ele>
        <time>2021-04-07T10:30:07Z</time>
      </trkpt>
      <trkpt lat="44.51211" lon="6.59294">
        <ele>1707</ele>
        <time>2021-04-07T10:30:08Z</time>
      </trkpt>
      <trkpt lat="44.51211" lon="6.59294">
        <ele>1707</ele>
        <time>2021-04-07T10:30:09Z</time>
      </trkpt>
      <trkpt lat="44.51211" lon="6.59294">
        <ele>1707</ele>
        <time>2021-04-07T10:30:10Z</time>
      </trkpt>
      <trkpt lat="44.51211" lon="6.59294">
        <ele>1707</ele>
        <time>2021-04-07T10:30:11Z</time>
      </trkpt>
      <trkpt lat="44.51216" lon="6.59297">
        <ele>1707</ele>
        <time>2021-04-07T10:30:12Z</time>
      </trkpt>
      <trkpt lat="44.51219" lon="6.59299">
        <ele>1707</ele>
        <time>2021-04-07T10:30:13Z</time>
      </trkpt>
      <trkpt lat="44.51222" lon="6.593">
        <ele>1706</ele>
        <time>2021-04-07T10:30:14Z</time>
      </trkpt>
      <trkpt lat="44.51225" lon="6.59302">
        <ele>1706</ele>
        <time>2021-04-07T10:30:15Z</time>
      </trkpt>
      <trkpt lat="44.51227" lon="6.59304">
        <ele>1705</ele>
        <time>2021-04-07T10:30:16Z</time>
      </trkpt>
      <trkpt lat="44.51227" lon="6.59305">
        <ele>1704</ele>
        <time>2021-04-07T10:30:17Z</time>
      </trkpt>
      <trkpt lat="44.51228" lon="6.59305">
        <ele>1704</ele>
        <time>2021-04-07T10:30:18Z</time>
      </trkpt>
      <trkpt lat="44.51228" lon="6.59305">
        <ele>1704</ele>
        <time>2021-04-07T10:30:19Z</time>
      </trkpt>
      <trkpt lat="44.51228" lon="6.59305">
        <ele>1704</ele>
        <time>2021-04-07T10:30:20Z</time>
      </trkpt>
      <trkpt lat="44.51228" lon="6.59305">
        <ele>1704</ele>
        <time>2021-04-07T10:30:21Z</time>
      </trkpt>
      <trkpt lat="44.51228" lon="6.59305">
        <ele>1704</ele>
        <time>2021-04-07T10:30:22Z</time>
      </trkpt>
      <trkpt lat="44.51228" lon="6.59305">
        <ele>1704</ele>
        <time>2021-04-07T10:30:23Z</time>
      </trkpt>
      <trkpt lat="44.51228" lon="6.59305">
        <ele>1704</ele>
        <time>2021-04-07T10:30:24Z</time>
      </trkpt>
      <trkpt lat="44.51228" lon="6.59305">
        <ele>1704</ele>
        <time>2021-04-07T10:30:25Z</time>
      </trkpt>
      <trkpt lat="44.51228" lon="6.59305">
        <ele>1704</ele>
        <time>2021-04-07T10:30:26Z</time>
      </trkpt>
      <trkpt lat="44.51228" lon="6.59305">
        <ele>1704</ele>
        <time>2021-04-07T10:30:27Z</time>
      </trkpt>
      <trkpt lat="44.51237" lon="6.5931">
        <ele>1702</ele>
        <time>2021-04-07T10:30:28Z</time>
      </trkpt>
      <trkpt lat="44.51238" lon="6.59311">
        <ele>1702</ele>
        <time>2021-04-07T10:30:29Z</time>
      </trkpt>
      <trkpt lat="44.51239" lon="6.59311">
        <ele>1702</ele>
        <time>2021-04-07T10:30:30Z</time>
      </trkpt>
      <trkpt lat="44.5124" lon="6.59311">
        <ele>1701</ele>
        <time>2021-04-07T10:30:31Z</time>
      </trkpt>
      <trkpt lat="44.5124" lon="6.59311">
        <ele>1701</ele>
        <time>2021-04-07T10:30:32Z</time>
      </trkpt>
      <trkpt lat="44.5124" lon="6.59311">
        <ele>1701</ele>
        <time>2021-04-07T10:30:33Z</time>
      </trkpt>
      <trkpt lat="44.51246" lon="6.59313">
        <ele>1700</ele>
        <time>2021-04-07T10:30:34Z</time>
      </trkpt>
      <trkpt lat="44.51249" lon="6.59315">
        <ele>1699</ele>
        <time>2021-04-07T10:30:35Z</time>
      </trkpt>
      <trkpt lat="44.51251" lon="6.59315">
        <ele>1698</ele>
        <time>2021-04-07T10:30:36Z</time>
      </trkpt>
      <trkpt lat="44.51253" lon="6.59316">
        <ele>1698</ele>
        <time>2021-04-07T10:30:37Z</time>
      </trkpt>
      <trkpt lat="44.51255" lon="6.59317">
        <ele>1697</ele>
        <time>2021-04-07T10:30:38Z</time>
      </trkpt>
      <trkpt lat="44.51256" lon="6.59318">
        <ele>1697</ele>
        <time>2021-04-07T10:30:39Z</time>
      </trkpt>
      <trkpt lat="44.51257" lon="6.59319">
        <ele>1697</ele>
        <time>2021-04-07T10:30:40Z</time>
      </trkpt>
      <trkpt lat="44.51258" lon="6.59319">
        <ele>1696</ele>
        <time>2021-04-07T10:30:41Z</time>
      </trkpt>
      <trkpt lat="44.51258" lon="6.59321">
        <ele>1696</ele>
        <time>2021-04-07T10:30:42Z</time>
      </trkpt>
      <trkpt lat="44.51259" lon="6.59321">
        <ele>1695</ele>
        <time>2021-04-07T10:30:43Z</time>
      </trkpt>
      <trkpt lat="44.5126" lon="6.59321">
        <ele>1695</ele>
        <time>2021-04-07T10:30:44Z</time>
      </trkpt>
      <trkpt lat="44.5126" lon="6.59321">
        <ele>1695</ele>
        <time>2021-04-07T10:30:45Z</time>
      </trkpt>
      <trkpt lat="44.5126" lon="6.59321">
        <ele>1694</ele>
        <time>2021-04-07T10:30:46Z</time>
      </trkpt>
      <trkpt lat="44.5126" lon="6.59321">
        <ele>1694</ele>
        <time>2021-04-07T10:30:47Z</time>
      </trkpt>
      <trkpt lat="44.5126" lon="6.59321">
        <ele>1694</ele>
        <time>2021-04-07T10:30:48Z</time>
      </trkpt>
      <trkpt lat="44.5126" lon="6.59321">
        <ele>1694</ele>
        <time>2021-04-07T10:30:49Z</time>
      </trkpt>
      <trkpt lat="44.51266" lon="6.59318">
        <ele>1690</ele>
        <time>2021-04-07T10:30:50Z</time>
      </trkpt>
      <trkpt lat="44.51266" lon="6.59316">
        <ele>1689</ele>
        <time>2021-04-07T10:30:51Z</time>
      </trkpt>
      <trkpt lat="44.51267" lon="6.59315">
        <ele>1688</ele>
        <time>2021-04-07T10:30:52Z</time>
      </trkpt>
      <trkpt lat="44.51267" lon="6.59313">
        <ele>1685</ele>
        <time>2021-04-07T10:30:53Z</time>
      </trkpt>
      <trkpt lat="44.51267" lon="6.59312">
        <ele>1684</ele>
        <time>2021-04-07T10:30:54Z</time>
      </trkpt>
      <trkpt lat="44.51267" lon="6.5931">
        <ele>1683</ele>
        <time>2021-04-07T10:30:55Z</time>
      </trkpt>
      <trkpt lat="44.51266" lon="6.59308">
        <ele>1682</ele>
        <time>2021-04-07T10:30:56Z</time>
      </trkpt>
      <trkpt lat="44.51266" lon="6.59307">
        <ele>1681</ele>
        <time>2021-04-07T10:30:57Z</time>
      </trkpt>
      <trkpt lat="44.51265" lon="6.59305">
        <ele>1680</ele>
        <time>2021-04-07T10:30:58Z</time>
      </trkpt>
      <trkpt lat="44.51265" lon="6.59304">
        <ele>1679</ele>
        <time>2021-04-07T10:30:59Z</time>
      </trkpt>
      <trkpt lat="44.51264" lon="6.59303">
        <ele>1678</ele>
        <time>2021-04-07T10:31:00Z</time>
      </trkpt>
      <trkpt lat="44.51262" lon="6.59302">
        <ele>1677</ele>
        <time>2021-04-07T10:31:01Z</time>
      </trkpt>
      <trkpt lat="44.51261" lon="6.59301">
        <ele>1676</ele>
        <time>2021-04-07T10:31:02Z</time>
      </trkpt>
      <trkpt lat="44.5126" lon="6.59299">
        <ele>1676</ele>
        <time>2021-04-07T10:31:03Z</time>
      </trkpt>
      <trkpt lat="44.51259" lon="6.59297">
        <ele>1675</ele>
        <time>2021-04-07T10:31:04Z</time>
      </trkpt>
      <trkpt lat="44.51259" lon="6.59296">
        <ele>1674</ele>
        <time>2021-04-07T10:31:05Z</time>
      </trkpt>
      <trkpt lat="44.51259" lon="6.59295">
        <ele>1674</ele>
        <time>2021-04-07T10:31:06Z</time>
      </trkpt>
      <trkpt lat="44.51259" lon="6.59295">
        <ele>1674</ele>
        <time>2021-04-07T10:31:07Z</time>
      </trkpt>
      <trkpt lat="44.51259" lon="6.59295">
        <ele>1674</ele>
        <time>2021-04-07T10:31:08Z</time>
      </trkpt>
      <trkpt lat="44.51259" lon="6.59295">
        <ele>1674</ele>
        <time>2021-04-07T10:31:09Z</time>
      </trkpt>
      <trkpt lat="44.51259" lon="6.59295">
        <ele>1673</ele>
        <time>2021-04-07T10:31:10Z</time>
      </trkpt>
      <trkpt lat="44.51259" lon="6.59295">
        <ele>1673</ele>
        <time>2021-04-07T10:31:11Z</time>
      </trkpt>
      <trkpt lat="44.51259" lon="6.59295">
        <ele>1673</ele>
        <time>2021-04-07T10:31:12Z</time>
      </trkpt>
      <trkpt lat="44.51255" lon="6.59287">
        <ele>1671</ele>
        <time>2021-04-07T10:31:13Z</time>
      </trkpt>
      <trkpt lat="44.51254" lon="6.59285">
        <ele>1670</ele>
        <time>2021-04-07T10:31:14Z</time>
      </trkpt>
      <trkpt lat="44.51253" lon="6.59283">
        <ele>1669</ele>
        <time>2021-04-07T10:31:15Z</time>
      </trkpt>
      <trkpt lat="44.51253" lon="6.59282">
        <ele>1668</ele>
        <time>2021-04-07T10:31:16Z</time>
      </trkpt>
      <trkpt lat="44.51253" lon="6.59281">
        <ele>1667</ele>
        <time>2021-04-07T10:31:17Z</time>
      </trkpt>
      <trkpt lat="44.51253" lon="6.59281">
        <ele>1667</ele>
        <time>2021-04-07T10:31:18Z</time>
      </trkpt>
      <trkpt lat="44.51253" lon="6.59281">
        <ele>1667</ele>
        <time>2021-04-07T10:31:19Z</time>
      </trkpt>
      <trkpt lat="44.51253" lon="6.59281">
        <ele>1667</ele>
        <time>2021-04-07T10:31:20Z</time>
      </trkpt>
      <trkpt lat="44.51253" lon="6.59281">
        <ele>1667</ele>
        <time>2021-04-07T10:31:21Z</time>
      </trkpt>
      <trkpt lat="44.51253" lon="6.59281">
        <ele>1667</ele>
        <time>2021-04-07T10:31:22Z</time>
      </trkpt>
      <trkpt lat="44.51253" lon="6.59281">
        <ele>1667</ele>
        <time>2021-04-07T10:31:23Z</time>
      </trkpt>
      <trkpt lat="44.51253" lon="6.59281">
        <ele>1667</ele>
        <time>2021-04-07T10:31:24Z</time>
      </trkpt>
      <trkpt lat="44.51253" lon="6.59281">
        <ele>1667</ele>
        <time>2021-04-07T10:31:25Z</time>
      </trkpt>
      <trkpt lat="44.51253" lon="6.59281">
        <ele>1667</ele>
        <time>2021-04-07T10:31:26Z</time>
      </trkpt>
      <trkpt lat="44.51253" lon="6.59267">
        <ele>1664</ele>
        <time>2021-04-07T10:31:27Z</time>
      </trkpt>
      <trkpt lat="44.51253" lon="6.59266">
        <ele>1663</ele>
        <time>2021-04-07T10:31:28Z</time>
      </trkpt>
      <trkpt lat="44.51253" lon="6.59264">
        <ele>1663</ele>
        <time>2021-04-07T10:31:29Z</time>
      </trkpt>
      <trkpt lat="44.51253" lon="6.59263">
        <ele>1663</ele>
        <time>2021-04-07T10:31:30Z</time>
      </trkpt>
      <trkpt lat="44.51253" lon="6.59261">
        <ele>1663</ele>
        <time>2021-04-07T10:31:31Z</time>
      </trkpt>
      <trkpt lat="44.51253" lon="6.59259">
        <ele>1663</ele>
        <time>2021-04-07T10:31:32Z</time>
      </trkpt>
      <trkpt lat="44.51253" lon="6.59257">
        <ele>1663</ele>
        <time>2021-04-07T10:31:33Z</time>
      </trkpt>
      <trkpt lat="44.51253" lon="6.59256">
        <ele>1663</ele>
        <time>2021-04-07T10:31:34Z</time>
      </trkpt>
      <trkpt lat="44.51253" lon="6.59255">
        <ele>1663</ele>
        <time>2021-04-07T10:31:35Z</time>
      </trkpt>
      <trkpt lat="44.51253" lon="6.59255">
        <ele>1662</ele>
        <time>2021-04-07T10:31:36Z</time>
      </trkpt>
      <trkpt lat="44.51253" lon="6.59255">
        <ele>1662</ele>
        <time>2021-04-07T10:31:37Z</time>
      </trkpt>
      <trkpt lat="44.51253" lon="6.59255">
        <ele>1662</ele>
        <time>2021-04-07T10:31:38Z</time>
      </trkpt>
      <trkpt lat="44.51253" lon="6.59255">
        <ele>1662</ele>
        <time>2021-04-07T10:31:39Z</time>
      </trkpt>
      <trkpt lat="44.51253" lon="6.59255">
        <ele>1662</ele>
        <time>2021-04-07T10:31:40Z</time>
      </trkpt>
      <trkpt lat="44.51253" lon="6.59255">
        <ele>1662</ele>
        <time>2021-04-07T10:31:41Z</time>
      </trkpt>
      <trkpt lat="44.51253" lon="6.59255">
        <ele>1662</ele>
        <time>2021-04-07T10:31:42Z</time>
      </trkpt>
      <trkpt lat="44.51253" lon="6.59255">
        <ele>1662</ele>
        <time>2021-04-07T10:31:43Z</time>
      </trkpt>
      <trkpt lat="44.51254" lon="6.59251">
        <ele>1662</ele>
        <time>2021-04-07T10:31:44Z</time>
      </trkpt>
      <trkpt lat="44.51255" lon="6.59248">
        <ele>1662</ele>
        <time>2021-04-07T10:31:45Z</time>
      </trkpt>
      <trkpt lat="44.51255" lon="6.59246">
        <ele>1662</ele>
        <time>2021-04-07T10:31:46Z</time>
      </trkpt>
      <trkpt lat="44.51255" lon="6.59245">
        <ele>1663</ele>
        <time>2021-04-07T10:31:47Z</time>
      </trkpt>
      <trkpt lat="44.51255" lon="6.59244">
        <ele>1662</ele>
        <time>2021-04-07T10:31:48Z</time>
      </trkpt>
      <trkpt lat="44.51254" lon="6.59243">
        <ele>1662</ele>
        <time>2021-04-07T10:31:49Z</time>
      </trkpt>
      <trkpt lat="44.51254" lon="6.59243">
        <ele>1662</ele>
        <time>2021-04-07T10:31:50Z</time>
      </trkpt>
      <trkpt lat="44.51254" lon="6.59243">
        <ele>1662</ele>
        <time>2021-04-07T10:31:51Z</time>
      </trkpt>
      <trkpt lat="44.51254" lon="6.59243">
        <ele>1662</ele>
        <time>2021-04-07T10:31:52Z</time>
      </trkpt>
      <trkpt lat="44.51254" lon="6.59243">
        <ele>1662</ele>
        <time>2021-04-07T10:31:53Z</time>
      </trkpt>
      <trkpt lat="44.51254" lon="6.59236">
        <ele>1661</ele>
        <time>2021-04-07T10:31:54Z</time>
      </trkpt>
      <trkpt lat="44.51254" lon="6.59235">
        <ele>1661</ele>
        <time>2021-04-07T10:31:55Z</time>
      </trkpt>
      <trkpt lat="44.51254" lon="6.59233">
        <ele>1661</ele>
        <time>2021-04-07T10:31:56Z</time>
      </trkpt>
      <trkpt lat="44.51254" lon="6.59232">
        <ele>1660</ele>
        <time>2021-04-07T10:31:57Z</time>
      </trkpt>
      <trkpt lat="44.51254" lon="6.59232">
        <ele>1660</ele>
        <time>2021-04-07T10:31:58Z</time>
      </trkpt>
      <trkpt lat="44.51253" lon="6.59229">
        <ele>1659</ele>
        <time>2021-04-07T10:31:59Z</time>
      </trkpt>
      <trkpt lat="44.51253" lon="6.59226">
        <ele>1659</ele>
        <time>2021-04-07T10:32:00Z</time>
      </trkpt>
      <trkpt lat="44.51253" lon="6.59224">
        <ele>1659</ele>
        <time>2021-04-07T10:32:01Z</time>
      </trkpt>
      <trkpt lat="44.51253" lon="6.59223">
        <ele>1659</ele>
        <time>2021-04-07T10:32:02Z</time>
      </trkpt>
      <trkpt lat="44.51252" lon="6.59221">
        <ele>1658</ele>
        <time>2021-04-07T10:32:03Z</time>
      </trkpt>
      <trkpt lat="44.51252" lon="6.59219">
        <ele>1658</ele>
        <time>2021-04-07T10:32:04Z</time>
      </trkpt>
      <trkpt lat="44.51252" lon="6.59217">
        <ele>1658</ele>
        <time>2021-04-07T10:32:05Z</time>
      </trkpt>
      <trkpt lat="44.51253" lon="6.59217">
        <ele>1658</ele>
        <time>2021-04-07T10:32:06Z</time>
      </trkpt>
      <trkpt lat="44.51253" lon="6.59217">
        <ele>1658</ele>
        <time>2021-04-07T10:32:07Z</time>
      </trkpt>
      <trkpt lat="44.51253" lon="6.59213">
        <ele>1658</ele>
        <time>2021-04-07T10:32:08Z</time>
      </trkpt>
      <trkpt lat="44.51255" lon="6.59211">
        <ele>1658</ele>
        <time>2021-04-07T10:32:09Z</time>
      </trkpt>
      <trkpt lat="44.51255" lon="6.59209">
        <ele>1658</ele>
        <time>2021-04-07T10:32:10Z</time>
      </trkpt>
      <trkpt lat="44.51256" lon="6.59207">
        <ele>1658</ele>
        <time>2021-04-07T10:32:11Z</time>
      </trkpt>
      <trkpt lat="44.51257" lon="6.59205">
        <ele>1658</ele>
        <time>2021-04-07T10:32:12Z</time>
      </trkpt>
      <trkpt lat="44.51257" lon="6.59203">
        <ele>1658</ele>
        <time>2021-04-07T10:32:13Z</time>
      </trkpt>
      <trkpt lat="44.51258" lon="6.59202">
        <ele>1657</ele>
        <time>2021-04-07T10:32:14Z</time>
      </trkpt>
      <trkpt lat="44.51259" lon="6.59201">
        <ele>1657</ele>
        <time>2021-04-07T10:32:15Z</time>
      </trkpt>
      <trkpt lat="44.5126" lon="6.59199">
        <ele>1657</ele>
        <time>2021-04-07T10:32:16Z</time>
      </trkpt>
      <trkpt lat="44.51261" lon="6.59198">
        <ele>1657</ele>
        <time>2021-04-07T10:32:17Z</time>
      </trkpt>
      <trkpt lat="44.51261" lon="6.59197">
        <ele>1657</ele>
        <time>2021-04-07T10:32:18Z</time>
      </trkpt>
      <trkpt lat="44.51261" lon="6.59196">
        <ele>1657</ele>
        <time>2021-04-07T10:32:19Z</time>
      </trkpt>
      <trkpt lat="44.51262" lon="6.59195">
        <ele>1657</ele>
        <time>2021-04-07T10:32:20Z</time>
      </trkpt>
      <trkpt lat="44.51262" lon="6.59195">
        <ele>1657</ele>
        <time>2021-04-07T10:32:21Z</time>
      </trkpt>
      <trkpt lat="44.51263" lon="6.59193">
        <ele>1657</ele>
        <time>2021-04-07T10:32:22Z</time>
      </trkpt>
      <trkpt lat="44.51264" lon="6.59192">
        <ele>1656</ele>
        <time>2021-04-07T10:32:23Z</time>
      </trkpt>
      <trkpt lat="44.51265" lon="6.59191">
        <ele>1656</ele>
        <time>2021-04-07T10:32:24Z</time>
      </trkpt>
      <trkpt lat="44.51265" lon="6.5919">
        <ele>1656</ele>
        <time>2021-04-07T10:32:25Z</time>
      </trkpt>
      <trkpt lat="44.51267" lon="6.59189">
        <ele>1656</ele>
        <time>2021-04-07T10:32:26Z</time>
      </trkpt>
      <trkpt lat="44.51267" lon="6.59188">
        <ele>1656</ele>
        <time>2021-04-07T10:32:27Z</time>
      </trkpt>
      <trkpt lat="44.51268" lon="6.59187">
        <ele>1656</ele>
        <time>2021-04-07T10:32:28Z</time>
      </trkpt>
      <trkpt lat="44.51269" lon="6.59187">
        <ele>1656</ele>
        <time>2021-04-07T10:32:29Z</time>
      </trkpt>
      <trkpt lat="44.51269" lon="6.59187">
        <ele>1656</ele>
        <time>2021-04-07T10:32:30Z</time>
      </trkpt>
      <trkpt lat="44.51269" lon="6.59187">
        <ele>1656</ele>
        <time>2021-04-07T10:32:31Z</time>
      </trkpt>
      <trkpt lat="44.51269" lon="6.59187">
        <ele>1656</ele>
        <time>2021-04-07T10:32:32Z</time>
      </trkpt>
      <trkpt lat="44.51272" lon="6.59183">
        <ele>1655</ele>
        <time>2021-04-07T10:32:33Z</time>
      </trkpt>
      <trkpt lat="44.51273" lon="6.59181">
        <ele>1655</ele>
        <time>2021-04-07T10:32:34Z</time>
      </trkpt>
      <trkpt lat="44.51273" lon="6.5918">
        <ele>1655</ele>
        <time>2021-04-07T10:32:35Z</time>
      </trkpt>
      <trkpt lat="44.51274" lon="6.59179">
        <ele>1655</ele>
        <time>2021-04-07T10:32:36Z</time>
      </trkpt>
      <trkpt lat="44.51275" lon="6.59178">
        <ele>1654</ele>
        <time>2021-04-07T10:32:37Z</time>
      </trkpt>
      <trkpt lat="44.51277" lon="6.59177">
        <ele>1654</ele>
        <time>2021-04-07T10:32:38Z</time>
      </trkpt>
      <trkpt lat="44.51278" lon="6.59176">
        <ele>1654</ele>
        <time>2021-04-07T10:32:39Z</time>
      </trkpt>
      <trkpt lat="44.51279" lon="6.59175">
        <ele>1654</ele>
        <time>2021-04-07T10:32:40Z</time>
      </trkpt>
      <trkpt lat="44.51279" lon="6.59174">
        <ele>1654</ele>
        <time>2021-04-07T10:32:41Z</time>
      </trkpt>
      <trkpt lat="44.5128" lon="6.59173">
        <ele>1654</ele>
        <time>2021-04-07T10:32:42Z</time>
      </trkpt>
      <trkpt lat="44.51281" lon="6.59172">
        <ele>1654</ele>
        <time>2021-04-07T10:32:43Z</time>
      </trkpt>
      <trkpt lat="44.51281" lon="6.59171">
        <ele>1654</ele>
        <time>2021-04-07T10:32:44Z</time>
      </trkpt>
      <trkpt lat="44.51281" lon="6.59169">
        <ele>1654</ele>
        <time>2021-04-07T10:32:45Z</time>
      </trkpt>
      <trkpt lat="44.51281" lon="6.59167">
        <ele>1654</ele>
        <time>2021-04-07T10:32:46Z</time>
      </trkpt>
      <trkpt lat="44.51282" lon="6.59166">
        <ele>1654</ele>
        <time>2021-04-07T10:32:47Z</time>
      </trkpt>
      <trkpt lat="44.51282" lon="6.59165">
        <ele>1654</ele>
        <time>2021-04-07T10:32:48Z</time>
      </trkpt>
      <trkpt lat="44.51282" lon="6.59163">
        <ele>1653</ele>
        <time>2021-04-07T10:32:49Z</time>
      </trkpt>
      <trkpt lat="44.51281" lon="6.59162">
        <ele>1653</ele>
        <time>2021-04-07T10:32:50Z</time>
      </trkpt>
      <trkpt lat="44.51282" lon="6.5916">
        <ele>1652</ele>
        <time>2021-04-07T10:32:51Z</time>
      </trkpt>
      <trkpt lat="44.51283" lon="6.59158">
        <ele>1652</ele>
        <time>2021-04-07T10:32:52Z</time>
      </trkpt>
      <trkpt lat="44.51283" lon="6.59157">
        <ele>1650</ele>
        <time>2021-04-07T10:32:53Z</time>
      </trkpt>
      <trkpt lat="44.51283" lon="6.59156">
        <ele>1650</ele>
        <time>2021-04-07T10:32:54Z</time>
      </trkpt>
      <trkpt lat="44.51285" lon="6.59155">
        <ele>1649</ele>
        <time>2021-04-07T10:32:55Z</time>
      </trkpt>
      <trkpt lat="44.51286" lon="6.59154">
        <ele>1649</ele>
        <time>2021-04-07T10:32:56Z</time>
      </trkpt>
      <trkpt lat="44.51288" lon="6.59154">
        <ele>1648</ele>
        <time>2021-04-07T10:32:57Z</time>
      </trkpt>
      <trkpt lat="44.51291" lon="6.59153">
        <ele>1648</ele>
        <time>2021-04-07T10:32:58Z</time>
      </trkpt>
      <trkpt lat="44.51292" lon="6.59153">
        <ele>1648</ele>
        <time>2021-04-07T10:32:59Z</time>
      </trkpt>
      <trkpt lat="44.51293" lon="6.59152">
        <ele>1648</ele>
        <time>2021-04-07T10:33:00Z</time>
      </trkpt>
      <trkpt lat="44.51294" lon="6.59151">
        <ele>1647</ele>
        <time>2021-04-07T10:33:01Z</time>
      </trkpt>
      <trkpt lat="44.51295" lon="6.5915">
        <ele>1647</ele>
        <time>2021-04-07T10:33:02Z</time>
      </trkpt>
      <trkpt lat="44.51295" lon="6.59149">
        <ele>1647</ele>
        <time>2021-04-07T10:33:03Z</time>
      </trkpt>
      <trkpt lat="44.51295" lon="6.59149">
        <ele>1647</ele>
        <time>2021-04-07T10:33:04Z</time>
      </trkpt>
      <trkpt lat="44.51295" lon="6.59149">
        <ele>1647</ele>
        <time>2021-04-07T10:33:05Z</time>
      </trkpt>
      <trkpt lat="44.51295" lon="6.59149">
        <ele>1647</ele>
        <time>2021-04-07T10:33:06Z</time>
      </trkpt>
      <trkpt lat="44.51295" lon="6.59149">
        <ele>1647</ele>
        <time>2021-04-07T10:33:07Z</time>
      </trkpt>
      <trkpt lat="44.51296" lon="6.59143">
        <ele>1646</ele>
        <time>2021-04-07T10:33:08Z</time>
      </trkpt>
      <trkpt lat="44.51297" lon="6.59141">
        <ele>1646</ele>
        <time>2021-04-07T10:33:09Z</time>
      </trkpt>
      <trkpt lat="44.51298" lon="6.5914">
        <ele>1646</ele>
        <time>2021-04-07T10:33:10Z</time>
      </trkpt>
      <trkpt lat="44.51298" lon="6.59138">
        <ele>1646</ele>
        <time>2021-04-07T10:33:11Z</time>
      </trkpt>
      <trkpt lat="44.51299" lon="6.59137">
        <ele>1647</ele>
        <time>2021-04-07T10:33:12Z</time>
      </trkpt>
      <trkpt lat="44.513" lon="6.59136">
        <ele>1647</ele>
        <time>2021-04-07T10:33:13Z</time>
      </trkpt>
      <trkpt lat="44.51301" lon="6.59135">
        <ele>1647</ele>
        <time>2021-04-07T10:33:14Z</time>
      </trkpt>
      <trkpt lat="44.51303" lon="6.59134">
        <ele>1648</ele>
        <time>2021-04-07T10:33:15Z</time>
      </trkpt>
      <trkpt lat="44.51303" lon="6.59133">
        <ele>1648</ele>
        <time>2021-04-07T10:33:16Z</time>
      </trkpt>
      <trkpt lat="44.51302" lon="6.59132">
        <ele>1649</ele>
        <time>2021-04-07T10:33:17Z</time>
      </trkpt>
      <trkpt lat="44.51303" lon="6.59131">
        <ele>1649</ele>
        <time>2021-04-07T10:33:18Z</time>
      </trkpt>
      <trkpt lat="44.51302" lon="6.5913">
        <ele>1649</ele>
        <time>2021-04-07T10:33:19Z</time>
      </trkpt>
      <trkpt lat="44.51302" lon="6.5913">
        <ele>1649</ele>
        <time>2021-04-07T10:33:20Z</time>
      </trkpt>
      <trkpt lat="44.51302" lon="6.5913">
        <ele>1649</ele>
        <time>2021-04-07T10:33:21Z</time>
      </trkpt>
      <trkpt lat="44.51301" lon="6.59125">
        <ele>1649</ele>
        <time>2021-04-07T10:33:22Z</time>
      </trkpt>
      <trkpt lat="44.513" lon="6.59123">
        <ele>1649</ele>
        <time>2021-04-07T10:33:23Z</time>
      </trkpt>
      <trkpt lat="44.513" lon="6.59121">
        <ele>1649</ele>
        <time>2021-04-07T10:33:24Z</time>
      </trkpt>
      <trkpt lat="44.51299" lon="6.5912">
        <ele>1649</ele>
        <time>2021-04-07T10:33:25Z</time>
      </trkpt>
      <trkpt lat="44.51299" lon="6.59118">
        <ele>1649</ele>
        <time>2021-04-07T10:33:26Z</time>
      </trkpt>
      <trkpt lat="44.51299" lon="6.59117">
        <ele>1649</ele>
        <time>2021-04-07T10:33:27Z</time>
      </trkpt>
      <trkpt lat="44.51299" lon="6.59116">
        <ele>1649</ele>
        <time>2021-04-07T10:33:28Z</time>
      </trkpt>
      <trkpt lat="44.513" lon="6.59114">
        <ele>1649</ele>
        <time>2021-04-07T10:33:29Z</time>
      </trkpt>
      <trkpt lat="44.513" lon="6.59112">
        <ele>1649</ele>
        <time>2021-04-07T10:33:30Z</time>
      </trkpt>
      <trkpt lat="44.513" lon="6.59111">
        <ele>1649</ele>
        <time>2021-04-07T10:33:31Z</time>
      </trkpt>
      <trkpt lat="44.513" lon="6.59109">
        <ele>1649</ele>
        <time>2021-04-07T10:33:32Z</time>
      </trkpt>
      <trkpt lat="44.513" lon="6.59108">
        <ele>1649</ele>
        <time>2021-04-07T10:33:33Z</time>
      </trkpt>
      <trkpt lat="44.513" lon="6.59107">
        <ele>1649</ele>
        <time>2021-04-07T10:33:34Z</time>
      </trkpt>
      <trkpt lat="44.513" lon="6.59106">
        <ele>1649</ele>
        <time>2021-04-07T10:33:35Z</time>
      </trkpt>
      <trkpt lat="44.513" lon="6.59104">
        <ele>1649</ele>
        <time>2021-04-07T10:33:36Z</time>
      </trkpt>
      <trkpt lat="44.51299" lon="6.59103">
        <ele>1649</ele>
        <time>2021-04-07T10:33:37Z</time>
      </trkpt>
      <trkpt lat="44.51299" lon="6.59101">
        <ele>1649</ele>
        <time>2021-04-07T10:33:38Z</time>
      </trkpt>
      <trkpt lat="44.51298" lon="6.591">
        <ele>1649</ele>
        <time>2021-04-07T10:33:39Z</time>
      </trkpt>
      <trkpt lat="44.51298" lon="6.59099">
        <ele>1648</ele>
        <time>2021-04-07T10:33:40Z</time>
      </trkpt>
      <trkpt lat="44.51298" lon="6.59097">
        <ele>1648</ele>
        <time>2021-04-07T10:33:41Z</time>
      </trkpt>
      <trkpt lat="44.51298" lon="6.59096">
        <ele>1648</ele>
        <time>2021-04-07T10:33:42Z</time>
      </trkpt>
      <trkpt lat="44.51297" lon="6.59095">
        <ele>1648</ele>
        <time>2021-04-07T10:33:43Z</time>
      </trkpt>
      <trkpt lat="44.51297" lon="6.59094">
        <ele>1648</ele>
        <time>2021-04-07T10:33:44Z</time>
      </trkpt>
      <trkpt lat="44.51297" lon="6.59092">
        <ele>1648</ele>
        <time>2021-04-07T10:33:45Z</time>
      </trkpt>
      <trkpt lat="44.51298" lon="6.5909">
        <ele>1647</ele>
        <time>2021-04-07T10:33:46Z</time>
      </trkpt>
      <trkpt lat="44.51297" lon="6.59088">
        <ele>1647</ele>
        <time>2021-04-07T10:33:47Z</time>
      </trkpt>
      <trkpt lat="44.51297" lon="6.59087">
        <ele>1647</ele>
        <time>2021-04-07T10:33:48Z</time>
      </trkpt>
      <trkpt lat="44.51296" lon="6.59085">
        <ele>1647</ele>
        <time>2021-04-07T10:33:49Z</time>
      </trkpt>
      <trkpt lat="44.51296" lon="6.59084">
        <ele>1647</ele>
        <time>2021-04-07T10:33:50Z</time>
      </trkpt>
      <trkpt lat="44.51296" lon="6.59084">
        <ele>1647</ele>
        <time>2021-04-07T10:33:51Z</time>
      </trkpt>
      <trkpt lat="44.51296" lon="6.59081">
        <ele>1647</ele>
        <time>2021-04-07T10:33:52Z</time>
      </trkpt>
      <trkpt lat="44.51296" lon="6.5908">
        <ele>1646</ele>
        <time>2021-04-07T10:33:53Z</time>
      </trkpt>
      <trkpt lat="44.51297" lon="6.59078">
        <ele>1646</ele>
        <time>2021-04-07T10:33:54Z</time>
      </trkpt>
      <trkpt lat="44.51297" lon="6.59077">
        <ele>1646</ele>
        <time>2021-04-07T10:33:55Z</time>
      </trkpt>
      <trkpt lat="44.51297" lon="6.59076">
        <ele>1646</ele>
        <time>2021-04-07T10:33:56Z</time>
      </trkpt>
      <trkpt lat="44.51298" lon="6.59075">
        <ele>1646</ele>
        <time>2021-04-07T10:33:57Z</time>
      </trkpt>
      <trkpt lat="44.51298" lon="6.59074">
        <ele>1645</ele>
        <time>2021-04-07T10:33:58Z</time>
      </trkpt>
      <trkpt lat="44.51298" lon="6.59072">
        <ele>1645</ele>
        <time>2021-04-07T10:33:59Z</time>
      </trkpt>
      <trkpt lat="44.51298" lon="6.59072">
        <ele>1645</ele>
        <time>2021-04-07T10:34:00Z</time>
      </trkpt>
      <trkpt lat="44.51298" lon="6.59072">
        <ele>1645</ele>
        <time>2021-04-07T10:34:01Z</time>
      </trkpt>
      <trkpt lat="44.51298" lon="6.59072">
        <ele>1645</ele>
        <time>2021-04-07T10:34:02Z</time>
      </trkpt>
      <trkpt lat="44.51298" lon="6.59072">
        <ele>1645</ele>
        <time>2021-04-07T10:34:03Z</time>
      </trkpt>
      <trkpt lat="44.51298" lon="6.59072">
        <ele>1645</ele>
        <time>2021-04-07T10:34:04Z</time>
      </trkpt>
      <trkpt lat="44.51298" lon="6.59072">
        <ele>1645</ele>
        <time>2021-04-07T10:34:05Z</time>
      </trkpt>
      <trkpt lat="44.51304" lon="6.5907">
        <ele>1645</ele>
        <time>2021-04-07T10:34:06Z</time>
      </trkpt>
      <trkpt lat="44.51305" lon="6.5907">
        <ele>1644</ele>
        <time>2021-04-07T10:34:07Z</time>
      </trkpt>
      <trkpt lat="44.51305" lon="6.5907">
        <ele>1644</ele>
        <time>2021-04-07T10:34:08Z</time>
      </trkpt>
      <trkpt lat="44.51306" lon="6.59071">
        <ele>1644</ele>
        <time>2021-04-07T10:34:09Z</time>
      </trkpt>
      <trkpt lat="44.51306" lon="6.59071">
        <ele>1644</ele>
        <time>2021-04-07T10:34:10Z</time>
      </trkpt>
      <trkpt lat="44.51307" lon="6.59073">
        <ele>1644</ele>
        <time>2021-04-07T10:34:11Z</time>
      </trkpt>
      <trkpt lat="44.51308" lon="6.59074">
        <ele>1643</ele>
        <time>2021-04-07T10:34:12Z</time>
      </trkpt>
      <trkpt lat="44.51309" lon="6.59075">
        <ele>1643</ele>
        <time>2021-04-07T10:34:13Z</time>
      </trkpt>
      <trkpt lat="44.5131" lon="6.59076">
        <ele>1643</ele>
        <time>2021-04-07T10:34:14Z</time>
      </trkpt>
      <trkpt lat="44.5131" lon="6.59078">
        <ele>1643</ele>
        <time>2021-04-07T10:34:15Z</time>
      </trkpt>
      <trkpt lat="44.5131" lon="6.59079">
        <ele>1643</ele>
        <time>2021-04-07T10:34:16Z</time>
      </trkpt>
      <trkpt lat="44.5131" lon="6.59081">
        <ele>1643</ele>
        <time>2021-04-07T10:34:17Z</time>
      </trkpt>
      <trkpt lat="44.5131" lon="6.59082">
        <ele>1643</ele>
        <time>2021-04-07T10:34:18Z</time>
      </trkpt>
      <trkpt lat="44.51311" lon="6.59083">
        <ele>1643</ele>
        <time>2021-04-07T10:34:19Z</time>
      </trkpt>
      <trkpt lat="44.51312" lon="6.59085">
        <ele>1643</ele>
        <time>2021-04-07T10:34:20Z</time>
      </trkpt>
      <trkpt lat="44.51313" lon="6.59086">
        <ele>1643</ele>
        <time>2021-04-07T10:34:21Z</time>
      </trkpt>
      <trkpt lat="44.51314" lon="6.59088">
        <ele>1643</ele>
        <time>2021-04-07T10:34:22Z</time>
      </trkpt>
      <trkpt lat="44.51315" lon="6.59089">
        <ele>1643</ele>
        <time>2021-04-07T10:34:23Z</time>
      </trkpt>
      <trkpt lat="44.51315" lon="6.5909">
        <ele>1642</ele>
        <time>2021-04-07T10:34:24Z</time>
      </trkpt>
      <trkpt lat="44.51316" lon="6.59091">
        <ele>1642</ele>
        <time>2021-04-07T10:34:25Z</time>
      </trkpt>
      <trkpt lat="44.51316" lon="6.59091">
        <ele>1642</ele>
        <time>2021-04-07T10:34:26Z</time>
      </trkpt>
      <trkpt lat="44.51316" lon="6.59091">
        <ele>1642</ele>
        <time>2021-04-07T10:34:27Z</time>
      </trkpt>
      <trkpt lat="44.51319" lon="6.59095">
        <ele>1642</ele>
        <time>2021-04-07T10:34:28Z</time>
      </trkpt>
      <trkpt lat="44.5132" lon="6.59096">
        <ele>1642</ele>
        <time>2021-04-07T10:34:29Z</time>
      </trkpt>
      <trkpt lat="44.51321" lon="6.59097">
        <ele>1642</ele>
        <time>2021-04-07T10:34:30Z</time>
      </trkpt>
      <trkpt lat="44.51321" lon="6.59097">
        <ele>1642</ele>
        <time>2021-04-07T10:34:31Z</time>
      </trkpt>
      <trkpt lat="44.51322" lon="6.59098">
        <ele>1641</ele>
        <time>2021-04-07T10:34:32Z</time>
      </trkpt>
      <trkpt lat="44.51322" lon="6.591">
        <ele>1641</ele>
        <time>2021-04-07T10:34:33Z</time>
      </trkpt>
      <trkpt lat="44.51322" lon="6.59101">
        <ele>1641</ele>
        <time>2021-04-07T10:34:34Z</time>
      </trkpt>
      <trkpt lat="44.51323" lon="6.59103">
        <ele>1641</ele>
        <time>2021-04-07T10:34:35Z</time>
      </trkpt>
      <trkpt lat="44.51323" lon="6.59104">
        <ele>1641</ele>
        <time>2021-04-07T10:34:36Z</time>
      </trkpt>
      <trkpt lat="44.51324" lon="6.59104">
        <ele>1640</ele>
        <time>2021-04-07T10:34:37Z</time>
      </trkpt>
      <trkpt lat="44.51324" lon="6.59104">
        <ele>1640</ele>
        <time>2021-04-07T10:34:38Z</time>
      </trkpt>
      <trkpt lat="44.51326" lon="6.59106">
        <ele>1640</ele>
        <time>2021-04-07T10:34:39Z</time>
      </trkpt>
      <trkpt lat="44.51325" lon="6.59107">
        <ele>1640</ele>
        <time>2021-04-07T10:34:40Z</time>
      </trkpt>
      <trkpt lat="44.51325" lon="6.59109">
        <ele>1639</ele>
        <time>2021-04-07T10:34:41Z</time>
      </trkpt>
      <trkpt lat="44.51325" lon="6.59111">
        <ele>1638</ele>
        <time>2021-04-07T10:34:42Z</time>
      </trkpt>
      <trkpt lat="44.51326" lon="6.59113">
        <ele>1638</ele>
        <time>2021-04-07T10:34:43Z</time>
      </trkpt>
      <trkpt lat="44.51327" lon="6.59114">
        <ele>1637</ele>
        <time>2021-04-07T10:34:44Z</time>
      </trkpt>
      <trkpt lat="44.51327" lon="6.59116">
        <ele>1637</ele>
        <time>2021-04-07T10:34:45Z</time>
      </trkpt>
      <trkpt lat="44.51328" lon="6.59117">
        <ele>1636</ele>
        <time>2021-04-07T10:34:46Z</time>
      </trkpt>
      <trkpt lat="44.51328" lon="6.59118">
        <ele>1636</ele>
        <time>2021-04-07T10:34:47Z</time>
      </trkpt>
      <trkpt lat="44.5133" lon="6.59119">
        <ele>1635</ele>
        <time>2021-04-07T10:34:48Z</time>
      </trkpt>
      <trkpt lat="44.51331" lon="6.5912">
        <ele>1635</ele>
        <time>2021-04-07T10:34:49Z</time>
      </trkpt>
      <trkpt lat="44.51331" lon="6.59121">
        <ele>1635</ele>
        <time>2021-04-07T10:34:50Z</time>
      </trkpt>
      <trkpt lat="44.51332" lon="6.59122">
        <ele>1635</ele>
        <time>2021-04-07T10:34:51Z</time>
      </trkpt>
      <trkpt lat="44.51332" lon="6.59122">
        <ele>1635</ele>
        <time>2021-04-07T10:34:52Z</time>
      </trkpt>
      <trkpt lat="44.51334" lon="6.59123">
        <ele>1634</ele>
        <time>2021-04-07T10:34:53Z</time>
      </trkpt>
      <trkpt lat="44.51335" lon="6.59124">
        <ele>1633</ele>
        <time>2021-04-07T10:34:54Z</time>
      </trkpt>
      <trkpt lat="44.51336" lon="6.59125">
        <ele>1633</ele>
        <time>2021-04-07T10:34:55Z</time>
      </trkpt>
      <trkpt lat="44.51337" lon="6.59126">
        <ele>1632</ele>
        <time>2021-04-07T10:34:56Z</time>
      </trkpt>
      <trkpt lat="44.51338" lon="6.59127">
        <ele>1632</ele>
        <time>2021-04-07T10:34:57Z</time>
      </trkpt>
      <trkpt lat="44.51339" lon="6.59128">
        <ele>1631</ele>
        <time>2021-04-07T10:34:58Z</time>
      </trkpt>
      <trkpt lat="44.5134" lon="6.5913">
        <ele>1630</ele>
        <time>2021-04-07T10:34:59Z</time>
      </trkpt>
      <trkpt lat="44.51341" lon="6.59131">
        <ele>1630</ele>
        <time>2021-04-07T10:35:00Z</time>
      </trkpt>
      <trkpt lat="44.51342" lon="6.59132">
        <ele>1630</ele>
        <time>2021-04-07T10:35:01Z</time>
      </trkpt>
      <trkpt lat="44.51342" lon="6.59133">
        <ele>1629</ele>
        <time>2021-04-07T10:35:02Z</time>
      </trkpt>
      <trkpt lat="44.51343" lon="6.59134">
        <ele>1629</ele>
        <time>2021-04-07T10:35:03Z</time>
      </trkpt>
      <trkpt lat="44.51344" lon="6.59136">
        <ele>1629</ele>
        <time>2021-04-07T10:35:04Z</time>
      </trkpt>
      <trkpt lat="44.51344" lon="6.59137">
        <ele>1629</ele>
        <time>2021-04-07T10:35:05Z</time>
      </trkpt>
      <trkpt lat="44.51344" lon="6.59139">
        <ele>1629</ele>
        <time>2021-04-07T10:35:06Z</time>
      </trkpt>
      <trkpt lat="44.51345" lon="6.5914">
        <ele>1628</ele>
        <time>2021-04-07T10:35:07Z</time>
      </trkpt>
      <trkpt lat="44.51345" lon="6.59142">
        <ele>1628</ele>
        <time>2021-04-07T10:35:08Z</time>
      </trkpt>
      <trkpt lat="44.51345" lon="6.59143">
        <ele>1628</ele>
        <time>2021-04-07T10:35:09Z</time>
      </trkpt>
      <trkpt lat="44.51346" lon="6.59143">
        <ele>1628</ele>
        <time>2021-04-07T10:35:10Z</time>
      </trkpt>
      <trkpt lat="44.51347" lon="6.59144">
        <ele>1628</ele>
        <time>2021-04-07T10:35:11Z</time>
      </trkpt>
      <trkpt lat="44.51348" lon="6.59144">
        <ele>1627</ele>
        <time>2021-04-07T10:35:12Z</time>
      </trkpt>
      <trkpt lat="44.51348" lon="6.59145">
        <ele>1627</ele>
        <time>2021-04-07T10:35:13Z</time>
      </trkpt>
      <trkpt lat="44.5135" lon="6.59145">
        <ele>1627</ele>
        <time>2021-04-07T10:35:14Z</time>
      </trkpt>
      <trkpt lat="44.5135" lon="6.59146">
        <ele>1627</ele>
        <time>2021-04-07T10:35:15Z</time>
      </trkpt>
      <trkpt lat="44.51351" lon="6.59147">
        <ele>1627</ele>
        <time>2021-04-07T10:35:16Z</time>
      </trkpt>
      <trkpt lat="44.51352" lon="6.59148">
        <ele>1626</ele>
        <time>2021-04-07T10:35:17Z</time>
      </trkpt>
      <trkpt lat="44.51354" lon="6.59149">
        <ele>1626</ele>
        <time>2021-04-07T10:35:18Z</time>
      </trkpt>
      <trkpt lat="44.51355" lon="6.59151">
        <ele>1626</ele>
        <time>2021-04-07T10:35:19Z</time>
      </trkpt>
      <trkpt lat="44.51356" lon="6.59152">
        <ele>1626</ele>
        <time>2021-04-07T10:35:20Z</time>
      </trkpt>
      <trkpt lat="44.51357" lon="6.59153">
        <ele>1626</ele>
        <time>2021-04-07T10:35:21Z</time>
      </trkpt>
      <trkpt lat="44.51357" lon="6.59154">
        <ele>1626</ele>
        <time>2021-04-07T10:35:22Z</time>
      </trkpt>
      <trkpt lat="44.51358" lon="6.59156">
        <ele>1625</ele>
        <time>2021-04-07T10:35:23Z</time>
      </trkpt>
      <trkpt lat="44.51359" lon="6.59157">
        <ele>1625</ele>
        <time>2021-04-07T10:35:24Z</time>
      </trkpt>
      <trkpt lat="44.5136" lon="6.59158">
        <ele>1625</ele>
        <time>2021-04-07T10:35:25Z</time>
      </trkpt>
      <trkpt lat="44.51361" lon="6.59159">
        <ele>1625</ele>
        <time>2021-04-07T10:35:26Z</time>
      </trkpt>
      <trkpt lat="44.51361" lon="6.59161">
        <ele>1625</ele>
        <time>2021-04-07T10:35:27Z</time>
      </trkpt>
      <trkpt lat="44.51361" lon="6.59163">
        <ele>1625</ele>
        <time>2021-04-07T10:35:28Z</time>
      </trkpt>
      <trkpt lat="44.51362" lon="6.59164">
        <ele>1625</ele>
        <time>2021-04-07T10:35:29Z</time>
      </trkpt>
      <trkpt lat="44.51364" lon="6.59165">
        <ele>1625</ele>
        <time>2021-04-07T10:35:30Z</time>
      </trkpt>
      <trkpt lat="44.51365" lon="6.59166">
        <ele>1625</ele>
        <time>2021-04-07T10:35:31Z</time>
      </trkpt>
      <trkpt lat="44.51366" lon="6.59168">
        <ele>1625</ele>
        <time>2021-04-07T10:35:32Z</time>
      </trkpt>
      <trkpt lat="44.51366" lon="6.5917">
        <ele>1625</ele>
        <time>2021-04-07T10:35:33Z</time>
      </trkpt>
      <trkpt lat="44.51367" lon="6.59171">
        <ele>1625</ele>
        <time>2021-04-07T10:35:34Z</time>
      </trkpt>
      <trkpt lat="44.51367" lon="6.59172">
        <ele>1624</ele>
        <time>2021-04-07T10:35:35Z</time>
      </trkpt>
      <trkpt lat="44.51368" lon="6.59174">
        <ele>1624</ele>
        <time>2021-04-07T10:35:36Z</time>
      </trkpt>
      <trkpt lat="44.51368" lon="6.59175">
        <ele>1624</ele>
        <time>2021-04-07T10:35:37Z</time>
      </trkpt>
      <trkpt lat="44.51368" lon="6.59177">
        <ele>1624</ele>
        <time>2021-04-07T10:35:38Z</time>
      </trkpt>
      <trkpt lat="44.51369" lon="6.59179">
        <ele>1624</ele>
        <time>2021-04-07T10:35:39Z</time>
      </trkpt>
      <trkpt lat="44.51369" lon="6.59181">
        <ele>1624</ele>
        <time>2021-04-07T10:35:40Z</time>
      </trkpt>
      <trkpt lat="44.5137" lon="6.59182">
        <ele>1624</ele>
        <time>2021-04-07T10:35:41Z</time>
      </trkpt>
      <trkpt lat="44.5137" lon="6.59183">
        <ele>1624</ele>
        <time>2021-04-07T10:35:42Z</time>
      </trkpt>
      <trkpt lat="44.51371" lon="6.59184">
        <ele>1624</ele>
        <time>2021-04-07T10:35:43Z</time>
      </trkpt>
      <trkpt lat="44.51372" lon="6.59185">
        <ele>1624</ele>
        <time>2021-04-07T10:35:44Z</time>
      </trkpt>
      <trkpt lat="44.51373" lon="6.59186">
        <ele>1624</ele>
        <time>2021-04-07T10:35:45Z</time>
      </trkpt>
      <trkpt lat="44.51373" lon="6.59187">
        <ele>1624</ele>
        <time>2021-04-07T10:35:46Z</time>
      </trkpt>
      <trkpt lat="44.51374" lon="6.59188">
        <ele>1624</ele>
        <time>2021-04-07T10:35:47Z</time>
      </trkpt>
      <trkpt lat="44.51375" lon="6.59189">
        <ele>1624</ele>
        <time>2021-04-07T10:35:48Z</time>
      </trkpt>
      <trkpt lat="44.51376" lon="6.59191">
        <ele>1624</ele>
        <time>2021-04-07T10:35:49Z</time>
      </trkpt>
      <trkpt lat="44.51377" lon="6.59192">
        <ele>1623</ele>
        <time>2021-04-07T10:35:50Z</time>
      </trkpt>
      <trkpt lat="44.51378" lon="6.59194">
        <ele>1623</ele>
        <time>2021-04-07T10:35:51Z</time>
      </trkpt>
      <trkpt lat="44.51378" lon="6.59195">
        <ele>1623</ele>
        <time>2021-04-07T10:35:52Z</time>
      </trkpt>
      <trkpt lat="44.51379" lon="6.59195">
        <ele>1623</ele>
        <time>2021-04-07T10:35:53Z</time>
      </trkpt>
      <trkpt lat="44.51379" lon="6.59195">
        <ele>1623</ele>
        <time>2021-04-07T10:35:54Z</time>
      </trkpt>
      <trkpt lat="44.51379" lon="6.59195">
        <ele>1622</ele>
        <time>2021-04-07T10:35:55Z</time>
      </trkpt>
      <trkpt lat="44.51381" lon="6.592">
        <ele>1622</ele>
        <time>2021-04-07T10:35:56Z</time>
      </trkpt>
      <trkpt lat="44.51381" lon="6.59202">
        <ele>1622</ele>
        <time>2021-04-07T10:35:57Z</time>
      </trkpt>
      <trkpt lat="44.51382" lon="6.59204">
        <ele>1622</ele>
        <time>2021-04-07T10:35:58Z</time>
      </trkpt>
      <trkpt lat="44.51381" lon="6.59207">
        <ele>1622</ele>
        <time>2021-04-07T10:35:59Z</time>
      </trkpt>
      <trkpt lat="44.51382" lon="6.59208">
        <ele>1622</ele>
        <time>2021-04-07T10:36:00Z</time>
      </trkpt>
      <trkpt lat="44.51382" lon="6.59209">
        <ele>1622</ele>
        <time>2021-04-07T10:36:01Z</time>
      </trkpt>
      <trkpt lat="44.51382" lon="6.59211">
        <ele>1622</ele>
        <time>2021-04-07T10:36:02Z</time>
      </trkpt>
      <trkpt lat="44.51383" lon="6.59213">
        <ele>1621</ele>
        <time>2021-04-07T10:36:03Z</time>
      </trkpt>
      <trkpt lat="44.51383" lon="6.59215">
        <ele>1621</ele>
        <time>2021-04-07T10:36:04Z</time>
      </trkpt>
      <trkpt lat="44.51383" lon="6.59217">
        <ele>1621</ele>
        <time>2021-04-07T10:36:05Z</time>
      </trkpt>
      <trkpt lat="44.51384" lon="6.59219">
        <ele>1621</ele>
        <time>2021-04-07T10:36:06Z</time>
      </trkpt>
      <trkpt lat="44.51384" lon="6.5922">
        <ele>1622</ele>
        <time>2021-04-07T10:36:07Z</time>
      </trkpt>
      <trkpt lat="44.51384" lon="6.59222">
        <ele>1622</ele>
        <time>2021-04-07T10:36:08Z</time>
      </trkpt>
      <trkpt lat="44.51385" lon="6.59222">
        <ele>1622</ele>
        <time>2021-04-07T10:36:09Z</time>
      </trkpt>
      <trkpt lat="44.51385" lon="6.59223">
        <ele>1622</ele>
        <time>2021-04-07T10:36:10Z</time>
      </trkpt>
      <trkpt lat="44.51386" lon="6.59223">
        <ele>1622</ele>
        <time>2021-04-07T10:36:11Z</time>
      </trkpt>
      <trkpt lat="44.51386" lon="6.59223">
        <ele>1622</ele>
        <time>2021-04-07T10:36:12Z</time>
      </trkpt>
      <trkpt lat="44.51388" lon="6.59227">
        <ele>1622</ele>
        <time>2021-04-07T10:36:13Z</time>
      </trkpt>
      <trkpt lat="44.5139" lon="6.59228">
        <ele>1621</ele>
        <time>2021-04-07T10:36:14Z</time>
      </trkpt>
      <trkpt lat="44.51391" lon="6.5923">
        <ele>1621</ele>
        <time>2021-04-07T10:36:15Z</time>
      </trkpt>
      <trkpt lat="44.51392" lon="6.59231">
        <ele>1621</ele>
        <time>2021-04-07T10:36:16Z</time>
      </trkpt>
      <trkpt lat="44.51392" lon="6.59231">
        <ele>1621</ele>
        <time>2021-04-07T10:36:17Z</time>
      </trkpt>
      <trkpt lat="44.51392" lon="6.59231">
        <ele>1621</ele>
        <time>2021-04-07T10:36:18Z</time>
      </trkpt>
      <trkpt lat="44.51392" lon="6.59231">
        <ele>1621</ele>
        <time>2021-04-07T10:36:19Z</time>
      </trkpt>
      <trkpt lat="44.51392" lon="6.59231">
        <ele>1621</ele>
        <time>2021-04-07T10:36:20Z</time>
      </trkpt>
      <trkpt lat="44.51392" lon="6.59231">
        <ele>1621</ele>
        <time>2021-04-07T10:36:21Z</time>
      </trkpt>
      <trkpt lat="44.51392" lon="6.59231">
        <ele>1621</ele>
        <time>2021-04-07T10:36:22Z</time>
      </trkpt>
      <trkpt lat="44.51392" lon="6.59231">
        <ele>1621</ele>
        <time>2021-04-07T10:36:23Z</time>
      </trkpt>
      <trkpt lat="44.51392" lon="6.59231">
        <ele>1621</ele>
        <time>2021-04-07T10:36:24Z</time>
      </trkpt>
      <trkpt lat="44.51392" lon="6.59231">
        <ele>1621</ele>
        <time>2021-04-07T10:36:25Z</time>
      </trkpt>
      <trkpt lat="44.51392" lon="6.59231">
        <ele>1621</ele>
        <time>2021-04-07T10:36:26Z</time>
      </trkpt>
      <trkpt lat="44.51392" lon="6.59231">
        <ele>1621</ele>
        <time>2021-04-07T10:36:27Z</time>
      </trkpt>
      <trkpt lat="44.51392" lon="6.59231">
        <ele>1621</ele>
        <time>2021-04-07T10:36:28Z</time>
      </trkpt>
      <trkpt lat="44.51392" lon="6.59231">
        <ele>1621</ele>
        <time>2021-04-07T10:36:29Z</time>
      </trkpt>
      <trkpt lat="44.51393" lon="6.59217">
        <ele>1617</ele>
        <time>2021-04-07T10:36:30Z</time>
      </trkpt>
      <trkpt lat="44.51395" lon="6.59215">
        <ele>1616</ele>
        <time>2021-04-07T10:36:31Z</time>
      </trkpt>
      <trkpt lat="44.51396" lon="6.59213">
        <ele>1614</ele>
        <time>2021-04-07T10:36:32Z</time>
      </trkpt>
      <trkpt lat="44.51396" lon="6.59212">
        <ele>1613</ele>
        <time>2021-04-07T10:36:33Z</time>
      </trkpt>
      <trkpt lat="44.51396" lon="6.5921">
        <ele>1613</ele>
        <time>2021-04-07T10:36:34Z</time>
      </trkpt>
      <trkpt lat="44.51396" lon="6.59209">
        <ele>1612</ele>
        <time>2021-04-07T10:36:35Z</time>
      </trkpt>
      <trkpt lat="44.51396" lon="6.59208">
        <ele>1612</ele>
        <time>2021-04-07T10:36:36Z</time>
      </trkpt>
      <trkpt lat="44.51396" lon="6.59206">
        <ele>1611</ele>
        <time>2021-04-07T10:36:37Z</time>
      </trkpt>
      <trkpt lat="44.51396" lon="6.59206">
        <ele>1610</ele>
        <time>2021-04-07T10:36:38Z</time>
      </trkpt>
      <trkpt lat="44.51396" lon="6.59206">
        <ele>1610</ele>
        <time>2021-04-07T10:36:39Z</time>
      </trkpt>
      <trkpt lat="44.51396" lon="6.59206">
        <ele>1610</ele>
        <time>2021-04-07T10:36:40Z</time>
      </trkpt>
      <trkpt lat="44.51396" lon="6.59206">
        <ele>1610</ele>
        <time>2021-04-07T10:36:41Z</time>
      </trkpt>
      <trkpt lat="44.51396" lon="6.59206">
        <ele>1610</ele>
        <time>2021-04-07T10:36:42Z</time>
      </trkpt>
      <trkpt lat="44.51396" lon="6.59206">
        <ele>1610</ele>
        <time>2021-04-07T10:36:43Z</time>
      </trkpt>
      <trkpt lat="44.51396" lon="6.59206">
        <ele>1610</ele>
        <time>2021-04-07T10:36:44Z</time>
      </trkpt>
      <trkpt lat="44.51399" lon="6.59195">
        <ele>1608</ele>
        <time>2021-04-07T10:36:45Z</time>
      </trkpt>
      <trkpt lat="44.51399" lon="6.59193">
        <ele>1608</ele>
        <time>2021-04-07T10:36:46Z</time>
      </trkpt>
      <trkpt lat="44.514" lon="6.59192">
        <ele>1608</ele>
        <time>2021-04-07T10:36:47Z</time>
      </trkpt>
      <trkpt lat="44.514" lon="6.59191">
        <ele>1607</ele>
        <time>2021-04-07T10:36:48Z</time>
      </trkpt>
      <trkpt lat="44.514" lon="6.59189">
        <ele>1607</ele>
        <time>2021-04-07T10:36:49Z</time>
      </trkpt>
      <trkpt lat="44.51399" lon="6.59187">
        <ele>1607</ele>
        <time>2021-04-07T10:36:50Z</time>
      </trkpt>
      <trkpt lat="44.51399" lon="6.59185">
        <ele>1607</ele>
        <time>2021-04-07T10:36:51Z</time>
      </trkpt>
      <trkpt lat="44.51399" lon="6.59184">
        <ele>1607</ele>
        <time>2021-04-07T10:36:52Z</time>
      </trkpt>
      <trkpt lat="44.51399" lon="6.59183">
        <ele>1607</ele>
        <time>2021-04-07T10:36:53Z</time>
      </trkpt>
      <trkpt lat="44.51399" lon="6.59181">
        <ele>1607</ele>
        <time>2021-04-07T10:36:54Z</time>
      </trkpt>
      <trkpt lat="44.51399" lon="6.59181">
        <ele>1607</ele>
        <time>2021-04-07T10:36:55Z</time>
      </trkpt>
      <trkpt lat="44.51399" lon="6.59181">
        <ele>1607</ele>
        <time>2021-04-07T10:36:56Z</time>
      </trkpt>
      <trkpt lat="44.51399" lon="6.59181">
        <ele>1607</ele>
        <time>2021-04-07T10:36:57Z</time>
      </trkpt>
      <trkpt lat="44.51401" lon="6.59176">
        <ele>1607</ele>
        <time>2021-04-07T10:36:58Z</time>
      </trkpt>
      <trkpt lat="44.51402" lon="6.59174">
        <ele>1607</ele>
        <time>2021-04-07T10:36:59Z</time>
      </trkpt>
      <trkpt lat="44.51402" lon="6.59172">
        <ele>1607</ele>
        <time>2021-04-07T10:37:00Z</time>
      </trkpt>
      <trkpt lat="44.51402" lon="6.59171">
        <ele>1606</ele>
        <time>2021-04-07T10:37:01Z</time>
      </trkpt>
      <trkpt lat="44.51402" lon="6.59169">
        <ele>1606</ele>
        <time>2021-04-07T10:37:02Z</time>
      </trkpt>
      <trkpt lat="44.51403" lon="6.59167">
        <ele>1606</ele>
        <time>2021-04-07T10:37:03Z</time>
      </trkpt>
      <trkpt lat="44.51403" lon="6.59166">
        <ele>1606</ele>
        <time>2021-04-07T10:37:04Z</time>
      </trkpt>
      <trkpt lat="44.51403" lon="6.59164">
        <ele>1606</ele>
        <time>2021-04-07T10:37:05Z</time>
      </trkpt>
      <trkpt lat="44.51404" lon="6.59163">
        <ele>1606</ele>
        <time>2021-04-07T10:37:06Z</time>
      </trkpt>
      <trkpt lat="44.51404" lon="6.59162">
        <ele>1606</ele>
        <time>2021-04-07T10:37:07Z</time>
      </trkpt>
      <trkpt lat="44.51404" lon="6.59161">
        <ele>1605</ele>
        <time>2021-04-07T10:37:08Z</time>
      </trkpt>
      <trkpt lat="44.51403" lon="6.5916">
        <ele>1605</ele>
        <time>2021-04-07T10:37:09Z</time>
      </trkpt>
      <trkpt lat="44.51403" lon="6.5916">
        <ele>1605</ele>
        <time>2021-04-07T10:37:10Z</time>
      </trkpt>
      <trkpt lat="44.51403" lon="6.59157">
        <ele>1605</ele>
        <time>2021-04-07T10:37:11Z</time>
      </trkpt>
      <trkpt lat="44.51403" lon="6.59155">
        <ele>1605</ele>
        <time>2021-04-07T10:37:12Z</time>
      </trkpt>
      <trkpt lat="44.51403" lon="6.59154">
        <ele>1605</ele>
        <time>2021-04-07T10:37:13Z</time>
      </trkpt>
      <trkpt lat="44.51403" lon="6.59153">
        <ele>1605</ele>
        <time>2021-04-07T10:37:14Z</time>
      </trkpt>
      <trkpt lat="44.51403" lon="6.59153">
        <ele>1605</ele>
        <time>2021-04-07T10:37:15Z</time>
      </trkpt>
      <trkpt lat="44.51403" lon="6.59153">
        <ele>1604</ele>
        <time>2021-04-07T10:37:16Z</time>
      </trkpt>
      <trkpt lat="44.51403" lon="6.59153">
        <ele>1604</ele>
        <time>2021-04-07T10:37:17Z</time>
      </trkpt>
      <trkpt lat="44.51403" lon="6.59153">
        <ele>1604</ele>
        <time>2021-04-07T10:37:18Z</time>
      </trkpt>
      <trkpt lat="44.51404" lon="6.59148">
        <ele>1604</ele>
        <time>2021-04-07T10:37:19Z</time>
      </trkpt>
      <trkpt lat="44.51402" lon="6.59147">
        <ele>1603</ele>
        <time>2021-04-07T10:37:20Z</time>
      </trkpt>
      <trkpt lat="44.51401" lon="6.59145">
        <ele>1603</ele>
        <time>2021-04-07T10:37:21Z</time>
      </trkpt>
      <trkpt lat="44.514" lon="6.59144">
        <ele>1603</ele>
        <time>2021-04-07T10:37:22Z</time>
      </trkpt>
      <trkpt lat="44.514" lon="6.59142">
        <ele>1603</ele>
        <time>2021-04-07T10:37:23Z</time>
      </trkpt>
      <trkpt lat="44.51399" lon="6.5914">
        <ele>1603</ele>
        <time>2021-04-07T10:37:24Z</time>
      </trkpt>
      <trkpt lat="44.51399" lon="6.59139">
        <ele>1602</ele>
        <time>2021-04-07T10:37:25Z</time>
      </trkpt>
      <trkpt lat="44.51399" lon="6.59137">
        <ele>1602</ele>
        <time>2021-04-07T10:37:26Z</time>
      </trkpt>
      <trkpt lat="44.51398" lon="6.59135">
        <ele>1602</ele>
        <time>2021-04-07T10:37:27Z</time>
      </trkpt>
      <trkpt lat="44.51397" lon="6.59134">
        <ele>1602</ele>
        <time>2021-04-07T10:37:28Z</time>
      </trkpt>
      <trkpt lat="44.51397" lon="6.59132">
        <ele>1601</ele>
        <time>2021-04-07T10:37:29Z</time>
      </trkpt>
      <trkpt lat="44.51397" lon="6.59131">
        <ele>1601</ele>
        <time>2021-04-07T10:37:30Z</time>
      </trkpt>
      <trkpt lat="44.51397" lon="6.59129">
        <ele>1601</ele>
        <time>2021-04-07T10:37:31Z</time>
      </trkpt>
      <trkpt lat="44.51396" lon="6.59128">
        <ele>1601</ele>
        <time>2021-04-07T10:37:32Z</time>
      </trkpt>
      <trkpt lat="44.51395" lon="6.59126">
        <ele>1600</ele>
        <time>2021-04-07T10:37:33Z</time>
      </trkpt>
      <trkpt lat="44.51395" lon="6.59125">
        <ele>1600</ele>
        <time>2021-04-07T10:37:34Z</time>
      </trkpt>
      <trkpt lat="44.51395" lon="6.59123">
        <ele>1599</ele>
        <time>2021-04-07T10:37:35Z</time>
      </trkpt>
      <trkpt lat="44.51394" lon="6.59121">
        <ele>1599</ele>
        <time>2021-04-07T10:37:36Z</time>
      </trkpt>
      <trkpt lat="44.51395" lon="6.59119">
        <ele>1599</ele>
        <time>2021-04-07T10:37:37Z</time>
      </trkpt>
      <trkpt lat="44.51395" lon="6.59117">
        <ele>1599</ele>
        <time>2021-04-07T10:37:38Z</time>
      </trkpt>
      <trkpt lat="44.51396" lon="6.59115">
        <ele>1599</ele>
        <time>2021-04-07T10:37:39Z</time>
      </trkpt>
      <trkpt lat="44.51396" lon="6.59114">
        <ele>1599</ele>
        <time>2021-04-07T10:37:40Z</time>
      </trkpt>
      <trkpt lat="44.51397" lon="6.59112">
        <ele>1599</ele>
        <time>2021-04-07T10:37:41Z</time>
      </trkpt>
      <trkpt lat="44.51397" lon="6.59111">
        <ele>1599</ele>
        <time>2021-04-07T10:37:42Z</time>
      </trkpt>
      <trkpt lat="44.51397" lon="6.59109">
        <ele>1599</ele>
        <time>2021-04-07T10:37:43Z</time>
      </trkpt>
      <trkpt lat="44.51397" lon="6.59107">
        <ele>1599</ele>
        <time>2021-04-07T10:37:44Z</time>
      </trkpt>
      <trkpt lat="44.51397" lon="6.59106">
        <ele>1599</ele>
        <time>2021-04-07T10:37:45Z</time>
      </trkpt>
      <trkpt lat="44.51398" lon="6.59105">
        <ele>1599</ele>
        <time>2021-04-07T10:37:46Z</time>
      </trkpt>
      <trkpt lat="44.51399" lon="6.59104">
        <ele>1599</ele>
        <time>2021-04-07T10:37:47Z</time>
      </trkpt>
      <trkpt lat="44.514" lon="6.59103">
        <ele>1599</ele>
        <time>2021-04-07T10:37:48Z</time>
      </trkpt>
      <trkpt lat="44.51401" lon="6.59103">
        <ele>1599</ele>
        <time>2021-04-07T10:37:49Z</time>
      </trkpt>
      <trkpt lat="44.51402" lon="6.59103">
        <ele>1599</ele>
        <time>2021-04-07T10:37:50Z</time>
      </trkpt>
      <trkpt lat="44.51403" lon="6.59103">
        <ele>1599</ele>
        <time>2021-04-07T10:37:51Z</time>
      </trkpt>
      <trkpt lat="44.51403" lon="6.59103">
        <ele>1600</ele>
        <time>2021-04-07T10:37:52Z</time>
      </trkpt>
      <trkpt lat="44.51404" lon="6.59104">
        <ele>1600</ele>
        <time>2021-04-07T10:37:53Z</time>
      </trkpt>
      <trkpt lat="44.51404" lon="6.59104">
        <ele>1601</ele>
        <time>2021-04-07T10:37:54Z</time>
      </trkpt>
      <trkpt lat="44.51405" lon="6.59104">
        <ele>1601</ele>
        <time>2021-04-07T10:37:55Z</time>
      </trkpt>
      <trkpt lat="44.51405" lon="6.59104">
        <ele>1601</ele>
        <time>2021-04-07T10:37:56Z</time>
      </trkpt>
      <trkpt lat="44.51405" lon="6.59104">
        <ele>1602</ele>
        <time>2021-04-07T10:37:57Z</time>
      </trkpt>
      <trkpt lat="44.51405" lon="6.59104">
        <ele>1602</ele>
        <time>2021-04-07T10:37:58Z</time>
      </trkpt>
      <trkpt lat="44.51405" lon="6.59104">
        <ele>1602</ele>
        <time>2021-04-07T10:37:59Z</time>
      </trkpt>
      <trkpt lat="44.51405" lon="6.59104">
        <ele>1602</ele>
        <time>2021-04-07T10:38:00Z</time>
      </trkpt>
      <trkpt lat="44.51405" lon="6.59104">
        <ele>1602</ele>
        <time>2021-04-07T10:38:01Z</time>
      </trkpt>
      <trkpt lat="44.51405" lon="6.59104">
        <ele>1602</ele>
        <time>2021-04-07T10:38:02Z</time>
      </trkpt>
      <trkpt lat="44.51405" lon="6.59104">
        <ele>1602</ele>
        <time>2021-04-07T10:38:03Z</time>
      </trkpt>
      <trkpt lat="44.51405" lon="6.59104">
        <ele>1602</ele>
        <time>2021-04-07T10:38:04Z</time>
      </trkpt>
      <trkpt lat="44.51405" lon="6.59104">
        <ele>1602</ele>
        <time>2021-04-07T10:38:05Z</time>
      </trkpt>
      <trkpt lat="44.51405" lon="6.59104">
        <ele>1602</ele>
        <time>2021-04-07T10:38:06Z</time>
      </trkpt>
      <trkpt lat="44.51408" lon="6.59111">
        <ele>1605</ele>
        <time>2021-04-07T10:38:07Z</time>
      </trkpt>
      <trkpt lat="44.51407" lon="6.59113">
        <ele>1606</ele>
        <time>2021-04-07T10:38:08Z</time>
      </trkpt>
      <trkpt lat="44.51407" lon="6.59115">
        <ele>1607</ele>
        <time>2021-04-07T10:38:09Z</time>
      </trkpt>
      <trkpt lat="44.51407" lon="6.59117">
        <ele>1608</ele>
        <time>2021-04-07T10:38:10Z</time>
      </trkpt>
      <trkpt lat="44.51408" lon="6.59119">
        <ele>1608</ele>
        <time>2021-04-07T10:38:11Z</time>
      </trkpt>
      <trkpt lat="44.51408" lon="6.5912">
        <ele>1608</ele>
        <time>2021-04-07T10:38:12Z</time>
      </trkpt>
      <trkpt lat="44.51408" lon="6.59121">
        <ele>1608</ele>
        <time>2021-04-07T10:38:13Z</time>
      </trkpt>
      <trkpt lat="44.51408" lon="6.59122">
        <ele>1609</ele>
        <time>2021-04-07T10:38:14Z</time>
      </trkpt>
      <trkpt lat="44.51408" lon="6.59122">
        <ele>1609</ele>
        <time>2021-04-07T10:38:15Z</time>
      </trkpt>
      <trkpt lat="44.51408" lon="6.59122">
        <ele>1609</ele>
        <time>2021-04-07T10:38:16Z</time>
      </trkpt>
      <trkpt lat="44.51408" lon="6.59122">
        <ele>1609</ele>
        <time>2021-04-07T10:38:17Z</time>
      </trkpt>
      <trkpt lat="44.51408" lon="6.59122">
        <ele>1609</ele>
        <time>2021-04-07T10:38:18Z</time>
      </trkpt>
      <trkpt lat="44.51408" lon="6.59122">
        <ele>1609</ele>
        <time>2021-04-07T10:38:19Z</time>
      </trkpt>
      <trkpt lat="44.51408" lon="6.59122">
        <ele>1609</ele>
        <time>2021-04-07T10:38:20Z</time>
      </trkpt>
      <trkpt lat="44.51408" lon="6.59122">
        <ele>1609</ele>
        <time>2021-04-07T10:38:21Z</time>
      </trkpt>
      <trkpt lat="44.51408" lon="6.59122">
        <ele>1609</ele>
        <time>2021-04-07T10:38:22Z</time>
      </trkpt>
      <trkpt lat="44.51408" lon="6.59122">
        <ele>1609</ele>
        <time>2021-04-07T10:38:23Z</time>
      </trkpt>
      <trkpt lat="44.51408" lon="6.59122">
        <ele>1609</ele>
        <time>2021-04-07T10:38:24Z</time>
      </trkpt>
      <trkpt lat="44.51408" lon="6.59122">
        <ele>1609</ele>
        <time>2021-04-07T10:38:25Z</time>
      </trkpt>
      <trkpt lat="44.51408" lon="6.59122">
        <ele>1609</ele>
        <time>2021-04-07T10:38:26Z</time>
      </trkpt>
      <trkpt lat="44.51408" lon="6.59122">
        <ele>1609</ele>
        <time>2021-04-07T10:38:27Z</time>
      </trkpt>
      <trkpt lat="44.51408" lon="6.59122">
        <ele>1609</ele>
        <time>2021-04-07T10:38:28Z</time>
      </trkpt>
      <trkpt lat="44.51408" lon="6.59122">
        <ele>1609</ele>
        <time>2021-04-07T10:38:29Z</time>
      </trkpt>
      <trkpt lat="44.51408" lon="6.59122">
        <ele>1609</ele>
        <time>2021-04-07T10:38:30Z</time>
      </trkpt>
      <trkpt lat="44.51408" lon="6.59122">
        <ele>1609</ele>
        <time>2021-04-07T10:38:31Z</time>
      </trkpt>
      <trkpt lat="44.51408" lon="6.59122">
        <ele>1609</ele>
        <time>2021-04-07T10:38:32Z</time>
      </trkpt>
      <trkpt lat="44.51408" lon="6.59122">
        <ele>1609</ele>
        <time>2021-04-07T10:38:33Z</time>
      </trkpt>
      <trkpt lat="44.51408" lon="6.59122">
        <ele>1609</ele>
        <time>2021-04-07T10:38:34Z</time>
      </trkpt>
      <trkpt lat="44.51408" lon="6.59122">
        <ele>1609</ele>
        <time>2021-04-07T10:38:35Z</time>
      </trkpt>
      <trkpt lat="44.51408" lon="6.59122">
        <ele>1609</ele>
        <time>2021-04-07T10:38:36Z</time>
      </trkpt>
      <trkpt lat="44.51408" lon="6.59122">
        <ele>1609</ele>
        <time>2021-04-07T10:38:37Z</time>
      </trkpt>
      <trkpt lat="44.51408" lon="6.59122">
        <ele>1609</ele>
        <time>2021-04-07T10:38:38Z</time>
      </trkpt>
      <trkpt lat="44.51408" lon="6.59122">
        <ele>1609</ele>
        <time>2021-04-07T10:38:39Z</time>
      </trkpt>
      <trkpt lat="44.51408" lon="6.59122">
        <ele>1609</ele>
        <time>2021-04-07T10:38:40Z</time>
      </trkpt>
      <trkpt lat="44.51408" lon="6.59122">
        <ele>1609</ele>
        <time>2021-04-07T10:38:41Z</time>
      </trkpt>
      <trkpt lat="44.51408" lon="6.59122">
        <ele>1609</ele>
        <time>2021-04-07T10:38:42Z</time>
      </trkpt>
      <trkpt lat="44.51408" lon="6.59122">
        <ele>1609</ele>
        <time>2021-04-07T10:38:43Z</time>
      </trkpt>
      <trkpt lat="44.51408" lon="6.59122">
        <ele>1609</ele>
        <time>2021-04-07T10:38:44Z</time>
      </trkpt>
      <trkpt lat="44.51408" lon="6.59122">
        <ele>1609</ele>
        <time>2021-04-07T10:38:45Z</time>
      </trkpt>
      <trkpt lat="44.51408" lon="6.59122">
        <ele>1609</ele>
        <time>2021-04-07T10:38:46Z</time>
      </trkpt>
      <trkpt lat="44.51408" lon="6.59122">
        <ele>1609</ele>
        <time>2021-04-07T10:38:47Z</time>
      </trkpt>
      <trkpt lat="44.51408" lon="6.59122">
        <ele>1609</ele>
        <time>2021-04-07T10:38:48Z</time>
      </trkpt>
      <trkpt lat="44.51408" lon="6.59122">
        <ele>1609</ele>
        <time>2021-04-07T10:38:49Z</time>
      </trkpt>
      <trkpt lat="44.51408" lon="6.59122">
        <ele>1609</ele>
        <time>2021-04-07T10:38:50Z</time>
      </trkpt>
      <trkpt lat="44.51408" lon="6.59122">
        <ele>1609</ele>
        <time>2021-04-07T10:38:51Z</time>
      </trkpt>
      <trkpt lat="44.51408" lon="6.59122">
        <ele>1609</ele>
        <time>2021-04-07T10:38:52Z</time>
      </trkpt>
      <trkpt lat="44.51408" lon="6.59122">
        <ele>1609</ele>
        <time>2021-04-07T10:38:53Z</time>
      </trkpt>
      <trkpt lat="44.51408" lon="6.59122">
        <ele>1609</ele>
        <time>2021-04-07T10:38:54Z</time>
      </trkpt>
      <trkpt lat="44.51408" lon="6.59122">
        <ele>1609</ele>
        <time>2021-04-07T10:38:55Z</time>
      </trkpt>
      <trkpt lat="44.51408" lon="6.59122">
        <ele>1609</ele>
        <time>2021-04-07T10:38:56Z</time>
      </trkpt>
      <trkpt lat="44.51408" lon="6.59122">
        <ele>1609</ele>
        <time>2021-04-07T10:38:57Z</time>
      </trkpt>
      <trkpt lat="44.51408" lon="6.59122">
        <ele>1609</ele>
        <time>2021-04-07T10:38:58Z</time>
      </trkpt>
      <trkpt lat="44.51408" lon="6.59122">
        <ele>1609</ele>
        <time>2021-04-07T10:38:59Z</time>
      </trkpt>
      <trkpt lat="44.51408" lon="6.59122">
        <ele>1609</ele>
        <time>2021-04-07T10:39:00Z</time>
      </trkpt>
      <trkpt lat="44.51408" lon="6.59122">
        <ele>1609</ele>
        <time>2021-04-07T10:39:01Z</time>
      </trkpt>
      <trkpt lat="44.51408" lon="6.59122">
        <ele>1609</ele>
        <time>2021-04-07T10:39:02Z</time>
      </trkpt>
      <trkpt lat="44.51408" lon="6.59122">
        <ele>1609</ele>
        <time>2021-04-07T10:39:03Z</time>
      </trkpt>
      <trkpt lat="44.51408" lon="6.59122">
        <ele>1609</ele>
        <time>2021-04-07T10:39:04Z</time>
      </trkpt>
      <trkpt lat="44.51408" lon="6.59122">
        <ele>1609</ele>
        <time>2021-04-07T10:39:05Z</time>
      </trkpt>
      <trkpt lat="44.51408" lon="6.59122">
        <ele>1609</ele>
        <time>2021-04-07T10:39:06Z</time>
      </trkpt>
      <trkpt lat="44.51408" lon="6.59122">
        <ele>1609</ele>
        <time>2021-04-07T10:39:07Z</time>
      </trkpt>
      <trkpt lat="44.51408" lon="6.59122">
        <ele>1609</ele>
        <time>2021-04-07T10:39:08Z</time>
      </trkpt>
      <trkpt lat="44.51408" lon="6.59122">
        <ele>1609</ele>
        <time>2021-04-07T10:39:09Z</time>
      </trkpt>
      <trkpt lat="44.51408" lon="6.59122">
        <ele>1609</ele>
        <time>2021-04-07T10:39:10Z</time>
      </trkpt>
      <trkpt lat="44.51408" lon="6.59122">
        <ele>1609</ele>
        <time>2021-04-07T10:39:11Z</time>
      </trkpt>
      <trkpt lat="44.51408" lon="6.59122">
        <ele>1609</ele>
        <time>2021-04-07T10:39:12Z</time>
      </trkpt>
      <trkpt lat="44.51408" lon="6.59122">
        <ele>1609</ele>
        <time>2021-04-07T10:39:13Z</time>
      </trkpt>
      <trkpt lat="44.51408" lon="6.59122">
        <ele>1609</ele>
        <time>2021-04-07T10:39:14Z</time>
      </trkpt>
      <trkpt lat="44.51408" lon="6.59122">
        <ele>1609</ele>
        <time>2021-04-07T10:39:15Z</time>
      </trkpt>
      <trkpt lat="44.51408" lon="6.59122">
        <ele>1609</ele>
        <time>2021-04-07T10:39:16Z</time>
      </trkpt>
      <trkpt lat="44.51408" lon="6.59122">
        <ele>1609</ele>
        <time>2021-04-07T10:39:17Z</time>
      </trkpt>
      <trkpt lat="44.51408" lon="6.59122">
        <ele>1609</ele>
        <time>2021-04-07T10:39:18Z</time>
      </trkpt>
      <trkpt lat="44.51408" lon="6.59122">
        <ele>1609</ele>
        <time>2021-04-07T10:39:19Z</time>
      </trkpt>
      <trkpt lat="44.51408" lon="6.59122">
        <ele>1609</ele>
        <time>2021-04-07T10:39:20Z</time>
      </trkpt>
      <trkpt lat="44.51408" lon="6.59122">
        <ele>1609</ele>
        <time>2021-04-07T10:39:21Z</time>
      </trkpt>
      <trkpt lat="44.51408" lon="6.59122">
        <ele>1609</ele>
        <time>2021-04-07T10:39:22Z</time>
      </trkpt>
      <trkpt lat="44.51408" lon="6.59122">
        <ele>1609</ele>
        <time>2021-04-07T10:39:23Z</time>
      </trkpt>
      <trkpt lat="44.51408" lon="6.59122">
        <ele>1609</ele>
        <time>2021-04-07T10:39:24Z</time>
      </trkpt>
      <trkpt lat="44.51408" lon="6.59122">
        <ele>1609</ele>
        <time>2021-04-07T10:39:25Z</time>
      </trkpt>
      <trkpt lat="44.51408" lon="6.59122">
        <ele>1609</ele>
        <time>2021-04-07T10:39:26Z</time>
      </trkpt>
      <trkpt lat="44.51407" lon="6.59121">
        <ele>1609</ele>
        <time>2021-04-07T10:39:27Z</time>
      </trkpt>
      <trkpt lat="44.51407" lon="6.59123">
        <ele>1609</ele>
        <time>2021-04-07T10:39:28Z</time>
      </trkpt>
      <trkpt lat="44.51408" lon="6.59126">
        <ele>1609</ele>
        <time>2021-04-07T10:39:29Z</time>
      </trkpt>
      <trkpt lat="44.51408" lon="6.59128">
        <ele>1606</ele>
        <time>2021-04-07T10:39:30Z</time>
      </trkpt>
      <trkpt lat="44.51409" lon="6.59131">
        <ele>1605</ele>
        <time>2021-04-07T10:39:31Z</time>
      </trkpt>
      <trkpt lat="44.5141" lon="6.59134">
        <ele>1604</ele>
        <time>2021-04-07T10:39:32Z</time>
      </trkpt>
      <trkpt lat="44.51411" lon="6.59137">
        <ele>1604</ele>
        <time>2021-04-07T10:39:33Z</time>
      </trkpt>
      <trkpt lat="44.51411" lon="6.5914">
        <ele>1604</ele>
        <time>2021-04-07T10:39:34Z</time>
      </trkpt>
      <trkpt lat="44.51412" lon="6.59143">
        <ele>1603</ele>
        <time>2021-04-07T10:39:35Z</time>
      </trkpt>
      <trkpt lat="44.51412" lon="6.59146">
        <ele>1603</ele>
        <time>2021-04-07T10:39:36Z</time>
      </trkpt>
      <trkpt lat="44.51413" lon="6.59149">
        <ele>1603</ele>
        <time>2021-04-07T10:39:37Z</time>
      </trkpt>
      <trkpt lat="44.51414" lon="6.59154">
        <ele>1602</ele>
        <time>2021-04-07T10:39:38Z</time>
      </trkpt>
      <trkpt lat="44.51415" lon="6.59158">
        <ele>1602</ele>
        <time>2021-04-07T10:39:39Z</time>
      </trkpt>
      <trkpt lat="44.51416" lon="6.59162">
        <ele>1602</ele>
        <time>2021-04-07T10:39:40Z</time>
      </trkpt>
      <trkpt lat="44.51417" lon="6.59166">
        <ele>1602</ele>
        <time>2021-04-07T10:39:41Z</time>
      </trkpt>
      <trkpt lat="44.51418" lon="6.5917">
        <ele>1601</ele>
        <time>2021-04-07T10:39:42Z</time>
      </trkpt>
      <trkpt lat="44.51419" lon="6.59174">
        <ele>1601</ele>
        <time>2021-04-07T10:39:43Z</time>
      </trkpt>
      <trkpt lat="44.5142" lon="6.59179">
        <ele>1601</ele>
        <time>2021-04-07T10:39:44Z</time>
      </trkpt>
      <trkpt lat="44.51422" lon="6.59183">
        <ele>1600</ele>
        <time>2021-04-07T10:39:45Z</time>
      </trkpt>
      <trkpt lat="44.51423" lon="6.59186">
        <ele>1600</ele>
        <time>2021-04-07T10:39:46Z</time>
      </trkpt>
      <trkpt lat="44.51426" lon="6.59189">
        <ele>1600</ele>
        <time>2021-04-07T10:39:47Z</time>
      </trkpt>
      <trkpt lat="44.51429" lon="6.59189">
        <ele>1599</ele>
        <time>2021-04-07T10:39:48Z</time>
      </trkpt>
      <trkpt lat="44.5143" lon="6.59187">
        <ele>1599</ele>
        <time>2021-04-07T10:39:49Z</time>
      </trkpt>
      <trkpt lat="44.51431" lon="6.59185">
        <ele>1598</ele>
        <time>2021-04-07T10:39:50Z</time>
      </trkpt>
      <trkpt lat="44.5143" lon="6.59182">
        <ele>1598</ele>
        <time>2021-04-07T10:39:51Z</time>
      </trkpt>
      <trkpt lat="44.5143" lon="6.5918">
        <ele>1597</ele>
        <time>2021-04-07T10:39:52Z</time>
      </trkpt>
      <trkpt lat="44.5143" lon="6.59178">
        <ele>1597</ele>
        <time>2021-04-07T10:39:53Z</time>
      </trkpt>
      <trkpt lat="44.51429" lon="6.59177">
        <ele>1596</ele>
        <time>2021-04-07T10:39:54Z</time>
      </trkpt>
      <trkpt lat="44.51429" lon="6.59176">
        <ele>1595</ele>
        <time>2021-04-07T10:39:55Z</time>
      </trkpt>
      <trkpt lat="44.51429" lon="6.59174">
        <ele>1595</ele>
        <time>2021-04-07T10:39:56Z</time>
      </trkpt>
      <trkpt lat="44.51429" lon="6.59173">
        <ele>1594</ele>
        <time>2021-04-07T10:39:57Z</time>
      </trkpt>
      <trkpt lat="44.51429" lon="6.59173">
        <ele>1594</ele>
        <time>2021-04-07T10:39:58Z</time>
      </trkpt>
      <trkpt lat="44.51429" lon="6.59173">
        <ele>1594</ele>
        <time>2021-04-07T10:39:59Z</time>
      </trkpt>
      <trkpt lat="44.51429" lon="6.59173">
        <ele>1594</ele>
        <time>2021-04-07T10:40:00Z</time>
      </trkpt>
      <trkpt lat="44.51429" lon="6.59173">
        <ele>1594</ele>
        <time>2021-04-07T10:40:01Z</time>
      </trkpt>
      <trkpt lat="44.51429" lon="6.59173">
        <ele>1594</ele>
        <time>2021-04-07T10:40:02Z</time>
      </trkpt>
      <trkpt lat="44.51429" lon="6.59173">
        <ele>1594</ele>
        <time>2021-04-07T10:40:03Z</time>
      </trkpt>
      <trkpt lat="44.51429" lon="6.59173">
        <ele>1593</ele>
        <time>2021-04-07T10:40:04Z</time>
      </trkpt>
      <trkpt lat="44.51429" lon="6.59173">
        <ele>1593</ele>
        <time>2021-04-07T10:40:05Z</time>
      </trkpt>
      <trkpt lat="44.51429" lon="6.59173">
        <ele>1593</ele>
        <time>2021-04-07T10:40:06Z</time>
      </trkpt>
      <trkpt lat="44.51429" lon="6.59173">
        <ele>1593</ele>
        <time>2021-04-07T10:40:07Z</time>
      </trkpt>
      <trkpt lat="44.51429" lon="6.59173">
        <ele>1593</ele>
        <time>2021-04-07T10:40:08Z</time>
      </trkpt>
      <trkpt lat="44.51429" lon="6.59173">
        <ele>1593</ele>
        <time>2021-04-07T10:40:09Z</time>
      </trkpt>
      <trkpt lat="44.5143" lon="6.59165">
        <ele>1593</ele>
        <time>2021-04-07T10:40:10Z</time>
      </trkpt>
      <trkpt lat="44.5143" lon="6.59164">
        <ele>1593</ele>
        <time>2021-04-07T10:40:11Z</time>
      </trkpt>
      <trkpt lat="44.5143" lon="6.59162">
        <ele>1593</ele>
        <time>2021-04-07T10:40:12Z</time>
      </trkpt>
      <trkpt lat="44.5143" lon="6.5916">
        <ele>1592</ele>
        <time>2021-04-07T10:40:13Z</time>
      </trkpt>
      <trkpt lat="44.5143" lon="6.5916">
        <ele>1592</ele>
        <time>2021-04-07T10:40:14Z</time>
      </trkpt>
      <trkpt lat="44.5143" lon="6.59161">
        <ele>1592</ele>
        <time>2021-04-07T10:40:15Z</time>
      </trkpt>
      <trkpt lat="44.5143" lon="6.59161">
        <ele>1592</ele>
        <time>2021-04-07T10:40:16Z</time>
      </trkpt>
      <trkpt lat="44.5143" lon="6.59161">
        <ele>1592</ele>
        <time>2021-04-07T10:40:17Z</time>
      </trkpt>
      <trkpt lat="44.5143" lon="6.59161">
        <ele>1592</ele>
        <time>2021-04-07T10:40:18Z</time>
      </trkpt>
      <trkpt lat="44.51431" lon="6.59156">
        <ele>1592</ele>
        <time>2021-04-07T10:40:19Z</time>
      </trkpt>
      <trkpt lat="44.51432" lon="6.59154">
        <ele>1592</ele>
        <time>2021-04-07T10:40:20Z</time>
      </trkpt>
      <trkpt lat="44.51432" lon="6.59152">
        <ele>1592</ele>
        <time>2021-04-07T10:40:21Z</time>
      </trkpt>
      <trkpt lat="44.51432" lon="6.5915">
        <ele>1592</ele>
        <time>2021-04-07T10:40:22Z</time>
      </trkpt>
      <trkpt lat="44.51432" lon="6.59149">
        <ele>1592</ele>
        <time>2021-04-07T10:40:23Z</time>
      </trkpt>
      <trkpt lat="44.51432" lon="6.59147">
        <ele>1592</ele>
        <time>2021-04-07T10:40:24Z</time>
      </trkpt>
      <trkpt lat="44.51431" lon="6.59146">
        <ele>1592</ele>
        <time>2021-04-07T10:40:25Z</time>
      </trkpt>
      <trkpt lat="44.5143" lon="6.59145">
        <ele>1592</ele>
        <time>2021-04-07T10:40:26Z</time>
      </trkpt>
      <trkpt lat="44.5143" lon="6.59144">
        <ele>1592</ele>
        <time>2021-04-07T10:40:27Z</time>
      </trkpt>
      <trkpt lat="44.51429" lon="6.59144">
        <ele>1592</ele>
        <time>2021-04-07T10:40:28Z</time>
      </trkpt>
      <trkpt lat="44.5143" lon="6.59144">
        <ele>1592</ele>
        <time>2021-04-07T10:40:29Z</time>
      </trkpt>
      <trkpt lat="44.5143" lon="6.59144">
        <ele>1592</ele>
        <time>2021-04-07T10:40:30Z</time>
      </trkpt>
      <trkpt lat="44.5143" lon="6.59144">
        <ele>1592</ele>
        <time>2021-04-07T10:40:31Z</time>
      </trkpt>
      <trkpt lat="44.5143" lon="6.59144">
        <ele>1592</ele>
        <time>2021-04-07T10:40:32Z</time>
      </trkpt>
      <trkpt lat="44.5143" lon="6.59144">
        <ele>1592</ele>
        <time>2021-04-07T10:40:33Z</time>
      </trkpt>
      <trkpt lat="44.5143" lon="6.59144">
        <ele>1592</ele>
        <time>2021-04-07T10:40:34Z</time>
      </trkpt>
      <trkpt lat="44.5143" lon="6.59144">
        <ele>1592</ele>
        <time>2021-04-07T10:40:35Z</time>
      </trkpt>
      <trkpt lat="44.5143" lon="6.59144">
        <ele>1592</ele>
        <time>2021-04-07T10:40:36Z</time>
      </trkpt>
      <trkpt lat="44.5143" lon="6.59144">
        <ele>1592</ele>
        <time>2021-04-07T10:40:37Z</time>
      </trkpt>
      <trkpt lat="44.5143" lon="6.59144">
        <ele>1592</ele>
        <time>2021-04-07T10:40:38Z</time>
      </trkpt>
      <trkpt lat="44.5143" lon="6.59144">
        <ele>1592</ele>
        <time>2021-04-07T10:40:39Z</time>
      </trkpt>
      <trkpt lat="44.5143" lon="6.59144">
        <ele>1592</ele>
        <time>2021-04-07T10:40:40Z</time>
      </trkpt>
      <trkpt lat="44.5143" lon="6.59144">
        <ele>1592</ele>
        <time>2021-04-07T10:40:41Z</time>
      </trkpt>
      <trkpt lat="44.5143" lon="6.59144">
        <ele>1592</ele>
        <time>2021-04-07T10:40:42Z</time>
      </trkpt>
      <trkpt lat="44.5143" lon="6.59144">
        <ele>1592</ele>
        <time>2021-04-07T10:40:43Z</time>
      </trkpt>
      <trkpt lat="44.5143" lon="6.59144">
        <ele>1592</ele>
        <time>2021-04-07T10:40:44Z</time>
      </trkpt>
      <trkpt lat="44.5143" lon="6.59144">
        <ele>1592</ele>
        <time>2021-04-07T10:40:45Z</time>
      </trkpt>
      <trkpt lat="44.5143" lon="6.59144">
        <ele>1592</ele>
        <time>2021-04-07T10:40:46Z</time>
      </trkpt>
      <trkpt lat="44.5143" lon="6.59144">
        <ele>1592</ele>
        <time>2021-04-07T10:40:47Z</time>
      </trkpt>
      <trkpt lat="44.5143" lon="6.59144">
        <ele>1592</ele>
        <time>2021-04-07T10:40:48Z</time>
      </trkpt>
      <trkpt lat="44.5143" lon="6.59144">
        <ele>1592</ele>
        <time>2021-04-07T10:40:49Z</time>
      </trkpt>
      <trkpt lat="44.5143" lon="6.59144">
        <ele>1592</ele>
        <time>2021-04-07T10:40:50Z</time>
      </trkpt>
      <trkpt lat="44.5143" lon="6.59144">
        <ele>1592</ele>
        <time>2021-04-07T10:40:51Z</time>
      </trkpt>
      <trkpt lat="44.51429" lon="6.59135">
        <ele>1591</ele>
        <time>2021-04-07T10:40:52Z</time>
      </trkpt>
      <trkpt lat="44.51429" lon="6.59132">
        <ele>1591</ele>
        <time>2021-04-07T10:40:53Z</time>
      </trkpt>
      <trkpt lat="44.51429" lon="6.5913">
        <ele>1590</ele>
        <time>2021-04-07T10:40:54Z</time>
      </trkpt>
      <trkpt lat="44.5143" lon="6.59127">
        <ele>1590</ele>
        <time>2021-04-07T10:40:55Z</time>
      </trkpt>
      <trkpt lat="44.51431" lon="6.59125">
        <ele>1589</ele>
        <time>2021-04-07T10:40:56Z</time>
      </trkpt>
      <trkpt lat="44.51432" lon="6.59125">
        <ele>1589</ele>
        <time>2021-04-07T10:40:57Z</time>
      </trkpt>
      <trkpt lat="44.51432" lon="6.59124">
        <ele>1590</ele>
        <time>2021-04-07T10:40:58Z</time>
      </trkpt>
      <trkpt lat="44.51432" lon="6.59124">
        <ele>1590</ele>
        <time>2021-04-07T10:40:59Z</time>
      </trkpt>
      <trkpt lat="44.51432" lon="6.59124">
        <ele>1590</ele>
        <time>2021-04-07T10:41:00Z</time>
      </trkpt>
      <trkpt lat="44.51432" lon="6.59124">
        <ele>1590</ele>
        <time>2021-04-07T10:41:01Z</time>
      </trkpt>
      <trkpt lat="44.51432" lon="6.59124">
        <ele>1590</ele>
        <time>2021-04-07T10:41:02Z</time>
      </trkpt>
      <trkpt lat="44.51432" lon="6.59124">
        <ele>1590</ele>
        <time>2021-04-07T10:41:03Z</time>
      </trkpt>
      <trkpt lat="44.51432" lon="6.59124">
        <ele>1590</ele>
        <time>2021-04-07T10:41:04Z</time>
      </trkpt>
      <trkpt lat="44.51432" lon="6.59124">
        <ele>1590</ele>
        <time>2021-04-07T10:41:05Z</time>
      </trkpt>
      <trkpt lat="44.51432" lon="6.59124">
        <ele>1590</ele>
        <time>2021-04-07T10:41:06Z</time>
      </trkpt>
      <trkpt lat="44.51432" lon="6.59124">
        <ele>1590</ele>
        <time>2021-04-07T10:41:07Z</time>
      </trkpt>
      <trkpt lat="44.51432" lon="6.59124">
        <ele>1590</ele>
        <time>2021-04-07T10:41:08Z</time>
      </trkpt>
      <trkpt lat="44.51432" lon="6.59124">
        <ele>1590</ele>
        <time>2021-04-07T10:41:09Z</time>
      </trkpt>
      <trkpt lat="44.51432" lon="6.59124">
        <ele>1590</ele>
        <time>2021-04-07T10:41:10Z</time>
      </trkpt>
      <trkpt lat="44.51432" lon="6.59124">
        <ele>1590</ele>
        <time>2021-04-07T10:41:11Z</time>
      </trkpt>
      <trkpt lat="44.51432" lon="6.59124">
        <ele>1590</ele>
        <time>2021-04-07T10:41:12Z</time>
      </trkpt>
      <trkpt lat="44.51432" lon="6.59124">
        <ele>1590</ele>
        <time>2021-04-07T10:41:13Z</time>
      </trkpt>
      <trkpt lat="44.51432" lon="6.59124">
        <ele>1590</ele>
        <time>2021-04-07T10:41:14Z</time>
      </trkpt>
      <trkpt lat="44.51432" lon="6.59124">
        <ele>1590</ele>
        <time>2021-04-07T10:41:15Z</time>
      </trkpt>
      <trkpt lat="44.51432" lon="6.59124">
        <ele>1590</ele>
        <time>2021-04-07T10:41:16Z</time>
      </trkpt>
      <trkpt lat="44.51432" lon="6.59124">
        <ele>1590</ele>
        <time>2021-04-07T10:41:17Z</time>
      </trkpt>
      <trkpt lat="44.51432" lon="6.59124">
        <ele>1590</ele>
        <time>2021-04-07T10:41:18Z</time>
      </trkpt>
      <trkpt lat="44.51432" lon="6.59124">
        <ele>1590</ele>
        <time>2021-04-07T10:41:19Z</time>
      </trkpt>
      <trkpt lat="44.51432" lon="6.59124">
        <ele>1590</ele>
        <time>2021-04-07T10:41:20Z</time>
      </trkpt>
      <trkpt lat="44.51432" lon="6.59124">
        <ele>1590</ele>
        <time>2021-04-07T10:41:21Z</time>
      </trkpt>
      <trkpt lat="44.51432" lon="6.59124">
        <ele>1590</ele>
        <time>2021-04-07T10:41:22Z</time>
      </trkpt>
      <trkpt lat="44.51432" lon="6.59124">
        <ele>1590</ele>
        <time>2021-04-07T10:41:23Z</time>
      </trkpt>
      <trkpt lat="44.51432" lon="6.59124">
        <ele>1590</ele>
        <time>2021-04-07T10:41:24Z</time>
      </trkpt>
      <trkpt lat="44.51432" lon="6.59124">
        <ele>1590</ele>
        <time>2021-04-07T10:41:25Z</time>
      </trkpt>
      <trkpt lat="44.51435" lon="6.59112">
        <ele>1588</ele>
        <time>2021-04-07T10:41:26Z</time>
      </trkpt>
      <trkpt lat="44.51435" lon="6.59111">
        <ele>1588</ele>
        <time>2021-04-07T10:41:27Z</time>
      </trkpt>
      <trkpt lat="44.51435" lon="6.5911">
        <ele>1588</ele>
        <time>2021-04-07T10:41:28Z</time>
      </trkpt>
      <trkpt lat="44.51435" lon="6.5911">
        <ele>1588</ele>
        <time>2021-04-07T10:41:29Z</time>
      </trkpt>
      <trkpt lat="44.51435" lon="6.5911">
        <ele>1588</ele>
        <time>2021-04-07T10:41:30Z</time>
      </trkpt>
      <trkpt lat="44.51435" lon="6.5911">
        <ele>1588</ele>
        <time>2021-04-07T10:41:31Z</time>
      </trkpt>
      <trkpt lat="44.51435" lon="6.5911">
        <ele>1587</ele>
        <time>2021-04-07T10:41:32Z</time>
      </trkpt>
      <trkpt lat="44.51435" lon="6.5911">
        <ele>1587</ele>
        <time>2021-04-07T10:41:33Z</time>
      </trkpt>
      <trkpt lat="44.51435" lon="6.59104">
        <ele>1587</ele>
        <time>2021-04-07T10:41:34Z</time>
      </trkpt>
      <trkpt lat="44.51434" lon="6.59102">
        <ele>1587</ele>
        <time>2021-04-07T10:41:35Z</time>
      </trkpt>
      <trkpt lat="44.51434" lon="6.591">
        <ele>1587</ele>
        <time>2021-04-07T10:41:36Z</time>
      </trkpt>
      <trkpt lat="44.51433" lon="6.59099">
        <ele>1587</ele>
        <time>2021-04-07T10:41:37Z</time>
      </trkpt>
      <trkpt lat="44.51431" lon="6.59097">
        <ele>1586</ele>
        <time>2021-04-07T10:41:38Z</time>
      </trkpt>
      <trkpt lat="44.51431" lon="6.59097">
        <ele>1586</ele>
        <time>2021-04-07T10:41:39Z</time>
      </trkpt>
      <trkpt lat="44.51431" lon="6.59097">
        <ele>1586</ele>
        <time>2021-04-07T10:41:40Z</time>
      </trkpt>
      <trkpt lat="44.51431" lon="6.59097">
        <ele>1586</ele>
        <time>2021-04-07T10:41:41Z</time>
      </trkpt>
      <trkpt lat="44.51431" lon="6.59097">
        <ele>1586</ele>
        <time>2021-04-07T10:41:42Z</time>
      </trkpt>
      <trkpt lat="44.51431" lon="6.59097">
        <ele>1586</ele>
        <time>2021-04-07T10:41:43Z</time>
      </trkpt>
      <trkpt lat="44.51431" lon="6.59097">
        <ele>1586</ele>
        <time>2021-04-07T10:41:44Z</time>
      </trkpt>
      <trkpt lat="44.51431" lon="6.59097">
        <ele>1586</ele>
        <time>2021-04-07T10:41:45Z</time>
      </trkpt>
      <trkpt lat="44.51431" lon="6.59097">
        <ele>1586</ele>
        <time>2021-04-07T10:41:46Z</time>
      </trkpt>
      <trkpt lat="44.51429" lon="6.59088">
        <ele>1585</ele>
        <time>2021-04-07T10:41:47Z</time>
      </trkpt>
      <trkpt lat="44.51427" lon="6.59085">
        <ele>1585</ele>
        <time>2021-04-07T10:41:48Z</time>
      </trkpt>
      <trkpt lat="44.51426" lon="6.59081">
        <ele>1585</ele>
        <time>2021-04-07T10:41:49Z</time>
      </trkpt>
      <trkpt lat="44.51426" lon="6.59076">
        <ele>1584</ele>
        <time>2021-04-07T10:41:50Z</time>
      </trkpt>
      <trkpt lat="44.51426" lon="6.59072">
        <ele>1584</ele>
        <time>2021-04-07T10:41:51Z</time>
      </trkpt>
      <trkpt lat="44.51424" lon="6.59069">
        <ele>1583</ele>
        <time>2021-04-07T10:41:52Z</time>
      </trkpt>
      <trkpt lat="44.51423" lon="6.59066">
        <ele>1583</ele>
        <time>2021-04-07T10:41:53Z</time>
      </trkpt>
      <trkpt lat="44.51422" lon="6.59063">
        <ele>1582</ele>
        <time>2021-04-07T10:41:54Z</time>
      </trkpt>
      <trkpt lat="44.5142" lon="6.59062">
        <ele>1582</ele>
        <time>2021-04-07T10:41:55Z</time>
      </trkpt>
      <trkpt lat="44.51419" lon="6.59059">
        <ele>1582</ele>
        <time>2021-04-07T10:41:56Z</time>
      </trkpt>
      <trkpt lat="44.51417" lon="6.59056">
        <ele>1581</ele>
        <time>2021-04-07T10:41:57Z</time>
      </trkpt>
      <trkpt lat="44.51415" lon="6.59053">
        <ele>1580</ele>
        <time>2021-04-07T10:41:58Z</time>
      </trkpt>
      <trkpt lat="44.51413" lon="6.5905">
        <ele>1578</ele>
        <time>2021-04-07T10:41:59Z</time>
      </trkpt>
      <trkpt lat="44.51411" lon="6.59046">
        <ele>1576</ele>
        <time>2021-04-07T10:42:00Z</time>
      </trkpt>
      <trkpt lat="44.51409" lon="6.59043">
        <ele>1574</ele>
        <time>2021-04-07T10:42:01Z</time>
      </trkpt>
      <trkpt lat="44.51407" lon="6.59039">
        <ele>1573</ele>
        <time>2021-04-07T10:42:02Z</time>
      </trkpt>
      <trkpt lat="44.51405" lon="6.59035">
        <ele>1570</ele>
        <time>2021-04-07T10:42:03Z</time>
      </trkpt>
      <trkpt lat="44.51402" lon="6.59031">
        <ele>1568</ele>
        <time>2021-04-07T10:42:04Z</time>
      </trkpt>
      <trkpt lat="44.514" lon="6.59025">
        <ele>1566</ele>
        <time>2021-04-07T10:42:05Z</time>
      </trkpt>
      <trkpt lat="44.51397" lon="6.59018">
        <ele>1565</ele>
        <time>2021-04-07T10:42:06Z</time>
      </trkpt>
      <trkpt lat="44.51395" lon="6.59012">
        <ele>1565</ele>
        <time>2021-04-07T10:42:07Z</time>
      </trkpt>
      <trkpt lat="44.51394" lon="6.59006">
        <ele>1564</ele>
        <time>2021-04-07T10:42:08Z</time>
      </trkpt>
      <trkpt lat="44.51393" lon="6.59001">
        <ele>1563</ele>
        <time>2021-04-07T10:42:09Z</time>
      </trkpt>
      <trkpt lat="44.51392" lon="6.58996">
        <ele>1563</ele>
        <time>2021-04-07T10:42:10Z</time>
      </trkpt>
      <trkpt lat="44.51391" lon="6.58992">
        <ele>1562</ele>
        <time>2021-04-07T10:42:11Z</time>
      </trkpt>
      <trkpt lat="44.51391" lon="6.58989">
        <ele>1561</ele>
        <time>2021-04-07T10:42:12Z</time>
      </trkpt>
      <trkpt lat="44.51392" lon="6.58987">
        <ele>1560</ele>
        <time>2021-04-07T10:42:13Z</time>
      </trkpt>
      <trkpt lat="44.51392" lon="6.58986">
        <ele>1559</ele>
        <time>2021-04-07T10:42:14Z</time>
      </trkpt>
      <trkpt lat="44.51393" lon="6.58985">
        <ele>1559</ele>
        <time>2021-04-07T10:42:15Z</time>
      </trkpt>
      <trkpt lat="44.51394" lon="6.58985">
        <ele>1558</ele>
        <time>2021-04-07T10:42:16Z</time>
      </trkpt>
      <trkpt lat="44.51394" lon="6.58985">
        <ele>1558</ele>
        <time>2021-04-07T10:42:17Z</time>
      </trkpt>
      <trkpt lat="44.51394" lon="6.58985">
        <ele>1558</ele>
        <time>2021-04-07T10:42:18Z</time>
      </trkpt>
      <trkpt lat="44.51394" lon="6.58985">
        <ele>1557</ele>
        <time>2021-04-07T10:42:19Z</time>
      </trkpt>
      <trkpt lat="44.51394" lon="6.58985">
        <ele>1557</ele>
        <time>2021-04-07T10:42:20Z</time>
      </trkpt>
      <trkpt lat="44.51394" lon="6.58985">
        <ele>1556</ele>
        <time>2021-04-07T10:42:21Z</time>
      </trkpt>
      <trkpt lat="44.51394" lon="6.58985">
        <ele>1556</ele>
        <time>2021-04-07T10:42:22Z</time>
      </trkpt>
      <trkpt lat="44.51394" lon="6.58985">
        <ele>1556</ele>
        <time>2021-04-07T10:42:23Z</time>
      </trkpt>
      <trkpt lat="44.51394" lon="6.58985">
        <ele>1556</ele>
        <time>2021-04-07T10:42:24Z</time>
      </trkpt>
      <trkpt lat="44.51394" lon="6.58985">
        <ele>1556</ele>
        <time>2021-04-07T10:42:25Z</time>
      </trkpt>
      <trkpt lat="44.51394" lon="6.58985">
        <ele>1556</ele>
        <time>2021-04-07T10:42:26Z</time>
      </trkpt>
      <trkpt lat="44.51394" lon="6.58985">
        <ele>1556</ele>
        <time>2021-04-07T10:42:27Z</time>
      </trkpt>
      <trkpt lat="44.51394" lon="6.58985">
        <ele>1556</ele>
        <time>2021-04-07T10:42:28Z</time>
      </trkpt>
      <trkpt lat="44.51394" lon="6.58985">
        <ele>1556</ele>
        <time>2021-04-07T10:42:29Z</time>
      </trkpt>
      <trkpt lat="44.51394" lon="6.58985">
        <ele>1556</ele>
        <time>2021-04-07T10:42:30Z</time>
      </trkpt>
      <trkpt lat="44.51394" lon="6.58985">
        <ele>1556</ele>
        <time>2021-04-07T10:42:31Z</time>
      </trkpt>
      <trkpt lat="44.51394" lon="6.58985">
        <ele>1556</ele>
        <time>2021-04-07T10:42:32Z</time>
      </trkpt>
      <trkpt lat="44.51394" lon="6.58985">
        <ele>1556</ele>
        <time>2021-04-07T10:42:33Z</time>
      </trkpt>
      <trkpt lat="44.51394" lon="6.58985">
        <ele>1555</ele>
        <time>2021-04-07T10:42:34Z</time>
      </trkpt>
      <trkpt lat="44.51394" lon="6.58985">
        <ele>1555</ele>
        <time>2021-04-07T10:42:35Z</time>
      </trkpt>
      <trkpt lat="44.51394" lon="6.58985">
        <ele>1555</ele>
        <time>2021-04-07T10:42:36Z</time>
      </trkpt>
      <trkpt lat="44.51394" lon="6.58985">
        <ele>1555</ele>
        <time>2021-04-07T10:42:37Z</time>
      </trkpt>
      <trkpt lat="44.51394" lon="6.58985">
        <ele>1555</ele>
        <time>2021-04-07T10:42:38Z</time>
      </trkpt>
      <trkpt lat="44.51394" lon="6.58985">
        <ele>1555</ele>
        <time>2021-04-07T10:42:39Z</time>
      </trkpt>
      <trkpt lat="44.51394" lon="6.58985">
        <ele>1555</ele>
        <time>2021-04-07T10:42:40Z</time>
      </trkpt>
      <trkpt lat="44.51394" lon="6.58985">
        <ele>1555</ele>
        <time>2021-04-07T10:42:41Z</time>
      </trkpt>
      <trkpt lat="44.51394" lon="6.58985">
        <ele>1555</ele>
        <time>2021-04-07T10:42:42Z</time>
      </trkpt>
      <trkpt lat="44.51394" lon="6.58985">
        <ele>1555</ele>
        <time>2021-04-07T10:42:43Z</time>
      </trkpt>
      <trkpt lat="44.51394" lon="6.58985">
        <ele>1555</ele>
        <time>2021-04-07T10:42:44Z</time>
      </trkpt>
      <trkpt lat="44.51394" lon="6.58985">
        <ele>1555</ele>
        <time>2021-04-07T10:42:45Z</time>
      </trkpt>
      <trkpt lat="44.51394" lon="6.58985">
        <ele>1555</ele>
        <time>2021-04-07T10:42:46Z</time>
      </trkpt>
      <trkpt lat="44.51394" lon="6.58985">
        <ele>1555</ele>
        <time>2021-04-07T10:42:47Z</time>
      </trkpt>
      <trkpt lat="44.51394" lon="6.58985">
        <ele>1555</ele>
        <time>2021-04-07T10:42:48Z</time>
      </trkpt>
      <trkpt lat="44.51394" lon="6.58985">
        <ele>1555</ele>
        <time>2021-04-07T10:42:49Z</time>
      </trkpt>
      <trkpt lat="44.51394" lon="6.58985">
        <ele>1555</ele>
        <time>2021-04-07T10:42:50Z</time>
      </trkpt>
      <trkpt lat="44.51394" lon="6.58985">
        <ele>1555</ele>
        <time>2021-04-07T10:42:51Z</time>
      </trkpt>
      <trkpt lat="44.51394" lon="6.58985">
        <ele>1555</ele>
        <time>2021-04-07T10:42:52Z</time>
      </trkpt>
      <trkpt lat="44.51394" lon="6.58985">
        <ele>1555</ele>
        <time>2021-04-07T10:42:53Z</time>
      </trkpt>
      <trkpt lat="44.51394" lon="6.58985">
        <ele>1555</ele>
        <time>2021-04-07T10:42:54Z</time>
      </trkpt>
      <trkpt lat="44.51394" lon="6.58985">
        <ele>1555</ele>
        <time>2021-04-07T10:42:55Z</time>
      </trkpt>
      <trkpt lat="44.51394" lon="6.58985">
        <ele>1555</ele>
        <time>2021-04-07T10:42:56Z</time>
      </trkpt>
      <trkpt lat="44.51394" lon="6.58985">
        <ele>1555</ele>
        <time>2021-04-07T10:42:57Z</time>
      </trkpt>
      <trkpt lat="44.51395" lon="6.58983">
        <ele>1556</ele>
        <time>2021-04-07T10:42:58Z</time>
      </trkpt>
      <trkpt lat="44.51395" lon="6.58986">
        <ele>1556</ele>
        <time>2021-04-07T10:42:59Z</time>
      </trkpt>
      <trkpt lat="44.51396" lon="6.58988">
        <ele>1556</ele>
        <time>2021-04-07T10:43:00Z</time>
      </trkpt>
      <trkpt lat="44.51396" lon="6.58991">
        <ele>1563</ele>
        <time>2021-04-07T10:43:01Z</time>
      </trkpt>
      <trkpt lat="44.51396" lon="6.58992">
        <ele>1565</ele>
        <time>2021-04-07T10:43:02Z</time>
      </trkpt>
      <trkpt lat="44.51397" lon="6.58994">
        <ele>1566</ele>
        <time>2021-04-07T10:43:03Z</time>
      </trkpt>
      <trkpt lat="44.51398" lon="6.58995">
        <ele>1567</ele>
        <time>2021-04-07T10:43:04Z</time>
      </trkpt>
      <trkpt lat="44.51399" lon="6.58997">
        <ele>1568</ele>
        <time>2021-04-07T10:43:05Z</time>
      </trkpt>
      <trkpt lat="44.514" lon="6.58998">
        <ele>1568</ele>
        <time>2021-04-07T10:43:06Z</time>
      </trkpt>
      <trkpt lat="44.51401" lon="6.58999">
        <ele>1568</ele>
        <time>2021-04-07T10:43:07Z</time>
      </trkpt>
      <trkpt lat="44.51401" lon="6.59">
        <ele>1568</ele>
        <time>2021-04-07T10:43:08Z</time>
      </trkpt>
      <trkpt lat="44.51401" lon="6.59">
        <ele>1568</ele>
        <time>2021-04-07T10:43:09Z</time>
      </trkpt>
      <trkpt lat="44.51401" lon="6.59">
        <ele>1568</ele>
        <time>2021-04-07T10:43:10Z</time>
      </trkpt>
      <trkpt lat="44.51401" lon="6.59">
        <ele>1568</ele>
        <time>2021-04-07T10:43:11Z</time>
      </trkpt>
      <trkpt lat="44.51401" lon="6.59">
        <ele>1568</ele>
        <time>2021-04-07T10:43:12Z</time>
      </trkpt>
      <trkpt lat="44.51401" lon="6.59">
        <ele>1568</ele>
        <time>2021-04-07T10:43:13Z</time>
      </trkpt>
      <trkpt lat="44.51401" lon="6.59">
        <ele>1568</ele>
        <time>2021-04-07T10:43:14Z</time>
      </trkpt>
      <trkpt lat="44.51403" lon="6.5901">
        <ele>1568</ele>
        <time>2021-04-07T10:43:15Z</time>
      </trkpt>
      <trkpt lat="44.51404" lon="6.59012">
        <ele>1568</ele>
        <time>2021-04-07T10:43:16Z</time>
      </trkpt>
      <trkpt lat="44.51405" lon="6.59014">
        <ele>1568</ele>
        <time>2021-04-07T10:43:17Z</time>
      </trkpt>
      <trkpt lat="44.51405" lon="6.59015">
        <ele>1568</ele>
        <time>2021-04-07T10:43:18Z</time>
      </trkpt>
      <trkpt lat="44.51406" lon="6.59017">
        <ele>1568</ele>
        <time>2021-04-07T10:43:19Z</time>
      </trkpt>
      <trkpt lat="44.51407" lon="6.59019">
        <ele>1569</ele>
        <time>2021-04-07T10:43:20Z</time>
      </trkpt>
      <trkpt lat="44.51408" lon="6.59021">
        <ele>1569</ele>
        <time>2021-04-07T10:43:21Z</time>
      </trkpt>
      <trkpt lat="44.51408" lon="6.59023">
        <ele>1569</ele>
        <time>2021-04-07T10:43:22Z</time>
      </trkpt>
      <trkpt lat="44.51409" lon="6.59024">
        <ele>1569</ele>
        <time>2021-04-07T10:43:23Z</time>
      </trkpt>
      <trkpt lat="44.5141" lon="6.59026">
        <ele>1569</ele>
        <time>2021-04-07T10:43:24Z</time>
      </trkpt>
      <trkpt lat="44.51411" lon="6.59028">
        <ele>1569</ele>
        <time>2021-04-07T10:43:25Z</time>
      </trkpt>
      <trkpt lat="44.51412" lon="6.59029">
        <ele>1569</ele>
        <time>2021-04-07T10:43:26Z</time>
      </trkpt>
      <trkpt lat="44.51412" lon="6.5903">
        <ele>1570</ele>
        <time>2021-04-07T10:43:27Z</time>
      </trkpt>
      <trkpt lat="44.51413" lon="6.59031">
        <ele>1570</ele>
        <time>2021-04-07T10:43:28Z</time>
      </trkpt>
      <trkpt lat="44.51414" lon="6.59032">
        <ele>1570</ele>
        <time>2021-04-07T10:43:29Z</time>
      </trkpt>
      <trkpt lat="44.51414" lon="6.59034">
        <ele>1570</ele>
        <time>2021-04-07T10:43:30Z</time>
      </trkpt>
      <trkpt lat="44.51415" lon="6.59035">
        <ele>1570</ele>
        <time>2021-04-07T10:43:31Z</time>
      </trkpt>
      <trkpt lat="44.51415" lon="6.59035">
        <ele>1571</ele>
        <time>2021-04-07T10:43:32Z</time>
      </trkpt>
      <trkpt lat="44.51415" lon="6.59036">
        <ele>1571</ele>
        <time>2021-04-07T10:43:33Z</time>
      </trkpt>
      <trkpt lat="44.51415" lon="6.59037">
        <ele>1571</ele>
        <time>2021-04-07T10:43:34Z</time>
      </trkpt>
      <trkpt lat="44.51416" lon="6.59039">
        <ele>1571</ele>
        <time>2021-04-07T10:43:35Z</time>
      </trkpt>
      <trkpt lat="44.51416" lon="6.59041">
        <ele>1572</ele>
        <time>2021-04-07T10:43:36Z</time>
      </trkpt>
      <trkpt lat="44.51417" lon="6.59042">
        <ele>1572</ele>
        <time>2021-04-07T10:43:37Z</time>
      </trkpt>
      <trkpt lat="44.51418" lon="6.59043">
        <ele>1572</ele>
        <time>2021-04-07T10:43:38Z</time>
      </trkpt>
      <trkpt lat="44.51418" lon="6.59045">
        <ele>1573</ele>
        <time>2021-04-07T10:43:39Z</time>
      </trkpt>
      <trkpt lat="44.51419" lon="6.59045">
        <ele>1574</ele>
        <time>2021-04-07T10:43:40Z</time>
      </trkpt>
      <trkpt lat="44.5142" lon="6.59047">
        <ele>1574</ele>
        <time>2021-04-07T10:43:41Z</time>
      </trkpt>
      <trkpt lat="44.5142" lon="6.59048">
        <ele>1574</ele>
        <time>2021-04-07T10:43:42Z</time>
      </trkpt>
      <trkpt lat="44.51421" lon="6.5905">
        <ele>1574</ele>
        <time>2021-04-07T10:43:43Z</time>
      </trkpt>
      <trkpt lat="44.51421" lon="6.59051">
        <ele>1575</ele>
        <time>2021-04-07T10:43:44Z</time>
      </trkpt>
      <trkpt lat="44.51421" lon="6.59052">
        <ele>1575</ele>
        <time>2021-04-07T10:43:45Z</time>
      </trkpt>
      <trkpt lat="44.51422" lon="6.59054">
        <ele>1575</ele>
        <time>2021-04-07T10:43:46Z</time>
      </trkpt>
      <trkpt lat="44.51422" lon="6.59056">
        <ele>1576</ele>
        <time>2021-04-07T10:43:47Z</time>
      </trkpt>
      <trkpt lat="44.51423" lon="6.59057">
        <ele>1576</ele>
        <time>2021-04-07T10:43:48Z</time>
      </trkpt>
      <trkpt lat="44.51424" lon="6.59057">
        <ele>1576</ele>
        <time>2021-04-07T10:43:49Z</time>
      </trkpt>
      <trkpt lat="44.51425" lon="6.59058">
        <ele>1577</ele>
        <time>2021-04-07T10:43:50Z</time>
      </trkpt>
      <trkpt lat="44.51425" lon="6.59059">
        <ele>1577</ele>
        <time>2021-04-07T10:43:51Z</time>
      </trkpt>
      <trkpt lat="44.51426" lon="6.59061">
        <ele>1577</ele>
        <time>2021-04-07T10:43:52Z</time>
      </trkpt>
      <trkpt lat="44.51426" lon="6.59062">
        <ele>1578</ele>
        <time>2021-04-07T10:43:53Z</time>
      </trkpt>
      <trkpt lat="44.51427" lon="6.59063">
        <ele>1578</ele>
        <time>2021-04-07T10:43:54Z</time>
      </trkpt>
      <trkpt lat="44.51427" lon="6.59064">
        <ele>1579</ele>
        <time>2021-04-07T10:43:55Z</time>
      </trkpt>
      <trkpt lat="44.51428" lon="6.59065">
        <ele>1579</ele>
        <time>2021-04-07T10:43:56Z</time>
      </trkpt>
      <trkpt lat="44.51427" lon="6.59067">
        <ele>1579</ele>
        <time>2021-04-07T10:43:57Z</time>
      </trkpt>
      <trkpt lat="44.51428" lon="6.59069">
        <ele>1580</ele>
        <time>2021-04-07T10:43:58Z</time>
      </trkpt>
      <trkpt lat="44.51429" lon="6.59071">
        <ele>1580</ele>
        <time>2021-04-07T10:43:59Z</time>
      </trkpt>
      <trkpt lat="44.51429" lon="6.59073">
        <ele>1580</ele>
        <time>2021-04-07T10:44:00Z</time>
      </trkpt>
      <trkpt lat="44.51429" lon="6.59075">
        <ele>1581</ele>
        <time>2021-04-07T10:44:01Z</time>
      </trkpt>
      <trkpt lat="44.51429" lon="6.59076">
        <ele>1582</ele>
        <time>2021-04-07T10:44:02Z</time>
      </trkpt>
      <trkpt lat="44.51428" lon="6.59078">
        <ele>1582</ele>
        <time>2021-04-07T10:44:03Z</time>
      </trkpt>
      <trkpt lat="44.51428" lon="6.5908">
        <ele>1583</ele>
        <time>2021-04-07T10:44:04Z</time>
      </trkpt>
      <trkpt lat="44.51428" lon="6.59082">
        <ele>1583</ele>
        <time>2021-04-07T10:44:05Z</time>
      </trkpt>
      <trkpt lat="44.51428" lon="6.59083">
        <ele>1584</ele>
        <time>2021-04-07T10:44:06Z</time>
      </trkpt>
      <trkpt lat="44.51429" lon="6.59085">
        <ele>1584</ele>
        <time>2021-04-07T10:44:07Z</time>
      </trkpt>
      <trkpt lat="44.51429" lon="6.59086">
        <ele>1585</ele>
        <time>2021-04-07T10:44:08Z</time>
      </trkpt>
      <trkpt lat="44.51429" lon="6.59088">
        <ele>1585</ele>
        <time>2021-04-07T10:44:09Z</time>
      </trkpt>
      <trkpt lat="44.51429" lon="6.5909">
        <ele>1585</ele>
        <time>2021-04-07T10:44:10Z</time>
      </trkpt>
      <trkpt lat="44.51428" lon="6.59091">
        <ele>1585</ele>
        <time>2021-04-07T10:44:11Z</time>
      </trkpt>
      <trkpt lat="44.51429" lon="6.59093">
        <ele>1586</ele>
        <time>2021-04-07T10:44:12Z</time>
      </trkpt>
      <trkpt lat="44.51429" lon="6.59094">
        <ele>1586</ele>
        <time>2021-04-07T10:44:13Z</time>
      </trkpt>
      <trkpt lat="44.5143" lon="6.59095">
        <ele>1586</ele>
        <time>2021-04-07T10:44:14Z</time>
      </trkpt>
      <trkpt lat="44.51431" lon="6.59097">
        <ele>1586</ele>
        <time>2021-04-07T10:44:15Z</time>
      </trkpt>
      <trkpt lat="44.51431" lon="6.59099">
        <ele>1587</ele>
        <time>2021-04-07T10:44:16Z</time>
      </trkpt>
      <trkpt lat="44.51431" lon="6.591">
        <ele>1587</ele>
        <time>2021-04-07T10:44:17Z</time>
      </trkpt>
      <trkpt lat="44.51432" lon="6.59101">
        <ele>1588</ele>
        <time>2021-04-07T10:44:18Z</time>
      </trkpt>
      <trkpt lat="44.51433" lon="6.59103">
        <ele>1589</ele>
        <time>2021-04-07T10:44:19Z</time>
      </trkpt>
      <trkpt lat="44.51433" lon="6.59103">
        <ele>1589</ele>
        <time>2021-04-07T10:44:20Z</time>
      </trkpt>
      <trkpt lat="44.51432" lon="6.59104">
        <ele>1589</ele>
        <time>2021-04-07T10:44:21Z</time>
      </trkpt>
      <trkpt lat="44.51432" lon="6.59104">
        <ele>1589</ele>
        <time>2021-04-07T10:44:22Z</time>
      </trkpt>
      <trkpt lat="44.51432" lon="6.59104">
        <ele>1589</ele>
        <time>2021-04-07T10:44:23Z</time>
      </trkpt>
      <trkpt lat="44.51432" lon="6.59104">
        <ele>1589</ele>
        <time>2021-04-07T10:44:24Z</time>
      </trkpt>
      <trkpt lat="44.51432" lon="6.59104">
        <ele>1589</ele>
        <time>2021-04-07T10:44:25Z</time>
      </trkpt>
      <trkpt lat="44.51431" lon="6.59111">
        <ele>1590</ele>
        <time>2021-04-07T10:44:26Z</time>
      </trkpt>
      <trkpt lat="44.5143" lon="6.59112">
        <ele>1591</ele>
        <time>2021-04-07T10:44:27Z</time>
      </trkpt>
      <trkpt lat="44.51429" lon="6.59113">
        <ele>1591</ele>
        <time>2021-04-07T10:44:28Z</time>
      </trkpt>
      <trkpt lat="44.51429" lon="6.59115">
        <ele>1592</ele>
        <time>2021-04-07T10:44:29Z</time>
      </trkpt>
      <trkpt lat="44.51429" lon="6.59116">
        <ele>1592</ele>
        <time>2021-04-07T10:44:30Z</time>
      </trkpt>
      <trkpt lat="44.5143" lon="6.59118">
        <ele>1592</ele>
        <time>2021-04-07T10:44:31Z</time>
      </trkpt>
      <trkpt lat="44.51431" lon="6.59119">
        <ele>1593</ele>
        <time>2021-04-07T10:44:32Z</time>
      </trkpt>
      <trkpt lat="44.5143" lon="6.59121">
        <ele>1593</ele>
        <time>2021-04-07T10:44:33Z</time>
      </trkpt>
      <trkpt lat="44.5143" lon="6.59122">
        <ele>1593</ele>
        <time>2021-04-07T10:44:34Z</time>
      </trkpt>
      <trkpt lat="44.5143" lon="6.59124">
        <ele>1593</ele>
        <time>2021-04-07T10:44:35Z</time>
      </trkpt>
      <trkpt lat="44.51429" lon="6.59125">
        <ele>1592</ele>
        <time>2021-04-07T10:44:36Z</time>
      </trkpt>
      <trkpt lat="44.5143" lon="6.59127">
        <ele>1592</ele>
        <time>2021-04-07T10:44:37Z</time>
      </trkpt>
      <trkpt lat="44.5143" lon="6.59128">
        <ele>1592</ele>
        <time>2021-04-07T10:44:38Z</time>
      </trkpt>
      <trkpt lat="44.5143" lon="6.5913">
        <ele>1592</ele>
        <time>2021-04-07T10:44:39Z</time>
      </trkpt>
      <trkpt lat="44.51429" lon="6.59131">
        <ele>1591</ele>
        <time>2021-04-07T10:44:40Z</time>
      </trkpt>
      <trkpt lat="44.51429" lon="6.59133">
        <ele>1591</ele>
        <time>2021-04-07T10:44:41Z</time>
      </trkpt>
      <trkpt lat="44.51429" lon="6.59134">
        <ele>1591</ele>
        <time>2021-04-07T10:44:42Z</time>
      </trkpt>
      <trkpt lat="44.51429" lon="6.59135">
        <ele>1591</ele>
        <time>2021-04-07T10:44:43Z</time>
      </trkpt>
      <trkpt lat="44.51429" lon="6.59135">
        <ele>1591</ele>
        <time>2021-04-07T10:44:44Z</time>
      </trkpt>
      <trkpt lat="44.51429" lon="6.59135">
        <ele>1591</ele>
        <time>2021-04-07T10:44:45Z</time>
      </trkpt>
      <trkpt lat="44.51429" lon="6.59135">
        <ele>1591</ele>
        <time>2021-04-07T10:44:46Z</time>
      </trkpt>
      <trkpt lat="44.51429" lon="6.59135">
        <ele>1591</ele>
        <time>2021-04-07T10:44:47Z</time>
      </trkpt>
      <trkpt lat="44.51429" lon="6.59135">
        <ele>1591</ele>
        <time>2021-04-07T10:44:48Z</time>
      </trkpt>
      <trkpt lat="44.51429" lon="6.59135">
        <ele>1591</ele>
        <time>2021-04-07T10:44:49Z</time>
      </trkpt>
      <trkpt lat="44.51429" lon="6.59135">
        <ele>1591</ele>
        <time>2021-04-07T10:44:50Z</time>
      </trkpt>
      <trkpt lat="44.51429" lon="6.59135">
        <ele>1591</ele>
        <time>2021-04-07T10:44:51Z</time>
      </trkpt>
      <trkpt lat="44.51429" lon="6.59135">
        <ele>1591</ele>
        <time>2021-04-07T10:44:52Z</time>
      </trkpt>
      <trkpt lat="44.51429" lon="6.59135">
        <ele>1591</ele>
        <time>2021-04-07T10:44:53Z</time>
      </trkpt>
      <trkpt lat="44.51429" lon="6.59135">
        <ele>1591</ele>
        <time>2021-04-07T10:44:54Z</time>
      </trkpt>
      <trkpt lat="44.51429" lon="6.59149">
        <ele>1592</ele>
        <time>2021-04-07T10:44:55Z</time>
      </trkpt>
      <trkpt lat="44.51429" lon="6.59151">
        <ele>1592</ele>
        <time>2021-04-07T10:44:56Z</time>
      </trkpt>
      <trkpt lat="44.51429" lon="6.59153">
        <ele>1592</ele>
        <time>2021-04-07T10:44:57Z</time>
      </trkpt>
      <trkpt lat="44.51429" lon="6.59155">
        <ele>1592</ele>
        <time>2021-04-07T10:44:58Z</time>
      </trkpt>
      <trkpt lat="44.51428" lon="6.59157">
        <ele>1592</ele>
        <time>2021-04-07T10:44:59Z</time>
      </trkpt>
      <trkpt lat="44.51428" lon="6.59159">
        <ele>1593</ele>
        <time>2021-04-07T10:45:00Z</time>
      </trkpt>
      <trkpt lat="44.51428" lon="6.5916">
        <ele>1593</ele>
        <time>2021-04-07T10:45:01Z</time>
      </trkpt>
      <trkpt lat="44.51429" lon="6.59162">
        <ele>1593</ele>
        <time>2021-04-07T10:45:02Z</time>
      </trkpt>
      <trkpt lat="44.51428" lon="6.59163">
        <ele>1593</ele>
        <time>2021-04-07T10:45:03Z</time>
      </trkpt>
      <trkpt lat="44.51429" lon="6.59164">
        <ele>1593</ele>
        <time>2021-04-07T10:45:04Z</time>
      </trkpt>
      <trkpt lat="44.51429" lon="6.59166">
        <ele>1594</ele>
        <time>2021-04-07T10:45:05Z</time>
      </trkpt>
      <trkpt lat="44.51428" lon="6.59168">
        <ele>1594</ele>
        <time>2021-04-07T10:45:06Z</time>
      </trkpt>
      <trkpt lat="44.51429" lon="6.5917">
        <ele>1594</ele>
        <time>2021-04-07T10:45:07Z</time>
      </trkpt>
      <trkpt lat="44.51429" lon="6.59172">
        <ele>1594</ele>
        <time>2021-04-07T10:45:08Z</time>
      </trkpt>
      <trkpt lat="44.51429" lon="6.59173">
        <ele>1595</ele>
        <time>2021-04-07T10:45:09Z</time>
      </trkpt>
      <trkpt lat="44.51429" lon="6.59174">
        <ele>1595</ele>
        <time>2021-04-07T10:45:10Z</time>
      </trkpt>
      <trkpt lat="44.51429" lon="6.59174">
        <ele>1595</ele>
        <time>2021-04-07T10:45:11Z</time>
      </trkpt>
      <trkpt lat="44.51429" lon="6.59174">
        <ele>1595</ele>
        <time>2021-04-07T10:45:12Z</time>
      </trkpt>
      <trkpt lat="44.51429" lon="6.59174">
        <ele>1595</ele>
        <time>2021-04-07T10:45:13Z</time>
      </trkpt>
      <trkpt lat="44.51429" lon="6.59174">
        <ele>1595</ele>
        <time>2021-04-07T10:45:14Z</time>
      </trkpt>
      <trkpt lat="44.51429" lon="6.59174">
        <ele>1595</ele>
        <time>2021-04-07T10:45:15Z</time>
      </trkpt>
      <trkpt lat="44.51429" lon="6.59174">
        <ele>1595</ele>
        <time>2021-04-07T10:45:16Z</time>
      </trkpt>
      <trkpt lat="44.51429" lon="6.59174">
        <ele>1595</ele>
        <time>2021-04-07T10:45:17Z</time>
      </trkpt>
      <trkpt lat="44.51429" lon="6.59174">
        <ele>1595</ele>
        <time>2021-04-07T10:45:18Z</time>
      </trkpt>
      <trkpt lat="44.51429" lon="6.59174">
        <ele>1595</ele>
        <time>2021-04-07T10:45:19Z</time>
      </trkpt>
      <trkpt lat="44.51429" lon="6.59174">
        <ele>1595</ele>
        <time>2021-04-07T10:45:20Z</time>
      </trkpt>
      <trkpt lat="44.51429" lon="6.59174">
        <ele>1595</ele>
        <time>2021-04-07T10:45:21Z</time>
      </trkpt>
      <trkpt lat="44.51429" lon="6.59174">
        <ele>1595</ele>
        <time>2021-04-07T10:45:22Z</time>
      </trkpt>
      <trkpt lat="44.51431" lon="6.59186">
        <ele>1596</ele>
        <time>2021-04-07T10:45:23Z</time>
      </trkpt>
      <trkpt lat="44.51431" lon="6.59189">
        <ele>1596</ele>
        <time>2021-04-07T10:45:24Z</time>
      </trkpt>
      <trkpt lat="44.5143" lon="6.5919">
        <ele>1596</ele>
        <time>2021-04-07T10:45:25Z</time>
      </trkpt>
      <trkpt lat="44.51429" lon="6.59192">
        <ele>1596</ele>
        <time>2021-04-07T10:45:26Z</time>
      </trkpt>
      <trkpt lat="44.51429" lon="6.59193">
        <ele>1596</ele>
        <time>2021-04-07T10:45:27Z</time>
      </trkpt>
      <trkpt lat="44.51429" lon="6.59193">
        <ele>1596</ele>
        <time>2021-04-07T10:45:28Z</time>
      </trkpt>
      <trkpt lat="44.51429" lon="6.59193">
        <ele>1596</ele>
        <time>2021-04-07T10:45:29Z</time>
      </trkpt>
      <trkpt lat="44.51429" lon="6.59193">
        <ele>1596</ele>
        <time>2021-04-07T10:45:30Z</time>
      </trkpt>
      <trkpt lat="44.51429" lon="6.59193">
        <ele>1596</ele>
        <time>2021-04-07T10:45:31Z</time>
      </trkpt>
      <trkpt lat="44.51429" lon="6.59193">
        <ele>1596</ele>
        <time>2021-04-07T10:45:32Z</time>
      </trkpt>
      <trkpt lat="44.51429" lon="6.59193">
        <ele>1596</ele>
        <time>2021-04-07T10:45:33Z</time>
      </trkpt>
      <trkpt lat="44.51429" lon="6.59193">
        <ele>1596</ele>
        <time>2021-04-07T10:45:34Z</time>
      </trkpt>
      <trkpt lat="44.51429" lon="6.59193">
        <ele>1596</ele>
        <time>2021-04-07T10:45:35Z</time>
      </trkpt>
      <trkpt lat="44.51429" lon="6.59193">
        <ele>1596</ele>
        <time>2021-04-07T10:45:36Z</time>
      </trkpt>
      <trkpt lat="44.51429" lon="6.59193">
        <ele>1596</ele>
        <time>2021-04-07T10:45:37Z</time>
      </trkpt>
      <trkpt lat="44.51421" lon="6.59191">
        <ele>1597</ele>
        <time>2021-04-07T10:45:38Z</time>
      </trkpt>
      <trkpt lat="44.5142" lon="6.5919">
        <ele>1596</ele>
        <time>2021-04-07T10:45:39Z</time>
      </trkpt>
      <trkpt lat="44.5142" lon="6.59189">
        <ele>1596</ele>
        <time>2021-04-07T10:45:40Z</time>
      </trkpt>
      <trkpt lat="44.5142" lon="6.59187">
        <ele>1596</ele>
        <time>2021-04-07T10:45:41Z</time>
      </trkpt>
      <trkpt lat="44.5142" lon="6.59185">
        <ele>1596</ele>
        <time>2021-04-07T10:45:42Z</time>
      </trkpt>
      <trkpt lat="44.5142" lon="6.59184">
        <ele>1596</ele>
        <time>2021-04-07T10:45:43Z</time>
      </trkpt>
      <trkpt lat="44.5142" lon="6.59182">
        <ele>1596</ele>
        <time>2021-04-07T10:45:44Z</time>
      </trkpt>
      <trkpt lat="44.51421" lon="6.5918">
        <ele>1596</ele>
        <time>2021-04-07T10:45:45Z</time>
      </trkpt>
      <trkpt lat="44.51421" lon="6.59179">
        <ele>1596</ele>
        <time>2021-04-07T10:45:46Z</time>
      </trkpt>
      <trkpt lat="44.5142" lon="6.59178">
        <ele>1596</ele>
        <time>2021-04-07T10:45:47Z</time>
      </trkpt>
      <trkpt lat="44.5142" lon="6.59176">
        <ele>1596</ele>
        <time>2021-04-07T10:45:48Z</time>
      </trkpt>
      <trkpt lat="44.51419" lon="6.59174">
        <ele>1596</ele>
        <time>2021-04-07T10:45:49Z</time>
      </trkpt>
      <trkpt lat="44.5142" lon="6.59173">
        <ele>1596</ele>
        <time>2021-04-07T10:45:50Z</time>
      </trkpt>
      <trkpt lat="44.5142" lon="6.59171">
        <ele>1596</ele>
        <time>2021-04-07T10:45:51Z</time>
      </trkpt>
      <trkpt lat="44.5142" lon="6.5917">
        <ele>1596</ele>
        <time>2021-04-07T10:45:52Z</time>
      </trkpt>
      <trkpt lat="44.5142" lon="6.5917">
        <ele>1596</ele>
        <time>2021-04-07T10:45:53Z</time>
      </trkpt>
      <trkpt lat="44.5142" lon="6.5917">
        <ele>1596</ele>
        <time>2021-04-07T10:45:54Z</time>
      </trkpt>
      <trkpt lat="44.5142" lon="6.59165">
        <ele>1596</ele>
        <time>2021-04-07T10:45:55Z</time>
      </trkpt>
      <trkpt lat="44.5142" lon="6.59162">
        <ele>1596</ele>
        <time>2021-04-07T10:45:56Z</time>
      </trkpt>
      <trkpt lat="44.51419" lon="6.59161">
        <ele>1596</ele>
        <time>2021-04-07T10:45:57Z</time>
      </trkpt>
      <trkpt lat="44.51419" lon="6.59159">
        <ele>1596</ele>
        <time>2021-04-07T10:45:58Z</time>
      </trkpt>
      <trkpt lat="44.51419" lon="6.59158">
        <ele>1596</ele>
        <time>2021-04-07T10:45:59Z</time>
      </trkpt>
      <trkpt lat="44.51418" lon="6.59158">
        <ele>1596</ele>
        <time>2021-04-07T10:46:00Z</time>
      </trkpt>
      <trkpt lat="44.51418" lon="6.59156">
        <ele>1596</ele>
        <time>2021-04-07T10:46:01Z</time>
      </trkpt>
      <trkpt lat="44.51418" lon="6.59155">
        <ele>1596</ele>
        <time>2021-04-07T10:46:02Z</time>
      </trkpt>
      <trkpt lat="44.51418" lon="6.59154">
        <ele>1596</ele>
        <time>2021-04-07T10:46:03Z</time>
      </trkpt>
      <trkpt lat="44.51418" lon="6.59152">
        <ele>1596</ele>
        <time>2021-04-07T10:46:04Z</time>
      </trkpt>
      <trkpt lat="44.51419" lon="6.59151">
        <ele>1596</ele>
        <time>2021-04-07T10:46:05Z</time>
      </trkpt>
      <trkpt lat="44.51419" lon="6.59149">
        <ele>1596</ele>
        <time>2021-04-07T10:46:06Z</time>
      </trkpt>
      <trkpt lat="44.51419" lon="6.59148">
        <ele>1596</ele>
        <time>2021-04-07T10:46:07Z</time>
      </trkpt>
      <trkpt lat="44.51419" lon="6.59147">
        <ele>1596</ele>
        <time>2021-04-07T10:46:08Z</time>
      </trkpt>
      <trkpt lat="44.51418" lon="6.59146">
        <ele>1596</ele>
        <time>2021-04-07T10:46:09Z</time>
      </trkpt>
      <trkpt lat="44.51418" lon="6.59145">
        <ele>1596</ele>
        <time>2021-04-07T10:46:10Z</time>
      </trkpt>
      <trkpt lat="44.51418" lon="6.59143">
        <ele>1597</ele>
        <time>2021-04-07T10:46:11Z</time>
      </trkpt>
      <trkpt lat="44.51417" lon="6.59141">
        <ele>1597</ele>
        <time>2021-04-07T10:46:12Z</time>
      </trkpt>
      <trkpt lat="44.51417" lon="6.59139">
        <ele>1597</ele>
        <time>2021-04-07T10:46:13Z</time>
      </trkpt>
      <trkpt lat="44.51417" lon="6.59137">
        <ele>1597</ele>
        <time>2021-04-07T10:46:14Z</time>
      </trkpt>
      <trkpt lat="44.51416" lon="6.59136">
        <ele>1597</ele>
        <time>2021-04-07T10:46:15Z</time>
      </trkpt>
      <trkpt lat="44.51416" lon="6.59136">
        <ele>1597</ele>
        <time>2021-04-07T10:46:16Z</time>
      </trkpt>
      <trkpt lat="44.51415" lon="6.59135">
        <ele>1597</ele>
        <time>2021-04-07T10:46:17Z</time>
      </trkpt>
      <trkpt lat="44.51415" lon="6.59135">
        <ele>1597</ele>
        <time>2021-04-07T10:46:18Z</time>
      </trkpt>
      <trkpt lat="44.51415" lon="6.59135">
        <ele>1597</ele>
        <time>2021-04-07T10:46:19Z</time>
      </trkpt>
      <trkpt lat="44.51414" lon="6.5913">
        <ele>1596</ele>
        <time>2021-04-07T10:46:20Z</time>
      </trkpt>
      <trkpt lat="44.51414" lon="6.59128">
        <ele>1596</ele>
        <time>2021-04-07T10:46:21Z</time>
      </trkpt>
      <trkpt lat="44.51413" lon="6.59127">
        <ele>1595</ele>
        <time>2021-04-07T10:46:22Z</time>
      </trkpt>
      <trkpt lat="44.51413" lon="6.59125">
        <ele>1595</ele>
        <time>2021-04-07T10:46:23Z</time>
      </trkpt>
      <trkpt lat="44.51413" lon="6.59124">
        <ele>1595</ele>
        <time>2021-04-07T10:46:24Z</time>
      </trkpt>
      <trkpt lat="44.51413" lon="6.59124">
        <ele>1594</ele>
        <time>2021-04-07T10:46:25Z</time>
      </trkpt>
      <trkpt lat="44.51413" lon="6.59124">
        <ele>1594</ele>
        <time>2021-04-07T10:46:26Z</time>
      </trkpt>
      <trkpt lat="44.51413" lon="6.59124">
        <ele>1594</ele>
        <time>2021-04-07T10:46:27Z</time>
      </trkpt>
      <trkpt lat="44.5141" lon="6.59118">
        <ele>1594</ele>
        <time>2021-04-07T10:46:28Z</time>
      </trkpt>
      <trkpt lat="44.51408" lon="6.59116">
        <ele>1594</ele>
        <time>2021-04-07T10:46:29Z</time>
      </trkpt>
      <trkpt lat="44.51407" lon="6.59114">
        <ele>1594</ele>
        <time>2021-04-07T10:46:30Z</time>
      </trkpt>
      <trkpt lat="44.51406" lon="6.59112">
        <ele>1594</ele>
        <time>2021-04-07T10:46:31Z</time>
      </trkpt>
      <trkpt lat="44.51405" lon="6.5911">
        <ele>1594</ele>
        <time>2021-04-07T10:46:32Z</time>
      </trkpt>
      <trkpt lat="44.51403" lon="6.59108">
        <ele>1594</ele>
        <time>2021-04-07T10:46:33Z</time>
      </trkpt>
      <trkpt lat="44.51402" lon="6.59106">
        <ele>1594</ele>
        <time>2021-04-07T10:46:34Z</time>
      </trkpt>
      <trkpt lat="44.51402" lon="6.59105">
        <ele>1594</ele>
        <time>2021-04-07T10:46:35Z</time>
      </trkpt>
      <trkpt lat="44.51401" lon="6.59104">
        <ele>1594</ele>
        <time>2021-04-07T10:46:36Z</time>
      </trkpt>
      <trkpt lat="44.514" lon="6.59104">
        <ele>1594</ele>
        <time>2021-04-07T10:46:37Z</time>
      </trkpt>
      <trkpt lat="44.51399" lon="6.59104">
        <ele>1594</ele>
        <time>2021-04-07T10:46:38Z</time>
      </trkpt>
      <trkpt lat="44.51399" lon="6.59104">
        <ele>1594</ele>
        <time>2021-04-07T10:46:39Z</time>
      </trkpt>
      <trkpt lat="44.51399" lon="6.59104">
        <ele>1594</ele>
        <time>2021-04-07T10:46:40Z</time>
      </trkpt>
      <trkpt lat="44.51399" lon="6.59104">
        <ele>1594</ele>
        <time>2021-04-07T10:46:41Z</time>
      </trkpt>
      <trkpt lat="44.51399" lon="6.59104">
        <ele>1594</ele>
        <time>2021-04-07T10:46:42Z</time>
      </trkpt>
      <trkpt lat="44.51399" lon="6.59104">
        <ele>1594</ele>
        <time>2021-04-07T10:46:43Z</time>
      </trkpt>
      <trkpt lat="44.51399" lon="6.59104">
        <ele>1594</ele>
        <time>2021-04-07T10:46:44Z</time>
      </trkpt>
      <trkpt lat="44.51401" lon="6.59104">
        <ele>1594</ele>
        <time>2021-04-07T10:46:45Z</time>
      </trkpt>
      <trkpt lat="44.51403" lon="6.59105">
        <ele>1595</ele>
        <time>2021-04-07T10:46:46Z</time>
      </trkpt>
      <trkpt lat="44.51404" lon="6.59105">
        <ele>1595</ele>
        <time>2021-04-07T10:46:47Z</time>
      </trkpt>
      <trkpt lat="44.51405" lon="6.59107">
        <ele>1596</ele>
        <time>2021-04-07T10:46:48Z</time>
      </trkpt>
      <trkpt lat="44.51405" lon="6.59108">
        <ele>1597</ele>
        <time>2021-04-07T10:46:49Z</time>
      </trkpt>
      <trkpt lat="44.51406" lon="6.59109">
        <ele>1597</ele>
        <time>2021-04-07T10:46:50Z</time>
      </trkpt>
      <trkpt lat="44.51406" lon="6.59111">
        <ele>1598</ele>
        <time>2021-04-07T10:46:51Z</time>
      </trkpt>
      <trkpt lat="44.51406" lon="6.59113">
        <ele>1599</ele>
        <time>2021-04-07T10:46:52Z</time>
      </trkpt>
      <trkpt lat="44.51406" lon="6.59115">
        <ele>1599</ele>
        <time>2021-04-07T10:46:53Z</time>
      </trkpt>
      <trkpt lat="44.51407" lon="6.59117">
        <ele>1599</ele>
        <time>2021-04-07T10:46:54Z</time>
      </trkpt>
      <trkpt lat="44.51408" lon="6.59118">
        <ele>1600</ele>
        <time>2021-04-07T10:46:55Z</time>
      </trkpt>
      <trkpt lat="44.51408" lon="6.5912">
        <ele>1600</ele>
        <time>2021-04-07T10:46:56Z</time>
      </trkpt>
      <trkpt lat="44.51409" lon="6.59122">
        <ele>1600</ele>
        <time>2021-04-07T10:46:57Z</time>
      </trkpt>
      <trkpt lat="44.51409" lon="6.59123">
        <ele>1600</ele>
        <time>2021-04-07T10:46:58Z</time>
      </trkpt>
      <trkpt lat="44.51409" lon="6.59125">
        <ele>1600</ele>
        <time>2021-04-07T10:46:59Z</time>
      </trkpt>
      <trkpt lat="44.5141" lon="6.59127">
        <ele>1600</ele>
        <time>2021-04-07T10:47:00Z</time>
      </trkpt>
      <trkpt lat="44.5141" lon="6.59129">
        <ele>1601</ele>
        <time>2021-04-07T10:47:01Z</time>
      </trkpt>
      <trkpt lat="44.51411" lon="6.59131">
        <ele>1601</ele>
        <time>2021-04-07T10:47:02Z</time>
      </trkpt>
      <trkpt lat="44.51411" lon="6.59133">
        <ele>1601</ele>
        <time>2021-04-07T10:47:03Z</time>
      </trkpt>
      <trkpt lat="44.51411" lon="6.59134">
        <ele>1600</ele>
        <time>2021-04-07T10:47:04Z</time>
      </trkpt>
      <trkpt lat="44.51412" lon="6.59135">
        <ele>1600</ele>
        <time>2021-04-07T10:47:05Z</time>
      </trkpt>
      <trkpt lat="44.51412" lon="6.59137">
        <ele>1600</ele>
        <time>2021-04-07T10:47:06Z</time>
      </trkpt>
      <trkpt lat="44.51412" lon="6.59139">
        <ele>1600</ele>
        <time>2021-04-07T10:47:07Z</time>
      </trkpt>
      <trkpt lat="44.51412" lon="6.5914">
        <ele>1600</ele>
        <time>2021-04-07T10:47:08Z</time>
      </trkpt>
      <trkpt lat="44.51412" lon="6.59142">
        <ele>1600</ele>
        <time>2021-04-07T10:47:09Z</time>
      </trkpt>
      <trkpt lat="44.51413" lon="6.59144">
        <ele>1600</ele>
        <time>2021-04-07T10:47:10Z</time>
      </trkpt>
      <trkpt lat="44.51413" lon="6.59145">
        <ele>1599</ele>
        <time>2021-04-07T10:47:11Z</time>
      </trkpt>
      <trkpt lat="44.51413" lon="6.59146">
        <ele>1599</ele>
        <time>2021-04-07T10:47:12Z</time>
      </trkpt>
      <trkpt lat="44.51412" lon="6.59147">
        <ele>1599</ele>
        <time>2021-04-07T10:47:13Z</time>
      </trkpt>
      <trkpt lat="44.51412" lon="6.59147">
        <ele>1599</ele>
        <time>2021-04-07T10:47:14Z</time>
      </trkpt>
      <trkpt lat="44.51412" lon="6.59147">
        <ele>1599</ele>
        <time>2021-04-07T10:47:15Z</time>
      </trkpt>
      <trkpt lat="44.51412" lon="6.59147">
        <ele>1598</ele>
        <time>2021-04-07T10:47:16Z</time>
      </trkpt>
      <trkpt lat="44.51412" lon="6.59147">
        <ele>1598</ele>
        <time>2021-04-07T10:47:17Z</time>
      </trkpt>
      <trkpt lat="44.51412" lon="6.59147">
        <ele>1598</ele>
        <time>2021-04-07T10:47:18Z</time>
      </trkpt>
      <trkpt lat="44.51412" lon="6.59147">
        <ele>1598</ele>
        <time>2021-04-07T10:47:19Z</time>
      </trkpt>
      <trkpt lat="44.51412" lon="6.59147">
        <ele>1598</ele>
        <time>2021-04-07T10:47:20Z</time>
      </trkpt>
      <trkpt lat="44.51415" lon="6.59158">
        <ele>1597</ele>
        <time>2021-04-07T10:47:21Z</time>
      </trkpt>
      <trkpt lat="44.51415" lon="6.5916">
        <ele>1597</ele>
        <time>2021-04-07T10:47:22Z</time>
      </trkpt>
      <trkpt lat="44.51416" lon="6.59162">
        <ele>1596</ele>
        <time>2021-04-07T10:47:23Z</time>
      </trkpt>
      <trkpt lat="44.51416" lon="6.59164">
        <ele>1596</ele>
        <time>2021-04-07T10:47:24Z</time>
      </trkpt>
      <trkpt lat="44.51417" lon="6.59166">
        <ele>1596</ele>
        <time>2021-04-07T10:47:25Z</time>
      </trkpt>
      <trkpt lat="44.51417" lon="6.59168">
        <ele>1596</ele>
        <time>2021-04-07T10:47:26Z</time>
      </trkpt>
      <trkpt lat="44.51418" lon="6.5917">
        <ele>1596</ele>
        <time>2021-04-07T10:47:27Z</time>
      </trkpt>
      <trkpt lat="44.51417" lon="6.59171">
        <ele>1596</ele>
        <time>2021-04-07T10:47:28Z</time>
      </trkpt>
      <trkpt lat="44.51417" lon="6.59173">
        <ele>1596</ele>
        <time>2021-04-07T10:47:29Z</time>
      </trkpt>
      <trkpt lat="44.51418" lon="6.59175">
        <ele>1596</ele>
        <time>2021-04-07T10:47:30Z</time>
      </trkpt>
      <trkpt lat="44.51418" lon="6.59177">
        <ele>1596</ele>
        <time>2021-04-07T10:47:31Z</time>
      </trkpt>
      <trkpt lat="44.51419" lon="6.59178">
        <ele>1596</ele>
        <time>2021-04-07T10:47:32Z</time>
      </trkpt>
      <trkpt lat="44.51419" lon="6.5918">
        <ele>1596</ele>
        <time>2021-04-07T10:47:33Z</time>
      </trkpt>
      <trkpt lat="44.5142" lon="6.59183">
        <ele>1596</ele>
        <time>2021-04-07T10:47:34Z</time>
      </trkpt>
      <trkpt lat="44.5142" lon="6.59185">
        <ele>1596</ele>
        <time>2021-04-07T10:47:35Z</time>
      </trkpt>
      <trkpt lat="44.5142" lon="6.59186">
        <ele>1596</ele>
        <time>2021-04-07T10:47:36Z</time>
      </trkpt>
      <trkpt lat="44.51421" lon="6.59187">
        <ele>1596</ele>
        <time>2021-04-07T10:47:37Z</time>
      </trkpt>
      <trkpt lat="44.51421" lon="6.59189">
        <ele>1596</ele>
        <time>2021-04-07T10:47:38Z</time>
      </trkpt>
      <trkpt lat="44.51421" lon="6.59191">
        <ele>1596</ele>
        <time>2021-04-07T10:47:39Z</time>
      </trkpt>
      <trkpt lat="44.51421" lon="6.59192">
        <ele>1596</ele>
        <time>2021-04-07T10:47:40Z</time>
      </trkpt>
      <trkpt lat="44.51422" lon="6.59192">
        <ele>1596</ele>
        <time>2021-04-07T10:47:41Z</time>
      </trkpt>
      <trkpt lat="44.51422" lon="6.59192">
        <ele>1596</ele>
        <time>2021-04-07T10:47:42Z</time>
      </trkpt>
      <trkpt lat="44.51423" lon="6.59194">
        <ele>1595</ele>
        <time>2021-04-07T10:47:43Z</time>
      </trkpt>
      <trkpt lat="44.51425" lon="6.59195">
        <ele>1595</ele>
        <time>2021-04-07T10:47:44Z</time>
      </trkpt>
      <trkpt lat="44.51426" lon="6.59196">
        <ele>1595</ele>
        <time>2021-04-07T10:47:45Z</time>
      </trkpt>
      <trkpt lat="44.51428" lon="6.59195">
        <ele>1595</ele>
        <time>2021-04-07T10:47:46Z</time>
      </trkpt>
      <trkpt lat="44.51429" lon="6.59194">
        <ele>1595</ele>
        <time>2021-04-07T10:47:47Z</time>
      </trkpt>
      <trkpt lat="44.5143" lon="6.59192">
        <ele>1595</ele>
        <time>2021-04-07T10:47:48Z</time>
      </trkpt>
      <trkpt lat="44.51431" lon="6.59191">
        <ele>1595</ele>
        <time>2021-04-07T10:47:49Z</time>
      </trkpt>
      <trkpt lat="44.51432" lon="6.5919">
        <ele>1595</ele>
        <time>2021-04-07T10:47:50Z</time>
      </trkpt>
      <trkpt lat="44.51433" lon="6.59188">
        <ele>1595</ele>
        <time>2021-04-07T10:47:51Z</time>
      </trkpt>
      <trkpt lat="44.51433" lon="6.59186">
        <ele>1595</ele>
        <time>2021-04-07T10:47:52Z</time>
      </trkpt>
      <trkpt lat="44.51433" lon="6.59184">
        <ele>1595</ele>
        <time>2021-04-07T10:47:53Z</time>
      </trkpt>
      <trkpt lat="44.51433" lon="6.59182">
        <ele>1595</ele>
        <time>2021-04-07T10:47:54Z</time>
      </trkpt>
      <trkpt lat="44.51434" lon="6.5918">
        <ele>1594</ele>
        <time>2021-04-07T10:47:55Z</time>
      </trkpt>
      <trkpt lat="44.51434" lon="6.59178">
        <ele>1594</ele>
        <time>2021-04-07T10:47:56Z</time>
      </trkpt>
      <trkpt lat="44.51433" lon="6.59176">
        <ele>1594</ele>
        <time>2021-04-07T10:47:57Z</time>
      </trkpt>
      <trkpt lat="44.51433" lon="6.59174">
        <ele>1593</ele>
        <time>2021-04-07T10:47:58Z</time>
      </trkpt>
      <trkpt lat="44.51432" lon="6.59172">
        <ele>1593</ele>
        <time>2021-04-07T10:47:59Z</time>
      </trkpt>
      <trkpt lat="44.51431" lon="6.5917">
        <ele>1593</ele>
        <time>2021-04-07T10:48:00Z</time>
      </trkpt>
      <trkpt lat="44.51431" lon="6.59167">
        <ele>1592</ele>
        <time>2021-04-07T10:48:01Z</time>
      </trkpt>
      <trkpt lat="44.51431" lon="6.59165">
        <ele>1592</ele>
        <time>2021-04-07T10:48:02Z</time>
      </trkpt>
      <trkpt lat="44.51431" lon="6.59164">
        <ele>1591</ele>
        <time>2021-04-07T10:48:03Z</time>
      </trkpt>
      <trkpt lat="44.51431" lon="6.59162">
        <ele>1590</ele>
        <time>2021-04-07T10:48:04Z</time>
      </trkpt>
      <trkpt lat="44.51431" lon="6.59161">
        <ele>1590</ele>
        <time>2021-04-07T10:48:05Z</time>
      </trkpt>
      <trkpt lat="44.51431" lon="6.5916">
        <ele>1589</ele>
        <time>2021-04-07T10:48:06Z</time>
      </trkpt>
      <trkpt lat="44.51431" lon="6.5916">
        <ele>1589</ele>
        <time>2021-04-07T10:48:07Z</time>
      </trkpt>
      <trkpt lat="44.51431" lon="6.5916">
        <ele>1589</ele>
        <time>2021-04-07T10:48:08Z</time>
      </trkpt>
      <trkpt lat="44.51432" lon="6.59154">
        <ele>1587</ele>
        <time>2021-04-07T10:48:09Z</time>
      </trkpt>
      <trkpt lat="44.51432" lon="6.59152">
        <ele>1586</ele>
        <time>2021-04-07T10:48:10Z</time>
      </trkpt>
      <trkpt lat="44.51432" lon="6.5915">
        <ele>1585</ele>
        <time>2021-04-07T10:48:11Z</time>
      </trkpt>
      <trkpt lat="44.51432" lon="6.59148">
        <ele>1584</ele>
        <time>2021-04-07T10:48:12Z</time>
      </trkpt>
      <trkpt lat="44.51432" lon="6.59146">
        <ele>1584</ele>
        <time>2021-04-07T10:48:13Z</time>
      </trkpt>
      <trkpt lat="44.51432" lon="6.59145">
        <ele>1584</ele>
        <time>2021-04-07T10:48:14Z</time>
      </trkpt>
      <trkpt lat="44.51432" lon="6.59145">
        <ele>1584</ele>
        <time>2021-04-07T10:48:15Z</time>
      </trkpt>
      <trkpt lat="44.51432" lon="6.59144">
        <ele>1583</ele>
        <time>2021-04-07T10:48:16Z</time>
      </trkpt>
      <trkpt lat="44.51432" lon="6.59144">
        <ele>1583</ele>
        <time>2021-04-07T10:48:17Z</time>
      </trkpt>
      <trkpt lat="44.51432" lon="6.59144">
        <ele>1583</ele>
        <time>2021-04-07T10:48:18Z</time>
      </trkpt>
      <trkpt lat="44.51432" lon="6.59144">
        <ele>1583</ele>
        <time>2021-04-07T10:48:19Z</time>
      </trkpt>
      <trkpt lat="44.51432" lon="6.59144">
        <ele>1583</ele>
        <time>2021-04-07T10:48:20Z</time>
      </trkpt>
      <trkpt lat="44.51432" lon="6.59144">
        <ele>1583</ele>
        <time>2021-04-07T10:48:21Z</time>
      </trkpt>
      <trkpt lat="44.51432" lon="6.59137">
        <ele>1583</ele>
        <time>2021-04-07T10:48:22Z</time>
      </trkpt>
      <trkpt lat="44.51433" lon="6.59135">
        <ele>1583</ele>
        <time>2021-04-07T10:48:23Z</time>
      </trkpt>
      <trkpt lat="44.51433" lon="6.59133">
        <ele>1582</ele>
        <time>2021-04-07T10:48:24Z</time>
      </trkpt>
      <trkpt lat="44.51433" lon="6.59132">
        <ele>1582</ele>
        <time>2021-04-07T10:48:25Z</time>
      </trkpt>
      <trkpt lat="44.51433" lon="6.5913">
        <ele>1582</ele>
        <time>2021-04-07T10:48:26Z</time>
      </trkpt>
      <trkpt lat="44.51432" lon="6.59128">
        <ele>1582</ele>
        <time>2021-04-07T10:48:27Z</time>
      </trkpt>
      <trkpt lat="44.51432" lon="6.59128">
        <ele>1582</ele>
        <time>2021-04-07T10:48:28Z</time>
      </trkpt>
      <trkpt lat="44.51432" lon="6.59127">
        <ele>1582</ele>
        <time>2021-04-07T10:48:29Z</time>
      </trkpt>
      <trkpt lat="44.51432" lon="6.59127">
        <ele>1582</ele>
        <time>2021-04-07T10:48:30Z</time>
      </trkpt>
      <trkpt lat="44.51432" lon="6.59124">
        <ele>1582</ele>
        <time>2021-04-07T10:48:31Z</time>
      </trkpt>
      <trkpt lat="44.51431" lon="6.59122">
        <ele>1582</ele>
        <time>2021-04-07T10:48:32Z</time>
      </trkpt>
      <trkpt lat="44.51432" lon="6.59121">
        <ele>1582</ele>
        <time>2021-04-07T10:48:33Z</time>
      </trkpt>
      <trkpt lat="44.51432" lon="6.59119">
        <ele>1582</ele>
        <time>2021-04-07T10:48:34Z</time>
      </trkpt>
      <trkpt lat="44.51433" lon="6.59118">
        <ele>1582</ele>
        <time>2021-04-07T10:48:35Z</time>
      </trkpt>
      <trkpt lat="44.51433" lon="6.59117">
        <ele>1582</ele>
        <time>2021-04-07T10:48:36Z</time>
      </trkpt>
      <trkpt lat="44.51435" lon="6.59115">
        <ele>1581</ele>
        <time>2021-04-07T10:48:37Z</time>
      </trkpt>
      <trkpt lat="44.51436" lon="6.59114">
        <ele>1581</ele>
        <time>2021-04-07T10:48:38Z</time>
      </trkpt>
      <trkpt lat="44.51437" lon="6.59112">
        <ele>1581</ele>
        <time>2021-04-07T10:48:39Z</time>
      </trkpt>
      <trkpt lat="44.51437" lon="6.5911">
        <ele>1581</ele>
        <time>2021-04-07T10:48:40Z</time>
      </trkpt>
      <trkpt lat="44.51438" lon="6.59109">
        <ele>1581</ele>
        <time>2021-04-07T10:48:41Z</time>
      </trkpt>
      <trkpt lat="44.51438" lon="6.59108">
        <ele>1580</ele>
        <time>2021-04-07T10:48:42Z</time>
      </trkpt>
      <trkpt lat="44.51438" lon="6.59106">
        <ele>1580</ele>
        <time>2021-04-07T10:48:43Z</time>
      </trkpt>
      <trkpt lat="44.51438" lon="6.59105">
        <ele>1580</ele>
        <time>2021-04-07T10:48:44Z</time>
      </trkpt>
      <trkpt lat="44.51439" lon="6.59103">
        <ele>1580</ele>
        <time>2021-04-07T10:48:45Z</time>
      </trkpt>
      <trkpt lat="44.51439" lon="6.59102">
        <ele>1579</ele>
        <time>2021-04-07T10:48:46Z</time>
      </trkpt>
      <trkpt lat="44.51438" lon="6.59101">
        <ele>1579</ele>
        <time>2021-04-07T10:48:47Z</time>
      </trkpt>
      <trkpt lat="44.51438" lon="6.59099">
        <ele>1579</ele>
        <time>2021-04-07T10:48:48Z</time>
      </trkpt>
      <trkpt lat="44.51438" lon="6.59098">
        <ele>1578</ele>
        <time>2021-04-07T10:48:49Z</time>
      </trkpt>
      <trkpt lat="44.51438" lon="6.59096">
        <ele>1578</ele>
        <time>2021-04-07T10:48:50Z</time>
      </trkpt>
      <trkpt lat="44.51437" lon="6.59095">
        <ele>1578</ele>
        <time>2021-04-07T10:48:51Z</time>
      </trkpt>
      <trkpt lat="44.51437" lon="6.59093">
        <ele>1578</ele>
        <time>2021-04-07T10:48:52Z</time>
      </trkpt>
      <trkpt lat="44.51436" lon="6.59091">
        <ele>1578</ele>
        <time>2021-04-07T10:48:53Z</time>
      </trkpt>
      <trkpt lat="44.51436" lon="6.59089">
        <ele>1577</ele>
        <time>2021-04-07T10:48:54Z</time>
      </trkpt>
      <trkpt lat="44.51435" lon="6.59087">
        <ele>1577</ele>
        <time>2021-04-07T10:48:55Z</time>
      </trkpt>
      <trkpt lat="44.51435" lon="6.59085">
        <ele>1577</ele>
        <time>2021-04-07T10:48:56Z</time>
      </trkpt>
      <trkpt lat="44.51434" lon="6.59083">
        <ele>1577</ele>
        <time>2021-04-07T10:48:57Z</time>
      </trkpt>
      <trkpt lat="44.51434" lon="6.59082">
        <ele>1577</ele>
        <time>2021-04-07T10:48:58Z</time>
      </trkpt>
      <trkpt lat="44.51433" lon="6.5908">
        <ele>1577</ele>
        <time>2021-04-07T10:48:59Z</time>
      </trkpt>
      <trkpt lat="44.51433" lon="6.59078">
        <ele>1578</ele>
        <time>2021-04-07T10:49:00Z</time>
      </trkpt>
      <trkpt lat="44.51432" lon="6.59077">
        <ele>1578</ele>
        <time>2021-04-07T10:49:01Z</time>
      </trkpt>
      <trkpt lat="44.51432" lon="6.59075">
        <ele>1578</ele>
        <time>2021-04-07T10:49:02Z</time>
      </trkpt>
      <trkpt lat="44.51432" lon="6.59074">
        <ele>1579</ele>
        <time>2021-04-07T10:49:03Z</time>
      </trkpt>
      <trkpt lat="44.51431" lon="6.59072">
        <ele>1579</ele>
        <time>2021-04-07T10:49:04Z</time>
      </trkpt>
      <trkpt lat="44.51431" lon="6.59071">
        <ele>1579</ele>
        <time>2021-04-07T10:49:05Z</time>
      </trkpt>
      <trkpt lat="44.51431" lon="6.59071">
        <ele>1579</ele>
        <time>2021-04-07T10:49:06Z</time>
      </trkpt>
      <trkpt lat="44.51431" lon="6.59071">
        <ele>1579</ele>
        <time>2021-04-07T10:49:07Z</time>
      </trkpt>
      <trkpt lat="44.51431" lon="6.59071">
        <ele>1579</ele>
        <time>2021-04-07T10:49:08Z</time>
      </trkpt>
      <trkpt lat="44.51431" lon="6.59071">
        <ele>1579</ele>
        <time>2021-04-07T10:49:09Z</time>
      </trkpt>
      <trkpt lat="44.51428" lon="6.59067">
        <ele>1579</ele>
        <time>2021-04-07T10:49:10Z</time>
      </trkpt>
      <trkpt lat="44.51427" lon="6.59066">
        <ele>1578</ele>
        <time>2021-04-07T10:49:11Z</time>
      </trkpt>
      <trkpt lat="44.51426" lon="6.59065">
        <ele>1578</ele>
        <time>2021-04-07T10:49:12Z</time>
      </trkpt>
      <trkpt lat="44.51425" lon="6.59063">
        <ele>1577</ele>
        <time>2021-04-07T10:49:13Z</time>
      </trkpt>
      <trkpt lat="44.51423" lon="6.59062">
        <ele>1577</ele>
        <time>2021-04-07T10:49:14Z</time>
      </trkpt>
      <trkpt lat="44.51422" lon="6.59061">
        <ele>1576</ele>
        <time>2021-04-07T10:49:15Z</time>
      </trkpt>
      <trkpt lat="44.51421" lon="6.5906">
        <ele>1576</ele>
        <time>2021-04-07T10:49:16Z</time>
      </trkpt>
      <trkpt lat="44.5142" lon="6.59058">
        <ele>1575</ele>
        <time>2021-04-07T10:49:17Z</time>
      </trkpt>
      <trkpt lat="44.51419" lon="6.59057">
        <ele>1575</ele>
        <time>2021-04-07T10:49:18Z</time>
      </trkpt>
      <trkpt lat="44.51419" lon="6.59055">
        <ele>1574</ele>
        <time>2021-04-07T10:49:19Z</time>
      </trkpt>
      <trkpt lat="44.51418" lon="6.59053">
        <ele>1574</ele>
        <time>2021-04-07T10:49:20Z</time>
      </trkpt>
      <trkpt lat="44.51417" lon="6.59052">
        <ele>1573</ele>
        <time>2021-04-07T10:49:21Z</time>
      </trkpt>
      <trkpt lat="44.51417" lon="6.5905">
        <ele>1573</ele>
        <time>2021-04-07T10:49:22Z</time>
      </trkpt>
      <trkpt lat="44.51417" lon="6.59048">
        <ele>1572</ele>
        <time>2021-04-07T10:49:23Z</time>
      </trkpt>
      <trkpt lat="44.51416" lon="6.59047">
        <ele>1572</ele>
        <time>2021-04-07T10:49:24Z</time>
      </trkpt>
      <trkpt lat="44.51416" lon="6.59045">
        <ele>1571</ele>
        <time>2021-04-07T10:49:25Z</time>
      </trkpt>
      <trkpt lat="44.51415" lon="6.59043">
        <ele>1571</ele>
        <time>2021-04-07T10:49:26Z</time>
      </trkpt>
      <trkpt lat="44.51415" lon="6.59041">
        <ele>1571</ele>
        <time>2021-04-07T10:49:27Z</time>
      </trkpt>
      <trkpt lat="44.51414" lon="6.59039">
        <ele>1570</ele>
        <time>2021-04-07T10:49:28Z</time>
      </trkpt>
      <trkpt lat="44.51413" lon="6.59037">
        <ele>1570</ele>
        <time>2021-04-07T10:49:29Z</time>
      </trkpt>
      <trkpt lat="44.51413" lon="6.59035">
        <ele>1569</ele>
        <time>2021-04-07T10:49:30Z</time>
      </trkpt>
      <trkpt lat="44.51412" lon="6.59033">
        <ele>1569</ele>
        <time>2021-04-07T10:49:31Z</time>
      </trkpt>
      <trkpt lat="44.51411" lon="6.59031">
        <ele>1569</ele>
        <time>2021-04-07T10:49:32Z</time>
      </trkpt>
      <trkpt lat="44.5141" lon="6.59029">
        <ele>1569</ele>
        <time>2021-04-07T10:49:33Z</time>
      </trkpt>
      <trkpt lat="44.51409" lon="6.59027">
        <ele>1568</ele>
        <time>2021-04-07T10:49:34Z</time>
      </trkpt>
      <trkpt lat="44.51408" lon="6.59026">
        <ele>1568</ele>
        <time>2021-04-07T10:49:35Z</time>
      </trkpt>
      <trkpt lat="44.51407" lon="6.59024">
        <ele>1568</ele>
        <time>2021-04-07T10:49:36Z</time>
      </trkpt>
      <trkpt lat="44.51406" lon="6.59023">
        <ele>1567</ele>
        <time>2021-04-07T10:49:37Z</time>
      </trkpt>
      <trkpt lat="44.51405" lon="6.59022">
        <ele>1567</ele>
        <time>2021-04-07T10:49:38Z</time>
      </trkpt>
      <trkpt lat="44.51404" lon="6.5902">
        <ele>1567</ele>
        <time>2021-04-07T10:49:39Z</time>
      </trkpt>
      <trkpt lat="44.51403" lon="6.59018">
        <ele>1566</ele>
        <time>2021-04-07T10:49:40Z</time>
      </trkpt>
      <trkpt lat="44.51402" lon="6.59015">
        <ele>1566</ele>
        <time>2021-04-07T10:49:41Z</time>
      </trkpt>
      <trkpt lat="44.51402" lon="6.59014">
        <ele>1566</ele>
        <time>2021-04-07T10:49:42Z</time>
      </trkpt>
      <trkpt lat="44.51402" lon="6.59012">
        <ele>1566</ele>
        <time>2021-04-07T10:49:43Z</time>
      </trkpt>
      <trkpt lat="44.51401" lon="6.5901">
        <ele>1565</ele>
        <time>2021-04-07T10:49:44Z</time>
      </trkpt>
      <trkpt lat="44.514" lon="6.59008">
        <ele>1565</ele>
        <time>2021-04-07T10:49:45Z</time>
      </trkpt>
      <trkpt lat="44.514" lon="6.59005">
        <ele>1565</ele>
        <time>2021-04-07T10:49:46Z</time>
      </trkpt>
      <trkpt lat="44.514" lon="6.59003">
        <ele>1564</ele>
        <time>2021-04-07T10:49:47Z</time>
      </trkpt>
      <trkpt lat="44.514" lon="6.59001">
        <ele>1564</ele>
        <time>2021-04-07T10:49:48Z</time>
      </trkpt>
      <trkpt lat="44.514" lon="6.58999">
        <ele>1564</ele>
        <time>2021-04-07T10:49:49Z</time>
      </trkpt>
      <trkpt lat="44.51399" lon="6.58998">
        <ele>1564</ele>
        <time>2021-04-07T10:49:50Z</time>
      </trkpt>
      <trkpt lat="44.51398" lon="6.58998">
        <ele>1563</ele>
        <time>2021-04-07T10:49:51Z</time>
      </trkpt>
      <trkpt lat="44.51397" lon="6.58996">
        <ele>1563</ele>
        <time>2021-04-07T10:49:52Z</time>
      </trkpt>
      <trkpt lat="44.51396" lon="6.58995">
        <ele>1563</ele>
        <time>2021-04-07T10:49:53Z</time>
      </trkpt>
      <trkpt lat="44.51396" lon="6.58993">
        <ele>1563</ele>
        <time>2021-04-07T10:49:54Z</time>
      </trkpt>
      <trkpt lat="44.51396" lon="6.58992">
        <ele>1563</ele>
        <time>2021-04-07T10:49:55Z</time>
      </trkpt>
      <trkpt lat="44.51396" lon="6.5899">
        <ele>1563</ele>
        <time>2021-04-07T10:49:56Z</time>
      </trkpt>
      <trkpt lat="44.51395" lon="6.58988">
        <ele>1563</ele>
        <time>2021-04-07T10:49:57Z</time>
      </trkpt>
      <trkpt lat="44.51395" lon="6.58987">
        <ele>1563</ele>
        <time>2021-04-07T10:49:58Z</time>
      </trkpt>
      <trkpt lat="44.51395" lon="6.58985">
        <ele>1563</ele>
        <time>2021-04-07T10:49:59Z</time>
      </trkpt>
      <trkpt lat="44.51395" lon="6.58983">
        <ele>1563</ele>
        <time>2021-04-07T10:50:00Z</time>
      </trkpt>
      <trkpt lat="44.51396" lon="6.58982">
        <ele>1563</ele>
        <time>2021-04-07T10:50:01Z</time>
      </trkpt>
      <trkpt lat="44.51396" lon="6.58981">
        <ele>1564</ele>
        <time>2021-04-07T10:50:02Z</time>
      </trkpt>
      <trkpt lat="44.51396" lon="6.5898">
        <ele>1564</ele>
        <time>2021-04-07T10:50:03Z</time>
      </trkpt>
      <trkpt lat="44.51396" lon="6.5898">
        <ele>1564</ele>
        <time>2021-04-07T10:50:04Z</time>
      </trkpt>
      <trkpt lat="44.51396" lon="6.5898">
        <ele>1564</ele>
        <time>2021-04-07T10:50:05Z</time>
      </trkpt>
      <trkpt lat="44.51396" lon="6.5898">
        <ele>1564</ele>
        <time>2021-04-07T10:50:06Z</time>
      </trkpt>
      <trkpt lat="44.51396" lon="6.5898">
        <ele>1564</ele>
        <time>2021-04-07T10:50:07Z</time>
      </trkpt>
      <trkpt lat="44.51396" lon="6.5898">
        <ele>1564</ele>
        <time>2021-04-07T10:50:08Z</time>
      </trkpt>
      <trkpt lat="44.51396" lon="6.5898">
        <ele>1564</ele>
        <time>2021-04-07T10:50:09Z</time>
      </trkpt>
      <trkpt lat="44.51396" lon="6.5898">
        <ele>1564</ele>
        <time>2021-04-07T10:50:10Z</time>
      </trkpt>
      <trkpt lat="44.51396" lon="6.5898">
        <ele>1564</ele>
        <time>2021-04-07T10:50:11Z</time>
      </trkpt>
      <trkpt lat="44.51396" lon="6.5898">
        <ele>1564</ele>
        <time>2021-04-07T10:50:12Z</time>
      </trkpt>
      <trkpt lat="44.51396" lon="6.5898">
        <ele>1564</ele>
        <time>2021-04-07T10:50:13Z</time>
      </trkpt>
      <trkpt lat="44.51396" lon="6.5898">
        <ele>1564</ele>
        <time>2021-04-07T10:50:14Z</time>
      </trkpt>
      <trkpt lat="44.51396" lon="6.5898">
        <ele>1564</ele>
        <time>2021-04-07T10:50:15Z</time>
      </trkpt>
      <trkpt lat="44.51396" lon="6.5898">
        <ele>1564</ele>
        <time>2021-04-07T10:50:16Z</time>
      </trkpt>
      <trkpt lat="44.51396" lon="6.5898">
        <ele>1564</ele>
        <time>2021-04-07T10:50:17Z</time>
      </trkpt>
      <trkpt lat="44.51396" lon="6.5898">
        <ele>1564</ele>
        <time>2021-04-07T10:50:18Z</time>
      </trkpt>
      <trkpt lat="44.51396" lon="6.5898">
        <ele>1564</ele>
        <time>2021-04-07T10:50:19Z</time>
      </trkpt>
      <trkpt lat="44.51396" lon="6.5898">
        <ele>1564</ele>
        <time>2021-04-07T10:50:20Z</time>
      </trkpt>
      <trkpt lat="44.51396" lon="6.5898">
        <ele>1564</ele>
        <time>2021-04-07T10:50:21Z</time>
      </trkpt>
      <trkpt lat="44.51396" lon="6.5898">
        <ele>1564</ele>
        <time>2021-04-07T10:50:22Z</time>
      </trkpt>
      <trkpt lat="44.51396" lon="6.5898">
        <ele>1564</ele>
        <time>2021-04-07T10:50:23Z</time>
      </trkpt>
      <trkpt lat="44.51396" lon="6.5898">
        <ele>1564</ele>
        <time>2021-04-07T10:50:24Z</time>
      </trkpt>
      <trkpt lat="44.51396" lon="6.5898">
        <ele>1564</ele>
        <time>2021-04-07T10:50:25Z</time>
      </trkpt>
      <trkpt lat="44.51396" lon="6.5898">
        <ele>1564</ele>
        <time>2021-04-07T10:50:26Z</time>
      </trkpt>
      <trkpt lat="44.51396" lon="6.5898">
        <ele>1564</ele>
        <time>2021-04-07T10:50:27Z</time>
      </trkpt>
      <trkpt lat="44.51396" lon="6.5898">
        <ele>1564</ele>
        <time>2021-04-07T10:50:28Z</time>
      </trkpt>
      <trkpt lat="44.51396" lon="6.5898">
        <ele>1564</ele>
        <time>2021-04-07T10:50:29Z</time>
      </trkpt>
      <trkpt lat="44.51396" lon="6.5898">
        <ele>1564</ele>
        <time>2021-04-07T10:50:30Z</time>
      </trkpt>
      <trkpt lat="44.51396" lon="6.5898">
        <ele>1564</ele>
        <time>2021-04-07T10:50:31Z</time>
      </trkpt>
      <trkpt lat="44.51396" lon="6.5898">
        <ele>1564</ele>
        <time>2021-04-07T10:50:32Z</time>
      </trkpt>
      <trkpt lat="44.51396" lon="6.5898">
        <ele>1564</ele>
        <time>2021-04-07T10:50:33Z</time>
      </trkpt>
      <trkpt lat="44.51396" lon="6.5898">
        <ele>1564</ele>
        <time>2021-04-07T10:50:34Z</time>
      </trkpt>
      <trkpt lat="44.51396" lon="6.5898">
        <ele>1564</ele>
        <time>2021-04-07T10:50:35Z</time>
      </trkpt>
      <trkpt lat="44.51391" lon="6.58968">
        <ele>1565</ele>
        <time>2021-04-07T10:50:36Z</time>
      </trkpt>
      <trkpt lat="44.51391" lon="6.58967">
        <ele>1566</ele>
        <time>2021-04-07T10:50:37Z</time>
      </trkpt>
      <trkpt lat="44.5139" lon="6.58966">
        <ele>1566</ele>
        <time>2021-04-07T10:50:38Z</time>
      </trkpt>
      <trkpt lat="44.5139" lon="6.58965">
        <ele>1566</ele>
        <time>2021-04-07T10:50:39Z</time>
      </trkpt>
      <trkpt lat="44.5139" lon="6.58965">
        <ele>1566</ele>
        <time>2021-04-07T10:50:40Z</time>
      </trkpt>
      <trkpt lat="44.5139" lon="6.58965">
        <ele>1566</ele>
        <time>2021-04-07T10:50:41Z</time>
      </trkpt>
      <trkpt lat="44.5139" lon="6.58965">
        <ele>1566</ele>
        <time>2021-04-07T10:50:42Z</time>
      </trkpt>
      <trkpt lat="44.5139" lon="6.58965">
        <ele>1566</ele>
        <time>2021-04-07T10:50:43Z</time>
      </trkpt>
      <trkpt lat="44.5139" lon="6.58965">
        <ele>1566</ele>
        <time>2021-04-07T10:50:44Z</time>
      </trkpt>
      <trkpt lat="44.5139" lon="6.58965">
        <ele>1566</ele>
        <time>2021-04-07T10:50:45Z</time>
      </trkpt>
      <trkpt lat="44.5139" lon="6.58965">
        <ele>1566</ele>
        <time>2021-04-07T10:50:46Z</time>
      </trkpt>
      <trkpt lat="44.51386" lon="6.58956">
        <ele>1565</ele>
        <time>2021-04-07T10:50:47Z</time>
      </trkpt>
      <trkpt lat="44.51386" lon="6.58954">
        <ele>1565</ele>
        <time>2021-04-07T10:50:48Z</time>
      </trkpt>
      <trkpt lat="44.51385" lon="6.58952">
        <ele>1565</ele>
        <time>2021-04-07T10:50:49Z</time>
      </trkpt>
      <trkpt lat="44.51385" lon="6.58951">
        <ele>1565</ele>
        <time>2021-04-07T10:50:50Z</time>
      </trkpt>
      <trkpt lat="44.51385" lon="6.5895">
        <ele>1564</ele>
        <time>2021-04-07T10:50:51Z</time>
      </trkpt>
      <trkpt lat="44.51385" lon="6.58949">
        <ele>1564</ele>
        <time>2021-04-07T10:50:52Z</time>
      </trkpt>
      <trkpt lat="44.51385" lon="6.58949">
        <ele>1564</ele>
        <time>2021-04-07T10:50:53Z</time>
      </trkpt>
      <trkpt lat="44.51383" lon="6.58947">
        <ele>1564</ele>
        <time>2021-04-07T10:50:54Z</time>
      </trkpt>
      <trkpt lat="44.51382" lon="6.58946">
        <ele>1564</ele>
        <time>2021-04-07T10:50:55Z</time>
      </trkpt>
      <trkpt lat="44.51381" lon="6.58945">
        <ele>1564</ele>
        <time>2021-04-07T10:50:56Z</time>
      </trkpt>
      <trkpt lat="44.5138" lon="6.58943">
        <ele>1564</ele>
        <time>2021-04-07T10:50:57Z</time>
      </trkpt>
      <trkpt lat="44.5138" lon="6.58943">
        <ele>1563</ele>
        <time>2021-04-07T10:50:58Z</time>
      </trkpt>
      <trkpt lat="44.51379" lon="6.58942">
        <ele>1563</ele>
        <time>2021-04-07T10:50:59Z</time>
      </trkpt>
      <trkpt lat="44.51379" lon="6.58941">
        <ele>1563</ele>
        <time>2021-04-07T10:51:00Z</time>
      </trkpt>
      <trkpt lat="44.51379" lon="6.58941">
        <ele>1563</ele>
        <time>2021-04-07T10:51:01Z</time>
      </trkpt>
      <trkpt lat="44.51378" lon="6.58938">
        <ele>1563</ele>
        <time>2021-04-07T10:51:02Z</time>
      </trkpt>
      <trkpt lat="44.51378" lon="6.58935">
        <ele>1563</ele>
        <time>2021-04-07T10:51:03Z</time>
      </trkpt>
      <trkpt lat="44.51377" lon="6.58933">
        <ele>1563</ele>
        <time>2021-04-07T10:51:04Z</time>
      </trkpt>
      <trkpt lat="44.51376" lon="6.58932">
        <ele>1563</ele>
        <time>2021-04-07T10:51:05Z</time>
      </trkpt>
      <trkpt lat="44.51376" lon="6.5893">
        <ele>1563</ele>
        <time>2021-04-07T10:51:06Z</time>
      </trkpt>
      <trkpt lat="44.51375" lon="6.5893">
        <ele>1563</ele>
        <time>2021-04-07T10:51:07Z</time>
      </trkpt>
      <trkpt lat="44.51375" lon="6.58929">
        <ele>1563</ele>
        <time>2021-04-07T10:51:08Z</time>
      </trkpt>
      <trkpt lat="44.51375" lon="6.58928">
        <ele>1563</ele>
        <time>2021-04-07T10:51:09Z</time>
      </trkpt>
      <trkpt lat="44.51374" lon="6.58927">
        <ele>1563</ele>
        <time>2021-04-07T10:51:10Z</time>
      </trkpt>
      <trkpt lat="44.51374" lon="6.58927">
        <ele>1563</ele>
        <time>2021-04-07T10:51:11Z</time>
      </trkpt>
      <trkpt lat="44.51374" lon="6.58927">
        <ele>1563</ele>
        <time>2021-04-07T10:51:12Z</time>
      </trkpt>
      <trkpt lat="44.51374" lon="6.58927">
        <ele>1563</ele>
        <time>2021-04-07T10:51:13Z</time>
      </trkpt>
      <trkpt lat="44.51374" lon="6.58927">
        <ele>1563</ele>
        <time>2021-04-07T10:51:14Z</time>
      </trkpt>
      <trkpt lat="44.51374" lon="6.58927">
        <ele>1563</ele>
        <time>2021-04-07T10:51:15Z</time>
      </trkpt>
      <trkpt lat="44.51374" lon="6.58927">
        <ele>1563</ele>
        <time>2021-04-07T10:51:16Z</time>
      </trkpt>
      <trkpt lat="44.51374" lon="6.58927">
        <ele>1563</ele>
        <time>2021-04-07T10:51:17Z</time>
      </trkpt>
      <trkpt lat="44.51374" lon="6.58927">
        <ele>1563</ele>
        <time>2021-04-07T10:51:18Z</time>
      </trkpt>
      <trkpt lat="44.51374" lon="6.58927">
        <ele>1563</ele>
        <time>2021-04-07T10:51:19Z</time>
      </trkpt>
      <trkpt lat="44.51374" lon="6.58927">
        <ele>1563</ele>
        <time>2021-04-07T10:51:20Z</time>
      </trkpt>
      <trkpt lat="44.51372" lon="6.58915">
        <ele>1562</ele>
        <time>2021-04-07T10:51:21Z</time>
      </trkpt>
      <trkpt lat="44.51371" lon="6.58913">
        <ele>1561</ele>
        <time>2021-04-07T10:51:22Z</time>
      </trkpt>
      <trkpt lat="44.51371" lon="6.58912">
        <ele>1561</ele>
        <time>2021-04-07T10:51:23Z</time>
      </trkpt>
      <trkpt lat="44.5137" lon="6.58911">
        <ele>1561</ele>
        <time>2021-04-07T10:51:24Z</time>
      </trkpt>
      <trkpt lat="44.5137" lon="6.5891">
        <ele>1560</ele>
        <time>2021-04-07T10:51:25Z</time>
      </trkpt>
      <trkpt lat="44.5137" lon="6.58909">
        <ele>1559</ele>
        <time>2021-04-07T10:51:26Z</time>
      </trkpt>
      <trkpt lat="44.5137" lon="6.58907">
        <ele>1559</ele>
        <time>2021-04-07T10:51:27Z</time>
      </trkpt>
      <trkpt lat="44.5137" lon="6.58905">
        <ele>1559</ele>
        <time>2021-04-07T10:51:28Z</time>
      </trkpt>
      <trkpt lat="44.51369" lon="6.58904">
        <ele>1558</ele>
        <time>2021-04-07T10:51:29Z</time>
      </trkpt>
      <trkpt lat="44.5137" lon="6.58902">
        <ele>1558</ele>
        <time>2021-04-07T10:51:30Z</time>
      </trkpt>
      <trkpt lat="44.51369" lon="6.58901">
        <ele>1558</ele>
        <time>2021-04-07T10:51:31Z</time>
      </trkpt>
      <trkpt lat="44.51369" lon="6.589">
        <ele>1557</ele>
        <time>2021-04-07T10:51:32Z</time>
      </trkpt>
      <trkpt lat="44.5137" lon="6.58899">
        <ele>1557</ele>
        <time>2021-04-07T10:51:33Z</time>
      </trkpt>
      <trkpt lat="44.5137" lon="6.58897">
        <ele>1557</ele>
        <time>2021-04-07T10:51:34Z</time>
      </trkpt>
      <trkpt lat="44.5137" lon="6.58895">
        <ele>1557</ele>
        <time>2021-04-07T10:51:35Z</time>
      </trkpt>
      <trkpt lat="44.51369" lon="6.58894">
        <ele>1556</ele>
        <time>2021-04-07T10:51:36Z</time>
      </trkpt>
      <trkpt lat="44.51369" lon="6.58893">
        <ele>1556</ele>
        <time>2021-04-07T10:51:37Z</time>
      </trkpt>
      <trkpt lat="44.51369" lon="6.58893">
        <ele>1556</ele>
        <time>2021-04-07T10:51:38Z</time>
      </trkpt>
      <trkpt lat="44.51369" lon="6.58893">
        <ele>1556</ele>
        <time>2021-04-07T10:51:39Z</time>
      </trkpt>
      <trkpt lat="44.51369" lon="6.58893">
        <ele>1556</ele>
        <time>2021-04-07T10:51:40Z</time>
      </trkpt>
      <trkpt lat="44.51369" lon="6.58893">
        <ele>1556</ele>
        <time>2021-04-07T10:51:41Z</time>
      </trkpt>
      <trkpt lat="44.51369" lon="6.58893">
        <ele>1556</ele>
        <time>2021-04-07T10:51:42Z</time>
      </trkpt>
      <trkpt lat="44.51369" lon="6.58893">
        <ele>1556</ele>
        <time>2021-04-07T10:51:43Z</time>
      </trkpt>
      <trkpt lat="44.51369" lon="6.58893">
        <ele>1556</ele>
        <time>2021-04-07T10:51:44Z</time>
      </trkpt>
      <trkpt lat="44.51369" lon="6.58893">
        <ele>1556</ele>
        <time>2021-04-07T10:51:45Z</time>
      </trkpt>
      <trkpt lat="44.51369" lon="6.58893">
        <ele>1556</ele>
        <time>2021-04-07T10:51:46Z</time>
      </trkpt>
      <trkpt lat="44.51369" lon="6.58893">
        <ele>1556</ele>
        <time>2021-04-07T10:51:47Z</time>
      </trkpt>
      <trkpt lat="44.51369" lon="6.5888">
        <ele>1556</ele>
        <time>2021-04-07T10:51:48Z</time>
      </trkpt>
      <trkpt lat="44.51369" lon="6.58879">
        <ele>1556</ele>
        <time>2021-04-07T10:51:49Z</time>
      </trkpt>
      <trkpt lat="44.51369" lon="6.58877">
        <ele>1556</ele>
        <time>2021-04-07T10:51:50Z</time>
      </trkpt>
      <trkpt lat="44.51369" lon="6.58876">
        <ele>1556</ele>
        <time>2021-04-07T10:51:51Z</time>
      </trkpt>
      <trkpt lat="44.51369" lon="6.58874">
        <ele>1556</ele>
        <time>2021-04-07T10:51:52Z</time>
      </trkpt>
      <trkpt lat="44.51369" lon="6.58872">
        <ele>1556</ele>
        <time>2021-04-07T10:51:53Z</time>
      </trkpt>
      <trkpt lat="44.51369" lon="6.58871">
        <ele>1556</ele>
        <time>2021-04-07T10:51:54Z</time>
      </trkpt>
      <trkpt lat="44.51369" lon="6.58869">
        <ele>1556</ele>
        <time>2021-04-07T10:51:55Z</time>
      </trkpt>
      <trkpt lat="44.51368" lon="6.58869">
        <ele>1556</ele>
        <time>2021-04-07T10:51:56Z</time>
      </trkpt>
      <trkpt lat="44.51368" lon="6.58867">
        <ele>1556</ele>
        <time>2021-04-07T10:51:57Z</time>
      </trkpt>
      <trkpt lat="44.51368" lon="6.58865">
        <ele>1556</ele>
        <time>2021-04-07T10:51:58Z</time>
      </trkpt>
      <trkpt lat="44.51368" lon="6.58863">
        <ele>1556</ele>
        <time>2021-04-07T10:51:59Z</time>
      </trkpt>
      <trkpt lat="44.51368" lon="6.58862">
        <ele>1555</ele>
        <time>2021-04-07T10:52:00Z</time>
      </trkpt>
      <trkpt lat="44.51368" lon="6.5886">
        <ele>1555</ele>
        <time>2021-04-07T10:52:01Z</time>
      </trkpt>
      <trkpt lat="44.51368" lon="6.58857">
        <ele>1555</ele>
        <time>2021-04-07T10:52:02Z</time>
      </trkpt>
      <trkpt lat="44.51368" lon="6.58856">
        <ele>1555</ele>
        <time>2021-04-07T10:52:03Z</time>
      </trkpt>
      <trkpt lat="44.51368" lon="6.58854">
        <ele>1555</ele>
        <time>2021-04-07T10:52:04Z</time>
      </trkpt>
      <trkpt lat="44.51368" lon="6.58853">
        <ele>1555</ele>
        <time>2021-04-07T10:52:05Z</time>
      </trkpt>
      <trkpt lat="44.51368" lon="6.58851">
        <ele>1555</ele>
        <time>2021-04-07T10:52:06Z</time>
      </trkpt>
      <trkpt lat="44.51367" lon="6.5885">
        <ele>1555</ele>
        <time>2021-04-07T10:52:07Z</time>
      </trkpt>
      <trkpt lat="44.51367" lon="6.58849">
        <ele>1555</ele>
        <time>2021-04-07T10:52:08Z</time>
      </trkpt>
      <trkpt lat="44.51367" lon="6.58848">
        <ele>1554</ele>
        <time>2021-04-07T10:52:09Z</time>
      </trkpt>
      <trkpt lat="44.51367" lon="6.58847">
        <ele>1554</ele>
        <time>2021-04-07T10:52:10Z</time>
      </trkpt>
      <trkpt lat="44.51368" lon="6.58845">
        <ele>1554</ele>
        <time>2021-04-07T10:52:11Z</time>
      </trkpt>
      <trkpt lat="44.51368" lon="6.58843">
        <ele>1554</ele>
        <time>2021-04-07T10:52:12Z</time>
      </trkpt>
      <trkpt lat="44.51367" lon="6.58841">
        <ele>1554</ele>
        <time>2021-04-07T10:52:13Z</time>
      </trkpt>
      <trkpt lat="44.51366" lon="6.5884">
        <ele>1554</ele>
        <time>2021-04-07T10:52:14Z</time>
      </trkpt>
      <trkpt lat="44.51365" lon="6.58839">
        <ele>1554</ele>
        <time>2021-04-07T10:52:15Z</time>
      </trkpt>
      <trkpt lat="44.51365" lon="6.58839">
        <ele>1554</ele>
        <time>2021-04-07T10:52:16Z</time>
      </trkpt>
      <trkpt lat="44.51365" lon="6.58838">
        <ele>1554</ele>
        <time>2021-04-07T10:52:17Z</time>
      </trkpt>
      <trkpt lat="44.51366" lon="6.58837">
        <ele>1553</ele>
        <time>2021-04-07T10:52:18Z</time>
      </trkpt>
      <trkpt lat="44.51366" lon="6.58836">
        <ele>1553</ele>
        <time>2021-04-07T10:52:19Z</time>
      </trkpt>
      <trkpt lat="44.51366" lon="6.58835">
        <ele>1553</ele>
        <time>2021-04-07T10:52:20Z</time>
      </trkpt>
      <trkpt lat="44.51366" lon="6.58835">
        <ele>1553</ele>
        <time>2021-04-07T10:52:21Z</time>
      </trkpt>
      <trkpt lat="44.51366" lon="6.58835">
        <ele>1552</ele>
        <time>2021-04-07T10:52:22Z</time>
      </trkpt>
      <trkpt lat="44.51366" lon="6.58831">
        <ele>1552</ele>
        <time>2021-04-07T10:52:23Z</time>
      </trkpt>
      <trkpt lat="44.51366" lon="6.58828">
        <ele>1552</ele>
        <time>2021-04-07T10:52:24Z</time>
      </trkpt>
      <trkpt lat="44.51366" lon="6.58826">
        <ele>1552</ele>
        <time>2021-04-07T10:52:25Z</time>
      </trkpt>
      <trkpt lat="44.51366" lon="6.58824">
        <ele>1552</ele>
        <time>2021-04-07T10:52:26Z</time>
      </trkpt>
      <trkpt lat="44.51366" lon="6.58823">
        <ele>1552</ele>
        <time>2021-04-07T10:52:27Z</time>
      </trkpt>
      <trkpt lat="44.51366" lon="6.58821">
        <ele>1552</ele>
        <time>2021-04-07T10:52:28Z</time>
      </trkpt>
      <trkpt lat="44.51365" lon="6.58819">
        <ele>1552</ele>
        <time>2021-04-07T10:52:29Z</time>
      </trkpt>
      <trkpt lat="44.51365" lon="6.58817">
        <ele>1552</ele>
        <time>2021-04-07T10:52:30Z</time>
      </trkpt>
      <trkpt lat="44.51365" lon="6.58815">
        <ele>1552</ele>
        <time>2021-04-07T10:52:31Z</time>
      </trkpt>
      <trkpt lat="44.51365" lon="6.58814">
        <ele>1552</ele>
        <time>2021-04-07T10:52:32Z</time>
      </trkpt>
      <trkpt lat="44.51365" lon="6.58813">
        <ele>1552</ele>
        <time>2021-04-07T10:52:33Z</time>
      </trkpt>
      <trkpt lat="44.51365" lon="6.58811">
        <ele>1552</ele>
        <time>2021-04-07T10:52:34Z</time>
      </trkpt>
      <trkpt lat="44.51364" lon="6.58809">
        <ele>1552</ele>
        <time>2021-04-07T10:52:35Z</time>
      </trkpt>
      <trkpt lat="44.51364" lon="6.58808">
        <ele>1552</ele>
        <time>2021-04-07T10:52:36Z</time>
      </trkpt>
      <trkpt lat="44.51364" lon="6.58806">
        <ele>1552</ele>
        <time>2021-04-07T10:52:37Z</time>
      </trkpt>
      <trkpt lat="44.51364" lon="6.58804">
        <ele>1552</ele>
        <time>2021-04-07T10:52:38Z</time>
      </trkpt>
      <trkpt lat="44.51364" lon="6.58803">
        <ele>1552</ele>
        <time>2021-04-07T10:52:39Z</time>
      </trkpt>
      <trkpt lat="44.51364" lon="6.58801">
        <ele>1552</ele>
        <time>2021-04-07T10:52:40Z</time>
      </trkpt>
      <trkpt lat="44.51364" lon="6.58799">
        <ele>1552</ele>
        <time>2021-04-07T10:52:41Z</time>
      </trkpt>
      <trkpt lat="44.51364" lon="6.58798">
        <ele>1552</ele>
        <time>2021-04-07T10:52:42Z</time>
      </trkpt>
      <trkpt lat="44.51364" lon="6.58796">
        <ele>1551</ele>
        <time>2021-04-07T10:52:43Z</time>
      </trkpt>
      <trkpt lat="44.51363" lon="6.58795">
        <ele>1551</ele>
        <time>2021-04-07T10:52:44Z</time>
      </trkpt>
      <trkpt lat="44.51363" lon="6.58794">
        <ele>1551</ele>
        <time>2021-04-07T10:52:45Z</time>
      </trkpt>
      <trkpt lat="44.51362" lon="6.58792">
        <ele>1551</ele>
        <time>2021-04-07T10:52:46Z</time>
      </trkpt>
      <trkpt lat="44.51363" lon="6.58791">
        <ele>1551</ele>
        <time>2021-04-07T10:52:47Z</time>
      </trkpt>
      <trkpt lat="44.51363" lon="6.58789">
        <ele>1551</ele>
        <time>2021-04-07T10:52:48Z</time>
      </trkpt>
      <trkpt lat="44.51364" lon="6.58789">
        <ele>1551</ele>
        <time>2021-04-07T10:52:49Z</time>
      </trkpt>
      <trkpt lat="44.51365" lon="6.58787">
        <ele>1551</ele>
        <time>2021-04-07T10:52:50Z</time>
      </trkpt>
      <trkpt lat="44.51364" lon="6.58786">
        <ele>1551</ele>
        <time>2021-04-07T10:52:51Z</time>
      </trkpt>
      <trkpt lat="44.51363" lon="6.58784">
        <ele>1551</ele>
        <time>2021-04-07T10:52:52Z</time>
      </trkpt>
      <trkpt lat="44.51362" lon="6.58783">
        <ele>1551</ele>
        <time>2021-04-07T10:52:53Z</time>
      </trkpt>
      <trkpt lat="44.51361" lon="6.58782">
        <ele>1551</ele>
        <time>2021-04-07T10:52:54Z</time>
      </trkpt>
      <trkpt lat="44.51361" lon="6.58781">
        <ele>1551</ele>
        <time>2021-04-07T10:52:55Z</time>
      </trkpt>
      <trkpt lat="44.5136" lon="6.5878">
        <ele>1550</ele>
        <time>2021-04-07T10:52:56Z</time>
      </trkpt>
      <trkpt lat="44.5136" lon="6.58778">
        <ele>1550</ele>
        <time>2021-04-07T10:52:57Z</time>
      </trkpt>
      <trkpt lat="44.51359" lon="6.58777">
        <ele>1550</ele>
        <time>2021-04-07T10:52:58Z</time>
      </trkpt>
      <trkpt lat="44.51359" lon="6.58776">
        <ele>1550</ele>
        <time>2021-04-07T10:52:59Z</time>
      </trkpt>
      <trkpt lat="44.51358" lon="6.58775">
        <ele>1550</ele>
        <time>2021-04-07T10:53:00Z</time>
      </trkpt>
      <trkpt lat="44.51358" lon="6.58775">
        <ele>1550</ele>
        <time>2021-04-07T10:53:01Z</time>
      </trkpt>
      <trkpt lat="44.51358" lon="6.58771">
        <ele>1550</ele>
        <time>2021-04-07T10:53:02Z</time>
      </trkpt>
      <trkpt lat="44.51358" lon="6.5877">
        <ele>1549</ele>
        <time>2021-04-07T10:53:03Z</time>
      </trkpt>
      <trkpt lat="44.51359" lon="6.58767">
        <ele>1549</ele>
        <time>2021-04-07T10:53:04Z</time>
      </trkpt>
      <trkpt lat="44.51362" lon="6.58765">
        <ele>1549</ele>
        <time>2021-04-07T10:53:05Z</time>
      </trkpt>
      <trkpt lat="44.51362" lon="6.58763">
        <ele>1548</ele>
        <time>2021-04-07T10:53:06Z</time>
      </trkpt>
      <trkpt lat="44.51363" lon="6.58762">
        <ele>1548</ele>
        <time>2021-04-07T10:53:07Z</time>
      </trkpt>
      <trkpt lat="44.51363" lon="6.5876">
        <ele>1548</ele>
        <time>2021-04-07T10:53:08Z</time>
      </trkpt>
      <trkpt lat="44.51363" lon="6.58759">
        <ele>1548</ele>
        <time>2021-04-07T10:53:09Z</time>
      </trkpt>
      <trkpt lat="44.51363" lon="6.58758">
        <ele>1548</ele>
        <time>2021-04-07T10:53:10Z</time>
      </trkpt>
      <trkpt lat="44.51363" lon="6.58757">
        <ele>1548</ele>
        <time>2021-04-07T10:53:11Z</time>
      </trkpt>
      <trkpt lat="44.51363" lon="6.58757">
        <ele>1548</ele>
        <time>2021-04-07T10:53:12Z</time>
      </trkpt>
      <trkpt lat="44.51363" lon="6.58757">
        <ele>1548</ele>
        <time>2021-04-07T10:53:13Z</time>
      </trkpt>
      <trkpt lat="44.51363" lon="6.58757">
        <ele>1548</ele>
        <time>2021-04-07T10:53:14Z</time>
      </trkpt>
      <trkpt lat="44.51363" lon="6.58757">
        <ele>1548</ele>
        <time>2021-04-07T10:53:15Z</time>
      </trkpt>
      <trkpt lat="44.51365" lon="6.58751">
        <ele>1547</ele>
        <time>2021-04-07T10:53:16Z</time>
      </trkpt>
      <trkpt lat="44.51365" lon="6.58749">
        <ele>1547</ele>
        <time>2021-04-07T10:53:17Z</time>
      </trkpt>
      <trkpt lat="44.51366" lon="6.58748">
        <ele>1547</ele>
        <time>2021-04-07T10:53:18Z</time>
      </trkpt>
      <trkpt lat="44.51366" lon="6.58746">
        <ele>1546</ele>
        <time>2021-04-07T10:53:19Z</time>
      </trkpt>
      <trkpt lat="44.51366" lon="6.58744">
        <ele>1546</ele>
        <time>2021-04-07T10:53:20Z</time>
      </trkpt>
      <trkpt lat="44.51367" lon="6.58743">
        <ele>1546</ele>
        <time>2021-04-07T10:53:21Z</time>
      </trkpt>
      <trkpt lat="44.51367" lon="6.58741">
        <ele>1546</ele>
        <time>2021-04-07T10:53:22Z</time>
      </trkpt>
      <trkpt lat="44.51367" lon="6.5874">
        <ele>1545</ele>
        <time>2021-04-07T10:53:23Z</time>
      </trkpt>
      <trkpt lat="44.51367" lon="6.58738">
        <ele>1545</ele>
        <time>2021-04-07T10:53:24Z</time>
      </trkpt>
      <trkpt lat="44.51366" lon="6.58736">
        <ele>1545</ele>
        <time>2021-04-07T10:53:25Z</time>
      </trkpt>
      <trkpt lat="44.51366" lon="6.58734">
        <ele>1544</ele>
        <time>2021-04-07T10:53:26Z</time>
      </trkpt>
      <trkpt lat="44.51366" lon="6.58733">
        <ele>1544</ele>
        <time>2021-04-07T10:53:27Z</time>
      </trkpt>
      <trkpt lat="44.51366" lon="6.58732">
        <ele>1544</ele>
        <time>2021-04-07T10:53:28Z</time>
      </trkpt>
      <trkpt lat="44.51365" lon="6.58731">
        <ele>1544</ele>
        <time>2021-04-07T10:53:29Z</time>
      </trkpt>
      <trkpt lat="44.51365" lon="6.58731">
        <ele>1544</ele>
        <time>2021-04-07T10:53:30Z</time>
      </trkpt>
      <trkpt lat="44.51365" lon="6.58731">
        <ele>1544</ele>
        <time>2021-04-07T10:53:31Z</time>
      </trkpt>
      <trkpt lat="44.51365" lon="6.58731">
        <ele>1544</ele>
        <time>2021-04-07T10:53:32Z</time>
      </trkpt>
      <trkpt lat="44.51364" lon="6.58725">
        <ele>1543</ele>
        <time>2021-04-07T10:53:33Z</time>
      </trkpt>
      <trkpt lat="44.51363" lon="6.58724">
        <ele>1543</ele>
        <time>2021-04-07T10:53:34Z</time>
      </trkpt>
      <trkpt lat="44.51362" lon="6.58723">
        <ele>1543</ele>
        <time>2021-04-07T10:53:35Z</time>
      </trkpt>
      <trkpt lat="44.51361" lon="6.58722">
        <ele>1543</ele>
        <time>2021-04-07T10:53:36Z</time>
      </trkpt>
      <trkpt lat="44.51361" lon="6.5872">
        <ele>1543</ele>
        <time>2021-04-07T10:53:37Z</time>
      </trkpt>
      <trkpt lat="44.51361" lon="6.58719">
        <ele>1543</ele>
        <time>2021-04-07T10:53:38Z</time>
      </trkpt>
      <trkpt lat="44.5136" lon="6.58717">
        <ele>1543</ele>
        <time>2021-04-07T10:53:39Z</time>
      </trkpt>
      <trkpt lat="44.51359" lon="6.58716">
        <ele>1543</ele>
        <time>2021-04-07T10:53:40Z</time>
      </trkpt>
      <trkpt lat="44.51359" lon="6.58714">
        <ele>1543</ele>
        <time>2021-04-07T10:53:41Z</time>
      </trkpt>
      <trkpt lat="44.51359" lon="6.58713">
        <ele>1543</ele>
        <time>2021-04-07T10:53:42Z</time>
      </trkpt>
      <trkpt lat="44.51359" lon="6.58712">
        <ele>1543</ele>
        <time>2021-04-07T10:53:43Z</time>
      </trkpt>
      <trkpt lat="44.51358" lon="6.58711">
        <ele>1543</ele>
        <time>2021-04-07T10:53:44Z</time>
      </trkpt>
      <trkpt lat="44.51358" lon="6.58709">
        <ele>1542</ele>
        <time>2021-04-07T10:53:45Z</time>
      </trkpt>
      <trkpt lat="44.51357" lon="6.58708">
        <ele>1542</ele>
        <time>2021-04-07T10:53:46Z</time>
      </trkpt>
      <trkpt lat="44.51358" lon="6.58707">
        <ele>1542</ele>
        <time>2021-04-07T10:53:47Z</time>
      </trkpt>
      <trkpt lat="44.51357" lon="6.58705">
        <ele>1542</ele>
        <time>2021-04-07T10:53:48Z</time>
      </trkpt>
      <trkpt lat="44.51357" lon="6.58704">
        <ele>1541</ele>
        <time>2021-04-07T10:53:49Z</time>
      </trkpt>
      <trkpt lat="44.51357" lon="6.58703">
        <ele>1541</ele>
        <time>2021-04-07T10:53:50Z</time>
      </trkpt>
      <trkpt lat="44.51357" lon="6.58703">
        <ele>1541</ele>
        <time>2021-04-07T10:53:51Z</time>
      </trkpt>
      <trkpt lat="44.51357" lon="6.58703">
        <ele>1541</ele>
        <time>2021-04-07T10:53:52Z</time>
      </trkpt>
      <trkpt lat="44.51357" lon="6.58699">
        <ele>1541</ele>
        <time>2021-04-07T10:53:53Z</time>
      </trkpt>
      <trkpt lat="44.51357" lon="6.58697">
        <ele>1541</ele>
        <time>2021-04-07T10:53:54Z</time>
      </trkpt>
      <trkpt lat="44.51357" lon="6.58696">
        <ele>1541</ele>
        <time>2021-04-07T10:53:55Z</time>
      </trkpt>
      <trkpt lat="44.51357" lon="6.58694">
        <ele>1541</ele>
        <time>2021-04-07T10:53:56Z</time>
      </trkpt>
      <trkpt lat="44.51357" lon="6.58693">
        <ele>1541</ele>
        <time>2021-04-07T10:53:57Z</time>
      </trkpt>
      <trkpt lat="44.51356" lon="6.58692">
        <ele>1541</ele>
        <time>2021-04-07T10:53:58Z</time>
      </trkpt>
      <trkpt lat="44.51356" lon="6.5869">
        <ele>1540</ele>
        <time>2021-04-07T10:53:59Z</time>
      </trkpt>
      <trkpt lat="44.51356" lon="6.5869">
        <ele>1540</ele>
        <time>2021-04-07T10:54:00Z</time>
      </trkpt>
      <trkpt lat="44.51356" lon="6.5869">
        <ele>1540</ele>
        <time>2021-04-07T10:54:01Z</time>
      </trkpt>
      <trkpt lat="44.51356" lon="6.5869">
        <ele>1540</ele>
        <time>2021-04-07T10:54:02Z</time>
      </trkpt>
      <trkpt lat="44.51356" lon="6.5869">
        <ele>1540</ele>
        <time>2021-04-07T10:54:03Z</time>
      </trkpt>
      <trkpt lat="44.51356" lon="6.5869">
        <ele>1540</ele>
        <time>2021-04-07T10:54:04Z</time>
      </trkpt>
      <trkpt lat="44.51355" lon="6.58683">
        <ele>1540</ele>
        <time>2021-04-07T10:54:05Z</time>
      </trkpt>
      <trkpt lat="44.51356" lon="6.58681">
        <ele>1540</ele>
        <time>2021-04-07T10:54:06Z</time>
      </trkpt>
      <trkpt lat="44.51357" lon="6.58679">
        <ele>1539</ele>
        <time>2021-04-07T10:54:07Z</time>
      </trkpt>
      <trkpt lat="44.51357" lon="6.58678">
        <ele>1539</ele>
        <time>2021-04-07T10:54:08Z</time>
      </trkpt>
      <trkpt lat="44.51356" lon="6.58677">
        <ele>1539</ele>
        <time>2021-04-07T10:54:09Z</time>
      </trkpt>
      <trkpt lat="44.51356" lon="6.58676">
        <ele>1539</ele>
        <time>2021-04-07T10:54:10Z</time>
      </trkpt>
      <trkpt lat="44.51356" lon="6.58675">
        <ele>1539</ele>
        <time>2021-04-07T10:54:11Z</time>
      </trkpt>
      <trkpt lat="44.51356" lon="6.58675">
        <ele>1539</ele>
        <time>2021-04-07T10:54:12Z</time>
      </trkpt>
      <trkpt lat="44.51356" lon="6.58675">
        <ele>1539</ele>
        <time>2021-04-07T10:54:13Z</time>
      </trkpt>
      <trkpt lat="44.51356" lon="6.58675">
        <ele>1539</ele>
        <time>2021-04-07T10:54:14Z</time>
      </trkpt>
      <trkpt lat="44.51356" lon="6.58675">
        <ele>1539</ele>
        <time>2021-04-07T10:54:15Z</time>
      </trkpt>
      <trkpt lat="44.51356" lon="6.58675">
        <ele>1539</ele>
        <time>2021-04-07T10:54:16Z</time>
      </trkpt>
      <trkpt lat="44.51355" lon="6.58667">
        <ele>1537</ele>
        <time>2021-04-07T10:54:17Z</time>
      </trkpt>
      <trkpt lat="44.51354" lon="6.58665">
        <ele>1537</ele>
        <time>2021-04-07T10:54:18Z</time>
      </trkpt>
      <trkpt lat="44.51354" lon="6.58664">
        <ele>1536</ele>
        <time>2021-04-07T10:54:19Z</time>
      </trkpt>
      <trkpt lat="44.51354" lon="6.58663">
        <ele>1536</ele>
        <time>2021-04-07T10:54:20Z</time>
      </trkpt>
      <trkpt lat="44.51353" lon="6.58661">
        <ele>1535</ele>
        <time>2021-04-07T10:54:21Z</time>
      </trkpt>
      <trkpt lat="44.51353" lon="6.5866">
        <ele>1534</ele>
        <time>2021-04-07T10:54:22Z</time>
      </trkpt>
      <trkpt lat="44.51352" lon="6.58658">
        <ele>1534</ele>
        <time>2021-04-07T10:54:23Z</time>
      </trkpt>
      <trkpt lat="44.51352" lon="6.58657">
        <ele>1533</ele>
        <time>2021-04-07T10:54:24Z</time>
      </trkpt>
      <trkpt lat="44.51352" lon="6.58655">
        <ele>1532</ele>
        <time>2021-04-07T10:54:25Z</time>
      </trkpt>
      <trkpt lat="44.51351" lon="6.58654">
        <ele>1532</ele>
        <time>2021-04-07T10:54:26Z</time>
      </trkpt>
      <trkpt lat="44.5135" lon="6.58653">
        <ele>1531</ele>
        <time>2021-04-07T10:54:27Z</time>
      </trkpt>
      <trkpt lat="44.5135" lon="6.58651">
        <ele>1531</ele>
        <time>2021-04-07T10:54:28Z</time>
      </trkpt>
      <trkpt lat="44.5135" lon="6.5865">
        <ele>1531</ele>
        <time>2021-04-07T10:54:29Z</time>
      </trkpt>
      <trkpt lat="44.51349" lon="6.58648">
        <ele>1531</ele>
        <time>2021-04-07T10:54:30Z</time>
      </trkpt>
      <trkpt lat="44.51349" lon="6.58646">
        <ele>1531</ele>
        <time>2021-04-07T10:54:31Z</time>
      </trkpt>
      <trkpt lat="44.51349" lon="6.58644">
        <ele>1531</ele>
        <time>2021-04-07T10:54:32Z</time>
      </trkpt>
      <trkpt lat="44.51348" lon="6.58643">
        <ele>1531</ele>
        <time>2021-04-07T10:54:33Z</time>
      </trkpt>
      <trkpt lat="44.51348" lon="6.58641">
        <ele>1531</ele>
        <time>2021-04-07T10:54:34Z</time>
      </trkpt>
      <trkpt lat="44.51348" lon="6.5864">
        <ele>1531</ele>
        <time>2021-04-07T10:54:35Z</time>
      </trkpt>
      <trkpt lat="44.51348" lon="6.58639">
        <ele>1531</ele>
        <time>2021-04-07T10:54:36Z</time>
      </trkpt>
      <trkpt lat="44.51348" lon="6.58638">
        <ele>1531</ele>
        <time>2021-04-07T10:54:37Z</time>
      </trkpt>
      <trkpt lat="44.51348" lon="6.58636">
        <ele>1531</ele>
        <time>2021-04-07T10:54:38Z</time>
      </trkpt>
      <trkpt lat="44.51349" lon="6.58635">
        <ele>1531</ele>
        <time>2021-04-07T10:54:39Z</time>
      </trkpt>
      <trkpt lat="44.51349" lon="6.58633">
        <ele>1531</ele>
        <time>2021-04-07T10:54:40Z</time>
      </trkpt>
      <trkpt lat="44.5135" lon="6.58632">
        <ele>1531</ele>
        <time>2021-04-07T10:54:41Z</time>
      </trkpt>
      <trkpt lat="44.5135" lon="6.5863">
        <ele>1531</ele>
        <time>2021-04-07T10:54:42Z</time>
      </trkpt>
      <trkpt lat="44.51349" lon="6.58629">
        <ele>1530</ele>
        <time>2021-04-07T10:54:43Z</time>
      </trkpt>
      <trkpt lat="44.51349" lon="6.58628">
        <ele>1530</ele>
        <time>2021-04-07T10:54:44Z</time>
      </trkpt>
      <trkpt lat="44.51349" lon="6.58626">
        <ele>1530</ele>
        <time>2021-04-07T10:54:45Z</time>
      </trkpt>
      <trkpt lat="44.51349" lon="6.58625">
        <ele>1530</ele>
        <time>2021-04-07T10:54:46Z</time>
      </trkpt>
      <trkpt lat="44.5135" lon="6.58623">
        <ele>1529</ele>
        <time>2021-04-07T10:54:47Z</time>
      </trkpt>
      <trkpt lat="44.5135" lon="6.58622">
        <ele>1529</ele>
        <time>2021-04-07T10:54:48Z</time>
      </trkpt>
      <trkpt lat="44.5135" lon="6.5862">
        <ele>1529</ele>
        <time>2021-04-07T10:54:49Z</time>
      </trkpt>
      <trkpt lat="44.5135" lon="6.58618">
        <ele>1529</ele>
        <time>2021-04-07T10:54:50Z</time>
      </trkpt>
      <trkpt lat="44.51349" lon="6.58616">
        <ele>1528</ele>
        <time>2021-04-07T10:54:51Z</time>
      </trkpt>
      <trkpt lat="44.5135" lon="6.58615">
        <ele>1528</ele>
        <time>2021-04-07T10:54:52Z</time>
      </trkpt>
      <trkpt lat="44.51349" lon="6.58614">
        <ele>1528</ele>
        <time>2021-04-07T10:54:53Z</time>
      </trkpt>
      <trkpt lat="44.51349" lon="6.58612">
        <ele>1528</ele>
        <time>2021-04-07T10:54:54Z</time>
      </trkpt>
      <trkpt lat="44.51349" lon="6.5861">
        <ele>1528</ele>
        <time>2021-04-07T10:54:55Z</time>
      </trkpt>
      <trkpt lat="44.51348" lon="6.58609">
        <ele>1527</ele>
        <time>2021-04-07T10:54:56Z</time>
      </trkpt>
      <trkpt lat="44.51348" lon="6.58607">
        <ele>1527</ele>
        <time>2021-04-07T10:54:57Z</time>
      </trkpt>
      <trkpt lat="44.51349" lon="6.58606">
        <ele>1527</ele>
        <time>2021-04-07T10:54:58Z</time>
      </trkpt>
      <trkpt lat="44.51349" lon="6.58604">
        <ele>1527</ele>
        <time>2021-04-07T10:54:59Z</time>
      </trkpt>
      <trkpt lat="44.51349" lon="6.58603">
        <ele>1526</ele>
        <time>2021-04-07T10:55:00Z</time>
      </trkpt>
      <trkpt lat="44.51349" lon="6.58602">
        <ele>1526</ele>
        <time>2021-04-07T10:55:01Z</time>
      </trkpt>
      <trkpt lat="44.5135" lon="6.58601">
        <ele>1526</ele>
        <time>2021-04-07T10:55:02Z</time>
      </trkpt>
      <trkpt lat="44.5135" lon="6.58601">
        <ele>1526</ele>
        <time>2021-04-07T10:55:03Z</time>
      </trkpt>
      <trkpt lat="44.5135" lon="6.58601">
        <ele>1526</ele>
        <time>2021-04-07T10:55:04Z</time>
      </trkpt>
      <trkpt lat="44.5135" lon="6.58601">
        <ele>1526</ele>
        <time>2021-04-07T10:55:05Z</time>
      </trkpt>
      <trkpt lat="44.51351" lon="6.58596">
        <ele>1526</ele>
        <time>2021-04-07T10:55:06Z</time>
      </trkpt>
      <trkpt lat="44.51351" lon="6.58595">
        <ele>1525</ele>
        <time>2021-04-07T10:55:07Z</time>
      </trkpt>
      <trkpt lat="44.51351" lon="6.58593">
        <ele>1525</ele>
        <time>2021-04-07T10:55:08Z</time>
      </trkpt>
      <trkpt lat="44.51351" lon="6.58592">
        <ele>1525</ele>
        <time>2021-04-07T10:55:09Z</time>
      </trkpt>
      <trkpt lat="44.51351" lon="6.5859">
        <ele>1526</ele>
        <time>2021-04-07T10:55:10Z</time>
      </trkpt>
      <trkpt lat="44.51351" lon="6.58589">
        <ele>1526</ele>
        <time>2021-04-07T10:55:11Z</time>
      </trkpt>
      <trkpt lat="44.5135" lon="6.58587">
        <ele>1526</ele>
        <time>2021-04-07T10:55:12Z</time>
      </trkpt>
      <trkpt lat="44.51351" lon="6.58586">
        <ele>1526</ele>
        <time>2021-04-07T10:55:13Z</time>
      </trkpt>
      <trkpt lat="44.51351" lon="6.58585">
        <ele>1526</ele>
        <time>2021-04-07T10:55:14Z</time>
      </trkpt>
      <trkpt lat="44.51351" lon="6.58583">
        <ele>1526</ele>
        <time>2021-04-07T10:55:15Z</time>
      </trkpt>
      <trkpt lat="44.5135" lon="6.58582">
        <ele>1526</ele>
        <time>2021-04-07T10:55:16Z</time>
      </trkpt>
      <trkpt lat="44.5135" lon="6.5858">
        <ele>1526</ele>
        <time>2021-04-07T10:55:17Z</time>
      </trkpt>
      <trkpt lat="44.5135" lon="6.58579">
        <ele>1526</ele>
        <time>2021-04-07T10:55:18Z</time>
      </trkpt>
      <trkpt lat="44.5135" lon="6.58577">
        <ele>1525</ele>
        <time>2021-04-07T10:55:19Z</time>
      </trkpt>
      <trkpt lat="44.5135" lon="6.58575">
        <ele>1525</ele>
        <time>2021-04-07T10:55:20Z</time>
      </trkpt>
      <trkpt lat="44.5135" lon="6.58573">
        <ele>1525</ele>
        <time>2021-04-07T10:55:21Z</time>
      </trkpt>
      <trkpt lat="44.5135" lon="6.58572">
        <ele>1525</ele>
        <time>2021-04-07T10:55:22Z</time>
      </trkpt>
      <trkpt lat="44.51349" lon="6.58571">
        <ele>1524</ele>
        <time>2021-04-07T10:55:23Z</time>
      </trkpt>
      <trkpt lat="44.51349" lon="6.58569">
        <ele>1524</ele>
        <time>2021-04-07T10:55:24Z</time>
      </trkpt>
      <trkpt lat="44.51349" lon="6.58567">
        <ele>1524</ele>
        <time>2021-04-07T10:55:25Z</time>
      </trkpt>
      <trkpt lat="44.51348" lon="6.58566">
        <ele>1524</ele>
        <time>2021-04-07T10:55:26Z</time>
      </trkpt>
      <trkpt lat="44.51347" lon="6.58564">
        <ele>1524</ele>
        <time>2021-04-07T10:55:27Z</time>
      </trkpt>
      <trkpt lat="44.51347" lon="6.58562">
        <ele>1524</ele>
        <time>2021-04-07T10:55:28Z</time>
      </trkpt>
      <trkpt lat="44.51346" lon="6.58561">
        <ele>1523</ele>
        <time>2021-04-07T10:55:29Z</time>
      </trkpt>
      <trkpt lat="44.51346" lon="6.5856">
        <ele>1523</ele>
        <time>2021-04-07T10:55:30Z</time>
      </trkpt>
      <trkpt lat="44.51346" lon="6.58558">
        <ele>1523</ele>
        <time>2021-04-07T10:55:31Z</time>
      </trkpt>
      <trkpt lat="44.51346" lon="6.58558">
        <ele>1523</ele>
        <time>2021-04-07T10:55:32Z</time>
      </trkpt>
      <trkpt lat="44.51346" lon="6.58558">
        <ele>1523</ele>
        <time>2021-04-07T10:55:33Z</time>
      </trkpt>
      <trkpt lat="44.51346" lon="6.58554">
        <ele>1523</ele>
        <time>2021-04-07T10:55:34Z</time>
      </trkpt>
      <trkpt lat="44.51347" lon="6.58552">
        <ele>1523</ele>
        <time>2021-04-07T10:55:35Z</time>
      </trkpt>
      <trkpt lat="44.51347" lon="6.5855">
        <ele>1522</ele>
        <time>2021-04-07T10:55:36Z</time>
      </trkpt>
      <trkpt lat="44.51347" lon="6.58549">
        <ele>1522</ele>
        <time>2021-04-07T10:55:37Z</time>
      </trkpt>
      <trkpt lat="44.51347" lon="6.58548">
        <ele>1522</ele>
        <time>2021-04-07T10:55:38Z</time>
      </trkpt>
      <trkpt lat="44.51346" lon="6.58546">
        <ele>1522</ele>
        <time>2021-04-07T10:55:39Z</time>
      </trkpt>
      <trkpt lat="44.51345" lon="6.58544">
        <ele>1522</ele>
        <time>2021-04-07T10:55:40Z</time>
      </trkpt>
      <trkpt lat="44.51344" lon="6.58542">
        <ele>1523</ele>
        <time>2021-04-07T10:55:41Z</time>
      </trkpt>
      <trkpt lat="44.51343" lon="6.58541">
        <ele>1522</ele>
        <time>2021-04-07T10:55:42Z</time>
      </trkpt>
      <trkpt lat="44.51343" lon="6.5854">
        <ele>1522</ele>
        <time>2021-04-07T10:55:43Z</time>
      </trkpt>
      <trkpt lat="44.51342" lon="6.5854">
        <ele>1522</ele>
        <time>2021-04-07T10:55:44Z</time>
      </trkpt>
      <trkpt lat="44.51342" lon="6.58538">
        <ele>1521</ele>
        <time>2021-04-07T10:55:45Z</time>
      </trkpt>
      <trkpt lat="44.51341" lon="6.58538">
        <ele>1520</ele>
        <time>2021-04-07T10:55:46Z</time>
      </trkpt>
      <trkpt lat="44.5134" lon="6.58537">
        <ele>1520</ele>
        <time>2021-04-07T10:55:47Z</time>
      </trkpt>
      <trkpt lat="44.5134" lon="6.58536">
        <ele>1519</ele>
        <time>2021-04-07T10:55:48Z</time>
      </trkpt>
      <trkpt lat="44.5134" lon="6.58536">
        <ele>1519</ele>
        <time>2021-04-07T10:55:49Z</time>
      </trkpt>
      <trkpt lat="44.5134" lon="6.58536">
        <ele>1519</ele>
        <time>2021-04-07T10:55:50Z</time>
      </trkpt>
      <trkpt lat="44.5134" lon="6.58536">
        <ele>1519</ele>
        <time>2021-04-07T10:55:51Z</time>
      </trkpt>
      <trkpt lat="44.5134" lon="6.58536">
        <ele>1519</ele>
        <time>2021-04-07T10:55:52Z</time>
      </trkpt>
      <trkpt lat="44.5134" lon="6.58536">
        <ele>1518</ele>
        <time>2021-04-07T10:55:53Z</time>
      </trkpt>
      <trkpt lat="44.51341" lon="6.58526">
        <ele>1518</ele>
        <time>2021-04-07T10:55:54Z</time>
      </trkpt>
      <trkpt lat="44.5134" lon="6.58525">
        <ele>1518</ele>
        <time>2021-04-07T10:55:55Z</time>
      </trkpt>
      <trkpt lat="44.51339" lon="6.58523">
        <ele>1518</ele>
        <time>2021-04-07T10:55:56Z</time>
      </trkpt>
      <trkpt lat="44.51339" lon="6.58521">
        <ele>1518</ele>
        <time>2021-04-07T10:55:57Z</time>
      </trkpt>
      <trkpt lat="44.51339" lon="6.5852">
        <ele>1518</ele>
        <time>2021-04-07T10:55:58Z</time>
      </trkpt>
      <trkpt lat="44.51339" lon="6.58518">
        <ele>1518</ele>
        <time>2021-04-07T10:55:59Z</time>
      </trkpt>
      <trkpt lat="44.51339" lon="6.58517">
        <ele>1517</ele>
        <time>2021-04-07T10:56:00Z</time>
      </trkpt>
      <trkpt lat="44.51339" lon="6.58515">
        <ele>1517</ele>
        <time>2021-04-07T10:56:01Z</time>
      </trkpt>
      <trkpt lat="44.51339" lon="6.58514">
        <ele>1517</ele>
        <time>2021-04-07T10:56:02Z</time>
      </trkpt>
      <trkpt lat="44.51339" lon="6.58513">
        <ele>1517</ele>
        <time>2021-04-07T10:56:03Z</time>
      </trkpt>
      <trkpt lat="44.51338" lon="6.58512">
        <ele>1517</ele>
        <time>2021-04-07T10:56:04Z</time>
      </trkpt>
      <trkpt lat="44.51338" lon="6.5851">
        <ele>1517</ele>
        <time>2021-04-07T10:56:05Z</time>
      </trkpt>
      <trkpt lat="44.51338" lon="6.58508">
        <ele>1517</ele>
        <time>2021-04-07T10:56:06Z</time>
      </trkpt>
      <trkpt lat="44.51338" lon="6.58507">
        <ele>1517</ele>
        <time>2021-04-07T10:56:07Z</time>
      </trkpt>
      <trkpt lat="44.51337" lon="6.58506">
        <ele>1517</ele>
        <time>2021-04-07T10:56:08Z</time>
      </trkpt>
      <trkpt lat="44.51337" lon="6.58505">
        <ele>1517</ele>
        <time>2021-04-07T10:56:09Z</time>
      </trkpt>
      <trkpt lat="44.51337" lon="6.58503">
        <ele>1517</ele>
        <time>2021-04-07T10:56:10Z</time>
      </trkpt>
      <trkpt lat="44.51337" lon="6.58502">
        <ele>1517</ele>
        <time>2021-04-07T10:56:11Z</time>
      </trkpt>
      <trkpt lat="44.51337" lon="6.58502">
        <ele>1517</ele>
        <time>2021-04-07T10:56:12Z</time>
      </trkpt>
      <trkpt lat="44.51337" lon="6.58502">
        <ele>1517</ele>
        <time>2021-04-07T10:56:13Z</time>
      </trkpt>
      <trkpt lat="44.51337" lon="6.58502">
        <ele>1517</ele>
        <time>2021-04-07T10:56:14Z</time>
      </trkpt>
      <trkpt lat="44.51337" lon="6.58502">
        <ele>1517</ele>
        <time>2021-04-07T10:56:15Z</time>
      </trkpt>
      <trkpt lat="44.51335" lon="6.58496">
        <ele>1517</ele>
        <time>2021-04-07T10:56:16Z</time>
      </trkpt>
      <trkpt lat="44.51334" lon="6.58495">
        <ele>1517</ele>
        <time>2021-04-07T10:56:17Z</time>
      </trkpt>
      <trkpt lat="44.51333" lon="6.58493">
        <ele>1517</ele>
        <time>2021-04-07T10:56:18Z</time>
      </trkpt>
      <trkpt lat="44.51333" lon="6.58492">
        <ele>1517</ele>
        <time>2021-04-07T10:56:19Z</time>
      </trkpt>
      <trkpt lat="44.51332" lon="6.58491">
        <ele>1517</ele>
        <time>2021-04-07T10:56:20Z</time>
      </trkpt>
      <trkpt lat="44.51332" lon="6.5849">
        <ele>1517</ele>
        <time>2021-04-07T10:56:21Z</time>
      </trkpt>
      <trkpt lat="44.51332" lon="6.58489">
        <ele>1517</ele>
        <time>2021-04-07T10:56:22Z</time>
      </trkpt>
      <trkpt lat="44.51331" lon="6.58487">
        <ele>1516</ele>
        <time>2021-04-07T10:56:23Z</time>
      </trkpt>
      <trkpt lat="44.51331" lon="6.58485">
        <ele>1516</ele>
        <time>2021-04-07T10:56:24Z</time>
      </trkpt>
      <trkpt lat="44.5133" lon="6.58483">
        <ele>1516</ele>
        <time>2021-04-07T10:56:25Z</time>
      </trkpt>
      <trkpt lat="44.5133" lon="6.58482">
        <ele>1516</ele>
        <time>2021-04-07T10:56:26Z</time>
      </trkpt>
      <trkpt lat="44.51329" lon="6.5848">
        <ele>1516</ele>
        <time>2021-04-07T10:56:27Z</time>
      </trkpt>
      <trkpt lat="44.51329" lon="6.58478">
        <ele>1515</ele>
        <time>2021-04-07T10:56:28Z</time>
      </trkpt>
      <trkpt lat="44.51328" lon="6.58477">
        <ele>1515</ele>
        <time>2021-04-07T10:56:29Z</time>
      </trkpt>
      <trkpt lat="44.51328" lon="6.58476">
        <ele>1515</ele>
        <time>2021-04-07T10:56:30Z</time>
      </trkpt>
      <trkpt lat="44.51328" lon="6.58475">
        <ele>1515</ele>
        <time>2021-04-07T10:56:31Z</time>
      </trkpt>
      <trkpt lat="44.51328" lon="6.58472">
        <ele>1515</ele>
        <time>2021-04-07T10:56:32Z</time>
      </trkpt>
      <trkpt lat="44.51328" lon="6.58471">
        <ele>1514</ele>
        <time>2021-04-07T10:56:33Z</time>
      </trkpt>
      <trkpt lat="44.51328" lon="6.58469">
        <ele>1514</ele>
        <time>2021-04-07T10:56:34Z</time>
      </trkpt>
      <trkpt lat="44.51328" lon="6.58468">
        <ele>1514</ele>
        <time>2021-04-07T10:56:35Z</time>
      </trkpt>
      <trkpt lat="44.51327" lon="6.58467">
        <ele>1514</ele>
        <time>2021-04-07T10:56:36Z</time>
      </trkpt>
      <trkpt lat="44.51327" lon="6.58465">
        <ele>1514</ele>
        <time>2021-04-07T10:56:37Z</time>
      </trkpt>
      <trkpt lat="44.51327" lon="6.58463">
        <ele>1514</ele>
        <time>2021-04-07T10:56:38Z</time>
      </trkpt>
      <trkpt lat="44.51327" lon="6.58462">
        <ele>1514</ele>
        <time>2021-04-07T10:56:39Z</time>
      </trkpt>
      <trkpt lat="44.51327" lon="6.5846">
        <ele>1515</ele>
        <time>2021-04-07T10:56:40Z</time>
      </trkpt>
      <trkpt lat="44.51327" lon="6.58459">
        <ele>1515</ele>
        <time>2021-04-07T10:56:41Z</time>
      </trkpt>
      <trkpt lat="44.51326" lon="6.58457">
        <ele>1515</ele>
        <time>2021-04-07T10:56:42Z</time>
      </trkpt>
      <trkpt lat="44.51326" lon="6.58456">
        <ele>1515</ele>
        <time>2021-04-07T10:56:43Z</time>
      </trkpt>
      <trkpt lat="44.51325" lon="6.58455">
        <ele>1515</ele>
        <time>2021-04-07T10:56:44Z</time>
      </trkpt>
      <trkpt lat="44.51326" lon="6.58453">
        <ele>1515</ele>
        <time>2021-04-07T10:56:45Z</time>
      </trkpt>
      <trkpt lat="44.51326" lon="6.58453">
        <ele>1515</ele>
        <time>2021-04-07T10:56:46Z</time>
      </trkpt>
      <trkpt lat="44.51326" lon="6.58453">
        <ele>1515</ele>
        <time>2021-04-07T10:56:47Z</time>
      </trkpt>
      <trkpt lat="44.51326" lon="6.58453">
        <ele>1515</ele>
        <time>2021-04-07T10:56:48Z</time>
      </trkpt>
      <trkpt lat="44.51325" lon="6.58447">
        <ele>1515</ele>
        <time>2021-04-07T10:56:49Z</time>
      </trkpt>
      <trkpt lat="44.51323" lon="6.58446">
        <ele>1515</ele>
        <time>2021-04-07T10:56:50Z</time>
      </trkpt>
      <trkpt lat="44.51323" lon="6.58444">
        <ele>1515</ele>
        <time>2021-04-07T10:56:51Z</time>
      </trkpt>
      <trkpt lat="44.51322" lon="6.58442">
        <ele>1515</ele>
        <time>2021-04-07T10:56:52Z</time>
      </trkpt>
      <trkpt lat="44.51321" lon="6.58441">
        <ele>1515</ele>
        <time>2021-04-07T10:56:53Z</time>
      </trkpt>
      <trkpt lat="44.5132" lon="6.58439">
        <ele>1515</ele>
        <time>2021-04-07T10:56:54Z</time>
      </trkpt>
      <trkpt lat="44.51319" lon="6.58438">
        <ele>1515</ele>
        <time>2021-04-07T10:56:55Z</time>
      </trkpt>
      <trkpt lat="44.51318" lon="6.58437">
        <ele>1515</ele>
        <time>2021-04-07T10:56:56Z</time>
      </trkpt>
      <trkpt lat="44.51317" lon="6.58435">
        <ele>1515</ele>
        <time>2021-04-07T10:56:57Z</time>
      </trkpt>
      <trkpt lat="44.51317" lon="6.58434">
        <ele>1515</ele>
        <time>2021-04-07T10:56:58Z</time>
      </trkpt>
      <trkpt lat="44.51316" lon="6.58433">
        <ele>1514</ele>
        <time>2021-04-07T10:56:59Z</time>
      </trkpt>
      <trkpt lat="44.51315" lon="6.58431">
        <ele>1514</ele>
        <time>2021-04-07T10:57:00Z</time>
      </trkpt>
      <trkpt lat="44.51314" lon="6.58429">
        <ele>1514</ele>
        <time>2021-04-07T10:57:01Z</time>
      </trkpt>
      <trkpt lat="44.51314" lon="6.58428">
        <ele>1513</ele>
        <time>2021-04-07T10:57:02Z</time>
      </trkpt>
      <trkpt lat="44.51313" lon="6.58426">
        <ele>1513</ele>
        <time>2021-04-07T10:57:03Z</time>
      </trkpt>
      <trkpt lat="44.51313" lon="6.58424">
        <ele>1513</ele>
        <time>2021-04-07T10:57:04Z</time>
      </trkpt>
      <trkpt lat="44.51313" lon="6.58421">
        <ele>1513</ele>
        <time>2021-04-07T10:57:05Z</time>
      </trkpt>
      <trkpt lat="44.51313" lon="6.58419">
        <ele>1513</ele>
        <time>2021-04-07T10:57:06Z</time>
      </trkpt>
      <trkpt lat="44.51313" lon="6.58418">
        <ele>1513</ele>
        <time>2021-04-07T10:57:07Z</time>
      </trkpt>
      <trkpt lat="44.51313" lon="6.58416">
        <ele>1512</ele>
        <time>2021-04-07T10:57:08Z</time>
      </trkpt>
      <trkpt lat="44.51313" lon="6.58414">
        <ele>1512</ele>
        <time>2021-04-07T10:57:09Z</time>
      </trkpt>
      <trkpt lat="44.51312" lon="6.58412">
        <ele>1512</ele>
        <time>2021-04-07T10:57:10Z</time>
      </trkpt>
      <trkpt lat="44.51312" lon="6.5841">
        <ele>1512</ele>
        <time>2021-04-07T10:57:11Z</time>
      </trkpt>
      <trkpt lat="44.51312" lon="6.58409">
        <ele>1512</ele>
        <time>2021-04-07T10:57:12Z</time>
      </trkpt>
      <trkpt lat="44.51312" lon="6.58407">
        <ele>1512</ele>
        <time>2021-04-07T10:57:13Z</time>
      </trkpt>
      <trkpt lat="44.51311" lon="6.58406">
        <ele>1512</ele>
        <time>2021-04-07T10:57:14Z</time>
      </trkpt>
      <trkpt lat="44.51311" lon="6.58404">
        <ele>1512</ele>
        <time>2021-04-07T10:57:15Z</time>
      </trkpt>
      <trkpt lat="44.51311" lon="6.58403">
        <ele>1512</ele>
        <time>2021-04-07T10:57:16Z</time>
      </trkpt>
      <trkpt lat="44.51311" lon="6.58401">
        <ele>1511</ele>
        <time>2021-04-07T10:57:17Z</time>
      </trkpt>
      <trkpt lat="44.51311" lon="6.584">
        <ele>1511</ele>
        <time>2021-04-07T10:57:18Z</time>
      </trkpt>
      <trkpt lat="44.51311" lon="6.58398">
        <ele>1511</ele>
        <time>2021-04-07T10:57:19Z</time>
      </trkpt>
      <trkpt lat="44.51311" lon="6.58397">
        <ele>1511</ele>
        <time>2021-04-07T10:57:20Z</time>
      </trkpt>
      <trkpt lat="44.5131" lon="6.58396">
        <ele>1511</ele>
        <time>2021-04-07T10:57:21Z</time>
      </trkpt>
      <trkpt lat="44.5131" lon="6.58394">
        <ele>1511</ele>
        <time>2021-04-07T10:57:22Z</time>
      </trkpt>
      <trkpt lat="44.51309" lon="6.58392">
        <ele>1511</ele>
        <time>2021-04-07T10:57:23Z</time>
      </trkpt>
      <trkpt lat="44.51308" lon="6.5839">
        <ele>1511</ele>
        <time>2021-04-07T10:57:24Z</time>
      </trkpt>
      <trkpt lat="44.51308" lon="6.58389">
        <ele>1511</ele>
        <time>2021-04-07T10:57:25Z</time>
      </trkpt>
      <trkpt lat="44.51307" lon="6.58387">
        <ele>1510</ele>
        <time>2021-04-07T10:57:26Z</time>
      </trkpt>
      <trkpt lat="44.51307" lon="6.58386">
        <ele>1510</ele>
        <time>2021-04-07T10:57:27Z</time>
      </trkpt>
      <trkpt lat="44.51306" lon="6.58384">
        <ele>1510</ele>
        <time>2021-04-07T10:57:28Z</time>
      </trkpt>
      <trkpt lat="44.51305" lon="6.58383">
        <ele>1510</ele>
        <time>2021-04-07T10:57:29Z</time>
      </trkpt>
      <trkpt lat="44.51305" lon="6.58381">
        <ele>1510</ele>
        <time>2021-04-07T10:57:30Z</time>
      </trkpt>
      <trkpt lat="44.51304" lon="6.5838">
        <ele>1509</ele>
        <time>2021-04-07T10:57:31Z</time>
      </trkpt>
      <trkpt lat="44.51303" lon="6.58379">
        <ele>1509</ele>
        <time>2021-04-07T10:57:32Z</time>
      </trkpt>
      <trkpt lat="44.51302" lon="6.58377">
        <ele>1509</ele>
        <time>2021-04-07T10:57:33Z</time>
      </trkpt>
      <trkpt lat="44.51302" lon="6.58375">
        <ele>1509</ele>
        <time>2021-04-07T10:57:34Z</time>
      </trkpt>
      <trkpt lat="44.51301" lon="6.58373">
        <ele>1508</ele>
        <time>2021-04-07T10:57:35Z</time>
      </trkpt>
      <trkpt lat="44.51301" lon="6.58372">
        <ele>1508</ele>
        <time>2021-04-07T10:57:36Z</time>
      </trkpt>
      <trkpt lat="44.513" lon="6.5837">
        <ele>1508</ele>
        <time>2021-04-07T10:57:37Z</time>
      </trkpt>
      <trkpt lat="44.513" lon="6.58369">
        <ele>1508</ele>
        <time>2021-04-07T10:57:38Z</time>
      </trkpt>
      <trkpt lat="44.51299" lon="6.58367">
        <ele>1508</ele>
        <time>2021-04-07T10:57:39Z</time>
      </trkpt>
      <trkpt lat="44.51299" lon="6.58366">
        <ele>1508</ele>
        <time>2021-04-07T10:57:40Z</time>
      </trkpt>
      <trkpt lat="44.51298" lon="6.58365">
        <ele>1508</ele>
        <time>2021-04-07T10:57:41Z</time>
      </trkpt>
      <trkpt lat="44.51298" lon="6.58363">
        <ele>1508</ele>
        <time>2021-04-07T10:57:42Z</time>
      </trkpt>
      <trkpt lat="44.51298" lon="6.58362">
        <ele>1508</ele>
        <time>2021-04-07T10:57:43Z</time>
      </trkpt>
      <trkpt lat="44.51298" lon="6.58361">
        <ele>1508</ele>
        <time>2021-04-07T10:57:44Z</time>
      </trkpt>
      <trkpt lat="44.51297" lon="6.5836">
        <ele>1508</ele>
        <time>2021-04-07T10:57:45Z</time>
      </trkpt>
      <trkpt lat="44.51297" lon="6.58358">
        <ele>1508</ele>
        <time>2021-04-07T10:57:46Z</time>
      </trkpt>
      <trkpt lat="44.51297" lon="6.58358">
        <ele>1508</ele>
        <time>2021-04-07T10:57:47Z</time>
      </trkpt>
      <trkpt lat="44.51297" lon="6.58358">
        <ele>1508</ele>
        <time>2021-04-07T10:57:48Z</time>
      </trkpt>
      <trkpt lat="44.51296" lon="6.58355">
        <ele>1508</ele>
        <time>2021-04-07T10:57:49Z</time>
      </trkpt>
      <trkpt lat="44.51296" lon="6.58353">
        <ele>1508</ele>
        <time>2021-04-07T10:57:50Z</time>
      </trkpt>
      <trkpt lat="44.51296" lon="6.58351">
        <ele>1507</ele>
        <time>2021-04-07T10:57:51Z</time>
      </trkpt>
      <trkpt lat="44.51296" lon="6.58349">
        <ele>1507</ele>
        <time>2021-04-07T10:57:52Z</time>
      </trkpt>
      <trkpt lat="44.51295" lon="6.58347">
        <ele>1507</ele>
        <time>2021-04-07T10:57:53Z</time>
      </trkpt>
      <trkpt lat="44.51295" lon="6.58346">
        <ele>1507</ele>
        <time>2021-04-07T10:57:54Z</time>
      </trkpt>
      <trkpt lat="44.51294" lon="6.58344">
        <ele>1507</ele>
        <time>2021-04-07T10:57:55Z</time>
      </trkpt>
      <trkpt lat="44.51294" lon="6.58342">
        <ele>1507</ele>
        <time>2021-04-07T10:57:56Z</time>
      </trkpt>
      <trkpt lat="44.51294" lon="6.5834">
        <ele>1507</ele>
        <time>2021-04-07T10:57:57Z</time>
      </trkpt>
      <trkpt lat="44.51293" lon="6.58339">
        <ele>1507</ele>
        <time>2021-04-07T10:57:58Z</time>
      </trkpt>
      <trkpt lat="44.51293" lon="6.58337">
        <ele>1507</ele>
        <time>2021-04-07T10:57:59Z</time>
      </trkpt>
      <trkpt lat="44.51293" lon="6.58336">
        <ele>1507</ele>
        <time>2021-04-07T10:58:00Z</time>
      </trkpt>
      <trkpt lat="44.51292" lon="6.58334">
        <ele>1506</ele>
        <time>2021-04-07T10:58:01Z</time>
      </trkpt>
      <trkpt lat="44.51292" lon="6.58333">
        <ele>1506</ele>
        <time>2021-04-07T10:58:02Z</time>
      </trkpt>
      <trkpt lat="44.51292" lon="6.58331">
        <ele>1506</ele>
        <time>2021-04-07T10:58:03Z</time>
      </trkpt>
      <trkpt lat="44.51291" lon="6.58329">
        <ele>1505</ele>
        <time>2021-04-07T10:58:04Z</time>
      </trkpt>
      <trkpt lat="44.51291" lon="6.58328">
        <ele>1505</ele>
        <time>2021-04-07T10:58:05Z</time>
      </trkpt>
      <trkpt lat="44.51291" lon="6.58326">
        <ele>1505</ele>
        <time>2021-04-07T10:58:06Z</time>
      </trkpt>
      <trkpt lat="44.51291" lon="6.58325">
        <ele>1505</ele>
        <time>2021-04-07T10:58:07Z</time>
      </trkpt>
      <trkpt lat="44.5129" lon="6.58324">
        <ele>1504</ele>
        <time>2021-04-07T10:58:08Z</time>
      </trkpt>
      <trkpt lat="44.51291" lon="6.58322">
        <ele>1504</ele>
        <time>2021-04-07T10:58:09Z</time>
      </trkpt>
      <trkpt lat="44.51291" lon="6.58321">
        <ele>1504</ele>
        <time>2021-04-07T10:58:10Z</time>
      </trkpt>
      <trkpt lat="44.51292" lon="6.58319">
        <ele>1503</ele>
        <time>2021-04-07T10:58:11Z</time>
      </trkpt>
      <trkpt lat="44.51291" lon="6.58317">
        <ele>1503</ele>
        <time>2021-04-07T10:58:12Z</time>
      </trkpt>
      <trkpt lat="44.51291" lon="6.58316">
        <ele>1503</ele>
        <time>2021-04-07T10:58:13Z</time>
      </trkpt>
      <trkpt lat="44.51291" lon="6.58314">
        <ele>1503</ele>
        <time>2021-04-07T10:58:14Z</time>
      </trkpt>
      <trkpt lat="44.5129" lon="6.58313">
        <ele>1503</ele>
        <time>2021-04-07T10:58:15Z</time>
      </trkpt>
      <trkpt lat="44.51291" lon="6.58312">
        <ele>1503</ele>
        <time>2021-04-07T10:58:16Z</time>
      </trkpt>
      <trkpt lat="44.51291" lon="6.58311">
        <ele>1502</ele>
        <time>2021-04-07T10:58:17Z</time>
      </trkpt>
      <trkpt lat="44.51291" lon="6.58311">
        <ele>1502</ele>
        <time>2021-04-07T10:58:18Z</time>
      </trkpt>
      <trkpt lat="44.51291" lon="6.58308">
        <ele>1502</ele>
        <time>2021-04-07T10:58:19Z</time>
      </trkpt>
      <trkpt lat="44.51292" lon="6.58306">
        <ele>1502</ele>
        <time>2021-04-07T10:58:20Z</time>
      </trkpt>
      <trkpt lat="44.51292" lon="6.58304">
        <ele>1501</ele>
        <time>2021-04-07T10:58:21Z</time>
      </trkpt>
      <trkpt lat="44.51292" lon="6.58302">
        <ele>1501</ele>
        <time>2021-04-07T10:58:22Z</time>
      </trkpt>
      <trkpt lat="44.51292" lon="6.58301">
        <ele>1501</ele>
        <time>2021-04-07T10:58:23Z</time>
      </trkpt>
      <trkpt lat="44.51292" lon="6.58299">
        <ele>1501</ele>
        <time>2021-04-07T10:58:24Z</time>
      </trkpt>
      <trkpt lat="44.51292" lon="6.58298">
        <ele>1501</ele>
        <time>2021-04-07T10:58:25Z</time>
      </trkpt>
      <trkpt lat="44.51293" lon="6.58296">
        <ele>1500</ele>
        <time>2021-04-07T10:58:26Z</time>
      </trkpt>
      <trkpt lat="44.51293" lon="6.58296">
        <ele>1500</ele>
        <time>2021-04-07T10:58:27Z</time>
      </trkpt>
      <trkpt lat="44.51293" lon="6.58296">
        <ele>1500</ele>
        <time>2021-04-07T10:58:28Z</time>
      </trkpt>
      <trkpt lat="44.51293" lon="6.58296">
        <ele>1500</ele>
        <time>2021-04-07T10:58:29Z</time>
      </trkpt>
      <trkpt lat="44.51294" lon="6.5829">
        <ele>1499</ele>
        <time>2021-04-07T10:58:30Z</time>
      </trkpt>
      <trkpt lat="44.51294" lon="6.58289">
        <ele>1499</ele>
        <time>2021-04-07T10:58:31Z</time>
      </trkpt>
      <trkpt lat="44.51294" lon="6.58287">
        <ele>1498</ele>
        <time>2021-04-07T10:58:32Z</time>
      </trkpt>
      <trkpt lat="44.51294" lon="6.58285">
        <ele>1498</ele>
        <time>2021-04-07T10:58:33Z</time>
      </trkpt>
      <trkpt lat="44.51294" lon="6.58284">
        <ele>1497</ele>
        <time>2021-04-07T10:58:34Z</time>
      </trkpt>
      <trkpt lat="44.51294" lon="6.58282">
        <ele>1497</ele>
        <time>2021-04-07T10:58:35Z</time>
      </trkpt>
      <trkpt lat="44.51294" lon="6.5828">
        <ele>1497</ele>
        <time>2021-04-07T10:58:36Z</time>
      </trkpt>
      <trkpt lat="44.51294" lon="6.58279">
        <ele>1496</ele>
        <time>2021-04-07T10:58:37Z</time>
      </trkpt>
      <trkpt lat="44.51293" lon="6.58277">
        <ele>1496</ele>
        <time>2021-04-07T10:58:38Z</time>
      </trkpt>
      <trkpt lat="44.51293" lon="6.58275">
        <ele>1495</ele>
        <time>2021-04-07T10:58:39Z</time>
      </trkpt>
      <trkpt lat="44.51293" lon="6.58274">
        <ele>1495</ele>
        <time>2021-04-07T10:58:40Z</time>
      </trkpt>
      <trkpt lat="44.51293" lon="6.58272">
        <ele>1495</ele>
        <time>2021-04-07T10:58:41Z</time>
      </trkpt>
      <trkpt lat="44.51293" lon="6.58271">
        <ele>1495</ele>
        <time>2021-04-07T10:58:42Z</time>
      </trkpt>
      <trkpt lat="44.51293" lon="6.58269">
        <ele>1494</ele>
        <time>2021-04-07T10:58:43Z</time>
      </trkpt>
      <trkpt lat="44.51292" lon="6.58268">
        <ele>1494</ele>
        <time>2021-04-07T10:58:44Z</time>
      </trkpt>
      <trkpt lat="44.51292" lon="6.58268">
        <ele>1494</ele>
        <time>2021-04-07T10:58:45Z</time>
      </trkpt>
      <trkpt lat="44.51292" lon="6.58268">
        <ele>1494</ele>
        <time>2021-04-07T10:58:46Z</time>
      </trkpt>
      <trkpt lat="44.51292" lon="6.58263">
        <ele>1494</ele>
        <time>2021-04-07T10:58:47Z</time>
      </trkpt>
      <trkpt lat="44.51292" lon="6.58262">
        <ele>1494</ele>
        <time>2021-04-07T10:58:48Z</time>
      </trkpt>
      <trkpt lat="44.51292" lon="6.58259">
        <ele>1493</ele>
        <time>2021-04-07T10:58:49Z</time>
      </trkpt>
      <trkpt lat="44.51292" lon="6.58258">
        <ele>1493</ele>
        <time>2021-04-07T10:58:50Z</time>
      </trkpt>
      <trkpt lat="44.51292" lon="6.58256">
        <ele>1493</ele>
        <time>2021-04-07T10:58:51Z</time>
      </trkpt>
      <trkpt lat="44.51292" lon="6.58254">
        <ele>1493</ele>
        <time>2021-04-07T10:58:52Z</time>
      </trkpt>
      <trkpt lat="44.51292" lon="6.58253">
        <ele>1493</ele>
        <time>2021-04-07T10:58:53Z</time>
      </trkpt>
      <trkpt lat="44.51292" lon="6.58252">
        <ele>1493</ele>
        <time>2021-04-07T10:58:54Z</time>
      </trkpt>
      <trkpt lat="44.51292" lon="6.5825">
        <ele>1493</ele>
        <time>2021-04-07T10:58:55Z</time>
      </trkpt>
      <trkpt lat="44.51292" lon="6.58249">
        <ele>1493</ele>
        <time>2021-04-07T10:58:56Z</time>
      </trkpt>
      <trkpt lat="44.51292" lon="6.58247">
        <ele>1493</ele>
        <time>2021-04-07T10:58:57Z</time>
      </trkpt>
      <trkpt lat="44.51292" lon="6.58245">
        <ele>1493</ele>
        <time>2021-04-07T10:58:58Z</time>
      </trkpt>
      <trkpt lat="44.51292" lon="6.58244">
        <ele>1493</ele>
        <time>2021-04-07T10:58:59Z</time>
      </trkpt>
      <trkpt lat="44.51293" lon="6.58243">
        <ele>1492</ele>
        <time>2021-04-07T10:59:00Z</time>
      </trkpt>
      <trkpt lat="44.51293" lon="6.58242">
        <ele>1492</ele>
        <time>2021-04-07T10:59:01Z</time>
      </trkpt>
      <trkpt lat="44.51293" lon="6.5824">
        <ele>1491</ele>
        <time>2021-04-07T10:59:02Z</time>
      </trkpt>
      <trkpt lat="44.51292" lon="6.58239">
        <ele>1491</ele>
        <time>2021-04-07T10:59:03Z</time>
      </trkpt>
      <trkpt lat="44.51293" lon="6.58238">
        <ele>1491</ele>
        <time>2021-04-07T10:59:04Z</time>
      </trkpt>
      <trkpt lat="44.51293" lon="6.58237">
        <ele>1491</ele>
        <time>2021-04-07T10:59:05Z</time>
      </trkpt>
      <trkpt lat="44.51294" lon="6.58235">
        <ele>1490</ele>
        <time>2021-04-07T10:59:06Z</time>
      </trkpt>
      <trkpt lat="44.51295" lon="6.58233">
        <ele>1490</ele>
        <time>2021-04-07T10:59:07Z</time>
      </trkpt>
      <trkpt lat="44.51295" lon="6.58232">
        <ele>1489</ele>
        <time>2021-04-07T10:59:08Z</time>
      </trkpt>
      <trkpt lat="44.51296" lon="6.5823">
        <ele>1489</ele>
        <time>2021-04-07T10:59:09Z</time>
      </trkpt>
      <trkpt lat="44.51294" lon="6.58229">
        <ele>1489</ele>
        <time>2021-04-07T10:59:10Z</time>
      </trkpt>
      <trkpt lat="44.51295" lon="6.58228">
        <ele>1489</ele>
        <time>2021-04-07T10:59:11Z</time>
      </trkpt>
      <trkpt lat="44.51295" lon="6.58227">
        <ele>1489</ele>
        <time>2021-04-07T10:59:12Z</time>
      </trkpt>
      <trkpt lat="44.51295" lon="6.58225">
        <ele>1489</ele>
        <time>2021-04-07T10:59:13Z</time>
      </trkpt>
      <trkpt lat="44.51295" lon="6.58224">
        <ele>1488</ele>
        <time>2021-04-07T10:59:14Z</time>
      </trkpt>
      <trkpt lat="44.51295" lon="6.58222">
        <ele>1488</ele>
        <time>2021-04-07T10:59:15Z</time>
      </trkpt>
      <trkpt lat="44.51296" lon="6.58221">
        <ele>1488</ele>
        <time>2021-04-07T10:59:16Z</time>
      </trkpt>
      <trkpt lat="44.51296" lon="6.5822">
        <ele>1488</ele>
        <time>2021-04-07T10:59:17Z</time>
      </trkpt>
      <trkpt lat="44.51296" lon="6.58219">
        <ele>1488</ele>
        <time>2021-04-07T10:59:18Z</time>
      </trkpt>
      <trkpt lat="44.51296" lon="6.58217">
        <ele>1488</ele>
        <time>2021-04-07T10:59:19Z</time>
      </trkpt>
      <trkpt lat="44.51297" lon="6.58216">
        <ele>1487</ele>
        <time>2021-04-07T10:59:20Z</time>
      </trkpt>
      <trkpt lat="44.51298" lon="6.58214">
        <ele>1487</ele>
        <time>2021-04-07T10:59:21Z</time>
      </trkpt>
      <trkpt lat="44.51298" lon="6.58212">
        <ele>1487</ele>
        <time>2021-04-07T10:59:22Z</time>
      </trkpt>
      <trkpt lat="44.51298" lon="6.5821">
        <ele>1487</ele>
        <time>2021-04-07T10:59:23Z</time>
      </trkpt>
      <trkpt lat="44.51298" lon="6.58209">
        <ele>1487</ele>
        <time>2021-04-07T10:59:24Z</time>
      </trkpt>
      <trkpt lat="44.51298" lon="6.58207">
        <ele>1487</ele>
        <time>2021-04-07T10:59:25Z</time>
      </trkpt>
      <trkpt lat="44.51298" lon="6.58206">
        <ele>1487</ele>
        <time>2021-04-07T10:59:26Z</time>
      </trkpt>
      <trkpt lat="44.51298" lon="6.58204">
        <ele>1487</ele>
        <time>2021-04-07T10:59:27Z</time>
      </trkpt>
      <trkpt lat="44.51298" lon="6.58203">
        <ele>1486</ele>
        <time>2021-04-07T10:59:28Z</time>
      </trkpt>
      <trkpt lat="44.51297" lon="6.58201">
        <ele>1486</ele>
        <time>2021-04-07T10:59:29Z</time>
      </trkpt>
      <trkpt lat="44.51297" lon="6.58199">
        <ele>1486</ele>
        <time>2021-04-07T10:59:30Z</time>
      </trkpt>
      <trkpt lat="44.51298" lon="6.58198">
        <ele>1486</ele>
        <time>2021-04-07T10:59:31Z</time>
      </trkpt>
      <trkpt lat="44.51298" lon="6.58197">
        <ele>1485</ele>
        <time>2021-04-07T10:59:32Z</time>
      </trkpt>
      <trkpt lat="44.51298" lon="6.58196">
        <ele>1485</ele>
        <time>2021-04-07T10:59:33Z</time>
      </trkpt>
      <trkpt lat="44.51298" lon="6.58196">
        <ele>1485</ele>
        <time>2021-04-07T10:59:34Z</time>
      </trkpt>
      <trkpt lat="44.51298" lon="6.58196">
        <ele>1485</ele>
        <time>2021-04-07T10:59:35Z</time>
      </trkpt>
      <trkpt lat="44.51298" lon="6.58196">
        <ele>1485</ele>
        <time>2021-04-07T10:59:36Z</time>
      </trkpt>
      <trkpt lat="44.51298" lon="6.58196">
        <ele>1485</ele>
        <time>2021-04-07T10:59:37Z</time>
      </trkpt>
      <trkpt lat="44.51298" lon="6.58196">
        <ele>1485</ele>
        <time>2021-04-07T10:59:38Z</time>
      </trkpt>
      <trkpt lat="44.51298" lon="6.58196">
        <ele>1485</ele>
        <time>2021-04-07T10:59:39Z</time>
      </trkpt>
      <trkpt lat="44.51298" lon="6.58196">
        <ele>1485</ele>
        <time>2021-04-07T10:59:40Z</time>
      </trkpt>
      <trkpt lat="44.51298" lon="6.58196">
        <ele>1485</ele>
        <time>2021-04-07T10:59:41Z</time>
      </trkpt>
      <trkpt lat="44.51298" lon="6.58196">
        <ele>1485</ele>
        <time>2021-04-07T10:59:42Z</time>
      </trkpt>
      <trkpt lat="44.51298" lon="6.58196">
        <ele>1485</ele>
        <time>2021-04-07T10:59:43Z</time>
      </trkpt>
      <trkpt lat="44.51298" lon="6.58196">
        <ele>1485</ele>
        <time>2021-04-07T10:59:44Z</time>
      </trkpt>
      <trkpt lat="44.51298" lon="6.58196">
        <ele>1485</ele>
        <time>2021-04-07T10:59:45Z</time>
      </trkpt>
      <trkpt lat="44.51298" lon="6.58196">
        <ele>1485</ele>
        <time>2021-04-07T10:59:46Z</time>
      </trkpt>
      <trkpt lat="44.51298" lon="6.58196">
        <ele>1485</ele>
        <time>2021-04-07T10:59:47Z</time>
      </trkpt>
      <trkpt lat="44.51298" lon="6.58196">
        <ele>1485</ele>
        <time>2021-04-07T10:59:48Z</time>
      </trkpt>
      <trkpt lat="44.51298" lon="6.58196">
        <ele>1485</ele>
        <time>2021-04-07T10:59:49Z</time>
      </trkpt>
      <trkpt lat="44.51298" lon="6.58196">
        <ele>1485</ele>
        <time>2021-04-07T10:59:50Z</time>
      </trkpt>
      <trkpt lat="44.51298" lon="6.58196">
        <ele>1485</ele>
        <time>2021-04-07T10:59:51Z</time>
      </trkpt>
      <trkpt lat="44.51298" lon="6.58196">
        <ele>1485</ele>
        <time>2021-04-07T10:59:52Z</time>
      </trkpt>
      <trkpt lat="44.51298" lon="6.58196">
        <ele>1485</ele>
        <time>2021-04-07T10:59:53Z</time>
      </trkpt>
      <trkpt lat="44.51298" lon="6.58196">
        <ele>1485</ele>
        <time>2021-04-07T10:59:54Z</time>
      </trkpt>
      <trkpt lat="44.51298" lon="6.58196">
        <ele>1485</ele>
        <time>2021-04-07T10:59:55Z</time>
      </trkpt>
      <trkpt lat="44.51298" lon="6.58196">
        <ele>1485</ele>
        <time>2021-04-07T10:59:56Z</time>
      </trkpt>
      <trkpt lat="44.51298" lon="6.58196">
        <ele>1485</ele>
        <time>2021-04-07T10:59:57Z</time>
      </trkpt>
      <trkpt lat="44.51298" lon="6.58196">
        <ele>1485</ele>
        <time>2021-04-07T10:59:58Z</time>
      </trkpt>
      <trkpt lat="44.51298" lon="6.58196">
        <ele>1485</ele>
        <time>2021-04-07T10:59:59Z</time>
      </trkpt>
      <trkpt lat="44.51298" lon="6.58196">
        <ele>1485</ele>
        <time>2021-04-07T11:00:00Z</time>
      </trkpt>
      <trkpt lat="44.51298" lon="6.58196">
        <ele>1485</ele>
        <time>2021-04-07T11:00:01Z</time>
      </trkpt>
      <trkpt lat="44.51298" lon="6.58196">
        <ele>1485</ele>
        <time>2021-04-07T11:00:02Z</time>
      </trkpt>
      <trkpt lat="44.51293" lon="6.58188">
        <ele>1484</ele>
        <time>2021-04-07T11:00:03Z</time>
      </trkpt>
      <trkpt lat="44.51294" lon="6.58186">
        <ele>1484</ele>
        <time>2021-04-07T11:00:04Z</time>
      </trkpt>
      <trkpt lat="44.51294" lon="6.58184">
        <ele>1484</ele>
        <time>2021-04-07T11:00:05Z</time>
      </trkpt>
      <trkpt lat="44.51295" lon="6.58182">
        <ele>1484</ele>
        <time>2021-04-07T11:00:06Z</time>
      </trkpt>
      <trkpt lat="44.51296" lon="6.5818">
        <ele>1484</ele>
        <time>2021-04-07T11:00:07Z</time>
      </trkpt>
      <trkpt lat="44.51296" lon="6.58179">
        <ele>1484</ele>
        <time>2021-04-07T11:00:08Z</time>
      </trkpt>
      <trkpt lat="44.51297" lon="6.58177">
        <ele>1484</ele>
        <time>2021-04-07T11:00:09Z</time>
      </trkpt>
      <trkpt lat="44.51298" lon="6.58175">
        <ele>1484</ele>
        <time>2021-04-07T11:00:10Z</time>
      </trkpt>
      <trkpt lat="44.51301" lon="6.58173">
        <ele>1484</ele>
        <time>2021-04-07T11:00:11Z</time>
      </trkpt>
      <trkpt lat="44.51302" lon="6.58172">
        <ele>1484</ele>
        <time>2021-04-07T11:00:12Z</time>
      </trkpt>
      <trkpt lat="44.51303" lon="6.58171">
        <ele>1484</ele>
        <time>2021-04-07T11:00:13Z</time>
      </trkpt>
      <trkpt lat="44.51304" lon="6.5817">
        <ele>1484</ele>
        <time>2021-04-07T11:00:14Z</time>
      </trkpt>
      <trkpt lat="44.51304" lon="6.5817">
        <ele>1484</ele>
        <time>2021-04-07T11:00:15Z</time>
      </trkpt>
      <trkpt lat="44.51304" lon="6.5817">
        <ele>1485</ele>
        <time>2021-04-07T11:00:16Z</time>
      </trkpt>
      <trkpt lat="44.51304" lon="6.5817">
        <ele>1485</ele>
        <time>2021-04-07T11:00:17Z</time>
      </trkpt>
      <trkpt lat="44.51304" lon="6.5817">
        <ele>1485</ele>
        <time>2021-04-07T11:00:18Z</time>
      </trkpt>
      <trkpt lat="44.51304" lon="6.5817">
        <ele>1485</ele>
        <time>2021-04-07T11:00:19Z</time>
      </trkpt>
      <trkpt lat="44.51306" lon="6.58164">
        <ele>1483</ele>
        <time>2021-04-07T11:00:20Z</time>
      </trkpt>
      <trkpt lat="44.51307" lon="6.58163">
        <ele>1483</ele>
        <time>2021-04-07T11:00:21Z</time>
      </trkpt>
      <trkpt lat="44.51307" lon="6.58162">
        <ele>1482</ele>
        <time>2021-04-07T11:00:22Z</time>
      </trkpt>
      <trkpt lat="44.51307" lon="6.58161">
        <ele>1482</ele>
        <time>2021-04-07T11:00:23Z</time>
      </trkpt>
      <trkpt lat="44.51307" lon="6.58161">
        <ele>1482</ele>
        <time>2021-04-07T11:00:24Z</time>
      </trkpt>
      <trkpt lat="44.51307" lon="6.58161">
        <ele>1482</ele>
        <time>2021-04-07T11:00:25Z</time>
      </trkpt>
      <trkpt lat="44.51307" lon="6.58161">
        <ele>1481</ele>
        <time>2021-04-07T11:00:26Z</time>
      </trkpt>
      <trkpt lat="44.51307" lon="6.58161">
        <ele>1481</ele>
        <time>2021-04-07T11:00:27Z</time>
      </trkpt>
      <trkpt lat="44.51307" lon="6.58161">
        <ele>1481</ele>
        <time>2021-04-07T11:00:28Z</time>
      </trkpt>
      <trkpt lat="44.51307" lon="6.58161">
        <ele>1481</ele>
        <time>2021-04-07T11:00:29Z</time>
      </trkpt>
      <trkpt lat="44.51307" lon="6.58161">
        <ele>1481</ele>
        <time>2021-04-07T11:00:30Z</time>
      </trkpt>
      <trkpt lat="44.51307" lon="6.58161">
        <ele>1481</ele>
        <time>2021-04-07T11:00:31Z</time>
      </trkpt>
      <trkpt lat="44.51307" lon="6.58161">
        <ele>1481</ele>
        <time>2021-04-07T11:00:32Z</time>
      </trkpt>
      <trkpt lat="44.5131" lon="6.58149">
        <ele>1479</ele>
        <time>2021-04-07T11:00:33Z</time>
      </trkpt>
      <trkpt lat="44.51311" lon="6.58147">
        <ele>1478</ele>
        <time>2021-04-07T11:00:34Z</time>
      </trkpt>
      <trkpt lat="44.51312" lon="6.58144">
        <ele>1477</ele>
        <time>2021-04-07T11:00:35Z</time>
      </trkpt>
      <trkpt lat="44.51312" lon="6.58143">
        <ele>1477</ele>
        <time>2021-04-07T11:00:36Z</time>
      </trkpt>
      <trkpt lat="44.51312" lon="6.58141">
        <ele>1477</ele>
        <time>2021-04-07T11:00:37Z</time>
      </trkpt>
      <trkpt lat="44.51312" lon="6.5814">
        <ele>1476</ele>
        <time>2021-04-07T11:00:38Z</time>
      </trkpt>
      <trkpt lat="44.51313" lon="6.58138">
        <ele>1476</ele>
        <time>2021-04-07T11:00:39Z</time>
      </trkpt>
      <trkpt lat="44.51312" lon="6.58135">
        <ele>1476</ele>
        <time>2021-04-07T11:00:40Z</time>
      </trkpt>
      <trkpt lat="44.51314" lon="6.58133">
        <ele>1476</ele>
        <time>2021-04-07T11:00:41Z</time>
      </trkpt>
      <trkpt lat="44.51315" lon="6.58131">
        <ele>1476</ele>
        <time>2021-04-07T11:00:42Z</time>
      </trkpt>
      <trkpt lat="44.51316" lon="6.58129">
        <ele>1476</ele>
        <time>2021-04-07T11:00:43Z</time>
      </trkpt>
      <trkpt lat="44.51316" lon="6.58128">
        <ele>1476</ele>
        <time>2021-04-07T11:00:44Z</time>
      </trkpt>
      <trkpt lat="44.51315" lon="6.58126">
        <ele>1476</ele>
        <time>2021-04-07T11:00:45Z</time>
      </trkpt>
      <trkpt lat="44.51315" lon="6.58125">
        <ele>1476</ele>
        <time>2021-04-07T11:00:46Z</time>
      </trkpt>
      <trkpt lat="44.51316" lon="6.58124">
        <ele>1476</ele>
        <time>2021-04-07T11:00:47Z</time>
      </trkpt>
      <trkpt lat="44.51316" lon="6.58124">
        <ele>1476</ele>
        <time>2021-04-07T11:00:48Z</time>
      </trkpt>
      <trkpt lat="44.51316" lon="6.58124">
        <ele>1476</ele>
        <time>2021-04-07T11:00:49Z</time>
      </trkpt>
      <trkpt lat="44.51316" lon="6.5812">
        <ele>1476</ele>
        <time>2021-04-07T11:00:50Z</time>
      </trkpt>
      <trkpt lat="44.51315" lon="6.58117">
        <ele>1476</ele>
        <time>2021-04-07T11:00:51Z</time>
      </trkpt>
      <trkpt lat="44.51315" lon="6.58116">
        <ele>1476</ele>
        <time>2021-04-07T11:00:52Z</time>
      </trkpt>
      <trkpt lat="44.51315" lon="6.58115">
        <ele>1476</ele>
        <time>2021-04-07T11:00:53Z</time>
      </trkpt>
      <trkpt lat="44.51315" lon="6.58113">
        <ele>1476</ele>
        <time>2021-04-07T11:00:54Z</time>
      </trkpt>
      <trkpt lat="44.51314" lon="6.58111">
        <ele>1476</ele>
        <time>2021-04-07T11:00:55Z</time>
      </trkpt>
      <trkpt lat="44.51314" lon="6.58109">
        <ele>1476</ele>
        <time>2021-04-07T11:00:56Z</time>
      </trkpt>
      <trkpt lat="44.51314" lon="6.58108">
        <ele>1475</ele>
        <time>2021-04-07T11:00:57Z</time>
      </trkpt>
      <trkpt lat="44.51315" lon="6.58106">
        <ele>1475</ele>
        <time>2021-04-07T11:00:58Z</time>
      </trkpt>
      <trkpt lat="44.51316" lon="6.58104">
        <ele>1475</ele>
        <time>2021-04-07T11:00:59Z</time>
      </trkpt>
      <trkpt lat="44.51316" lon="6.58103">
        <ele>1475</ele>
        <time>2021-04-07T11:01:00Z</time>
      </trkpt>
      <trkpt lat="44.51316" lon="6.58101">
        <ele>1475</ele>
        <time>2021-04-07T11:01:01Z</time>
      </trkpt>
      <trkpt lat="44.51316" lon="6.581">
        <ele>1475</ele>
        <time>2021-04-07T11:01:02Z</time>
      </trkpt>
      <trkpt lat="44.51316" lon="6.58099">
        <ele>1475</ele>
        <time>2021-04-07T11:01:03Z</time>
      </trkpt>
      <trkpt lat="44.51317" lon="6.58098">
        <ele>1475</ele>
        <time>2021-04-07T11:01:04Z</time>
      </trkpt>
      <trkpt lat="44.51317" lon="6.58096">
        <ele>1475</ele>
        <time>2021-04-07T11:01:05Z</time>
      </trkpt>
      <trkpt lat="44.51317" lon="6.58094">
        <ele>1475</ele>
        <time>2021-04-07T11:01:06Z</time>
      </trkpt>
      <trkpt lat="44.51317" lon="6.58092">
        <ele>1475</ele>
        <time>2021-04-07T11:01:07Z</time>
      </trkpt>
      <trkpt lat="44.51317" lon="6.58091">
        <ele>1475</ele>
        <time>2021-04-07T11:01:08Z</time>
      </trkpt>
      <trkpt lat="44.51316" lon="6.58089">
        <ele>1475</ele>
        <time>2021-04-07T11:01:09Z</time>
      </trkpt>
      <trkpt lat="44.51317" lon="6.58087">
        <ele>1475</ele>
        <time>2021-04-07T11:01:10Z</time>
      </trkpt>
      <trkpt lat="44.51318" lon="6.58084">
        <ele>1475</ele>
        <time>2021-04-07T11:01:11Z</time>
      </trkpt>
      <trkpt lat="44.51318" lon="6.58082">
        <ele>1474</ele>
        <time>2021-04-07T11:01:12Z</time>
      </trkpt>
      <trkpt lat="44.51318" lon="6.5808">
        <ele>1475</ele>
        <time>2021-04-07T11:01:13Z</time>
      </trkpt>
      <trkpt lat="44.51318" lon="6.58079">
        <ele>1475</ele>
        <time>2021-04-07T11:01:14Z</time>
      </trkpt>
      <trkpt lat="44.51318" lon="6.58078">
        <ele>1475</ele>
        <time>2021-04-07T11:01:15Z</time>
      </trkpt>
      <trkpt lat="44.51318" lon="6.58076">
        <ele>1475</ele>
        <time>2021-04-07T11:01:16Z</time>
      </trkpt>
      <trkpt lat="44.51318" lon="6.58076">
        <ele>1475</ele>
        <time>2021-04-07T11:01:17Z</time>
      </trkpt>
      <trkpt lat="44.51318" lon="6.58076">
        <ele>1475</ele>
        <time>2021-04-07T11:01:18Z</time>
      </trkpt>
      <trkpt lat="44.51318" lon="6.58076">
        <ele>1475</ele>
        <time>2021-04-07T11:01:19Z</time>
      </trkpt>
      <trkpt lat="44.51318" lon="6.58076">
        <ele>1475</ele>
        <time>2021-04-07T11:01:20Z</time>
      </trkpt>
      <trkpt lat="44.51318" lon="6.58076">
        <ele>1475</ele>
        <time>2021-04-07T11:01:21Z</time>
      </trkpt>
      <trkpt lat="44.51318" lon="6.58076">
        <ele>1475</ele>
        <time>2021-04-07T11:01:22Z</time>
      </trkpt>
      <trkpt lat="44.51318" lon="6.58076">
        <ele>1475</ele>
        <time>2021-04-07T11:01:23Z</time>
      </trkpt>
      <trkpt lat="44.51318" lon="6.58076">
        <ele>1475</ele>
        <time>2021-04-07T11:01:24Z</time>
      </trkpt>
      <trkpt lat="44.5132" lon="6.58066">
        <ele>1473</ele>
        <time>2021-04-07T11:01:25Z</time>
      </trkpt>
      <trkpt lat="44.5132" lon="6.58064">
        <ele>1473</ele>
        <time>2021-04-07T11:01:26Z</time>
      </trkpt>
      <trkpt lat="44.5132" lon="6.58063">
        <ele>1472</ele>
        <time>2021-04-07T11:01:27Z</time>
      </trkpt>
      <trkpt lat="44.5132" lon="6.58062">
        <ele>1472</ele>
        <time>2021-04-07T11:01:28Z</time>
      </trkpt>
      <trkpt lat="44.5132" lon="6.58062">
        <ele>1472</ele>
        <time>2021-04-07T11:01:29Z</time>
      </trkpt>
      <trkpt lat="44.5132" lon="6.58062">
        <ele>1472</ele>
        <time>2021-04-07T11:01:30Z</time>
      </trkpt>
      <trkpt lat="44.5132" lon="6.58058">
        <ele>1471</ele>
        <time>2021-04-07T11:01:31Z</time>
      </trkpt>
      <trkpt lat="44.51321" lon="6.58056">
        <ele>1470</ele>
        <time>2021-04-07T11:01:32Z</time>
      </trkpt>
      <trkpt lat="44.51322" lon="6.58054">
        <ele>1470</ele>
        <time>2021-04-07T11:01:33Z</time>
      </trkpt>
      <trkpt lat="44.51322" lon="6.58052">
        <ele>1470</ele>
        <time>2021-04-07T11:01:34Z</time>
      </trkpt>
      <trkpt lat="44.51322" lon="6.58051">
        <ele>1470</ele>
        <time>2021-04-07T11:01:35Z</time>
      </trkpt>
      <trkpt lat="44.51323" lon="6.5805">
        <ele>1470</ele>
        <time>2021-04-07T11:01:36Z</time>
      </trkpt>
      <trkpt lat="44.51323" lon="6.5805">
        <ele>1470</ele>
        <time>2021-04-07T11:01:37Z</time>
      </trkpt>
      <trkpt lat="44.51323" lon="6.5805">
        <ele>1470</ele>
        <time>2021-04-07T11:01:38Z</time>
      </trkpt>
      <trkpt lat="44.51323" lon="6.58044">
        <ele>1469</ele>
        <time>2021-04-07T11:01:39Z</time>
      </trkpt>
      <trkpt lat="44.51323" lon="6.58043">
        <ele>1469</ele>
        <time>2021-04-07T11:01:40Z</time>
      </trkpt>
      <trkpt lat="44.51323" lon="6.58041">
        <ele>1469</ele>
        <time>2021-04-07T11:01:41Z</time>
      </trkpt>
      <trkpt lat="44.51323" lon="6.58039">
        <ele>1469</ele>
        <time>2021-04-07T11:01:42Z</time>
      </trkpt>
      <trkpt lat="44.51322" lon="6.58037">
        <ele>1469</ele>
        <time>2021-04-07T11:01:43Z</time>
      </trkpt>
      <trkpt lat="44.51322" lon="6.58035">
        <ele>1468</ele>
        <time>2021-04-07T11:01:44Z</time>
      </trkpt>
      <trkpt lat="44.51322" lon="6.58034">
        <ele>1468</ele>
        <time>2021-04-07T11:01:45Z</time>
      </trkpt>
      <trkpt lat="44.51322" lon="6.58033">
        <ele>1468</ele>
        <time>2021-04-07T11:01:46Z</time>
      </trkpt>
      <trkpt lat="44.51322" lon="6.58033">
        <ele>1468</ele>
        <time>2021-04-07T11:01:47Z</time>
      </trkpt>
      <trkpt lat="44.51322" lon="6.58033">
        <ele>1468</ele>
        <time>2021-04-07T11:01:48Z</time>
      </trkpt>
      <trkpt lat="44.51322" lon="6.58028">
        <ele>1468</ele>
        <time>2021-04-07T11:01:49Z</time>
      </trkpt>
      <trkpt lat="44.51322" lon="6.58025">
        <ele>1467</ele>
        <time>2021-04-07T11:01:50Z</time>
      </trkpt>
      <trkpt lat="44.51323" lon="6.58024">
        <ele>1467</ele>
        <time>2021-04-07T11:01:51Z</time>
      </trkpt>
      <trkpt lat="44.51324" lon="6.58022">
        <ele>1467</ele>
        <time>2021-04-07T11:01:52Z</time>
      </trkpt>
      <trkpt lat="44.51324" lon="6.5802">
        <ele>1467</ele>
        <time>2021-04-07T11:01:53Z</time>
      </trkpt>
      <trkpt lat="44.51324" lon="6.58018">
        <ele>1467</ele>
        <time>2021-04-07T11:01:54Z</time>
      </trkpt>
      <trkpt lat="44.51321" lon="6.58016">
        <ele>1467</ele>
        <time>2021-04-07T11:01:55Z</time>
      </trkpt>
      <trkpt lat="44.51321" lon="6.58014">
        <ele>1467</ele>
        <time>2021-04-07T11:01:56Z</time>
      </trkpt>
      <trkpt lat="44.51321" lon="6.58012">
        <ele>1467</ele>
        <time>2021-04-07T11:01:57Z</time>
      </trkpt>
      <trkpt lat="44.51321" lon="6.5801">
        <ele>1467</ele>
        <time>2021-04-07T11:01:58Z</time>
      </trkpt>
      <trkpt lat="44.51321" lon="6.58007">
        <ele>1467</ele>
        <time>2021-04-07T11:01:59Z</time>
      </trkpt>
      <trkpt lat="44.51321" lon="6.58006">
        <ele>1467</ele>
        <time>2021-04-07T11:02:00Z</time>
      </trkpt>
      <trkpt lat="44.51321" lon="6.58005">
        <ele>1467</ele>
        <time>2021-04-07T11:02:01Z</time>
      </trkpt>
      <trkpt lat="44.51321" lon="6.58005">
        <ele>1467</ele>
        <time>2021-04-07T11:02:02Z</time>
      </trkpt>
      <trkpt lat="44.51321" lon="6.58005">
        <ele>1467</ele>
        <time>2021-04-07T11:02:03Z</time>
      </trkpt>
      <trkpt lat="44.51321" lon="6.58005">
        <ele>1467</ele>
        <time>2021-04-07T11:02:04Z</time>
      </trkpt>
      <trkpt lat="44.51321" lon="6.57999">
        <ele>1466</ele>
        <time>2021-04-07T11:02:05Z</time>
      </trkpt>
      <trkpt lat="44.51321" lon="6.57997">
        <ele>1466</ele>
        <time>2021-04-07T11:02:06Z</time>
      </trkpt>
      <trkpt lat="44.5132" lon="6.57995">
        <ele>1466</ele>
        <time>2021-04-07T11:02:07Z</time>
      </trkpt>
      <trkpt lat="44.51321" lon="6.57994">
        <ele>1465</ele>
        <time>2021-04-07T11:02:08Z</time>
      </trkpt>
      <trkpt lat="44.51321" lon="6.57993">
        <ele>1465</ele>
        <time>2021-04-07T11:02:09Z</time>
      </trkpt>
      <trkpt lat="44.51321" lon="6.5799">
        <ele>1464</ele>
        <time>2021-04-07T11:02:10Z</time>
      </trkpt>
      <trkpt lat="44.51322" lon="6.57989">
        <ele>1464</ele>
        <time>2021-04-07T11:02:11Z</time>
      </trkpt>
      <trkpt lat="44.51322" lon="6.57988">
        <ele>1463</ele>
        <time>2021-04-07T11:02:12Z</time>
      </trkpt>
      <trkpt lat="44.51323" lon="6.57986">
        <ele>1463</ele>
        <time>2021-04-07T11:02:13Z</time>
      </trkpt>
      <trkpt lat="44.51322" lon="6.57985">
        <ele>1463</ele>
        <time>2021-04-07T11:02:14Z</time>
      </trkpt>
      <trkpt lat="44.51323" lon="6.57983">
        <ele>1463</ele>
        <time>2021-04-07T11:02:15Z</time>
      </trkpt>
      <trkpt lat="44.51323" lon="6.57982">
        <ele>1462</ele>
        <time>2021-04-07T11:02:16Z</time>
      </trkpt>
      <trkpt lat="44.51324" lon="6.5798">
        <ele>1462</ele>
        <time>2021-04-07T11:02:17Z</time>
      </trkpt>
      <trkpt lat="44.51324" lon="6.57979">
        <ele>1462</ele>
        <time>2021-04-07T11:02:18Z</time>
      </trkpt>
      <trkpt lat="44.51324" lon="6.57979">
        <ele>1462</ele>
        <time>2021-04-07T11:02:19Z</time>
      </trkpt>
      <trkpt lat="44.51324" lon="6.57976">
        <ele>1462</ele>
        <time>2021-04-07T11:02:20Z</time>
      </trkpt>
      <trkpt lat="44.51324" lon="6.57974">
        <ele>1461</ele>
        <time>2021-04-07T11:02:21Z</time>
      </trkpt>
      <trkpt lat="44.51324" lon="6.57973">
        <ele>1460</ele>
        <time>2021-04-07T11:02:22Z</time>
      </trkpt>
      <trkpt lat="44.51324" lon="6.57971">
        <ele>1460</ele>
        <time>2021-04-07T11:02:23Z</time>
      </trkpt>
      <trkpt lat="44.51324" lon="6.57969">
        <ele>1460</ele>
        <time>2021-04-07T11:02:24Z</time>
      </trkpt>
      <trkpt lat="44.51325" lon="6.57968">
        <ele>1459</ele>
        <time>2021-04-07T11:02:25Z</time>
      </trkpt>
      <trkpt lat="44.51324" lon="6.57966">
        <ele>1459</ele>
        <time>2021-04-07T11:02:26Z</time>
      </trkpt>
      <trkpt lat="44.51324" lon="6.57964">
        <ele>1459</ele>
        <time>2021-04-07T11:02:27Z</time>
      </trkpt>
      <trkpt lat="44.51323" lon="6.57963">
        <ele>1459</ele>
        <time>2021-04-07T11:02:28Z</time>
      </trkpt>
      <trkpt lat="44.51323" lon="6.57962">
        <ele>1458</ele>
        <time>2021-04-07T11:02:29Z</time>
      </trkpt>
      <trkpt lat="44.51323" lon="6.57961">
        <ele>1458</ele>
        <time>2021-04-07T11:02:30Z</time>
      </trkpt>
      <trkpt lat="44.51323" lon="6.57959">
        <ele>1458</ele>
        <time>2021-04-07T11:02:31Z</time>
      </trkpt>
      <trkpt lat="44.51323" lon="6.57958">
        <ele>1458</ele>
        <time>2021-04-07T11:02:32Z</time>
      </trkpt>
      <trkpt lat="44.51323" lon="6.57958">
        <ele>1458</ele>
        <time>2021-04-07T11:02:33Z</time>
      </trkpt>
      <trkpt lat="44.51322" lon="6.57954">
        <ele>1458</ele>
        <time>2021-04-07T11:02:34Z</time>
      </trkpt>
      <trkpt lat="44.51322" lon="6.57953">
        <ele>1458</ele>
        <time>2021-04-07T11:02:35Z</time>
      </trkpt>
      <trkpt lat="44.51322" lon="6.57951">
        <ele>1457</ele>
        <time>2021-04-07T11:02:36Z</time>
      </trkpt>
      <trkpt lat="44.51321" lon="6.57949">
        <ele>1457</ele>
        <time>2021-04-07T11:02:37Z</time>
      </trkpt>
      <trkpt lat="44.51321" lon="6.57947">
        <ele>1458</ele>
        <time>2021-04-07T11:02:38Z</time>
      </trkpt>
      <trkpt lat="44.5132" lon="6.57945">
        <ele>1458</ele>
        <time>2021-04-07T11:02:39Z</time>
      </trkpt>
      <trkpt lat="44.5132" lon="6.57943">
        <ele>1458</ele>
        <time>2021-04-07T11:02:40Z</time>
      </trkpt>
      <trkpt lat="44.5132" lon="6.57942">
        <ele>1459</ele>
        <time>2021-04-07T11:02:41Z</time>
      </trkpt>
      <trkpt lat="44.51321" lon="6.57941">
        <ele>1459</ele>
        <time>2021-04-07T11:02:42Z</time>
      </trkpt>
      <trkpt lat="44.51321" lon="6.57939">
        <ele>1459</ele>
        <time>2021-04-07T11:02:43Z</time>
      </trkpt>
      <trkpt lat="44.51321" lon="6.57937">
        <ele>1460</ele>
        <time>2021-04-07T11:02:44Z</time>
      </trkpt>
      <trkpt lat="44.51321" lon="6.57936">
        <ele>1461</ele>
        <time>2021-04-07T11:02:45Z</time>
      </trkpt>
      <trkpt lat="44.51321" lon="6.57933">
        <ele>1461</ele>
        <time>2021-04-07T11:02:46Z</time>
      </trkpt>
      <trkpt lat="44.51321" lon="6.57932">
        <ele>1462</ele>
        <time>2021-04-07T11:02:47Z</time>
      </trkpt>
      <trkpt lat="44.51321" lon="6.5793">
        <ele>1462</ele>
        <time>2021-04-07T11:02:48Z</time>
      </trkpt>
      <trkpt lat="44.51322" lon="6.57929">
        <ele>1463</ele>
        <time>2021-04-07T11:02:49Z</time>
      </trkpt>
      <trkpt lat="44.51322" lon="6.57927">
        <ele>1463</ele>
        <time>2021-04-07T11:02:50Z</time>
      </trkpt>
      <trkpt lat="44.51321" lon="6.57925">
        <ele>1463</ele>
        <time>2021-04-07T11:02:51Z</time>
      </trkpt>
      <trkpt lat="44.51321" lon="6.57924">
        <ele>1464</ele>
        <time>2021-04-07T11:02:52Z</time>
      </trkpt>
      <trkpt lat="44.51321" lon="6.57923">
        <ele>1464</ele>
        <time>2021-04-07T11:02:53Z</time>
      </trkpt>
      <trkpt lat="44.51321" lon="6.57922">
        <ele>1464</ele>
        <time>2021-04-07T11:02:54Z</time>
      </trkpt>
      <trkpt lat="44.51322" lon="6.5792">
        <ele>1464</ele>
        <time>2021-04-07T11:02:55Z</time>
      </trkpt>
      <trkpt lat="44.51322" lon="6.57918">
        <ele>1463</ele>
        <time>2021-04-07T11:02:56Z</time>
      </trkpt>
      <trkpt lat="44.51322" lon="6.57917">
        <ele>1463</ele>
        <time>2021-04-07T11:02:57Z</time>
      </trkpt>
      <trkpt lat="44.51322" lon="6.57916">
        <ele>1463</ele>
        <time>2021-04-07T11:02:58Z</time>
      </trkpt>
      <trkpt lat="44.51322" lon="6.57914">
        <ele>1463</ele>
        <time>2021-04-07T11:02:59Z</time>
      </trkpt>
      <trkpt lat="44.51322" lon="6.57912">
        <ele>1462</ele>
        <time>2021-04-07T11:03:00Z</time>
      </trkpt>
      <trkpt lat="44.51322" lon="6.57911">
        <ele>1462</ele>
        <time>2021-04-07T11:03:01Z</time>
      </trkpt>
      <trkpt lat="44.51321" lon="6.5791">
        <ele>1462</ele>
        <time>2021-04-07T11:03:02Z</time>
      </trkpt>
      <trkpt lat="44.51322" lon="6.57908">
        <ele>1462</ele>
        <time>2021-04-07T11:03:03Z</time>
      </trkpt>
      <trkpt lat="44.51322" lon="6.57907">
        <ele>1461</ele>
        <time>2021-04-07T11:03:04Z</time>
      </trkpt>
      <trkpt lat="44.51323" lon="6.57905">
        <ele>1461</ele>
        <time>2021-04-07T11:03:05Z</time>
      </trkpt>
      <trkpt lat="44.51324" lon="6.57904">
        <ele>1461</ele>
        <time>2021-04-07T11:03:06Z</time>
      </trkpt>
      <trkpt lat="44.51324" lon="6.57904">
        <ele>1461</ele>
        <time>2021-04-07T11:03:07Z</time>
      </trkpt>
      <trkpt lat="44.51324" lon="6.57904">
        <ele>1461</ele>
        <time>2021-04-07T11:03:08Z</time>
      </trkpt>
      <trkpt lat="44.51324" lon="6.579">
        <ele>1460</ele>
        <time>2021-04-07T11:03:09Z</time>
      </trkpt>
      <trkpt lat="44.51324" lon="6.57898">
        <ele>1460</ele>
        <time>2021-04-07T11:03:10Z</time>
      </trkpt>
      <trkpt lat="44.51323" lon="6.57897">
        <ele>1459</ele>
        <time>2021-04-07T11:03:11Z</time>
      </trkpt>
      <trkpt lat="44.51323" lon="6.57895">
        <ele>1459</ele>
        <time>2021-04-07T11:03:12Z</time>
      </trkpt>
      <trkpt lat="44.51323" lon="6.57893">
        <ele>1459</ele>
        <time>2021-04-07T11:03:13Z</time>
      </trkpt>
      <trkpt lat="44.51322" lon="6.57892">
        <ele>1459</ele>
        <time>2021-04-07T11:03:14Z</time>
      </trkpt>
      <trkpt lat="44.51322" lon="6.57891">
        <ele>1459</ele>
        <time>2021-04-07T11:03:15Z</time>
      </trkpt>
      <trkpt lat="44.51322" lon="6.5789">
        <ele>1459</ele>
        <time>2021-04-07T11:03:16Z</time>
      </trkpt>
      <trkpt lat="44.51322" lon="6.5789">
        <ele>1459</ele>
        <time>2021-04-07T11:03:17Z</time>
      </trkpt>
      <trkpt lat="44.51321" lon="6.57886">
        <ele>1458</ele>
        <time>2021-04-07T11:03:18Z</time>
      </trkpt>
      <trkpt lat="44.5132" lon="6.57885">
        <ele>1457</ele>
        <time>2021-04-07T11:03:19Z</time>
      </trkpt>
      <trkpt lat="44.5132" lon="6.57884">
        <ele>1457</ele>
        <time>2021-04-07T11:03:20Z</time>
      </trkpt>
      <trkpt lat="44.5132" lon="6.57882">
        <ele>1457</ele>
        <time>2021-04-07T11:03:21Z</time>
      </trkpt>
      <trkpt lat="44.5132" lon="6.57882">
        <ele>1457</ele>
        <time>2021-04-07T11:03:22Z</time>
      </trkpt>
      <trkpt lat="44.51319" lon="6.5788">
        <ele>1456</ele>
        <time>2021-04-07T11:03:23Z</time>
      </trkpt>
      <trkpt lat="44.5132" lon="6.57878">
        <ele>1455</ele>
        <time>2021-04-07T11:03:24Z</time>
      </trkpt>
      <trkpt lat="44.5132" lon="6.57875">
        <ele>1455</ele>
        <time>2021-04-07T11:03:25Z</time>
      </trkpt>
      <trkpt lat="44.5132" lon="6.57874">
        <ele>1454</ele>
        <time>2021-04-07T11:03:26Z</time>
      </trkpt>
      <trkpt lat="44.5132" lon="6.57873">
        <ele>1454</ele>
        <time>2021-04-07T11:03:27Z</time>
      </trkpt>
      <trkpt lat="44.51319" lon="6.57871">
        <ele>1454</ele>
        <time>2021-04-07T11:03:28Z</time>
      </trkpt>
      <trkpt lat="44.51319" lon="6.57871">
        <ele>1453</ele>
        <time>2021-04-07T11:03:29Z</time>
      </trkpt>
      <trkpt lat="44.51319" lon="6.57868">
        <ele>1453</ele>
        <time>2021-04-07T11:03:30Z</time>
      </trkpt>
      <trkpt lat="44.51319" lon="6.57866">
        <ele>1452</ele>
        <time>2021-04-07T11:03:31Z</time>
      </trkpt>
      <trkpt lat="44.51319" lon="6.57865">
        <ele>1452</ele>
        <time>2021-04-07T11:03:32Z</time>
      </trkpt>
      <trkpt lat="44.51319" lon="6.57864">
        <ele>1452</ele>
        <time>2021-04-07T11:03:33Z</time>
      </trkpt>
      <trkpt lat="44.51319" lon="6.57862">
        <ele>1451</ele>
        <time>2021-04-07T11:03:34Z</time>
      </trkpt>
      <trkpt lat="44.51319" lon="6.57861">
        <ele>1451</ele>
        <time>2021-04-07T11:03:35Z</time>
      </trkpt>
      <trkpt lat="44.51319" lon="6.57859">
        <ele>1451</ele>
        <time>2021-04-07T11:03:36Z</time>
      </trkpt>
      <trkpt lat="44.51319" lon="6.57858">
        <ele>1450</ele>
        <time>2021-04-07T11:03:37Z</time>
      </trkpt>
      <trkpt lat="44.51319" lon="6.57856">
        <ele>1450</ele>
        <time>2021-04-07T11:03:38Z</time>
      </trkpt>
      <trkpt lat="44.51319" lon="6.57855">
        <ele>1450</ele>
        <time>2021-04-07T11:03:39Z</time>
      </trkpt>
      <trkpt lat="44.51319" lon="6.57854">
        <ele>1449</ele>
        <time>2021-04-07T11:03:40Z</time>
      </trkpt>
      <trkpt lat="44.51319" lon="6.57852">
        <ele>1449</ele>
        <time>2021-04-07T11:03:41Z</time>
      </trkpt>
      <trkpt lat="44.51319" lon="6.57851">
        <ele>1449</ele>
        <time>2021-04-07T11:03:42Z</time>
      </trkpt>
      <trkpt lat="44.51319" lon="6.57851">
        <ele>1449</ele>
        <time>2021-04-07T11:03:43Z</time>
      </trkpt>
      <trkpt lat="44.51319" lon="6.57851">
        <ele>1449</ele>
        <time>2021-04-07T11:03:44Z</time>
      </trkpt>
      <trkpt lat="44.51319" lon="6.57847">
        <ele>1448</ele>
        <time>2021-04-07T11:03:45Z</time>
      </trkpt>
      <trkpt lat="44.51319" lon="6.57846">
        <ele>1448</ele>
        <time>2021-04-07T11:03:46Z</time>
      </trkpt>
      <trkpt lat="44.51319" lon="6.57844">
        <ele>1448</ele>
        <time>2021-04-07T11:03:47Z</time>
      </trkpt>
      <trkpt lat="44.51319" lon="6.57842">
        <ele>1447</ele>
        <time>2021-04-07T11:03:48Z</time>
      </trkpt>
      <trkpt lat="44.51319" lon="6.57841">
        <ele>1447</ele>
        <time>2021-04-07T11:03:49Z</time>
      </trkpt>
      <trkpt lat="44.51319" lon="6.5784">
        <ele>1447</ele>
        <time>2021-04-07T11:03:50Z</time>
      </trkpt>
      <trkpt lat="44.51319" lon="6.57838">
        <ele>1447</ele>
        <time>2021-04-07T11:03:51Z</time>
      </trkpt>
      <trkpt lat="44.51319" lon="6.57837">
        <ele>1447</ele>
        <time>2021-04-07T11:03:52Z</time>
      </trkpt>
      <trkpt lat="44.51319" lon="6.57835">
        <ele>1446</ele>
        <time>2021-04-07T11:03:53Z</time>
      </trkpt>
      <trkpt lat="44.5132" lon="6.57834">
        <ele>1446</ele>
        <time>2021-04-07T11:03:54Z</time>
      </trkpt>
      <trkpt lat="44.5132" lon="6.57832">
        <ele>1446</ele>
        <time>2021-04-07T11:03:55Z</time>
      </trkpt>
      <trkpt lat="44.5132" lon="6.57831">
        <ele>1446</ele>
        <time>2021-04-07T11:03:56Z</time>
      </trkpt>
      <trkpt lat="44.5132" lon="6.57829">
        <ele>1446</ele>
        <time>2021-04-07T11:03:57Z</time>
      </trkpt>
      <trkpt lat="44.51319" lon="6.57828">
        <ele>1446</ele>
        <time>2021-04-07T11:03:58Z</time>
      </trkpt>
      <trkpt lat="44.51319" lon="6.57827">
        <ele>1446</ele>
        <time>2021-04-07T11:03:59Z</time>
      </trkpt>
      <trkpt lat="44.51319" lon="6.57826">
        <ele>1446</ele>
        <time>2021-04-07T11:04:00Z</time>
      </trkpt>
      <trkpt lat="44.51319" lon="6.57826">
        <ele>1446</ele>
        <time>2021-04-07T11:04:01Z</time>
      </trkpt>
      <trkpt lat="44.51319" lon="6.57826">
        <ele>1446</ele>
        <time>2021-04-07T11:04:02Z</time>
      </trkpt>
      <trkpt lat="44.51319" lon="6.57826">
        <ele>1446</ele>
        <time>2021-04-07T11:04:03Z</time>
      </trkpt>
      <trkpt lat="44.51319" lon="6.57826">
        <ele>1446</ele>
        <time>2021-04-07T11:04:04Z</time>
      </trkpt>
      <trkpt lat="44.51318" lon="6.57821">
        <ele>1446</ele>
        <time>2021-04-07T11:04:05Z</time>
      </trkpt>
      <trkpt lat="44.51318" lon="6.57819">
        <ele>1446</ele>
        <time>2021-04-07T11:04:06Z</time>
      </trkpt>
      <trkpt lat="44.51317" lon="6.57818">
        <ele>1446</ele>
        <time>2021-04-07T11:04:07Z</time>
      </trkpt>
      <trkpt lat="44.51317" lon="6.57817">
        <ele>1446</ele>
        <time>2021-04-07T11:04:08Z</time>
      </trkpt>
      <trkpt lat="44.51317" lon="6.57815">
        <ele>1446</ele>
        <time>2021-04-07T11:04:09Z</time>
      </trkpt>
      <trkpt lat="44.51318" lon="6.57814">
        <ele>1447</ele>
        <time>2021-04-07T11:04:10Z</time>
      </trkpt>
      <trkpt lat="44.51318" lon="6.57812">
        <ele>1447</ele>
        <time>2021-04-07T11:04:11Z</time>
      </trkpt>
      <trkpt lat="44.51318" lon="6.57811">
        <ele>1447</ele>
        <time>2021-04-07T11:04:12Z</time>
      </trkpt>
      <trkpt lat="44.51318" lon="6.5781">
        <ele>1447</ele>
        <time>2021-04-07T11:04:13Z</time>
      </trkpt>
      <trkpt lat="44.51319" lon="6.57808">
        <ele>1447</ele>
        <time>2021-04-07T11:04:14Z</time>
      </trkpt>
      <trkpt lat="44.51322" lon="6.57807">
        <ele>1447</ele>
        <time>2021-04-07T11:04:15Z</time>
      </trkpt>
      <trkpt lat="44.51322" lon="6.57806">
        <ele>1447</ele>
        <time>2021-04-07T11:04:16Z</time>
      </trkpt>
      <trkpt lat="44.51323" lon="6.57805">
        <ele>1447</ele>
        <time>2021-04-07T11:04:17Z</time>
      </trkpt>
      <trkpt lat="44.51323" lon="6.57803">
        <ele>1447</ele>
        <time>2021-04-07T11:04:18Z</time>
      </trkpt>
      <trkpt lat="44.51323" lon="6.57801">
        <ele>1446</ele>
        <time>2021-04-07T11:04:19Z</time>
      </trkpt>
      <trkpt lat="44.51323" lon="6.578">
        <ele>1446</ele>
        <time>2021-04-07T11:04:20Z</time>
      </trkpt>
      <trkpt lat="44.51323" lon="6.57799">
        <ele>1446</ele>
        <time>2021-04-07T11:04:21Z</time>
      </trkpt>
      <trkpt lat="44.51324" lon="6.57797">
        <ele>1446</ele>
        <time>2021-04-07T11:04:22Z</time>
      </trkpt>
      <trkpt lat="44.51324" lon="6.57796">
        <ele>1445</ele>
        <time>2021-04-07T11:04:23Z</time>
      </trkpt>
      <trkpt lat="44.51324" lon="6.57794">
        <ele>1445</ele>
        <time>2021-04-07T11:04:24Z</time>
      </trkpt>
      <trkpt lat="44.51324" lon="6.57793">
        <ele>1445</ele>
        <time>2021-04-07T11:04:25Z</time>
      </trkpt>
      <trkpt lat="44.51324" lon="6.57791">
        <ele>1444</ele>
        <time>2021-04-07T11:04:26Z</time>
      </trkpt>
      <trkpt lat="44.51324" lon="6.57789">
        <ele>1444</ele>
        <time>2021-04-07T11:04:27Z</time>
      </trkpt>
      <trkpt lat="44.51325" lon="6.57788">
        <ele>1444</ele>
        <time>2021-04-07T11:04:28Z</time>
      </trkpt>
      <trkpt lat="44.51325" lon="6.57787">
        <ele>1445</ele>
        <time>2021-04-07T11:04:29Z</time>
      </trkpt>
      <trkpt lat="44.51325" lon="6.57785">
        <ele>1445</ele>
        <time>2021-04-07T11:04:30Z</time>
      </trkpt>
      <trkpt lat="44.51325" lon="6.57784">
        <ele>1445</ele>
        <time>2021-04-07T11:04:31Z</time>
      </trkpt>
      <trkpt lat="44.51325" lon="6.57782">
        <ele>1445</ele>
        <time>2021-04-07T11:04:32Z</time>
      </trkpt>
      <trkpt lat="44.51325" lon="6.57781">
        <ele>1446</ele>
        <time>2021-04-07T11:04:33Z</time>
      </trkpt>
      <trkpt lat="44.51325" lon="6.57779">
        <ele>1446</ele>
        <time>2021-04-07T11:04:34Z</time>
      </trkpt>
      <trkpt lat="44.51325" lon="6.57778">
        <ele>1447</ele>
        <time>2021-04-07T11:04:35Z</time>
      </trkpt>
      <trkpt lat="44.51324" lon="6.57776">
        <ele>1447</ele>
        <time>2021-04-07T11:04:36Z</time>
      </trkpt>
      <trkpt lat="44.51325" lon="6.57775">
        <ele>1447</ele>
        <time>2021-04-07T11:04:37Z</time>
      </trkpt>
      <trkpt lat="44.51325" lon="6.57773">
        <ele>1447</ele>
        <time>2021-04-07T11:04:38Z</time>
      </trkpt>
      <trkpt lat="44.51326" lon="6.57772">
        <ele>1447</ele>
        <time>2021-04-07T11:04:39Z</time>
      </trkpt>
      <trkpt lat="44.51326" lon="6.5777">
        <ele>1447</ele>
        <time>2021-04-07T11:04:40Z</time>
      </trkpt>
      <trkpt lat="44.51326" lon="6.57769">
        <ele>1447</ele>
        <time>2021-04-07T11:04:41Z</time>
      </trkpt>
      <trkpt lat="44.51326" lon="6.57767">
        <ele>1448</ele>
        <time>2021-04-07T11:04:42Z</time>
      </trkpt>
      <trkpt lat="44.51327" lon="6.57766">
        <ele>1448</ele>
        <time>2021-04-07T11:04:43Z</time>
      </trkpt>
      <trkpt lat="44.51326" lon="6.57765">
        <ele>1448</ele>
        <time>2021-04-07T11:04:44Z</time>
      </trkpt>
      <trkpt lat="44.51327" lon="6.57763">
        <ele>1448</ele>
        <time>2021-04-07T11:04:45Z</time>
      </trkpt>
      <trkpt lat="44.51327" lon="6.5776">
        <ele>1448</ele>
        <time>2021-04-07T11:04:46Z</time>
      </trkpt>
      <trkpt lat="44.51327" lon="6.57758">
        <ele>1448</ele>
        <time>2021-04-07T11:04:47Z</time>
      </trkpt>
      <trkpt lat="44.51327" lon="6.57755">
        <ele>1448</ele>
        <time>2021-04-07T11:04:48Z</time>
      </trkpt>
      <trkpt lat="44.51327" lon="6.57754">
        <ele>1448</ele>
        <time>2021-04-07T11:04:49Z</time>
      </trkpt>
      <trkpt lat="44.51326" lon="6.57752">
        <ele>1447</ele>
        <time>2021-04-07T11:04:50Z</time>
      </trkpt>
      <trkpt lat="44.51325" lon="6.57751">
        <ele>1447</ele>
        <time>2021-04-07T11:04:51Z</time>
      </trkpt>
      <trkpt lat="44.51325" lon="6.57749">
        <ele>1447</ele>
        <time>2021-04-07T11:04:52Z</time>
      </trkpt>
      <trkpt lat="44.51325" lon="6.57748">
        <ele>1447</ele>
        <time>2021-04-07T11:04:53Z</time>
      </trkpt>
      <trkpt lat="44.51325" lon="6.57747">
        <ele>1447</ele>
        <time>2021-04-07T11:04:54Z</time>
      </trkpt>
      <trkpt lat="44.51325" lon="6.57747">
        <ele>1447</ele>
        <time>2021-04-07T11:04:55Z</time>
      </trkpt>
      <trkpt lat="44.51326" lon="6.57744">
        <ele>1447</ele>
        <time>2021-04-07T11:04:56Z</time>
      </trkpt>
      <trkpt lat="44.51326" lon="6.57742">
        <ele>1446</ele>
        <time>2021-04-07T11:04:57Z</time>
      </trkpt>
      <trkpt lat="44.51326" lon="6.5774">
        <ele>1446</ele>
        <time>2021-04-07T11:04:58Z</time>
      </trkpt>
      <trkpt lat="44.51326" lon="6.57739">
        <ele>1446</ele>
        <time>2021-04-07T11:04:59Z</time>
      </trkpt>
      <trkpt lat="44.51325" lon="6.57737">
        <ele>1445</ele>
        <time>2021-04-07T11:05:00Z</time>
      </trkpt>
      <trkpt lat="44.51325" lon="6.57736">
        <ele>1445</ele>
        <time>2021-04-07T11:05:01Z</time>
      </trkpt>
      <trkpt lat="44.51324" lon="6.57734">
        <ele>1445</ele>
        <time>2021-04-07T11:05:02Z</time>
      </trkpt>
      <trkpt lat="44.51324" lon="6.57732">
        <ele>1445</ele>
        <time>2021-04-07T11:05:03Z</time>
      </trkpt>
      <trkpt lat="44.51323" lon="6.57731">
        <ele>1444</ele>
        <time>2021-04-07T11:05:04Z</time>
      </trkpt>
      <trkpt lat="44.51323" lon="6.57729">
        <ele>1444</ele>
        <time>2021-04-07T11:05:05Z</time>
      </trkpt>
      <trkpt lat="44.51323" lon="6.57727">
        <ele>1444</ele>
        <time>2021-04-07T11:05:06Z</time>
      </trkpt>
      <trkpt lat="44.51323" lon="6.57726">
        <ele>1444</ele>
        <time>2021-04-07T11:05:07Z</time>
      </trkpt>
      <trkpt lat="44.51322" lon="6.57725">
        <ele>1443</ele>
        <time>2021-04-07T11:05:08Z</time>
      </trkpt>
      <trkpt lat="44.51323" lon="6.57723">
        <ele>1443</ele>
        <time>2021-04-07T11:05:09Z</time>
      </trkpt>
      <trkpt lat="44.51323" lon="6.57721">
        <ele>1443</ele>
        <time>2021-04-07T11:05:10Z</time>
      </trkpt>
      <trkpt lat="44.51324" lon="6.5772">
        <ele>1442</ele>
        <time>2021-04-07T11:05:11Z</time>
      </trkpt>
      <trkpt lat="44.51324" lon="6.57718">
        <ele>1442</ele>
        <time>2021-04-07T11:05:12Z</time>
      </trkpt>
      <trkpt lat="44.51325" lon="6.57717">
        <ele>1442</ele>
        <time>2021-04-07T11:05:13Z</time>
      </trkpt>
      <trkpt lat="44.51325" lon="6.57716">
        <ele>1441</ele>
        <time>2021-04-07T11:05:14Z</time>
      </trkpt>
      <trkpt lat="44.51324" lon="6.57715">
        <ele>1441</ele>
        <time>2021-04-07T11:05:15Z</time>
      </trkpt>
      <trkpt lat="44.51324" lon="6.57713">
        <ele>1441</ele>
        <time>2021-04-07T11:05:16Z</time>
      </trkpt>
      <trkpt lat="44.51325" lon="6.57711">
        <ele>1440</ele>
        <time>2021-04-07T11:05:17Z</time>
      </trkpt>
      <trkpt lat="44.51325" lon="6.5771">
        <ele>1440</ele>
        <time>2021-04-07T11:05:18Z</time>
      </trkpt>
      <trkpt lat="44.51324" lon="6.57709">
        <ele>1440</ele>
        <time>2021-04-07T11:05:19Z</time>
      </trkpt>
      <trkpt lat="44.51324" lon="6.57707">
        <ele>1440</ele>
        <time>2021-04-07T11:05:20Z</time>
      </trkpt>
      <trkpt lat="44.51324" lon="6.57707">
        <ele>1439</ele>
        <time>2021-04-07T11:05:21Z</time>
      </trkpt>
      <trkpt lat="44.51324" lon="6.57707">
        <ele>1439</ele>
        <time>2021-04-07T11:05:22Z</time>
      </trkpt>
      <trkpt lat="44.51324" lon="6.57707">
        <ele>1439</ele>
        <time>2021-04-07T11:05:23Z</time>
      </trkpt>
      <trkpt lat="44.51324" lon="6.57707">
        <ele>1439</ele>
        <time>2021-04-07T11:05:24Z</time>
      </trkpt>
      <trkpt lat="44.51324" lon="6.57707">
        <ele>1439</ele>
        <time>2021-04-07T11:05:25Z</time>
      </trkpt>
      <trkpt lat="44.51324" lon="6.57707">
        <ele>1439</ele>
        <time>2021-04-07T11:05:26Z</time>
      </trkpt>
      <trkpt lat="44.51324" lon="6.57707">
        <ele>1439</ele>
        <time>2021-04-07T11:05:27Z</time>
      </trkpt>
      <trkpt lat="44.51324" lon="6.57707">
        <ele>1439</ele>
        <time>2021-04-07T11:05:28Z</time>
      </trkpt>
      <trkpt lat="44.51324" lon="6.57707">
        <ele>1439</ele>
        <time>2021-04-07T11:05:29Z</time>
      </trkpt>
      <trkpt lat="44.51324" lon="6.57707">
        <ele>1439</ele>
        <time>2021-04-07T11:05:30Z</time>
      </trkpt>
      <trkpt lat="44.51324" lon="6.57707">
        <ele>1439</ele>
        <time>2021-04-07T11:05:31Z</time>
      </trkpt>
      <trkpt lat="44.51324" lon="6.57707">
        <ele>1439</ele>
        <time>2021-04-07T11:05:32Z</time>
      </trkpt>
      <trkpt lat="44.51324" lon="6.57707">
        <ele>1439</ele>
        <time>2021-04-07T11:05:33Z</time>
      </trkpt>
      <trkpt lat="44.51324" lon="6.57707">
        <ele>1439</ele>
        <time>2021-04-07T11:05:34Z</time>
      </trkpt>
      <trkpt lat="44.51324" lon="6.57707">
        <ele>1439</ele>
        <time>2021-04-07T11:05:35Z</time>
      </trkpt>
      <trkpt lat="44.51324" lon="6.57707">
        <ele>1439</ele>
        <time>2021-04-07T11:05:36Z</time>
      </trkpt>
      <trkpt lat="44.51324" lon="6.57707">
        <ele>1439</ele>
        <time>2021-04-07T11:05:37Z</time>
      </trkpt>
      <trkpt lat="44.51319" lon="6.57696">
        <ele>1438</ele>
        <time>2021-04-07T11:05:38Z</time>
      </trkpt>
      <trkpt lat="44.51319" lon="6.57695">
        <ele>1438</ele>
        <time>2021-04-07T11:05:39Z</time>
      </trkpt>
      <trkpt lat="44.51319" lon="6.57694">
        <ele>1438</ele>
        <time>2021-04-07T11:05:40Z</time>
      </trkpt>
      <trkpt lat="44.51318" lon="6.57692">
        <ele>1438</ele>
        <time>2021-04-07T11:05:41Z</time>
      </trkpt>
      <trkpt lat="44.51318" lon="6.57692">
        <ele>1438</ele>
        <time>2021-04-07T11:05:42Z</time>
      </trkpt>
      <trkpt lat="44.51318" lon="6.57692">
        <ele>1438</ele>
        <time>2021-04-07T11:05:43Z</time>
      </trkpt>
      <trkpt lat="44.51318" lon="6.57692">
        <ele>1437</ele>
        <time>2021-04-07T11:05:44Z</time>
      </trkpt>
      <trkpt lat="44.51318" lon="6.57692">
        <ele>1437</ele>
        <time>2021-04-07T11:05:45Z</time>
      </trkpt>
      <trkpt lat="44.51318" lon="6.57692">
        <ele>1437</ele>
        <time>2021-04-07T11:05:46Z</time>
      </trkpt>
      <trkpt lat="44.51315" lon="6.57685">
        <ele>1437</ele>
        <time>2021-04-07T11:05:47Z</time>
      </trkpt>
      <trkpt lat="44.51315" lon="6.57684">
        <ele>1437</ele>
        <time>2021-04-07T11:05:48Z</time>
      </trkpt>
      <trkpt lat="44.51314" lon="6.57683">
        <ele>1436</ele>
        <time>2021-04-07T11:05:49Z</time>
      </trkpt>
      <trkpt lat="44.51314" lon="6.57682">
        <ele>1436</ele>
        <time>2021-04-07T11:05:50Z</time>
      </trkpt>
      <trkpt lat="44.51314" lon="6.57682">
        <ele>1436</ele>
        <time>2021-04-07T11:05:51Z</time>
      </trkpt>
      <trkpt lat="44.51314" lon="6.57682">
        <ele>1436</ele>
        <time>2021-04-07T11:05:52Z</time>
      </trkpt>
      <trkpt lat="44.51314" lon="6.57682">
        <ele>1436</ele>
        <time>2021-04-07T11:05:53Z</time>
      </trkpt>
      <trkpt lat="44.51314" lon="6.57682">
        <ele>1436</ele>
        <time>2021-04-07T11:05:54Z</time>
      </trkpt>
      <trkpt lat="44.51314" lon="6.57682">
        <ele>1436</ele>
        <time>2021-04-07T11:05:55Z</time>
      </trkpt>
      <trkpt lat="44.51314" lon="6.57682">
        <ele>1436</ele>
        <time>2021-04-07T11:05:56Z</time>
      </trkpt>
      <trkpt lat="44.51314" lon="6.57682">
        <ele>1436</ele>
        <time>2021-04-07T11:05:57Z</time>
      </trkpt>
      <trkpt lat="44.51314" lon="6.57682">
        <ele>1436</ele>
        <time>2021-04-07T11:05:58Z</time>
      </trkpt>
      <trkpt lat="44.51314" lon="6.57682">
        <ele>1436</ele>
        <time>2021-04-07T11:05:59Z</time>
      </trkpt>
      <trkpt lat="44.51314" lon="6.57682">
        <ele>1436</ele>
        <time>2021-04-07T11:06:00Z</time>
      </trkpt>
      <trkpt lat="44.51314" lon="6.57682">
        <ele>1436</ele>
        <time>2021-04-07T11:06:01Z</time>
      </trkpt>
      <trkpt lat="44.51314" lon="6.57682">
        <ele>1436</ele>
        <time>2021-04-07T11:06:02Z</time>
      </trkpt>
      <trkpt lat="44.51314" lon="6.57682">
        <ele>1436</ele>
        <time>2021-04-07T11:06:03Z</time>
      </trkpt>
      <trkpt lat="44.51314" lon="6.57682">
        <ele>1436</ele>
        <time>2021-04-07T11:06:04Z</time>
      </trkpt>
      <trkpt lat="44.51314" lon="6.57682">
        <ele>1436</ele>
        <time>2021-04-07T11:06:05Z</time>
      </trkpt>
      <trkpt lat="44.51314" lon="6.57682">
        <ele>1436</ele>
        <time>2021-04-07T11:06:06Z</time>
      </trkpt>
      <trkpt lat="44.51314" lon="6.57682">
        <ele>1436</ele>
        <time>2021-04-07T11:06:07Z</time>
      </trkpt>
      <trkpt lat="44.51314" lon="6.57682">
        <ele>1436</ele>
        <time>2021-04-07T11:06:08Z</time>
      </trkpt>
      <trkpt lat="44.51314" lon="6.57682">
        <ele>1436</ele>
        <time>2021-04-07T11:06:09Z</time>
      </trkpt>
      <trkpt lat="44.51314" lon="6.57682">
        <ele>1436</ele>
        <time>2021-04-07T11:06:10Z</time>
      </trkpt>
      <trkpt lat="44.51314" lon="6.57682">
        <ele>1436</ele>
        <time>2021-04-07T11:06:11Z</time>
      </trkpt>
      <trkpt lat="44.51314" lon="6.57682">
        <ele>1436</ele>
        <time>2021-04-07T11:06:12Z</time>
      </trkpt>
      <trkpt lat="44.51314" lon="6.57682">
        <ele>1436</ele>
        <time>2021-04-07T11:06:13Z</time>
      </trkpt>
      <trkpt lat="44.51314" lon="6.57682">
        <ele>1436</ele>
        <time>2021-04-07T11:06:14Z</time>
      </trkpt>
      <trkpt lat="44.51314" lon="6.57682">
        <ele>1436</ele>
        <time>2021-04-07T11:06:15Z</time>
      </trkpt>
      <trkpt lat="44.51314" lon="6.57682">
        <ele>1436</ele>
        <time>2021-04-07T11:06:16Z</time>
      </trkpt>
      <trkpt lat="44.51314" lon="6.57682">
        <ele>1436</ele>
        <time>2021-04-07T11:06:17Z</time>
      </trkpt>
      <trkpt lat="44.51314" lon="6.57682">
        <ele>1436</ele>
        <time>2021-04-07T11:06:18Z</time>
      </trkpt>
      <trkpt lat="44.51314" lon="6.57682">
        <ele>1436</ele>
        <time>2021-04-07T11:06:19Z</time>
      </trkpt>
      <trkpt lat="44.51314" lon="6.57682">
        <ele>1436</ele>
        <time>2021-04-07T11:06:20Z</time>
      </trkpt>
      <trkpt lat="44.51314" lon="6.57682">
        <ele>1436</ele>
        <time>2021-04-07T11:06:21Z</time>
      </trkpt>
      <trkpt lat="44.51314" lon="6.57682">
        <ele>1436</ele>
        <time>2021-04-07T11:06:22Z</time>
      </trkpt>
      <trkpt lat="44.51314" lon="6.57682">
        <ele>1436</ele>
        <time>2021-04-07T11:06:23Z</time>
      </trkpt>
      <trkpt lat="44.51314" lon="6.57682">
        <ele>1436</ele>
        <time>2021-04-07T11:06:24Z</time>
      </trkpt>
      <trkpt lat="44.51314" lon="6.57682">
        <ele>1436</ele>
        <time>2021-04-07T11:06:25Z</time>
      </trkpt>
      <trkpt lat="44.51314" lon="6.57682">
        <ele>1436</ele>
        <time>2021-04-07T11:06:26Z</time>
      </trkpt>
      <trkpt lat="44.51314" lon="6.57682">
        <ele>1436</ele>
        <time>2021-04-07T11:06:27Z</time>
      </trkpt>
      <trkpt lat="44.51314" lon="6.57682">
        <ele>1436</ele>
        <time>2021-04-07T11:06:28Z</time>
      </trkpt>
      <trkpt lat="44.51314" lon="6.57682">
        <ele>1436</ele>
        <time>2021-04-07T11:06:29Z</time>
      </trkpt>
      <trkpt lat="44.51314" lon="6.57682">
        <ele>1436</ele>
        <time>2021-04-07T11:06:30Z</time>
      </trkpt>
      <trkpt lat="44.51314" lon="6.57682">
        <ele>1436</ele>
        <time>2021-04-07T11:06:31Z</time>
      </trkpt>
      <trkpt lat="44.51314" lon="6.57682">
        <ele>1436</ele>
        <time>2021-04-07T11:06:32Z</time>
      </trkpt>
      <trkpt lat="44.51314" lon="6.57682">
        <ele>1436</ele>
        <time>2021-04-07T11:06:33Z</time>
      </trkpt>
      <trkpt lat="44.51314" lon="6.57682">
        <ele>1436</ele>
        <time>2021-04-07T11:06:34Z</time>
      </trkpt>
      <trkpt lat="44.51314" lon="6.57682">
        <ele>1436</ele>
        <time>2021-04-07T11:06:35Z</time>
      </trkpt>
      <trkpt lat="44.51314" lon="6.57682">
        <ele>1436</ele>
        <time>2021-04-07T11:06:36Z</time>
      </trkpt>
      <trkpt lat="44.51314" lon="6.57682">
        <ele>1436</ele>
        <time>2021-04-07T11:06:37Z</time>
      </trkpt>
      <trkpt lat="44.51314" lon="6.57682">
        <ele>1436</ele>
        <time>2021-04-07T11:06:38Z</time>
      </trkpt>
      <trkpt lat="44.51314" lon="6.57682">
        <ele>1436</ele>
        <time>2021-04-07T11:06:39Z</time>
      </trkpt>
      <trkpt lat="44.51314" lon="6.57682">
        <ele>1436</ele>
        <time>2021-04-07T11:06:40Z</time>
      </trkpt>
      <trkpt lat="44.51314" lon="6.57682">
        <ele>1436</ele>
        <time>2021-04-07T11:06:41Z</time>
      </trkpt>
      <trkpt lat="44.51314" lon="6.57682">
        <ele>1436</ele>
        <time>2021-04-07T11:06:42Z</time>
      </trkpt>
      <trkpt lat="44.51314" lon="6.57682">
        <ele>1436</ele>
        <time>2021-04-07T11:06:43Z</time>
      </trkpt>
      <trkpt lat="44.51314" lon="6.57682">
        <ele>1436</ele>
        <time>2021-04-07T11:06:44Z</time>
      </trkpt>
      <trkpt lat="44.51314" lon="6.57682">
        <ele>1436</ele>
        <time>2021-04-07T11:06:45Z</time>
      </trkpt>
      <trkpt lat="44.51314" lon="6.57682">
        <ele>1436</ele>
        <time>2021-04-07T11:06:46Z</time>
      </trkpt>
      <trkpt lat="44.51314" lon="6.57682">
        <ele>1436</ele>
        <time>2021-04-07T11:06:47Z</time>
      </trkpt>
      <trkpt lat="44.51314" lon="6.57682">
        <ele>1436</ele>
        <time>2021-04-07T11:06:48Z</time>
      </trkpt>
      <trkpt lat="44.51314" lon="6.57682">
        <ele>1436</ele>
        <time>2021-04-07T11:06:49Z</time>
      </trkpt>
      <trkpt lat="44.51314" lon="6.57682">
        <ele>1436</ele>
        <time>2021-04-07T11:06:50Z</time>
      </trkpt>
      <trkpt lat="44.51314" lon="6.57682">
        <ele>1436</ele>
        <time>2021-04-07T11:06:51Z</time>
      </trkpt>
      <trkpt lat="44.51314" lon="6.57682">
        <ele>1436</ele>
        <time>2021-04-07T11:06:52Z</time>
      </trkpt>
      <trkpt lat="44.51314" lon="6.57682">
        <ele>1436</ele>
        <time>2021-04-07T11:06:53Z</time>
      </trkpt>
      <trkpt lat="44.51314" lon="6.57682">
        <ele>1436</ele>
        <time>2021-04-07T11:06:54Z</time>
      </trkpt>
      <trkpt lat="44.51314" lon="6.57682">
        <ele>1436</ele>
        <time>2021-04-07T11:06:55Z</time>
      </trkpt>
      <trkpt lat="44.51314" lon="6.57682">
        <ele>1436</ele>
        <time>2021-04-07T11:06:56Z</time>
      </trkpt>
      <trkpt lat="44.51314" lon="6.57682">
        <ele>1436</ele>
        <time>2021-04-07T11:06:57Z</time>
      </trkpt>
      <trkpt lat="44.51314" lon="6.57682">
        <ele>1436</ele>
        <time>2021-04-07T11:06:58Z</time>
      </trkpt>
      <trkpt lat="44.51314" lon="6.57682">
        <ele>1436</ele>
        <time>2021-04-07T11:06:59Z</time>
      </trkpt>
      <trkpt lat="44.51314" lon="6.57682">
        <ele>1436</ele>
        <time>2021-04-07T11:07:00Z</time>
      </trkpt>
      <trkpt lat="44.51314" lon="6.57682">
        <ele>1436</ele>
        <time>2021-04-07T11:07:01Z</time>
      </trkpt>
      <trkpt lat="44.51314" lon="6.57682">
        <ele>1436</ele>
        <time>2021-04-07T11:07:02Z</time>
      </trkpt>
      <trkpt lat="44.51314" lon="6.57682">
        <ele>1436</ele>
        <time>2021-04-07T11:07:03Z</time>
      </trkpt>
      <trkpt lat="44.51314" lon="6.57682">
        <ele>1436</ele>
        <time>2021-04-07T11:07:04Z</time>
      </trkpt>
      <trkpt lat="44.51314" lon="6.57682">
        <ele>1436</ele>
        <time>2021-04-07T11:07:05Z</time>
      </trkpt>
      <trkpt lat="44.51314" lon="6.57682">
        <ele>1436</ele>
        <time>2021-04-07T11:07:06Z</time>
      </trkpt>
      <trkpt lat="44.51314" lon="6.57682">
        <ele>1436</ele>
        <time>2021-04-07T11:07:07Z</time>
      </trkpt>
      <trkpt lat="44.51314" lon="6.57682">
        <ele>1436</ele>
        <time>2021-04-07T11:07:08Z</time>
      </trkpt>
      <trkpt lat="44.51314" lon="6.57682">
        <ele>1436</ele>
        <time>2021-04-07T11:07:09Z</time>
      </trkpt>
      <trkpt lat="44.51314" lon="6.57682">
        <ele>1436</ele>
        <time>2021-04-07T11:07:10Z</time>
      </trkpt>
      <trkpt lat="44.51314" lon="6.57682">
        <ele>1436</ele>
        <time>2021-04-07T11:07:11Z</time>
      </trkpt>
      <trkpt lat="44.51314" lon="6.57682">
        <ele>1436</ele>
        <time>2021-04-07T11:07:12Z</time>
      </trkpt>
      <trkpt lat="44.51314" lon="6.57682">
        <ele>1436</ele>
        <time>2021-04-07T11:07:13Z</time>
      </trkpt>
      <trkpt lat="44.51314" lon="6.57682">
        <ele>1436</ele>
        <time>2021-04-07T11:07:14Z</time>
      </trkpt>
      <trkpt lat="44.51314" lon="6.57682">
        <ele>1436</ele>
        <time>2021-04-07T11:07:15Z</time>
      </trkpt>
      <trkpt lat="44.51314" lon="6.57682">
        <ele>1436</ele>
        <time>2021-04-07T11:07:16Z</time>
      </trkpt>
      <trkpt lat="44.51305" lon="6.57682">
        <ele>1439</ele>
        <time>2021-04-07T11:07:17Z</time>
      </trkpt>
      <trkpt lat="44.51304" lon="6.57682">
        <ele>1439</ele>
        <time>2021-04-07T11:07:18Z</time>
      </trkpt>
      <trkpt lat="44.51304" lon="6.57681">
        <ele>1440</ele>
        <time>2021-04-07T11:07:19Z</time>
      </trkpt>
      <trkpt lat="44.51303" lon="6.57681">
        <ele>1440</ele>
        <time>2021-04-07T11:07:20Z</time>
      </trkpt>
      <trkpt lat="44.51303" lon="6.57681">
        <ele>1440</ele>
        <time>2021-04-07T11:07:21Z</time>
      </trkpt>
      <trkpt lat="44.51303" lon="6.57681">
        <ele>1440</ele>
        <time>2021-04-07T11:07:22Z</time>
      </trkpt>
      <trkpt lat="44.51303" lon="6.57681">
        <ele>1440</ele>
        <time>2021-04-07T11:07:23Z</time>
      </trkpt>
      <trkpt lat="44.51303" lon="6.57681">
        <ele>1440</ele>
        <time>2021-04-07T11:07:24Z</time>
      </trkpt>
      <trkpt lat="44.51303" lon="6.57681">
        <ele>1440</ele>
        <time>2021-04-07T11:07:25Z</time>
      </trkpt>
      <trkpt lat="44.51303" lon="6.57681">
        <ele>1440</ele>
        <time>2021-04-07T11:07:26Z</time>
      </trkpt>
      <trkpt lat="44.51303" lon="6.57681">
        <ele>1440</ele>
        <time>2021-04-07T11:07:27Z</time>
      </trkpt>
      <trkpt lat="44.51303" lon="6.57681">
        <ele>1440</ele>
        <time>2021-04-07T11:07:28Z</time>
      </trkpt>
      <trkpt lat="44.51303" lon="6.57681">
        <ele>1440</ele>
        <time>2021-04-07T11:07:29Z</time>
      </trkpt>
      <trkpt lat="44.51303" lon="6.57681">
        <ele>1440</ele>
        <time>2021-04-07T11:07:30Z</time>
      </trkpt>
      <trkpt lat="44.51303" lon="6.57681">
        <ele>1440</ele>
        <time>2021-04-07T11:07:31Z</time>
      </trkpt>
      <trkpt lat="44.51303" lon="6.57681">
        <ele>1440</ele>
        <time>2021-04-07T11:07:32Z</time>
      </trkpt>
      <trkpt lat="44.51303" lon="6.57681">
        <ele>1440</ele>
        <time>2021-04-07T11:07:33Z</time>
      </trkpt>
      <trkpt lat="44.51303" lon="6.57681">
        <ele>1440</ele>
        <time>2021-04-07T11:07:34Z</time>
      </trkpt>
      <trkpt lat="44.51303" lon="6.57681">
        <ele>1440</ele>
        <time>2021-04-07T11:07:35Z</time>
      </trkpt>
      <trkpt lat="44.51303" lon="6.57681">
        <ele>1440</ele>
        <time>2021-04-07T11:07:36Z</time>
      </trkpt>
      <trkpt lat="44.51303" lon="6.57681">
        <ele>1440</ele>
        <time>2021-04-07T11:07:37Z</time>
      </trkpt>
      <trkpt lat="44.51303" lon="6.57681">
        <ele>1440</ele>
        <time>2021-04-07T11:07:38Z</time>
      </trkpt>
      <trkpt lat="44.51303" lon="6.57681">
        <ele>1440</ele>
        <time>2021-04-07T11:07:39Z</time>
      </trkpt>
      <trkpt lat="44.51303" lon="6.57681">
        <ele>1440</ele>
        <time>2021-04-07T11:07:40Z</time>
      </trkpt>
      <trkpt lat="44.51303" lon="6.57681">
        <ele>1440</ele>
        <time>2021-04-07T11:07:41Z</time>
      </trkpt>
      <trkpt lat="44.51303" lon="6.57681">
        <ele>1440</ele>
        <time>2021-04-07T11:07:42Z</time>
      </trkpt>
      <trkpt lat="44.51303" lon="6.57681">
        <ele>1440</ele>
        <time>2021-04-07T11:07:43Z</time>
      </trkpt>
      <trkpt lat="44.51303" lon="6.57681">
        <ele>1440</ele>
        <time>2021-04-07T11:07:44Z</time>
      </trkpt>
      <trkpt lat="44.51303" lon="6.57681">
        <ele>1440</ele>
        <time>2021-04-07T11:07:45Z</time>
      </trkpt>
      <trkpt lat="44.51303" lon="6.57681">
        <ele>1440</ele>
        <time>2021-04-07T11:07:46Z</time>
      </trkpt>
      <trkpt lat="44.51303" lon="6.57681">
        <ele>1440</ele>
        <time>2021-04-07T11:07:47Z</time>
      </trkpt>
      <trkpt lat="44.51303" lon="6.57681">
        <ele>1440</ele>
        <time>2021-04-07T11:07:48Z</time>
      </trkpt>
      <trkpt lat="44.51303" lon="6.57681">
        <ele>1440</ele>
        <time>2021-04-07T11:07:49Z</time>
      </trkpt>
      <trkpt lat="44.51303" lon="6.57681">
        <ele>1440</ele>
        <time>2021-04-07T11:07:50Z</time>
      </trkpt>
      <trkpt lat="44.51303" lon="6.57681">
        <ele>1440</ele>
        <time>2021-04-07T11:07:51Z</time>
      </trkpt>
      <trkpt lat="44.51303" lon="6.57681">
        <ele>1440</ele>
        <time>2021-04-07T11:07:52Z</time>
      </trkpt>
      <trkpt lat="44.51303" lon="6.57681">
        <ele>1440</ele>
        <time>2021-04-07T11:07:53Z</time>
      </trkpt>
      <trkpt lat="44.51303" lon="6.57681">
        <ele>1440</ele>
        <time>2021-04-07T11:07:54Z</time>
      </trkpt>
      <trkpt lat="44.51303" lon="6.57681">
        <ele>1440</ele>
        <time>2021-04-07T11:07:55Z</time>
      </trkpt>
      <trkpt lat="44.51303" lon="6.57681">
        <ele>1440</ele>
        <time>2021-04-07T11:07:56Z</time>
      </trkpt>
      <trkpt lat="44.51303" lon="6.57681">
        <ele>1440</ele>
        <time>2021-04-07T11:07:57Z</time>
      </trkpt>
      <trkpt lat="44.51303" lon="6.57681">
        <ele>1440</ele>
        <time>2021-04-07T11:07:58Z</time>
      </trkpt>
      <trkpt lat="44.51303" lon="6.57681">
        <ele>1440</ele>
        <time>2021-04-07T11:07:59Z</time>
      </trkpt>
      <trkpt lat="44.51303" lon="6.57681">
        <ele>1440</ele>
        <time>2021-04-07T11:08:00Z</time>
      </trkpt>
      <trkpt lat="44.51303" lon="6.57681">
        <ele>1440</ele>
        <time>2021-04-07T11:08:01Z</time>
      </trkpt>
      <trkpt lat="44.51303" lon="6.57681">
        <ele>1440</ele>
        <time>2021-04-07T11:08:02Z</time>
      </trkpt>
      <trkpt lat="44.51303" lon="6.57681">
        <ele>1440</ele>
        <time>2021-04-07T11:08:03Z</time>
      </trkpt>
      <trkpt lat="44.51303" lon="6.57681">
        <ele>1440</ele>
        <time>2021-04-07T11:08:04Z</time>
      </trkpt>
      <trkpt lat="44.51303" lon="6.57681">
        <ele>1440</ele>
        <time>2021-04-07T11:08:05Z</time>
      </trkpt>
      <trkpt lat="44.51303" lon="6.57681">
        <ele>1440</ele>
        <time>2021-04-07T11:08:06Z</time>
      </trkpt>
      <trkpt lat="44.51303" lon="6.57681">
        <ele>1440</ele>
        <time>2021-04-07T11:08:07Z</time>
      </trkpt>
      <trkpt lat="44.51303" lon="6.57681">
        <ele>1440</ele>
        <time>2021-04-07T11:08:08Z</time>
      </trkpt>
      <trkpt lat="44.51303" lon="6.57681">
        <ele>1440</ele>
        <time>2021-04-07T11:08:09Z</time>
      </trkpt>
      <trkpt lat="44.51303" lon="6.57681">
        <ele>1440</ele>
        <time>2021-04-07T11:08:10Z</time>
      </trkpt>
      <trkpt lat="44.51303" lon="6.57681">
        <ele>1440</ele>
        <time>2021-04-07T11:08:11Z</time>
      </trkpt>
      <trkpt lat="44.51303" lon="6.57681">
        <ele>1440</ele>
        <time>2021-04-07T11:08:12Z</time>
      </trkpt>
      <trkpt lat="44.51303" lon="6.57681">
        <ele>1440</ele>
        <time>2021-04-07T11:08:13Z</time>
      </trkpt>
      <trkpt lat="44.51303" lon="6.57681">
        <ele>1440</ele>
        <time>2021-04-07T11:08:14Z</time>
      </trkpt>
      <trkpt lat="44.51303" lon="6.57681">
        <ele>1440</ele>
        <time>2021-04-07T11:08:15Z</time>
      </trkpt>
      <trkpt lat="44.51303" lon="6.57681">
        <ele>1440</ele>
        <time>2021-04-07T11:08:16Z</time>
      </trkpt>
      <trkpt lat="44.51303" lon="6.57681">
        <ele>1440</ele>
        <time>2021-04-07T11:08:17Z</time>
      </trkpt>
      <trkpt lat="44.51303" lon="6.57681">
        <ele>1440</ele>
        <time>2021-04-07T11:08:18Z</time>
      </trkpt>
      <trkpt lat="44.51303" lon="6.57681">
        <ele>1440</ele>
        <time>2021-04-07T11:08:19Z</time>
      </trkpt>
      <trkpt lat="44.51303" lon="6.57681">
        <ele>1440</ele>
        <time>2021-04-07T11:08:20Z</time>
      </trkpt>
      <trkpt lat="44.51303" lon="6.57681">
        <ele>1440</ele>
        <time>2021-04-07T11:08:21Z</time>
      </trkpt>
      <trkpt lat="44.51303" lon="6.57681">
        <ele>1440</ele>
        <time>2021-04-07T11:08:22Z</time>
      </trkpt>
      <trkpt lat="44.51303" lon="6.57681">
        <ele>1440</ele>
        <time>2021-04-07T11:08:23Z</time>
      </trkpt>
      <trkpt lat="44.51303" lon="6.57681">
        <ele>1440</ele>
        <time>2021-04-07T11:08:24Z</time>
      </trkpt>
      <trkpt lat="44.51303" lon="6.57681">
        <ele>1440</ele>
        <time>2021-04-07T11:08:25Z</time>
      </trkpt>
      <trkpt lat="44.51303" lon="6.57681">
        <ele>1440</ele>
        <time>2021-04-07T11:08:26Z</time>
      </trkpt>
      <trkpt lat="44.51303" lon="6.57681">
        <ele>1440</ele>
        <time>2021-04-07T11:08:27Z</time>
      </trkpt>
      <trkpt lat="44.51303" lon="6.57681">
        <ele>1440</ele>
        <time>2021-04-07T11:08:28Z</time>
      </trkpt>
      <trkpt lat="44.51303" lon="6.57681">
        <ele>1440</ele>
        <time>2021-04-07T11:08:29Z</time>
      </trkpt>
      <trkpt lat="44.51303" lon="6.57681">
        <ele>1440</ele>
        <time>2021-04-07T11:08:30Z</time>
      </trkpt>
      <trkpt lat="44.51303" lon="6.57681">
        <ele>1440</ele>
        <time>2021-04-07T11:08:31Z</time>
      </trkpt>
      <trkpt lat="44.51303" lon="6.57681">
        <ele>1440</ele>
        <time>2021-04-07T11:08:32Z</time>
      </trkpt>
      <trkpt lat="44.51303" lon="6.57681">
        <ele>1440</ele>
        <time>2021-04-07T11:08:33Z</time>
      </trkpt>
      <trkpt lat="44.51303" lon="6.57681">
        <ele>1440</ele>
        <time>2021-04-07T11:08:34Z</time>
      </trkpt>
      <trkpt lat="44.51303" lon="6.57681">
        <ele>1440</ele>
        <time>2021-04-07T11:08:35Z</time>
      </trkpt>
      <trkpt lat="44.51303" lon="6.57681">
        <ele>1440</ele>
        <time>2021-04-07T11:08:36Z</time>
      </trkpt>
      <trkpt lat="44.51303" lon="6.57681">
        <ele>1440</ele>
        <time>2021-04-07T11:08:37Z</time>
      </trkpt>
      <trkpt lat="44.51303" lon="6.57681">
        <ele>1440</ele>
        <time>2021-04-07T11:08:38Z</time>
      </trkpt>
      <trkpt lat="44.51303" lon="6.57681">
        <ele>1440</ele>
        <time>2021-04-07T11:08:39Z</time>
      </trkpt>
      <trkpt lat="44.51303" lon="6.57681">
        <ele>1440</ele>
        <time>2021-04-07T11:08:40Z</time>
      </trkpt>
      <trkpt lat="44.51303" lon="6.57681">
        <ele>1440</ele>
        <time>2021-04-07T11:08:41Z</time>
      </trkpt>
      <trkpt lat="44.51303" lon="6.57681">
        <ele>1440</ele>
        <time>2021-04-07T11:08:42Z</time>
      </trkpt>
      <trkpt lat="44.51303" lon="6.57681">
        <ele>1440</ele>
        <time>2021-04-07T11:08:43Z</time>
      </trkpt>
      <trkpt lat="44.51303" lon="6.57681">
        <ele>1440</ele>
        <time>2021-04-07T11:08:44Z</time>
      </trkpt>
      <trkpt lat="44.51311" lon="6.57686">
        <ele>1443</ele>
        <time>2021-04-07T11:08:45Z</time>
      </trkpt>
      <trkpt lat="44.51312" lon="6.57687">
        <ele>1444</ele>
        <time>2021-04-07T11:08:46Z</time>
      </trkpt>
      <trkpt lat="44.51312" lon="6.57687">
        <ele>1444</ele>
        <time>2021-04-07T11:08:47Z</time>
      </trkpt>
      <trkpt lat="44.51312" lon="6.57687">
        <ele>1445</ele>
        <time>2021-04-07T11:08:48Z</time>
      </trkpt>
      <trkpt lat="44.51312" lon="6.57687">
        <ele>1445</ele>
        <time>2021-04-07T11:08:49Z</time>
      </trkpt>
      <trkpt lat="44.51312" lon="6.57687">
        <ele>1445</ele>
        <time>2021-04-07T11:08:50Z</time>
      </trkpt>
      <trkpt lat="44.51312" lon="6.57687">
        <ele>1445</ele>
        <time>2021-04-07T11:08:51Z</time>
      </trkpt>
      <trkpt lat="44.51312" lon="6.57687">
        <ele>1445</ele>
        <time>2021-04-07T11:08:52Z</time>
      </trkpt>
      <trkpt lat="44.51312" lon="6.57687">
        <ele>1445</ele>
        <time>2021-04-07T11:08:53Z</time>
      </trkpt>
      <trkpt lat="44.51312" lon="6.57687">
        <ele>1445</ele>
        <time>2021-04-07T11:08:54Z</time>
      </trkpt>
      <trkpt lat="44.51312" lon="6.57687">
        <ele>1445</ele>
        <time>2021-04-07T11:08:55Z</time>
      </trkpt>
      <trkpt lat="44.51312" lon="6.57687">
        <ele>1445</ele>
        <time>2021-04-07T11:08:56Z</time>
      </trkpt>
      <trkpt lat="44.51312" lon="6.57687">
        <ele>1445</ele>
        <time>2021-04-07T11:08:57Z</time>
      </trkpt>
      <trkpt lat="44.51312" lon="6.57687">
        <ele>1445</ele>
        <time>2021-04-07T11:08:58Z</time>
      </trkpt>
      <trkpt lat="44.51312" lon="6.57687">
        <ele>1445</ele>
        <time>2021-04-07T11:08:59Z</time>
      </trkpt>
      <trkpt lat="44.51312" lon="6.57687">
        <ele>1445</ele>
        <time>2021-04-07T11:09:00Z</time>
      </trkpt>
      <trkpt lat="44.51312" lon="6.57687">
        <ele>1445</ele>
        <time>2021-04-07T11:09:01Z</time>
      </trkpt>
      <trkpt lat="44.51312" lon="6.57687">
        <ele>1445</ele>
        <time>2021-04-07T11:09:02Z</time>
      </trkpt>
      <trkpt lat="44.51312" lon="6.57687">
        <ele>1445</ele>
        <time>2021-04-07T11:09:03Z</time>
      </trkpt>
      <trkpt lat="44.51312" lon="6.57687">
        <ele>1445</ele>
        <time>2021-04-07T11:09:04Z</time>
      </trkpt>
      <trkpt lat="44.51312" lon="6.57687">
        <ele>1445</ele>
        <time>2021-04-07T11:09:05Z</time>
      </trkpt>
      <trkpt lat="44.51312" lon="6.57687">
        <ele>1445</ele>
        <time>2021-04-07T11:09:06Z</time>
      </trkpt>
      <trkpt lat="44.51312" lon="6.57687">
        <ele>1445</ele>
        <time>2021-04-07T11:09:07Z</time>
      </trkpt>
      <trkpt lat="44.51312" lon="6.57687">
        <ele>1445</ele>
        <time>2021-04-07T11:09:08Z</time>
      </trkpt>
      <trkpt lat="44.51312" lon="6.57687">
        <ele>1445</ele>
        <time>2021-04-07T11:09:09Z</time>
      </trkpt>
      <trkpt lat="44.51312" lon="6.57687">
        <ele>1445</ele>
        <time>2021-04-07T11:09:10Z</time>
      </trkpt>
      <trkpt lat="44.51312" lon="6.57687">
        <ele>1445</ele>
        <time>2021-04-07T11:09:11Z</time>
      </trkpt>
      <trkpt lat="44.51312" lon="6.57687">
        <ele>1445</ele>
        <time>2021-04-07T11:09:12Z</time>
      </trkpt>
      <trkpt lat="44.51312" lon="6.57687">
        <ele>1445</ele>
        <time>2021-04-07T11:09:13Z</time>
      </trkpt>
      <trkpt lat="44.51312" lon="6.57687">
        <ele>1445</ele>
        <time>2021-04-07T11:09:14Z</time>
      </trkpt>
      <trkpt lat="44.51312" lon="6.57687">
        <ele>1445</ele>
        <time>2021-04-07T11:09:15Z</time>
      </trkpt>
      <trkpt lat="44.51312" lon="6.57687">
        <ele>1445</ele>
        <time>2021-04-07T11:09:16Z</time>
      </trkpt>
      <trkpt lat="44.51312" lon="6.57687">
        <ele>1445</ele>
        <time>2021-04-07T11:09:17Z</time>
      </trkpt>
      <trkpt lat="44.51312" lon="6.57687">
        <ele>1445</ele>
        <time>2021-04-07T11:09:18Z</time>
      </trkpt>
      <trkpt lat="44.51312" lon="6.57687">
        <ele>1445</ele>
        <time>2021-04-07T11:09:19Z</time>
      </trkpt>
      <trkpt lat="44.51312" lon="6.57687">
        <ele>1445</ele>
        <time>2021-04-07T11:09:20Z</time>
      </trkpt>
      <trkpt lat="44.51312" lon="6.57687">
        <ele>1445</ele>
        <time>2021-04-07T11:09:21Z</time>
      </trkpt>
      <trkpt lat="44.51312" lon="6.57687">
        <ele>1445</ele>
        <time>2021-04-07T11:09:22Z</time>
      </trkpt>
      <trkpt lat="44.51312" lon="6.57687">
        <ele>1445</ele>
        <time>2021-04-07T11:09:23Z</time>
      </trkpt>
      <trkpt lat="44.51312" lon="6.57687">
        <ele>1445</ele>
        <time>2021-04-07T11:09:24Z</time>
      </trkpt>
      <trkpt lat="44.51312" lon="6.57687">
        <ele>1445</ele>
        <time>2021-04-07T11:09:25Z</time>
      </trkpt>
      <trkpt lat="44.51312" lon="6.57687">
        <ele>1445</ele>
        <time>2021-04-07T11:09:26Z</time>
      </trkpt>
      <trkpt lat="44.51312" lon="6.57687">
        <ele>1445</ele>
        <time>2021-04-07T11:09:27Z</time>
      </trkpt>
      <trkpt lat="44.51312" lon="6.57687">
        <ele>1446</ele>
        <time>2021-04-07T11:09:28Z</time>
      </trkpt>
      <trkpt lat="44.51312" lon="6.57687">
        <ele>1446</ele>
        <time>2021-04-07T11:09:29Z</time>
      </trkpt>
      <trkpt lat="44.51312" lon="6.57687">
        <ele>1446</ele>
        <time>2021-04-07T11:09:30Z</time>
      </trkpt>
      <trkpt lat="44.51312" lon="6.57687">
        <ele>1446</ele>
        <time>2021-04-07T11:09:31Z</time>
      </trkpt>
      <trkpt lat="44.51312" lon="6.57687">
        <ele>1446</ele>
        <time>2021-04-07T11:09:32Z</time>
      </trkpt>
      <trkpt lat="44.51312" lon="6.57687">
        <ele>1446</ele>
        <time>2021-04-07T11:09:33Z</time>
      </trkpt>
      <trkpt lat="44.51312" lon="6.57687">
        <ele>1446</ele>
        <time>2021-04-07T11:09:34Z</time>
      </trkpt>
      <trkpt lat="44.51312" lon="6.57687">
        <ele>1446</ele>
        <time>2021-04-07T11:09:35Z</time>
      </trkpt>
      <trkpt lat="44.51312" lon="6.57687">
        <ele>1446</ele>
        <time>2021-04-07T11:09:36Z</time>
      </trkpt>
      <trkpt lat="44.51312" lon="6.57687">
        <ele>1446</ele>
        <time>2021-04-07T11:09:37Z</time>
      </trkpt>
      <trkpt lat="44.51312" lon="6.57687">
        <ele>1446</ele>
        <time>2021-04-07T11:09:38Z</time>
      </trkpt>
      <trkpt lat="44.51312" lon="6.57687">
        <ele>1446</ele>
        <time>2021-04-07T11:09:39Z</time>
      </trkpt>
      <trkpt lat="44.51312" lon="6.57687">
        <ele>1446</ele>
        <time>2021-04-07T11:09:40Z</time>
      </trkpt>
      <trkpt lat="44.51312" lon="6.57687">
        <ele>1446</ele>
        <time>2021-04-07T11:09:41Z</time>
      </trkpt>
      <trkpt lat="44.51312" lon="6.57687">
        <ele>1446</ele>
        <time>2021-04-07T11:09:42Z</time>
      </trkpt>
      <trkpt lat="44.51312" lon="6.57687">
        <ele>1446</ele>
        <time>2021-04-07T11:09:43Z</time>
      </trkpt>
      <trkpt lat="44.51312" lon="6.57687">
        <ele>1446</ele>
        <time>2021-04-07T11:09:44Z</time>
      </trkpt>
      <trkpt lat="44.51312" lon="6.57687">
        <ele>1446</ele>
        <time>2021-04-07T11:09:45Z</time>
      </trkpt>
      <trkpt lat="44.51312" lon="6.57687">
        <ele>1446</ele>
        <time>2021-04-07T11:09:46Z</time>
      </trkpt>
      <trkpt lat="44.51312" lon="6.57687">
        <ele>1446</ele>
        <time>2021-04-07T11:09:47Z</time>
      </trkpt>
      <trkpt lat="44.51312" lon="6.57687">
        <ele>1446</ele>
        <time>2021-04-07T11:09:48Z</time>
      </trkpt>
      <trkpt lat="44.51312" lon="6.57687">
        <ele>1446</ele>
        <time>2021-04-07T11:09:49Z</time>
      </trkpt>
      <trkpt lat="44.51312" lon="6.57687">
        <ele>1446</ele>
        <time>2021-04-07T11:09:50Z</time>
      </trkpt>
      <trkpt lat="44.51312" lon="6.57687">
        <ele>1446</ele>
        <time>2021-04-07T11:09:51Z</time>
      </trkpt>
      <trkpt lat="44.51312" lon="6.57687">
        <ele>1446</ele>
        <time>2021-04-07T11:09:52Z</time>
      </trkpt>
      <trkpt lat="44.51312" lon="6.57687">
        <ele>1446</ele>
        <time>2021-04-07T11:09:53Z</time>
      </trkpt>
      <trkpt lat="44.51312" lon="6.57687">
        <ele>1446</ele>
        <time>2021-04-07T11:09:54Z</time>
      </trkpt>
      <trkpt lat="44.51312" lon="6.57687">
        <ele>1446</ele>
        <time>2021-04-07T11:09:55Z</time>
      </trkpt>
      <trkpt lat="44.51312" lon="6.57687">
        <ele>1446</ele>
        <time>2021-04-07T11:09:56Z</time>
      </trkpt>
      <trkpt lat="44.51312" lon="6.57687">
        <ele>1446</ele>
        <time>2021-04-07T11:09:57Z</time>
      </trkpt>
      <trkpt lat="44.51312" lon="6.57687">
        <ele>1446</ele>
        <time>2021-04-07T11:09:58Z</time>
      </trkpt>
      <trkpt lat="44.51312" lon="6.57687">
        <ele>1446</ele>
        <time>2021-04-07T11:09:59Z</time>
      </trkpt>
      <trkpt lat="44.51312" lon="6.57687">
        <ele>1446</ele>
        <time>2021-04-07T11:10:00Z</time>
      </trkpt>
      <trkpt lat="44.51312" lon="6.57687">
        <ele>1446</ele>
        <time>2021-04-07T11:10:01Z</time>
      </trkpt>
      <trkpt lat="44.51312" lon="6.57687">
        <ele>1446</ele>
        <time>2021-04-07T11:10:02Z</time>
      </trkpt>
      <trkpt lat="44.51312" lon="6.57687">
        <ele>1446</ele>
        <time>2021-04-07T11:10:03Z</time>
      </trkpt>
      <trkpt lat="44.51312" lon="6.57687">
        <ele>1446</ele>
        <time>2021-04-07T11:10:04Z</time>
      </trkpt>
      <trkpt lat="44.51312" lon="6.57687">
        <ele>1446</ele>
        <time>2021-04-07T11:10:05Z</time>
      </trkpt>
      <trkpt lat="44.51312" lon="6.57687">
        <ele>1446</ele>
        <time>2021-04-07T11:10:06Z</time>
      </trkpt>
      <trkpt lat="44.51312" lon="6.57687">
        <ele>1446</ele>
        <time>2021-04-07T11:10:07Z</time>
      </trkpt>
      <trkpt lat="44.51312" lon="6.57687">
        <ele>1446</ele>
        <time>2021-04-07T11:10:08Z</time>
      </trkpt>
      <trkpt lat="44.51312" lon="6.57687">
        <ele>1446</ele>
        <time>2021-04-07T11:10:09Z</time>
      </trkpt>
      <trkpt lat="44.51312" lon="6.57687">
        <ele>1446</ele>
        <time>2021-04-07T11:10:10Z</time>
      </trkpt>
      <trkpt lat="44.51312" lon="6.57687">
        <ele>1446</ele>
        <time>2021-04-07T11:10:11Z</time>
      </trkpt>
      <trkpt lat="44.51312" lon="6.57687">
        <ele>1446</ele>
        <time>2021-04-07T11:10:12Z</time>
      </trkpt>
      <trkpt lat="44.51312" lon="6.57687">
        <ele>1446</ele>
        <time>2021-04-07T11:10:13Z</time>
      </trkpt>
      <trkpt lat="44.51312" lon="6.57687">
        <ele>1446</ele>
        <time>2021-04-07T11:10:14Z</time>
      </trkpt>
      <trkpt lat="44.51312" lon="6.57687">
        <ele>1446</ele>
        <time>2021-04-07T11:10:15Z</time>
      </trkpt>
      <trkpt lat="44.51312" lon="6.57687">
        <ele>1446</ele>
        <time>2021-04-07T11:10:16Z</time>
      </trkpt>
      <trkpt lat="44.51312" lon="6.57687">
        <ele>1446</ele>
        <time>2021-04-07T11:10:17Z</time>
      </trkpt>
      <trkpt lat="44.51312" lon="6.57687">
        <ele>1446</ele>
        <time>2021-04-07T11:10:18Z</time>
      </trkpt>
      <trkpt lat="44.51312" lon="6.57687">
        <ele>1446</ele>
        <time>2021-04-07T11:10:19Z</time>
      </trkpt>
      <trkpt lat="44.51312" lon="6.57687">
        <ele>1446</ele>
        <time>2021-04-07T11:10:20Z</time>
      </trkpt>
      <trkpt lat="44.51312" lon="6.57687">
        <ele>1446</ele>
        <time>2021-04-07T11:10:21Z</time>
      </trkpt>
      <trkpt lat="44.51312" lon="6.57687">
        <ele>1446</ele>
        <time>2021-04-07T11:10:22Z</time>
      </trkpt>
      <trkpt lat="44.51312" lon="6.57687">
        <ele>1446</ele>
        <time>2021-04-07T11:10:23Z</time>
      </trkpt>
      <trkpt lat="44.51312" lon="6.57687">
        <ele>1446</ele>
        <time>2021-04-07T11:10:24Z</time>
      </trkpt>
      <trkpt lat="44.51312" lon="6.57687">
        <ele>1446</ele>
        <time>2021-04-07T11:10:25Z</time>
      </trkpt>
      <trkpt lat="44.51312" lon="6.57687">
        <ele>1446</ele>
        <time>2021-04-07T11:10:26Z</time>
      </trkpt>
      <trkpt lat="44.51312" lon="6.57687">
        <ele>1446</ele>
        <time>2021-04-07T11:10:27Z</time>
      </trkpt>
      <trkpt lat="44.51312" lon="6.57687">
        <ele>1446</ele>
        <time>2021-04-07T11:10:28Z</time>
      </trkpt>
      <trkpt lat="44.51312" lon="6.57687">
        <ele>1446</ele>
        <time>2021-04-07T11:10:29Z</time>
      </trkpt>
      <trkpt lat="44.51312" lon="6.57687">
        <ele>1446</ele>
        <time>2021-04-07T11:10:30Z</time>
      </trkpt>
      <trkpt lat="44.51312" lon="6.57687">
        <ele>1446</ele>
        <time>2021-04-07T11:10:31Z</time>
      </trkpt>
      <trkpt lat="44.51312" lon="6.57687">
        <ele>1446</ele>
        <time>2021-04-07T11:10:32Z</time>
      </trkpt>
      <trkpt lat="44.51312" lon="6.57687">
        <ele>1446</ele>
        <time>2021-04-07T11:10:33Z</time>
      </trkpt>
      <trkpt lat="44.51312" lon="6.57687">
        <ele>1446</ele>
        <time>2021-04-07T11:10:34Z</time>
      </trkpt>
      <trkpt lat="44.51312" lon="6.57687">
        <ele>1446</ele>
        <time>2021-04-07T11:10:35Z</time>
      </trkpt>
      <trkpt lat="44.51312" lon="6.57687">
        <ele>1446</ele>
        <time>2021-04-07T11:10:36Z</time>
      </trkpt>
      <trkpt lat="44.51312" lon="6.57687">
        <ele>1446</ele>
        <time>2021-04-07T11:10:37Z</time>
      </trkpt>
      <trkpt lat="44.51312" lon="6.57687">
        <ele>1446</ele>
        <time>2021-04-07T11:10:38Z</time>
      </trkpt>
      <trkpt lat="44.51312" lon="6.57687">
        <ele>1446</ele>
        <time>2021-04-07T11:10:39Z</time>
      </trkpt>
      <trkpt lat="44.51312" lon="6.57687">
        <ele>1446</ele>
        <time>2021-04-07T11:10:40Z</time>
      </trkpt>
      <trkpt lat="44.51312" lon="6.57687">
        <ele>1446</ele>
        <time>2021-04-07T11:10:41Z</time>
      </trkpt>
      <trkpt lat="44.51312" lon="6.57687">
        <ele>1446</ele>
        <time>2021-04-07T11:10:42Z</time>
      </trkpt>
      <trkpt lat="44.51312" lon="6.57687">
        <ele>1446</ele>
        <time>2021-04-07T11:10:43Z</time>
      </trkpt>
      <trkpt lat="44.51312" lon="6.57687">
        <ele>1446</ele>
        <time>2021-04-07T11:10:44Z</time>
      </trkpt>
      <trkpt lat="44.51312" lon="6.57687">
        <ele>1446</ele>
        <time>2021-04-07T11:10:45Z</time>
      </trkpt>
      <trkpt lat="44.51312" lon="6.57687">
        <ele>1446</ele>
        <time>2021-04-07T11:10:46Z</time>
      </trkpt>
      <trkpt lat="44.51312" lon="6.57687">
        <ele>1446</ele>
        <time>2021-04-07T11:10:47Z</time>
      </trkpt>
      <trkpt lat="44.51312" lon="6.57687">
        <ele>1446</ele>
        <time>2021-04-07T11:10:48Z</time>
      </trkpt>
      <trkpt lat="44.51312" lon="6.57687">
        <ele>1446</ele>
        <time>2021-04-07T11:10:49Z</time>
      </trkpt>
      <trkpt lat="44.51312" lon="6.57687">
        <ele>1446</ele>
        <time>2021-04-07T11:10:50Z</time>
      </trkpt>
      <trkpt lat="44.51312" lon="6.57687">
        <ele>1446</ele>
        <time>2021-04-07T11:10:51Z</time>
      </trkpt>
      <trkpt lat="44.51312" lon="6.57687">
        <ele>1446</ele>
        <time>2021-04-07T11:10:52Z</time>
      </trkpt>
      <trkpt lat="44.51312" lon="6.57687">
        <ele>1446</ele>
        <time>2021-04-07T11:10:53Z</time>
      </trkpt>
      <trkpt lat="44.51312" lon="6.57687">
        <ele>1446</ele>
        <time>2021-04-07T11:10:54Z</time>
      </trkpt>
      <trkpt lat="44.51312" lon="6.57687">
        <ele>1446</ele>
        <time>2021-04-07T11:10:55Z</time>
      </trkpt>
      <trkpt lat="44.51312" lon="6.57687">
        <ele>1446</ele>
        <time>2021-04-07T11:10:56Z</time>
      </trkpt>
      <trkpt lat="44.51312" lon="6.57687">
        <ele>1446</ele>
        <time>2021-04-07T11:10:57Z</time>
      </trkpt>
      <trkpt lat="44.51312" lon="6.57687">
        <ele>1446</ele>
        <time>2021-04-07T11:10:58Z</time>
      </trkpt>
      <trkpt lat="44.51312" lon="6.57687">
        <ele>1446</ele>
        <time>2021-04-07T11:10:59Z</time>
      </trkpt>
      <trkpt lat="44.51312" lon="6.57687">
        <ele>1446</ele>
        <time>2021-04-07T11:11:00Z</time>
      </trkpt>
      <trkpt lat="44.51312" lon="6.57687">
        <ele>1446</ele>
        <time>2021-04-07T11:11:01Z</time>
      </trkpt>
      <trkpt lat="44.51312" lon="6.57687">
        <ele>1446</ele>
        <time>2021-04-07T11:11:02Z</time>
      </trkpt>
      <trkpt lat="44.51312" lon="6.57687">
        <ele>1446</ele>
        <time>2021-04-07T11:11:03Z</time>
      </trkpt>
      <trkpt lat="44.51312" lon="6.57687">
        <ele>1446</ele>
        <time>2021-04-07T11:11:04Z</time>
      </trkpt>
      <trkpt lat="44.51312" lon="6.57687">
        <ele>1446</ele>
        <time>2021-04-07T11:11:05Z</time>
      </trkpt>
      <trkpt lat="44.51312" lon="6.57687">
        <ele>1446</ele>
        <time>2021-04-07T11:11:06Z</time>
      </trkpt>
      <trkpt lat="44.51312" lon="6.57687">
        <ele>1446</ele>
        <time>2021-04-07T11:11:07Z</time>
      </trkpt>
      <trkpt lat="44.51312" lon="6.57687">
        <ele>1446</ele>
        <time>2021-04-07T11:11:08Z</time>
      </trkpt>
      <trkpt lat="44.51312" lon="6.57687">
        <ele>1446</ele>
        <time>2021-04-07T11:11:09Z</time>
      </trkpt>
      <trkpt lat="44.51312" lon="6.57687">
        <ele>1446</ele>
        <time>2021-04-07T11:11:10Z</time>
      </trkpt>
      <trkpt lat="44.51312" lon="6.57687">
        <ele>1446</ele>
        <time>2021-04-07T11:11:11Z</time>
      </trkpt>
      <trkpt lat="44.51312" lon="6.57687">
        <ele>1446</ele>
        <time>2021-04-07T11:11:12Z</time>
      </trkpt>
      <trkpt lat="44.51312" lon="6.57687">
        <ele>1446</ele>
        <time>2021-04-07T11:11:13Z</time>
      </trkpt>
      <trkpt lat="44.51312" lon="6.57687">
        <ele>1446</ele>
        <time>2021-04-07T11:11:14Z</time>
      </trkpt>
      <trkpt lat="44.51312" lon="6.57687">
        <ele>1446</ele>
        <time>2021-04-07T11:11:15Z</time>
      </trkpt>
      <trkpt lat="44.51312" lon="6.57687">
        <ele>1446</ele>
        <time>2021-04-07T11:11:16Z</time>
      </trkpt>
      <trkpt lat="44.51312" lon="6.57687">
        <ele>1446</ele>
        <time>2021-04-07T11:11:17Z</time>
      </trkpt>
      <trkpt lat="44.51312" lon="6.57687">
        <ele>1446</ele>
        <time>2021-04-07T11:11:18Z</time>
      </trkpt>
      <trkpt lat="44.51312" lon="6.57687">
        <ele>1446</ele>
        <time>2021-04-07T11:11:19Z</time>
      </trkpt>
      <trkpt lat="44.51312" lon="6.57687">
        <ele>1446</ele>
        <time>2021-04-07T11:11:20Z</time>
      </trkpt>
      <trkpt lat="44.51312" lon="6.57687">
        <ele>1446</ele>
        <time>2021-04-07T11:11:21Z</time>
      </trkpt>
      <trkpt lat="44.51312" lon="6.57687">
        <ele>1446</ele>
        <time>2021-04-07T11:11:22Z</time>
      </trkpt>
      <trkpt lat="44.51312" lon="6.57687">
        <ele>1446</ele>
        <time>2021-04-07T11:11:23Z</time>
      </trkpt>
      <trkpt lat="44.51312" lon="6.57687">
        <ele>1446</ele>
        <time>2021-04-07T11:11:24Z</time>
      </trkpt>
      <trkpt lat="44.51312" lon="6.57687">
        <ele>1446</ele>
        <time>2021-04-07T11:11:25Z</time>
      </trkpt>
      <trkpt lat="44.51312" lon="6.57687">
        <ele>1446</ele>
        <time>2021-04-07T11:11:26Z</time>
      </trkpt>
      <trkpt lat="44.51312" lon="6.57687">
        <ele>1446</ele>
        <time>2021-04-07T11:11:27Z</time>
      </trkpt>
      <trkpt lat="44.51312" lon="6.57687">
        <ele>1446</ele>
        <time>2021-04-07T11:11:28Z</time>
      </trkpt>
      <trkpt lat="44.51312" lon="6.57687">
        <ele>1446</ele>
        <time>2021-04-07T11:11:29Z</time>
      </trkpt>
      <trkpt lat="44.51312" lon="6.57687">
        <ele>1446</ele>
        <time>2021-04-07T11:11:30Z</time>
      </trkpt>
      <trkpt lat="44.51312" lon="6.57687">
        <ele>1446</ele>
        <time>2021-04-07T11:11:31Z</time>
      </trkpt>
      <trkpt lat="44.51312" lon="6.57687">
        <ele>1446</ele>
        <time>2021-04-07T11:11:32Z</time>
      </trkpt>
      <trkpt lat="44.51312" lon="6.57687">
        <ele>1446</ele>
        <time>2021-04-07T11:11:33Z</time>
      </trkpt>
      <trkpt lat="44.51312" lon="6.57687">
        <ele>1446</ele>
        <time>2021-04-07T11:11:34Z</time>
      </trkpt>
      <trkpt lat="44.51312" lon="6.57687">
        <ele>1446</ele>
        <time>2021-04-07T11:11:35Z</time>
      </trkpt>
      <trkpt lat="44.51312" lon="6.57687">
        <ele>1446</ele>
        <time>2021-04-07T11:11:36Z</time>
      </trkpt>
      <trkpt lat="44.51312" lon="6.57687">
        <ele>1446</ele>
        <time>2021-04-07T11:11:37Z</time>
      </trkpt>
      <trkpt lat="44.51312" lon="6.57687">
        <ele>1446</ele>
        <time>2021-04-07T11:11:38Z</time>
      </trkpt>
      <trkpt lat="44.51312" lon="6.57687">
        <ele>1446</ele>
        <time>2021-04-07T11:11:39Z</time>
      </trkpt>
      <trkpt lat="44.51312" lon="6.57687">
        <ele>1446</ele>
        <time>2021-04-07T11:11:40Z</time>
      </trkpt>
      <trkpt lat="44.51312" lon="6.57687">
        <ele>1446</ele>
        <time>2021-04-07T11:11:41Z</time>
      </trkpt>
      <trkpt lat="44.51312" lon="6.57687">
        <ele>1446</ele>
        <time>2021-04-07T11:11:42Z</time>
      </trkpt>
      <trkpt lat="44.51312" lon="6.57687">
        <ele>1446</ele>
        <time>2021-04-07T11:11:43Z</time>
      </trkpt>
      <trkpt lat="44.51312" lon="6.57687">
        <ele>1446</ele>
        <time>2021-04-07T11:11:44Z</time>
      </trkpt>
      <trkpt lat="44.51312" lon="6.57687">
        <ele>1446</ele>
        <time>2021-04-07T11:11:45Z</time>
      </trkpt>
      <trkpt lat="44.51312" lon="6.57687">
        <ele>1446</ele>
        <time>2021-04-07T11:11:46Z</time>
      </trkpt>
      <trkpt lat="44.51312" lon="6.57687">
        <ele>1446</ele>
        <time>2021-04-07T11:11:47Z</time>
      </trkpt>
      <trkpt lat="44.51312" lon="6.57687">
        <ele>1446</ele>
        <time>2021-04-07T11:11:48Z</time>
      </trkpt>
      <trkpt lat="44.51312" lon="6.57687">
        <ele>1446</ele>
        <time>2021-04-07T11:11:49Z</time>
      </trkpt>
      <trkpt lat="44.51312" lon="6.57687">
        <ele>1446</ele>
        <time>2021-04-07T11:11:50Z</time>
      </trkpt>
      <trkpt lat="44.51312" lon="6.57687">
        <ele>1446</ele>
        <time>2021-04-07T11:11:51Z</time>
      </trkpt>
      <trkpt lat="44.51312" lon="6.57687">
        <ele>1446</ele>
        <time>2021-04-07T11:11:52Z</time>
      </trkpt>
      <trkpt lat="44.51312" lon="6.57687">
        <ele>1446</ele>
        <time>2021-04-07T11:11:53Z</time>
      </trkpt>
      <trkpt lat="44.51312" lon="6.57687">
        <ele>1446</ele>
        <time>2021-04-07T11:11:54Z</time>
      </trkpt>
      <trkpt lat="44.51312" lon="6.57687">
        <ele>1446</ele>
        <time>2021-04-07T11:11:55Z</time>
      </trkpt>
      <trkpt lat="44.51302" lon="6.57684">
        <ele>1448</ele>
        <time>2021-04-07T11:11:56Z</time>
      </trkpt>
      <trkpt lat="44.51302" lon="6.57684">
        <ele>1448</ele>
        <time>2021-04-07T11:11:57Z</time>
      </trkpt>
      <trkpt lat="44.51301" lon="6.57683">
        <ele>1448</ele>
        <time>2021-04-07T11:11:58Z</time>
      </trkpt>
      <trkpt lat="44.51301" lon="6.57682">
        <ele>1449</ele>
        <time>2021-04-07T11:11:59Z</time>
      </trkpt>
      <trkpt lat="44.51301" lon="6.57682">
        <ele>1449</ele>
        <time>2021-04-07T11:12:00Z</time>
      </trkpt>
      <trkpt lat="44.51301" lon="6.57682">
        <ele>1449</ele>
        <time>2021-04-07T11:12:01Z</time>
      </trkpt>
      <trkpt lat="44.51301" lon="6.57682">
        <ele>1449</ele>
        <time>2021-04-07T11:12:02Z</time>
      </trkpt>
      <trkpt lat="44.51301" lon="6.57682">
        <ele>1449</ele>
        <time>2021-04-07T11:12:03Z</time>
      </trkpt>
      <trkpt lat="44.51301" lon="6.57682">
        <ele>1449</ele>
        <time>2021-04-07T11:12:04Z</time>
      </trkpt>
      <trkpt lat="44.51301" lon="6.57682">
        <ele>1449</ele>
        <time>2021-04-07T11:12:05Z</time>
      </trkpt>
      <trkpt lat="44.51301" lon="6.57682">
        <ele>1449</ele>
        <time>2021-04-07T11:12:06Z</time>
      </trkpt>
      <trkpt lat="44.51301" lon="6.57682">
        <ele>1449</ele>
        <time>2021-04-07T11:12:07Z</time>
      </trkpt>
      <trkpt lat="44.51301" lon="6.57682">
        <ele>1449</ele>
        <time>2021-04-07T11:12:08Z</time>
      </trkpt>
      <trkpt lat="44.51301" lon="6.57682">
        <ele>1449</ele>
        <time>2021-04-07T11:12:09Z</time>
      </trkpt>
      <trkpt lat="44.51301" lon="6.57682">
        <ele>1449</ele>
        <time>2021-04-07T11:12:10Z</time>
      </trkpt>
      <trkpt lat="44.51301" lon="6.57682">
        <ele>1449</ele>
        <time>2021-04-07T11:12:11Z</time>
      </trkpt>
      <trkpt lat="44.51301" lon="6.57682">
        <ele>1449</ele>
        <time>2021-04-07T11:12:12Z</time>
      </trkpt>
      <trkpt lat="44.51301" lon="6.57682">
        <ele>1449</ele>
        <time>2021-04-07T11:12:13Z</time>
      </trkpt>
      <trkpt lat="44.51301" lon="6.57682">
        <ele>1449</ele>
        <time>2021-04-07T11:12:14Z</time>
      </trkpt>
      <trkpt lat="44.51301" lon="6.57682">
        <ele>1449</ele>
        <time>2021-04-07T11:12:15Z</time>
      </trkpt>
      <trkpt lat="44.51301" lon="6.57682">
        <ele>1449</ele>
        <time>2021-04-07T11:12:16Z</time>
      </trkpt>
      <trkpt lat="44.51301" lon="6.57682">
        <ele>1449</ele>
        <time>2021-04-07T11:12:17Z</time>
      </trkpt>
      <trkpt lat="44.51301" lon="6.57682">
        <ele>1449</ele>
        <time>2021-04-07T11:12:18Z</time>
      </trkpt>
      <trkpt lat="44.51301" lon="6.57682">
        <ele>1449</ele>
        <time>2021-04-07T11:12:19Z</time>
      </trkpt>
      <trkpt lat="44.51301" lon="6.57682">
        <ele>1449</ele>
        <time>2021-04-07T11:12:20Z</time>
      </trkpt>
      <trkpt lat="44.51301" lon="6.57682">
        <ele>1449</ele>
        <time>2021-04-07T11:12:21Z</time>
      </trkpt>
      <trkpt lat="44.51301" lon="6.57682">
        <ele>1449</ele>
        <time>2021-04-07T11:12:22Z</time>
      </trkpt>
      <trkpt lat="44.51301" lon="6.57682">
        <ele>1449</ele>
        <time>2021-04-07T11:12:23Z</time>
      </trkpt>
      <trkpt lat="44.51301" lon="6.57682">
        <ele>1449</ele>
        <time>2021-04-07T11:12:24Z</time>
      </trkpt>
      <trkpt lat="44.51301" lon="6.57682">
        <ele>1449</ele>
        <time>2021-04-07T11:12:25Z</time>
      </trkpt>
      <trkpt lat="44.51301" lon="6.57682">
        <ele>1449</ele>
        <time>2021-04-07T11:12:26Z</time>
      </trkpt>
      <trkpt lat="44.51301" lon="6.57682">
        <ele>1449</ele>
        <time>2021-04-07T11:12:27Z</time>
      </trkpt>
      <trkpt lat="44.51301" lon="6.57682">
        <ele>1449</ele>
        <time>2021-04-07T11:12:28Z</time>
      </trkpt>
      <trkpt lat="44.51301" lon="6.57682">
        <ele>1449</ele>
        <time>2021-04-07T11:12:29Z</time>
      </trkpt>
      <trkpt lat="44.51301" lon="6.57682">
        <ele>1449</ele>
        <time>2021-04-07T11:12:30Z</time>
      </trkpt>
      <trkpt lat="44.51301" lon="6.57682">
        <ele>1449</ele>
        <time>2021-04-07T11:12:31Z</time>
      </trkpt>
      <trkpt lat="44.51301" lon="6.57682">
        <ele>1449</ele>
        <time>2021-04-07T11:12:32Z</time>
      </trkpt>
      <trkpt lat="44.51301" lon="6.57682">
        <ele>1449</ele>
        <time>2021-04-07T11:12:33Z</time>
      </trkpt>
      <trkpt lat="44.51301" lon="6.57682">
        <ele>1449</ele>
        <time>2021-04-07T11:12:34Z</time>
      </trkpt>
      <trkpt lat="44.51301" lon="6.57682">
        <ele>1449</ele>
        <time>2021-04-07T11:12:35Z</time>
      </trkpt>
      <trkpt lat="44.51301" lon="6.57682">
        <ele>1449</ele>
        <time>2021-04-07T11:12:36Z</time>
      </trkpt>
      <trkpt lat="44.51301" lon="6.57682">
        <ele>1449</ele>
        <time>2021-04-07T11:12:37Z</time>
      </trkpt>
      <trkpt lat="44.51301" lon="6.57682">
        <ele>1449</ele>
        <time>2021-04-07T11:12:38Z</time>
      </trkpt>
      <trkpt lat="44.51301" lon="6.57682">
        <ele>1449</ele>
        <time>2021-04-07T11:12:39Z</time>
      </trkpt>
      <trkpt lat="44.51301" lon="6.57682">
        <ele>1449</ele>
        <time>2021-04-07T11:12:40Z</time>
      </trkpt>
      <trkpt lat="44.51301" lon="6.57682">
        <ele>1449</ele>
        <time>2021-04-07T11:12:41Z</time>
      </trkpt>
      <trkpt lat="44.51301" lon="6.57682">
        <ele>1449</ele>
        <time>2021-04-07T11:12:42Z</time>
      </trkpt>
      <trkpt lat="44.51301" lon="6.57682">
        <ele>1449</ele>
        <time>2021-04-07T11:12:43Z</time>
      </trkpt>
      <trkpt lat="44.51301" lon="6.57682">
        <ele>1449</ele>
        <time>2021-04-07T11:12:44Z</time>
      </trkpt>
      <trkpt lat="44.51301" lon="6.57682">
        <ele>1449</ele>
        <time>2021-04-07T11:12:45Z</time>
      </trkpt>
      <trkpt lat="44.51301" lon="6.57682">
        <ele>1449</ele>
        <time>2021-04-07T11:12:46Z</time>
      </trkpt>
      <trkpt lat="44.51301" lon="6.57682">
        <ele>1449</ele>
        <time>2021-04-07T11:12:47Z</time>
      </trkpt>
      <trkpt lat="44.51301" lon="6.57682">
        <ele>1449</ele>
        <time>2021-04-07T11:12:48Z</time>
      </trkpt>
      <trkpt lat="44.51301" lon="6.57682">
        <ele>1449</ele>
        <time>2021-04-07T11:12:49Z</time>
      </trkpt>
      <trkpt lat="44.51301" lon="6.57682">
        <ele>1449</ele>
        <time>2021-04-07T11:12:50Z</time>
      </trkpt>
      <trkpt lat="44.51301" lon="6.57682">
        <ele>1449</ele>
        <time>2021-04-07T11:12:51Z</time>
      </trkpt>
      <trkpt lat="44.51301" lon="6.57682">
        <ele>1449</ele>
        <time>2021-04-07T11:12:52Z</time>
      </trkpt>
      <trkpt lat="44.51301" lon="6.57682">
        <ele>1449</ele>
        <time>2021-04-07T11:12:53Z</time>
      </trkpt>
      <trkpt lat="44.51301" lon="6.57682">
        <ele>1449</ele>
        <time>2021-04-07T11:12:54Z</time>
      </trkpt>
      <trkpt lat="44.51301" lon="6.57682">
        <ele>1449</ele>
        <time>2021-04-07T11:12:55Z</time>
      </trkpt>
      <trkpt lat="44.51301" lon="6.57682">
        <ele>1449</ele>
        <time>2021-04-07T11:12:56Z</time>
      </trkpt>
      <trkpt lat="44.51301" lon="6.57682">
        <ele>1449</ele>
        <time>2021-04-07T11:12:57Z</time>
      </trkpt>
      <trkpt lat="44.51301" lon="6.57682">
        <ele>1449</ele>
        <time>2021-04-07T11:12:58Z</time>
      </trkpt>
      <trkpt lat="44.51301" lon="6.57682">
        <ele>1449</ele>
        <time>2021-04-07T11:12:59Z</time>
      </trkpt>
      <trkpt lat="44.51301" lon="6.57682">
        <ele>1449</ele>
        <time>2021-04-07T11:13:00Z</time>
      </trkpt>
      <trkpt lat="44.51301" lon="6.57682">
        <ele>1449</ele>
        <time>2021-04-07T11:13:01Z</time>
      </trkpt>
      <trkpt lat="44.51307" lon="6.57681">
        <ele>1446</ele>
        <time>2021-04-07T11:13:02Z</time>
      </trkpt>
      <trkpt lat="44.51307" lon="6.57682">
        <ele>1445</ele>
        <time>2021-04-07T11:13:03Z</time>
      </trkpt>
      <trkpt lat="44.51306" lon="6.57682">
        <ele>1444</ele>
        <time>2021-04-07T11:13:04Z</time>
      </trkpt>
      <trkpt lat="44.51306" lon="6.57682">
        <ele>1443</ele>
        <time>2021-04-07T11:13:05Z</time>
      </trkpt>
      <trkpt lat="44.51306" lon="6.57682">
        <ele>1443</ele>
        <time>2021-04-07T11:13:06Z</time>
      </trkpt>
      <trkpt lat="44.51306" lon="6.57682">
        <ele>1443</ele>
        <time>2021-04-07T11:13:07Z</time>
      </trkpt>
      <trkpt lat="44.51306" lon="6.57682">
        <ele>1443</ele>
        <time>2021-04-07T11:13:08Z</time>
      </trkpt>
      <trkpt lat="44.51306" lon="6.57682">
        <ele>1443</ele>
        <time>2021-04-07T11:13:09Z</time>
      </trkpt>
      <trkpt lat="44.51306" lon="6.57682">
        <ele>1443</ele>
        <time>2021-04-07T11:13:10Z</time>
      </trkpt>
      <trkpt lat="44.51306" lon="6.57682">
        <ele>1442</ele>
        <time>2021-04-07T11:13:11Z</time>
      </trkpt>
      <trkpt lat="44.51306" lon="6.57682">
        <ele>1442</ele>
        <time>2021-04-07T11:13:12Z</time>
      </trkpt>
      <trkpt lat="44.51306" lon="6.57682">
        <ele>1442</ele>
        <time>2021-04-07T11:13:13Z</time>
      </trkpt>
      <trkpt lat="44.51306" lon="6.57682">
        <ele>1442</ele>
        <time>2021-04-07T11:13:14Z</time>
      </trkpt>
      <trkpt lat="44.51306" lon="6.57682">
        <ele>1442</ele>
        <time>2021-04-07T11:13:15Z</time>
      </trkpt>
      <trkpt lat="44.51306" lon="6.57682">
        <ele>1442</ele>
        <time>2021-04-07T11:13:16Z</time>
      </trkpt>
      <trkpt lat="44.51306" lon="6.57682">
        <ele>1442</ele>
        <time>2021-04-07T11:13:17Z</time>
      </trkpt>
      <trkpt lat="44.51306" lon="6.57682">
        <ele>1442</ele>
        <time>2021-04-07T11:13:18Z</time>
      </trkpt>
      <trkpt lat="44.51306" lon="6.57682">
        <ele>1442</ele>
        <time>2021-04-07T11:13:19Z</time>
      </trkpt>
      <trkpt lat="44.51306" lon="6.57682">
        <ele>1442</ele>
        <time>2021-04-07T11:13:20Z</time>
      </trkpt>
      <trkpt lat="44.51306" lon="6.57682">
        <ele>1442</ele>
        <time>2021-04-07T11:13:21Z</time>
      </trkpt>
      <trkpt lat="44.51306" lon="6.57682">
        <ele>1442</ele>
        <time>2021-04-07T11:13:22Z</time>
      </trkpt>
      <trkpt lat="44.51306" lon="6.57682">
        <ele>1442</ele>
        <time>2021-04-07T11:13:23Z</time>
      </trkpt>
      <trkpt lat="44.51306" lon="6.57682">
        <ele>1442</ele>
        <time>2021-04-07T11:13:24Z</time>
      </trkpt>
      <trkpt lat="44.51306" lon="6.57682">
        <ele>1442</ele>
        <time>2021-04-07T11:13:25Z</time>
      </trkpt>
      <trkpt lat="44.51306" lon="6.57682">
        <ele>1442</ele>
        <time>2021-04-07T11:13:26Z</time>
      </trkpt>
      <trkpt lat="44.51306" lon="6.57682">
        <ele>1442</ele>
        <time>2021-04-07T11:13:27Z</time>
      </trkpt>
      <trkpt lat="44.51306" lon="6.57682">
        <ele>1442</ele>
        <time>2021-04-07T11:13:28Z</time>
      </trkpt>
      <trkpt lat="44.51306" lon="6.57682">
        <ele>1442</ele>
        <time>2021-04-07T11:13:29Z</time>
      </trkpt>
      <trkpt lat="44.51306" lon="6.57682">
        <ele>1442</ele>
        <time>2021-04-07T11:13:30Z</time>
      </trkpt>
      <trkpt lat="44.51306" lon="6.57682">
        <ele>1442</ele>
        <time>2021-04-07T11:13:31Z</time>
      </trkpt>
      <trkpt lat="44.51306" lon="6.57682">
        <ele>1442</ele>
        <time>2021-04-07T11:13:32Z</time>
      </trkpt>
      <trkpt lat="44.51306" lon="6.57682">
        <ele>1442</ele>
        <time>2021-04-07T11:13:33Z</time>
      </trkpt>
      <trkpt lat="44.51306" lon="6.57682">
        <ele>1442</ele>
        <time>2021-04-07T11:13:34Z</time>
      </trkpt>
      <trkpt lat="44.51306" lon="6.57682">
        <ele>1442</ele>
        <time>2021-04-07T11:13:35Z</time>
      </trkpt>
      <trkpt lat="44.51306" lon="6.57682">
        <ele>1442</ele>
        <time>2021-04-07T11:13:36Z</time>
      </trkpt>
      <trkpt lat="44.51306" lon="6.57682">
        <ele>1442</ele>
        <time>2021-04-07T11:13:37Z</time>
      </trkpt>
      <trkpt lat="44.51306" lon="6.57682">
        <ele>1442</ele>
        <time>2021-04-07T11:13:38Z</time>
      </trkpt>
      <trkpt lat="44.51306" lon="6.57682">
        <ele>1442</ele>
        <time>2021-04-07T11:13:39Z</time>
      </trkpt>
      <trkpt lat="44.51306" lon="6.57682">
        <ele>1442</ele>
        <time>2021-04-07T11:13:40Z</time>
      </trkpt>
      <trkpt lat="44.51306" lon="6.57682">
        <ele>1442</ele>
        <time>2021-04-07T11:13:41Z</time>
      </trkpt>
      <trkpt lat="44.51306" lon="6.57682">
        <ele>1442</ele>
        <time>2021-04-07T11:13:42Z</time>
      </trkpt>
      <trkpt lat="44.51306" lon="6.57682">
        <ele>1442</ele>
        <time>2021-04-07T11:13:43Z</time>
      </trkpt>
      <trkpt lat="44.51306" lon="6.57682">
        <ele>1442</ele>
        <time>2021-04-07T11:13:44Z</time>
      </trkpt>
      <trkpt lat="44.51306" lon="6.57682">
        <ele>1442</ele>
        <time>2021-04-07T11:13:45Z</time>
      </trkpt>
      <trkpt lat="44.51306" lon="6.57682">
        <ele>1442</ele>
        <time>2021-04-07T11:13:46Z</time>
      </trkpt>
      <trkpt lat="44.51306" lon="6.57682">
        <ele>1442</ele>
        <time>2021-04-07T11:13:47Z</time>
      </trkpt>
      <trkpt lat="44.51306" lon="6.57682">
        <ele>1442</ele>
        <time>2021-04-07T11:13:48Z</time>
      </trkpt>
      <trkpt lat="44.51306" lon="6.57682">
        <ele>1442</ele>
        <time>2021-04-07T11:13:49Z</time>
      </trkpt>
      <trkpt lat="44.51306" lon="6.57682">
        <ele>1442</ele>
        <time>2021-04-07T11:13:50Z</time>
      </trkpt>
      <trkpt lat="44.51306" lon="6.57682">
        <ele>1442</ele>
        <time>2021-04-07T11:13:51Z</time>
      </trkpt>
      <trkpt lat="44.51306" lon="6.57682">
        <ele>1442</ele>
        <time>2021-04-07T11:13:52Z</time>
      </trkpt>
      <trkpt lat="44.51306" lon="6.57682">
        <ele>1442</ele>
        <time>2021-04-07T11:13:53Z</time>
      </trkpt>
      <trkpt lat="44.51306" lon="6.57682">
        <ele>1442</ele>
        <time>2021-04-07T11:13:54Z</time>
      </trkpt>
      <trkpt lat="44.51306" lon="6.57682">
        <ele>1442</ele>
        <time>2021-04-07T11:13:55Z</time>
      </trkpt>
      <trkpt lat="44.51306" lon="6.57682">
        <ele>1442</ele>
        <time>2021-04-07T11:13:56Z</time>
      </trkpt>
      <trkpt lat="44.51306" lon="6.57682">
        <ele>1442</ele>
        <time>2021-04-07T11:13:57Z</time>
      </trkpt>
      <trkpt lat="44.51306" lon="6.57682">
        <ele>1442</ele>
        <time>2021-04-07T11:13:58Z</time>
      </trkpt>
      <trkpt lat="44.51306" lon="6.57682">
        <ele>1442</ele>
        <time>2021-04-07T11:13:59Z</time>
      </trkpt>
      <trkpt lat="44.51306" lon="6.57682">
        <ele>1442</ele>
        <time>2021-04-07T11:14:00Z</time>
      </trkpt>
      <trkpt lat="44.51306" lon="6.57682">
        <ele>1442</ele>
        <time>2021-04-07T11:14:01Z</time>
      </trkpt>
      <trkpt lat="44.51306" lon="6.57682">
        <ele>1442</ele>
        <time>2021-04-07T11:14:02Z</time>
      </trkpt>
      <trkpt lat="44.51306" lon="6.57682">
        <ele>1442</ele>
        <time>2021-04-07T11:14:03Z</time>
      </trkpt>
      <trkpt lat="44.51306" lon="6.57682">
        <ele>1442</ele>
        <time>2021-04-07T11:14:04Z</time>
      </trkpt>
      <trkpt lat="44.51306" lon="6.57682">
        <ele>1442</ele>
        <time>2021-04-07T11:14:05Z</time>
      </trkpt>
      <trkpt lat="44.51306" lon="6.57682">
        <ele>1442</ele>
        <time>2021-04-07T11:14:06Z</time>
      </trkpt>
      <trkpt lat="44.51306" lon="6.57682">
        <ele>1442</ele>
        <time>2021-04-07T11:14:07Z</time>
      </trkpt>
      <trkpt lat="44.51306" lon="6.57682">
        <ele>1442</ele>
        <time>2021-04-07T11:14:08Z</time>
      </trkpt>
      <trkpt lat="44.51306" lon="6.57682">
        <ele>1442</ele>
        <time>2021-04-07T11:14:09Z</time>
      </trkpt>
      <trkpt lat="44.51306" lon="6.57682">
        <ele>1442</ele>
        <time>2021-04-07T11:14:10Z</time>
      </trkpt>
      <trkpt lat="44.51306" lon="6.57682">
        <ele>1442</ele>
        <time>2021-04-07T11:14:11Z</time>
      </trkpt>
      <trkpt lat="44.51306" lon="6.57682">
        <ele>1442</ele>
        <time>2021-04-07T11:14:12Z</time>
      </trkpt>
      <trkpt lat="44.51306" lon="6.57682">
        <ele>1442</ele>
        <time>2021-04-07T11:14:13Z</time>
      </trkpt>
      <trkpt lat="44.51306" lon="6.57682">
        <ele>1442</ele>
        <time>2021-04-07T11:14:14Z</time>
      </trkpt>
      <trkpt lat="44.51306" lon="6.57682">
        <ele>1442</ele>
        <time>2021-04-07T11:14:15Z</time>
      </trkpt>
      <trkpt lat="44.51306" lon="6.57682">
        <ele>1442</ele>
        <time>2021-04-07T11:14:16Z</time>
      </trkpt>
      <trkpt lat="44.51306" lon="6.57682">
        <ele>1442</ele>
        <time>2021-04-07T11:14:17Z</time>
      </trkpt>
      <trkpt lat="44.51306" lon="6.57682">
        <ele>1442</ele>
        <time>2021-04-07T11:14:18Z</time>
      </trkpt>
      <trkpt lat="44.51306" lon="6.57682">
        <ele>1442</ele>
        <time>2021-04-07T11:14:19Z</time>
      </trkpt>
      <trkpt lat="44.51306" lon="6.57682">
        <ele>1442</ele>
        <time>2021-04-07T11:14:20Z</time>
      </trkpt>
      <trkpt lat="44.51306" lon="6.57682">
        <ele>1442</ele>
        <time>2021-04-07T11:14:21Z</time>
      </trkpt>
      <trkpt lat="44.51306" lon="6.57682">
        <ele>1442</ele>
        <time>2021-04-07T11:14:22Z</time>
      </trkpt>
      <trkpt lat="44.51306" lon="6.57682">
        <ele>1442</ele>
        <time>2021-04-07T11:14:23Z</time>
      </trkpt>
      <trkpt lat="44.51306" lon="6.57682">
        <ele>1442</ele>
        <time>2021-04-07T11:14:24Z</time>
      </trkpt>
      <trkpt lat="44.51306" lon="6.57682">
        <ele>1442</ele>
        <time>2021-04-07T11:14:25Z</time>
      </trkpt>
      <trkpt lat="44.51306" lon="6.57682">
        <ele>1442</ele>
        <time>2021-04-07T11:14:26Z</time>
      </trkpt>
      <trkpt lat="44.51306" lon="6.57682">
        <ele>1442</ele>
        <time>2021-04-07T11:14:27Z</time>
      </trkpt>
      <trkpt lat="44.51306" lon="6.57682">
        <ele>1442</ele>
        <time>2021-04-07T11:14:28Z</time>
      </trkpt>
      <trkpt lat="44.51306" lon="6.57682">
        <ele>1442</ele>
        <time>2021-04-07T11:14:29Z</time>
      </trkpt>
      <trkpt lat="44.51306" lon="6.57682">
        <ele>1442</ele>
        <time>2021-04-07T11:14:30Z</time>
      </trkpt>
      <trkpt lat="44.51306" lon="6.57682">
        <ele>1442</ele>
        <time>2021-04-07T11:14:31Z</time>
      </trkpt>
      <trkpt lat="44.51306" lon="6.57682">
        <ele>1442</ele>
        <time>2021-04-07T11:14:32Z</time>
      </trkpt>
    </trkseg>
  </trk>
</gpx>